<?xml version="1.0" encoding="UTF-8" standalone="no" ?>
<gpx xmlns="http://www.topografix.com/GPX/1/1" xmlns:xsi="http://www.w3.org/2001/XMLSchema-instance" xsi:schemaLocation="http://www.topografix.com/GPX/1/1 http://www.topografix.com/GPX/1/1/gpx.xsd" version="1.1" creator="VisuGPX - https://www.visugpx.com">
  <metadata>
    <name>Plateau d'Ambel</name>
  </metadata>
  <trk>
    <name><![CDATA[Plateau d'Ambel_1]]></name>
    <trkseg>
      <trkpt lat="44.89935" lon="5.22926">
        <ele>1333.4</ele>
        <time>2024-07-02T08:10:03Z</time>
      </trkpt>
      <trkpt lat="44.89932" lon="5.22927">
        <ele>1333.4</ele>
        <time>2024-07-02T08:10:04Z</time>
      </trkpt>
      <trkpt lat="44.89931" lon="5.22927">
        <ele>1333.4</ele>
        <time>2024-07-02T08:10:05Z</time>
      </trkpt>
      <trkpt lat="44.8993" lon="5.22929">
        <ele>1333.4</ele>
        <time>2024-07-02T08:10:06Z</time>
      </trkpt>
      <trkpt lat="44.8993" lon="5.2293">
        <ele>1333.4</ele>
        <time>2024-07-02T08:10:07Z</time>
      </trkpt>
      <trkpt lat="44.8993" lon="5.22932">
        <ele>1333.4</ele>
        <time>2024-07-02T08:10:08Z</time>
      </trkpt>
      <trkpt lat="44.89929" lon="5.22934">
        <ele>1333.4</ele>
        <time>2024-07-02T08:10:09Z</time>
      </trkpt>
      <trkpt lat="44.89929" lon="5.22936">
        <ele>1333.4</ele>
        <time>2024-07-02T08:10:10Z</time>
      </trkpt>
      <trkpt lat="44.89929" lon="5.22938">
        <ele>1333.4</ele>
        <time>2024-07-02T08:10:11Z</time>
      </trkpt>
      <trkpt lat="44.89929" lon="5.22939">
        <ele>1333.4</ele>
        <time>2024-07-02T08:10:12Z</time>
      </trkpt>
      <trkpt lat="44.89929" lon="5.22939">
        <ele>1333.4</ele>
        <time>2024-07-02T08:10:13Z</time>
      </trkpt>
      <trkpt lat="44.89928" lon="5.22941">
        <ele>1333.4</ele>
        <time>2024-07-02T08:10:14Z</time>
      </trkpt>
      <trkpt lat="44.89928" lon="5.22943">
        <ele>1333.4</ele>
        <time>2024-07-02T08:10:15Z</time>
      </trkpt>
      <trkpt lat="44.89927" lon="5.22945">
        <ele>1333.4</ele>
        <time>2024-07-02T08:10:16Z</time>
      </trkpt>
      <trkpt lat="44.89927" lon="5.22947">
        <ele>1333.3</ele>
        <time>2024-07-02T08:10:17Z</time>
      </trkpt>
      <trkpt lat="44.89927" lon="5.22948">
        <ele>1333.3</ele>
        <time>2024-07-02T08:10:18Z</time>
      </trkpt>
      <trkpt lat="44.89927" lon="5.22949">
        <ele>1333.3</ele>
        <time>2024-07-02T08:10:19Z</time>
      </trkpt>
      <trkpt lat="44.89926" lon="5.22951">
        <ele>1333.3</ele>
        <time>2024-07-02T08:10:20Z</time>
      </trkpt>
      <trkpt lat="44.89926" lon="5.22953">
        <ele>1333.3</ele>
        <time>2024-07-02T08:10:21Z</time>
      </trkpt>
      <trkpt lat="44.89925" lon="5.22955">
        <ele>1333.3</ele>
        <time>2024-07-02T08:10:22Z</time>
      </trkpt>
      <trkpt lat="44.89924" lon="5.22958">
        <ele>1333.3</ele>
        <time>2024-07-02T08:10:23Z</time>
      </trkpt>
      <trkpt lat="44.89924" lon="5.22959">
        <ele>1333.3</ele>
        <time>2024-07-02T08:10:24Z</time>
      </trkpt>
      <trkpt lat="44.89924" lon="5.2296">
        <ele>1333.3</ele>
        <time>2024-07-02T08:10:25Z</time>
      </trkpt>
      <trkpt lat="44.89922" lon="5.22963">
        <ele>1333.2</ele>
        <time>2024-07-02T08:10:26Z</time>
      </trkpt>
      <trkpt lat="44.89922" lon="5.22964">
        <ele>1333.2</ele>
        <time>2024-07-02T08:10:27Z</time>
      </trkpt>
      <trkpt lat="44.89922" lon="5.22965">
        <ele>1333.2</ele>
        <time>2024-07-02T08:10:28Z</time>
      </trkpt>
      <trkpt lat="44.89921" lon="5.22967">
        <ele>1333.2</ele>
        <time>2024-07-02T08:10:29Z</time>
      </trkpt>
      <trkpt lat="44.8992" lon="5.22968">
        <ele>1333.2</ele>
        <time>2024-07-02T08:10:30Z</time>
      </trkpt>
      <trkpt lat="44.8992" lon="5.22969">
        <ele>1333.2</ele>
        <time>2024-07-02T08:10:31Z</time>
      </trkpt>
      <trkpt lat="44.8992" lon="5.22971">
        <ele>1333.2</ele>
        <time>2024-07-02T08:10:32Z</time>
      </trkpt>
      <trkpt lat="44.89919" lon="5.22973">
        <ele>1333.1</ele>
        <time>2024-07-02T08:10:33Z</time>
      </trkpt>
      <trkpt lat="44.89919" lon="5.22974">
        <ele>1333.1</ele>
        <time>2024-07-02T08:10:34Z</time>
      </trkpt>
      <trkpt lat="44.89918" lon="5.22975">
        <ele>1333.1</ele>
        <time>2024-07-02T08:10:35Z</time>
      </trkpt>
      <trkpt lat="44.89918" lon="5.22977">
        <ele>1333.1</ele>
        <time>2024-07-02T08:10:36Z</time>
      </trkpt>
      <trkpt lat="44.89918" lon="5.22978">
        <ele>1333.1</ele>
        <time>2024-07-02T08:10:37Z</time>
      </trkpt>
      <trkpt lat="44.89917" lon="5.2298">
        <ele>1333</ele>
        <time>2024-07-02T08:10:38Z</time>
      </trkpt>
      <trkpt lat="44.89917" lon="5.22981">
        <ele>1333</ele>
        <time>2024-07-02T08:10:39Z</time>
      </trkpt>
      <trkpt lat="44.89916" lon="5.22983">
        <ele>1333</ele>
        <time>2024-07-02T08:10:40Z</time>
      </trkpt>
      <trkpt lat="44.89916" lon="5.22985">
        <ele>1333</ele>
        <time>2024-07-02T08:10:41Z</time>
      </trkpt>
      <trkpt lat="44.89915" lon="5.22986">
        <ele>1333</ele>
        <time>2024-07-02T08:10:42Z</time>
      </trkpt>
      <trkpt lat="44.89915" lon="5.22987">
        <ele>1332.9</ele>
        <time>2024-07-02T08:10:43Z</time>
      </trkpt>
      <trkpt lat="44.89914" lon="5.2299">
        <ele>1332.9</ele>
        <time>2024-07-02T08:10:44Z</time>
      </trkpt>
      <trkpt lat="44.89914" lon="5.22991">
        <ele>1332.9</ele>
        <time>2024-07-02T08:10:45Z</time>
      </trkpt>
      <trkpt lat="44.89913" lon="5.22992">
        <ele>1332.9</ele>
        <time>2024-07-02T08:10:46Z</time>
      </trkpt>
      <trkpt lat="44.89913" lon="5.22994">
        <ele>1332.8</ele>
        <time>2024-07-02T08:10:47Z</time>
      </trkpt>
      <trkpt lat="44.89914" lon="5.22995">
        <ele>1332.8</ele>
        <time>2024-07-02T08:10:48Z</time>
      </trkpt>
      <trkpt lat="44.89914" lon="5.22997">
        <ele>1332.8</ele>
        <time>2024-07-02T08:10:49Z</time>
      </trkpt>
      <trkpt lat="44.89914" lon="5.22998">
        <ele>1332.7</ele>
        <time>2024-07-02T08:10:50Z</time>
      </trkpt>
      <trkpt lat="44.89914" lon="5.23">
        <ele>1332.7</ele>
        <time>2024-07-02T08:10:51Z</time>
      </trkpt>
      <trkpt lat="44.89913" lon="5.23001">
        <ele>1332.7</ele>
        <time>2024-07-02T08:10:52Z</time>
      </trkpt>
      <trkpt lat="44.89913" lon="5.23004">
        <ele>1332.6</ele>
        <time>2024-07-02T08:10:53Z</time>
      </trkpt>
      <trkpt lat="44.89913" lon="5.23005">
        <ele>1332.6</ele>
        <time>2024-07-02T08:10:55Z</time>
      </trkpt>
      <trkpt lat="44.89913" lon="5.23007">
        <ele>1332.5</ele>
        <time>2024-07-02T08:10:56Z</time>
      </trkpt>
      <trkpt lat="44.89913" lon="5.23008">
        <ele>1332.5</ele>
        <time>2024-07-02T08:10:57Z</time>
      </trkpt>
      <trkpt lat="44.89913" lon="5.23011">
        <ele>1332.4</ele>
        <time>2024-07-02T08:10:59Z</time>
      </trkpt>
      <trkpt lat="44.89913" lon="5.23012">
        <ele>1332.3</ele>
        <time>2024-07-02T08:11:00Z</time>
      </trkpt>
      <trkpt lat="44.89914" lon="5.23013">
        <ele>1332.3</ele>
        <time>2024-07-02T08:11:01Z</time>
      </trkpt>
      <trkpt lat="44.89915" lon="5.23015">
        <ele>1332.2</ele>
        <time>2024-07-02T08:11:02Z</time>
      </trkpt>
      <trkpt lat="44.89916" lon="5.23016">
        <ele>1332.2</ele>
        <time>2024-07-02T08:11:03Z</time>
      </trkpt>
      <trkpt lat="44.89916" lon="5.23017">
        <ele>1332.1</ele>
        <time>2024-07-02T08:11:04Z</time>
      </trkpt>
      <trkpt lat="44.89917" lon="5.23018">
        <ele>1332.1</ele>
        <time>2024-07-02T08:11:05Z</time>
      </trkpt>
      <trkpt lat="44.89905" lon="5.23035">
        <ele>1331.1</ele>
        <time>2024-07-02T08:11:35Z</time>
      </trkpt>
      <trkpt lat="44.89904" lon="5.2304">
        <ele>1330.9</ele>
        <time>2024-07-02T08:11:36Z</time>
      </trkpt>
      <trkpt lat="44.89903" lon="5.23046">
        <ele>1330.6</ele>
        <time>2024-07-02T08:11:37Z</time>
      </trkpt>
      <trkpt lat="44.89896" lon="5.23061">
        <ele>1329.8</ele>
        <time>2024-07-02T08:11:38Z</time>
      </trkpt>
      <trkpt lat="44.89893" lon="5.23068">
        <ele>1329.4</ele>
        <time>2024-07-02T08:11:39Z</time>
      </trkpt>
      <trkpt lat="44.89891" lon="5.23072">
        <ele>1329.1</ele>
        <time>2024-07-02T08:11:40Z</time>
      </trkpt>
      <trkpt lat="44.8989" lon="5.23073">
        <ele>1329</ele>
        <time>2024-07-02T08:11:41Z</time>
      </trkpt>
      <trkpt lat="44.89889" lon="5.23076">
        <ele>1328.9</ele>
        <time>2024-07-02T08:11:42Z</time>
      </trkpt>
      <trkpt lat="44.89889" lon="5.23079">
        <ele>1328.8</ele>
        <time>2024-07-02T08:11:43Z</time>
      </trkpt>
      <trkpt lat="44.89888" lon="5.23081">
        <ele>1328.7</ele>
        <time>2024-07-02T08:11:44Z</time>
      </trkpt>
      <trkpt lat="44.89888" lon="5.23083">
        <ele>1328.6</ele>
        <time>2024-07-02T08:11:45Z</time>
      </trkpt>
      <trkpt lat="44.89887" lon="5.23085">
        <ele>1328.5</ele>
        <time>2024-07-02T08:11:46Z</time>
      </trkpt>
      <trkpt lat="44.89887" lon="5.23087">
        <ele>1328.4</ele>
        <time>2024-07-02T08:11:47Z</time>
      </trkpt>
      <trkpt lat="44.89887" lon="5.23089">
        <ele>1328.3</ele>
        <time>2024-07-02T08:11:48Z</time>
      </trkpt>
      <trkpt lat="44.89886" lon="5.23092">
        <ele>1328.1</ele>
        <time>2024-07-02T08:11:49Z</time>
      </trkpt>
      <trkpt lat="44.89886" lon="5.23094">
        <ele>1328</ele>
        <time>2024-07-02T08:11:50Z</time>
      </trkpt>
      <trkpt lat="44.89886" lon="5.23095">
        <ele>1328</ele>
        <time>2024-07-02T08:11:51Z</time>
      </trkpt>
      <trkpt lat="44.89885" lon="5.23097">
        <ele>1327.9</ele>
        <time>2024-07-02T08:11:52Z</time>
      </trkpt>
      <trkpt lat="44.89885" lon="5.23098">
        <ele>1327.8</ele>
        <time>2024-07-02T08:11:53Z</time>
      </trkpt>
      <trkpt lat="44.89885" lon="5.231">
        <ele>1327.7</ele>
        <time>2024-07-02T08:11:54Z</time>
      </trkpt>
      <trkpt lat="44.89885" lon="5.23102">
        <ele>1327.6</ele>
        <time>2024-07-02T08:11:55Z</time>
      </trkpt>
      <trkpt lat="44.89884" lon="5.23104">
        <ele>1327.5</ele>
        <time>2024-07-02T08:11:56Z</time>
      </trkpt>
      <trkpt lat="44.89884" lon="5.23105">
        <ele>1327.5</ele>
        <time>2024-07-02T08:11:57Z</time>
      </trkpt>
      <trkpt lat="44.89884" lon="5.23106">
        <ele>1327.4</ele>
        <time>2024-07-02T08:11:58Z</time>
      </trkpt>
      <trkpt lat="44.89883" lon="5.23108">
        <ele>1327.3</ele>
        <time>2024-07-02T08:11:59Z</time>
      </trkpt>
      <trkpt lat="44.89882" lon="5.23109">
        <ele>1327.2</ele>
        <time>2024-07-02T08:12:00Z</time>
      </trkpt>
      <trkpt lat="44.89882" lon="5.23111">
        <ele>1327.1</ele>
        <time>2024-07-02T08:12:01Z</time>
      </trkpt>
      <trkpt lat="44.89881" lon="5.23112">
        <ele>1327</ele>
        <time>2024-07-02T08:12:02Z</time>
      </trkpt>
      <trkpt lat="44.8988" lon="5.23113">
        <ele>1326.9</ele>
        <time>2024-07-02T08:12:03Z</time>
      </trkpt>
      <trkpt lat="44.89879" lon="5.23114">
        <ele>1326.8</ele>
        <time>2024-07-02T08:12:04Z</time>
      </trkpt>
      <trkpt lat="44.89879" lon="5.23116">
        <ele>1326.7</ele>
        <time>2024-07-02T08:12:05Z</time>
      </trkpt>
      <trkpt lat="44.89879" lon="5.23119">
        <ele>1326.6</ele>
        <time>2024-07-02T08:12:06Z</time>
      </trkpt>
      <trkpt lat="44.89879" lon="5.2312">
        <ele>1326.5</ele>
        <time>2024-07-02T08:12:07Z</time>
      </trkpt>
      <trkpt lat="44.89879" lon="5.23123">
        <ele>1326.4</ele>
        <time>2024-07-02T08:12:08Z</time>
      </trkpt>
      <trkpt lat="44.89879" lon="5.23124">
        <ele>1326.3</ele>
        <time>2024-07-02T08:12:09Z</time>
      </trkpt>
      <trkpt lat="44.89879" lon="5.23125">
        <ele>1326.2</ele>
        <time>2024-07-02T08:12:10Z</time>
      </trkpt>
      <trkpt lat="44.89879" lon="5.23128">
        <ele>1326.1</ele>
        <time>2024-07-02T08:12:11Z</time>
      </trkpt>
      <trkpt lat="44.89879" lon="5.23129">
        <ele>1326</ele>
        <time>2024-07-02T08:12:12Z</time>
      </trkpt>
      <trkpt lat="44.89879" lon="5.2313">
        <ele>1326</ele>
        <time>2024-07-02T08:12:13Z</time>
      </trkpt>
      <trkpt lat="44.89878" lon="5.23133">
        <ele>1325.8</ele>
        <time>2024-07-02T08:12:14Z</time>
      </trkpt>
      <trkpt lat="44.89878" lon="5.23134">
        <ele>1325.7</ele>
        <time>2024-07-02T08:12:15Z</time>
      </trkpt>
      <trkpt lat="44.89878" lon="5.23135">
        <ele>1325.7</ele>
        <time>2024-07-02T08:12:16Z</time>
      </trkpt>
      <trkpt lat="44.89877" lon="5.23138">
        <ele>1325.5</ele>
        <time>2024-07-02T08:12:17Z</time>
      </trkpt>
      <trkpt lat="44.89877" lon="5.23139">
        <ele>1325.4</ele>
        <time>2024-07-02T08:12:18Z</time>
      </trkpt>
      <trkpt lat="44.89877" lon="5.2314">
        <ele>1325.4</ele>
        <time>2024-07-02T08:12:19Z</time>
      </trkpt>
      <trkpt lat="44.89876" lon="5.23142">
        <ele>1325.3</ele>
        <time>2024-07-02T08:12:20Z</time>
      </trkpt>
      <trkpt lat="44.89875" lon="5.23145">
        <ele>1325.1</ele>
        <time>2024-07-02T08:12:21Z</time>
      </trkpt>
      <trkpt lat="44.89875" lon="5.23146">
        <ele>1325.1</ele>
        <time>2024-07-02T08:12:22Z</time>
      </trkpt>
      <trkpt lat="44.89875" lon="5.23147">
        <ele>1325</ele>
        <time>2024-07-02T08:12:23Z</time>
      </trkpt>
      <trkpt lat="44.89874" lon="5.23149">
        <ele>1324.8</ele>
        <time>2024-07-02T08:12:24Z</time>
      </trkpt>
      <trkpt lat="44.89873" lon="5.2315">
        <ele>1324.8</ele>
        <time>2024-07-02T08:12:25Z</time>
      </trkpt>
      <trkpt lat="44.89872" lon="5.23152">
        <ele>1324.6</ele>
        <time>2024-07-02T08:12:26Z</time>
      </trkpt>
      <trkpt lat="44.89872" lon="5.23153">
        <ele>1324.6</ele>
        <time>2024-07-02T08:12:27Z</time>
      </trkpt>
      <trkpt lat="44.89871" lon="5.23154">
        <ele>1324.5</ele>
        <time>2024-07-02T08:12:28Z</time>
      </trkpt>
      <trkpt lat="44.8987" lon="5.23155">
        <ele>1324.4</ele>
        <time>2024-07-02T08:12:29Z</time>
      </trkpt>
      <trkpt lat="44.8987" lon="5.23156">
        <ele>1324.3</ele>
        <time>2024-07-02T08:12:30Z</time>
      </trkpt>
      <trkpt lat="44.89869" lon="5.23158">
        <ele>1324.2</ele>
        <time>2024-07-02T08:12:31Z</time>
      </trkpt>
      <trkpt lat="44.8987" lon="5.2316">
        <ele>1324.1</ele>
        <time>2024-07-02T08:12:32Z</time>
      </trkpt>
      <trkpt lat="44.89869" lon="5.23163">
        <ele>1323.9</ele>
        <time>2024-07-02T08:12:33Z</time>
      </trkpt>
      <trkpt lat="44.89869" lon="5.23164">
        <ele>1323.8</ele>
        <time>2024-07-02T08:12:34Z</time>
      </trkpt>
      <trkpt lat="44.89869" lon="5.23165">
        <ele>1323.8</ele>
        <time>2024-07-02T08:12:35Z</time>
      </trkpt>
      <trkpt lat="44.89868" lon="5.23168">
        <ele>1323.6</ele>
        <time>2024-07-02T08:12:36Z</time>
      </trkpt>
      <trkpt lat="44.89868" lon="5.23169">
        <ele>1323.6</ele>
        <time>2024-07-02T08:12:37Z</time>
      </trkpt>
      <trkpt lat="44.89868" lon="5.2317">
        <ele>1323.5</ele>
        <time>2024-07-02T08:12:38Z</time>
      </trkpt>
      <trkpt lat="44.89867" lon="5.23173">
        <ele>1323.3</ele>
        <time>2024-07-02T08:12:39Z</time>
      </trkpt>
      <trkpt lat="44.89867" lon="5.23175">
        <ele>1323.2</ele>
        <time>2024-07-02T08:12:40Z</time>
      </trkpt>
      <trkpt lat="44.89867" lon="5.23176">
        <ele>1323.2</ele>
        <time>2024-07-02T08:12:41Z</time>
      </trkpt>
      <trkpt lat="44.89867" lon="5.23177">
        <ele>1323.1</ele>
        <time>2024-07-02T08:12:42Z</time>
      </trkpt>
      <trkpt lat="44.89867" lon="5.23179">
        <ele>1323</ele>
        <time>2024-07-02T08:12:43Z</time>
      </trkpt>
      <trkpt lat="44.89866" lon="5.2318">
        <ele>1322.9</ele>
        <time>2024-07-02T08:12:44Z</time>
      </trkpt>
      <trkpt lat="44.89866" lon="5.23182">
        <ele>1322.8</ele>
        <time>2024-07-02T08:12:45Z</time>
      </trkpt>
      <trkpt lat="44.89866" lon="5.23184">
        <ele>1322.7</ele>
        <time>2024-07-02T08:12:46Z</time>
      </trkpt>
      <trkpt lat="44.89865" lon="5.23185">
        <ele>1322.6</ele>
        <time>2024-07-02T08:12:47Z</time>
      </trkpt>
      <trkpt lat="44.89865" lon="5.23187">
        <ele>1322.5</ele>
        <time>2024-07-02T08:12:48Z</time>
      </trkpt>
      <trkpt lat="44.89865" lon="5.23188">
        <ele>1322.5</ele>
        <time>2024-07-02T08:12:49Z</time>
      </trkpt>
      <trkpt lat="44.89865" lon="5.2319">
        <ele>1322.4</ele>
        <time>2024-07-02T08:12:50Z</time>
      </trkpt>
      <trkpt lat="44.89864" lon="5.23192">
        <ele>1322.3</ele>
        <time>2024-07-02T08:12:51Z</time>
      </trkpt>
      <trkpt lat="44.89865" lon="5.23193">
        <ele>1322.2</ele>
        <time>2024-07-02T08:12:52Z</time>
      </trkpt>
      <trkpt lat="44.89864" lon="5.23195">
        <ele>1322.1</ele>
        <time>2024-07-02T08:12:53Z</time>
      </trkpt>
      <trkpt lat="44.89863" lon="5.23196">
        <ele>1322</ele>
        <time>2024-07-02T08:12:54Z</time>
      </trkpt>
      <trkpt lat="44.89863" lon="5.23197">
        <ele>1321.9</ele>
        <time>2024-07-02T08:12:55Z</time>
      </trkpt>
      <trkpt lat="44.89862" lon="5.23199">
        <ele>1321.8</ele>
        <time>2024-07-02T08:12:56Z</time>
      </trkpt>
      <trkpt lat="44.89863" lon="5.23201">
        <ele>1321.7</ele>
        <time>2024-07-02T08:12:57Z</time>
      </trkpt>
      <trkpt lat="44.89863" lon="5.232">
        <ele>1321.6</ele>
        <time>2024-07-02T08:12:58Z</time>
      </trkpt>
      <trkpt lat="44.89862" lon="5.232">
        <ele>1321.6</ele>
        <time>2024-07-02T08:12:59Z</time>
      </trkpt>
      <trkpt lat="44.89862" lon="5.232">
        <ele>1321.5</ele>
        <time>2024-07-02T08:13:00Z</time>
      </trkpt>
      <trkpt lat="44.8986" lon="5.23202">
        <ele>1321.4</ele>
        <time>2024-07-02T08:13:01Z</time>
      </trkpt>
      <trkpt lat="44.8986" lon="5.23203">
        <ele>1321.3</ele>
        <time>2024-07-02T08:13:02Z</time>
      </trkpt>
      <trkpt lat="44.89859" lon="5.23204">
        <ele>1321.2</ele>
        <time>2024-07-02T08:13:03Z</time>
      </trkpt>
      <trkpt lat="44.89858" lon="5.23206">
        <ele>1321.1</ele>
        <time>2024-07-02T08:13:04Z</time>
      </trkpt>
      <trkpt lat="44.89857" lon="5.23207">
        <ele>1321</ele>
        <time>2024-07-02T08:13:05Z</time>
      </trkpt>
      <trkpt lat="44.89857" lon="5.23209">
        <ele>1320.9</ele>
        <time>2024-07-02T08:13:06Z</time>
      </trkpt>
      <trkpt lat="44.89856" lon="5.2321">
        <ele>1320.8</ele>
        <time>2024-07-02T08:13:07Z</time>
      </trkpt>
      <trkpt lat="44.89856" lon="5.23211">
        <ele>1320.7</ele>
        <time>2024-07-02T08:13:08Z</time>
      </trkpt>
      <trkpt lat="44.89856" lon="5.23212">
        <ele>1320.6</ele>
        <time>2024-07-02T08:13:09Z</time>
      </trkpt>
      <trkpt lat="44.89855" lon="5.23215">
        <ele>1320.4</ele>
        <time>2024-07-02T08:13:10Z</time>
      </trkpt>
      <trkpt lat="44.89854" lon="5.23216">
        <ele>1320.3</ele>
        <time>2024-07-02T08:13:11Z</time>
      </trkpt>
      <trkpt lat="44.89854" lon="5.23217">
        <ele>1320.3</ele>
        <time>2024-07-02T08:13:12Z</time>
      </trkpt>
      <trkpt lat="44.89854" lon="5.23218">
        <ele>1320.2</ele>
        <time>2024-07-02T08:13:13Z</time>
      </trkpt>
      <trkpt lat="44.89853" lon="5.2322">
        <ele>1320.1</ele>
        <time>2024-07-02T08:13:14Z</time>
      </trkpt>
      <trkpt lat="44.89853" lon="5.23222">
        <ele>1320</ele>
        <time>2024-07-02T08:13:15Z</time>
      </trkpt>
      <trkpt lat="44.89853" lon="5.23223">
        <ele>1319.9</ele>
        <time>2024-07-02T08:13:16Z</time>
      </trkpt>
      <trkpt lat="44.89852" lon="5.23225">
        <ele>1319.8</ele>
        <time>2024-07-02T08:13:17Z</time>
      </trkpt>
      <trkpt lat="44.89852" lon="5.23226">
        <ele>1319.7</ele>
        <time>2024-07-02T08:13:18Z</time>
      </trkpt>
      <trkpt lat="44.89852" lon="5.23229">
        <ele>1319.5</ele>
        <time>2024-07-02T08:13:19Z</time>
      </trkpt>
      <trkpt lat="44.89852" lon="5.2323">
        <ele>1319.4</ele>
        <time>2024-07-02T08:13:20Z</time>
      </trkpt>
      <trkpt lat="44.89852" lon="5.23232">
        <ele>1319.3</ele>
        <time>2024-07-02T08:13:21Z</time>
      </trkpt>
      <trkpt lat="44.89852" lon="5.23233">
        <ele>1319.3</ele>
        <time>2024-07-02T08:13:22Z</time>
      </trkpt>
      <trkpt lat="44.89851" lon="5.23234">
        <ele>1319.2</ele>
        <time>2024-07-02T08:13:23Z</time>
      </trkpt>
      <trkpt lat="44.8985" lon="5.23235">
        <ele>1319.1</ele>
        <time>2024-07-02T08:13:24Z</time>
      </trkpt>
      <trkpt lat="44.8985" lon="5.23237">
        <ele>1318.9</ele>
        <time>2024-07-02T08:13:25Z</time>
      </trkpt>
      <trkpt lat="44.89849" lon="5.23238">
        <ele>1318.8</ele>
        <time>2024-07-02T08:13:26Z</time>
      </trkpt>
      <trkpt lat="44.89848" lon="5.23239">
        <ele>1318.7</ele>
        <time>2024-07-02T08:13:27Z</time>
      </trkpt>
      <trkpt lat="44.89848" lon="5.23241">
        <ele>1318.6</ele>
        <time>2024-07-02T08:13:28Z</time>
      </trkpt>
      <trkpt lat="44.89848" lon="5.23242">
        <ele>1318.5</ele>
        <time>2024-07-02T08:13:29Z</time>
      </trkpt>
      <trkpt lat="44.89848" lon="5.23244">
        <ele>1318.4</ele>
        <time>2024-07-02T08:13:30Z</time>
      </trkpt>
      <trkpt lat="44.89848" lon="5.23245">
        <ele>1318.3</ele>
        <time>2024-07-02T08:13:31Z</time>
      </trkpt>
      <trkpt lat="44.89847" lon="5.23246">
        <ele>1318.2</ele>
        <time>2024-07-02T08:13:32Z</time>
      </trkpt>
      <trkpt lat="44.89845" lon="5.23248">
        <ele>1318</ele>
        <time>2024-07-02T08:13:33Z</time>
      </trkpt>
      <trkpt lat="44.89844" lon="5.23249">
        <ele>1317.9</ele>
        <time>2024-07-02T08:13:34Z</time>
      </trkpt>
      <trkpt lat="44.89844" lon="5.2325">
        <ele>1317.9</ele>
        <time>2024-07-02T08:13:35Z</time>
      </trkpt>
      <trkpt lat="44.89843" lon="5.23252">
        <ele>1317.7</ele>
        <time>2024-07-02T08:13:36Z</time>
      </trkpt>
      <trkpt lat="44.89842" lon="5.23253">
        <ele>1317.6</ele>
        <time>2024-07-02T08:13:37Z</time>
      </trkpt>
      <trkpt lat="44.89842" lon="5.23255">
        <ele>1317.5</ele>
        <time>2024-07-02T08:13:38Z</time>
      </trkpt>
      <trkpt lat="44.89842" lon="5.23256">
        <ele>1317.4</ele>
        <time>2024-07-02T08:13:39Z</time>
      </trkpt>
      <trkpt lat="44.89841" lon="5.23258">
        <ele>1317.3</ele>
        <time>2024-07-02T08:13:40Z</time>
      </trkpt>
      <trkpt lat="44.8984" lon="5.2326">
        <ele>1317.1</ele>
        <time>2024-07-02T08:13:41Z</time>
      </trkpt>
      <trkpt lat="44.8984" lon="5.23261">
        <ele>1317.1</ele>
        <time>2024-07-02T08:13:42Z</time>
      </trkpt>
      <trkpt lat="44.8984" lon="5.23262">
        <ele>1317</ele>
        <time>2024-07-02T08:13:43Z</time>
      </trkpt>
      <trkpt lat="44.8984" lon="5.23264">
        <ele>1316.9</ele>
        <time>2024-07-02T08:13:44Z</time>
      </trkpt>
      <trkpt lat="44.8984" lon="5.23265">
        <ele>1316.8</ele>
        <time>2024-07-02T08:13:45Z</time>
      </trkpt>
      <trkpt lat="44.8984" lon="5.23266">
        <ele>1316.7</ele>
        <time>2024-07-02T08:13:46Z</time>
      </trkpt>
      <trkpt lat="44.89839" lon="5.23268">
        <ele>1316.6</ele>
        <time>2024-07-02T08:13:47Z</time>
      </trkpt>
      <trkpt lat="44.89839" lon="5.2327">
        <ele>1316.4</ele>
        <time>2024-07-02T08:13:48Z</time>
      </trkpt>
      <trkpt lat="44.89838" lon="5.23271">
        <ele>1316.3</ele>
        <time>2024-07-02T08:13:49Z</time>
      </trkpt>
      <trkpt lat="44.89837" lon="5.23272">
        <ele>1316.2</ele>
        <time>2024-07-02T08:13:50Z</time>
      </trkpt>
      <trkpt lat="44.89836" lon="5.23272">
        <ele>1316.1</ele>
        <time>2024-07-02T08:13:51Z</time>
      </trkpt>
      <trkpt lat="44.89836" lon="5.23274">
        <ele>1316</ele>
        <time>2024-07-02T08:13:52Z</time>
      </trkpt>
      <trkpt lat="44.89835" lon="5.23276">
        <ele>1315.8</ele>
        <time>2024-07-02T08:13:53Z</time>
      </trkpt>
      <trkpt lat="44.89835" lon="5.23277">
        <ele>1315.8</ele>
        <time>2024-07-02T08:13:54Z</time>
      </trkpt>
      <trkpt lat="44.89834" lon="5.23278">
        <ele>1315.7</ele>
        <time>2024-07-02T08:13:55Z</time>
      </trkpt>
      <trkpt lat="44.89834" lon="5.2328">
        <ele>1315.5</ele>
        <time>2024-07-02T08:13:56Z</time>
      </trkpt>
      <trkpt lat="44.89833" lon="5.23282">
        <ele>1315.4</ele>
        <time>2024-07-02T08:13:57Z</time>
      </trkpt>
      <trkpt lat="44.89832" lon="5.23283">
        <ele>1315.3</ele>
        <time>2024-07-02T08:13:58Z</time>
      </trkpt>
      <trkpt lat="44.89831" lon="5.23285">
        <ele>1315.2</ele>
        <time>2024-07-02T08:13:59Z</time>
      </trkpt>
      <trkpt lat="44.8983" lon="5.23286">
        <ele>1315.1</ele>
        <time>2024-07-02T08:14:00Z</time>
      </trkpt>
      <trkpt lat="44.89829" lon="5.23289">
        <ele>1314.9</ele>
        <time>2024-07-02T08:14:01Z</time>
      </trkpt>
      <trkpt lat="44.89829" lon="5.23289">
        <ele>1314.8</ele>
        <time>2024-07-02T08:14:02Z</time>
      </trkpt>
      <trkpt lat="44.89828" lon="5.2329">
        <ele>1314.7</ele>
        <time>2024-07-02T08:14:03Z</time>
      </trkpt>
      <trkpt lat="44.89827" lon="5.23293">
        <ele>1314.5</ele>
        <time>2024-07-02T08:14:04Z</time>
      </trkpt>
      <trkpt lat="44.89826" lon="5.23294">
        <ele>1314.4</ele>
        <time>2024-07-02T08:14:05Z</time>
      </trkpt>
      <trkpt lat="44.89826" lon="5.23295">
        <ele>1314.3</ele>
        <time>2024-07-02T08:14:06Z</time>
      </trkpt>
      <trkpt lat="44.89825" lon="5.23298">
        <ele>1314.2</ele>
        <time>2024-07-02T08:14:07Z</time>
      </trkpt>
      <trkpt lat="44.89825" lon="5.23299">
        <ele>1314.1</ele>
        <time>2024-07-02T08:14:08Z</time>
      </trkpt>
      <trkpt lat="44.89824" lon="5.233">
        <ele>1314</ele>
        <time>2024-07-02T08:14:09Z</time>
      </trkpt>
      <trkpt lat="44.89823" lon="5.23303">
        <ele>1313.8</ele>
        <time>2024-07-02T08:14:10Z</time>
      </trkpt>
      <trkpt lat="44.89823" lon="5.23304">
        <ele>1313.7</ele>
        <time>2024-07-02T08:14:11Z</time>
      </trkpt>
      <trkpt lat="44.89823" lon="5.23305">
        <ele>1313.6</ele>
        <time>2024-07-02T08:14:12Z</time>
      </trkpt>
      <trkpt lat="44.89822" lon="5.23307">
        <ele>1313.5</ele>
        <time>2024-07-02T08:14:13Z</time>
      </trkpt>
      <trkpt lat="44.89822" lon="5.23308">
        <ele>1313.4</ele>
        <time>2024-07-02T08:14:14Z</time>
      </trkpt>
      <trkpt lat="44.89821" lon="5.2331">
        <ele>1313.3</ele>
        <time>2024-07-02T08:14:15Z</time>
      </trkpt>
      <trkpt lat="44.8982" lon="5.23312">
        <ele>1313.1</ele>
        <time>2024-07-02T08:14:16Z</time>
      </trkpt>
      <trkpt lat="44.8982" lon="5.23313">
        <ele>1313</ele>
        <time>2024-07-02T08:14:17Z</time>
      </trkpt>
      <trkpt lat="44.89819" lon="5.23314">
        <ele>1312.9</ele>
        <time>2024-07-02T08:14:18Z</time>
      </trkpt>
      <trkpt lat="44.89818" lon="5.23316">
        <ele>1312.8</ele>
        <time>2024-07-02T08:14:19Z</time>
      </trkpt>
      <trkpt lat="44.89818" lon="5.23318">
        <ele>1312.7</ele>
        <time>2024-07-02T08:14:20Z</time>
      </trkpt>
      <trkpt lat="44.89817" lon="5.23319">
        <ele>1312.6</ele>
        <time>2024-07-02T08:14:21Z</time>
      </trkpt>
      <trkpt lat="44.89817" lon="5.2332">
        <ele>1312.5</ele>
        <time>2024-07-02T08:14:22Z</time>
      </trkpt>
      <trkpt lat="44.89817" lon="5.23322">
        <ele>1312.4</ele>
        <time>2024-07-02T08:14:23Z</time>
      </trkpt>
      <trkpt lat="44.89816" lon="5.23323">
        <ele>1312.3</ele>
        <time>2024-07-02T08:14:24Z</time>
      </trkpt>
      <trkpt lat="44.89815" lon="5.23325">
        <ele>1312.2</ele>
        <time>2024-07-02T08:14:25Z</time>
      </trkpt>
      <trkpt lat="44.89815" lon="5.23326">
        <ele>1312.1</ele>
        <time>2024-07-02T08:14:26Z</time>
      </trkpt>
      <trkpt lat="44.89814" lon="5.23327">
        <ele>1312</ele>
        <time>2024-07-02T08:14:27Z</time>
      </trkpt>
      <trkpt lat="44.89813" lon="5.23329">
        <ele>1311.9</ele>
        <time>2024-07-02T08:14:28Z</time>
      </trkpt>
      <trkpt lat="44.89813" lon="5.23331">
        <ele>1311.8</ele>
        <time>2024-07-02T08:14:29Z</time>
      </trkpt>
      <trkpt lat="44.89814" lon="5.23332">
        <ele>1311.7</ele>
        <time>2024-07-02T08:14:30Z</time>
      </trkpt>
      <trkpt lat="44.89815" lon="5.23334">
        <ele>1311.6</ele>
        <time>2024-07-02T08:14:31Z</time>
      </trkpt>
      <trkpt lat="44.89816" lon="5.23335">
        <ele>1311.5</ele>
        <time>2024-07-02T08:14:32Z</time>
      </trkpt>
      <trkpt lat="44.89816" lon="5.23336">
        <ele>1311.4</ele>
        <time>2024-07-02T08:14:33Z</time>
      </trkpt>
      <trkpt lat="44.89815" lon="5.23337">
        <ele>1311.3</ele>
        <time>2024-07-02T08:14:34Z</time>
      </trkpt>
      <trkpt lat="44.89815" lon="5.23338">
        <ele>1311.3</ele>
        <time>2024-07-02T08:14:35Z</time>
      </trkpt>
      <trkpt lat="44.89814" lon="5.23339">
        <ele>1311.2</ele>
        <time>2024-07-02T08:14:36Z</time>
      </trkpt>
      <trkpt lat="44.89813" lon="5.23342">
        <ele>1311</ele>
        <time>2024-07-02T08:14:37Z</time>
      </trkpt>
      <trkpt lat="44.89812" lon="5.23343">
        <ele>1310.9</ele>
        <time>2024-07-02T08:14:38Z</time>
      </trkpt>
      <trkpt lat="44.89811" lon="5.23343">
        <ele>1310.9</ele>
        <time>2024-07-02T08:14:39Z</time>
      </trkpt>
      <trkpt lat="44.8981" lon="5.23345">
        <ele>1310.7</ele>
        <time>2024-07-02T08:14:40Z</time>
      </trkpt>
      <trkpt lat="44.89809" lon="5.23346">
        <ele>1310.7</ele>
        <time>2024-07-02T08:14:41Z</time>
      </trkpt>
      <trkpt lat="44.89808" lon="5.23347">
        <ele>1310.6</ele>
        <time>2024-07-02T08:14:42Z</time>
      </trkpt>
      <trkpt lat="44.89808" lon="5.23348">
        <ele>1310.6</ele>
        <time>2024-07-02T08:14:43Z</time>
      </trkpt>
      <trkpt lat="44.89807" lon="5.23349">
        <ele>1310.5</ele>
        <time>2024-07-02T08:14:44Z</time>
      </trkpt>
      <trkpt lat="44.89806" lon="5.2335">
        <ele>1310.4</ele>
        <time>2024-07-02T08:14:45Z</time>
      </trkpt>
      <trkpt lat="44.89806" lon="5.23351">
        <ele>1310.4</ele>
        <time>2024-07-02T08:14:46Z</time>
      </trkpt>
      <trkpt lat="44.89804" lon="5.23352">
        <ele>1310.3</ele>
        <time>2024-07-02T08:14:47Z</time>
      </trkpt>
      <trkpt lat="44.89803" lon="5.23352">
        <ele>1310.2</ele>
        <time>2024-07-02T08:14:48Z</time>
      </trkpt>
      <trkpt lat="44.89802" lon="5.23353">
        <ele>1310.1</ele>
        <time>2024-07-02T08:14:49Z</time>
      </trkpt>
      <trkpt lat="44.89801" lon="5.23353">
        <ele>1310.1</ele>
        <time>2024-07-02T08:14:50Z</time>
      </trkpt>
      <trkpt lat="44.898" lon="5.23354">
        <ele>1310</ele>
        <time>2024-07-02T08:14:51Z</time>
      </trkpt>
      <trkpt lat="44.89798" lon="5.23355">
        <ele>1309.9</ele>
        <time>2024-07-02T08:14:52Z</time>
      </trkpt>
      <trkpt lat="44.89798" lon="5.23355">
        <ele>1309.8</ele>
        <time>2024-07-02T08:14:53Z</time>
      </trkpt>
      <trkpt lat="44.89797" lon="5.23356">
        <ele>1309.8</ele>
        <time>2024-07-02T08:14:54Z</time>
      </trkpt>
      <trkpt lat="44.89795" lon="5.23357">
        <ele>1309.6</ele>
        <time>2024-07-02T08:14:55Z</time>
      </trkpt>
      <trkpt lat="44.89794" lon="5.23358">
        <ele>1309.6</ele>
        <time>2024-07-02T08:14:56Z</time>
      </trkpt>
      <trkpt lat="44.89794" lon="5.23359">
        <ele>1309.5</ele>
        <time>2024-07-02T08:14:57Z</time>
      </trkpt>
      <trkpt lat="44.89793" lon="5.23359">
        <ele>1309.5</ele>
        <time>2024-07-02T08:14:58Z</time>
      </trkpt>
      <trkpt lat="44.89792" lon="5.2336">
        <ele>1309.4</ele>
        <time>2024-07-02T08:14:59Z</time>
      </trkpt>
      <trkpt lat="44.89791" lon="5.23361">
        <ele>1309.3</ele>
        <time>2024-07-02T08:15:01Z</time>
      </trkpt>
      <trkpt lat="44.8979" lon="5.23364">
        <ele>1309.2</ele>
        <time>2024-07-02T08:15:02Z</time>
      </trkpt>
      <trkpt lat="44.89789" lon="5.23365">
        <ele>1309.1</ele>
        <time>2024-07-02T08:15:03Z</time>
      </trkpt>
      <trkpt lat="44.89789" lon="5.23367">
        <ele>1309</ele>
        <time>2024-07-02T08:15:04Z</time>
      </trkpt>
      <trkpt lat="44.89788" lon="5.23367">
        <ele>1309</ele>
        <time>2024-07-02T08:15:05Z</time>
      </trkpt>
      <trkpt lat="44.89786" lon="5.23366">
        <ele>1308.9</ele>
        <time>2024-07-02T08:15:06Z</time>
      </trkpt>
      <trkpt lat="44.89784" lon="5.23367">
        <ele>1308.7</ele>
        <time>2024-07-02T08:15:07Z</time>
      </trkpt>
      <trkpt lat="44.89783" lon="5.23367">
        <ele>1308.7</ele>
        <time>2024-07-02T08:15:08Z</time>
      </trkpt>
      <trkpt lat="44.89782" lon="5.23368">
        <ele>1308.6</ele>
        <time>2024-07-02T08:15:09Z</time>
      </trkpt>
      <trkpt lat="44.89781" lon="5.23368">
        <ele>1308.5</ele>
        <time>2024-07-02T08:15:10Z</time>
      </trkpt>
      <trkpt lat="44.8978" lon="5.23369">
        <ele>1308.4</ele>
        <time>2024-07-02T08:15:11Z</time>
      </trkpt>
      <trkpt lat="44.89778" lon="5.2337">
        <ele>1308.3</ele>
        <time>2024-07-02T08:15:12Z</time>
      </trkpt>
      <trkpt lat="44.89778" lon="5.2337">
        <ele>1308.3</ele>
        <time>2024-07-02T08:15:13Z</time>
      </trkpt>
      <trkpt lat="44.89777" lon="5.23371">
        <ele>1308.2</ele>
        <time>2024-07-02T08:15:14Z</time>
      </trkpt>
      <trkpt lat="44.89776" lon="5.23371">
        <ele>1308.1</ele>
        <time>2024-07-02T08:15:15Z</time>
      </trkpt>
      <trkpt lat="44.89775" lon="5.23372">
        <ele>1308.1</ele>
        <time>2024-07-02T08:15:16Z</time>
      </trkpt>
      <trkpt lat="44.89774" lon="5.23372">
        <ele>1308</ele>
        <time>2024-07-02T08:15:17Z</time>
      </trkpt>
      <trkpt lat="44.89774" lon="5.23372">
        <ele>1308</ele>
        <time>2024-07-02T08:15:18Z</time>
      </trkpt>
      <trkpt lat="44.89773" lon="5.23373">
        <ele>1307.9</ele>
        <time>2024-07-02T08:15:19Z</time>
      </trkpt>
      <trkpt lat="44.89771" lon="5.23374">
        <ele>1307.8</ele>
        <time>2024-07-02T08:15:20Z</time>
      </trkpt>
      <trkpt lat="44.8977" lon="5.23375">
        <ele>1307.7</ele>
        <time>2024-07-02T08:15:21Z</time>
      </trkpt>
      <trkpt lat="44.8977" lon="5.23376">
        <ele>1307.7</ele>
        <time>2024-07-02T08:15:22Z</time>
      </trkpt>
      <trkpt lat="44.8977" lon="5.23378">
        <ele>1307.6</ele>
        <time>2024-07-02T08:15:23Z</time>
      </trkpt>
      <trkpt lat="44.8977" lon="5.2338">
        <ele>1307.5</ele>
        <time>2024-07-02T08:15:24Z</time>
      </trkpt>
      <trkpt lat="44.89769" lon="5.23381">
        <ele>1307.4</ele>
        <time>2024-07-02T08:15:25Z</time>
      </trkpt>
      <trkpt lat="44.89768" lon="5.23381">
        <ele>1307.4</ele>
        <time>2024-07-02T08:15:26Z</time>
      </trkpt>
      <trkpt lat="44.89766" lon="5.23382">
        <ele>1307.3</ele>
        <time>2024-07-02T08:15:27Z</time>
      </trkpt>
      <trkpt lat="44.89766" lon="5.23383">
        <ele>1307.2</ele>
        <time>2024-07-02T08:15:28Z</time>
      </trkpt>
      <trkpt lat="44.89764" lon="5.23383">
        <ele>1307.1</ele>
        <time>2024-07-02T08:15:29Z</time>
      </trkpt>
      <trkpt lat="44.89763" lon="5.23384">
        <ele>1307.1</ele>
        <time>2024-07-02T08:15:30Z</time>
      </trkpt>
      <trkpt lat="44.89762" lon="5.23384">
        <ele>1307</ele>
        <time>2024-07-02T08:15:31Z</time>
      </trkpt>
      <trkpt lat="44.89761" lon="5.23384">
        <ele>1306.9</ele>
        <time>2024-07-02T08:15:32Z</time>
      </trkpt>
      <trkpt lat="44.8976" lon="5.23385">
        <ele>1306.9</ele>
        <time>2024-07-02T08:15:33Z</time>
      </trkpt>
      <trkpt lat="44.89759" lon="5.23385">
        <ele>1306.8</ele>
        <time>2024-07-02T08:15:34Z</time>
      </trkpt>
      <trkpt lat="44.89757" lon="5.23386">
        <ele>1306.7</ele>
        <time>2024-07-02T08:15:35Z</time>
      </trkpt>
      <trkpt lat="44.89757" lon="5.23386">
        <ele>1306.7</ele>
        <time>2024-07-02T08:15:36Z</time>
      </trkpt>
      <trkpt lat="44.89756" lon="5.23386">
        <ele>1306.6</ele>
        <time>2024-07-02T08:15:37Z</time>
      </trkpt>
      <trkpt lat="44.89755" lon="5.23386">
        <ele>1306.6</ele>
        <time>2024-07-02T08:15:38Z</time>
      </trkpt>
      <trkpt lat="44.89754" lon="5.23386">
        <ele>1306.5</ele>
        <time>2024-07-02T08:15:39Z</time>
      </trkpt>
      <trkpt lat="44.89753" lon="5.23386">
        <ele>1306.4</ele>
        <time>2024-07-02T08:15:40Z</time>
      </trkpt>
      <trkpt lat="44.89752" lon="5.23386">
        <ele>1306.4</ele>
        <time>2024-07-02T08:15:41Z</time>
      </trkpt>
      <trkpt lat="44.8975" lon="5.23385">
        <ele>1306.3</ele>
        <time>2024-07-02T08:15:42Z</time>
      </trkpt>
      <trkpt lat="44.89749" lon="5.23385">
        <ele>1306.3</ele>
        <time>2024-07-02T08:15:43Z</time>
      </trkpt>
      <trkpt lat="44.89748" lon="5.23385">
        <ele>1306.2</ele>
        <time>2024-07-02T08:15:44Z</time>
      </trkpt>
      <trkpt lat="44.89747" lon="5.23385">
        <ele>1306.2</ele>
        <time>2024-07-02T08:15:45Z</time>
      </trkpt>
      <trkpt lat="44.89746" lon="5.23385">
        <ele>1306.1</ele>
        <time>2024-07-02T08:15:46Z</time>
      </trkpt>
      <trkpt lat="44.89745" lon="5.23385">
        <ele>1306.1</ele>
        <time>2024-07-02T08:15:47Z</time>
      </trkpt>
      <trkpt lat="44.89744" lon="5.23385">
        <ele>1306</ele>
        <time>2024-07-02T08:15:48Z</time>
      </trkpt>
      <trkpt lat="44.89742" lon="5.23385">
        <ele>1306</ele>
        <time>2024-07-02T08:15:49Z</time>
      </trkpt>
      <trkpt lat="44.89741" lon="5.23385">
        <ele>1305.9</ele>
        <time>2024-07-02T08:15:50Z</time>
      </trkpt>
      <trkpt lat="44.8974" lon="5.23385">
        <ele>1305.9</ele>
        <time>2024-07-02T08:15:51Z</time>
      </trkpt>
      <trkpt lat="44.89739" lon="5.23385">
        <ele>1305.8</ele>
        <time>2024-07-02T08:15:52Z</time>
      </trkpt>
      <trkpt lat="44.89737" lon="5.23386">
        <ele>1305.8</ele>
        <time>2024-07-02T08:15:53Z</time>
      </trkpt>
      <trkpt lat="44.89737" lon="5.23386">
        <ele>1305.8</ele>
        <time>2024-07-02T08:15:54Z</time>
      </trkpt>
      <trkpt lat="44.89736" lon="5.23387">
        <ele>1305.7</ele>
        <time>2024-07-02T08:15:55Z</time>
      </trkpt>
      <trkpt lat="44.89735" lon="5.23387">
        <ele>1305.7</ele>
        <time>2024-07-02T08:15:56Z</time>
      </trkpt>
      <trkpt lat="44.89734" lon="5.23388">
        <ele>1305.7</ele>
        <time>2024-07-02T08:15:57Z</time>
      </trkpt>
      <trkpt lat="44.89733" lon="5.23389">
        <ele>1305.6</ele>
        <time>2024-07-02T08:15:58Z</time>
      </trkpt>
      <trkpt lat="44.89732" lon="5.2339">
        <ele>1305.6</ele>
        <time>2024-07-02T08:15:59Z</time>
      </trkpt>
      <trkpt lat="44.89732" lon="5.23391">
        <ele>1305.6</ele>
        <time>2024-07-02T08:16:00Z</time>
      </trkpt>
      <trkpt lat="44.89732" lon="5.23392">
        <ele>1305.5</ele>
        <time>2024-07-02T08:16:01Z</time>
      </trkpt>
      <trkpt lat="44.89731" lon="5.23393">
        <ele>1305.5</ele>
        <time>2024-07-02T08:16:02Z</time>
      </trkpt>
      <trkpt lat="44.89732" lon="5.23392">
        <ele>1305.5</ele>
        <time>2024-07-02T08:16:14Z</time>
      </trkpt>
      <trkpt lat="44.89731" lon="5.23392">
        <ele>1305.4</ele>
        <time>2024-07-02T08:16:15Z</time>
      </trkpt>
      <trkpt lat="44.89731" lon="5.23392">
        <ele>1305.4</ele>
        <time>2024-07-02T08:16:16Z</time>
      </trkpt>
      <trkpt lat="44.8973" lon="5.23395">
        <ele>1305.4</ele>
        <time>2024-07-02T08:16:17Z</time>
      </trkpt>
      <trkpt lat="44.89728" lon="5.23394">
        <ele>1305.4</ele>
        <time>2024-07-02T08:16:18Z</time>
      </trkpt>
      <trkpt lat="44.89727" lon="5.23394">
        <ele>1305.4</ele>
        <time>2024-07-02T08:16:19Z</time>
      </trkpt>
      <trkpt lat="44.89726" lon="5.23393">
        <ele>1305.4</ele>
        <time>2024-07-02T08:16:20Z</time>
      </trkpt>
      <trkpt lat="44.89725" lon="5.23393">
        <ele>1305.4</ele>
        <time>2024-07-02T08:16:21Z</time>
      </trkpt>
      <trkpt lat="44.89724" lon="5.23392">
        <ele>1305.4</ele>
        <time>2024-07-02T08:16:22Z</time>
      </trkpt>
      <trkpt lat="44.89723" lon="5.23392">
        <ele>1305.4</ele>
        <time>2024-07-02T08:16:23Z</time>
      </trkpt>
      <trkpt lat="44.89722" lon="5.23392">
        <ele>1305.4</ele>
        <time>2024-07-02T08:16:24Z</time>
      </trkpt>
      <trkpt lat="44.89721" lon="5.23391">
        <ele>1305.5</ele>
        <time>2024-07-02T08:16:25Z</time>
      </trkpt>
      <trkpt lat="44.8972" lon="5.23391">
        <ele>1305.5</ele>
        <time>2024-07-02T08:16:26Z</time>
      </trkpt>
      <trkpt lat="44.89719" lon="5.23391">
        <ele>1305.5</ele>
        <time>2024-07-02T08:16:27Z</time>
      </trkpt>
      <trkpt lat="44.89718" lon="5.23391">
        <ele>1305.5</ele>
        <time>2024-07-02T08:16:28Z</time>
      </trkpt>
      <trkpt lat="44.89717" lon="5.23392">
        <ele>1305.5</ele>
        <time>2024-07-02T08:16:29Z</time>
      </trkpt>
      <trkpt lat="44.89717" lon="5.23393">
        <ele>1305.5</ele>
        <time>2024-07-02T08:16:30Z</time>
      </trkpt>
      <trkpt lat="44.89717" lon="5.23394">
        <ele>1305.6</ele>
        <time>2024-07-02T08:16:31Z</time>
      </trkpt>
      <trkpt lat="44.89717" lon="5.23395">
        <ele>1305.6</ele>
        <time>2024-07-02T08:16:32Z</time>
      </trkpt>
      <trkpt lat="44.89717" lon="5.23395">
        <ele>1305.6</ele>
        <time>2024-07-02T08:16:33Z</time>
      </trkpt>
      <trkpt lat="44.89717" lon="5.23395">
        <ele>1305.6</ele>
        <time>2024-07-02T08:16:34Z</time>
      </trkpt>
      <trkpt lat="44.89717" lon="5.23395">
        <ele>1305.6</ele>
        <time>2024-07-02T08:16:35Z</time>
      </trkpt>
      <trkpt lat="44.89716" lon="5.23395">
        <ele>1305.6</ele>
        <time>2024-07-02T08:16:36Z</time>
      </trkpt>
      <trkpt lat="44.89713" lon="5.23394">
        <ele>1305.7</ele>
        <time>2024-07-02T08:16:37Z</time>
      </trkpt>
      <trkpt lat="44.89711" lon="5.23394">
        <ele>1305.7</ele>
        <time>2024-07-02T08:16:38Z</time>
      </trkpt>
      <trkpt lat="44.8971" lon="5.23394">
        <ele>1305.8</ele>
        <time>2024-07-02T08:16:39Z</time>
      </trkpt>
      <trkpt lat="44.89708" lon="5.23394">
        <ele>1305.8</ele>
        <time>2024-07-02T08:16:40Z</time>
      </trkpt>
      <trkpt lat="44.89707" lon="5.23394">
        <ele>1305.8</ele>
        <time>2024-07-02T08:16:41Z</time>
      </trkpt>
      <trkpt lat="44.89706" lon="5.23394">
        <ele>1305.8</ele>
        <time>2024-07-02T08:16:42Z</time>
      </trkpt>
      <trkpt lat="44.89704" lon="5.23394">
        <ele>1305.9</ele>
        <time>2024-07-02T08:16:43Z</time>
      </trkpt>
      <trkpt lat="44.89704" lon="5.23394">
        <ele>1305.9</ele>
        <time>2024-07-02T08:16:44Z</time>
      </trkpt>
      <trkpt lat="44.89703" lon="5.23394">
        <ele>1305.9</ele>
        <time>2024-07-02T08:16:45Z</time>
      </trkpt>
      <trkpt lat="44.89702" lon="5.23394">
        <ele>1306</ele>
        <time>2024-07-02T08:16:46Z</time>
      </trkpt>
      <trkpt lat="44.89701" lon="5.23395">
        <ele>1306</ele>
        <time>2024-07-02T08:16:47Z</time>
      </trkpt>
      <trkpt lat="44.897" lon="5.23395">
        <ele>1306</ele>
        <time>2024-07-02T08:16:48Z</time>
      </trkpt>
      <trkpt lat="44.89698" lon="5.23395">
        <ele>1306.1</ele>
        <time>2024-07-02T08:16:49Z</time>
      </trkpt>
      <trkpt lat="44.89697" lon="5.23395">
        <ele>1306.1</ele>
        <time>2024-07-02T08:16:50Z</time>
      </trkpt>
      <trkpt lat="44.89696" lon="5.23395">
        <ele>1306.1</ele>
        <time>2024-07-02T08:16:51Z</time>
      </trkpt>
      <trkpt lat="44.89695" lon="5.23395">
        <ele>1306.1</ele>
        <time>2024-07-02T08:16:52Z</time>
      </trkpt>
      <trkpt lat="44.89694" lon="5.23395">
        <ele>1306.2</ele>
        <time>2024-07-02T08:16:53Z</time>
      </trkpt>
      <trkpt lat="44.89693" lon="5.23396">
        <ele>1306.2</ele>
        <time>2024-07-02T08:16:54Z</time>
      </trkpt>
      <trkpt lat="44.89692" lon="5.23396">
        <ele>1306.2</ele>
        <time>2024-07-02T08:16:55Z</time>
      </trkpt>
      <trkpt lat="44.8969" lon="5.23396">
        <ele>1306.3</ele>
        <time>2024-07-02T08:16:56Z</time>
      </trkpt>
      <trkpt lat="44.89689" lon="5.23396">
        <ele>1306.3</ele>
        <time>2024-07-02T08:16:57Z</time>
      </trkpt>
      <trkpt lat="44.89688" lon="5.23396">
        <ele>1306.3</ele>
        <time>2024-07-02T08:16:58Z</time>
      </trkpt>
      <trkpt lat="44.89687" lon="5.23397">
        <ele>1306.3</ele>
        <time>2024-07-02T08:16:59Z</time>
      </trkpt>
      <trkpt lat="44.89686" lon="5.23396">
        <ele>1306.4</ele>
        <time>2024-07-02T08:17:00Z</time>
      </trkpt>
      <trkpt lat="44.89684" lon="5.23397">
        <ele>1306.4</ele>
        <time>2024-07-02T08:17:01Z</time>
      </trkpt>
      <trkpt lat="44.89683" lon="5.23397">
        <ele>1306.4</ele>
        <time>2024-07-02T08:17:02Z</time>
      </trkpt>
      <trkpt lat="44.89682" lon="5.23397">
        <ele>1306.4</ele>
        <time>2024-07-02T08:17:03Z</time>
      </trkpt>
      <trkpt lat="44.89681" lon="5.23397">
        <ele>1306.5</ele>
        <time>2024-07-02T08:17:04Z</time>
      </trkpt>
      <trkpt lat="44.8968" lon="5.23397">
        <ele>1306.5</ele>
        <time>2024-07-02T08:17:05Z</time>
      </trkpt>
      <trkpt lat="44.89679" lon="5.23397">
        <ele>1306.5</ele>
        <time>2024-07-02T08:17:06Z</time>
      </trkpt>
      <trkpt lat="44.89676" lon="5.23398">
        <ele>1306.5</ele>
        <time>2024-07-02T08:17:07Z</time>
      </trkpt>
      <trkpt lat="44.89676" lon="5.23398">
        <ele>1306.5</ele>
        <time>2024-07-02T08:17:08Z</time>
      </trkpt>
      <trkpt lat="44.89675" lon="5.23398">
        <ele>1306.6</ele>
        <time>2024-07-02T08:17:09Z</time>
      </trkpt>
      <trkpt lat="44.89674" lon="5.23399">
        <ele>1306.6</ele>
        <time>2024-07-02T08:17:10Z</time>
      </trkpt>
      <trkpt lat="44.89673" lon="5.23399">
        <ele>1306.6</ele>
        <time>2024-07-02T08:17:11Z</time>
      </trkpt>
      <trkpt lat="44.89672" lon="5.234">
        <ele>1306.6</ele>
        <time>2024-07-02T08:17:12Z</time>
      </trkpt>
      <trkpt lat="44.8967" lon="5.234">
        <ele>1306.6</ele>
        <time>2024-07-02T08:17:13Z</time>
      </trkpt>
      <trkpt lat="44.89669" lon="5.234">
        <ele>1306.6</ele>
        <time>2024-07-02T08:17:14Z</time>
      </trkpt>
      <trkpt lat="44.89668" lon="5.234">
        <ele>1306.7</ele>
        <time>2024-07-02T08:17:15Z</time>
      </trkpt>
      <trkpt lat="44.89666" lon="5.23401">
        <ele>1306.7</ele>
        <time>2024-07-02T08:17:16Z</time>
      </trkpt>
      <trkpt lat="44.89666" lon="5.23401">
        <ele>1306.7</ele>
        <time>2024-07-02T08:17:17Z</time>
      </trkpt>
      <trkpt lat="44.89665" lon="5.23401">
        <ele>1306.7</ele>
        <time>2024-07-02T08:17:18Z</time>
      </trkpt>
      <trkpt lat="44.89664" lon="5.23401">
        <ele>1306.7</ele>
        <time>2024-07-02T08:17:19Z</time>
      </trkpt>
      <trkpt lat="44.89663" lon="5.23402">
        <ele>1306.8</ele>
        <time>2024-07-02T08:17:20Z</time>
      </trkpt>
      <trkpt lat="44.89661" lon="5.23402">
        <ele>1306.8</ele>
        <time>2024-07-02T08:17:21Z</time>
      </trkpt>
      <trkpt lat="44.8966" lon="5.23402">
        <ele>1306.8</ele>
        <time>2024-07-02T08:17:22Z</time>
      </trkpt>
      <trkpt lat="44.89658" lon="5.23402">
        <ele>1306.8</ele>
        <time>2024-07-02T08:17:23Z</time>
      </trkpt>
      <trkpt lat="44.89658" lon="5.23402">
        <ele>1306.8</ele>
        <time>2024-07-02T08:17:24Z</time>
      </trkpt>
      <trkpt lat="44.89656" lon="5.23403">
        <ele>1306.9</ele>
        <time>2024-07-02T08:17:25Z</time>
      </trkpt>
      <trkpt lat="44.89655" lon="5.23403">
        <ele>1306.9</ele>
        <time>2024-07-02T08:17:26Z</time>
      </trkpt>
      <trkpt lat="44.89653" lon="5.23403">
        <ele>1306.9</ele>
        <time>2024-07-02T08:17:27Z</time>
      </trkpt>
      <trkpt lat="44.89652" lon="5.23403">
        <ele>1306.9</ele>
        <time>2024-07-02T08:17:28Z</time>
      </trkpt>
      <trkpt lat="44.89651" lon="5.23402">
        <ele>1306.9</ele>
        <time>2024-07-02T08:17:29Z</time>
      </trkpt>
      <trkpt lat="44.89649" lon="5.23402">
        <ele>1307</ele>
        <time>2024-07-02T08:17:30Z</time>
      </trkpt>
      <trkpt lat="44.89648" lon="5.23402">
        <ele>1307</ele>
        <time>2024-07-02T08:17:31Z</time>
      </trkpt>
      <trkpt lat="44.89648" lon="5.23402">
        <ele>1307</ele>
        <time>2024-07-02T08:17:32Z</time>
      </trkpt>
      <trkpt lat="44.89645" lon="5.23402">
        <ele>1307</ele>
        <time>2024-07-02T08:17:33Z</time>
      </trkpt>
      <trkpt lat="44.89645" lon="5.23402">
        <ele>1307</ele>
        <time>2024-07-02T08:17:34Z</time>
      </trkpt>
      <trkpt lat="44.89644" lon="5.23402">
        <ele>1307</ele>
        <time>2024-07-02T08:17:35Z</time>
      </trkpt>
      <trkpt lat="44.89643" lon="5.23403">
        <ele>1307</ele>
        <time>2024-07-02T08:17:36Z</time>
      </trkpt>
      <trkpt lat="44.89642" lon="5.23403">
        <ele>1307.1</ele>
        <time>2024-07-02T08:17:37Z</time>
      </trkpt>
      <trkpt lat="44.89641" lon="5.23404">
        <ele>1307.1</ele>
        <time>2024-07-02T08:17:38Z</time>
      </trkpt>
      <trkpt lat="44.8964" lon="5.23404">
        <ele>1307.1</ele>
        <time>2024-07-02T08:17:39Z</time>
      </trkpt>
      <trkpt lat="44.89638" lon="5.23405">
        <ele>1307.1</ele>
        <time>2024-07-02T08:17:40Z</time>
      </trkpt>
      <trkpt lat="44.89637" lon="5.23405">
        <ele>1307.1</ele>
        <time>2024-07-02T08:17:41Z</time>
      </trkpt>
      <trkpt lat="44.89636" lon="5.23405">
        <ele>1307.1</ele>
        <time>2024-07-02T08:17:42Z</time>
      </trkpt>
      <trkpt lat="44.89635" lon="5.23406">
        <ele>1307.2</ele>
        <time>2024-07-02T08:17:43Z</time>
      </trkpt>
      <trkpt lat="44.89633" lon="5.23406">
        <ele>1307.2</ele>
        <time>2024-07-02T08:17:44Z</time>
      </trkpt>
      <trkpt lat="44.89632" lon="5.23407">
        <ele>1307.2</ele>
        <time>2024-07-02T08:17:45Z</time>
      </trkpt>
      <trkpt lat="44.89631" lon="5.23407">
        <ele>1307.2</ele>
        <time>2024-07-02T08:17:46Z</time>
      </trkpt>
      <trkpt lat="44.8963" lon="5.23407">
        <ele>1307.2</ele>
        <time>2024-07-02T08:17:47Z</time>
      </trkpt>
      <trkpt lat="44.89629" lon="5.23407">
        <ele>1307.3</ele>
        <time>2024-07-02T08:17:48Z</time>
      </trkpt>
      <trkpt lat="44.89628" lon="5.23408">
        <ele>1307.3</ele>
        <time>2024-07-02T08:17:49Z</time>
      </trkpt>
      <trkpt lat="44.89626" lon="5.23409">
        <ele>1307.3</ele>
        <time>2024-07-02T08:17:50Z</time>
      </trkpt>
      <trkpt lat="44.89625" lon="5.23409">
        <ele>1307.3</ele>
        <time>2024-07-02T08:17:51Z</time>
      </trkpt>
      <trkpt lat="44.89624" lon="5.23409">
        <ele>1307.3</ele>
        <time>2024-07-02T08:17:52Z</time>
      </trkpt>
      <trkpt lat="44.89622" lon="5.23409">
        <ele>1307.4</ele>
        <time>2024-07-02T08:17:53Z</time>
      </trkpt>
      <trkpt lat="44.89621" lon="5.23408">
        <ele>1307.4</ele>
        <time>2024-07-02T08:17:54Z</time>
      </trkpt>
      <trkpt lat="44.89619" lon="5.23409">
        <ele>1307.4</ele>
        <time>2024-07-02T08:17:55Z</time>
      </trkpt>
      <trkpt lat="44.89619" lon="5.23409">
        <ele>1307.5</ele>
        <time>2024-07-02T08:17:56Z</time>
      </trkpt>
      <trkpt lat="44.89618" lon="5.23409">
        <ele>1307.5</ele>
        <time>2024-07-02T08:17:57Z</time>
      </trkpt>
      <trkpt lat="44.89617" lon="5.2341">
        <ele>1307.5</ele>
        <time>2024-07-02T08:17:58Z</time>
      </trkpt>
      <trkpt lat="44.89616" lon="5.23411">
        <ele>1307.5</ele>
        <time>2024-07-02T08:17:59Z</time>
      </trkpt>
      <trkpt lat="44.89615" lon="5.23411">
        <ele>1307.5</ele>
        <time>2024-07-02T08:18:00Z</time>
      </trkpt>
      <trkpt lat="44.89613" lon="5.23411">
        <ele>1307.6</ele>
        <time>2024-07-02T08:18:01Z</time>
      </trkpt>
      <trkpt lat="44.89612" lon="5.2341">
        <ele>1307.6</ele>
        <time>2024-07-02T08:18:02Z</time>
      </trkpt>
      <trkpt lat="44.89611" lon="5.2341">
        <ele>1307.6</ele>
        <time>2024-07-02T08:18:03Z</time>
      </trkpt>
      <trkpt lat="44.8961" lon="5.2341">
        <ele>1307.6</ele>
        <time>2024-07-02T08:18:04Z</time>
      </trkpt>
      <trkpt lat="44.89609" lon="5.2341">
        <ele>1307.7</ele>
        <time>2024-07-02T08:18:05Z</time>
      </trkpt>
      <trkpt lat="44.89608" lon="5.23409">
        <ele>1307.7</ele>
        <time>2024-07-02T08:18:06Z</time>
      </trkpt>
      <trkpt lat="44.89607" lon="5.23409">
        <ele>1307.7</ele>
        <time>2024-07-02T08:18:07Z</time>
      </trkpt>
      <trkpt lat="44.89606" lon="5.23409">
        <ele>1307.7</ele>
        <time>2024-07-02T08:18:08Z</time>
      </trkpt>
      <trkpt lat="44.89605" lon="5.2341">
        <ele>1307.7</ele>
        <time>2024-07-02T08:18:09Z</time>
      </trkpt>
      <trkpt lat="44.89604" lon="5.2341">
        <ele>1307.8</ele>
        <time>2024-07-02T08:18:10Z</time>
      </trkpt>
      <trkpt lat="44.89602" lon="5.23408">
        <ele>1307.8</ele>
        <time>2024-07-02T08:18:11Z</time>
      </trkpt>
      <trkpt lat="44.89601" lon="5.23407">
        <ele>1307.8</ele>
        <time>2024-07-02T08:18:12Z</time>
      </trkpt>
      <trkpt lat="44.896" lon="5.23407">
        <ele>1307.8</ele>
        <time>2024-07-02T08:18:13Z</time>
      </trkpt>
      <trkpt lat="44.896" lon="5.23405">
        <ele>1307.8</ele>
        <time>2024-07-02T08:18:14Z</time>
      </trkpt>
      <trkpt lat="44.89599" lon="5.23404">
        <ele>1307.9</ele>
        <time>2024-07-02T08:18:15Z</time>
      </trkpt>
      <trkpt lat="44.89598" lon="5.23404">
        <ele>1307.9</ele>
        <time>2024-07-02T08:18:16Z</time>
      </trkpt>
      <trkpt lat="44.89597" lon="5.23404">
        <ele>1307.9</ele>
        <time>2024-07-02T08:18:17Z</time>
      </trkpt>
      <trkpt lat="44.89596" lon="5.23403">
        <ele>1307.9</ele>
        <time>2024-07-02T08:18:18Z</time>
      </trkpt>
      <trkpt lat="44.89595" lon="5.23404">
        <ele>1307.9</ele>
        <time>2024-07-02T08:18:19Z</time>
      </trkpt>
      <trkpt lat="44.89594" lon="5.23404">
        <ele>1308</ele>
        <time>2024-07-02T08:18:20Z</time>
      </trkpt>
      <trkpt lat="44.89593" lon="5.23406">
        <ele>1308</ele>
        <time>2024-07-02T08:18:21Z</time>
      </trkpt>
      <trkpt lat="44.89592" lon="5.23406">
        <ele>1308</ele>
        <time>2024-07-02T08:18:22Z</time>
      </trkpt>
      <trkpt lat="44.89591" lon="5.23407">
        <ele>1308</ele>
        <time>2024-07-02T08:18:23Z</time>
      </trkpt>
      <trkpt lat="44.8959" lon="5.23407">
        <ele>1308</ele>
        <time>2024-07-02T08:18:24Z</time>
      </trkpt>
      <trkpt lat="44.89589" lon="5.23408">
        <ele>1308</ele>
        <time>2024-07-02T08:18:25Z</time>
      </trkpt>
      <trkpt lat="44.89588" lon="5.23408">
        <ele>1308</ele>
        <time>2024-07-02T08:18:26Z</time>
      </trkpt>
      <trkpt lat="44.89587" lon="5.23408">
        <ele>1308.1</ele>
        <time>2024-07-02T08:18:27Z</time>
      </trkpt>
      <trkpt lat="44.89586" lon="5.23408">
        <ele>1308.1</ele>
        <time>2024-07-02T08:18:28Z</time>
      </trkpt>
      <trkpt lat="44.89585" lon="5.23409">
        <ele>1308.1</ele>
        <time>2024-07-02T08:18:29Z</time>
      </trkpt>
      <trkpt lat="44.89584" lon="5.23409">
        <ele>1308.1</ele>
        <time>2024-07-02T08:18:30Z</time>
      </trkpt>
      <trkpt lat="44.89583" lon="5.23409">
        <ele>1308.1</ele>
        <time>2024-07-02T08:18:31Z</time>
      </trkpt>
      <trkpt lat="44.89582" lon="5.23409">
        <ele>1308.1</ele>
        <time>2024-07-02T08:18:32Z</time>
      </trkpt>
      <trkpt lat="44.89581" lon="5.23409">
        <ele>1308.1</ele>
        <time>2024-07-02T08:18:33Z</time>
      </trkpt>
      <trkpt lat="44.8958" lon="5.23409">
        <ele>1308.1</ele>
        <time>2024-07-02T08:18:34Z</time>
      </trkpt>
      <trkpt lat="44.89579" lon="5.23409">
        <ele>1308.1</ele>
        <time>2024-07-02T08:18:35Z</time>
      </trkpt>
      <trkpt lat="44.89578" lon="5.23409">
        <ele>1308.2</ele>
        <time>2024-07-02T08:18:36Z</time>
      </trkpt>
      <trkpt lat="44.89577" lon="5.23408">
        <ele>1308.2</ele>
        <time>2024-07-02T08:18:37Z</time>
      </trkpt>
      <trkpt lat="44.89576" lon="5.23408">
        <ele>1308.2</ele>
        <time>2024-07-02T08:18:38Z</time>
      </trkpt>
      <trkpt lat="44.89575" lon="5.23408">
        <ele>1308.2</ele>
        <time>2024-07-02T08:18:39Z</time>
      </trkpt>
      <trkpt lat="44.89573" lon="5.23408">
        <ele>1308.2</ele>
        <time>2024-07-02T08:18:40Z</time>
      </trkpt>
      <trkpt lat="44.89572" lon="5.23407">
        <ele>1308.2</ele>
        <time>2024-07-02T08:18:41Z</time>
      </trkpt>
      <trkpt lat="44.89571" lon="5.23407">
        <ele>1308.2</ele>
        <time>2024-07-02T08:18:42Z</time>
      </trkpt>
      <trkpt lat="44.8957" lon="5.23408">
        <ele>1308.2</ele>
        <time>2024-07-02T08:18:43Z</time>
      </trkpt>
      <trkpt lat="44.89568" lon="5.23408">
        <ele>1308.2</ele>
        <time>2024-07-02T08:18:44Z</time>
      </trkpt>
      <trkpt lat="44.89567" lon="5.23408">
        <ele>1308.2</ele>
        <time>2024-07-02T08:18:45Z</time>
      </trkpt>
      <trkpt lat="44.89566" lon="5.23409">
        <ele>1308.3</ele>
        <time>2024-07-02T08:18:46Z</time>
      </trkpt>
      <trkpt lat="44.89564" lon="5.23409">
        <ele>1308.3</ele>
        <time>2024-07-02T08:18:47Z</time>
      </trkpt>
      <trkpt lat="44.89563" lon="5.23409">
        <ele>1308.3</ele>
        <time>2024-07-02T08:18:48Z</time>
      </trkpt>
      <trkpt lat="44.89562" lon="5.2341">
        <ele>1308.3</ele>
        <time>2024-07-02T08:18:49Z</time>
      </trkpt>
      <trkpt lat="44.89561" lon="5.2341">
        <ele>1308.3</ele>
        <time>2024-07-02T08:18:50Z</time>
      </trkpt>
      <trkpt lat="44.8956" lon="5.2341">
        <ele>1308.3</ele>
        <time>2024-07-02T08:18:51Z</time>
      </trkpt>
      <trkpt lat="44.89557" lon="5.23411">
        <ele>1308.3</ele>
        <time>2024-07-02T08:18:52Z</time>
      </trkpt>
      <trkpt lat="44.89556" lon="5.23411">
        <ele>1308.3</ele>
        <time>2024-07-02T08:18:53Z</time>
      </trkpt>
      <trkpt lat="44.89555" lon="5.23411">
        <ele>1308.3</ele>
        <time>2024-07-02T08:18:54Z</time>
      </trkpt>
      <trkpt lat="44.89554" lon="5.23412">
        <ele>1308.3</ele>
        <time>2024-07-02T08:18:55Z</time>
      </trkpt>
      <trkpt lat="44.89553" lon="5.23412">
        <ele>1308.3</ele>
        <time>2024-07-02T08:18:56Z</time>
      </trkpt>
      <trkpt lat="44.89552" lon="5.23412">
        <ele>1308.3</ele>
        <time>2024-07-02T08:18:57Z</time>
      </trkpt>
      <trkpt lat="44.89551" lon="5.23413">
        <ele>1308.3</ele>
        <time>2024-07-02T08:18:58Z</time>
      </trkpt>
      <trkpt lat="44.8955" lon="5.23413">
        <ele>1308.3</ele>
        <time>2024-07-02T08:18:59Z</time>
      </trkpt>
      <trkpt lat="44.89549" lon="5.23414">
        <ele>1308.3</ele>
        <time>2024-07-02T08:19:00Z</time>
      </trkpt>
      <trkpt lat="44.89547" lon="5.23416">
        <ele>1308.3</ele>
        <time>2024-07-02T08:19:01Z</time>
      </trkpt>
      <trkpt lat="44.89547" lon="5.23416">
        <ele>1308.3</ele>
        <time>2024-07-02T08:19:02Z</time>
      </trkpt>
      <trkpt lat="44.89547" lon="5.23417">
        <ele>1308.3</ele>
        <time>2024-07-02T08:19:03Z</time>
      </trkpt>
      <trkpt lat="44.89546" lon="5.23418">
        <ele>1308.3</ele>
        <time>2024-07-02T08:19:04Z</time>
      </trkpt>
      <trkpt lat="44.89545" lon="5.23418">
        <ele>1308.3</ele>
        <time>2024-07-02T08:19:05Z</time>
      </trkpt>
      <trkpt lat="44.89545" lon="5.23419">
        <ele>1308.3</ele>
        <time>2024-07-02T08:19:06Z</time>
      </trkpt>
      <trkpt lat="44.89544" lon="5.2342">
        <ele>1308.3</ele>
        <time>2024-07-02T08:19:07Z</time>
      </trkpt>
      <trkpt lat="44.89543" lon="5.2342">
        <ele>1308.3</ele>
        <time>2024-07-02T08:19:09Z</time>
      </trkpt>
      <trkpt lat="44.89541" lon="5.2342">
        <ele>1308.3</ele>
        <time>2024-07-02T08:19:10Z</time>
      </trkpt>
      <trkpt lat="44.8954" lon="5.23421">
        <ele>1308.2</ele>
        <time>2024-07-02T08:19:11Z</time>
      </trkpt>
      <trkpt lat="44.89538" lon="5.23421">
        <ele>1308.2</ele>
        <time>2024-07-02T08:19:12Z</time>
      </trkpt>
      <trkpt lat="44.89537" lon="5.23422">
        <ele>1308.2</ele>
        <time>2024-07-02T08:19:13Z</time>
      </trkpt>
      <trkpt lat="44.89535" lon="5.23422">
        <ele>1308.2</ele>
        <time>2024-07-02T08:19:14Z</time>
      </trkpt>
      <trkpt lat="44.89535" lon="5.23421">
        <ele>1308.2</ele>
        <time>2024-07-02T08:19:15Z</time>
      </trkpt>
      <trkpt lat="44.89534" lon="5.23419">
        <ele>1308.2</ele>
        <time>2024-07-02T08:19:16Z</time>
      </trkpt>
      <trkpt lat="44.89532" lon="5.23419">
        <ele>1308.1</ele>
        <time>2024-07-02T08:19:17Z</time>
      </trkpt>
      <trkpt lat="44.89531" lon="5.2342">
        <ele>1308.1</ele>
        <time>2024-07-02T08:19:18Z</time>
      </trkpt>
      <trkpt lat="44.8953" lon="5.2342">
        <ele>1308.1</ele>
        <time>2024-07-02T08:19:19Z</time>
      </trkpt>
      <trkpt lat="44.89529" lon="5.23421">
        <ele>1308.1</ele>
        <time>2024-07-02T08:19:20Z</time>
      </trkpt>
      <trkpt lat="44.89528" lon="5.23422">
        <ele>1308</ele>
        <time>2024-07-02T08:19:21Z</time>
      </trkpt>
      <trkpt lat="44.89526" lon="5.23423">
        <ele>1308</ele>
        <time>2024-07-02T08:19:22Z</time>
      </trkpt>
      <trkpt lat="44.89525" lon="5.23424">
        <ele>1308</ele>
        <time>2024-07-02T08:19:23Z</time>
      </trkpt>
      <trkpt lat="44.89524" lon="5.23425">
        <ele>1308</ele>
        <time>2024-07-02T08:19:24Z</time>
      </trkpt>
      <trkpt lat="44.89522" lon="5.23426">
        <ele>1308</ele>
        <time>2024-07-02T08:19:25Z</time>
      </trkpt>
      <trkpt lat="44.89521" lon="5.23427">
        <ele>1307.9</ele>
        <time>2024-07-02T08:19:26Z</time>
      </trkpt>
      <trkpt lat="44.8952" lon="5.23428">
        <ele>1307.9</ele>
        <time>2024-07-02T08:19:27Z</time>
      </trkpt>
      <trkpt lat="44.89518" lon="5.23428">
        <ele>1307.9</ele>
        <time>2024-07-02T08:19:28Z</time>
      </trkpt>
      <trkpt lat="44.89517" lon="5.23428">
        <ele>1307.9</ele>
        <time>2024-07-02T08:19:29Z</time>
      </trkpt>
      <trkpt lat="44.89516" lon="5.23428">
        <ele>1307.9</ele>
        <time>2024-07-02T08:19:30Z</time>
      </trkpt>
      <trkpt lat="44.89515" lon="5.23429">
        <ele>1307.9</ele>
        <time>2024-07-02T08:19:31Z</time>
      </trkpt>
      <trkpt lat="44.89514" lon="5.23429">
        <ele>1307.9</ele>
        <time>2024-07-02T08:19:32Z</time>
      </trkpt>
      <trkpt lat="44.89512" lon="5.2343">
        <ele>1307.9</ele>
        <time>2024-07-02T08:19:33Z</time>
      </trkpt>
      <trkpt lat="44.89511" lon="5.2343">
        <ele>1307.8</ele>
        <time>2024-07-02T08:19:34Z</time>
      </trkpt>
      <trkpt lat="44.89509" lon="5.2343">
        <ele>1307.8</ele>
        <time>2024-07-02T08:19:35Z</time>
      </trkpt>
      <trkpt lat="44.89508" lon="5.23429">
        <ele>1307.8</ele>
        <time>2024-07-02T08:19:36Z</time>
      </trkpt>
      <trkpt lat="44.89506" lon="5.23429">
        <ele>1307.8</ele>
        <time>2024-07-02T08:19:37Z</time>
      </trkpt>
      <trkpt lat="44.89505" lon="5.2343">
        <ele>1307.8</ele>
        <time>2024-07-02T08:19:38Z</time>
      </trkpt>
      <trkpt lat="44.89503" lon="5.2343">
        <ele>1307.8</ele>
        <time>2024-07-02T08:19:39Z</time>
      </trkpt>
      <trkpt lat="44.89502" lon="5.2343">
        <ele>1307.8</ele>
        <time>2024-07-02T08:19:40Z</time>
      </trkpt>
      <trkpt lat="44.89501" lon="5.2343">
        <ele>1307.7</ele>
        <time>2024-07-02T08:19:41Z</time>
      </trkpt>
      <trkpt lat="44.89499" lon="5.2343">
        <ele>1307.7</ele>
        <time>2024-07-02T08:19:42Z</time>
      </trkpt>
      <trkpt lat="44.89498" lon="5.23431">
        <ele>1307.7</ele>
        <time>2024-07-02T08:19:43Z</time>
      </trkpt>
      <trkpt lat="44.89496" lon="5.23431">
        <ele>1307.7</ele>
        <time>2024-07-02T08:19:44Z</time>
      </trkpt>
      <trkpt lat="44.89494" lon="5.23431">
        <ele>1307.7</ele>
        <time>2024-07-02T08:19:45Z</time>
      </trkpt>
      <trkpt lat="44.89493" lon="5.23432">
        <ele>1307.7</ele>
        <time>2024-07-02T08:19:46Z</time>
      </trkpt>
      <trkpt lat="44.89492" lon="5.23432">
        <ele>1307.6</ele>
        <time>2024-07-02T08:19:47Z</time>
      </trkpt>
      <trkpt lat="44.8949" lon="5.23432">
        <ele>1307.6</ele>
        <time>2024-07-02T08:19:48Z</time>
      </trkpt>
      <trkpt lat="44.89489" lon="5.23432">
        <ele>1307.6</ele>
        <time>2024-07-02T08:19:49Z</time>
      </trkpt>
      <trkpt lat="44.89488" lon="5.23432">
        <ele>1307.6</ele>
        <time>2024-07-02T08:19:50Z</time>
      </trkpt>
      <trkpt lat="44.89486" lon="5.23433">
        <ele>1307.6</ele>
        <time>2024-07-02T08:19:51Z</time>
      </trkpt>
      <trkpt lat="44.89485" lon="5.23433">
        <ele>1307.5</ele>
        <time>2024-07-02T08:19:52Z</time>
      </trkpt>
      <trkpt lat="44.89484" lon="5.23433">
        <ele>1307.5</ele>
        <time>2024-07-02T08:19:53Z</time>
      </trkpt>
      <trkpt lat="44.89482" lon="5.23433">
        <ele>1307.5</ele>
        <time>2024-07-02T08:19:54Z</time>
      </trkpt>
      <trkpt lat="44.89481" lon="5.23433">
        <ele>1307.5</ele>
        <time>2024-07-02T08:19:55Z</time>
      </trkpt>
      <trkpt lat="44.8948" lon="5.23434">
        <ele>1307.5</ele>
        <time>2024-07-02T08:19:56Z</time>
      </trkpt>
      <trkpt lat="44.89479" lon="5.23434">
        <ele>1307.5</ele>
        <time>2024-07-02T08:19:57Z</time>
      </trkpt>
      <trkpt lat="44.89478" lon="5.23434">
        <ele>1307.4</ele>
        <time>2024-07-02T08:19:58Z</time>
      </trkpt>
      <trkpt lat="44.89475" lon="5.23435">
        <ele>1307.4</ele>
        <time>2024-07-02T08:19:59Z</time>
      </trkpt>
      <trkpt lat="44.89475" lon="5.23435">
        <ele>1307.4</ele>
        <time>2024-07-02T08:20:00Z</time>
      </trkpt>
      <trkpt lat="44.89474" lon="5.23435">
        <ele>1307.4</ele>
        <time>2024-07-02T08:20:01Z</time>
      </trkpt>
      <trkpt lat="44.89472" lon="5.23435">
        <ele>1307.4</ele>
        <time>2024-07-02T08:20:02Z</time>
      </trkpt>
      <trkpt lat="44.89471" lon="5.23436">
        <ele>1307.4</ele>
        <time>2024-07-02T08:20:03Z</time>
      </trkpt>
      <trkpt lat="44.89469" lon="5.23436">
        <ele>1307.3</ele>
        <time>2024-07-02T08:20:04Z</time>
      </trkpt>
      <trkpt lat="44.89468" lon="5.23436">
        <ele>1307.3</ele>
        <time>2024-07-02T08:20:05Z</time>
      </trkpt>
      <trkpt lat="44.89467" lon="5.23437">
        <ele>1307.3</ele>
        <time>2024-07-02T08:20:06Z</time>
      </trkpt>
      <trkpt lat="44.89466" lon="5.23437">
        <ele>1307.3</ele>
        <time>2024-07-02T08:20:07Z</time>
      </trkpt>
      <trkpt lat="44.89464" lon="5.23437">
        <ele>1307.2</ele>
        <time>2024-07-02T08:20:08Z</time>
      </trkpt>
      <trkpt lat="44.89463" lon="5.23438">
        <ele>1307.2</ele>
        <time>2024-07-02T08:20:09Z</time>
      </trkpt>
      <trkpt lat="44.89462" lon="5.23438">
        <ele>1307.2</ele>
        <time>2024-07-02T08:20:10Z</time>
      </trkpt>
      <trkpt lat="44.8946" lon="5.23438">
        <ele>1307.1</ele>
        <time>2024-07-02T08:20:11Z</time>
      </trkpt>
      <trkpt lat="44.89459" lon="5.23438">
        <ele>1307.1</ele>
        <time>2024-07-02T08:20:12Z</time>
      </trkpt>
      <trkpt lat="44.89458" lon="5.23438">
        <ele>1307.1</ele>
        <time>2024-07-02T08:20:13Z</time>
      </trkpt>
      <trkpt lat="44.89456" lon="5.23439">
        <ele>1307.1</ele>
        <time>2024-07-02T08:20:14Z</time>
      </trkpt>
      <trkpt lat="44.89455" lon="5.23439">
        <ele>1307</ele>
        <time>2024-07-02T08:20:15Z</time>
      </trkpt>
      <trkpt lat="44.89454" lon="5.2344">
        <ele>1307</ele>
        <time>2024-07-02T08:20:16Z</time>
      </trkpt>
      <trkpt lat="44.89452" lon="5.2344">
        <ele>1307</ele>
        <time>2024-07-02T08:20:17Z</time>
      </trkpt>
      <trkpt lat="44.89451" lon="5.2344">
        <ele>1306.9</ele>
        <time>2024-07-02T08:20:18Z</time>
      </trkpt>
      <trkpt lat="44.8945" lon="5.2344">
        <ele>1306.9</ele>
        <time>2024-07-02T08:20:19Z</time>
      </trkpt>
      <trkpt lat="44.89448" lon="5.23441">
        <ele>1306.8</ele>
        <time>2024-07-02T08:20:20Z</time>
      </trkpt>
      <trkpt lat="44.89447" lon="5.23441">
        <ele>1306.8</ele>
        <time>2024-07-02T08:20:21Z</time>
      </trkpt>
      <trkpt lat="44.89446" lon="5.23441">
        <ele>1306.8</ele>
        <time>2024-07-02T08:20:22Z</time>
      </trkpt>
      <trkpt lat="44.89444" lon="5.23441">
        <ele>1306.7</ele>
        <time>2024-07-02T08:20:23Z</time>
      </trkpt>
      <trkpt lat="44.89443" lon="5.23442">
        <ele>1306.7</ele>
        <time>2024-07-02T08:20:24Z</time>
      </trkpt>
      <trkpt lat="44.89442" lon="5.23442">
        <ele>1306.6</ele>
        <time>2024-07-02T08:20:25Z</time>
      </trkpt>
      <trkpt lat="44.89441" lon="5.23442">
        <ele>1306.6</ele>
        <time>2024-07-02T08:20:26Z</time>
      </trkpt>
      <trkpt lat="44.89439" lon="5.23442">
        <ele>1306.6</ele>
        <time>2024-07-02T08:20:27Z</time>
      </trkpt>
      <trkpt lat="44.89437" lon="5.23443">
        <ele>1306.5</ele>
        <time>2024-07-02T08:20:28Z</time>
      </trkpt>
      <trkpt lat="44.89436" lon="5.23443">
        <ele>1306.5</ele>
        <time>2024-07-02T08:20:29Z</time>
      </trkpt>
      <trkpt lat="44.89435" lon="5.23443">
        <ele>1306.4</ele>
        <time>2024-07-02T08:20:30Z</time>
      </trkpt>
      <trkpt lat="44.89434" lon="5.23443">
        <ele>1306.4</ele>
        <time>2024-07-02T08:20:31Z</time>
      </trkpt>
      <trkpt lat="44.89433" lon="5.23444">
        <ele>1306.3</ele>
        <time>2024-07-02T08:20:32Z</time>
      </trkpt>
      <trkpt lat="44.89431" lon="5.23444">
        <ele>1306.3</ele>
        <time>2024-07-02T08:20:33Z</time>
      </trkpt>
      <trkpt lat="44.89429" lon="5.23444">
        <ele>1306.2</ele>
        <time>2024-07-02T08:20:34Z</time>
      </trkpt>
      <trkpt lat="44.89429" lon="5.23444">
        <ele>1306.2</ele>
        <time>2024-07-02T08:20:35Z</time>
      </trkpt>
      <trkpt lat="44.89427" lon="5.23444">
        <ele>1306.2</ele>
        <time>2024-07-02T08:20:36Z</time>
      </trkpt>
      <trkpt lat="44.89426" lon="5.23444">
        <ele>1306.1</ele>
        <time>2024-07-02T08:20:37Z</time>
      </trkpt>
      <trkpt lat="44.89425" lon="5.23445">
        <ele>1306.1</ele>
        <time>2024-07-02T08:20:38Z</time>
      </trkpt>
      <trkpt lat="44.89422" lon="5.23445">
        <ele>1306</ele>
        <time>2024-07-02T08:20:39Z</time>
      </trkpt>
      <trkpt lat="44.89421" lon="5.23445">
        <ele>1306</ele>
        <time>2024-07-02T08:20:40Z</time>
      </trkpt>
      <trkpt lat="44.8942" lon="5.23445">
        <ele>1306</ele>
        <time>2024-07-02T08:20:41Z</time>
      </trkpt>
      <trkpt lat="44.89419" lon="5.23445">
        <ele>1305.9</ele>
        <time>2024-07-02T08:20:42Z</time>
      </trkpt>
      <trkpt lat="44.89417" lon="5.23445">
        <ele>1305.9</ele>
        <time>2024-07-02T08:20:43Z</time>
      </trkpt>
      <trkpt lat="44.89416" lon="5.23445">
        <ele>1305.8</ele>
        <time>2024-07-02T08:20:44Z</time>
      </trkpt>
      <trkpt lat="44.89414" lon="5.23445">
        <ele>1305.8</ele>
        <time>2024-07-02T08:20:45Z</time>
      </trkpt>
      <trkpt lat="44.89413" lon="5.23445">
        <ele>1305.7</ele>
        <time>2024-07-02T08:20:46Z</time>
      </trkpt>
      <trkpt lat="44.89412" lon="5.23445">
        <ele>1305.7</ele>
        <time>2024-07-02T08:20:47Z</time>
      </trkpt>
      <trkpt lat="44.8941" lon="5.23444">
        <ele>1305.7</ele>
        <time>2024-07-02T08:20:48Z</time>
      </trkpt>
      <trkpt lat="44.89409" lon="5.23444">
        <ele>1305.6</ele>
        <time>2024-07-02T08:20:49Z</time>
      </trkpt>
      <trkpt lat="44.89408" lon="5.23444">
        <ele>1305.6</ele>
        <time>2024-07-02T08:20:50Z</time>
      </trkpt>
      <trkpt lat="44.89406" lon="5.23443">
        <ele>1305.5</ele>
        <time>2024-07-02T08:20:51Z</time>
      </trkpt>
      <trkpt lat="44.89405" lon="5.23443">
        <ele>1305.5</ele>
        <time>2024-07-02T08:20:52Z</time>
      </trkpt>
      <trkpt lat="44.89404" lon="5.23443">
        <ele>1305.5</ele>
        <time>2024-07-02T08:20:53Z</time>
      </trkpt>
      <trkpt lat="44.89402" lon="5.23443">
        <ele>1305.4</ele>
        <time>2024-07-02T08:20:54Z</time>
      </trkpt>
      <trkpt lat="44.89401" lon="5.23443">
        <ele>1305.4</ele>
        <time>2024-07-02T08:20:55Z</time>
      </trkpt>
      <trkpt lat="44.894" lon="5.23443">
        <ele>1305.4</ele>
        <time>2024-07-02T08:20:56Z</time>
      </trkpt>
      <trkpt lat="44.89399" lon="5.23443">
        <ele>1305.4</ele>
        <time>2024-07-02T08:20:57Z</time>
      </trkpt>
      <trkpt lat="44.89398" lon="5.23443">
        <ele>1305.4</ele>
        <time>2024-07-02T08:20:58Z</time>
      </trkpt>
      <trkpt lat="44.89397" lon="5.23443">
        <ele>1305.3</ele>
        <time>2024-07-02T08:20:59Z</time>
      </trkpt>
      <trkpt lat="44.89396" lon="5.23443">
        <ele>1305.3</ele>
        <time>2024-07-02T08:21:00Z</time>
      </trkpt>
      <trkpt lat="44.89394" lon="5.23442">
        <ele>1305.3</ele>
        <time>2024-07-02T08:21:01Z</time>
      </trkpt>
      <trkpt lat="44.89393" lon="5.23442">
        <ele>1305.3</ele>
        <time>2024-07-02T08:21:02Z</time>
      </trkpt>
      <trkpt lat="44.89392" lon="5.23442">
        <ele>1305.2</ele>
        <time>2024-07-02T08:21:03Z</time>
      </trkpt>
      <trkpt lat="44.8939" lon="5.23442">
        <ele>1305.2</ele>
        <time>2024-07-02T08:21:04Z</time>
      </trkpt>
      <trkpt lat="44.89389" lon="5.23441">
        <ele>1305.2</ele>
        <time>2024-07-02T08:21:05Z</time>
      </trkpt>
      <trkpt lat="44.89388" lon="5.23441">
        <ele>1305.2</ele>
        <time>2024-07-02T08:21:06Z</time>
      </trkpt>
      <trkpt lat="44.89387" lon="5.23441">
        <ele>1305.1</ele>
        <time>2024-07-02T08:21:07Z</time>
      </trkpt>
      <trkpt lat="44.89386" lon="5.23441">
        <ele>1305.1</ele>
        <time>2024-07-02T08:21:08Z</time>
      </trkpt>
      <trkpt lat="44.89385" lon="5.23441">
        <ele>1305.1</ele>
        <time>2024-07-02T08:21:09Z</time>
      </trkpt>
      <trkpt lat="44.89383" lon="5.2344">
        <ele>1305.1</ele>
        <time>2024-07-02T08:21:10Z</time>
      </trkpt>
      <trkpt lat="44.89381" lon="5.2344">
        <ele>1305</ele>
        <time>2024-07-02T08:21:11Z</time>
      </trkpt>
      <trkpt lat="44.89381" lon="5.2344">
        <ele>1305</ele>
        <time>2024-07-02T08:21:12Z</time>
      </trkpt>
      <trkpt lat="44.8938" lon="5.2344">
        <ele>1305</ele>
        <time>2024-07-02T08:21:13Z</time>
      </trkpt>
      <trkpt lat="44.89377" lon="5.2344">
        <ele>1305</ele>
        <time>2024-07-02T08:21:14Z</time>
      </trkpt>
      <trkpt lat="44.89377" lon="5.2344">
        <ele>1304.9</ele>
        <time>2024-07-02T08:21:15Z</time>
      </trkpt>
      <trkpt lat="44.89376" lon="5.2344">
        <ele>1304.9</ele>
        <time>2024-07-02T08:21:16Z</time>
      </trkpt>
      <trkpt lat="44.89375" lon="5.2344">
        <ele>1304.9</ele>
        <time>2024-07-02T08:21:17Z</time>
      </trkpt>
      <trkpt lat="44.89374" lon="5.2344">
        <ele>1304.9</ele>
        <time>2024-07-02T08:21:18Z</time>
      </trkpt>
      <trkpt lat="44.89373" lon="5.2344">
        <ele>1304.9</ele>
        <time>2024-07-02T08:21:19Z</time>
      </trkpt>
      <trkpt lat="44.89372" lon="5.2344">
        <ele>1304.9</ele>
        <time>2024-07-02T08:21:20Z</time>
      </trkpt>
      <trkpt lat="44.8937" lon="5.2344">
        <ele>1304.8</ele>
        <time>2024-07-02T08:21:21Z</time>
      </trkpt>
      <trkpt lat="44.89369" lon="5.23439">
        <ele>1304.8</ele>
        <time>2024-07-02T08:21:22Z</time>
      </trkpt>
      <trkpt lat="44.89368" lon="5.23439">
        <ele>1304.8</ele>
        <time>2024-07-02T08:21:23Z</time>
      </trkpt>
      <trkpt lat="44.89366" lon="5.23439">
        <ele>1304.7</ele>
        <time>2024-07-02T08:21:24Z</time>
      </trkpt>
      <trkpt lat="44.89366" lon="5.23439">
        <ele>1304.7</ele>
        <time>2024-07-02T08:21:25Z</time>
      </trkpt>
      <trkpt lat="44.89364" lon="5.23439">
        <ele>1304.7</ele>
        <time>2024-07-02T08:21:26Z</time>
      </trkpt>
      <trkpt lat="44.89363" lon="5.23439">
        <ele>1304.7</ele>
        <time>2024-07-02T08:21:27Z</time>
      </trkpt>
      <trkpt lat="44.89362" lon="5.23439">
        <ele>1304.7</ele>
        <time>2024-07-02T08:21:28Z</time>
      </trkpt>
      <trkpt lat="44.89361" lon="5.23439">
        <ele>1304.6</ele>
        <time>2024-07-02T08:21:29Z</time>
      </trkpt>
      <trkpt lat="44.8936" lon="5.23439">
        <ele>1304.6</ele>
        <time>2024-07-02T08:21:30Z</time>
      </trkpt>
      <trkpt lat="44.89358" lon="5.2344">
        <ele>1304.6</ele>
        <time>2024-07-02T08:21:31Z</time>
      </trkpt>
      <trkpt lat="44.89357" lon="5.2344">
        <ele>1304.6</ele>
        <time>2024-07-02T08:21:32Z</time>
      </trkpt>
      <trkpt lat="44.89356" lon="5.2344">
        <ele>1304.6</ele>
        <time>2024-07-02T08:21:33Z</time>
      </trkpt>
      <trkpt lat="44.89355" lon="5.2344">
        <ele>1304.5</ele>
        <time>2024-07-02T08:21:34Z</time>
      </trkpt>
      <trkpt lat="44.89354" lon="5.2344">
        <ele>1304.5</ele>
        <time>2024-07-02T08:21:35Z</time>
      </trkpt>
      <trkpt lat="44.89353" lon="5.23441">
        <ele>1304.5</ele>
        <time>2024-07-02T08:21:36Z</time>
      </trkpt>
      <trkpt lat="44.89351" lon="5.23441">
        <ele>1304.5</ele>
        <time>2024-07-02T08:21:37Z</time>
      </trkpt>
      <trkpt lat="44.8935" lon="5.23442">
        <ele>1304.5</ele>
        <time>2024-07-02T08:21:38Z</time>
      </trkpt>
      <trkpt lat="44.89349" lon="5.23442">
        <ele>1304.4</ele>
        <time>2024-07-02T08:21:39Z</time>
      </trkpt>
      <trkpt lat="44.89347" lon="5.23442">
        <ele>1304.4</ele>
        <time>2024-07-02T08:21:40Z</time>
      </trkpt>
      <trkpt lat="44.89347" lon="5.23442">
        <ele>1304.4</ele>
        <time>2024-07-02T08:21:41Z</time>
      </trkpt>
      <trkpt lat="44.89346" lon="5.23442">
        <ele>1304.4</ele>
        <time>2024-07-02T08:21:42Z</time>
      </trkpt>
      <trkpt lat="44.89345" lon="5.23443">
        <ele>1304.4</ele>
        <time>2024-07-02T08:21:43Z</time>
      </trkpt>
      <trkpt lat="44.89343" lon="5.23443">
        <ele>1304.3</ele>
        <time>2024-07-02T08:21:44Z</time>
      </trkpt>
      <trkpt lat="44.89342" lon="5.23443">
        <ele>1304.3</ele>
        <time>2024-07-02T08:21:45Z</time>
      </trkpt>
      <trkpt lat="44.89341" lon="5.23443">
        <ele>1304.3</ele>
        <time>2024-07-02T08:21:46Z</time>
      </trkpt>
      <trkpt lat="44.89339" lon="5.23444">
        <ele>1304.3</ele>
        <time>2024-07-02T08:21:47Z</time>
      </trkpt>
      <trkpt lat="44.89338" lon="5.23444">
        <ele>1304.3</ele>
        <time>2024-07-02T08:21:48Z</time>
      </trkpt>
      <trkpt lat="44.89338" lon="5.23444">
        <ele>1304.3</ele>
        <time>2024-07-02T08:21:49Z</time>
      </trkpt>
      <trkpt lat="44.89337" lon="5.23445">
        <ele>1304.3</ele>
        <time>2024-07-02T08:21:50Z</time>
      </trkpt>
      <trkpt lat="44.89336" lon="5.23445">
        <ele>1304.2</ele>
        <time>2024-07-02T08:21:51Z</time>
      </trkpt>
      <trkpt lat="44.89334" lon="5.23446">
        <ele>1304.2</ele>
        <time>2024-07-02T08:21:52Z</time>
      </trkpt>
      <trkpt lat="44.89332" lon="5.23446">
        <ele>1304.2</ele>
        <time>2024-07-02T08:21:53Z</time>
      </trkpt>
      <trkpt lat="44.89332" lon="5.23446">
        <ele>1304.2</ele>
        <time>2024-07-02T08:21:54Z</time>
      </trkpt>
      <trkpt lat="44.89331" lon="5.23446">
        <ele>1304.2</ele>
        <time>2024-07-02T08:21:55Z</time>
      </trkpt>
      <trkpt lat="44.8933" lon="5.23447">
        <ele>1304.2</ele>
        <time>2024-07-02T08:21:56Z</time>
      </trkpt>
      <trkpt lat="44.89328" lon="5.23447">
        <ele>1304.2</ele>
        <time>2024-07-02T08:21:57Z</time>
      </trkpt>
      <trkpt lat="44.89327" lon="5.23447">
        <ele>1304.1</ele>
        <time>2024-07-02T08:21:58Z</time>
      </trkpt>
      <trkpt lat="44.89326" lon="5.23447">
        <ele>1304.1</ele>
        <time>2024-07-02T08:21:59Z</time>
      </trkpt>
      <trkpt lat="44.89325" lon="5.23447">
        <ele>1304.1</ele>
        <time>2024-07-02T08:22:00Z</time>
      </trkpt>
      <trkpt lat="44.89324" lon="5.23447">
        <ele>1304.1</ele>
        <time>2024-07-02T08:22:01Z</time>
      </trkpt>
      <trkpt lat="44.89322" lon="5.23447">
        <ele>1304.1</ele>
        <time>2024-07-02T08:22:02Z</time>
      </trkpt>
      <trkpt lat="44.89321" lon="5.23447">
        <ele>1304.1</ele>
        <time>2024-07-02T08:22:03Z</time>
      </trkpt>
      <trkpt lat="44.8932" lon="5.23447">
        <ele>1304.1</ele>
        <time>2024-07-02T08:22:04Z</time>
      </trkpt>
      <trkpt lat="44.89319" lon="5.23446">
        <ele>1304.1</ele>
        <time>2024-07-02T08:22:05Z</time>
      </trkpt>
      <trkpt lat="44.89318" lon="5.23446">
        <ele>1304.1</ele>
        <time>2024-07-02T08:22:06Z</time>
      </trkpt>
      <trkpt lat="44.89317" lon="5.23446">
        <ele>1304</ele>
        <time>2024-07-02T08:22:07Z</time>
      </trkpt>
      <trkpt lat="44.89316" lon="5.23446">
        <ele>1304</ele>
        <time>2024-07-02T08:22:08Z</time>
      </trkpt>
      <trkpt lat="44.89315" lon="5.23446">
        <ele>1304</ele>
        <time>2024-07-02T08:22:09Z</time>
      </trkpt>
      <trkpt lat="44.89313" lon="5.23446">
        <ele>1304</ele>
        <time>2024-07-02T08:22:10Z</time>
      </trkpt>
      <trkpt lat="44.89311" lon="5.23447">
        <ele>1304</ele>
        <time>2024-07-02T08:22:11Z</time>
      </trkpt>
      <trkpt lat="44.89311" lon="5.23447">
        <ele>1304</ele>
        <time>2024-07-02T08:22:12Z</time>
      </trkpt>
      <trkpt lat="44.8931" lon="5.23447">
        <ele>1304</ele>
        <time>2024-07-02T08:22:13Z</time>
      </trkpt>
      <trkpt lat="44.89308" lon="5.23447">
        <ele>1304</ele>
        <time>2024-07-02T08:22:14Z</time>
      </trkpt>
      <trkpt lat="44.89307" lon="5.23447">
        <ele>1304</ele>
        <time>2024-07-02T08:22:15Z</time>
      </trkpt>
      <trkpt lat="44.89306" lon="5.23447">
        <ele>1303.9</ele>
        <time>2024-07-02T08:22:16Z</time>
      </trkpt>
      <trkpt lat="44.89305" lon="5.23447">
        <ele>1303.9</ele>
        <time>2024-07-02T08:22:17Z</time>
      </trkpt>
      <trkpt lat="44.89303" lon="5.23446">
        <ele>1303.9</ele>
        <time>2024-07-02T08:22:18Z</time>
      </trkpt>
      <trkpt lat="44.89301" lon="5.23446">
        <ele>1303.9</ele>
        <time>2024-07-02T08:22:19Z</time>
      </trkpt>
      <trkpt lat="44.89301" lon="5.23446">
        <ele>1303.9</ele>
        <time>2024-07-02T08:22:20Z</time>
      </trkpt>
      <trkpt lat="44.893" lon="5.23446">
        <ele>1303.9</ele>
        <time>2024-07-02T08:22:21Z</time>
      </trkpt>
      <trkpt lat="44.89298" lon="5.23447">
        <ele>1303.9</ele>
        <time>2024-07-02T08:22:22Z</time>
      </trkpt>
      <trkpt lat="44.89297" lon="5.23447">
        <ele>1303.9</ele>
        <time>2024-07-02T08:22:23Z</time>
      </trkpt>
      <trkpt lat="44.89296" lon="5.23447">
        <ele>1303.8</ele>
        <time>2024-07-02T08:22:24Z</time>
      </trkpt>
      <trkpt lat="44.89294" lon="5.23447">
        <ele>1303.8</ele>
        <time>2024-07-02T08:22:25Z</time>
      </trkpt>
      <trkpt lat="44.89293" lon="5.23447">
        <ele>1303.8</ele>
        <time>2024-07-02T08:22:26Z</time>
      </trkpt>
      <trkpt lat="44.89292" lon="5.23447">
        <ele>1303.8</ele>
        <time>2024-07-02T08:22:27Z</time>
      </trkpt>
      <trkpt lat="44.89291" lon="5.23447">
        <ele>1303.8</ele>
        <time>2024-07-02T08:22:28Z</time>
      </trkpt>
      <trkpt lat="44.8929" lon="5.23447">
        <ele>1303.8</ele>
        <time>2024-07-02T08:22:29Z</time>
      </trkpt>
      <trkpt lat="44.89289" lon="5.23447">
        <ele>1303.7</ele>
        <time>2024-07-02T08:22:30Z</time>
      </trkpt>
      <trkpt lat="44.89288" lon="5.23447">
        <ele>1303.7</ele>
        <time>2024-07-02T08:22:31Z</time>
      </trkpt>
      <trkpt lat="44.89287" lon="5.23447">
        <ele>1303.7</ele>
        <time>2024-07-02T08:22:32Z</time>
      </trkpt>
      <trkpt lat="44.89285" lon="5.23447">
        <ele>1303.7</ele>
        <time>2024-07-02T08:22:33Z</time>
      </trkpt>
      <trkpt lat="44.89284" lon="5.23446">
        <ele>1303.7</ele>
        <time>2024-07-02T08:22:34Z</time>
      </trkpt>
      <trkpt lat="44.89283" lon="5.23446">
        <ele>1303.7</ele>
        <time>2024-07-02T08:22:35Z</time>
      </trkpt>
      <trkpt lat="44.89282" lon="5.23446">
        <ele>1303.6</ele>
        <time>2024-07-02T08:22:36Z</time>
      </trkpt>
      <trkpt lat="44.8928" lon="5.23445">
        <ele>1303.6</ele>
        <time>2024-07-02T08:22:37Z</time>
      </trkpt>
      <trkpt lat="44.89279" lon="5.23445">
        <ele>1303.6</ele>
        <time>2024-07-02T08:22:38Z</time>
      </trkpt>
      <trkpt lat="44.89278" lon="5.23445">
        <ele>1303.6</ele>
        <time>2024-07-02T08:22:39Z</time>
      </trkpt>
      <trkpt lat="44.89276" lon="5.23444">
        <ele>1303.5</ele>
        <time>2024-07-02T08:22:40Z</time>
      </trkpt>
      <trkpt lat="44.89276" lon="5.23444">
        <ele>1303.5</ele>
        <time>2024-07-02T08:22:41Z</time>
      </trkpt>
      <trkpt lat="44.89275" lon="5.23443">
        <ele>1303.5</ele>
        <time>2024-07-02T08:22:42Z</time>
      </trkpt>
      <trkpt lat="44.89273" lon="5.23443">
        <ele>1303.4</ele>
        <time>2024-07-02T08:22:43Z</time>
      </trkpt>
      <trkpt lat="44.89272" lon="5.23443">
        <ele>1303.4</ele>
        <time>2024-07-02T08:22:44Z</time>
      </trkpt>
      <trkpt lat="44.89271" lon="5.23442">
        <ele>1303.4</ele>
        <time>2024-07-02T08:22:45Z</time>
      </trkpt>
      <trkpt lat="44.8927" lon="5.23442">
        <ele>1303.3</ele>
        <time>2024-07-02T08:22:46Z</time>
      </trkpt>
      <trkpt lat="44.89269" lon="5.23441">
        <ele>1303.3</ele>
        <time>2024-07-02T08:22:47Z</time>
      </trkpt>
      <trkpt lat="44.89268" lon="5.23441">
        <ele>1303.3</ele>
        <time>2024-07-02T08:22:48Z</time>
      </trkpt>
      <trkpt lat="44.89267" lon="5.23441">
        <ele>1303.3</ele>
        <time>2024-07-02T08:22:49Z</time>
      </trkpt>
      <trkpt lat="44.89266" lon="5.23441">
        <ele>1303.2</ele>
        <time>2024-07-02T08:22:50Z</time>
      </trkpt>
      <trkpt lat="44.89264" lon="5.23441">
        <ele>1303.2</ele>
        <time>2024-07-02T08:22:51Z</time>
      </trkpt>
      <trkpt lat="44.89263" lon="5.2344">
        <ele>1303.1</ele>
        <time>2024-07-02T08:22:52Z</time>
      </trkpt>
      <trkpt lat="44.89262" lon="5.2344">
        <ele>1303.1</ele>
        <time>2024-07-02T08:22:53Z</time>
      </trkpt>
      <trkpt lat="44.89261" lon="5.2344">
        <ele>1303.1</ele>
        <time>2024-07-02T08:22:54Z</time>
      </trkpt>
      <trkpt lat="44.8926" lon="5.23439">
        <ele>1303</ele>
        <time>2024-07-02T08:22:55Z</time>
      </trkpt>
      <trkpt lat="44.89259" lon="5.23439">
        <ele>1303</ele>
        <time>2024-07-02T08:22:56Z</time>
      </trkpt>
      <trkpt lat="44.89258" lon="5.23439">
        <ele>1302.9</ele>
        <time>2024-07-02T08:22:57Z</time>
      </trkpt>
      <trkpt lat="44.89256" lon="5.23438">
        <ele>1302.9</ele>
        <time>2024-07-02T08:22:58Z</time>
      </trkpt>
      <trkpt lat="44.89255" lon="5.23438">
        <ele>1302.8</ele>
        <time>2024-07-02T08:22:59Z</time>
      </trkpt>
      <trkpt lat="44.89254" lon="5.23438">
        <ele>1302.8</ele>
        <time>2024-07-02T08:23:00Z</time>
      </trkpt>
      <trkpt lat="44.89253" lon="5.23437">
        <ele>1302.7</ele>
        <time>2024-07-02T08:23:01Z</time>
      </trkpt>
      <trkpt lat="44.89252" lon="5.23437">
        <ele>1302.7</ele>
        <time>2024-07-02T08:23:02Z</time>
      </trkpt>
      <trkpt lat="44.89251" lon="5.23437">
        <ele>1302.6</ele>
        <time>2024-07-02T08:23:03Z</time>
      </trkpt>
      <trkpt lat="44.89249" lon="5.23437">
        <ele>1302.5</ele>
        <time>2024-07-02T08:23:04Z</time>
      </trkpt>
      <trkpt lat="44.89248" lon="5.23437">
        <ele>1302.5</ele>
        <time>2024-07-02T08:23:05Z</time>
      </trkpt>
      <trkpt lat="44.89247" lon="5.23436">
        <ele>1302.5</ele>
        <time>2024-07-02T08:23:06Z</time>
      </trkpt>
      <trkpt lat="44.89246" lon="5.23436">
        <ele>1302.4</ele>
        <time>2024-07-02T08:23:07Z</time>
      </trkpt>
      <trkpt lat="44.89244" lon="5.23436">
        <ele>1302.3</ele>
        <time>2024-07-02T08:23:08Z</time>
      </trkpt>
      <trkpt lat="44.89243" lon="5.23436">
        <ele>1302.3</ele>
        <time>2024-07-02T08:23:09Z</time>
      </trkpt>
      <trkpt lat="44.89242" lon="5.23436">
        <ele>1302.3</ele>
        <time>2024-07-02T08:23:10Z</time>
      </trkpt>
      <trkpt lat="44.89241" lon="5.23436">
        <ele>1302.2</ele>
        <time>2024-07-02T08:23:11Z</time>
      </trkpt>
      <trkpt lat="44.8924" lon="5.23435">
        <ele>1302.2</ele>
        <time>2024-07-02T08:23:12Z</time>
      </trkpt>
      <trkpt lat="44.89239" lon="5.23435">
        <ele>1302.1</ele>
        <time>2024-07-02T08:23:13Z</time>
      </trkpt>
      <trkpt lat="44.89238" lon="5.23435">
        <ele>1302</ele>
        <time>2024-07-02T08:23:14Z</time>
      </trkpt>
      <trkpt lat="44.89236" lon="5.23434">
        <ele>1302</ele>
        <time>2024-07-02T08:23:15Z</time>
      </trkpt>
      <trkpt lat="44.89235" lon="5.23434">
        <ele>1301.9</ele>
        <time>2024-07-02T08:23:16Z</time>
      </trkpt>
      <trkpt lat="44.89234" lon="5.23434">
        <ele>1301.8</ele>
        <time>2024-07-02T08:23:17Z</time>
      </trkpt>
      <trkpt lat="44.89232" lon="5.23434">
        <ele>1301.8</ele>
        <time>2024-07-02T08:23:18Z</time>
      </trkpt>
      <trkpt lat="44.89231" lon="5.23434">
        <ele>1301.7</ele>
        <time>2024-07-02T08:23:19Z</time>
      </trkpt>
      <trkpt lat="44.8923" lon="5.23435">
        <ele>1301.6</ele>
        <time>2024-07-02T08:23:20Z</time>
      </trkpt>
      <trkpt lat="44.89229" lon="5.23434">
        <ele>1301.6</ele>
        <time>2024-07-02T08:23:21Z</time>
      </trkpt>
      <trkpt lat="44.89227" lon="5.23435">
        <ele>1301.5</ele>
        <time>2024-07-02T08:23:22Z</time>
      </trkpt>
      <trkpt lat="44.89226" lon="5.23435">
        <ele>1301.4</ele>
        <time>2024-07-02T08:23:23Z</time>
      </trkpt>
      <trkpt lat="44.89225" lon="5.23435">
        <ele>1301.4</ele>
        <time>2024-07-02T08:23:24Z</time>
      </trkpt>
      <trkpt lat="44.89223" lon="5.23434">
        <ele>1301.3</ele>
        <time>2024-07-02T08:23:25Z</time>
      </trkpt>
      <trkpt lat="44.89222" lon="5.23434">
        <ele>1301.2</ele>
        <time>2024-07-02T08:23:26Z</time>
      </trkpt>
      <trkpt lat="44.89221" lon="5.23434">
        <ele>1301.2</ele>
        <time>2024-07-02T08:23:27Z</time>
      </trkpt>
      <trkpt lat="44.89219" lon="5.23434">
        <ele>1301</ele>
        <time>2024-07-02T08:23:28Z</time>
      </trkpt>
      <trkpt lat="44.89218" lon="5.23434">
        <ele>1301</ele>
        <time>2024-07-02T08:23:29Z</time>
      </trkpt>
      <trkpt lat="44.89217" lon="5.23434">
        <ele>1301</ele>
        <time>2024-07-02T08:23:30Z</time>
      </trkpt>
      <trkpt lat="44.89215" lon="5.23434">
        <ele>1300.8</ele>
        <time>2024-07-02T08:23:31Z</time>
      </trkpt>
      <trkpt lat="44.89215" lon="5.23435">
        <ele>1300.8</ele>
        <time>2024-07-02T08:23:32Z</time>
      </trkpt>
      <trkpt lat="44.89214" lon="5.23435">
        <ele>1300.7</ele>
        <time>2024-07-02T08:23:33Z</time>
      </trkpt>
      <trkpt lat="44.89213" lon="5.23435">
        <ele>1300.7</ele>
        <time>2024-07-02T08:23:34Z</time>
      </trkpt>
      <trkpt lat="44.89211" lon="5.23436">
        <ele>1300.6</ele>
        <time>2024-07-02T08:23:35Z</time>
      </trkpt>
      <trkpt lat="44.8921" lon="5.23437">
        <ele>1300.5</ele>
        <time>2024-07-02T08:23:36Z</time>
      </trkpt>
      <trkpt lat="44.89208" lon="5.23437">
        <ele>1300.4</ele>
        <time>2024-07-02T08:23:37Z</time>
      </trkpt>
      <trkpt lat="44.89208" lon="5.23437">
        <ele>1300.4</ele>
        <time>2024-07-02T08:23:38Z</time>
      </trkpt>
      <trkpt lat="44.89207" lon="5.23437">
        <ele>1300.3</ele>
        <time>2024-07-02T08:23:39Z</time>
      </trkpt>
      <trkpt lat="44.89205" lon="5.23437">
        <ele>1300.2</ele>
        <time>2024-07-02T08:23:40Z</time>
      </trkpt>
      <trkpt lat="44.89204" lon="5.23437">
        <ele>1300.2</ele>
        <time>2024-07-02T08:23:41Z</time>
      </trkpt>
      <trkpt lat="44.89204" lon="5.23438">
        <ele>1300.1</ele>
        <time>2024-07-02T08:23:42Z</time>
      </trkpt>
      <trkpt lat="44.89203" lon="5.23438">
        <ele>1300.1</ele>
        <time>2024-07-02T08:23:43Z</time>
      </trkpt>
      <trkpt lat="44.89201" lon="5.23438">
        <ele>1300</ele>
        <time>2024-07-02T08:23:44Z</time>
      </trkpt>
      <trkpt lat="44.892" lon="5.23438">
        <ele>1299.9</ele>
        <time>2024-07-02T08:23:45Z</time>
      </trkpt>
      <trkpt lat="44.89198" lon="5.23438">
        <ele>1299.8</ele>
        <time>2024-07-02T08:23:46Z</time>
      </trkpt>
      <trkpt lat="44.89197" lon="5.23439">
        <ele>1299.7</ele>
        <time>2024-07-02T08:23:47Z</time>
      </trkpt>
      <trkpt lat="44.89196" lon="5.23439">
        <ele>1299.7</ele>
        <time>2024-07-02T08:23:48Z</time>
      </trkpt>
      <trkpt lat="44.89194" lon="5.23439">
        <ele>1299.5</ele>
        <time>2024-07-02T08:23:49Z</time>
      </trkpt>
      <trkpt lat="44.89193" lon="5.23439">
        <ele>1299.5</ele>
        <time>2024-07-02T08:23:50Z</time>
      </trkpt>
      <trkpt lat="44.89192" lon="5.2344">
        <ele>1299.4</ele>
        <time>2024-07-02T08:23:51Z</time>
      </trkpt>
      <trkpt lat="44.8919" lon="5.2344">
        <ele>1299.3</ele>
        <time>2024-07-02T08:23:52Z</time>
      </trkpt>
      <trkpt lat="44.89189" lon="5.2344">
        <ele>1299.2</ele>
        <time>2024-07-02T08:23:53Z</time>
      </trkpt>
      <trkpt lat="44.89189" lon="5.2344">
        <ele>1299.2</ele>
        <time>2024-07-02T08:23:54Z</time>
      </trkpt>
      <trkpt lat="44.89187" lon="5.23441">
        <ele>1299</ele>
        <time>2024-07-02T08:23:55Z</time>
      </trkpt>
      <trkpt lat="44.89186" lon="5.23441">
        <ele>1299</ele>
        <time>2024-07-02T08:23:56Z</time>
      </trkpt>
      <trkpt lat="44.89185" lon="5.23442">
        <ele>1298.9</ele>
        <time>2024-07-02T08:23:57Z</time>
      </trkpt>
      <trkpt lat="44.89185" lon="5.23442">
        <ele>1298.9</ele>
        <time>2024-07-02T08:23:58Z</time>
      </trkpt>
      <trkpt lat="44.89185" lon="5.23442">
        <ele>1298.9</ele>
        <time>2024-07-02T08:23:59Z</time>
      </trkpt>
      <trkpt lat="44.89186" lon="5.23442">
        <ele>1298.8</ele>
        <time>2024-07-02T08:24:00Z</time>
      </trkpt>
      <trkpt lat="44.89186" lon="5.23442">
        <ele>1298.8</ele>
        <time>2024-07-02T08:24:01Z</time>
      </trkpt>
      <trkpt lat="44.89186" lon="5.23441">
        <ele>1298.8</ele>
        <time>2024-07-02T08:24:02Z</time>
      </trkpt>
      <trkpt lat="44.89186" lon="5.23441">
        <ele>1298.8</ele>
        <time>2024-07-02T08:24:03Z</time>
      </trkpt>
      <trkpt lat="44.89187" lon="5.23441">
        <ele>1298.8</ele>
        <time>2024-07-02T08:24:04Z</time>
      </trkpt>
      <trkpt lat="44.89187" lon="5.23441">
        <ele>1298.8</ele>
        <time>2024-07-02T08:24:05Z</time>
      </trkpt>
      <trkpt lat="44.89187" lon="5.23441">
        <ele>1298.8</ele>
        <time>2024-07-02T08:24:06Z</time>
      </trkpt>
      <trkpt lat="44.89187" lon="5.23441">
        <ele>1298.8</ele>
        <time>2024-07-02T08:24:07Z</time>
      </trkpt>
      <trkpt lat="44.89187" lon="5.23441">
        <ele>1298.8</ele>
        <time>2024-07-02T08:24:08Z</time>
      </trkpt>
      <trkpt lat="44.89187" lon="5.23441">
        <ele>1298.8</ele>
        <time>2024-07-02T08:24:09Z</time>
      </trkpt>
      <trkpt lat="44.89187" lon="5.23441">
        <ele>1298.7</ele>
        <time>2024-07-02T08:24:10Z</time>
      </trkpt>
      <trkpt lat="44.89187" lon="5.23441">
        <ele>1298.7</ele>
        <time>2024-07-02T08:24:11Z</time>
      </trkpt>
      <trkpt lat="44.89187" lon="5.23441">
        <ele>1298.7</ele>
        <time>2024-07-02T08:24:12Z</time>
      </trkpt>
      <trkpt lat="44.89187" lon="5.23441">
        <ele>1298.7</ele>
        <time>2024-07-02T08:24:13Z</time>
      </trkpt>
      <trkpt lat="44.89187" lon="5.23441">
        <ele>1298.7</ele>
        <time>2024-07-02T08:24:14Z</time>
      </trkpt>
      <trkpt lat="44.89186" lon="5.23441">
        <ele>1298.7</ele>
        <time>2024-07-02T08:24:15Z</time>
      </trkpt>
      <trkpt lat="44.89186" lon="5.2344">
        <ele>1298.7</ele>
        <time>2024-07-02T08:24:16Z</time>
      </trkpt>
      <trkpt lat="44.89184" lon="5.23441">
        <ele>1298.5</ele>
        <time>2024-07-02T08:24:17Z</time>
      </trkpt>
      <trkpt lat="44.89183" lon="5.23441">
        <ele>1298.5</ele>
        <time>2024-07-02T08:24:18Z</time>
      </trkpt>
      <trkpt lat="44.89182" lon="5.23441">
        <ele>1298.4</ele>
        <time>2024-07-02T08:24:19Z</time>
      </trkpt>
      <trkpt lat="44.89183" lon="5.23441">
        <ele>1298.2</ele>
        <time>2024-07-02T08:24:20Z</time>
      </trkpt>
      <trkpt lat="44.89182" lon="5.23442">
        <ele>1298.1</ele>
        <time>2024-07-02T08:24:21Z</time>
      </trkpt>
      <trkpt lat="44.8918" lon="5.23443">
        <ele>1298</ele>
        <time>2024-07-02T08:24:22Z</time>
      </trkpt>
      <trkpt lat="44.89179" lon="5.23443">
        <ele>1297.9</ele>
        <time>2024-07-02T08:24:23Z</time>
      </trkpt>
      <trkpt lat="44.89177" lon="5.23444">
        <ele>1297.7</ele>
        <time>2024-07-02T08:24:24Z</time>
      </trkpt>
      <trkpt lat="44.89175" lon="5.23444">
        <ele>1297.6</ele>
        <time>2024-07-02T08:24:25Z</time>
      </trkpt>
      <trkpt lat="44.89174" lon="5.23443">
        <ele>1297.5</ele>
        <time>2024-07-02T08:24:26Z</time>
      </trkpt>
      <trkpt lat="44.89172" lon="5.23443">
        <ele>1297.4</ele>
        <time>2024-07-02T08:24:27Z</time>
      </trkpt>
      <trkpt lat="44.89171" lon="5.23444">
        <ele>1297.3</ele>
        <time>2024-07-02T08:24:28Z</time>
      </trkpt>
      <trkpt lat="44.8917" lon="5.23444">
        <ele>1297.2</ele>
        <time>2024-07-02T08:24:29Z</time>
      </trkpt>
      <trkpt lat="44.89168" lon="5.23445">
        <ele>1297</ele>
        <time>2024-07-02T08:24:30Z</time>
      </trkpt>
      <trkpt lat="44.89167" lon="5.23445">
        <ele>1297</ele>
        <time>2024-07-02T08:24:31Z</time>
      </trkpt>
      <trkpt lat="44.89166" lon="5.23445">
        <ele>1296.9</ele>
        <time>2024-07-02T08:24:32Z</time>
      </trkpt>
      <trkpt lat="44.89164" lon="5.23446">
        <ele>1296.8</ele>
        <time>2024-07-02T08:24:33Z</time>
      </trkpt>
      <trkpt lat="44.89163" lon="5.23446">
        <ele>1296.7</ele>
        <time>2024-07-02T08:24:34Z</time>
      </trkpt>
      <trkpt lat="44.89163" lon="5.23446">
        <ele>1296.6</ele>
        <time>2024-07-02T08:24:35Z</time>
      </trkpt>
      <trkpt lat="44.89162" lon="5.23446">
        <ele>1296.6</ele>
        <time>2024-07-02T08:24:36Z</time>
      </trkpt>
      <trkpt lat="44.89161" lon="5.23446">
        <ele>1296.5</ele>
        <time>2024-07-02T08:24:37Z</time>
      </trkpt>
      <trkpt lat="44.89159" lon="5.23446">
        <ele>1296.4</ele>
        <time>2024-07-02T08:24:38Z</time>
      </trkpt>
      <trkpt lat="44.89158" lon="5.23445">
        <ele>1296.3</ele>
        <time>2024-07-02T08:24:39Z</time>
      </trkpt>
      <trkpt lat="44.89158" lon="5.23443">
        <ele>1296.2</ele>
        <time>2024-07-02T08:24:40Z</time>
      </trkpt>
      <trkpt lat="44.89157" lon="5.23443">
        <ele>1296.1</ele>
        <time>2024-07-02T08:24:41Z</time>
      </trkpt>
      <trkpt lat="44.89155" lon="5.23443">
        <ele>1296</ele>
        <time>2024-07-02T08:24:42Z</time>
      </trkpt>
      <trkpt lat="44.89154" lon="5.23442">
        <ele>1295.9</ele>
        <time>2024-07-02T08:24:43Z</time>
      </trkpt>
      <trkpt lat="44.89153" lon="5.23441">
        <ele>1295.9</ele>
        <time>2024-07-02T08:24:44Z</time>
      </trkpt>
      <trkpt lat="44.89152" lon="5.2344">
        <ele>1295.8</ele>
        <time>2024-07-02T08:24:45Z</time>
      </trkpt>
      <trkpt lat="44.89152" lon="5.23438">
        <ele>1295.7</ele>
        <time>2024-07-02T08:24:46Z</time>
      </trkpt>
      <trkpt lat="44.89151" lon="5.23436">
        <ele>1295.6</ele>
        <time>2024-07-02T08:24:47Z</time>
      </trkpt>
      <trkpt lat="44.89151" lon="5.23434">
        <ele>1295.5</ele>
        <time>2024-07-02T08:24:48Z</time>
      </trkpt>
      <trkpt lat="44.89151" lon="5.23433">
        <ele>1295.4</ele>
        <time>2024-07-02T08:24:49Z</time>
      </trkpt>
      <trkpt lat="44.89151" lon="5.23432">
        <ele>1295.4</ele>
        <time>2024-07-02T08:24:50Z</time>
      </trkpt>
      <trkpt lat="44.8915" lon="5.23431">
        <ele>1295.4</ele>
        <time>2024-07-02T08:24:51Z</time>
      </trkpt>
      <trkpt lat="44.8915" lon="5.23431">
        <ele>1295.3</ele>
        <time>2024-07-02T08:24:52Z</time>
      </trkpt>
      <trkpt lat="44.89149" lon="5.2343">
        <ele>1295.3</ele>
        <time>2024-07-02T08:24:53Z</time>
      </trkpt>
      <trkpt lat="44.89149" lon="5.23429">
        <ele>1295.2</ele>
        <time>2024-07-02T08:24:54Z</time>
      </trkpt>
      <trkpt lat="44.89148" lon="5.23428">
        <ele>1295.2</ele>
        <time>2024-07-02T08:24:55Z</time>
      </trkpt>
      <trkpt lat="44.89148" lon="5.23427">
        <ele>1295.2</ele>
        <time>2024-07-02T08:24:56Z</time>
      </trkpt>
      <trkpt lat="44.89148" lon="5.23426">
        <ele>1295.1</ele>
        <time>2024-07-02T08:24:57Z</time>
      </trkpt>
      <trkpt lat="44.89147" lon="5.23425">
        <ele>1295</ele>
        <time>2024-07-02T08:24:58Z</time>
      </trkpt>
      <trkpt lat="44.89146" lon="5.23425">
        <ele>1295</ele>
        <time>2024-07-02T08:24:59Z</time>
      </trkpt>
      <trkpt lat="44.89145" lon="5.23425">
        <ele>1294.9</ele>
        <time>2024-07-02T08:25:00Z</time>
      </trkpt>
      <trkpt lat="44.89145" lon="5.23424">
        <ele>1294.9</ele>
        <time>2024-07-02T08:25:01Z</time>
      </trkpt>
      <trkpt lat="44.89143" lon="5.23424">
        <ele>1294.8</ele>
        <time>2024-07-02T08:25:02Z</time>
      </trkpt>
      <trkpt lat="44.89142" lon="5.23424">
        <ele>1294.7</ele>
        <time>2024-07-02T08:25:03Z</time>
      </trkpt>
      <trkpt lat="44.89141" lon="5.23424">
        <ele>1294.7</ele>
        <time>2024-07-02T08:25:04Z</time>
      </trkpt>
      <trkpt lat="44.8914" lon="5.23424">
        <ele>1294.6</ele>
        <time>2024-07-02T08:25:05Z</time>
      </trkpt>
      <trkpt lat="44.89138" lon="5.23424">
        <ele>1294.5</ele>
        <time>2024-07-02T08:25:06Z</time>
      </trkpt>
      <trkpt lat="44.89137" lon="5.23424">
        <ele>1294.4</ele>
        <time>2024-07-02T08:25:07Z</time>
      </trkpt>
      <trkpt lat="44.89136" lon="5.23424">
        <ele>1294.4</ele>
        <time>2024-07-02T08:25:08Z</time>
      </trkpt>
      <trkpt lat="44.89135" lon="5.23425">
        <ele>1294.3</ele>
        <time>2024-07-02T08:25:09Z</time>
      </trkpt>
      <trkpt lat="44.89133" lon="5.23427">
        <ele>1294.2</ele>
        <time>2024-07-02T08:25:10Z</time>
      </trkpt>
      <trkpt lat="44.89132" lon="5.23428">
        <ele>1294.1</ele>
        <time>2024-07-02T08:25:11Z</time>
      </trkpt>
      <trkpt lat="44.8913" lon="5.2343">
        <ele>1294</ele>
        <time>2024-07-02T08:25:12Z</time>
      </trkpt>
      <trkpt lat="44.89129" lon="5.23431">
        <ele>1293.9</ele>
        <time>2024-07-02T08:25:13Z</time>
      </trkpt>
      <trkpt lat="44.89127" lon="5.23432">
        <ele>1293.8</ele>
        <time>2024-07-02T08:25:14Z</time>
      </trkpt>
      <trkpt lat="44.89126" lon="5.23433">
        <ele>1293.7</ele>
        <time>2024-07-02T08:25:15Z</time>
      </trkpt>
      <trkpt lat="44.89124" lon="5.23434">
        <ele>1293.6</ele>
        <time>2024-07-02T08:25:16Z</time>
      </trkpt>
      <trkpt lat="44.89123" lon="5.23435">
        <ele>1293.5</ele>
        <time>2024-07-02T08:25:17Z</time>
      </trkpt>
      <trkpt lat="44.89122" lon="5.23435">
        <ele>1293.4</ele>
        <time>2024-07-02T08:25:18Z</time>
      </trkpt>
      <trkpt lat="44.89121" lon="5.23436">
        <ele>1293.4</ele>
        <time>2024-07-02T08:25:19Z</time>
      </trkpt>
      <trkpt lat="44.89119" lon="5.23437">
        <ele>1293.3</ele>
        <time>2024-07-02T08:25:20Z</time>
      </trkpt>
      <trkpt lat="44.89118" lon="5.23437">
        <ele>1293.2</ele>
        <time>2024-07-02T08:25:21Z</time>
      </trkpt>
      <trkpt lat="44.89117" lon="5.23438">
        <ele>1293.2</ele>
        <time>2024-07-02T08:25:22Z</time>
      </trkpt>
      <trkpt lat="44.89116" lon="5.23439">
        <ele>1293.1</ele>
        <time>2024-07-02T08:25:23Z</time>
      </trkpt>
      <trkpt lat="44.89114" lon="5.2344">
        <ele>1293</ele>
        <time>2024-07-02T08:25:24Z</time>
      </trkpt>
      <trkpt lat="44.89113" lon="5.23441">
        <ele>1292.9</ele>
        <time>2024-07-02T08:25:25Z</time>
      </trkpt>
      <trkpt lat="44.89111" lon="5.23442">
        <ele>1292.8</ele>
        <time>2024-07-02T08:25:26Z</time>
      </trkpt>
      <trkpt lat="44.8911" lon="5.23442">
        <ele>1292.8</ele>
        <time>2024-07-02T08:25:27Z</time>
      </trkpt>
      <trkpt lat="44.89109" lon="5.23443">
        <ele>1292.7</ele>
        <time>2024-07-02T08:25:28Z</time>
      </trkpt>
      <trkpt lat="44.89107" lon="5.23443">
        <ele>1292.6</ele>
        <time>2024-07-02T08:25:29Z</time>
      </trkpt>
      <trkpt lat="44.89106" lon="5.23444">
        <ele>1292.6</ele>
        <time>2024-07-02T08:25:30Z</time>
      </trkpt>
      <trkpt lat="44.89105" lon="5.23444">
        <ele>1292.5</ele>
        <time>2024-07-02T08:25:31Z</time>
      </trkpt>
      <trkpt lat="44.89103" lon="5.23445">
        <ele>1292.5</ele>
        <time>2024-07-02T08:25:32Z</time>
      </trkpt>
      <trkpt lat="44.89102" lon="5.23446">
        <ele>1292.4</ele>
        <time>2024-07-02T08:25:33Z</time>
      </trkpt>
      <trkpt lat="44.89102" lon="5.23446">
        <ele>1292.4</ele>
        <time>2024-07-02T08:25:34Z</time>
      </trkpt>
      <trkpt lat="44.891" lon="5.23448">
        <ele>1292.3</ele>
        <time>2024-07-02T08:25:35Z</time>
      </trkpt>
      <trkpt lat="44.89099" lon="5.23448">
        <ele>1292.3</ele>
        <time>2024-07-02T08:25:36Z</time>
      </trkpt>
      <trkpt lat="44.89098" lon="5.23449">
        <ele>1292.2</ele>
        <time>2024-07-02T08:25:37Z</time>
      </trkpt>
      <trkpt lat="44.89097" lon="5.23451">
        <ele>1292.2</ele>
        <time>2024-07-02T08:25:38Z</time>
      </trkpt>
      <trkpt lat="44.89096" lon="5.23452">
        <ele>1292.1</ele>
        <time>2024-07-02T08:25:39Z</time>
      </trkpt>
      <trkpt lat="44.89095" lon="5.23453">
        <ele>1292.1</ele>
        <time>2024-07-02T08:25:40Z</time>
      </trkpt>
      <trkpt lat="44.89095" lon="5.23453">
        <ele>1292.1</ele>
        <time>2024-07-02T08:25:41Z</time>
      </trkpt>
      <trkpt lat="44.89094" lon="5.23454">
        <ele>1292</ele>
        <time>2024-07-02T08:25:42Z</time>
      </trkpt>
      <trkpt lat="44.89093" lon="5.23456">
        <ele>1292</ele>
        <time>2024-07-02T08:25:43Z</time>
      </trkpt>
      <trkpt lat="44.89091" lon="5.23457">
        <ele>1291.9</ele>
        <time>2024-07-02T08:25:44Z</time>
      </trkpt>
      <trkpt lat="44.8909" lon="5.23458">
        <ele>1291.9</ele>
        <time>2024-07-02T08:25:45Z</time>
      </trkpt>
      <trkpt lat="44.89089" lon="5.23459">
        <ele>1291.9</ele>
        <time>2024-07-02T08:25:46Z</time>
      </trkpt>
      <trkpt lat="44.89088" lon="5.2346">
        <ele>1291.8</ele>
        <time>2024-07-02T08:25:47Z</time>
      </trkpt>
      <trkpt lat="44.89087" lon="5.2346">
        <ele>1291.8</ele>
        <time>2024-07-02T08:25:48Z</time>
      </trkpt>
      <trkpt lat="44.89086" lon="5.23461">
        <ele>1291.8</ele>
        <time>2024-07-02T08:25:49Z</time>
      </trkpt>
      <trkpt lat="44.89085" lon="5.23462">
        <ele>1291.8</ele>
        <time>2024-07-02T08:25:50Z</time>
      </trkpt>
      <trkpt lat="44.89084" lon="5.23462">
        <ele>1291.7</ele>
        <time>2024-07-02T08:25:51Z</time>
      </trkpt>
      <trkpt lat="44.89083" lon="5.23463">
        <ele>1291.7</ele>
        <time>2024-07-02T08:25:52Z</time>
      </trkpt>
      <trkpt lat="44.89082" lon="5.23464">
        <ele>1291.7</ele>
        <time>2024-07-02T08:25:53Z</time>
      </trkpt>
      <trkpt lat="44.89082" lon="5.23465">
        <ele>1291.7</ele>
        <time>2024-07-02T08:25:54Z</time>
      </trkpt>
      <trkpt lat="44.89082" lon="5.23466">
        <ele>1291.7</ele>
        <time>2024-07-02T08:25:55Z</time>
      </trkpt>
      <trkpt lat="44.89081" lon="5.23467">
        <ele>1291.7</ele>
        <time>2024-07-02T08:25:56Z</time>
      </trkpt>
      <trkpt lat="44.89079" lon="5.23467">
        <ele>1291.6</ele>
        <time>2024-07-02T08:25:57Z</time>
      </trkpt>
      <trkpt lat="44.89079" lon="5.23468">
        <ele>1291.6</ele>
        <time>2024-07-02T08:25:58Z</time>
      </trkpt>
      <trkpt lat="44.89078" lon="5.23468">
        <ele>1291.6</ele>
        <time>2024-07-02T08:25:59Z</time>
      </trkpt>
      <trkpt lat="44.89076" lon="5.23468">
        <ele>1291.5</ele>
        <time>2024-07-02T08:26:00Z</time>
      </trkpt>
      <trkpt lat="44.89075" lon="5.23468">
        <ele>1291.5</ele>
        <time>2024-07-02T08:26:01Z</time>
      </trkpt>
      <trkpt lat="44.89073" lon="5.23469">
        <ele>1291.5</ele>
        <time>2024-07-02T08:26:02Z</time>
      </trkpt>
      <trkpt lat="44.89072" lon="5.23469">
        <ele>1291.4</ele>
        <time>2024-07-02T08:26:03Z</time>
      </trkpt>
      <trkpt lat="44.89071" lon="5.23469">
        <ele>1291.4</ele>
        <time>2024-07-02T08:26:04Z</time>
      </trkpt>
      <trkpt lat="44.8907" lon="5.2347">
        <ele>1291.4</ele>
        <time>2024-07-02T08:26:05Z</time>
      </trkpt>
      <trkpt lat="44.89069" lon="5.2347">
        <ele>1291.4</ele>
        <time>2024-07-02T08:26:06Z</time>
      </trkpt>
      <trkpt lat="44.89068" lon="5.2347">
        <ele>1291.3</ele>
        <time>2024-07-02T08:26:07Z</time>
      </trkpt>
      <trkpt lat="44.89067" lon="5.2347">
        <ele>1291.3</ele>
        <time>2024-07-02T08:26:08Z</time>
      </trkpt>
      <trkpt lat="44.89066" lon="5.2347">
        <ele>1291.3</ele>
        <time>2024-07-02T08:26:09Z</time>
      </trkpt>
      <trkpt lat="44.89065" lon="5.2347">
        <ele>1291.2</ele>
        <time>2024-07-02T08:26:10Z</time>
      </trkpt>
      <trkpt lat="44.89064" lon="5.2347">
        <ele>1291.2</ele>
        <time>2024-07-02T08:26:11Z</time>
      </trkpt>
      <trkpt lat="44.89063" lon="5.2347">
        <ele>1291.1</ele>
        <time>2024-07-02T08:26:12Z</time>
      </trkpt>
      <trkpt lat="44.89062" lon="5.23469">
        <ele>1291.1</ele>
        <time>2024-07-02T08:26:13Z</time>
      </trkpt>
      <trkpt lat="44.89061" lon="5.23469">
        <ele>1291</ele>
        <time>2024-07-02T08:26:14Z</time>
      </trkpt>
      <trkpt lat="44.8906" lon="5.23469">
        <ele>1291</ele>
        <time>2024-07-02T08:26:15Z</time>
      </trkpt>
      <trkpt lat="44.89059" lon="5.23469">
        <ele>1290.9</ele>
        <time>2024-07-02T08:26:16Z</time>
      </trkpt>
      <trkpt lat="44.89058" lon="5.23469">
        <ele>1290.9</ele>
        <time>2024-07-02T08:26:17Z</time>
      </trkpt>
      <trkpt lat="44.89057" lon="5.23468">
        <ele>1290.8</ele>
        <time>2024-07-02T08:26:18Z</time>
      </trkpt>
      <trkpt lat="44.89056" lon="5.23468">
        <ele>1290.8</ele>
        <time>2024-07-02T08:26:19Z</time>
      </trkpt>
      <trkpt lat="44.89055" lon="5.23467">
        <ele>1290.7</ele>
        <time>2024-07-02T08:26:20Z</time>
      </trkpt>
      <trkpt lat="44.89054" lon="5.23467">
        <ele>1290.6</ele>
        <time>2024-07-02T08:26:21Z</time>
      </trkpt>
      <trkpt lat="44.89053" lon="5.23466">
        <ele>1290.6</ele>
        <time>2024-07-02T08:26:22Z</time>
      </trkpt>
      <trkpt lat="44.89052" lon="5.23465">
        <ele>1290.5</ele>
        <time>2024-07-02T08:26:23Z</time>
      </trkpt>
      <trkpt lat="44.89052" lon="5.23465">
        <ele>1290.4</ele>
        <time>2024-07-02T08:26:24Z</time>
      </trkpt>
      <trkpt lat="44.89051" lon="5.23464">
        <ele>1290.4</ele>
        <time>2024-07-02T08:26:25Z</time>
      </trkpt>
      <trkpt lat="44.89049" lon="5.23464">
        <ele>1290.3</ele>
        <time>2024-07-02T08:26:26Z</time>
      </trkpt>
      <trkpt lat="44.89048" lon="5.23464">
        <ele>1290.2</ele>
        <time>2024-07-02T08:26:27Z</time>
      </trkpt>
      <trkpt lat="44.89047" lon="5.23465">
        <ele>1290.1</ele>
        <time>2024-07-02T08:26:28Z</time>
      </trkpt>
      <trkpt lat="44.89046" lon="5.23465">
        <ele>1290</ele>
        <time>2024-07-02T08:26:29Z</time>
      </trkpt>
      <trkpt lat="44.89045" lon="5.23465">
        <ele>1289.9</ele>
        <time>2024-07-02T08:26:30Z</time>
      </trkpt>
      <trkpt lat="44.89044" lon="5.23465">
        <ele>1289.9</ele>
        <time>2024-07-02T08:26:31Z</time>
      </trkpt>
      <trkpt lat="44.89043" lon="5.23466">
        <ele>1289.8</ele>
        <time>2024-07-02T08:26:32Z</time>
      </trkpt>
      <trkpt lat="44.89042" lon="5.23466">
        <ele>1289.7</ele>
        <time>2024-07-02T08:26:33Z</time>
      </trkpt>
      <trkpt lat="44.89041" lon="5.23467">
        <ele>1289.6</ele>
        <time>2024-07-02T08:26:34Z</time>
      </trkpt>
      <trkpt lat="44.8904" lon="5.23467">
        <ele>1289.5</ele>
        <time>2024-07-02T08:26:35Z</time>
      </trkpt>
      <trkpt lat="44.89039" lon="5.23468">
        <ele>1289.5</ele>
        <time>2024-07-02T08:26:36Z</time>
      </trkpt>
      <trkpt lat="44.89038" lon="5.23469">
        <ele>1289.4</ele>
        <time>2024-07-02T08:26:37Z</time>
      </trkpt>
      <trkpt lat="44.89037" lon="5.23469">
        <ele>1289.3</ele>
        <time>2024-07-02T08:26:38Z</time>
      </trkpt>
      <trkpt lat="44.89036" lon="5.23469">
        <ele>1289.2</ele>
        <time>2024-07-02T08:26:39Z</time>
      </trkpt>
      <trkpt lat="44.89036" lon="5.2347">
        <ele>1289.2</ele>
        <time>2024-07-02T08:26:40Z</time>
      </trkpt>
      <trkpt lat="44.89035" lon="5.2347">
        <ele>1289.1</ele>
        <time>2024-07-02T08:26:41Z</time>
      </trkpt>
      <trkpt lat="44.89034" lon="5.2347">
        <ele>1289</ele>
        <time>2024-07-02T08:26:42Z</time>
      </trkpt>
      <trkpt lat="44.89033" lon="5.23471">
        <ele>1289</ele>
        <time>2024-07-02T08:26:43Z</time>
      </trkpt>
      <trkpt lat="44.89032" lon="5.23471">
        <ele>1288.9</ele>
        <time>2024-07-02T08:26:44Z</time>
      </trkpt>
      <trkpt lat="44.89031" lon="5.23471">
        <ele>1288.8</ele>
        <time>2024-07-02T08:26:45Z</time>
      </trkpt>
      <trkpt lat="44.8903" lon="5.23471">
        <ele>1288.7</ele>
        <time>2024-07-02T08:26:46Z</time>
      </trkpt>
      <trkpt lat="44.89029" lon="5.23471">
        <ele>1288.7</ele>
        <time>2024-07-02T08:26:47Z</time>
      </trkpt>
      <trkpt lat="44.89027" lon="5.23471">
        <ele>1288.6</ele>
        <time>2024-07-02T08:26:48Z</time>
      </trkpt>
      <trkpt lat="44.89026" lon="5.2347">
        <ele>1288.5</ele>
        <time>2024-07-02T08:26:49Z</time>
      </trkpt>
      <trkpt lat="44.89025" lon="5.2347">
        <ele>1288.4</ele>
        <time>2024-07-02T08:26:50Z</time>
      </trkpt>
      <trkpt lat="44.89024" lon="5.2347">
        <ele>1288.3</ele>
        <time>2024-07-02T08:26:51Z</time>
      </trkpt>
      <trkpt lat="44.89023" lon="5.23469">
        <ele>1288.3</ele>
        <time>2024-07-02T08:26:52Z</time>
      </trkpt>
      <trkpt lat="44.89021" lon="5.23468">
        <ele>1288.1</ele>
        <time>2024-07-02T08:26:53Z</time>
      </trkpt>
      <trkpt lat="44.8902" lon="5.23468">
        <ele>1288.1</ele>
        <time>2024-07-02T08:26:54Z</time>
      </trkpt>
      <trkpt lat="44.89019" lon="5.23467">
        <ele>1288</ele>
        <time>2024-07-02T08:26:55Z</time>
      </trkpt>
      <trkpt lat="44.89018" lon="5.23466">
        <ele>1288</ele>
        <time>2024-07-02T08:26:56Z</time>
      </trkpt>
      <trkpt lat="44.89017" lon="5.23465">
        <ele>1287.9</ele>
        <time>2024-07-02T08:26:57Z</time>
      </trkpt>
      <trkpt lat="44.89015" lon="5.23464">
        <ele>1287.8</ele>
        <time>2024-07-02T08:26:58Z</time>
      </trkpt>
      <trkpt lat="44.89014" lon="5.23463">
        <ele>1287.7</ele>
        <time>2024-07-02T08:26:59Z</time>
      </trkpt>
      <trkpt lat="44.89013" lon="5.23463">
        <ele>1287.7</ele>
        <time>2024-07-02T08:27:00Z</time>
      </trkpt>
      <trkpt lat="44.89011" lon="5.23461">
        <ele>1287.6</ele>
        <time>2024-07-02T08:27:01Z</time>
      </trkpt>
      <trkpt lat="44.89011" lon="5.23461">
        <ele>1287.5</ele>
        <time>2024-07-02T08:27:02Z</time>
      </trkpt>
      <trkpt lat="44.8901" lon="5.2346">
        <ele>1287.5</ele>
        <time>2024-07-02T08:27:03Z</time>
      </trkpt>
      <trkpt lat="44.89008" lon="5.23459">
        <ele>1287.4</ele>
        <time>2024-07-02T08:27:04Z</time>
      </trkpt>
      <trkpt lat="44.89007" lon="5.23459">
        <ele>1287.3</ele>
        <time>2024-07-02T08:27:05Z</time>
      </trkpt>
      <trkpt lat="44.89006" lon="5.23458">
        <ele>1287.3</ele>
        <time>2024-07-02T08:27:06Z</time>
      </trkpt>
      <trkpt lat="44.89004" lon="5.23458">
        <ele>1287.2</ele>
        <time>2024-07-02T08:27:07Z</time>
      </trkpt>
      <trkpt lat="44.89003" lon="5.23458">
        <ele>1287.2</ele>
        <time>2024-07-02T08:27:08Z</time>
      </trkpt>
      <trkpt lat="44.89002" lon="5.23457">
        <ele>1287.1</ele>
        <time>2024-07-02T08:27:09Z</time>
      </trkpt>
      <trkpt lat="44.89002" lon="5.23458">
        <ele>1287.1</ele>
        <time>2024-07-02T08:27:10Z</time>
      </trkpt>
      <trkpt lat="44.89001" lon="5.23458">
        <ele>1287.1</ele>
        <time>2024-07-02T08:27:11Z</time>
      </trkpt>
      <trkpt lat="44.89" lon="5.23458">
        <ele>1287</ele>
        <time>2024-07-02T08:27:12Z</time>
      </trkpt>
      <trkpt lat="44.88999" lon="5.23458">
        <ele>1287</ele>
        <time>2024-07-02T08:27:13Z</time>
      </trkpt>
      <trkpt lat="44.88998" lon="5.23458">
        <ele>1287</ele>
        <time>2024-07-02T08:27:14Z</time>
      </trkpt>
      <trkpt lat="44.88998" lon="5.23459">
        <ele>1286.9</ele>
        <time>2024-07-02T08:27:15Z</time>
      </trkpt>
      <trkpt lat="44.88997" lon="5.23458">
        <ele>1286.9</ele>
        <time>2024-07-02T08:27:16Z</time>
      </trkpt>
      <trkpt lat="44.88997" lon="5.23458">
        <ele>1286.9</ele>
        <time>2024-07-02T08:27:17Z</time>
      </trkpt>
      <trkpt lat="44.88996" lon="5.23458">
        <ele>1286.8</ele>
        <time>2024-07-02T08:27:18Z</time>
      </trkpt>
      <trkpt lat="44.88995" lon="5.23458">
        <ele>1286.8</ele>
        <time>2024-07-02T08:27:19Z</time>
      </trkpt>
      <trkpt lat="44.88995" lon="5.23458">
        <ele>1286.8</ele>
        <time>2024-07-02T08:27:20Z</time>
      </trkpt>
      <trkpt lat="44.88993" lon="5.23458">
        <ele>1286.7</ele>
        <time>2024-07-02T08:27:21Z</time>
      </trkpt>
      <trkpt lat="44.88993" lon="5.23458">
        <ele>1286.7</ele>
        <time>2024-07-02T08:27:22Z</time>
      </trkpt>
      <trkpt lat="44.88992" lon="5.23457">
        <ele>1286.7</ele>
        <time>2024-07-02T08:27:23Z</time>
      </trkpt>
      <trkpt lat="44.8899" lon="5.23457">
        <ele>1286.6</ele>
        <time>2024-07-02T08:27:24Z</time>
      </trkpt>
      <trkpt lat="44.8899" lon="5.23457">
        <ele>1286.6</ele>
        <time>2024-07-02T08:27:25Z</time>
      </trkpt>
      <trkpt lat="44.88988" lon="5.23457">
        <ele>1286.6</ele>
        <time>2024-07-02T08:27:26Z</time>
      </trkpt>
      <trkpt lat="44.88987" lon="5.23456">
        <ele>1286.5</ele>
        <time>2024-07-02T08:27:27Z</time>
      </trkpt>
      <trkpt lat="44.88986" lon="5.23455">
        <ele>1286.5</ele>
        <time>2024-07-02T08:27:28Z</time>
      </trkpt>
      <trkpt lat="44.88985" lon="5.23455">
        <ele>1286.4</ele>
        <time>2024-07-02T08:27:29Z</time>
      </trkpt>
      <trkpt lat="44.88985" lon="5.23454">
        <ele>1286.4</ele>
        <time>2024-07-02T08:27:30Z</time>
      </trkpt>
      <trkpt lat="44.88984" lon="5.23454">
        <ele>1286.4</ele>
        <time>2024-07-02T08:27:31Z</time>
      </trkpt>
      <trkpt lat="44.88983" lon="5.23452">
        <ele>1286.3</ele>
        <time>2024-07-02T08:27:32Z</time>
      </trkpt>
      <trkpt lat="44.88982" lon="5.23451">
        <ele>1286.3</ele>
        <time>2024-07-02T08:27:33Z</time>
      </trkpt>
      <trkpt lat="44.88981" lon="5.2345">
        <ele>1286.3</ele>
        <time>2024-07-02T08:27:34Z</time>
      </trkpt>
      <trkpt lat="44.8898" lon="5.23449">
        <ele>1286.2</ele>
        <time>2024-07-02T08:27:35Z</time>
      </trkpt>
      <trkpt lat="44.88979" lon="5.23448">
        <ele>1286.2</ele>
        <time>2024-07-02T08:27:36Z</time>
      </trkpt>
      <trkpt lat="44.88978" lon="5.23447">
        <ele>1286.1</ele>
        <time>2024-07-02T08:27:37Z</time>
      </trkpt>
      <trkpt lat="44.88977" lon="5.23447">
        <ele>1286.1</ele>
        <time>2024-07-02T08:27:38Z</time>
      </trkpt>
      <trkpt lat="44.88977" lon="5.23446">
        <ele>1286.1</ele>
        <time>2024-07-02T08:27:39Z</time>
      </trkpt>
      <trkpt lat="44.88976" lon="5.23447">
        <ele>1286.1</ele>
        <time>2024-07-02T08:27:40Z</time>
      </trkpt>
      <trkpt lat="44.88975" lon="5.23446">
        <ele>1286</ele>
        <time>2024-07-02T08:27:41Z</time>
      </trkpt>
      <trkpt lat="44.88974" lon="5.23448">
        <ele>1286</ele>
        <time>2024-07-02T08:27:42Z</time>
      </trkpt>
      <trkpt lat="44.88973" lon="5.23448">
        <ele>1285.9</ele>
        <time>2024-07-02T08:27:43Z</time>
      </trkpt>
      <trkpt lat="44.88971" lon="5.2345">
        <ele>1285.9</ele>
        <time>2024-07-02T08:27:44Z</time>
      </trkpt>
      <trkpt lat="44.8897" lon="5.2345">
        <ele>1285.8</ele>
        <time>2024-07-02T08:27:45Z</time>
      </trkpt>
      <trkpt lat="44.88968" lon="5.2345">
        <ele>1285.7</ele>
        <time>2024-07-02T08:27:46Z</time>
      </trkpt>
      <trkpt lat="44.88967" lon="5.23451">
        <ele>1285.7</ele>
        <time>2024-07-02T08:27:47Z</time>
      </trkpt>
      <trkpt lat="44.88966" lon="5.2345">
        <ele>1285.6</ele>
        <time>2024-07-02T08:27:48Z</time>
      </trkpt>
      <trkpt lat="44.88964" lon="5.2345">
        <ele>1285.6</ele>
        <time>2024-07-02T08:27:49Z</time>
      </trkpt>
      <trkpt lat="44.88962" lon="5.2345">
        <ele>1285.5</ele>
        <time>2024-07-02T08:27:50Z</time>
      </trkpt>
      <trkpt lat="44.8896" lon="5.23449">
        <ele>1285.5</ele>
        <time>2024-07-02T08:27:51Z</time>
      </trkpt>
      <trkpt lat="44.88959" lon="5.23449">
        <ele>1285.4</ele>
        <time>2024-07-02T08:27:52Z</time>
      </trkpt>
      <trkpt lat="44.88957" lon="5.23448">
        <ele>1285.4</ele>
        <time>2024-07-02T08:27:53Z</time>
      </trkpt>
      <trkpt lat="44.88956" lon="5.23448">
        <ele>1285.3</ele>
        <time>2024-07-02T08:27:54Z</time>
      </trkpt>
      <trkpt lat="44.88953" lon="5.23446">
        <ele>1285.3</ele>
        <time>2024-07-02T08:27:55Z</time>
      </trkpt>
      <trkpt lat="44.88952" lon="5.23446">
        <ele>1285.2</ele>
        <time>2024-07-02T08:27:56Z</time>
      </trkpt>
      <trkpt lat="44.8895" lon="5.23445">
        <ele>1285.2</ele>
        <time>2024-07-02T08:27:57Z</time>
      </trkpt>
      <trkpt lat="44.88949" lon="5.23445">
        <ele>1285.2</ele>
        <time>2024-07-02T08:27:58Z</time>
      </trkpt>
      <trkpt lat="44.88947" lon="5.23445">
        <ele>1285.2</ele>
        <time>2024-07-02T08:27:59Z</time>
      </trkpt>
      <trkpt lat="44.88946" lon="5.23444">
        <ele>1285.2</ele>
        <time>2024-07-02T08:28:00Z</time>
      </trkpt>
      <trkpt lat="44.88944" lon="5.23444">
        <ele>1285.1</ele>
        <time>2024-07-02T08:28:01Z</time>
      </trkpt>
      <trkpt lat="44.88943" lon="5.23444">
        <ele>1285.1</ele>
        <time>2024-07-02T08:28:02Z</time>
      </trkpt>
      <trkpt lat="44.8894" lon="5.23444">
        <ele>1285.1</ele>
        <time>2024-07-02T08:28:03Z</time>
      </trkpt>
      <trkpt lat="44.88939" lon="5.23444">
        <ele>1285.1</ele>
        <time>2024-07-02T08:28:04Z</time>
      </trkpt>
      <trkpt lat="44.88936" lon="5.23444">
        <ele>1285.1</ele>
        <time>2024-07-02T08:28:05Z</time>
      </trkpt>
      <trkpt lat="44.88935" lon="5.23444">
        <ele>1285.1</ele>
        <time>2024-07-02T08:28:06Z</time>
      </trkpt>
      <trkpt lat="44.88932" lon="5.23443">
        <ele>1285</ele>
        <time>2024-07-02T08:28:07Z</time>
      </trkpt>
      <trkpt lat="44.88931" lon="5.23443">
        <ele>1285</ele>
        <time>2024-07-02T08:28:08Z</time>
      </trkpt>
      <trkpt lat="44.88928" lon="5.23441">
        <ele>1285</ele>
        <time>2024-07-02T08:28:09Z</time>
      </trkpt>
      <trkpt lat="44.88928" lon="5.23441">
        <ele>1285</ele>
        <time>2024-07-02T08:28:10Z</time>
      </trkpt>
      <trkpt lat="44.88925" lon="5.23439">
        <ele>1285</ele>
        <time>2024-07-02T08:28:11Z</time>
      </trkpt>
      <trkpt lat="44.88924" lon="5.23438">
        <ele>1285</ele>
        <time>2024-07-02T08:28:12Z</time>
      </trkpt>
      <trkpt lat="44.88922" lon="5.23437">
        <ele>1285</ele>
        <time>2024-07-02T08:28:13Z</time>
      </trkpt>
      <trkpt lat="44.8892" lon="5.23437">
        <ele>1284.9</ele>
        <time>2024-07-02T08:28:14Z</time>
      </trkpt>
      <trkpt lat="44.88918" lon="5.23437">
        <ele>1284.9</ele>
        <time>2024-07-02T08:28:15Z</time>
      </trkpt>
      <trkpt lat="44.88917" lon="5.23438">
        <ele>1284.9</ele>
        <time>2024-07-02T08:28:16Z</time>
      </trkpt>
      <trkpt lat="44.88915" lon="5.23438">
        <ele>1284.9</ele>
        <time>2024-07-02T08:28:17Z</time>
      </trkpt>
      <trkpt lat="44.88914" lon="5.23439">
        <ele>1284.9</ele>
        <time>2024-07-02T08:28:18Z</time>
      </trkpt>
      <trkpt lat="44.88913" lon="5.23439">
        <ele>1284.9</ele>
        <time>2024-07-02T08:28:19Z</time>
      </trkpt>
      <trkpt lat="44.88911" lon="5.2344">
        <ele>1284.8</ele>
        <time>2024-07-02T08:28:20Z</time>
      </trkpt>
      <trkpt lat="44.8891" lon="5.2344">
        <ele>1284.8</ele>
        <time>2024-07-02T08:28:21Z</time>
      </trkpt>
      <trkpt lat="44.88909" lon="5.2344">
        <ele>1284.8</ele>
        <time>2024-07-02T08:28:22Z</time>
      </trkpt>
      <trkpt lat="44.88907" lon="5.23441">
        <ele>1284.8</ele>
        <time>2024-07-02T08:28:23Z</time>
      </trkpt>
      <trkpt lat="44.88907" lon="5.23442">
        <ele>1284.8</ele>
        <time>2024-07-02T08:28:24Z</time>
      </trkpt>
      <trkpt lat="44.88906" lon="5.23443">
        <ele>1284.7</ele>
        <time>2024-07-02T08:28:25Z</time>
      </trkpt>
      <trkpt lat="44.88904" lon="5.23444">
        <ele>1284.7</ele>
        <time>2024-07-02T08:28:26Z</time>
      </trkpt>
      <trkpt lat="44.88903" lon="5.23445">
        <ele>1284.7</ele>
        <time>2024-07-02T08:28:27Z</time>
      </trkpt>
      <trkpt lat="44.88903" lon="5.23445">
        <ele>1284.7</ele>
        <time>2024-07-02T08:28:28Z</time>
      </trkpt>
      <trkpt lat="44.88901" lon="5.23446">
        <ele>1284.7</ele>
        <time>2024-07-02T08:28:29Z</time>
      </trkpt>
      <trkpt lat="44.889" lon="5.23447">
        <ele>1284.6</ele>
        <time>2024-07-02T08:28:30Z</time>
      </trkpt>
      <trkpt lat="44.88899" lon="5.23447">
        <ele>1284.6</ele>
        <time>2024-07-02T08:28:31Z</time>
      </trkpt>
      <trkpt lat="44.88898" lon="5.23448">
        <ele>1284.6</ele>
        <time>2024-07-02T08:28:32Z</time>
      </trkpt>
      <trkpt lat="44.88897" lon="5.23448">
        <ele>1284.6</ele>
        <time>2024-07-02T08:28:33Z</time>
      </trkpt>
      <trkpt lat="44.88896" lon="5.23449">
        <ele>1284.6</ele>
        <time>2024-07-02T08:28:34Z</time>
      </trkpt>
      <trkpt lat="44.88894" lon="5.2345">
        <ele>1284.5</ele>
        <time>2024-07-02T08:28:35Z</time>
      </trkpt>
      <trkpt lat="44.88893" lon="5.2345">
        <ele>1284.5</ele>
        <time>2024-07-02T08:28:36Z</time>
      </trkpt>
      <trkpt lat="44.88892" lon="5.2345">
        <ele>1284.5</ele>
        <time>2024-07-02T08:28:37Z</time>
      </trkpt>
      <trkpt lat="44.88891" lon="5.23451">
        <ele>1284.5</ele>
        <time>2024-07-02T08:28:38Z</time>
      </trkpt>
      <trkpt lat="44.8889" lon="5.23451">
        <ele>1284.5</ele>
        <time>2024-07-02T08:28:39Z</time>
      </trkpt>
      <trkpt lat="44.88889" lon="5.23452">
        <ele>1284.5</ele>
        <time>2024-07-02T08:28:40Z</time>
      </trkpt>
      <trkpt lat="44.88887" lon="5.23453">
        <ele>1284.5</ele>
        <time>2024-07-02T08:28:41Z</time>
      </trkpt>
      <trkpt lat="44.88886" lon="5.23453">
        <ele>1284.4</ele>
        <time>2024-07-02T08:28:42Z</time>
      </trkpt>
      <trkpt lat="44.88886" lon="5.23453">
        <ele>1284.4</ele>
        <time>2024-07-02T08:28:43Z</time>
      </trkpt>
      <trkpt lat="44.88883" lon="5.23454">
        <ele>1284.4</ele>
        <time>2024-07-02T08:28:44Z</time>
      </trkpt>
      <trkpt lat="44.88883" lon="5.23455">
        <ele>1284.4</ele>
        <time>2024-07-02T08:28:45Z</time>
      </trkpt>
      <trkpt lat="44.88882" lon="5.23456">
        <ele>1284.4</ele>
        <time>2024-07-02T08:28:46Z</time>
      </trkpt>
      <trkpt lat="44.88881" lon="5.23456">
        <ele>1284.4</ele>
        <time>2024-07-02T08:28:47Z</time>
      </trkpt>
      <trkpt lat="44.8888" lon="5.23457">
        <ele>1284.4</ele>
        <time>2024-07-02T08:28:48Z</time>
      </trkpt>
      <trkpt lat="44.88879" lon="5.23457">
        <ele>1284.3</ele>
        <time>2024-07-02T08:28:49Z</time>
      </trkpt>
      <trkpt lat="44.88878" lon="5.23458">
        <ele>1284.3</ele>
        <time>2024-07-02T08:28:50Z</time>
      </trkpt>
      <trkpt lat="44.88877" lon="5.23458">
        <ele>1284.3</ele>
        <time>2024-07-02T08:28:51Z</time>
      </trkpt>
      <trkpt lat="44.88876" lon="5.23458">
        <ele>1284.3</ele>
        <time>2024-07-02T08:28:52Z</time>
      </trkpt>
      <trkpt lat="44.88874" lon="5.23459">
        <ele>1284.3</ele>
        <time>2024-07-02T08:28:53Z</time>
      </trkpt>
      <trkpt lat="44.88873" lon="5.23459">
        <ele>1284.3</ele>
        <time>2024-07-02T08:28:54Z</time>
      </trkpt>
      <trkpt lat="44.88872" lon="5.23459">
        <ele>1284.3</ele>
        <time>2024-07-02T08:28:55Z</time>
      </trkpt>
      <trkpt lat="44.88871" lon="5.2346">
        <ele>1284.2</ele>
        <time>2024-07-02T08:28:56Z</time>
      </trkpt>
      <trkpt lat="44.8887" lon="5.2346">
        <ele>1284.2</ele>
        <time>2024-07-02T08:28:57Z</time>
      </trkpt>
      <trkpt lat="44.88869" lon="5.23461">
        <ele>1284.2</ele>
        <time>2024-07-02T08:28:58Z</time>
      </trkpt>
      <trkpt lat="44.88867" lon="5.23461">
        <ele>1284.2</ele>
        <time>2024-07-02T08:28:59Z</time>
      </trkpt>
      <trkpt lat="44.88866" lon="5.23462">
        <ele>1284.2</ele>
        <time>2024-07-02T08:29:00Z</time>
      </trkpt>
      <trkpt lat="44.88865" lon="5.23462">
        <ele>1284.2</ele>
        <time>2024-07-02T08:29:01Z</time>
      </trkpt>
      <trkpt lat="44.88864" lon="5.23463">
        <ele>1284.1</ele>
        <time>2024-07-02T08:29:02Z</time>
      </trkpt>
      <trkpt lat="44.88863" lon="5.23463">
        <ele>1284.1</ele>
        <time>2024-07-02T08:29:03Z</time>
      </trkpt>
      <trkpt lat="44.88862" lon="5.23464">
        <ele>1284.1</ele>
        <time>2024-07-02T08:29:04Z</time>
      </trkpt>
      <trkpt lat="44.8886" lon="5.23465">
        <ele>1284.1</ele>
        <time>2024-07-02T08:29:05Z</time>
      </trkpt>
      <trkpt lat="44.88859" lon="5.23466">
        <ele>1284.1</ele>
        <time>2024-07-02T08:29:06Z</time>
      </trkpt>
      <trkpt lat="44.88858" lon="5.23466">
        <ele>1284.1</ele>
        <time>2024-07-02T08:29:07Z</time>
      </trkpt>
      <trkpt lat="44.88858" lon="5.23466">
        <ele>1284.1</ele>
        <time>2024-07-02T08:29:08Z</time>
      </trkpt>
      <trkpt lat="44.88856" lon="5.23467">
        <ele>1284.2</ele>
        <time>2024-07-02T08:29:09Z</time>
      </trkpt>
      <trkpt lat="44.88855" lon="5.23467">
        <ele>1284.2</ele>
        <time>2024-07-02T08:29:10Z</time>
      </trkpt>
      <trkpt lat="44.88853" lon="5.23468">
        <ele>1284.2</ele>
        <time>2024-07-02T08:29:11Z</time>
      </trkpt>
      <trkpt lat="44.88852" lon="5.23468">
        <ele>1284.2</ele>
        <time>2024-07-02T08:29:12Z</time>
      </trkpt>
      <trkpt lat="44.88852" lon="5.23469">
        <ele>1284.2</ele>
        <time>2024-07-02T08:29:13Z</time>
      </trkpt>
      <trkpt lat="44.88851" lon="5.23469">
        <ele>1284.3</ele>
        <time>2024-07-02T08:29:14Z</time>
      </trkpt>
      <trkpt lat="44.88849" lon="5.23469">
        <ele>1284.3</ele>
        <time>2024-07-02T08:29:15Z</time>
      </trkpt>
      <trkpt lat="44.88848" lon="5.2347">
        <ele>1284.3</ele>
        <time>2024-07-02T08:29:16Z</time>
      </trkpt>
      <trkpt lat="44.88846" lon="5.2347">
        <ele>1284.4</ele>
        <time>2024-07-02T08:29:17Z</time>
      </trkpt>
      <trkpt lat="44.88845" lon="5.23471">
        <ele>1284.4</ele>
        <time>2024-07-02T08:29:18Z</time>
      </trkpt>
      <trkpt lat="44.88845" lon="5.23471">
        <ele>1284.4</ele>
        <time>2024-07-02T08:29:19Z</time>
      </trkpt>
      <trkpt lat="44.88843" lon="5.23471">
        <ele>1284.4</ele>
        <time>2024-07-02T08:29:20Z</time>
      </trkpt>
      <trkpt lat="44.88842" lon="5.23471">
        <ele>1284.4</ele>
        <time>2024-07-02T08:29:21Z</time>
      </trkpt>
      <trkpt lat="44.88841" lon="5.23471">
        <ele>1284.5</ele>
        <time>2024-07-02T08:29:22Z</time>
      </trkpt>
      <trkpt lat="44.88839" lon="5.23472">
        <ele>1284.5</ele>
        <time>2024-07-02T08:29:23Z</time>
      </trkpt>
      <trkpt lat="44.88838" lon="5.23472">
        <ele>1284.6</ele>
        <time>2024-07-02T08:29:24Z</time>
      </trkpt>
      <trkpt lat="44.88837" lon="5.23472">
        <ele>1284.6</ele>
        <time>2024-07-02T08:29:25Z</time>
      </trkpt>
      <trkpt lat="44.88836" lon="5.23471">
        <ele>1284.6</ele>
        <time>2024-07-02T08:29:26Z</time>
      </trkpt>
      <trkpt lat="44.88835" lon="5.23472">
        <ele>1284.7</ele>
        <time>2024-07-02T08:29:27Z</time>
      </trkpt>
      <trkpt lat="44.88834" lon="5.23472">
        <ele>1284.7</ele>
        <time>2024-07-02T08:29:28Z</time>
      </trkpt>
      <trkpt lat="44.88833" lon="5.23472">
        <ele>1284.7</ele>
        <time>2024-07-02T08:29:29Z</time>
      </trkpt>
      <trkpt lat="44.88832" lon="5.23472">
        <ele>1284.8</ele>
        <time>2024-07-02T08:29:30Z</time>
      </trkpt>
      <trkpt lat="44.8883" lon="5.23473">
        <ele>1284.8</ele>
        <time>2024-07-02T08:29:31Z</time>
      </trkpt>
      <trkpt lat="44.88829" lon="5.23473">
        <ele>1284.8</ele>
        <time>2024-07-02T08:29:32Z</time>
      </trkpt>
      <trkpt lat="44.88828" lon="5.23474">
        <ele>1284.9</ele>
        <time>2024-07-02T08:29:33Z</time>
      </trkpt>
      <trkpt lat="44.88827" lon="5.23474">
        <ele>1284.9</ele>
        <time>2024-07-02T08:29:34Z</time>
      </trkpt>
      <trkpt lat="44.88826" lon="5.23475">
        <ele>1285</ele>
        <time>2024-07-02T08:29:35Z</time>
      </trkpt>
      <trkpt lat="44.88824" lon="5.23475">
        <ele>1285</ele>
        <time>2024-07-02T08:29:36Z</time>
      </trkpt>
      <trkpt lat="44.88822" lon="5.23476">
        <ele>1285.1</ele>
        <time>2024-07-02T08:29:37Z</time>
      </trkpt>
      <trkpt lat="44.88821" lon="5.23476">
        <ele>1285.1</ele>
        <time>2024-07-02T08:29:38Z</time>
      </trkpt>
      <trkpt lat="44.8882" lon="5.23476">
        <ele>1285.1</ele>
        <time>2024-07-02T08:29:39Z</time>
      </trkpt>
      <trkpt lat="44.88818" lon="5.23477">
        <ele>1285.2</ele>
        <time>2024-07-02T08:29:40Z</time>
      </trkpt>
      <trkpt lat="44.88817" lon="5.23478">
        <ele>1285.3</ele>
        <time>2024-07-02T08:29:41Z</time>
      </trkpt>
      <trkpt lat="44.88816" lon="5.23478">
        <ele>1285.3</ele>
        <time>2024-07-02T08:29:42Z</time>
      </trkpt>
      <trkpt lat="44.88814" lon="5.23479">
        <ele>1285.3</ele>
        <time>2024-07-02T08:29:43Z</time>
      </trkpt>
      <trkpt lat="44.88814" lon="5.23479">
        <ele>1285.4</ele>
        <time>2024-07-02T08:29:44Z</time>
      </trkpt>
      <trkpt lat="44.88813" lon="5.2348">
        <ele>1285.4</ele>
        <time>2024-07-02T08:29:45Z</time>
      </trkpt>
      <trkpt lat="44.88811" lon="5.2348">
        <ele>1285.4</ele>
        <time>2024-07-02T08:29:46Z</time>
      </trkpt>
      <trkpt lat="44.8881" lon="5.23481">
        <ele>1285.5</ele>
        <time>2024-07-02T08:29:47Z</time>
      </trkpt>
      <trkpt lat="44.88809" lon="5.23481">
        <ele>1285.5</ele>
        <time>2024-07-02T08:29:48Z</time>
      </trkpt>
      <trkpt lat="44.88808" lon="5.23482">
        <ele>1285.6</ele>
        <time>2024-07-02T08:29:49Z</time>
      </trkpt>
      <trkpt lat="44.88807" lon="5.23482">
        <ele>1285.6</ele>
        <time>2024-07-02T08:29:50Z</time>
      </trkpt>
      <trkpt lat="44.88805" lon="5.23483">
        <ele>1285.6</ele>
        <time>2024-07-02T08:29:51Z</time>
      </trkpt>
      <trkpt lat="44.88804" lon="5.23483">
        <ele>1285.7</ele>
        <time>2024-07-02T08:29:52Z</time>
      </trkpt>
      <trkpt lat="44.88803" lon="5.23483">
        <ele>1285.7</ele>
        <time>2024-07-02T08:29:53Z</time>
      </trkpt>
      <trkpt lat="44.88801" lon="5.23484">
        <ele>1285.7</ele>
        <time>2024-07-02T08:29:54Z</time>
      </trkpt>
      <trkpt lat="44.888" lon="5.23484">
        <ele>1285.8</ele>
        <time>2024-07-02T08:29:55Z</time>
      </trkpt>
      <trkpt lat="44.88799" lon="5.23484">
        <ele>1285.8</ele>
        <time>2024-07-02T08:29:56Z</time>
      </trkpt>
      <trkpt lat="44.88797" lon="5.23485">
        <ele>1285.8</ele>
        <time>2024-07-02T08:29:57Z</time>
      </trkpt>
      <trkpt lat="44.88797" lon="5.23485">
        <ele>1285.9</ele>
        <time>2024-07-02T08:29:58Z</time>
      </trkpt>
      <trkpt lat="44.88796" lon="5.23485">
        <ele>1285.9</ele>
        <time>2024-07-02T08:29:59Z</time>
      </trkpt>
      <trkpt lat="44.88794" lon="5.23486">
        <ele>1285.9</ele>
        <time>2024-07-02T08:30:00Z</time>
      </trkpt>
      <trkpt lat="44.88793" lon="5.23487">
        <ele>1285.9</ele>
        <time>2024-07-02T08:30:01Z</time>
      </trkpt>
      <trkpt lat="44.88792" lon="5.23487">
        <ele>1286</ele>
        <time>2024-07-02T08:30:02Z</time>
      </trkpt>
      <trkpt lat="44.88791" lon="5.23487">
        <ele>1286</ele>
        <time>2024-07-02T08:30:03Z</time>
      </trkpt>
      <trkpt lat="44.8879" lon="5.23488">
        <ele>1286</ele>
        <time>2024-07-02T08:30:04Z</time>
      </trkpt>
      <trkpt lat="44.88789" lon="5.23488">
        <ele>1286</ele>
        <time>2024-07-02T08:30:05Z</time>
      </trkpt>
      <trkpt lat="44.88788" lon="5.23488">
        <ele>1286.1</ele>
        <time>2024-07-02T08:30:06Z</time>
      </trkpt>
      <trkpt lat="44.88787" lon="5.23488">
        <ele>1286.1</ele>
        <time>2024-07-02T08:30:07Z</time>
      </trkpt>
      <trkpt lat="44.88786" lon="5.23488">
        <ele>1286.1</ele>
        <time>2024-07-02T08:30:08Z</time>
      </trkpt>
      <trkpt lat="44.88785" lon="5.23489">
        <ele>1286.1</ele>
        <time>2024-07-02T08:30:09Z</time>
      </trkpt>
      <trkpt lat="44.88784" lon="5.2349">
        <ele>1286.2</ele>
        <time>2024-07-02T08:30:10Z</time>
      </trkpt>
      <trkpt lat="44.88783" lon="5.2349">
        <ele>1286.2</ele>
        <time>2024-07-02T08:30:11Z</time>
      </trkpt>
      <trkpt lat="44.88783" lon="5.23491">
        <ele>1286.2</ele>
        <time>2024-07-02T08:30:12Z</time>
      </trkpt>
      <trkpt lat="44.88782" lon="5.23491">
        <ele>1286.2</ele>
        <time>2024-07-02T08:30:13Z</time>
      </trkpt>
      <trkpt lat="44.88782" lon="5.23492">
        <ele>1286.2</ele>
        <time>2024-07-02T08:30:14Z</time>
      </trkpt>
      <trkpt lat="44.88781" lon="5.23493">
        <ele>1286.3</ele>
        <time>2024-07-02T08:30:15Z</time>
      </trkpt>
      <trkpt lat="44.8878" lon="5.23494">
        <ele>1286.3</ele>
        <time>2024-07-02T08:30:16Z</time>
      </trkpt>
      <trkpt lat="44.88779" lon="5.23495">
        <ele>1286.3</ele>
        <time>2024-07-02T08:30:17Z</time>
      </trkpt>
      <trkpt lat="44.88778" lon="5.23495">
        <ele>1286.3</ele>
        <time>2024-07-02T08:30:18Z</time>
      </trkpt>
      <trkpt lat="44.88777" lon="5.23496">
        <ele>1286.4</ele>
        <time>2024-07-02T08:30:19Z</time>
      </trkpt>
      <trkpt lat="44.88777" lon="5.23497">
        <ele>1286.4</ele>
        <time>2024-07-02T08:30:20Z</time>
      </trkpt>
      <trkpt lat="44.88776" lon="5.23498">
        <ele>1286.4</ele>
        <time>2024-07-02T08:30:21Z</time>
      </trkpt>
      <trkpt lat="44.88776" lon="5.235">
        <ele>1286.4</ele>
        <time>2024-07-02T08:30:22Z</time>
      </trkpt>
      <trkpt lat="44.88777" lon="5.235">
        <ele>1286.5</ele>
        <time>2024-07-02T08:30:23Z</time>
      </trkpt>
      <trkpt lat="44.88777" lon="5.235">
        <ele>1286.5</ele>
        <time>2024-07-02T08:30:24Z</time>
      </trkpt>
      <trkpt lat="44.88777" lon="5.235">
        <ele>1286.5</ele>
        <time>2024-07-02T08:30:25Z</time>
      </trkpt>
      <trkpt lat="44.88776" lon="5.235">
        <ele>1286.5</ele>
        <time>2024-07-02T08:30:26Z</time>
      </trkpt>
      <trkpt lat="44.88776" lon="5.235">
        <ele>1286.5</ele>
        <time>2024-07-02T08:30:27Z</time>
      </trkpt>
      <trkpt lat="44.88777" lon="5.23501">
        <ele>1286.5</ele>
        <time>2024-07-02T08:30:28Z</time>
      </trkpt>
      <trkpt lat="44.88777" lon="5.23501">
        <ele>1286.5</ele>
        <time>2024-07-02T08:30:29Z</time>
      </trkpt>
      <trkpt lat="44.88777" lon="5.23501">
        <ele>1286.5</ele>
        <time>2024-07-02T08:30:30Z</time>
      </trkpt>
      <trkpt lat="44.88777" lon="5.23501">
        <ele>1286.5</ele>
        <time>2024-07-02T08:30:31Z</time>
      </trkpt>
      <trkpt lat="44.88776" lon="5.23502">
        <ele>1286.6</ele>
        <time>2024-07-02T08:30:56Z</time>
      </trkpt>
      <trkpt lat="44.88775" lon="5.23502">
        <ele>1286.6</ele>
        <time>2024-07-02T08:30:57Z</time>
      </trkpt>
      <trkpt lat="44.88774" lon="5.23503">
        <ele>1286.6</ele>
        <time>2024-07-02T08:30:58Z</time>
      </trkpt>
      <trkpt lat="44.88774" lon="5.23504">
        <ele>1286.6</ele>
        <time>2024-07-02T08:30:59Z</time>
      </trkpt>
      <trkpt lat="44.88773" lon="5.23504">
        <ele>1286.7</ele>
        <time>2024-07-02T08:31:00Z</time>
      </trkpt>
      <trkpt lat="44.88772" lon="5.23504">
        <ele>1286.7</ele>
        <time>2024-07-02T08:31:01Z</time>
      </trkpt>
      <trkpt lat="44.8877" lon="5.23504">
        <ele>1286.7</ele>
        <time>2024-07-02T08:31:02Z</time>
      </trkpt>
      <trkpt lat="44.88769" lon="5.23504">
        <ele>1286.8</ele>
        <time>2024-07-02T08:31:03Z</time>
      </trkpt>
      <trkpt lat="44.88768" lon="5.23505">
        <ele>1286.8</ele>
        <time>2024-07-02T08:31:04Z</time>
      </trkpt>
      <trkpt lat="44.88767" lon="5.23505">
        <ele>1286.8</ele>
        <time>2024-07-02T08:31:05Z</time>
      </trkpt>
      <trkpt lat="44.88766" lon="5.23506">
        <ele>1286.9</ele>
        <time>2024-07-02T08:31:06Z</time>
      </trkpt>
      <trkpt lat="44.88765" lon="5.23506">
        <ele>1286.9</ele>
        <time>2024-07-02T08:31:07Z</time>
      </trkpt>
      <trkpt lat="44.88764" lon="5.23507">
        <ele>1286.9</ele>
        <time>2024-07-02T08:31:08Z</time>
      </trkpt>
      <trkpt lat="44.88763" lon="5.23508">
        <ele>1286.9</ele>
        <time>2024-07-02T08:31:09Z</time>
      </trkpt>
      <trkpt lat="44.88762" lon="5.23508">
        <ele>1287</ele>
        <time>2024-07-02T08:31:10Z</time>
      </trkpt>
      <trkpt lat="44.88761" lon="5.23509">
        <ele>1287</ele>
        <time>2024-07-02T08:31:11Z</time>
      </trkpt>
      <trkpt lat="44.8876" lon="5.2351">
        <ele>1287.1</ele>
        <time>2024-07-02T08:31:12Z</time>
      </trkpt>
      <trkpt lat="44.88759" lon="5.2351">
        <ele>1287.1</ele>
        <time>2024-07-02T08:31:13Z</time>
      </trkpt>
      <trkpt lat="44.88759" lon="5.23511">
        <ele>1287.1</ele>
        <time>2024-07-02T08:31:14Z</time>
      </trkpt>
      <trkpt lat="44.88758" lon="5.23511">
        <ele>1287.1</ele>
        <time>2024-07-02T08:31:15Z</time>
      </trkpt>
      <trkpt lat="44.88757" lon="5.23512">
        <ele>1287.1</ele>
        <time>2024-07-02T08:31:16Z</time>
      </trkpt>
      <trkpt lat="44.88756" lon="5.23513">
        <ele>1287.2</ele>
        <time>2024-07-02T08:31:17Z</time>
      </trkpt>
      <trkpt lat="44.88755" lon="5.23513">
        <ele>1287.2</ele>
        <time>2024-07-02T08:31:18Z</time>
      </trkpt>
      <trkpt lat="44.88754" lon="5.23514">
        <ele>1287.2</ele>
        <time>2024-07-02T08:31:19Z</time>
      </trkpt>
      <trkpt lat="44.88753" lon="5.23514">
        <ele>1287.3</ele>
        <time>2024-07-02T08:31:20Z</time>
      </trkpt>
      <trkpt lat="44.88752" lon="5.23515">
        <ele>1287.3</ele>
        <time>2024-07-02T08:31:21Z</time>
      </trkpt>
      <trkpt lat="44.88752" lon="5.23515">
        <ele>1287.3</ele>
        <time>2024-07-02T08:31:22Z</time>
      </trkpt>
      <trkpt lat="44.88751" lon="5.23515">
        <ele>1287.4</ele>
        <time>2024-07-02T08:31:23Z</time>
      </trkpt>
      <trkpt lat="44.8875" lon="5.23515">
        <ele>1287.4</ele>
        <time>2024-07-02T08:31:24Z</time>
      </trkpt>
      <trkpt lat="44.88748" lon="5.23515">
        <ele>1287.4</ele>
        <time>2024-07-02T08:31:25Z</time>
      </trkpt>
      <trkpt lat="44.88747" lon="5.23516">
        <ele>1287.5</ele>
        <time>2024-07-02T08:31:26Z</time>
      </trkpt>
      <trkpt lat="44.88745" lon="5.23516">
        <ele>1287.6</ele>
        <time>2024-07-02T08:31:27Z</time>
      </trkpt>
      <trkpt lat="44.88744" lon="5.23516">
        <ele>1287.6</ele>
        <time>2024-07-02T08:31:28Z</time>
      </trkpt>
      <trkpt lat="44.88743" lon="5.23516">
        <ele>1287.6</ele>
        <time>2024-07-02T08:31:29Z</time>
      </trkpt>
      <trkpt lat="44.88741" lon="5.23517">
        <ele>1287.7</ele>
        <time>2024-07-02T08:31:30Z</time>
      </trkpt>
      <trkpt lat="44.8874" lon="5.23517">
        <ele>1287.7</ele>
        <time>2024-07-02T08:31:31Z</time>
      </trkpt>
      <trkpt lat="44.88739" lon="5.23517">
        <ele>1287.8</ele>
        <time>2024-07-02T08:31:32Z</time>
      </trkpt>
      <trkpt lat="44.88738" lon="5.23517">
        <ele>1287.8</ele>
        <time>2024-07-02T08:31:33Z</time>
      </trkpt>
      <trkpt lat="44.88737" lon="5.23517">
        <ele>1287.8</ele>
        <time>2024-07-02T08:31:34Z</time>
      </trkpt>
      <trkpt lat="44.88736" lon="5.23517">
        <ele>1287.9</ele>
        <time>2024-07-02T08:31:35Z</time>
      </trkpt>
      <trkpt lat="44.88735" lon="5.23517">
        <ele>1287.9</ele>
        <time>2024-07-02T08:31:36Z</time>
      </trkpt>
      <trkpt lat="44.88734" lon="5.23518">
        <ele>1287.9</ele>
        <time>2024-07-02T08:31:37Z</time>
      </trkpt>
      <trkpt lat="44.88733" lon="5.23518">
        <ele>1288</ele>
        <time>2024-07-02T08:31:38Z</time>
      </trkpt>
      <trkpt lat="44.88732" lon="5.23519">
        <ele>1288</ele>
        <time>2024-07-02T08:31:39Z</time>
      </trkpt>
      <trkpt lat="44.88731" lon="5.2352">
        <ele>1288.1</ele>
        <time>2024-07-02T08:31:40Z</time>
      </trkpt>
      <trkpt lat="44.8873" lon="5.2352">
        <ele>1288.1</ele>
        <time>2024-07-02T08:31:41Z</time>
      </trkpt>
      <trkpt lat="44.88729" lon="5.23521">
        <ele>1288.1</ele>
        <time>2024-07-02T08:31:42Z</time>
      </trkpt>
      <trkpt lat="44.88728" lon="5.23522">
        <ele>1288.2</ele>
        <time>2024-07-02T08:31:43Z</time>
      </trkpt>
      <trkpt lat="44.88727" lon="5.23523">
        <ele>1288.2</ele>
        <time>2024-07-02T08:31:44Z</time>
      </trkpt>
      <trkpt lat="44.88727" lon="5.23524">
        <ele>1288.2</ele>
        <time>2024-07-02T08:31:45Z</time>
      </trkpt>
      <trkpt lat="44.88726" lon="5.23524">
        <ele>1288.3</ele>
        <time>2024-07-02T08:31:46Z</time>
      </trkpt>
      <trkpt lat="44.88724" lon="5.23525">
        <ele>1288.3</ele>
        <time>2024-07-02T08:31:47Z</time>
      </trkpt>
      <trkpt lat="44.88724" lon="5.23526">
        <ele>1288.4</ele>
        <time>2024-07-02T08:31:48Z</time>
      </trkpt>
      <trkpt lat="44.88723" lon="5.23527">
        <ele>1288.4</ele>
        <time>2024-07-02T08:31:49Z</time>
      </trkpt>
      <trkpt lat="44.88722" lon="5.23528">
        <ele>1288.4</ele>
        <time>2024-07-02T08:31:50Z</time>
      </trkpt>
      <trkpt lat="44.88721" lon="5.23528">
        <ele>1288.5</ele>
        <time>2024-07-02T08:31:51Z</time>
      </trkpt>
      <trkpt lat="44.8872" lon="5.23529">
        <ele>1288.5</ele>
        <time>2024-07-02T08:31:52Z</time>
      </trkpt>
      <trkpt lat="44.88719" lon="5.23531">
        <ele>1288.5</ele>
        <time>2024-07-02T08:31:53Z</time>
      </trkpt>
      <trkpt lat="44.88719" lon="5.23532">
        <ele>1288.6</ele>
        <time>2024-07-02T08:31:54Z</time>
      </trkpt>
      <trkpt lat="44.88718" lon="5.23533">
        <ele>1288.6</ele>
        <time>2024-07-02T08:31:55Z</time>
      </trkpt>
      <trkpt lat="44.88717" lon="5.23535">
        <ele>1288.6</ele>
        <time>2024-07-02T08:31:56Z</time>
      </trkpt>
      <trkpt lat="44.88717" lon="5.23536">
        <ele>1288.7</ele>
        <time>2024-07-02T08:31:57Z</time>
      </trkpt>
      <trkpt lat="44.88716" lon="5.23537">
        <ele>1288.7</ele>
        <time>2024-07-02T08:31:58Z</time>
      </trkpt>
      <trkpt lat="44.88715" lon="5.23539">
        <ele>1288.7</ele>
        <time>2024-07-02T08:31:59Z</time>
      </trkpt>
      <trkpt lat="44.88714" lon="5.23541">
        <ele>1288.8</ele>
        <time>2024-07-02T08:32:00Z</time>
      </trkpt>
      <trkpt lat="44.88713" lon="5.23541">
        <ele>1288.8</ele>
        <time>2024-07-02T08:32:01Z</time>
      </trkpt>
      <trkpt lat="44.88712" lon="5.23542">
        <ele>1288.9</ele>
        <time>2024-07-02T08:32:02Z</time>
      </trkpt>
      <trkpt lat="44.8871" lon="5.23544">
        <ele>1288.9</ele>
        <time>2024-07-02T08:32:03Z</time>
      </trkpt>
      <trkpt lat="44.8871" lon="5.23544">
        <ele>1288.9</ele>
        <time>2024-07-02T08:32:04Z</time>
      </trkpt>
      <trkpt lat="44.88709" lon="5.23545">
        <ele>1289</ele>
        <time>2024-07-02T08:32:05Z</time>
      </trkpt>
      <trkpt lat="44.88708" lon="5.23546">
        <ele>1289</ele>
        <time>2024-07-02T08:32:06Z</time>
      </trkpt>
      <trkpt lat="44.88706" lon="5.23547">
        <ele>1289</ele>
        <time>2024-07-02T08:32:07Z</time>
      </trkpt>
      <trkpt lat="44.88704" lon="5.23548">
        <ele>1289.1</ele>
        <time>2024-07-02T08:32:08Z</time>
      </trkpt>
      <trkpt lat="44.88703" lon="5.23548">
        <ele>1289.1</ele>
        <time>2024-07-02T08:32:09Z</time>
      </trkpt>
      <trkpt lat="44.88702" lon="5.23549">
        <ele>1289.1</ele>
        <time>2024-07-02T08:32:10Z</time>
      </trkpt>
      <trkpt lat="44.88701" lon="5.23549">
        <ele>1289.2</ele>
        <time>2024-07-02T08:32:11Z</time>
      </trkpt>
      <trkpt lat="44.88699" lon="5.2355">
        <ele>1289.2</ele>
        <time>2024-07-02T08:32:12Z</time>
      </trkpt>
      <trkpt lat="44.88698" lon="5.2355">
        <ele>1289.3</ele>
        <time>2024-07-02T08:32:13Z</time>
      </trkpt>
      <trkpt lat="44.88696" lon="5.2355">
        <ele>1289.3</ele>
        <time>2024-07-02T08:32:14Z</time>
      </trkpt>
      <trkpt lat="44.88695" lon="5.23551">
        <ele>1289.3</ele>
        <time>2024-07-02T08:32:15Z</time>
      </trkpt>
      <trkpt lat="44.88694" lon="5.23551">
        <ele>1289.4</ele>
        <time>2024-07-02T08:32:16Z</time>
      </trkpt>
      <trkpt lat="44.88692" lon="5.23551">
        <ele>1289.4</ele>
        <time>2024-07-02T08:32:17Z</time>
      </trkpt>
      <trkpt lat="44.88691" lon="5.23552">
        <ele>1289.5</ele>
        <time>2024-07-02T08:32:18Z</time>
      </trkpt>
      <trkpt lat="44.88689" lon="5.23552">
        <ele>1289.5</ele>
        <time>2024-07-02T08:32:19Z</time>
      </trkpt>
      <trkpt lat="44.88688" lon="5.23553">
        <ele>1289.5</ele>
        <time>2024-07-02T08:32:20Z</time>
      </trkpt>
      <trkpt lat="44.88687" lon="5.23553">
        <ele>1289.6</ele>
        <time>2024-07-02T08:32:21Z</time>
      </trkpt>
      <trkpt lat="44.88686" lon="5.23554">
        <ele>1289.6</ele>
        <time>2024-07-02T08:32:22Z</time>
      </trkpt>
      <trkpt lat="44.88684" lon="5.23555">
        <ele>1289.6</ele>
        <time>2024-07-02T08:32:23Z</time>
      </trkpt>
      <trkpt lat="44.88682" lon="5.23556">
        <ele>1289.7</ele>
        <time>2024-07-02T08:32:24Z</time>
      </trkpt>
      <trkpt lat="44.88682" lon="5.23556">
        <ele>1289.7</ele>
        <time>2024-07-02T08:32:25Z</time>
      </trkpt>
      <trkpt lat="44.88681" lon="5.23557">
        <ele>1289.7</ele>
        <time>2024-07-02T08:32:26Z</time>
      </trkpt>
      <trkpt lat="44.88679" lon="5.23557">
        <ele>1289.8</ele>
        <time>2024-07-02T08:32:27Z</time>
      </trkpt>
      <trkpt lat="44.88678" lon="5.23558">
        <ele>1289.8</ele>
        <time>2024-07-02T08:32:28Z</time>
      </trkpt>
      <trkpt lat="44.88677" lon="5.23558">
        <ele>1289.9</ele>
        <time>2024-07-02T08:32:29Z</time>
      </trkpt>
      <trkpt lat="44.88676" lon="5.23558">
        <ele>1289.9</ele>
        <time>2024-07-02T08:32:30Z</time>
      </trkpt>
      <trkpt lat="44.88674" lon="5.23559">
        <ele>1290</ele>
        <time>2024-07-02T08:32:31Z</time>
      </trkpt>
      <trkpt lat="44.88673" lon="5.2356">
        <ele>1290</ele>
        <time>2024-07-02T08:32:32Z</time>
      </trkpt>
      <trkpt lat="44.88672" lon="5.23561">
        <ele>1290.1</ele>
        <time>2024-07-02T08:32:33Z</time>
      </trkpt>
      <trkpt lat="44.88671" lon="5.23561">
        <ele>1290.1</ele>
        <time>2024-07-02T08:32:34Z</time>
      </trkpt>
      <trkpt lat="44.8867" lon="5.23562">
        <ele>1290.2</ele>
        <time>2024-07-02T08:32:35Z</time>
      </trkpt>
      <trkpt lat="44.88669" lon="5.23562">
        <ele>1290.2</ele>
        <time>2024-07-02T08:32:36Z</time>
      </trkpt>
      <trkpt lat="44.88668" lon="5.23562">
        <ele>1290.2</ele>
        <time>2024-07-02T08:32:37Z</time>
      </trkpt>
      <trkpt lat="44.88667" lon="5.23563">
        <ele>1290.3</ele>
        <time>2024-07-02T08:32:38Z</time>
      </trkpt>
      <trkpt lat="44.88665" lon="5.23563">
        <ele>1290.4</ele>
        <time>2024-07-02T08:32:39Z</time>
      </trkpt>
      <trkpt lat="44.88664" lon="5.23563">
        <ele>1290.4</ele>
        <time>2024-07-02T08:32:40Z</time>
      </trkpt>
      <trkpt lat="44.88663" lon="5.23563">
        <ele>1290.5</ele>
        <time>2024-07-02T08:32:41Z</time>
      </trkpt>
      <trkpt lat="44.88662" lon="5.23564">
        <ele>1290.5</ele>
        <time>2024-07-02T08:32:42Z</time>
      </trkpt>
      <trkpt lat="44.8866" lon="5.23565">
        <ele>1290.6</ele>
        <time>2024-07-02T08:32:43Z</time>
      </trkpt>
      <trkpt lat="44.88659" lon="5.23565">
        <ele>1290.7</ele>
        <time>2024-07-02T08:32:44Z</time>
      </trkpt>
      <trkpt lat="44.88658" lon="5.23565">
        <ele>1290.7</ele>
        <time>2024-07-02T08:32:45Z</time>
      </trkpt>
      <trkpt lat="44.88657" lon="5.23566">
        <ele>1290.8</ele>
        <time>2024-07-02T08:32:46Z</time>
      </trkpt>
      <trkpt lat="44.88656" lon="5.23567">
        <ele>1290.9</ele>
        <time>2024-07-02T08:32:47Z</time>
      </trkpt>
      <trkpt lat="44.88655" lon="5.23568">
        <ele>1290.9</ele>
        <time>2024-07-02T08:32:48Z</time>
      </trkpt>
      <trkpt lat="44.88654" lon="5.23569">
        <ele>1291</ele>
        <time>2024-07-02T08:32:49Z</time>
      </trkpt>
      <trkpt lat="44.88653" lon="5.2357">
        <ele>1291.1</ele>
        <time>2024-07-02T08:32:50Z</time>
      </trkpt>
      <trkpt lat="44.88652" lon="5.23571">
        <ele>1291.2</ele>
        <time>2024-07-02T08:32:51Z</time>
      </trkpt>
      <trkpt lat="44.88651" lon="5.23572">
        <ele>1291.2</ele>
        <time>2024-07-02T08:32:52Z</time>
      </trkpt>
      <trkpt lat="44.8865" lon="5.23572">
        <ele>1291.3</ele>
        <time>2024-07-02T08:32:53Z</time>
      </trkpt>
      <trkpt lat="44.88649" lon="5.23574">
        <ele>1291.4</ele>
        <time>2024-07-02T08:32:54Z</time>
      </trkpt>
      <trkpt lat="44.88648" lon="5.23575">
        <ele>1291.5</ele>
        <time>2024-07-02T08:32:55Z</time>
      </trkpt>
      <trkpt lat="44.88648" lon="5.23576">
        <ele>1291.5</ele>
        <time>2024-07-02T08:32:56Z</time>
      </trkpt>
      <trkpt lat="44.88646" lon="5.23578">
        <ele>1291.7</ele>
        <time>2024-07-02T08:32:57Z</time>
      </trkpt>
      <trkpt lat="44.88646" lon="5.23579">
        <ele>1291.7</ele>
        <time>2024-07-02T08:32:58Z</time>
      </trkpt>
      <trkpt lat="44.88645" lon="5.2358">
        <ele>1291.8</ele>
        <time>2024-07-02T08:32:59Z</time>
      </trkpt>
      <trkpt lat="44.88644" lon="5.23583">
        <ele>1291.9</ele>
        <time>2024-07-02T08:33:00Z</time>
      </trkpt>
      <trkpt lat="44.88644" lon="5.23584">
        <ele>1292</ele>
        <time>2024-07-02T08:33:01Z</time>
      </trkpt>
      <trkpt lat="44.88643" lon="5.23585">
        <ele>1292</ele>
        <time>2024-07-02T08:33:02Z</time>
      </trkpt>
      <trkpt lat="44.88642" lon="5.23587">
        <ele>1292.2</ele>
        <time>2024-07-02T08:33:03Z</time>
      </trkpt>
      <trkpt lat="44.88641" lon="5.23588">
        <ele>1292.2</ele>
        <time>2024-07-02T08:33:04Z</time>
      </trkpt>
      <trkpt lat="44.88641" lon="5.23589">
        <ele>1292.3</ele>
        <time>2024-07-02T08:33:05Z</time>
      </trkpt>
      <trkpt lat="44.8864" lon="5.2359">
        <ele>1292.4</ele>
        <time>2024-07-02T08:33:06Z</time>
      </trkpt>
      <trkpt lat="44.88639" lon="5.23592">
        <ele>1292.5</ele>
        <time>2024-07-02T08:33:07Z</time>
      </trkpt>
      <trkpt lat="44.88637" lon="5.23594">
        <ele>1292.6</ele>
        <time>2024-07-02T08:33:08Z</time>
      </trkpt>
      <trkpt lat="44.88637" lon="5.23595">
        <ele>1292.7</ele>
        <time>2024-07-02T08:33:09Z</time>
      </trkpt>
      <trkpt lat="44.88636" lon="5.23596">
        <ele>1292.7</ele>
        <time>2024-07-02T08:33:10Z</time>
      </trkpt>
      <trkpt lat="44.88635" lon="5.23597">
        <ele>1292.8</ele>
        <time>2024-07-02T08:33:11Z</time>
      </trkpt>
      <trkpt lat="44.88634" lon="5.23598">
        <ele>1292.9</ele>
        <time>2024-07-02T08:33:12Z</time>
      </trkpt>
      <trkpt lat="44.88633" lon="5.23599">
        <ele>1293</ele>
        <time>2024-07-02T08:33:13Z</time>
      </trkpt>
      <trkpt lat="44.88632" lon="5.236">
        <ele>1293.1</ele>
        <time>2024-07-02T08:33:14Z</time>
      </trkpt>
      <trkpt lat="44.88631" lon="5.236">
        <ele>1293.2</ele>
        <time>2024-07-02T08:33:15Z</time>
      </trkpt>
      <trkpt lat="44.88629" lon="5.23602">
        <ele>1293.3</ele>
        <time>2024-07-02T08:33:16Z</time>
      </trkpt>
      <trkpt lat="44.88628" lon="5.23603">
        <ele>1293.4</ele>
        <time>2024-07-02T08:33:17Z</time>
      </trkpt>
      <trkpt lat="44.88628" lon="5.23604">
        <ele>1293.4</ele>
        <time>2024-07-02T08:33:18Z</time>
      </trkpt>
      <trkpt lat="44.88627" lon="5.23604">
        <ele>1293.5</ele>
        <time>2024-07-02T08:33:19Z</time>
      </trkpt>
      <trkpt lat="44.88626" lon="5.23605">
        <ele>1293.5</ele>
        <time>2024-07-02T08:33:20Z</time>
      </trkpt>
      <trkpt lat="44.88625" lon="5.23606">
        <ele>1293.6</ele>
        <time>2024-07-02T08:33:21Z</time>
      </trkpt>
      <trkpt lat="44.88624" lon="5.23607">
        <ele>1293.7</ele>
        <time>2024-07-02T08:33:22Z</time>
      </trkpt>
      <trkpt lat="44.88623" lon="5.23608">
        <ele>1293.8</ele>
        <time>2024-07-02T08:33:23Z</time>
      </trkpt>
      <trkpt lat="44.88622" lon="5.23609">
        <ele>1293.8</ele>
        <time>2024-07-02T08:33:24Z</time>
      </trkpt>
      <trkpt lat="44.88621" lon="5.2361">
        <ele>1293.9</ele>
        <time>2024-07-02T08:33:25Z</time>
      </trkpt>
      <trkpt lat="44.8862" lon="5.23612">
        <ele>1294</ele>
        <time>2024-07-02T08:33:26Z</time>
      </trkpt>
      <trkpt lat="44.88619" lon="5.23613">
        <ele>1294</ele>
        <time>2024-07-02T08:33:27Z</time>
      </trkpt>
      <trkpt lat="44.88618" lon="5.23614">
        <ele>1294.1</ele>
        <time>2024-07-02T08:33:28Z</time>
      </trkpt>
      <trkpt lat="44.88618" lon="5.23615">
        <ele>1294.2</ele>
        <time>2024-07-02T08:33:29Z</time>
      </trkpt>
      <trkpt lat="44.88616" lon="5.23617">
        <ele>1294.3</ele>
        <time>2024-07-02T08:33:30Z</time>
      </trkpt>
      <trkpt lat="44.88615" lon="5.23618">
        <ele>1294.3</ele>
        <time>2024-07-02T08:33:31Z</time>
      </trkpt>
      <trkpt lat="44.88615" lon="5.23618">
        <ele>1294.3</ele>
        <time>2024-07-02T08:33:32Z</time>
      </trkpt>
      <trkpt lat="44.88614" lon="5.2362">
        <ele>1294.4</ele>
        <time>2024-07-02T08:33:33Z</time>
      </trkpt>
      <trkpt lat="44.88613" lon="5.2362">
        <ele>1294.4</ele>
        <time>2024-07-02T08:33:34Z</time>
      </trkpt>
      <trkpt lat="44.88612" lon="5.23622">
        <ele>1294.5</ele>
        <time>2024-07-02T08:33:35Z</time>
      </trkpt>
      <trkpt lat="44.88612" lon="5.23622">
        <ele>1294.5</ele>
        <time>2024-07-02T08:33:36Z</time>
      </trkpt>
      <trkpt lat="44.88611" lon="5.23623">
        <ele>1294.6</ele>
        <time>2024-07-02T08:33:37Z</time>
      </trkpt>
      <trkpt lat="44.8861" lon="5.23624">
        <ele>1294.6</ele>
        <time>2024-07-02T08:33:38Z</time>
      </trkpt>
      <trkpt lat="44.88609" lon="5.23625">
        <ele>1294.7</ele>
        <time>2024-07-02T08:33:39Z</time>
      </trkpt>
      <trkpt lat="44.88608" lon="5.23626">
        <ele>1294.7</ele>
        <time>2024-07-02T08:33:40Z</time>
      </trkpt>
      <trkpt lat="44.88607" lon="5.23626">
        <ele>1294.7</ele>
        <time>2024-07-02T08:33:41Z</time>
      </trkpt>
      <trkpt lat="44.88606" lon="5.23627">
        <ele>1294.8</ele>
        <time>2024-07-02T08:33:42Z</time>
      </trkpt>
      <trkpt lat="44.88605" lon="5.23627">
        <ele>1294.8</ele>
        <time>2024-07-02T08:33:43Z</time>
      </trkpt>
      <trkpt lat="44.88604" lon="5.23628">
        <ele>1294.8</ele>
        <time>2024-07-02T08:33:44Z</time>
      </trkpt>
      <trkpt lat="44.88604" lon="5.23628">
        <ele>1294.9</ele>
        <time>2024-07-02T08:33:45Z</time>
      </trkpt>
      <trkpt lat="44.88603" lon="5.23629">
        <ele>1294.9</ele>
        <time>2024-07-02T08:33:46Z</time>
      </trkpt>
      <trkpt lat="44.88602" lon="5.23631">
        <ele>1295</ele>
        <time>2024-07-02T08:33:47Z</time>
      </trkpt>
      <trkpt lat="44.88601" lon="5.23631">
        <ele>1295</ele>
        <time>2024-07-02T08:33:48Z</time>
      </trkpt>
      <trkpt lat="44.88601" lon="5.23632">
        <ele>1295</ele>
        <time>2024-07-02T08:33:49Z</time>
      </trkpt>
      <trkpt lat="44.886" lon="5.23634">
        <ele>1295.1</ele>
        <time>2024-07-02T08:33:50Z</time>
      </trkpt>
      <trkpt lat="44.88599" lon="5.23635">
        <ele>1295.1</ele>
        <time>2024-07-02T08:33:51Z</time>
      </trkpt>
      <trkpt lat="44.88598" lon="5.23636">
        <ele>1295.1</ele>
        <time>2024-07-02T08:33:52Z</time>
      </trkpt>
      <trkpt lat="44.88598" lon="5.23638">
        <ele>1295.2</ele>
        <time>2024-07-02T08:33:53Z</time>
      </trkpt>
      <trkpt lat="44.88597" lon="5.23639">
        <ele>1295.2</ele>
        <time>2024-07-02T08:33:54Z</time>
      </trkpt>
      <trkpt lat="44.88596" lon="5.2364">
        <ele>1295.2</ele>
        <time>2024-07-02T08:33:55Z</time>
      </trkpt>
      <trkpt lat="44.88596" lon="5.23641">
        <ele>1295.2</ele>
        <time>2024-07-02T08:33:56Z</time>
      </trkpt>
      <trkpt lat="44.88595" lon="5.23642">
        <ele>1295.3</ele>
        <time>2024-07-02T08:33:57Z</time>
      </trkpt>
      <trkpt lat="44.88594" lon="5.23644">
        <ele>1295.3</ele>
        <time>2024-07-02T08:33:58Z</time>
      </trkpt>
      <trkpt lat="44.88593" lon="5.23644">
        <ele>1295.3</ele>
        <time>2024-07-02T08:33:59Z</time>
      </trkpt>
      <trkpt lat="44.88592" lon="5.23645">
        <ele>1295.3</ele>
        <time>2024-07-02T08:34:00Z</time>
      </trkpt>
      <trkpt lat="44.88591" lon="5.23646">
        <ele>1295.3</ele>
        <time>2024-07-02T08:34:01Z</time>
      </trkpt>
      <trkpt lat="44.8859" lon="5.23647">
        <ele>1295.4</ele>
        <time>2024-07-02T08:34:02Z</time>
      </trkpt>
      <trkpt lat="44.88589" lon="5.23649">
        <ele>1295.4</ele>
        <time>2024-07-02T08:34:03Z</time>
      </trkpt>
      <trkpt lat="44.88588" lon="5.2365">
        <ele>1295.4</ele>
        <time>2024-07-02T08:34:04Z</time>
      </trkpt>
      <trkpt lat="44.88587" lon="5.23651">
        <ele>1295.4</ele>
        <time>2024-07-02T08:34:05Z</time>
      </trkpt>
      <trkpt lat="44.88587" lon="5.23651">
        <ele>1295.4</ele>
        <time>2024-07-02T08:34:06Z</time>
      </trkpt>
      <trkpt lat="44.88586" lon="5.23652">
        <ele>1295.4</ele>
        <time>2024-07-02T08:34:07Z</time>
      </trkpt>
      <trkpt lat="44.88585" lon="5.23653">
        <ele>1295.4</ele>
        <time>2024-07-02T08:34:08Z</time>
      </trkpt>
      <trkpt lat="44.88584" lon="5.23654">
        <ele>1295.4</ele>
        <time>2024-07-02T08:34:09Z</time>
      </trkpt>
      <trkpt lat="44.88583" lon="5.23655">
        <ele>1295.4</ele>
        <time>2024-07-02T08:34:10Z</time>
      </trkpt>
      <trkpt lat="44.88582" lon="5.23656">
        <ele>1295.4</ele>
        <time>2024-07-02T08:34:11Z</time>
      </trkpt>
      <trkpt lat="44.88581" lon="5.23657">
        <ele>1295.4</ele>
        <time>2024-07-02T08:34:12Z</time>
      </trkpt>
      <trkpt lat="44.8858" lon="5.23659">
        <ele>1295.5</ele>
        <time>2024-07-02T08:34:13Z</time>
      </trkpt>
      <trkpt lat="44.8858" lon="5.23659">
        <ele>1295.5</ele>
        <time>2024-07-02T08:34:14Z</time>
      </trkpt>
      <trkpt lat="44.88579" lon="5.2366">
        <ele>1295.5</ele>
        <time>2024-07-02T08:34:15Z</time>
      </trkpt>
      <trkpt lat="44.88578" lon="5.23661">
        <ele>1295.5</ele>
        <time>2024-07-02T08:34:16Z</time>
      </trkpt>
      <trkpt lat="44.88576" lon="5.23663">
        <ele>1295.5</ele>
        <time>2024-07-02T08:34:17Z</time>
      </trkpt>
      <trkpt lat="44.88575" lon="5.23664">
        <ele>1295.5</ele>
        <time>2024-07-02T08:34:18Z</time>
      </trkpt>
      <trkpt lat="44.88573" lon="5.23666">
        <ele>1295.5</ele>
        <time>2024-07-02T08:34:19Z</time>
      </trkpt>
      <trkpt lat="44.88572" lon="5.23667">
        <ele>1295.5</ele>
        <time>2024-07-02T08:34:20Z</time>
      </trkpt>
      <trkpt lat="44.88571" lon="5.23668">
        <ele>1295.5</ele>
        <time>2024-07-02T08:34:21Z</time>
      </trkpt>
      <trkpt lat="44.8857" lon="5.23669">
        <ele>1295.6</ele>
        <time>2024-07-02T08:34:22Z</time>
      </trkpt>
      <trkpt lat="44.88568" lon="5.2367">
        <ele>1295.6</ele>
        <time>2024-07-02T08:34:23Z</time>
      </trkpt>
      <trkpt lat="44.88568" lon="5.23671">
        <ele>1295.6</ele>
        <time>2024-07-02T08:34:24Z</time>
      </trkpt>
      <trkpt lat="44.88566" lon="5.23671">
        <ele>1295.6</ele>
        <time>2024-07-02T08:34:25Z</time>
      </trkpt>
      <trkpt lat="44.88565" lon="5.23672">
        <ele>1295.6</ele>
        <time>2024-07-02T08:34:26Z</time>
      </trkpt>
      <trkpt lat="44.88563" lon="5.23672">
        <ele>1295.7</ele>
        <time>2024-07-02T08:34:27Z</time>
      </trkpt>
      <trkpt lat="44.88562" lon="5.23672">
        <ele>1295.7</ele>
        <time>2024-07-02T08:34:28Z</time>
      </trkpt>
      <trkpt lat="44.88561" lon="5.23672">
        <ele>1295.7</ele>
        <time>2024-07-02T08:34:29Z</time>
      </trkpt>
      <trkpt lat="44.8856" lon="5.23672">
        <ele>1295.7</ele>
        <time>2024-07-02T08:34:30Z</time>
      </trkpt>
      <trkpt lat="44.88558" lon="5.23672">
        <ele>1295.8</ele>
        <time>2024-07-02T08:34:31Z</time>
      </trkpt>
      <trkpt lat="44.88557" lon="5.23673">
        <ele>1295.8</ele>
        <time>2024-07-02T08:34:32Z</time>
      </trkpt>
      <trkpt lat="44.88556" lon="5.23673">
        <ele>1295.8</ele>
        <time>2024-07-02T08:34:33Z</time>
      </trkpt>
      <trkpt lat="44.88555" lon="5.23673">
        <ele>1295.8</ele>
        <time>2024-07-02T08:34:34Z</time>
      </trkpt>
      <trkpt lat="44.88554" lon="5.23674">
        <ele>1295.8</ele>
        <time>2024-07-02T08:34:35Z</time>
      </trkpt>
      <trkpt lat="44.88553" lon="5.23674">
        <ele>1295.9</ele>
        <time>2024-07-02T08:34:36Z</time>
      </trkpt>
      <trkpt lat="44.88552" lon="5.23675">
        <ele>1295.9</ele>
        <time>2024-07-02T08:34:37Z</time>
      </trkpt>
      <trkpt lat="44.8855" lon="5.23676">
        <ele>1295.9</ele>
        <time>2024-07-02T08:34:38Z</time>
      </trkpt>
      <trkpt lat="44.8855" lon="5.23677">
        <ele>1295.9</ele>
        <time>2024-07-02T08:34:39Z</time>
      </trkpt>
      <trkpt lat="44.88549" lon="5.23678">
        <ele>1296</ele>
        <time>2024-07-02T08:34:40Z</time>
      </trkpt>
      <trkpt lat="44.88548" lon="5.23679">
        <ele>1296</ele>
        <time>2024-07-02T08:34:41Z</time>
      </trkpt>
      <trkpt lat="44.88546" lon="5.23679">
        <ele>1296</ele>
        <time>2024-07-02T08:34:42Z</time>
      </trkpt>
      <trkpt lat="44.88545" lon="5.2368">
        <ele>1296.1</ele>
        <time>2024-07-02T08:34:43Z</time>
      </trkpt>
      <trkpt lat="44.88544" lon="5.2368">
        <ele>1296.1</ele>
        <time>2024-07-02T08:34:44Z</time>
      </trkpt>
      <trkpt lat="44.88542" lon="5.23681">
        <ele>1296.1</ele>
        <time>2024-07-02T08:34:45Z</time>
      </trkpt>
      <trkpt lat="44.88541" lon="5.23682">
        <ele>1296.1</ele>
        <time>2024-07-02T08:34:46Z</time>
      </trkpt>
      <trkpt lat="44.88539" lon="5.23682">
        <ele>1296.1</ele>
        <time>2024-07-02T08:34:47Z</time>
      </trkpt>
      <trkpt lat="44.88538" lon="5.23683">
        <ele>1296.2</ele>
        <time>2024-07-02T08:34:48Z</time>
      </trkpt>
      <trkpt lat="44.88538" lon="5.23683">
        <ele>1296.2</ele>
        <time>2024-07-02T08:34:49Z</time>
      </trkpt>
      <trkpt lat="44.88536" lon="5.23684">
        <ele>1296.2</ele>
        <time>2024-07-02T08:34:50Z</time>
      </trkpt>
      <trkpt lat="44.88535" lon="5.23684">
        <ele>1296.2</ele>
        <time>2024-07-02T08:34:51Z</time>
      </trkpt>
      <trkpt lat="44.88534" lon="5.23684">
        <ele>1296.2</ele>
        <time>2024-07-02T08:34:52Z</time>
      </trkpt>
      <trkpt lat="44.88532" lon="5.23686">
        <ele>1296.3</ele>
        <time>2024-07-02T08:34:53Z</time>
      </trkpt>
      <trkpt lat="44.88531" lon="5.23686">
        <ele>1296.3</ele>
        <time>2024-07-02T08:34:54Z</time>
      </trkpt>
      <trkpt lat="44.8853" lon="5.23687">
        <ele>1296.3</ele>
        <time>2024-07-02T08:34:55Z</time>
      </trkpt>
      <trkpt lat="44.88528" lon="5.23688">
        <ele>1296.3</ele>
        <time>2024-07-02T08:34:56Z</time>
      </trkpt>
      <trkpt lat="44.88527" lon="5.23688">
        <ele>1296.3</ele>
        <time>2024-07-02T08:34:57Z</time>
      </trkpt>
      <trkpt lat="44.88527" lon="5.23688">
        <ele>1296.3</ele>
        <time>2024-07-02T08:34:58Z</time>
      </trkpt>
      <trkpt lat="44.88526" lon="5.23689">
        <ele>1296.3</ele>
        <time>2024-07-02T08:34:59Z</time>
      </trkpt>
      <trkpt lat="44.88525" lon="5.23689">
        <ele>1296.3</ele>
        <time>2024-07-02T08:35:00Z</time>
      </trkpt>
      <trkpt lat="44.88524" lon="5.23689">
        <ele>1296.4</ele>
        <time>2024-07-02T08:35:01Z</time>
      </trkpt>
      <trkpt lat="44.88522" lon="5.2369">
        <ele>1296.4</ele>
        <time>2024-07-02T08:35:02Z</time>
      </trkpt>
      <trkpt lat="44.88521" lon="5.2369">
        <ele>1296.4</ele>
        <time>2024-07-02T08:35:03Z</time>
      </trkpt>
      <trkpt lat="44.8852" lon="5.2369">
        <ele>1296.4</ele>
        <time>2024-07-02T08:35:04Z</time>
      </trkpt>
      <trkpt lat="44.88519" lon="5.23691">
        <ele>1296.4</ele>
        <time>2024-07-02T08:35:05Z</time>
      </trkpt>
      <trkpt lat="44.88518" lon="5.23691">
        <ele>1296.4</ele>
        <time>2024-07-02T08:35:06Z</time>
      </trkpt>
      <trkpt lat="44.88516" lon="5.23692">
        <ele>1296.4</ele>
        <time>2024-07-02T08:35:07Z</time>
      </trkpt>
      <trkpt lat="44.88515" lon="5.23692">
        <ele>1296.4</ele>
        <time>2024-07-02T08:35:08Z</time>
      </trkpt>
      <trkpt lat="44.88513" lon="5.23693">
        <ele>1296.5</ele>
        <time>2024-07-02T08:35:09Z</time>
      </trkpt>
      <trkpt lat="44.88512" lon="5.23694">
        <ele>1296.5</ele>
        <time>2024-07-02T08:35:10Z</time>
      </trkpt>
      <trkpt lat="44.88511" lon="5.23694">
        <ele>1296.5</ele>
        <time>2024-07-02T08:35:11Z</time>
      </trkpt>
      <trkpt lat="44.8851" lon="5.23695">
        <ele>1296.5</ele>
        <time>2024-07-02T08:35:12Z</time>
      </trkpt>
      <trkpt lat="44.88508" lon="5.23696">
        <ele>1296.5</ele>
        <time>2024-07-02T08:35:13Z</time>
      </trkpt>
      <trkpt lat="44.88507" lon="5.23696">
        <ele>1296.5</ele>
        <time>2024-07-02T08:35:14Z</time>
      </trkpt>
      <trkpt lat="44.88506" lon="5.23697">
        <ele>1296.5</ele>
        <time>2024-07-02T08:35:15Z</time>
      </trkpt>
      <trkpt lat="44.88505" lon="5.23697">
        <ele>1296.6</ele>
        <time>2024-07-02T08:35:16Z</time>
      </trkpt>
      <trkpt lat="44.88504" lon="5.23698">
        <ele>1296.6</ele>
        <time>2024-07-02T08:35:17Z</time>
      </trkpt>
      <trkpt lat="44.88502" lon="5.23699">
        <ele>1296.6</ele>
        <time>2024-07-02T08:35:18Z</time>
      </trkpt>
      <trkpt lat="44.88501" lon="5.237">
        <ele>1296.6</ele>
        <time>2024-07-02T08:35:19Z</time>
      </trkpt>
      <trkpt lat="44.885" lon="5.23701">
        <ele>1296.6</ele>
        <time>2024-07-02T08:35:20Z</time>
      </trkpt>
      <trkpt lat="44.88499" lon="5.23702">
        <ele>1296.7</ele>
        <time>2024-07-02T08:35:21Z</time>
      </trkpt>
      <trkpt lat="44.88497" lon="5.23703">
        <ele>1296.7</ele>
        <time>2024-07-02T08:35:22Z</time>
      </trkpt>
      <trkpt lat="44.88496" lon="5.23704">
        <ele>1296.7</ele>
        <time>2024-07-02T08:35:23Z</time>
      </trkpt>
      <trkpt lat="44.88496" lon="5.23705">
        <ele>1296.7</ele>
        <time>2024-07-02T08:35:24Z</time>
      </trkpt>
      <trkpt lat="44.88494" lon="5.23706">
        <ele>1296.8</ele>
        <time>2024-07-02T08:35:25Z</time>
      </trkpt>
      <trkpt lat="44.88493" lon="5.23707">
        <ele>1296.8</ele>
        <time>2024-07-02T08:35:26Z</time>
      </trkpt>
      <trkpt lat="44.88491" lon="5.23708">
        <ele>1296.8</ele>
        <time>2024-07-02T08:35:27Z</time>
      </trkpt>
      <trkpt lat="44.88491" lon="5.23709">
        <ele>1296.8</ele>
        <time>2024-07-02T08:35:28Z</time>
      </trkpt>
      <trkpt lat="44.8849" lon="5.2371">
        <ele>1296.8</ele>
        <time>2024-07-02T08:35:29Z</time>
      </trkpt>
      <trkpt lat="44.88488" lon="5.23712">
        <ele>1296.9</ele>
        <time>2024-07-02T08:35:30Z</time>
      </trkpt>
      <trkpt lat="44.88487" lon="5.23712">
        <ele>1296.9</ele>
        <time>2024-07-02T08:35:31Z</time>
      </trkpt>
      <trkpt lat="44.88486" lon="5.23713">
        <ele>1296.9</ele>
        <time>2024-07-02T08:35:32Z</time>
      </trkpt>
      <trkpt lat="44.88484" lon="5.23714">
        <ele>1296.9</ele>
        <time>2024-07-02T08:35:33Z</time>
      </trkpt>
      <trkpt lat="44.88484" lon="5.23714">
        <ele>1297</ele>
        <time>2024-07-02T08:35:34Z</time>
      </trkpt>
      <trkpt lat="44.88483" lon="5.23714">
        <ele>1297</ele>
        <time>2024-07-02T08:35:35Z</time>
      </trkpt>
      <trkpt lat="44.88481" lon="5.23715">
        <ele>1297</ele>
        <time>2024-07-02T08:35:36Z</time>
      </trkpt>
      <trkpt lat="44.8848" lon="5.23715">
        <ele>1297</ele>
        <time>2024-07-02T08:35:37Z</time>
      </trkpt>
      <trkpt lat="44.88479" lon="5.23716">
        <ele>1297</ele>
        <time>2024-07-02T08:35:38Z</time>
      </trkpt>
      <trkpt lat="44.88477" lon="5.23716">
        <ele>1297.1</ele>
        <time>2024-07-02T08:35:39Z</time>
      </trkpt>
      <trkpt lat="44.88476" lon="5.23717">
        <ele>1297.1</ele>
        <time>2024-07-02T08:35:40Z</time>
      </trkpt>
      <trkpt lat="44.88475" lon="5.23717">
        <ele>1297.1</ele>
        <time>2024-07-02T08:35:41Z</time>
      </trkpt>
      <trkpt lat="44.88474" lon="5.23718">
        <ele>1297.1</ele>
        <time>2024-07-02T08:35:42Z</time>
      </trkpt>
      <trkpt lat="44.88473" lon="5.23719">
        <ele>1297.1</ele>
        <time>2024-07-02T08:35:43Z</time>
      </trkpt>
      <trkpt lat="44.88472" lon="5.23719">
        <ele>1297.1</ele>
        <time>2024-07-02T08:35:44Z</time>
      </trkpt>
      <trkpt lat="44.8847" lon="5.2372">
        <ele>1297.2</ele>
        <time>2024-07-02T08:35:45Z</time>
      </trkpt>
      <trkpt lat="44.88469" lon="5.2372">
        <ele>1297.2</ele>
        <time>2024-07-02T08:35:46Z</time>
      </trkpt>
      <trkpt lat="44.88468" lon="5.2372">
        <ele>1297.2</ele>
        <time>2024-07-02T08:35:47Z</time>
      </trkpt>
      <trkpt lat="44.88466" lon="5.2372">
        <ele>1297.2</ele>
        <time>2024-07-02T08:35:48Z</time>
      </trkpt>
      <trkpt lat="44.88466" lon="5.2372">
        <ele>1297.2</ele>
        <time>2024-07-02T08:35:49Z</time>
      </trkpt>
      <trkpt lat="44.88465" lon="5.2372">
        <ele>1297.2</ele>
        <time>2024-07-02T08:35:50Z</time>
      </trkpt>
      <trkpt lat="44.88463" lon="5.23719">
        <ele>1297.3</ele>
        <time>2024-07-02T08:35:51Z</time>
      </trkpt>
      <trkpt lat="44.88462" lon="5.23719">
        <ele>1297.3</ele>
        <time>2024-07-02T08:35:52Z</time>
      </trkpt>
      <trkpt lat="44.88461" lon="5.23718">
        <ele>1297.3</ele>
        <time>2024-07-02T08:35:53Z</time>
      </trkpt>
      <trkpt lat="44.8846" lon="5.23717">
        <ele>1297.3</ele>
        <time>2024-07-02T08:35:54Z</time>
      </trkpt>
      <trkpt lat="44.88459" lon="5.23717">
        <ele>1297.3</ele>
        <time>2024-07-02T08:35:55Z</time>
      </trkpt>
      <trkpt lat="44.88458" lon="5.23715">
        <ele>1297.3</ele>
        <time>2024-07-02T08:35:56Z</time>
      </trkpt>
      <trkpt lat="44.88456" lon="5.23715">
        <ele>1297.4</ele>
        <time>2024-07-02T08:35:57Z</time>
      </trkpt>
      <trkpt lat="44.88455" lon="5.23713">
        <ele>1297.4</ele>
        <time>2024-07-02T08:35:58Z</time>
      </trkpt>
      <trkpt lat="44.88454" lon="5.23712">
        <ele>1297.4</ele>
        <time>2024-07-02T08:35:59Z</time>
      </trkpt>
      <trkpt lat="44.88453" lon="5.23712">
        <ele>1297.4</ele>
        <time>2024-07-02T08:36:00Z</time>
      </trkpt>
      <trkpt lat="44.88452" lon="5.23712">
        <ele>1297.4</ele>
        <time>2024-07-02T08:36:01Z</time>
      </trkpt>
      <trkpt lat="44.88451" lon="5.23712">
        <ele>1297.4</ele>
        <time>2024-07-02T08:36:02Z</time>
      </trkpt>
      <trkpt lat="44.8845" lon="5.23711">
        <ele>1297.4</ele>
        <time>2024-07-02T08:36:03Z</time>
      </trkpt>
      <trkpt lat="44.88449" lon="5.23713">
        <ele>1297.5</ele>
        <time>2024-07-02T08:36:04Z</time>
      </trkpt>
      <trkpt lat="44.88448" lon="5.23713">
        <ele>1297.5</ele>
        <time>2024-07-02T08:36:05Z</time>
      </trkpt>
      <trkpt lat="44.88447" lon="5.23712">
        <ele>1297.5</ele>
        <time>2024-07-02T08:36:06Z</time>
      </trkpt>
      <trkpt lat="44.88445" lon="5.23712">
        <ele>1297.5</ele>
        <time>2024-07-02T08:36:07Z</time>
      </trkpt>
      <trkpt lat="44.88444" lon="5.23713">
        <ele>1297.6</ele>
        <time>2024-07-02T08:36:08Z</time>
      </trkpt>
      <trkpt lat="44.88444" lon="5.23713">
        <ele>1297.6</ele>
        <time>2024-07-02T08:36:09Z</time>
      </trkpt>
      <trkpt lat="44.88443" lon="5.23713">
        <ele>1297.6</ele>
        <time>2024-07-02T08:36:10Z</time>
      </trkpt>
      <trkpt lat="44.88442" lon="5.23713">
        <ele>1297.6</ele>
        <time>2024-07-02T08:36:11Z</time>
      </trkpt>
      <trkpt lat="44.88441" lon="5.23713">
        <ele>1297.6</ele>
        <time>2024-07-02T08:36:12Z</time>
      </trkpt>
      <trkpt lat="44.8844" lon="5.23713">
        <ele>1297.7</ele>
        <time>2024-07-02T08:36:13Z</time>
      </trkpt>
      <trkpt lat="44.88439" lon="5.23713">
        <ele>1297.7</ele>
        <time>2024-07-02T08:36:14Z</time>
      </trkpt>
      <trkpt lat="44.88438" lon="5.23712">
        <ele>1297.7</ele>
        <time>2024-07-02T08:36:15Z</time>
      </trkpt>
      <trkpt lat="44.88437" lon="5.23713">
        <ele>1297.7</ele>
        <time>2024-07-02T08:36:16Z</time>
      </trkpt>
      <trkpt lat="44.88436" lon="5.23713">
        <ele>1297.8</ele>
        <time>2024-07-02T08:36:17Z</time>
      </trkpt>
      <trkpt lat="44.88434" lon="5.23713">
        <ele>1297.8</ele>
        <time>2024-07-02T08:36:18Z</time>
      </trkpt>
      <trkpt lat="44.88433" lon="5.23713">
        <ele>1297.8</ele>
        <time>2024-07-02T08:36:19Z</time>
      </trkpt>
      <trkpt lat="44.88431" lon="5.23713">
        <ele>1297.9</ele>
        <time>2024-07-02T08:36:20Z</time>
      </trkpt>
      <trkpt lat="44.88431" lon="5.23713">
        <ele>1297.9</ele>
        <time>2024-07-02T08:36:21Z</time>
      </trkpt>
      <trkpt lat="44.8843" lon="5.23713">
        <ele>1297.9</ele>
        <time>2024-07-02T08:36:22Z</time>
      </trkpt>
      <trkpt lat="44.8843" lon="5.23713">
        <ele>1297.9</ele>
        <time>2024-07-02T08:36:23Z</time>
      </trkpt>
      <trkpt lat="44.88429" lon="5.23714">
        <ele>1297.9</ele>
        <time>2024-07-02T08:36:24Z</time>
      </trkpt>
      <trkpt lat="44.88426" lon="5.23713">
        <ele>1298</ele>
        <time>2024-07-02T08:36:25Z</time>
      </trkpt>
      <trkpt lat="44.88425" lon="5.23713">
        <ele>1298</ele>
        <time>2024-07-02T08:36:26Z</time>
      </trkpt>
      <trkpt lat="44.88423" lon="5.23711">
        <ele>1298.1</ele>
        <time>2024-07-02T08:36:27Z</time>
      </trkpt>
      <trkpt lat="44.88422" lon="5.2371">
        <ele>1298.2</ele>
        <time>2024-07-02T08:36:28Z</time>
      </trkpt>
      <trkpt lat="44.8842" lon="5.23709">
        <ele>1298.2</ele>
        <time>2024-07-02T08:36:29Z</time>
      </trkpt>
      <trkpt lat="44.88419" lon="5.23709">
        <ele>1298.3</ele>
        <time>2024-07-02T08:36:30Z</time>
      </trkpt>
      <trkpt lat="44.88417" lon="5.23709">
        <ele>1298.3</ele>
        <time>2024-07-02T08:36:31Z</time>
      </trkpt>
      <trkpt lat="44.88416" lon="5.23708">
        <ele>1298.4</ele>
        <time>2024-07-02T08:36:32Z</time>
      </trkpt>
      <trkpt lat="44.88413" lon="5.23709">
        <ele>1298.5</ele>
        <time>2024-07-02T08:36:33Z</time>
      </trkpt>
      <trkpt lat="44.88412" lon="5.23709">
        <ele>1298.5</ele>
        <time>2024-07-02T08:36:34Z</time>
      </trkpt>
      <trkpt lat="44.8841" lon="5.2371">
        <ele>1298.6</ele>
        <time>2024-07-02T08:36:35Z</time>
      </trkpt>
      <trkpt lat="44.88408" lon="5.2371">
        <ele>1298.6</ele>
        <time>2024-07-02T08:36:36Z</time>
      </trkpt>
      <trkpt lat="44.88406" lon="5.23711">
        <ele>1298.7</ele>
        <time>2024-07-02T08:36:37Z</time>
      </trkpt>
      <trkpt lat="44.88405" lon="5.23712">
        <ele>1298.7</ele>
        <time>2024-07-02T08:36:38Z</time>
      </trkpt>
      <trkpt lat="44.88403" lon="5.23713">
        <ele>1298.8</ele>
        <time>2024-07-02T08:36:39Z</time>
      </trkpt>
      <trkpt lat="44.88401" lon="5.23714">
        <ele>1298.8</ele>
        <time>2024-07-02T08:36:40Z</time>
      </trkpt>
      <trkpt lat="44.884" lon="5.23714">
        <ele>1298.8</ele>
        <time>2024-07-02T08:36:41Z</time>
      </trkpt>
      <trkpt lat="44.88398" lon="5.23714">
        <ele>1298.8</ele>
        <time>2024-07-02T08:36:42Z</time>
      </trkpt>
      <trkpt lat="44.88397" lon="5.23715">
        <ele>1298.8</ele>
        <time>2024-07-02T08:36:43Z</time>
      </trkpt>
      <trkpt lat="44.88395" lon="5.23715">
        <ele>1298.8</ele>
        <time>2024-07-02T08:36:44Z</time>
      </trkpt>
      <trkpt lat="44.88394" lon="5.23716">
        <ele>1298.8</ele>
        <time>2024-07-02T08:36:45Z</time>
      </trkpt>
      <trkpt lat="44.88392" lon="5.23716">
        <ele>1298.8</ele>
        <time>2024-07-02T08:36:46Z</time>
      </trkpt>
      <trkpt lat="44.8839" lon="5.23716">
        <ele>1298.8</ele>
        <time>2024-07-02T08:36:47Z</time>
      </trkpt>
      <trkpt lat="44.88389" lon="5.23717">
        <ele>1298.8</ele>
        <time>2024-07-02T08:36:48Z</time>
      </trkpt>
      <trkpt lat="44.88388" lon="5.23717">
        <ele>1298.8</ele>
        <time>2024-07-02T08:36:49Z</time>
      </trkpt>
      <trkpt lat="44.88386" lon="5.23717">
        <ele>1298.7</ele>
        <time>2024-07-02T08:36:50Z</time>
      </trkpt>
      <trkpt lat="44.88385" lon="5.23718">
        <ele>1298.7</ele>
        <time>2024-07-02T08:36:51Z</time>
      </trkpt>
      <trkpt lat="44.88384" lon="5.23718">
        <ele>1298.7</ele>
        <time>2024-07-02T08:36:52Z</time>
      </trkpt>
      <trkpt lat="44.88383" lon="5.23718">
        <ele>1298.7</ele>
        <time>2024-07-02T08:36:53Z</time>
      </trkpt>
      <trkpt lat="44.88381" lon="5.23718">
        <ele>1298.6</ele>
        <time>2024-07-02T08:36:54Z</time>
      </trkpt>
      <trkpt lat="44.8838" lon="5.23718">
        <ele>1298.6</ele>
        <time>2024-07-02T08:36:55Z</time>
      </trkpt>
      <trkpt lat="44.88378" lon="5.23719">
        <ele>1298.5</ele>
        <time>2024-07-02T08:36:56Z</time>
      </trkpt>
      <trkpt lat="44.88377" lon="5.23719">
        <ele>1298.4</ele>
        <time>2024-07-02T08:36:57Z</time>
      </trkpt>
      <trkpt lat="44.88375" lon="5.23719">
        <ele>1298.4</ele>
        <time>2024-07-02T08:36:58Z</time>
      </trkpt>
      <trkpt lat="44.88374" lon="5.23719">
        <ele>1298.3</ele>
        <time>2024-07-02T08:36:59Z</time>
      </trkpt>
      <trkpt lat="44.88373" lon="5.23719">
        <ele>1298.3</ele>
        <time>2024-07-02T08:37:00Z</time>
      </trkpt>
      <trkpt lat="44.88371" lon="5.23719">
        <ele>1298.2</ele>
        <time>2024-07-02T08:37:01Z</time>
      </trkpt>
      <trkpt lat="44.8837" lon="5.23719">
        <ele>1298.2</ele>
        <time>2024-07-02T08:37:02Z</time>
      </trkpt>
      <trkpt lat="44.88368" lon="5.2372">
        <ele>1298.1</ele>
        <time>2024-07-02T08:37:03Z</time>
      </trkpt>
      <trkpt lat="44.88367" lon="5.2372">
        <ele>1298.1</ele>
        <time>2024-07-02T08:37:04Z</time>
      </trkpt>
      <trkpt lat="44.88366" lon="5.2372">
        <ele>1298.1</ele>
        <time>2024-07-02T08:37:05Z</time>
      </trkpt>
      <trkpt lat="44.88364" lon="5.2372">
        <ele>1298</ele>
        <time>2024-07-02T08:37:06Z</time>
      </trkpt>
      <trkpt lat="44.88363" lon="5.2372">
        <ele>1298</ele>
        <time>2024-07-02T08:37:07Z</time>
      </trkpt>
      <trkpt lat="44.88362" lon="5.2372">
        <ele>1297.9</ele>
        <time>2024-07-02T08:37:08Z</time>
      </trkpt>
      <trkpt lat="44.8836" lon="5.23721">
        <ele>1297.9</ele>
        <time>2024-07-02T08:37:09Z</time>
      </trkpt>
      <trkpt lat="44.88358" lon="5.2372">
        <ele>1297.8</ele>
        <time>2024-07-02T08:37:10Z</time>
      </trkpt>
      <trkpt lat="44.88357" lon="5.2372">
        <ele>1297.8</ele>
        <time>2024-07-02T08:37:11Z</time>
      </trkpt>
      <trkpt lat="44.88357" lon="5.2372">
        <ele>1297.8</ele>
        <time>2024-07-02T08:37:12Z</time>
      </trkpt>
      <trkpt lat="44.88355" lon="5.23721">
        <ele>1297.8</ele>
        <time>2024-07-02T08:37:13Z</time>
      </trkpt>
      <trkpt lat="44.88354" lon="5.23721">
        <ele>1297.7</ele>
        <time>2024-07-02T08:37:14Z</time>
      </trkpt>
      <trkpt lat="44.88353" lon="5.23721">
        <ele>1297.7</ele>
        <time>2024-07-02T08:37:15Z</time>
      </trkpt>
      <trkpt lat="44.88351" lon="5.23722">
        <ele>1297.7</ele>
        <time>2024-07-02T08:37:16Z</time>
      </trkpt>
      <trkpt lat="44.8835" lon="5.23722">
        <ele>1297.7</ele>
        <time>2024-07-02T08:37:17Z</time>
      </trkpt>
      <trkpt lat="44.88349" lon="5.23722">
        <ele>1297.7</ele>
        <time>2024-07-02T08:37:18Z</time>
      </trkpt>
      <trkpt lat="44.88347" lon="5.23723">
        <ele>1297.7</ele>
        <time>2024-07-02T08:37:19Z</time>
      </trkpt>
      <trkpt lat="44.88346" lon="5.23723">
        <ele>1297.6</ele>
        <time>2024-07-02T08:37:20Z</time>
      </trkpt>
      <trkpt lat="44.88345" lon="5.23724">
        <ele>1297.6</ele>
        <time>2024-07-02T08:37:21Z</time>
      </trkpt>
      <trkpt lat="44.88345" lon="5.23724">
        <ele>1297.6</ele>
        <time>2024-07-02T08:37:22Z</time>
      </trkpt>
      <trkpt lat="44.88344" lon="5.23725">
        <ele>1297.6</ele>
        <time>2024-07-02T08:37:23Z</time>
      </trkpt>
      <trkpt lat="44.88343" lon="5.23725">
        <ele>1297.6</ele>
        <time>2024-07-02T08:37:24Z</time>
      </trkpt>
      <trkpt lat="44.88341" lon="5.23726">
        <ele>1297.6</ele>
        <time>2024-07-02T08:37:25Z</time>
      </trkpt>
      <trkpt lat="44.8834" lon="5.23727">
        <ele>1297.6</ele>
        <time>2024-07-02T08:37:26Z</time>
      </trkpt>
      <trkpt lat="44.88338" lon="5.23729">
        <ele>1297.6</ele>
        <time>2024-07-02T08:37:27Z</time>
      </trkpt>
      <trkpt lat="44.88337" lon="5.23729">
        <ele>1297.6</ele>
        <time>2024-07-02T08:37:28Z</time>
      </trkpt>
      <trkpt lat="44.88336" lon="5.2373">
        <ele>1297.6</ele>
        <time>2024-07-02T08:37:29Z</time>
      </trkpt>
      <trkpt lat="44.88335" lon="5.2373">
        <ele>1297.6</ele>
        <time>2024-07-02T08:37:30Z</time>
      </trkpt>
      <trkpt lat="44.88334" lon="5.23731">
        <ele>1297.6</ele>
        <time>2024-07-02T08:37:31Z</time>
      </trkpt>
      <trkpt lat="44.88333" lon="5.23732">
        <ele>1297.6</ele>
        <time>2024-07-02T08:37:32Z</time>
      </trkpt>
      <trkpt lat="44.88332" lon="5.23732">
        <ele>1297.6</ele>
        <time>2024-07-02T08:37:33Z</time>
      </trkpt>
      <trkpt lat="44.88331" lon="5.23733">
        <ele>1297.6</ele>
        <time>2024-07-02T08:37:34Z</time>
      </trkpt>
      <trkpt lat="44.8833" lon="5.23733">
        <ele>1297.6</ele>
        <time>2024-07-02T08:37:35Z</time>
      </trkpt>
      <trkpt lat="44.88328" lon="5.23734">
        <ele>1297.6</ele>
        <time>2024-07-02T08:37:36Z</time>
      </trkpt>
      <trkpt lat="44.88327" lon="5.23734">
        <ele>1297.6</ele>
        <time>2024-07-02T08:37:37Z</time>
      </trkpt>
      <trkpt lat="44.88326" lon="5.23735">
        <ele>1297.6</ele>
        <time>2024-07-02T08:37:38Z</time>
      </trkpt>
      <trkpt lat="44.88325" lon="5.23737">
        <ele>1297.6</ele>
        <time>2024-07-02T08:37:39Z</time>
      </trkpt>
      <trkpt lat="44.88324" lon="5.23737">
        <ele>1297.6</ele>
        <time>2024-07-02T08:37:40Z</time>
      </trkpt>
      <trkpt lat="44.88323" lon="5.23738">
        <ele>1297.6</ele>
        <time>2024-07-02T08:37:41Z</time>
      </trkpt>
      <trkpt lat="44.88322" lon="5.23739">
        <ele>1297.5</ele>
        <time>2024-07-02T08:37:42Z</time>
      </trkpt>
      <trkpt lat="44.88321" lon="5.2374">
        <ele>1297.5</ele>
        <time>2024-07-02T08:37:43Z</time>
      </trkpt>
      <trkpt lat="44.8832" lon="5.23741">
        <ele>1297.5</ele>
        <time>2024-07-02T08:37:44Z</time>
      </trkpt>
      <trkpt lat="44.88319" lon="5.23742">
        <ele>1297.5</ele>
        <time>2024-07-02T08:37:45Z</time>
      </trkpt>
      <trkpt lat="44.88318" lon="5.23744">
        <ele>1297.5</ele>
        <time>2024-07-02T08:37:46Z</time>
      </trkpt>
      <trkpt lat="44.88317" lon="5.23744">
        <ele>1297.5</ele>
        <time>2024-07-02T08:37:47Z</time>
      </trkpt>
      <trkpt lat="44.88316" lon="5.23745">
        <ele>1297.5</ele>
        <time>2024-07-02T08:37:48Z</time>
      </trkpt>
      <trkpt lat="44.88316" lon="5.23747">
        <ele>1297.4</ele>
        <time>2024-07-02T08:37:49Z</time>
      </trkpt>
      <trkpt lat="44.88314" lon="5.23749">
        <ele>1297.4</ele>
        <time>2024-07-02T08:37:50Z</time>
      </trkpt>
      <trkpt lat="44.88313" lon="5.2375">
        <ele>1297.4</ele>
        <time>2024-07-02T08:37:51Z</time>
      </trkpt>
      <trkpt lat="44.88313" lon="5.23751">
        <ele>1297.4</ele>
        <time>2024-07-02T08:37:52Z</time>
      </trkpt>
      <trkpt lat="44.88311" lon="5.23753">
        <ele>1297.4</ele>
        <time>2024-07-02T08:37:53Z</time>
      </trkpt>
      <trkpt lat="44.88311" lon="5.23754">
        <ele>1297.4</ele>
        <time>2024-07-02T08:37:54Z</time>
      </trkpt>
      <trkpt lat="44.8831" lon="5.23754">
        <ele>1297.3</ele>
        <time>2024-07-02T08:37:55Z</time>
      </trkpt>
      <trkpt lat="44.88309" lon="5.23757">
        <ele>1297.3</ele>
        <time>2024-07-02T08:37:56Z</time>
      </trkpt>
      <trkpt lat="44.88308" lon="5.23757">
        <ele>1297.3</ele>
        <time>2024-07-02T08:37:57Z</time>
      </trkpt>
      <trkpt lat="44.88308" lon="5.23758">
        <ele>1297.3</ele>
        <time>2024-07-02T08:37:58Z</time>
      </trkpt>
      <trkpt lat="44.88306" lon="5.23761">
        <ele>1297.3</ele>
        <time>2024-07-02T08:37:59Z</time>
      </trkpt>
      <trkpt lat="44.88305" lon="5.23762">
        <ele>1297.3</ele>
        <time>2024-07-02T08:38:00Z</time>
      </trkpt>
      <trkpt lat="44.88304" lon="5.23763">
        <ele>1297.2</ele>
        <time>2024-07-02T08:38:01Z</time>
      </trkpt>
      <trkpt lat="44.88304" lon="5.23763">
        <ele>1297.2</ele>
        <time>2024-07-02T08:38:02Z</time>
      </trkpt>
      <trkpt lat="44.88303" lon="5.23764">
        <ele>1297.2</ele>
        <time>2024-07-02T08:38:03Z</time>
      </trkpt>
      <trkpt lat="44.88302" lon="5.23765">
        <ele>1297.2</ele>
        <time>2024-07-02T08:38:04Z</time>
      </trkpt>
      <trkpt lat="44.88301" lon="5.23766">
        <ele>1297.2</ele>
        <time>2024-07-02T08:38:05Z</time>
      </trkpt>
      <trkpt lat="44.883" lon="5.23767">
        <ele>1297.2</ele>
        <time>2024-07-02T08:38:06Z</time>
      </trkpt>
      <trkpt lat="44.88299" lon="5.23768">
        <ele>1297.2</ele>
        <time>2024-07-02T08:38:07Z</time>
      </trkpt>
      <trkpt lat="44.88298" lon="5.23769">
        <ele>1297.2</ele>
        <time>2024-07-02T08:38:08Z</time>
      </trkpt>
      <trkpt lat="44.88297" lon="5.2377">
        <ele>1297.2</ele>
        <time>2024-07-02T08:38:09Z</time>
      </trkpt>
      <trkpt lat="44.88296" lon="5.2377">
        <ele>1297.2</ele>
        <time>2024-07-02T08:38:10Z</time>
      </trkpt>
      <trkpt lat="44.88295" lon="5.2377">
        <ele>1297.2</ele>
        <time>2024-07-02T08:38:11Z</time>
      </trkpt>
      <trkpt lat="44.88294" lon="5.23771">
        <ele>1297.2</ele>
        <time>2024-07-02T08:38:12Z</time>
      </trkpt>
      <trkpt lat="44.88292" lon="5.23773">
        <ele>1297.2</ele>
        <time>2024-07-02T08:38:13Z</time>
      </trkpt>
      <trkpt lat="44.88291" lon="5.23774">
        <ele>1297.2</ele>
        <time>2024-07-02T08:38:14Z</time>
      </trkpt>
      <trkpt lat="44.88291" lon="5.23774">
        <ele>1297.2</ele>
        <time>2024-07-02T08:38:15Z</time>
      </trkpt>
      <trkpt lat="44.88289" lon="5.23777">
        <ele>1297.2</ele>
        <time>2024-07-02T08:38:16Z</time>
      </trkpt>
      <trkpt lat="44.88288" lon="5.23777">
        <ele>1297.2</ele>
        <time>2024-07-02T08:38:17Z</time>
      </trkpt>
      <trkpt lat="44.88288" lon="5.23778">
        <ele>1297.2</ele>
        <time>2024-07-02T08:38:18Z</time>
      </trkpt>
      <trkpt lat="44.88286" lon="5.2378">
        <ele>1297.2</ele>
        <time>2024-07-02T08:38:19Z</time>
      </trkpt>
      <trkpt lat="44.88285" lon="5.23781">
        <ele>1297.2</ele>
        <time>2024-07-02T08:38:20Z</time>
      </trkpt>
      <trkpt lat="44.88284" lon="5.23782">
        <ele>1297.2</ele>
        <time>2024-07-02T08:38:21Z</time>
      </trkpt>
      <trkpt lat="44.88284" lon="5.23782">
        <ele>1297.2</ele>
        <time>2024-07-02T08:38:22Z</time>
      </trkpt>
      <trkpt lat="44.88283" lon="5.23784">
        <ele>1297.2</ele>
        <time>2024-07-02T08:38:23Z</time>
      </trkpt>
      <trkpt lat="44.88282" lon="5.23785">
        <ele>1297.2</ele>
        <time>2024-07-02T08:38:24Z</time>
      </trkpt>
      <trkpt lat="44.8828" lon="5.23787">
        <ele>1297.2</ele>
        <time>2024-07-02T08:38:25Z</time>
      </trkpt>
      <trkpt lat="44.88279" lon="5.23788">
        <ele>1297.2</ele>
        <time>2024-07-02T08:38:26Z</time>
      </trkpt>
      <trkpt lat="44.88278" lon="5.23788">
        <ele>1297.2</ele>
        <time>2024-07-02T08:38:27Z</time>
      </trkpt>
      <trkpt lat="44.88277" lon="5.2379">
        <ele>1297.2</ele>
        <time>2024-07-02T08:38:28Z</time>
      </trkpt>
      <trkpt lat="44.88276" lon="5.23791">
        <ele>1297.2</ele>
        <time>2024-07-02T08:38:29Z</time>
      </trkpt>
      <trkpt lat="44.88275" lon="5.23791">
        <ele>1297.2</ele>
        <time>2024-07-02T08:38:30Z</time>
      </trkpt>
      <trkpt lat="44.88274" lon="5.23793">
        <ele>1297.2</ele>
        <time>2024-07-02T08:38:31Z</time>
      </trkpt>
      <trkpt lat="44.88273" lon="5.23794">
        <ele>1297.2</ele>
        <time>2024-07-02T08:38:32Z</time>
      </trkpt>
      <trkpt lat="44.88272" lon="5.23795">
        <ele>1297.2</ele>
        <time>2024-07-02T08:38:33Z</time>
      </trkpt>
      <trkpt lat="44.8827" lon="5.23796">
        <ele>1297.2</ele>
        <time>2024-07-02T08:38:34Z</time>
      </trkpt>
      <trkpt lat="44.8827" lon="5.23797">
        <ele>1297.2</ele>
        <time>2024-07-02T08:38:35Z</time>
      </trkpt>
      <trkpt lat="44.88269" lon="5.23797">
        <ele>1297.2</ele>
        <time>2024-07-02T08:38:36Z</time>
      </trkpt>
      <trkpt lat="44.88268" lon="5.23798">
        <ele>1297.2</ele>
        <time>2024-07-02T08:38:37Z</time>
      </trkpt>
      <trkpt lat="44.88267" lon="5.23798">
        <ele>1297.2</ele>
        <time>2024-07-02T08:38:38Z</time>
      </trkpt>
      <trkpt lat="44.88266" lon="5.23799">
        <ele>1297.2</ele>
        <time>2024-07-02T08:38:39Z</time>
      </trkpt>
      <trkpt lat="44.88264" lon="5.238">
        <ele>1297.2</ele>
        <time>2024-07-02T08:38:40Z</time>
      </trkpt>
      <trkpt lat="44.88263" lon="5.23801">
        <ele>1297.2</ele>
        <time>2024-07-02T08:38:41Z</time>
      </trkpt>
      <trkpt lat="44.88262" lon="5.23801">
        <ele>1297.2</ele>
        <time>2024-07-02T08:38:42Z</time>
      </trkpt>
      <trkpt lat="44.88261" lon="5.23802">
        <ele>1297.2</ele>
        <time>2024-07-02T08:38:43Z</time>
      </trkpt>
      <trkpt lat="44.8826" lon="5.23803">
        <ele>1297.2</ele>
        <time>2024-07-02T08:38:44Z</time>
      </trkpt>
      <trkpt lat="44.88259" lon="5.23804">
        <ele>1297.2</ele>
        <time>2024-07-02T08:38:45Z</time>
      </trkpt>
      <trkpt lat="44.88257" lon="5.23805">
        <ele>1297.2</ele>
        <time>2024-07-02T08:38:46Z</time>
      </trkpt>
      <trkpt lat="44.88255" lon="5.23806">
        <ele>1297.2</ele>
        <time>2024-07-02T08:38:47Z</time>
      </trkpt>
      <trkpt lat="44.88255" lon="5.23807">
        <ele>1297.2</ele>
        <time>2024-07-02T08:38:48Z</time>
      </trkpt>
      <trkpt lat="44.88254" lon="5.23807">
        <ele>1297.2</ele>
        <time>2024-07-02T08:38:49Z</time>
      </trkpt>
      <trkpt lat="44.88252" lon="5.23809">
        <ele>1297.2</ele>
        <time>2024-07-02T08:38:50Z</time>
      </trkpt>
      <trkpt lat="44.88251" lon="5.23809">
        <ele>1297.2</ele>
        <time>2024-07-02T08:38:51Z</time>
      </trkpt>
      <trkpt lat="44.88251" lon="5.2381">
        <ele>1297.2</ele>
        <time>2024-07-02T08:38:52Z</time>
      </trkpt>
      <trkpt lat="44.88249" lon="5.23812">
        <ele>1297.2</ele>
        <time>2024-07-02T08:38:53Z</time>
      </trkpt>
      <trkpt lat="44.88248" lon="5.23812">
        <ele>1297.2</ele>
        <time>2024-07-02T08:38:54Z</time>
      </trkpt>
      <trkpt lat="44.88247" lon="5.23813">
        <ele>1297.2</ele>
        <time>2024-07-02T08:38:55Z</time>
      </trkpt>
      <trkpt lat="44.88245" lon="5.23814">
        <ele>1297.2</ele>
        <time>2024-07-02T08:38:56Z</time>
      </trkpt>
      <trkpt lat="44.88245" lon="5.23815">
        <ele>1297.2</ele>
        <time>2024-07-02T08:38:57Z</time>
      </trkpt>
      <trkpt lat="44.88244" lon="5.23816">
        <ele>1297.2</ele>
        <time>2024-07-02T08:38:58Z</time>
      </trkpt>
      <trkpt lat="44.88242" lon="5.23816">
        <ele>1297.2</ele>
        <time>2024-07-02T08:38:59Z</time>
      </trkpt>
      <trkpt lat="44.88241" lon="5.23817">
        <ele>1297.2</ele>
        <time>2024-07-02T08:39:00Z</time>
      </trkpt>
      <trkpt lat="44.8824" lon="5.23817">
        <ele>1297.2</ele>
        <time>2024-07-02T08:39:01Z</time>
      </trkpt>
      <trkpt lat="44.88238" lon="5.23818">
        <ele>1297.2</ele>
        <time>2024-07-02T08:39:02Z</time>
      </trkpt>
      <trkpt lat="44.88238" lon="5.23819">
        <ele>1297.2</ele>
        <time>2024-07-02T08:39:03Z</time>
      </trkpt>
      <trkpt lat="44.88237" lon="5.23819">
        <ele>1297.2</ele>
        <time>2024-07-02T08:39:04Z</time>
      </trkpt>
      <trkpt lat="44.88235" lon="5.2382">
        <ele>1297.2</ele>
        <time>2024-07-02T08:39:05Z</time>
      </trkpt>
      <trkpt lat="44.88234" lon="5.23821">
        <ele>1297.2</ele>
        <time>2024-07-02T08:39:06Z</time>
      </trkpt>
      <trkpt lat="44.88233" lon="5.23822">
        <ele>1297.2</ele>
        <time>2024-07-02T08:39:07Z</time>
      </trkpt>
      <trkpt lat="44.88232" lon="5.23822">
        <ele>1297.2</ele>
        <time>2024-07-02T08:39:08Z</time>
      </trkpt>
      <trkpt lat="44.88231" lon="5.23823">
        <ele>1297.2</ele>
        <time>2024-07-02T08:39:09Z</time>
      </trkpt>
      <trkpt lat="44.8823" lon="5.23824">
        <ele>1297.2</ele>
        <time>2024-07-02T08:39:10Z</time>
      </trkpt>
      <trkpt lat="44.88228" lon="5.23825">
        <ele>1297.2</ele>
        <time>2024-07-02T08:39:11Z</time>
      </trkpt>
      <trkpt lat="44.88227" lon="5.23826">
        <ele>1297.2</ele>
        <time>2024-07-02T08:39:12Z</time>
      </trkpt>
      <trkpt lat="44.88227" lon="5.23826">
        <ele>1297.2</ele>
        <time>2024-07-02T08:39:13Z</time>
      </trkpt>
      <trkpt lat="44.88226" lon="5.23827">
        <ele>1297.3</ele>
        <time>2024-07-02T08:39:14Z</time>
      </trkpt>
      <trkpt lat="44.88225" lon="5.23828">
        <ele>1297.3</ele>
        <time>2024-07-02T08:39:15Z</time>
      </trkpt>
      <trkpt lat="44.88224" lon="5.23829">
        <ele>1297.3</ele>
        <time>2024-07-02T08:39:16Z</time>
      </trkpt>
      <trkpt lat="44.88223" lon="5.2383">
        <ele>1297.3</ele>
        <time>2024-07-02T08:39:17Z</time>
      </trkpt>
      <trkpt lat="44.88222" lon="5.23831">
        <ele>1297.3</ele>
        <time>2024-07-02T08:39:18Z</time>
      </trkpt>
      <trkpt lat="44.88221" lon="5.23832">
        <ele>1297.3</ele>
        <time>2024-07-02T08:39:19Z</time>
      </trkpt>
      <trkpt lat="44.88221" lon="5.23833">
        <ele>1297.4</ele>
        <time>2024-07-02T08:39:20Z</time>
      </trkpt>
      <trkpt lat="44.8822" lon="5.23835">
        <ele>1297.4</ele>
        <time>2024-07-02T08:39:21Z</time>
      </trkpt>
      <trkpt lat="44.88219" lon="5.23836">
        <ele>1297.4</ele>
        <time>2024-07-02T08:39:22Z</time>
      </trkpt>
      <trkpt lat="44.88218" lon="5.23838">
        <ele>1297.4</ele>
        <time>2024-07-02T08:39:23Z</time>
      </trkpt>
      <trkpt lat="44.88217" lon="5.23839">
        <ele>1297.4</ele>
        <time>2024-07-02T08:39:24Z</time>
      </trkpt>
      <trkpt lat="44.88217" lon="5.2384">
        <ele>1297.5</ele>
        <time>2024-07-02T08:39:25Z</time>
      </trkpt>
      <trkpt lat="44.88216" lon="5.23842">
        <ele>1297.5</ele>
        <time>2024-07-02T08:39:26Z</time>
      </trkpt>
      <trkpt lat="44.88215" lon="5.23843">
        <ele>1297.5</ele>
        <time>2024-07-02T08:39:27Z</time>
      </trkpt>
      <trkpt lat="44.88215" lon="5.23844">
        <ele>1297.5</ele>
        <time>2024-07-02T08:39:28Z</time>
      </trkpt>
      <trkpt lat="44.88214" lon="5.23845">
        <ele>1297.5</ele>
        <time>2024-07-02T08:39:29Z</time>
      </trkpt>
      <trkpt lat="44.88213" lon="5.23846">
        <ele>1297.6</ele>
        <time>2024-07-02T08:39:30Z</time>
      </trkpt>
      <trkpt lat="44.88212" lon="5.23848">
        <ele>1297.6</ele>
        <time>2024-07-02T08:39:31Z</time>
      </trkpt>
      <trkpt lat="44.88211" lon="5.23849">
        <ele>1297.6</ele>
        <time>2024-07-02T08:39:32Z</time>
      </trkpt>
      <trkpt lat="44.8821" lon="5.2385">
        <ele>1297.6</ele>
        <time>2024-07-02T08:39:33Z</time>
      </trkpt>
      <trkpt lat="44.88209" lon="5.23851">
        <ele>1297.6</ele>
        <time>2024-07-02T08:39:34Z</time>
      </trkpt>
      <trkpt lat="44.88209" lon="5.23852">
        <ele>1297.6</ele>
        <time>2024-07-02T08:39:35Z</time>
      </trkpt>
      <trkpt lat="44.88207" lon="5.23854">
        <ele>1297.6</ele>
        <time>2024-07-02T08:39:36Z</time>
      </trkpt>
      <trkpt lat="44.88207" lon="5.23855">
        <ele>1297.6</ele>
        <time>2024-07-02T08:39:37Z</time>
      </trkpt>
      <trkpt lat="44.88206" lon="5.23856">
        <ele>1297.6</ele>
        <time>2024-07-02T08:39:38Z</time>
      </trkpt>
      <trkpt lat="44.88205" lon="5.23857">
        <ele>1297.6</ele>
        <time>2024-07-02T08:39:39Z</time>
      </trkpt>
      <trkpt lat="44.88205" lon="5.23859">
        <ele>1297.6</ele>
        <time>2024-07-02T08:39:40Z</time>
      </trkpt>
      <trkpt lat="44.88204" lon="5.2386">
        <ele>1297.6</ele>
        <time>2024-07-02T08:39:41Z</time>
      </trkpt>
      <trkpt lat="44.88203" lon="5.23862">
        <ele>1297.6</ele>
        <time>2024-07-02T08:39:42Z</time>
      </trkpt>
      <trkpt lat="44.88202" lon="5.23863">
        <ele>1297.6</ele>
        <time>2024-07-02T08:39:43Z</time>
      </trkpt>
      <trkpt lat="44.88202" lon="5.23864">
        <ele>1297.6</ele>
        <time>2024-07-02T08:39:44Z</time>
      </trkpt>
      <trkpt lat="44.882" lon="5.23866">
        <ele>1297.7</ele>
        <time>2024-07-02T08:39:45Z</time>
      </trkpt>
      <trkpt lat="44.882" lon="5.23867">
        <ele>1297.7</ele>
        <time>2024-07-02T08:39:46Z</time>
      </trkpt>
      <trkpt lat="44.88199" lon="5.23868">
        <ele>1297.7</ele>
        <time>2024-07-02T08:39:47Z</time>
      </trkpt>
      <trkpt lat="44.88198" lon="5.23869">
        <ele>1297.7</ele>
        <time>2024-07-02T08:39:48Z</time>
      </trkpt>
      <trkpt lat="44.88198" lon="5.23871">
        <ele>1297.7</ele>
        <time>2024-07-02T08:39:49Z</time>
      </trkpt>
      <trkpt lat="44.88198" lon="5.23872">
        <ele>1297.7</ele>
        <time>2024-07-02T08:39:50Z</time>
      </trkpt>
      <trkpt lat="44.88197" lon="5.23873">
        <ele>1297.7</ele>
        <time>2024-07-02T08:39:51Z</time>
      </trkpt>
      <trkpt lat="44.88196" lon="5.23875">
        <ele>1297.7</ele>
        <time>2024-07-02T08:39:52Z</time>
      </trkpt>
      <trkpt lat="44.88196" lon="5.23876">
        <ele>1297.7</ele>
        <time>2024-07-02T08:39:53Z</time>
      </trkpt>
      <trkpt lat="44.88194" lon="5.23878">
        <ele>1297.7</ele>
        <time>2024-07-02T08:39:54Z</time>
      </trkpt>
      <trkpt lat="44.88194" lon="5.23879">
        <ele>1297.7</ele>
        <time>2024-07-02T08:39:55Z</time>
      </trkpt>
      <trkpt lat="44.88193" lon="5.2388">
        <ele>1297.8</ele>
        <time>2024-07-02T08:39:56Z</time>
      </trkpt>
      <trkpt lat="44.88192" lon="5.23881">
        <ele>1297.8</ele>
        <time>2024-07-02T08:39:57Z</time>
      </trkpt>
      <trkpt lat="44.88191" lon="5.23883">
        <ele>1297.8</ele>
        <time>2024-07-02T08:39:58Z</time>
      </trkpt>
      <trkpt lat="44.88189" lon="5.23884">
        <ele>1297.8</ele>
        <time>2024-07-02T08:39:59Z</time>
      </trkpt>
      <trkpt lat="44.88188" lon="5.23885">
        <ele>1297.9</ele>
        <time>2024-07-02T08:40:00Z</time>
      </trkpt>
      <trkpt lat="44.88188" lon="5.23886">
        <ele>1297.9</ele>
        <time>2024-07-02T08:40:01Z</time>
      </trkpt>
      <trkpt lat="44.88186" lon="5.23887">
        <ele>1297.9</ele>
        <time>2024-07-02T08:40:02Z</time>
      </trkpt>
      <trkpt lat="44.88184" lon="5.23888">
        <ele>1298</ele>
        <time>2024-07-02T08:40:03Z</time>
      </trkpt>
      <trkpt lat="44.88184" lon="5.23888">
        <ele>1298</ele>
        <time>2024-07-02T08:40:04Z</time>
      </trkpt>
      <trkpt lat="44.88182" lon="5.23889">
        <ele>1298</ele>
        <time>2024-07-02T08:40:05Z</time>
      </trkpt>
      <trkpt lat="44.88181" lon="5.2389">
        <ele>1298.1</ele>
        <time>2024-07-02T08:40:06Z</time>
      </trkpt>
      <trkpt lat="44.8818" lon="5.23891">
        <ele>1298.1</ele>
        <time>2024-07-02T08:40:07Z</time>
      </trkpt>
      <trkpt lat="44.88179" lon="5.23891">
        <ele>1298.1</ele>
        <time>2024-07-02T08:40:08Z</time>
      </trkpt>
      <trkpt lat="44.88177" lon="5.23893">
        <ele>1298.2</ele>
        <time>2024-07-02T08:40:09Z</time>
      </trkpt>
      <trkpt lat="44.88176" lon="5.23894">
        <ele>1298.2</ele>
        <time>2024-07-02T08:40:10Z</time>
      </trkpt>
      <trkpt lat="44.88176" lon="5.23894">
        <ele>1298.2</ele>
        <time>2024-07-02T08:40:11Z</time>
      </trkpt>
      <trkpt lat="44.88174" lon="5.23895">
        <ele>1298.3</ele>
        <time>2024-07-02T08:40:12Z</time>
      </trkpt>
      <trkpt lat="44.88173" lon="5.23897">
        <ele>1298.3</ele>
        <time>2024-07-02T08:40:13Z</time>
      </trkpt>
      <trkpt lat="44.88172" lon="5.23898">
        <ele>1298.4</ele>
        <time>2024-07-02T08:40:14Z</time>
      </trkpt>
      <trkpt lat="44.88171" lon="5.23898">
        <ele>1298.4</ele>
        <time>2024-07-02T08:40:15Z</time>
      </trkpt>
      <trkpt lat="44.8817" lon="5.23899">
        <ele>1298.4</ele>
        <time>2024-07-02T08:40:16Z</time>
      </trkpt>
      <trkpt lat="44.88168" lon="5.23899">
        <ele>1298.5</ele>
        <time>2024-07-02T08:40:17Z</time>
      </trkpt>
      <trkpt lat="44.88167" lon="5.23899">
        <ele>1298.5</ele>
        <time>2024-07-02T08:40:18Z</time>
      </trkpt>
      <trkpt lat="44.88166" lon="5.239">
        <ele>1298.6</ele>
        <time>2024-07-02T08:40:19Z</time>
      </trkpt>
      <trkpt lat="44.88165" lon="5.239">
        <ele>1298.6</ele>
        <time>2024-07-02T08:40:20Z</time>
      </trkpt>
      <trkpt lat="44.88164" lon="5.239">
        <ele>1298.6</ele>
        <time>2024-07-02T08:40:21Z</time>
      </trkpt>
      <trkpt lat="44.88163" lon="5.239">
        <ele>1298.7</ele>
        <time>2024-07-02T08:40:22Z</time>
      </trkpt>
      <trkpt lat="44.88161" lon="5.239">
        <ele>1298.7</ele>
        <time>2024-07-02T08:40:23Z</time>
      </trkpt>
      <trkpt lat="44.8816" lon="5.23901">
        <ele>1298.8</ele>
        <time>2024-07-02T08:40:24Z</time>
      </trkpt>
      <trkpt lat="44.88159" lon="5.23901">
        <ele>1298.8</ele>
        <time>2024-07-02T08:40:25Z</time>
      </trkpt>
      <trkpt lat="44.88158" lon="5.23901">
        <ele>1298.8</ele>
        <time>2024-07-02T08:40:26Z</time>
      </trkpt>
      <trkpt lat="44.88157" lon="5.23901">
        <ele>1298.9</ele>
        <time>2024-07-02T08:40:27Z</time>
      </trkpt>
      <trkpt lat="44.88156" lon="5.23902">
        <ele>1298.9</ele>
        <time>2024-07-02T08:40:28Z</time>
      </trkpt>
      <trkpt lat="44.88154" lon="5.23902">
        <ele>1299</ele>
        <time>2024-07-02T08:40:29Z</time>
      </trkpt>
      <trkpt lat="44.88153" lon="5.23902">
        <ele>1299</ele>
        <time>2024-07-02T08:40:30Z</time>
      </trkpt>
      <trkpt lat="44.88152" lon="5.23903">
        <ele>1299.1</ele>
        <time>2024-07-02T08:40:31Z</time>
      </trkpt>
      <trkpt lat="44.88151" lon="5.23903">
        <ele>1299.1</ele>
        <time>2024-07-02T08:40:32Z</time>
      </trkpt>
      <trkpt lat="44.88149" lon="5.23904">
        <ele>1299.2</ele>
        <time>2024-07-02T08:40:33Z</time>
      </trkpt>
      <trkpt lat="44.88148" lon="5.23904">
        <ele>1299.2</ele>
        <time>2024-07-02T08:40:34Z</time>
      </trkpt>
      <trkpt lat="44.88147" lon="5.23904">
        <ele>1299.3</ele>
        <time>2024-07-02T08:40:35Z</time>
      </trkpt>
      <trkpt lat="44.88146" lon="5.23904">
        <ele>1299.4</ele>
        <time>2024-07-02T08:40:36Z</time>
      </trkpt>
      <trkpt lat="44.88145" lon="5.23904">
        <ele>1299.4</ele>
        <time>2024-07-02T08:40:37Z</time>
      </trkpt>
      <trkpt lat="44.88143" lon="5.23905">
        <ele>1299.5</ele>
        <time>2024-07-02T08:40:38Z</time>
      </trkpt>
      <trkpt lat="44.88142" lon="5.23905">
        <ele>1299.5</ele>
        <time>2024-07-02T08:40:39Z</time>
      </trkpt>
      <trkpt lat="44.88141" lon="5.23905">
        <ele>1299.6</ele>
        <time>2024-07-02T08:40:40Z</time>
      </trkpt>
      <trkpt lat="44.8814" lon="5.23906">
        <ele>1299.6</ele>
        <time>2024-07-02T08:40:41Z</time>
      </trkpt>
      <trkpt lat="44.88139" lon="5.23906">
        <ele>1299.7</ele>
        <time>2024-07-02T08:40:42Z</time>
      </trkpt>
      <trkpt lat="44.88137" lon="5.23907">
        <ele>1299.8</ele>
        <time>2024-07-02T08:40:43Z</time>
      </trkpt>
      <trkpt lat="44.88135" lon="5.23907">
        <ele>1299.8</ele>
        <time>2024-07-02T08:40:44Z</time>
      </trkpt>
      <trkpt lat="44.88134" lon="5.23907">
        <ele>1299.9</ele>
        <time>2024-07-02T08:40:45Z</time>
      </trkpt>
      <trkpt lat="44.88133" lon="5.23907">
        <ele>1299.9</ele>
        <time>2024-07-02T08:40:46Z</time>
      </trkpt>
      <trkpt lat="44.88132" lon="5.23907">
        <ele>1299.9</ele>
        <time>2024-07-02T08:40:47Z</time>
      </trkpt>
      <trkpt lat="44.8813" lon="5.23907">
        <ele>1300</ele>
        <time>2024-07-02T08:40:48Z</time>
      </trkpt>
      <trkpt lat="44.88128" lon="5.23907">
        <ele>1300</ele>
        <time>2024-07-02T08:40:49Z</time>
      </trkpt>
      <trkpt lat="44.88127" lon="5.23907">
        <ele>1300</ele>
        <time>2024-07-02T08:40:50Z</time>
      </trkpt>
      <trkpt lat="44.88127" lon="5.23908">
        <ele>1300</ele>
        <time>2024-07-02T08:40:51Z</time>
      </trkpt>
      <trkpt lat="44.88125" lon="5.23908">
        <ele>1300</ele>
        <time>2024-07-02T08:40:52Z</time>
      </trkpt>
      <trkpt lat="44.88124" lon="5.23908">
        <ele>1300</ele>
        <time>2024-07-02T08:40:53Z</time>
      </trkpt>
      <trkpt lat="44.88122" lon="5.23909">
        <ele>1300</ele>
        <time>2024-07-02T08:40:54Z</time>
      </trkpt>
      <trkpt lat="44.88121" lon="5.23909">
        <ele>1300</ele>
        <time>2024-07-02T08:40:55Z</time>
      </trkpt>
      <trkpt lat="44.8812" lon="5.23909">
        <ele>1300</ele>
        <time>2024-07-02T08:40:56Z</time>
      </trkpt>
      <trkpt lat="44.88119" lon="5.23909">
        <ele>1300</ele>
        <time>2024-07-02T08:40:57Z</time>
      </trkpt>
      <trkpt lat="44.88117" lon="5.2391">
        <ele>1300</ele>
        <time>2024-07-02T08:40:58Z</time>
      </trkpt>
      <trkpt lat="44.88115" lon="5.23911">
        <ele>1300</ele>
        <time>2024-07-02T08:40:59Z</time>
      </trkpt>
      <trkpt lat="44.88115" lon="5.23912">
        <ele>1300</ele>
        <time>2024-07-02T08:41:00Z</time>
      </trkpt>
      <trkpt lat="44.88114" lon="5.23912">
        <ele>1299.9</ele>
        <time>2024-07-02T08:41:01Z</time>
      </trkpt>
      <trkpt lat="44.88112" lon="5.23913">
        <ele>1299.9</ele>
        <time>2024-07-02T08:41:02Z</time>
      </trkpt>
      <trkpt lat="44.88111" lon="5.23913">
        <ele>1299.9</ele>
        <time>2024-07-02T08:41:03Z</time>
      </trkpt>
      <trkpt lat="44.8811" lon="5.23914">
        <ele>1299.9</ele>
        <time>2024-07-02T08:41:04Z</time>
      </trkpt>
      <trkpt lat="44.88108" lon="5.23914">
        <ele>1299.8</ele>
        <time>2024-07-02T08:41:05Z</time>
      </trkpt>
      <trkpt lat="44.88107" lon="5.23914">
        <ele>1299.8</ele>
        <time>2024-07-02T08:41:06Z</time>
      </trkpt>
      <trkpt lat="44.88106" lon="5.23914">
        <ele>1299.8</ele>
        <time>2024-07-02T08:41:07Z</time>
      </trkpt>
      <trkpt lat="44.88105" lon="5.23914">
        <ele>1299.8</ele>
        <time>2024-07-02T08:41:08Z</time>
      </trkpt>
      <trkpt lat="44.88104" lon="5.23914">
        <ele>1299.8</ele>
        <time>2024-07-02T08:41:09Z</time>
      </trkpt>
      <trkpt lat="44.88103" lon="5.23914">
        <ele>1299.8</ele>
        <time>2024-07-02T08:41:10Z</time>
      </trkpt>
      <trkpt lat="44.88102" lon="5.23915">
        <ele>1299.8</ele>
        <time>2024-07-02T08:41:11Z</time>
      </trkpt>
      <trkpt lat="44.88101" lon="5.23915">
        <ele>1299.8</ele>
        <time>2024-07-02T08:41:12Z</time>
      </trkpt>
      <trkpt lat="44.881" lon="5.23915">
        <ele>1299.7</ele>
        <time>2024-07-02T08:41:13Z</time>
      </trkpt>
      <trkpt lat="44.88099" lon="5.23916">
        <ele>1299.7</ele>
        <time>2024-07-02T08:41:14Z</time>
      </trkpt>
      <trkpt lat="44.88097" lon="5.23916">
        <ele>1299.7</ele>
        <time>2024-07-02T08:41:15Z</time>
      </trkpt>
      <trkpt lat="44.88096" lon="5.23916">
        <ele>1299.8</ele>
        <time>2024-07-02T08:41:16Z</time>
      </trkpt>
      <trkpt lat="44.88095" lon="5.23915">
        <ele>1299.8</ele>
        <time>2024-07-02T08:41:17Z</time>
      </trkpt>
      <trkpt lat="44.88094" lon="5.23915">
        <ele>1299.8</ele>
        <time>2024-07-02T08:41:18Z</time>
      </trkpt>
      <trkpt lat="44.88093" lon="5.23915">
        <ele>1299.8</ele>
        <time>2024-07-02T08:41:19Z</time>
      </trkpt>
      <trkpt lat="44.88092" lon="5.23916">
        <ele>1299.8</ele>
        <time>2024-07-02T08:41:20Z</time>
      </trkpt>
      <trkpt lat="44.88091" lon="5.23916">
        <ele>1299.8</ele>
        <time>2024-07-02T08:41:21Z</time>
      </trkpt>
      <trkpt lat="44.88089" lon="5.23916">
        <ele>1299.8</ele>
        <time>2024-07-02T08:41:22Z</time>
      </trkpt>
      <trkpt lat="44.88088" lon="5.23915">
        <ele>1299.9</ele>
        <time>2024-07-02T08:41:23Z</time>
      </trkpt>
      <trkpt lat="44.88088" lon="5.23915">
        <ele>1299.9</ele>
        <time>2024-07-02T08:41:24Z</time>
      </trkpt>
      <trkpt lat="44.88087" lon="5.23915">
        <ele>1299.9</ele>
        <time>2024-07-02T08:41:25Z</time>
      </trkpt>
      <trkpt lat="44.88086" lon="5.23916">
        <ele>1299.9</ele>
        <time>2024-07-02T08:41:26Z</time>
      </trkpt>
      <trkpt lat="44.88085" lon="5.23916">
        <ele>1299.9</ele>
        <time>2024-07-02T08:41:27Z</time>
      </trkpt>
      <trkpt lat="44.88084" lon="5.23916">
        <ele>1300</ele>
        <time>2024-07-02T08:41:28Z</time>
      </trkpt>
      <trkpt lat="44.88083" lon="5.23917">
        <ele>1300</ele>
        <time>2024-07-02T08:41:29Z</time>
      </trkpt>
      <trkpt lat="44.88084" lon="5.23919">
        <ele>1300.1</ele>
        <time>2024-07-02T08:41:30Z</time>
      </trkpt>
      <trkpt lat="44.88086" lon="5.2392">
        <ele>1300.2</ele>
        <time>2024-07-02T08:41:31Z</time>
      </trkpt>
      <trkpt lat="44.88087" lon="5.23921">
        <ele>1300.2</ele>
        <time>2024-07-02T08:41:32Z</time>
      </trkpt>
      <trkpt lat="44.88091" lon="5.23922">
        <ele>1300.4</ele>
        <time>2024-07-02T08:41:33Z</time>
      </trkpt>
      <trkpt lat="44.88093" lon="5.23923">
        <ele>1300.5</ele>
        <time>2024-07-02T08:41:34Z</time>
      </trkpt>
      <trkpt lat="44.88093" lon="5.23923">
        <ele>1300.5</ele>
        <time>2024-07-02T08:41:35Z</time>
      </trkpt>
      <trkpt lat="44.88092" lon="5.23923">
        <ele>1300.6</ele>
        <time>2024-07-02T08:41:36Z</time>
      </trkpt>
      <trkpt lat="44.88092" lon="5.23923">
        <ele>1300.6</ele>
        <time>2024-07-02T08:41:37Z</time>
      </trkpt>
      <trkpt lat="44.88091" lon="5.23923">
        <ele>1300.6</ele>
        <time>2024-07-02T08:41:38Z</time>
      </trkpt>
      <trkpt lat="44.88091" lon="5.23923">
        <ele>1300.6</ele>
        <time>2024-07-02T08:41:39Z</time>
      </trkpt>
      <trkpt lat="44.88091" lon="5.23923">
        <ele>1300.6</ele>
        <time>2024-07-02T08:41:40Z</time>
      </trkpt>
      <trkpt lat="44.8809" lon="5.23923">
        <ele>1300.7</ele>
        <time>2024-07-02T08:41:41Z</time>
      </trkpt>
      <trkpt lat="44.8809" lon="5.23923">
        <ele>1300.7</ele>
        <time>2024-07-02T08:41:42Z</time>
      </trkpt>
      <trkpt lat="44.8809" lon="5.23923">
        <ele>1300.7</ele>
        <time>2024-07-02T08:41:43Z</time>
      </trkpt>
      <trkpt lat="44.88089" lon="5.23923">
        <ele>1300.7</ele>
        <time>2024-07-02T08:41:44Z</time>
      </trkpt>
      <trkpt lat="44.88089" lon="5.23923">
        <ele>1300.7</ele>
        <time>2024-07-02T08:41:45Z</time>
      </trkpt>
      <trkpt lat="44.88089" lon="5.23923">
        <ele>1300.8</ele>
        <time>2024-07-02T08:41:46Z</time>
      </trkpt>
      <trkpt lat="44.88088" lon="5.23923">
        <ele>1300.8</ele>
        <time>2024-07-02T08:41:47Z</time>
      </trkpt>
      <trkpt lat="44.88088" lon="5.23923">
        <ele>1300.8</ele>
        <time>2024-07-02T08:41:48Z</time>
      </trkpt>
      <trkpt lat="44.88088" lon="5.23923">
        <ele>1300.8</ele>
        <time>2024-07-02T08:41:49Z</time>
      </trkpt>
      <trkpt lat="44.88087" lon="5.23923">
        <ele>1300.9</ele>
        <time>2024-07-02T08:41:50Z</time>
      </trkpt>
      <trkpt lat="44.88087" lon="5.23923">
        <ele>1300.9</ele>
        <time>2024-07-02T08:41:51Z</time>
      </trkpt>
      <trkpt lat="44.88086" lon="5.23923">
        <ele>1300.9</ele>
        <time>2024-07-02T08:41:52Z</time>
      </trkpt>
      <trkpt lat="44.88086" lon="5.23923">
        <ele>1300.9</ele>
        <time>2024-07-02T08:41:53Z</time>
      </trkpt>
      <trkpt lat="44.88084" lon="5.23924">
        <ele>1301</ele>
        <time>2024-07-02T08:41:54Z</time>
      </trkpt>
      <trkpt lat="44.88083" lon="5.23925">
        <ele>1301.1</ele>
        <time>2024-07-02T08:41:55Z</time>
      </trkpt>
      <trkpt lat="44.8808" lon="5.23926">
        <ele>1301.3</ele>
        <time>2024-07-02T08:41:56Z</time>
      </trkpt>
      <trkpt lat="44.8808" lon="5.23927">
        <ele>1301.4</ele>
        <time>2024-07-02T08:41:57Z</time>
      </trkpt>
      <trkpt lat="44.88078" lon="5.23927">
        <ele>1301.5</ele>
        <time>2024-07-02T08:41:58Z</time>
      </trkpt>
      <trkpt lat="44.88076" lon="5.23927">
        <ele>1301.6</ele>
        <time>2024-07-02T08:41:59Z</time>
      </trkpt>
      <trkpt lat="44.88075" lon="5.23927">
        <ele>1301.7</ele>
        <time>2024-07-02T08:42:00Z</time>
      </trkpt>
      <trkpt lat="44.88073" lon="5.23928">
        <ele>1301.8</ele>
        <time>2024-07-02T08:42:01Z</time>
      </trkpt>
      <trkpt lat="44.88072" lon="5.23928">
        <ele>1301.9</ele>
        <time>2024-07-02T08:42:02Z</time>
      </trkpt>
      <trkpt lat="44.88071" lon="5.23927">
        <ele>1302</ele>
        <time>2024-07-02T08:42:03Z</time>
      </trkpt>
      <trkpt lat="44.8807" lon="5.23927">
        <ele>1302</ele>
        <time>2024-07-02T08:42:04Z</time>
      </trkpt>
      <trkpt lat="44.88068" lon="5.23928">
        <ele>1302.2</ele>
        <time>2024-07-02T08:42:05Z</time>
      </trkpt>
      <trkpt lat="44.88067" lon="5.23928">
        <ele>1302.3</ele>
        <time>2024-07-02T08:42:06Z</time>
      </trkpt>
      <trkpt lat="44.88066" lon="5.23928">
        <ele>1302.3</ele>
        <time>2024-07-02T08:42:07Z</time>
      </trkpt>
      <trkpt lat="44.88065" lon="5.23928">
        <ele>1302.4</ele>
        <time>2024-07-02T08:42:08Z</time>
      </trkpt>
      <trkpt lat="44.88064" lon="5.23929">
        <ele>1302.5</ele>
        <time>2024-07-02T08:42:09Z</time>
      </trkpt>
      <trkpt lat="44.88063" lon="5.23929">
        <ele>1302.6</ele>
        <time>2024-07-02T08:42:10Z</time>
      </trkpt>
      <trkpt lat="44.88061" lon="5.2393">
        <ele>1302.7</ele>
        <time>2024-07-02T08:42:11Z</time>
      </trkpt>
      <trkpt lat="44.8806" lon="5.2393">
        <ele>1302.8</ele>
        <time>2024-07-02T08:42:12Z</time>
      </trkpt>
      <trkpt lat="44.88059" lon="5.2393">
        <ele>1302.9</ele>
        <time>2024-07-02T08:42:13Z</time>
      </trkpt>
      <trkpt lat="44.88059" lon="5.2393">
        <ele>1303</ele>
        <time>2024-07-02T08:42:14Z</time>
      </trkpt>
      <trkpt lat="44.88058" lon="5.23931">
        <ele>1303.1</ele>
        <time>2024-07-02T08:42:15Z</time>
      </trkpt>
      <trkpt lat="44.88057" lon="5.23932">
        <ele>1303.2</ele>
        <time>2024-07-02T08:42:16Z</time>
      </trkpt>
      <trkpt lat="44.88056" lon="5.23932">
        <ele>1303.3</ele>
        <time>2024-07-02T08:42:17Z</time>
      </trkpt>
      <trkpt lat="44.88055" lon="5.23933">
        <ele>1303.4</ele>
        <time>2024-07-02T08:42:18Z</time>
      </trkpt>
      <trkpt lat="44.88054" lon="5.23933">
        <ele>1303.5</ele>
        <time>2024-07-02T08:42:19Z</time>
      </trkpt>
      <trkpt lat="44.88052" lon="5.23933">
        <ele>1303.6</ele>
        <time>2024-07-02T08:42:20Z</time>
      </trkpt>
      <trkpt lat="44.88051" lon="5.23934">
        <ele>1303.7</ele>
        <time>2024-07-02T08:42:21Z</time>
      </trkpt>
      <trkpt lat="44.8805" lon="5.23934">
        <ele>1303.9</ele>
        <time>2024-07-02T08:42:22Z</time>
      </trkpt>
      <trkpt lat="44.88049" lon="5.23934">
        <ele>1303.9</ele>
        <time>2024-07-02T08:42:23Z</time>
      </trkpt>
      <trkpt lat="44.88048" lon="5.23934">
        <ele>1304.1</ele>
        <time>2024-07-02T08:42:24Z</time>
      </trkpt>
      <trkpt lat="44.88047" lon="5.23934">
        <ele>1304.2</ele>
        <time>2024-07-02T08:42:25Z</time>
      </trkpt>
      <trkpt lat="44.88046" lon="5.23935">
        <ele>1304.3</ele>
        <time>2024-07-02T08:42:26Z</time>
      </trkpt>
      <trkpt lat="44.88045" lon="5.23935">
        <ele>1304.4</ele>
        <time>2024-07-02T08:42:27Z</time>
      </trkpt>
      <trkpt lat="44.88044" lon="5.23935">
        <ele>1304.5</ele>
        <time>2024-07-02T08:42:28Z</time>
      </trkpt>
      <trkpt lat="44.88043" lon="5.23935">
        <ele>1304.6</ele>
        <time>2024-07-02T08:42:29Z</time>
      </trkpt>
      <trkpt lat="44.88041" lon="5.23936">
        <ele>1304.7</ele>
        <time>2024-07-02T08:42:30Z</time>
      </trkpt>
      <trkpt lat="44.8804" lon="5.23936">
        <ele>1304.9</ele>
        <time>2024-07-02T08:42:31Z</time>
      </trkpt>
      <trkpt lat="44.88039" lon="5.23937">
        <ele>1305</ele>
        <time>2024-07-02T08:42:32Z</time>
      </trkpt>
      <trkpt lat="44.88038" lon="5.23937">
        <ele>1305.1</ele>
        <time>2024-07-02T08:42:33Z</time>
      </trkpt>
      <trkpt lat="44.88037" lon="5.23938">
        <ele>1305.2</ele>
        <time>2024-07-02T08:42:34Z</time>
      </trkpt>
      <trkpt lat="44.88036" lon="5.23938">
        <ele>1305.3</ele>
        <time>2024-07-02T08:42:35Z</time>
      </trkpt>
      <trkpt lat="44.88035" lon="5.23939">
        <ele>1305.5</ele>
        <time>2024-07-02T08:42:36Z</time>
      </trkpt>
      <trkpt lat="44.88034" lon="5.2394">
        <ele>1305.6</ele>
        <time>2024-07-02T08:42:37Z</time>
      </trkpt>
      <trkpt lat="44.88033" lon="5.23941">
        <ele>1305.7</ele>
        <time>2024-07-02T08:42:38Z</time>
      </trkpt>
      <trkpt lat="44.88032" lon="5.23942">
        <ele>1305.8</ele>
        <time>2024-07-02T08:42:39Z</time>
      </trkpt>
      <trkpt lat="44.88031" lon="5.23942">
        <ele>1305.9</ele>
        <time>2024-07-02T08:42:40Z</time>
      </trkpt>
      <trkpt lat="44.8803" lon="5.23944">
        <ele>1306.1</ele>
        <time>2024-07-02T08:42:41Z</time>
      </trkpt>
      <trkpt lat="44.8803" lon="5.23945">
        <ele>1306.2</ele>
        <time>2024-07-02T08:42:42Z</time>
      </trkpt>
      <trkpt lat="44.88029" lon="5.23946">
        <ele>1306.3</ele>
        <time>2024-07-02T08:42:43Z</time>
      </trkpt>
      <trkpt lat="44.88029" lon="5.23947">
        <ele>1306.4</ele>
        <time>2024-07-02T08:42:44Z</time>
      </trkpt>
      <trkpt lat="44.88028" lon="5.23949">
        <ele>1306.6</ele>
        <time>2024-07-02T08:42:45Z</time>
      </trkpt>
      <trkpt lat="44.88028" lon="5.2395">
        <ele>1306.7</ele>
        <time>2024-07-02T08:42:46Z</time>
      </trkpt>
      <trkpt lat="44.88027" lon="5.23951">
        <ele>1306.8</ele>
        <time>2024-07-02T08:42:47Z</time>
      </trkpt>
      <trkpt lat="44.88026" lon="5.23952">
        <ele>1307</ele>
        <time>2024-07-02T08:42:48Z</time>
      </trkpt>
      <trkpt lat="44.88026" lon="5.23953">
        <ele>1307.1</ele>
        <time>2024-07-02T08:42:49Z</time>
      </trkpt>
      <trkpt lat="44.88025" lon="5.23955">
        <ele>1307.2</ele>
        <time>2024-07-02T08:42:50Z</time>
      </trkpt>
      <trkpt lat="44.88024" lon="5.23956">
        <ele>1307.4</ele>
        <time>2024-07-02T08:42:51Z</time>
      </trkpt>
      <trkpt lat="44.88024" lon="5.23958">
        <ele>1307.6</ele>
        <time>2024-07-02T08:42:52Z</time>
      </trkpt>
      <trkpt lat="44.88023" lon="5.23959">
        <ele>1307.7</ele>
        <time>2024-07-02T08:42:53Z</time>
      </trkpt>
      <trkpt lat="44.88023" lon="5.23961">
        <ele>1307.8</ele>
        <time>2024-07-02T08:42:54Z</time>
      </trkpt>
      <trkpt lat="44.88022" lon="5.23962">
        <ele>1308</ele>
        <time>2024-07-02T08:42:55Z</time>
      </trkpt>
      <trkpt lat="44.88021" lon="5.23964">
        <ele>1308.2</ele>
        <time>2024-07-02T08:42:56Z</time>
      </trkpt>
      <trkpt lat="44.88021" lon="5.23965">
        <ele>1308.3</ele>
        <time>2024-07-02T08:42:57Z</time>
      </trkpt>
      <trkpt lat="44.8802" lon="5.23966">
        <ele>1308.4</ele>
        <time>2024-07-02T08:42:58Z</time>
      </trkpt>
      <trkpt lat="44.8802" lon="5.23967">
        <ele>1308.6</ele>
        <time>2024-07-02T08:42:59Z</time>
      </trkpt>
      <trkpt lat="44.88019" lon="5.23968">
        <ele>1308.7</ele>
        <time>2024-07-02T08:43:00Z</time>
      </trkpt>
      <trkpt lat="44.88019" lon="5.2397">
        <ele>1308.9</ele>
        <time>2024-07-02T08:43:01Z</time>
      </trkpt>
      <trkpt lat="44.88018" lon="5.23971">
        <ele>1309</ele>
        <time>2024-07-02T08:43:02Z</time>
      </trkpt>
      <trkpt lat="44.88017" lon="5.23973">
        <ele>1309.1</ele>
        <time>2024-07-02T08:43:03Z</time>
      </trkpt>
      <trkpt lat="44.88017" lon="5.23974">
        <ele>1309.3</ele>
        <time>2024-07-02T08:43:04Z</time>
      </trkpt>
      <trkpt lat="44.88016" lon="5.23975">
        <ele>1309.4</ele>
        <time>2024-07-02T08:43:05Z</time>
      </trkpt>
      <trkpt lat="44.88015" lon="5.23976">
        <ele>1309.6</ele>
        <time>2024-07-02T08:43:06Z</time>
      </trkpt>
      <trkpt lat="44.88015" lon="5.23977">
        <ele>1309.7</ele>
        <time>2024-07-02T08:43:07Z</time>
      </trkpt>
      <trkpt lat="44.88014" lon="5.23978">
        <ele>1309.8</ele>
        <time>2024-07-02T08:43:08Z</time>
      </trkpt>
      <trkpt lat="44.88013" lon="5.23978">
        <ele>1310</ele>
        <time>2024-07-02T08:43:09Z</time>
      </trkpt>
      <trkpt lat="44.88012" lon="5.23979">
        <ele>1310.1</ele>
        <time>2024-07-02T08:43:10Z</time>
      </trkpt>
      <trkpt lat="44.88011" lon="5.2398">
        <ele>1310.3</ele>
        <time>2024-07-02T08:43:11Z</time>
      </trkpt>
      <trkpt lat="44.8801" lon="5.2398">
        <ele>1310.3</ele>
        <time>2024-07-02T08:43:12Z</time>
      </trkpt>
      <trkpt lat="44.88009" lon="5.2398">
        <ele>1310.5</ele>
        <time>2024-07-02T08:43:13Z</time>
      </trkpt>
      <trkpt lat="44.88008" lon="5.23981">
        <ele>1310.6</ele>
        <time>2024-07-02T08:43:14Z</time>
      </trkpt>
      <trkpt lat="44.88008" lon="5.2398">
        <ele>1310.7</ele>
        <time>2024-07-02T08:43:15Z</time>
      </trkpt>
      <trkpt lat="44.88007" lon="5.23979">
        <ele>1310.8</ele>
        <time>2024-07-02T08:43:16Z</time>
      </trkpt>
      <trkpt lat="44.88007" lon="5.23978">
        <ele>1310.9</ele>
        <time>2024-07-02T08:43:17Z</time>
      </trkpt>
      <trkpt lat="44.88007" lon="5.23978">
        <ele>1310.9</ele>
        <time>2024-07-02T08:43:18Z</time>
      </trkpt>
      <trkpt lat="44.88007" lon="5.23979">
        <ele>1310.9</ele>
        <time>2024-07-02T08:43:19Z</time>
      </trkpt>
      <trkpt lat="44.88007" lon="5.23979">
        <ele>1311</ele>
        <time>2024-07-02T08:43:20Z</time>
      </trkpt>
      <trkpt lat="44.88008" lon="5.23979">
        <ele>1311</ele>
        <time>2024-07-02T08:43:21Z</time>
      </trkpt>
      <trkpt lat="44.88008" lon="5.23979">
        <ele>1311</ele>
        <time>2024-07-02T08:43:22Z</time>
      </trkpt>
      <trkpt lat="44.88008" lon="5.2398">
        <ele>1311.1</ele>
        <time>2024-07-02T08:43:23Z</time>
      </trkpt>
      <trkpt lat="44.88008" lon="5.2398">
        <ele>1311.1</ele>
        <time>2024-07-02T08:43:24Z</time>
      </trkpt>
      <trkpt lat="44.88007" lon="5.2398">
        <ele>1311.1</ele>
        <time>2024-07-02T08:43:25Z</time>
      </trkpt>
      <trkpt lat="44.88007" lon="5.2398">
        <ele>1311.1</ele>
        <time>2024-07-02T08:43:26Z</time>
      </trkpt>
      <trkpt lat="44.88006" lon="5.2398">
        <ele>1311.3</ele>
        <time>2024-07-02T08:43:27Z</time>
      </trkpt>
      <trkpt lat="44.88006" lon="5.2398">
        <ele>1311.3</ele>
        <time>2024-07-02T08:43:28Z</time>
      </trkpt>
      <trkpt lat="44.88006" lon="5.23978">
        <ele>1311.5</ele>
        <time>2024-07-02T08:43:29Z</time>
      </trkpt>
      <trkpt lat="44.88004" lon="5.23977">
        <ele>1311.7</ele>
        <time>2024-07-02T08:43:30Z</time>
      </trkpt>
      <trkpt lat="44.88002" lon="5.23977">
        <ele>1312</ele>
        <time>2024-07-02T08:43:31Z</time>
      </trkpt>
      <trkpt lat="44.88001" lon="5.23977">
        <ele>1312.1</ele>
        <time>2024-07-02T08:43:32Z</time>
      </trkpt>
      <trkpt lat="44.88" lon="5.23976">
        <ele>1312.3</ele>
        <time>2024-07-02T08:43:33Z</time>
      </trkpt>
      <trkpt lat="44.87999" lon="5.23975">
        <ele>1312.4</ele>
        <time>2024-07-02T08:43:34Z</time>
      </trkpt>
      <trkpt lat="44.87998" lon="5.23975">
        <ele>1312.6</ele>
        <time>2024-07-02T08:43:35Z</time>
      </trkpt>
      <trkpt lat="44.87995" lon="5.23976">
        <ele>1312.8</ele>
        <time>2024-07-02T08:43:36Z</time>
      </trkpt>
      <trkpt lat="44.87995" lon="5.23977">
        <ele>1312.9</ele>
        <time>2024-07-02T08:43:37Z</time>
      </trkpt>
      <trkpt lat="44.87994" lon="5.23977">
        <ele>1313</ele>
        <time>2024-07-02T08:43:38Z</time>
      </trkpt>
      <trkpt lat="44.87992" lon="5.23979">
        <ele>1313.3</ele>
        <time>2024-07-02T08:43:39Z</time>
      </trkpt>
      <trkpt lat="44.87992" lon="5.2398">
        <ele>1313.4</ele>
        <time>2024-07-02T08:43:40Z</time>
      </trkpt>
      <trkpt lat="44.87991" lon="5.23981">
        <ele>1313.5</ele>
        <time>2024-07-02T08:43:41Z</time>
      </trkpt>
      <trkpt lat="44.8799" lon="5.23981">
        <ele>1313.6</ele>
        <time>2024-07-02T08:43:42Z</time>
      </trkpt>
      <trkpt lat="44.87989" lon="5.23981">
        <ele>1313.7</ele>
        <time>2024-07-02T08:43:43Z</time>
      </trkpt>
      <trkpt lat="44.87988" lon="5.23981">
        <ele>1313.8</ele>
        <time>2024-07-02T08:43:44Z</time>
      </trkpt>
      <trkpt lat="44.87987" lon="5.23982">
        <ele>1313.9</ele>
        <time>2024-07-02T08:43:45Z</time>
      </trkpt>
      <trkpt lat="44.87986" lon="5.23982">
        <ele>1314.1</ele>
        <time>2024-07-02T08:43:46Z</time>
      </trkpt>
      <trkpt lat="44.87986" lon="5.23983">
        <ele>1314.2</ele>
        <time>2024-07-02T08:43:47Z</time>
      </trkpt>
      <trkpt lat="44.87985" lon="5.23984">
        <ele>1314.3</ele>
        <time>2024-07-02T08:43:48Z</time>
      </trkpt>
      <trkpt lat="44.87984" lon="5.23984">
        <ele>1314.4</ele>
        <time>2024-07-02T08:43:49Z</time>
      </trkpt>
      <trkpt lat="44.87983" lon="5.23984">
        <ele>1314.5</ele>
        <time>2024-07-02T08:43:50Z</time>
      </trkpt>
      <trkpt lat="44.87982" lon="5.23985">
        <ele>1314.6</ele>
        <time>2024-07-02T08:43:51Z</time>
      </trkpt>
      <trkpt lat="44.87981" lon="5.23985">
        <ele>1314.7</ele>
        <time>2024-07-02T08:43:52Z</time>
      </trkpt>
      <trkpt lat="44.87981" lon="5.23985">
        <ele>1314.8</ele>
        <time>2024-07-02T08:43:53Z</time>
      </trkpt>
      <trkpt lat="44.8798" lon="5.23985">
        <ele>1314.9</ele>
        <time>2024-07-02T08:43:54Z</time>
      </trkpt>
      <trkpt lat="44.87979" lon="5.23985">
        <ele>1315</ele>
        <time>2024-07-02T08:43:55Z</time>
      </trkpt>
      <trkpt lat="44.87977" lon="5.23985">
        <ele>1315.2</ele>
        <time>2024-07-02T08:43:56Z</time>
      </trkpt>
      <trkpt lat="44.87976" lon="5.23985">
        <ele>1315.3</ele>
        <time>2024-07-02T08:43:57Z</time>
      </trkpt>
      <trkpt lat="44.87976" lon="5.23985">
        <ele>1315.4</ele>
        <time>2024-07-02T08:43:58Z</time>
      </trkpt>
      <trkpt lat="44.87975" lon="5.23985">
        <ele>1315.4</ele>
        <time>2024-07-02T08:43:59Z</time>
      </trkpt>
      <trkpt lat="44.87974" lon="5.23985">
        <ele>1315.5</ele>
        <time>2024-07-02T08:44:00Z</time>
      </trkpt>
      <trkpt lat="44.87973" lon="5.23985">
        <ele>1315.7</ele>
        <time>2024-07-02T08:44:01Z</time>
      </trkpt>
      <trkpt lat="44.87972" lon="5.23985">
        <ele>1315.7</ele>
        <time>2024-07-02T08:44:02Z</time>
      </trkpt>
      <trkpt lat="44.87972" lon="5.23985">
        <ele>1315.8</ele>
        <time>2024-07-02T08:44:03Z</time>
      </trkpt>
      <trkpt lat="44.87971" lon="5.23985">
        <ele>1315.9</ele>
        <time>2024-07-02T08:44:04Z</time>
      </trkpt>
      <trkpt lat="44.8797" lon="5.23985">
        <ele>1316</ele>
        <time>2024-07-02T08:44:05Z</time>
      </trkpt>
      <trkpt lat="44.87969" lon="5.23984">
        <ele>1316.2</ele>
        <time>2024-07-02T08:44:06Z</time>
      </trkpt>
      <trkpt lat="44.87968" lon="5.23984">
        <ele>1316.3</ele>
        <time>2024-07-02T08:44:07Z</time>
      </trkpt>
      <trkpt lat="44.87967" lon="5.23983">
        <ele>1316.4</ele>
        <time>2024-07-02T08:44:08Z</time>
      </trkpt>
      <trkpt lat="44.87966" lon="5.23983">
        <ele>1316.5</ele>
        <time>2024-07-02T08:44:09Z</time>
      </trkpt>
      <trkpt lat="44.87965" lon="5.23982">
        <ele>1316.6</ele>
        <time>2024-07-02T08:44:10Z</time>
      </trkpt>
      <trkpt lat="44.87964" lon="5.23982">
        <ele>1316.8</ele>
        <time>2024-07-02T08:44:11Z</time>
      </trkpt>
      <trkpt lat="44.87963" lon="5.23981">
        <ele>1316.9</ele>
        <time>2024-07-02T08:44:12Z</time>
      </trkpt>
      <trkpt lat="44.87963" lon="5.23981">
        <ele>1317</ele>
        <time>2024-07-02T08:44:13Z</time>
      </trkpt>
      <trkpt lat="44.87962" lon="5.23981">
        <ele>1317.1</ele>
        <time>2024-07-02T08:44:14Z</time>
      </trkpt>
      <trkpt lat="44.87961" lon="5.23982">
        <ele>1317.2</ele>
        <time>2024-07-02T08:44:15Z</time>
      </trkpt>
      <trkpt lat="44.87959" lon="5.23982">
        <ele>1317.3</ele>
        <time>2024-07-02T08:44:16Z</time>
      </trkpt>
      <trkpt lat="44.87958" lon="5.23982">
        <ele>1317.4</ele>
        <time>2024-07-02T08:44:17Z</time>
      </trkpt>
      <trkpt lat="44.87957" lon="5.23982">
        <ele>1317.5</ele>
        <time>2024-07-02T08:44:18Z</time>
      </trkpt>
      <trkpt lat="44.87956" lon="5.23982">
        <ele>1317.6</ele>
        <time>2024-07-02T08:44:19Z</time>
      </trkpt>
      <trkpt lat="44.87956" lon="5.23982">
        <ele>1317.7</ele>
        <time>2024-07-02T08:44:20Z</time>
      </trkpt>
      <trkpt lat="44.87956" lon="5.23984">
        <ele>1317.9</ele>
        <time>2024-07-02T08:44:21Z</time>
      </trkpt>
      <trkpt lat="44.87956" lon="5.23984">
        <ele>1317.9</ele>
        <time>2024-07-02T08:44:22Z</time>
      </trkpt>
      <trkpt lat="44.87956" lon="5.23984">
        <ele>1317.9</ele>
        <time>2024-07-02T08:44:23Z</time>
      </trkpt>
      <trkpt lat="44.87956" lon="5.23984">
        <ele>1317.9</ele>
        <time>2024-07-02T08:44:24Z</time>
      </trkpt>
      <trkpt lat="44.87955" lon="5.23984">
        <ele>1318</ele>
        <time>2024-07-02T08:44:25Z</time>
      </trkpt>
      <trkpt lat="44.87954" lon="5.23984">
        <ele>1318.2</ele>
        <time>2024-07-02T08:44:26Z</time>
      </trkpt>
      <trkpt lat="44.87953" lon="5.23984">
        <ele>1318.3</ele>
        <time>2024-07-02T08:44:27Z</time>
      </trkpt>
      <trkpt lat="44.87952" lon="5.23984">
        <ele>1318.4</ele>
        <time>2024-07-02T08:44:28Z</time>
      </trkpt>
      <trkpt lat="44.87949" lon="5.23984">
        <ele>1318.6</ele>
        <time>2024-07-02T08:44:29Z</time>
      </trkpt>
      <trkpt lat="44.87949" lon="5.23984">
        <ele>1318.7</ele>
        <time>2024-07-02T08:44:30Z</time>
      </trkpt>
      <trkpt lat="44.87948" lon="5.23984">
        <ele>1318.8</ele>
        <time>2024-07-02T08:44:31Z</time>
      </trkpt>
      <trkpt lat="44.87947" lon="5.23985">
        <ele>1318.9</ele>
        <time>2024-07-02T08:44:32Z</time>
      </trkpt>
      <trkpt lat="44.87946" lon="5.23985">
        <ele>1319</ele>
        <time>2024-07-02T08:44:33Z</time>
      </trkpt>
      <trkpt lat="44.87945" lon="5.23985">
        <ele>1319.1</ele>
        <time>2024-07-02T08:44:34Z</time>
      </trkpt>
      <trkpt lat="44.87943" lon="5.23985">
        <ele>1319.2</ele>
        <time>2024-07-02T08:44:35Z</time>
      </trkpt>
      <trkpt lat="44.87942" lon="5.23985">
        <ele>1319.4</ele>
        <time>2024-07-02T08:44:36Z</time>
      </trkpt>
      <trkpt lat="44.87941" lon="5.23985">
        <ele>1319.5</ele>
        <time>2024-07-02T08:44:37Z</time>
      </trkpt>
      <trkpt lat="44.8794" lon="5.23986">
        <ele>1319.6</ele>
        <time>2024-07-02T08:44:38Z</time>
      </trkpt>
      <trkpt lat="44.87939" lon="5.23986">
        <ele>1319.7</ele>
        <time>2024-07-02T08:44:39Z</time>
      </trkpt>
      <trkpt lat="44.87937" lon="5.23986">
        <ele>1319.9</ele>
        <time>2024-07-02T08:44:40Z</time>
      </trkpt>
      <trkpt lat="44.87936" lon="5.23986">
        <ele>1320</ele>
        <time>2024-07-02T08:44:41Z</time>
      </trkpt>
      <trkpt lat="44.87935" lon="5.23986">
        <ele>1320.1</ele>
        <time>2024-07-02T08:44:42Z</time>
      </trkpt>
      <trkpt lat="44.87934" lon="5.23986">
        <ele>1320.2</ele>
        <time>2024-07-02T08:44:43Z</time>
      </trkpt>
      <trkpt lat="44.87933" lon="5.23986">
        <ele>1320.3</ele>
        <time>2024-07-02T08:44:44Z</time>
      </trkpt>
      <trkpt lat="44.87932" lon="5.23986">
        <ele>1320.4</ele>
        <time>2024-07-02T08:44:45Z</time>
      </trkpt>
      <trkpt lat="44.87931" lon="5.23986">
        <ele>1320.5</ele>
        <time>2024-07-02T08:44:46Z</time>
      </trkpt>
      <trkpt lat="44.8793" lon="5.23986">
        <ele>1320.6</ele>
        <time>2024-07-02T08:44:47Z</time>
      </trkpt>
      <trkpt lat="44.87929" lon="5.23987">
        <ele>1320.7</ele>
        <time>2024-07-02T08:44:48Z</time>
      </trkpt>
      <trkpt lat="44.87927" lon="5.23986">
        <ele>1320.8</ele>
        <time>2024-07-02T08:44:49Z</time>
      </trkpt>
      <trkpt lat="44.87926" lon="5.23986">
        <ele>1320.9</ele>
        <time>2024-07-02T08:44:50Z</time>
      </trkpt>
      <trkpt lat="44.87925" lon="5.23986">
        <ele>1321</ele>
        <time>2024-07-02T08:44:51Z</time>
      </trkpt>
      <trkpt lat="44.87924" lon="5.23986">
        <ele>1321</ele>
        <time>2024-07-02T08:44:52Z</time>
      </trkpt>
      <trkpt lat="44.87923" lon="5.23986">
        <ele>1321.1</ele>
        <time>2024-07-02T08:44:53Z</time>
      </trkpt>
      <trkpt lat="44.87922" lon="5.23986">
        <ele>1321.2</ele>
        <time>2024-07-02T08:44:54Z</time>
      </trkpt>
      <trkpt lat="44.87921" lon="5.23986">
        <ele>1321.3</ele>
        <time>2024-07-02T08:44:55Z</time>
      </trkpt>
      <trkpt lat="44.8792" lon="5.23986">
        <ele>1321.3</ele>
        <time>2024-07-02T08:44:56Z</time>
      </trkpt>
      <trkpt lat="44.87919" lon="5.23986">
        <ele>1321.4</ele>
        <time>2024-07-02T08:44:57Z</time>
      </trkpt>
      <trkpt lat="44.87918" lon="5.23986">
        <ele>1321.5</ele>
        <time>2024-07-02T08:44:58Z</time>
      </trkpt>
      <trkpt lat="44.87916" lon="5.23986">
        <ele>1321.7</ele>
        <time>2024-07-02T08:44:59Z</time>
      </trkpt>
      <trkpt lat="44.87915" lon="5.23987">
        <ele>1321.7</ele>
        <time>2024-07-02T08:45:00Z</time>
      </trkpt>
      <trkpt lat="44.87914" lon="5.23987">
        <ele>1321.8</ele>
        <time>2024-07-02T08:45:01Z</time>
      </trkpt>
      <trkpt lat="44.87913" lon="5.23987">
        <ele>1321.8</ele>
        <time>2024-07-02T08:45:02Z</time>
      </trkpt>
      <trkpt lat="44.87912" lon="5.23987">
        <ele>1321.9</ele>
        <time>2024-07-02T08:45:03Z</time>
      </trkpt>
      <trkpt lat="44.87911" lon="5.23987">
        <ele>1322</ele>
        <time>2024-07-02T08:45:04Z</time>
      </trkpt>
      <trkpt lat="44.87909" lon="5.23988">
        <ele>1322.1</ele>
        <time>2024-07-02T08:45:05Z</time>
      </trkpt>
      <trkpt lat="44.87908" lon="5.23988">
        <ele>1322.1</ele>
        <time>2024-07-02T08:45:06Z</time>
      </trkpt>
      <trkpt lat="44.87907" lon="5.23989">
        <ele>1322.1</ele>
        <time>2024-07-02T08:45:07Z</time>
      </trkpt>
      <trkpt lat="44.87905" lon="5.23989">
        <ele>1322.2</ele>
        <time>2024-07-02T08:45:08Z</time>
      </trkpt>
      <trkpt lat="44.87904" lon="5.23989">
        <ele>1322.2</ele>
        <time>2024-07-02T08:45:09Z</time>
      </trkpt>
      <trkpt lat="44.87903" lon="5.23989">
        <ele>1322.3</ele>
        <time>2024-07-02T08:45:10Z</time>
      </trkpt>
      <trkpt lat="44.87901" lon="5.2399">
        <ele>1322.3</ele>
        <time>2024-07-02T08:45:11Z</time>
      </trkpt>
      <trkpt lat="44.879" lon="5.2399">
        <ele>1322.4</ele>
        <time>2024-07-02T08:45:12Z</time>
      </trkpt>
      <trkpt lat="44.879" lon="5.2399">
        <ele>1322.4</ele>
        <time>2024-07-02T08:45:13Z</time>
      </trkpt>
      <trkpt lat="44.87898" lon="5.2399">
        <ele>1322.5</ele>
        <time>2024-07-02T08:45:14Z</time>
      </trkpt>
      <trkpt lat="44.87897" lon="5.2399">
        <ele>1322.5</ele>
        <time>2024-07-02T08:45:15Z</time>
      </trkpt>
      <trkpt lat="44.87896" lon="5.2399">
        <ele>1322.5</ele>
        <time>2024-07-02T08:45:16Z</time>
      </trkpt>
      <trkpt lat="44.87895" lon="5.2399">
        <ele>1322.5</ele>
        <time>2024-07-02T08:45:17Z</time>
      </trkpt>
      <trkpt lat="44.87894" lon="5.2399">
        <ele>1322.6</ele>
        <time>2024-07-02T08:45:18Z</time>
      </trkpt>
      <trkpt lat="44.87892" lon="5.2399">
        <ele>1322.6</ele>
        <time>2024-07-02T08:45:19Z</time>
      </trkpt>
      <trkpt lat="44.8789" lon="5.2399">
        <ele>1322.7</ele>
        <time>2024-07-02T08:45:20Z</time>
      </trkpt>
      <trkpt lat="44.87889" lon="5.2399">
        <ele>1322.7</ele>
        <time>2024-07-02T08:45:21Z</time>
      </trkpt>
      <trkpt lat="44.87889" lon="5.2399">
        <ele>1322.7</ele>
        <time>2024-07-02T08:45:22Z</time>
      </trkpt>
      <trkpt lat="44.87887" lon="5.2399">
        <ele>1322.8</ele>
        <time>2024-07-02T08:45:23Z</time>
      </trkpt>
      <trkpt lat="44.87886" lon="5.2399">
        <ele>1322.8</ele>
        <time>2024-07-02T08:45:24Z</time>
      </trkpt>
      <trkpt lat="44.87885" lon="5.2399">
        <ele>1322.9</ele>
        <time>2024-07-02T08:45:25Z</time>
      </trkpt>
      <trkpt lat="44.87883" lon="5.2399">
        <ele>1322.9</ele>
        <time>2024-07-02T08:45:26Z</time>
      </trkpt>
      <trkpt lat="44.87882" lon="5.23989">
        <ele>1323</ele>
        <time>2024-07-02T08:45:27Z</time>
      </trkpt>
      <trkpt lat="44.87882" lon="5.23989">
        <ele>1323</ele>
        <time>2024-07-02T08:45:28Z</time>
      </trkpt>
      <trkpt lat="44.8788" lon="5.23989">
        <ele>1323.1</ele>
        <time>2024-07-02T08:45:29Z</time>
      </trkpt>
      <trkpt lat="44.87879" lon="5.23989">
        <ele>1323.1</ele>
        <time>2024-07-02T08:45:30Z</time>
      </trkpt>
      <trkpt lat="44.87878" lon="5.23988">
        <ele>1323.2</ele>
        <time>2024-07-02T08:45:31Z</time>
      </trkpt>
      <trkpt lat="44.87876" lon="5.23988">
        <ele>1323.2</ele>
        <time>2024-07-02T08:45:32Z</time>
      </trkpt>
      <trkpt lat="44.87876" lon="5.23988">
        <ele>1323.3</ele>
        <time>2024-07-02T08:45:33Z</time>
      </trkpt>
      <trkpt lat="44.87875" lon="5.23988">
        <ele>1323.3</ele>
        <time>2024-07-02T08:45:34Z</time>
      </trkpt>
      <trkpt lat="44.87874" lon="5.23988">
        <ele>1323.3</ele>
        <time>2024-07-02T08:45:35Z</time>
      </trkpt>
      <trkpt lat="44.87872" lon="5.23987">
        <ele>1323.4</ele>
        <time>2024-07-02T08:45:36Z</time>
      </trkpt>
      <trkpt lat="44.87871" lon="5.23987">
        <ele>1323.5</ele>
        <time>2024-07-02T08:45:37Z</time>
      </trkpt>
      <trkpt lat="44.8787" lon="5.23986">
        <ele>1323.5</ele>
        <time>2024-07-02T08:45:38Z</time>
      </trkpt>
      <trkpt lat="44.87868" lon="5.23986">
        <ele>1323.6</ele>
        <time>2024-07-02T08:45:39Z</time>
      </trkpt>
      <trkpt lat="44.87867" lon="5.23985">
        <ele>1323.7</ele>
        <time>2024-07-02T08:45:40Z</time>
      </trkpt>
      <trkpt lat="44.87866" lon="5.23985">
        <ele>1323.7</ele>
        <time>2024-07-02T08:45:41Z</time>
      </trkpt>
      <trkpt lat="44.87866" lon="5.23985">
        <ele>1323.7</ele>
        <time>2024-07-02T08:45:42Z</time>
      </trkpt>
      <trkpt lat="44.87864" lon="5.23984">
        <ele>1323.8</ele>
        <time>2024-07-02T08:45:43Z</time>
      </trkpt>
      <trkpt lat="44.87863" lon="5.23983">
        <ele>1323.9</ele>
        <time>2024-07-02T08:45:44Z</time>
      </trkpt>
      <trkpt lat="44.87862" lon="5.23983">
        <ele>1323.9</ele>
        <time>2024-07-02T08:45:45Z</time>
      </trkpt>
      <trkpt lat="44.87861" lon="5.23982">
        <ele>1324</ele>
        <time>2024-07-02T08:45:46Z</time>
      </trkpt>
      <trkpt lat="44.8786" lon="5.23982">
        <ele>1324</ele>
        <time>2024-07-02T08:45:47Z</time>
      </trkpt>
      <trkpt lat="44.87858" lon="5.23981">
        <ele>1324.1</ele>
        <time>2024-07-02T08:45:48Z</time>
      </trkpt>
      <trkpt lat="44.87857" lon="5.23981">
        <ele>1324.2</ele>
        <time>2024-07-02T08:45:49Z</time>
      </trkpt>
      <trkpt lat="44.87856" lon="5.2398">
        <ele>1324.2</ele>
        <time>2024-07-02T08:45:50Z</time>
      </trkpt>
      <trkpt lat="44.87854" lon="5.2398">
        <ele>1324.3</ele>
        <time>2024-07-02T08:45:51Z</time>
      </trkpt>
      <trkpt lat="44.87853" lon="5.2398">
        <ele>1324.4</ele>
        <time>2024-07-02T08:45:52Z</time>
      </trkpt>
      <trkpt lat="44.87852" lon="5.23979">
        <ele>1324.4</ele>
        <time>2024-07-02T08:45:53Z</time>
      </trkpt>
      <trkpt lat="44.87851" lon="5.2398">
        <ele>1324.5</ele>
        <time>2024-07-02T08:45:54Z</time>
      </trkpt>
      <trkpt lat="44.87849" lon="5.23981">
        <ele>1324.5</ele>
        <time>2024-07-02T08:45:55Z</time>
      </trkpt>
      <trkpt lat="44.87848" lon="5.23981">
        <ele>1324.6</ele>
        <time>2024-07-02T08:45:56Z</time>
      </trkpt>
      <trkpt lat="44.87846" lon="5.23982">
        <ele>1324.6</ele>
        <time>2024-07-02T08:45:57Z</time>
      </trkpt>
      <trkpt lat="44.87845" lon="5.23982">
        <ele>1324.6</ele>
        <time>2024-07-02T08:45:58Z</time>
      </trkpt>
      <trkpt lat="44.87844" lon="5.23982">
        <ele>1324.6</ele>
        <time>2024-07-02T08:45:59Z</time>
      </trkpt>
      <trkpt lat="44.87843" lon="5.23982">
        <ele>1324.7</ele>
        <time>2024-07-02T08:46:00Z</time>
      </trkpt>
      <trkpt lat="44.87841" lon="5.23983">
        <ele>1324.7</ele>
        <time>2024-07-02T08:46:01Z</time>
      </trkpt>
      <trkpt lat="44.8784" lon="5.23984">
        <ele>1324.7</ele>
        <time>2024-07-02T08:46:02Z</time>
      </trkpt>
      <trkpt lat="44.87839" lon="5.23985">
        <ele>1324.7</ele>
        <time>2024-07-02T08:46:03Z</time>
      </trkpt>
      <trkpt lat="44.87838" lon="5.23986">
        <ele>1324.7</ele>
        <time>2024-07-02T08:46:04Z</time>
      </trkpt>
      <trkpt lat="44.87837" lon="5.23986">
        <ele>1324.7</ele>
        <time>2024-07-02T08:46:05Z</time>
      </trkpt>
      <trkpt lat="44.87835" lon="5.23988">
        <ele>1324.7</ele>
        <time>2024-07-02T08:46:06Z</time>
      </trkpt>
      <trkpt lat="44.87835" lon="5.23988">
        <ele>1324.7</ele>
        <time>2024-07-02T08:46:07Z</time>
      </trkpt>
      <trkpt lat="44.87834" lon="5.23989">
        <ele>1324.7</ele>
        <time>2024-07-02T08:46:08Z</time>
      </trkpt>
      <trkpt lat="44.87833" lon="5.2399">
        <ele>1324.7</ele>
        <time>2024-07-02T08:46:09Z</time>
      </trkpt>
      <trkpt lat="44.87832" lon="5.23992">
        <ele>1324.6</ele>
        <time>2024-07-02T08:46:10Z</time>
      </trkpt>
      <trkpt lat="44.87831" lon="5.23993">
        <ele>1324.6</ele>
        <time>2024-07-02T08:46:11Z</time>
      </trkpt>
      <trkpt lat="44.87831" lon="5.23994">
        <ele>1324.6</ele>
        <time>2024-07-02T08:46:12Z</time>
      </trkpt>
      <trkpt lat="44.8783" lon="5.23995">
        <ele>1324.6</ele>
        <time>2024-07-02T08:46:13Z</time>
      </trkpt>
      <trkpt lat="44.8783" lon="5.23996">
        <ele>1324.5</ele>
        <time>2024-07-02T08:46:14Z</time>
      </trkpt>
      <trkpt lat="44.8783" lon="5.23997">
        <ele>1324.5</ele>
        <time>2024-07-02T08:46:15Z</time>
      </trkpt>
      <trkpt lat="44.8783" lon="5.23998">
        <ele>1324.5</ele>
        <time>2024-07-02T08:46:16Z</time>
      </trkpt>
      <trkpt lat="44.8783" lon="5.23998">
        <ele>1324.5</ele>
        <time>2024-07-02T08:46:17Z</time>
      </trkpt>
      <trkpt lat="44.87829" lon="5.23999">
        <ele>1324.5</ele>
        <time>2024-07-02T08:46:18Z</time>
      </trkpt>
      <trkpt lat="44.87829" lon="5.24">
        <ele>1324.5</ele>
        <time>2024-07-02T08:46:19Z</time>
      </trkpt>
      <trkpt lat="44.87829" lon="5.24001">
        <ele>1324.4</ele>
        <time>2024-07-02T08:46:20Z</time>
      </trkpt>
      <trkpt lat="44.87828" lon="5.24004">
        <ele>1324.3</ele>
        <time>2024-07-02T08:46:21Z</time>
      </trkpt>
      <trkpt lat="44.87828" lon="5.24005">
        <ele>1324.3</ele>
        <time>2024-07-02T08:46:22Z</time>
      </trkpt>
      <trkpt lat="44.87828" lon="5.24007">
        <ele>1324.3</ele>
        <time>2024-07-02T08:46:23Z</time>
      </trkpt>
      <trkpt lat="44.87827" lon="5.24008">
        <ele>1324.4</ele>
        <time>2024-07-02T08:46:24Z</time>
      </trkpt>
      <trkpt lat="44.87827" lon="5.2401">
        <ele>1324.4</ele>
        <time>2024-07-02T08:46:25Z</time>
      </trkpt>
      <trkpt lat="44.87827" lon="5.24011">
        <ele>1324.4</ele>
        <time>2024-07-02T08:46:26Z</time>
      </trkpt>
      <trkpt lat="44.87828" lon="5.24012">
        <ele>1324.4</ele>
        <time>2024-07-02T08:46:27Z</time>
      </trkpt>
      <trkpt lat="44.87828" lon="5.24013">
        <ele>1324.4</ele>
        <time>2024-07-02T08:46:28Z</time>
      </trkpt>
      <trkpt lat="44.87829" lon="5.24015">
        <ele>1324.4</ele>
        <time>2024-07-02T08:46:29Z</time>
      </trkpt>
      <trkpt lat="44.87829" lon="5.24015">
        <ele>1324.5</ele>
        <time>2024-07-02T08:46:30Z</time>
      </trkpt>
      <trkpt lat="44.8783" lon="5.24017">
        <ele>1324.5</ele>
        <time>2024-07-02T08:46:31Z</time>
      </trkpt>
      <trkpt lat="44.87831" lon="5.24018">
        <ele>1324.5</ele>
        <time>2024-07-02T08:46:32Z</time>
      </trkpt>
      <trkpt lat="44.87832" lon="5.24019">
        <ele>1324.5</ele>
        <time>2024-07-02T08:46:33Z</time>
      </trkpt>
      <trkpt lat="44.87833" lon="5.2402">
        <ele>1324.5</ele>
        <time>2024-07-02T08:46:34Z</time>
      </trkpt>
      <trkpt lat="44.87833" lon="5.24021">
        <ele>1324.5</ele>
        <time>2024-07-02T08:46:35Z</time>
      </trkpt>
      <trkpt lat="44.87834" lon="5.24022">
        <ele>1324.5</ele>
        <time>2024-07-02T08:46:36Z</time>
      </trkpt>
      <trkpt lat="44.87835" lon="5.24023">
        <ele>1324.5</ele>
        <time>2024-07-02T08:46:37Z</time>
      </trkpt>
      <trkpt lat="44.87835" lon="5.24024">
        <ele>1324.4</ele>
        <time>2024-07-02T08:46:38Z</time>
      </trkpt>
      <trkpt lat="44.87836" lon="5.24025">
        <ele>1324.4</ele>
        <time>2024-07-02T08:46:39Z</time>
      </trkpt>
      <trkpt lat="44.87837" lon="5.24026">
        <ele>1324.4</ele>
        <time>2024-07-02T08:46:40Z</time>
      </trkpt>
      <trkpt lat="44.87837" lon="5.24027">
        <ele>1324.4</ele>
        <time>2024-07-02T08:46:41Z</time>
      </trkpt>
      <trkpt lat="44.87838" lon="5.24028">
        <ele>1324.4</ele>
        <time>2024-07-02T08:46:42Z</time>
      </trkpt>
      <trkpt lat="44.87838" lon="5.24028">
        <ele>1324.4</ele>
        <time>2024-07-02T08:46:43Z</time>
      </trkpt>
      <trkpt lat="44.87839" lon="5.2403">
        <ele>1324.4</ele>
        <time>2024-07-02T08:46:44Z</time>
      </trkpt>
      <trkpt lat="44.87839" lon="5.2403">
        <ele>1324.4</ele>
        <time>2024-07-02T08:46:45Z</time>
      </trkpt>
      <trkpt lat="44.8784" lon="5.24032">
        <ele>1324.3</ele>
        <time>2024-07-02T08:46:46Z</time>
      </trkpt>
      <trkpt lat="44.87841" lon="5.24033">
        <ele>1324.3</ele>
        <time>2024-07-02T08:46:47Z</time>
      </trkpt>
      <trkpt lat="44.87841" lon="5.24033">
        <ele>1324.3</ele>
        <time>2024-07-02T08:46:48Z</time>
      </trkpt>
      <trkpt lat="44.87841" lon="5.24035">
        <ele>1324.3</ele>
        <time>2024-07-02T08:46:49Z</time>
      </trkpt>
      <trkpt lat="44.87842" lon="5.24036">
        <ele>1324.2</ele>
        <time>2024-07-02T08:46:50Z</time>
      </trkpt>
      <trkpt lat="44.87842" lon="5.24038">
        <ele>1324.2</ele>
        <time>2024-07-02T08:46:51Z</time>
      </trkpt>
      <trkpt lat="44.87843" lon="5.24039">
        <ele>1324.2</ele>
        <time>2024-07-02T08:46:52Z</time>
      </trkpt>
      <trkpt lat="44.87843" lon="5.2404">
        <ele>1324.1</ele>
        <time>2024-07-02T08:46:53Z</time>
      </trkpt>
      <trkpt lat="44.87843" lon="5.24042">
        <ele>1324.1</ele>
        <time>2024-07-02T08:46:54Z</time>
      </trkpt>
      <trkpt lat="44.87843" lon="5.24043">
        <ele>1324.1</ele>
        <time>2024-07-02T08:46:55Z</time>
      </trkpt>
      <trkpt lat="44.87843" lon="5.24045">
        <ele>1324.1</ele>
        <time>2024-07-02T08:46:56Z</time>
      </trkpt>
      <trkpt lat="44.87843" lon="5.24046">
        <ele>1324</ele>
        <time>2024-07-02T08:46:57Z</time>
      </trkpt>
      <trkpt lat="44.87843" lon="5.24048">
        <ele>1324</ele>
        <time>2024-07-02T08:46:58Z</time>
      </trkpt>
      <trkpt lat="44.87843" lon="5.24049">
        <ele>1324</ele>
        <time>2024-07-02T08:46:59Z</time>
      </trkpt>
      <trkpt lat="44.87843" lon="5.24051">
        <ele>1323.9</ele>
        <time>2024-07-02T08:47:00Z</time>
      </trkpt>
      <trkpt lat="44.87843" lon="5.24052">
        <ele>1323.9</ele>
        <time>2024-07-02T08:47:01Z</time>
      </trkpt>
      <trkpt lat="44.87843" lon="5.24054">
        <ele>1323.8</ele>
        <time>2024-07-02T08:47:02Z</time>
      </trkpt>
      <trkpt lat="44.87844" lon="5.24056">
        <ele>1323.8</ele>
        <time>2024-07-02T08:47:03Z</time>
      </trkpt>
      <trkpt lat="44.87844" lon="5.24057">
        <ele>1323.8</ele>
        <time>2024-07-02T08:47:04Z</time>
      </trkpt>
      <trkpt lat="44.87843" lon="5.24059">
        <ele>1323.8</ele>
        <time>2024-07-02T08:47:05Z</time>
      </trkpt>
      <trkpt lat="44.87843" lon="5.2406">
        <ele>1323.8</ele>
        <time>2024-07-02T08:47:06Z</time>
      </trkpt>
      <trkpt lat="44.87843" lon="5.24062">
        <ele>1323.7</ele>
        <time>2024-07-02T08:47:07Z</time>
      </trkpt>
      <trkpt lat="44.87843" lon="5.24063">
        <ele>1323.7</ele>
        <time>2024-07-02T08:47:08Z</time>
      </trkpt>
      <trkpt lat="44.87844" lon="5.24064">
        <ele>1323.7</ele>
        <time>2024-07-02T08:47:09Z</time>
      </trkpt>
      <trkpt lat="44.87844" lon="5.24066">
        <ele>1323.7</ele>
        <time>2024-07-02T08:47:10Z</time>
      </trkpt>
      <trkpt lat="44.87844" lon="5.24068">
        <ele>1323.6</ele>
        <time>2024-07-02T08:47:11Z</time>
      </trkpt>
      <trkpt lat="44.87844" lon="5.24069">
        <ele>1323.5</ele>
        <time>2024-07-02T08:47:12Z</time>
      </trkpt>
      <trkpt lat="44.87845" lon="5.2407">
        <ele>1323.4</ele>
        <time>2024-07-02T08:47:13Z</time>
      </trkpt>
      <trkpt lat="44.87845" lon="5.24071">
        <ele>1323.3</ele>
        <time>2024-07-02T08:47:14Z</time>
      </trkpt>
      <trkpt lat="44.87846" lon="5.24073">
        <ele>1323.2</ele>
        <time>2024-07-02T08:47:15Z</time>
      </trkpt>
      <trkpt lat="44.87846" lon="5.24074">
        <ele>1323.2</ele>
        <time>2024-07-02T08:47:16Z</time>
      </trkpt>
      <trkpt lat="44.87847" lon="5.24075">
        <ele>1323.1</ele>
        <time>2024-07-02T08:47:17Z</time>
      </trkpt>
      <trkpt lat="44.87848" lon="5.24076">
        <ele>1323</ele>
        <time>2024-07-02T08:47:18Z</time>
      </trkpt>
      <trkpt lat="44.87849" lon="5.24078">
        <ele>1322.8</ele>
        <time>2024-07-02T08:47:19Z</time>
      </trkpt>
      <trkpt lat="44.8785" lon="5.24079">
        <ele>1322.7</ele>
        <time>2024-07-02T08:47:20Z</time>
      </trkpt>
      <trkpt lat="44.8785" lon="5.2408">
        <ele>1322.6</ele>
        <time>2024-07-02T08:47:21Z</time>
      </trkpt>
      <trkpt lat="44.87851" lon="5.24081">
        <ele>1322.5</ele>
        <time>2024-07-02T08:47:22Z</time>
      </trkpt>
      <trkpt lat="44.87852" lon="5.24082">
        <ele>1322.4</ele>
        <time>2024-07-02T08:47:23Z</time>
      </trkpt>
      <trkpt lat="44.87853" lon="5.24083">
        <ele>1322.3</ele>
        <time>2024-07-02T08:47:24Z</time>
      </trkpt>
      <trkpt lat="44.87855" lon="5.24084">
        <ele>1322.2</ele>
        <time>2024-07-02T08:47:25Z</time>
      </trkpt>
      <trkpt lat="44.87855" lon="5.24085">
        <ele>1322.1</ele>
        <time>2024-07-02T08:47:26Z</time>
      </trkpt>
      <trkpt lat="44.87856" lon="5.24085">
        <ele>1322</ele>
        <time>2024-07-02T08:47:27Z</time>
      </trkpt>
      <trkpt lat="44.87857" lon="5.24086">
        <ele>1321.9</ele>
        <time>2024-07-02T08:47:28Z</time>
      </trkpt>
      <trkpt lat="44.87858" lon="5.24086">
        <ele>1321.8</ele>
        <time>2024-07-02T08:47:29Z</time>
      </trkpt>
      <trkpt lat="44.87859" lon="5.24088">
        <ele>1321.7</ele>
        <time>2024-07-02T08:47:30Z</time>
      </trkpt>
      <trkpt lat="44.87859" lon="5.24089">
        <ele>1321.7</ele>
        <time>2024-07-02T08:47:31Z</time>
      </trkpt>
      <trkpt lat="44.8786" lon="5.2409">
        <ele>1321.6</ele>
        <time>2024-07-02T08:47:32Z</time>
      </trkpt>
      <trkpt lat="44.8786" lon="5.24091">
        <ele>1321.5</ele>
        <time>2024-07-02T08:47:33Z</time>
      </trkpt>
      <trkpt lat="44.87861" lon="5.24092">
        <ele>1321.4</ele>
        <time>2024-07-02T08:47:34Z</time>
      </trkpt>
      <trkpt lat="44.87862" lon="5.24095">
        <ele>1321.3</ele>
        <time>2024-07-02T08:47:35Z</time>
      </trkpt>
      <trkpt lat="44.87862" lon="5.24095">
        <ele>1321.2</ele>
        <time>2024-07-02T08:47:36Z</time>
      </trkpt>
      <trkpt lat="44.87862" lon="5.24096">
        <ele>1321.2</ele>
        <time>2024-07-02T08:47:37Z</time>
      </trkpt>
      <trkpt lat="44.87862" lon="5.24097">
        <ele>1321.1</ele>
        <time>2024-07-02T08:47:38Z</time>
      </trkpt>
      <trkpt lat="44.87862" lon="5.24098">
        <ele>1321.1</ele>
        <time>2024-07-02T08:47:39Z</time>
      </trkpt>
      <trkpt lat="44.87863" lon="5.241">
        <ele>1321</ele>
        <time>2024-07-02T08:47:40Z</time>
      </trkpt>
      <trkpt lat="44.87863" lon="5.24101">
        <ele>1320.9</ele>
        <time>2024-07-02T08:47:41Z</time>
      </trkpt>
      <trkpt lat="44.87863" lon="5.24102">
        <ele>1320.8</ele>
        <time>2024-07-02T08:47:42Z</time>
      </trkpt>
      <trkpt lat="44.87864" lon="5.24104">
        <ele>1320.8</ele>
        <time>2024-07-02T08:47:43Z</time>
      </trkpt>
      <trkpt lat="44.87864" lon="5.24105">
        <ele>1320.7</ele>
        <time>2024-07-02T08:47:44Z</time>
      </trkpt>
      <trkpt lat="44.87865" lon="5.24107">
        <ele>1320.6</ele>
        <time>2024-07-02T08:47:45Z</time>
      </trkpt>
      <trkpt lat="44.87865" lon="5.24108">
        <ele>1320.6</ele>
        <time>2024-07-02T08:47:46Z</time>
      </trkpt>
      <trkpt lat="44.87866" lon="5.24109">
        <ele>1320.5</ele>
        <time>2024-07-02T08:47:47Z</time>
      </trkpt>
      <trkpt lat="44.87866" lon="5.2411">
        <ele>1320.4</ele>
        <time>2024-07-02T08:47:48Z</time>
      </trkpt>
      <trkpt lat="44.87867" lon="5.24111">
        <ele>1320.4</ele>
        <time>2024-07-02T08:47:49Z</time>
      </trkpt>
      <trkpt lat="44.87867" lon="5.24112">
        <ele>1320.3</ele>
        <time>2024-07-02T08:47:50Z</time>
      </trkpt>
      <trkpt lat="44.87868" lon="5.24113">
        <ele>1320.2</ele>
        <time>2024-07-02T08:47:51Z</time>
      </trkpt>
      <trkpt lat="44.87869" lon="5.24113">
        <ele>1320.2</ele>
        <time>2024-07-02T08:47:52Z</time>
      </trkpt>
      <trkpt lat="44.8787" lon="5.24114">
        <ele>1320.1</ele>
        <time>2024-07-02T08:47:53Z</time>
      </trkpt>
      <trkpt lat="44.8787" lon="5.24115">
        <ele>1320</ele>
        <time>2024-07-02T08:47:54Z</time>
      </trkpt>
      <trkpt lat="44.87871" lon="5.24116">
        <ele>1319.9</ele>
        <time>2024-07-02T08:47:55Z</time>
      </trkpt>
      <trkpt lat="44.87872" lon="5.24116">
        <ele>1319.9</ele>
        <time>2024-07-02T08:47:56Z</time>
      </trkpt>
      <trkpt lat="44.87874" lon="5.24118">
        <ele>1319.7</ele>
        <time>2024-07-02T08:47:57Z</time>
      </trkpt>
      <trkpt lat="44.87874" lon="5.24118">
        <ele>1319.7</ele>
        <time>2024-07-02T08:47:58Z</time>
      </trkpt>
      <trkpt lat="44.87875" lon="5.24118">
        <ele>1319.6</ele>
        <time>2024-07-02T08:47:59Z</time>
      </trkpt>
      <trkpt lat="44.87875" lon="5.24119">
        <ele>1319.6</ele>
        <time>2024-07-02T08:48:00Z</time>
      </trkpt>
      <trkpt lat="44.87876" lon="5.24119">
        <ele>1319.5</ele>
        <time>2024-07-02T08:48:01Z</time>
      </trkpt>
      <trkpt lat="44.87877" lon="5.2412">
        <ele>1319.4</ele>
        <time>2024-07-02T08:48:02Z</time>
      </trkpt>
      <trkpt lat="44.87878" lon="5.2412">
        <ele>1319.3</ele>
        <time>2024-07-02T08:48:03Z</time>
      </trkpt>
      <trkpt lat="44.87879" lon="5.2412">
        <ele>1319.3</ele>
        <time>2024-07-02T08:48:04Z</time>
      </trkpt>
      <trkpt lat="44.8788" lon="5.2412">
        <ele>1319.2</ele>
        <time>2024-07-02T08:48:05Z</time>
      </trkpt>
      <trkpt lat="44.87881" lon="5.24121">
        <ele>1319.1</ele>
        <time>2024-07-02T08:48:06Z</time>
      </trkpt>
      <trkpt lat="44.87882" lon="5.24121">
        <ele>1319</ele>
        <time>2024-07-02T08:48:07Z</time>
      </trkpt>
      <trkpt lat="44.87883" lon="5.24121">
        <ele>1318.9</ele>
        <time>2024-07-02T08:48:08Z</time>
      </trkpt>
      <trkpt lat="44.87884" lon="5.24122">
        <ele>1318.9</ele>
        <time>2024-07-02T08:48:09Z</time>
      </trkpt>
      <trkpt lat="44.87885" lon="5.24122">
        <ele>1318.8</ele>
        <time>2024-07-02T08:48:10Z</time>
      </trkpt>
      <trkpt lat="44.87886" lon="5.24122">
        <ele>1318.7</ele>
        <time>2024-07-02T08:48:11Z</time>
      </trkpt>
      <trkpt lat="44.87887" lon="5.24122">
        <ele>1318.6</ele>
        <time>2024-07-02T08:48:12Z</time>
      </trkpt>
      <trkpt lat="44.87888" lon="5.24123">
        <ele>1318.5</ele>
        <time>2024-07-02T08:48:13Z</time>
      </trkpt>
      <trkpt lat="44.87889" lon="5.24123">
        <ele>1318.4</ele>
        <time>2024-07-02T08:48:14Z</time>
      </trkpt>
      <trkpt lat="44.8789" lon="5.24124">
        <ele>1318.3</ele>
        <time>2024-07-02T08:48:15Z</time>
      </trkpt>
      <trkpt lat="44.87892" lon="5.24126">
        <ele>1318.1</ele>
        <time>2024-07-02T08:48:16Z</time>
      </trkpt>
      <trkpt lat="44.87893" lon="5.24126">
        <ele>1318</ele>
        <time>2024-07-02T08:48:17Z</time>
      </trkpt>
      <trkpt lat="44.87894" lon="5.24127">
        <ele>1317.9</ele>
        <time>2024-07-02T08:48:18Z</time>
      </trkpt>
      <trkpt lat="44.87895" lon="5.24128">
        <ele>1317.7</ele>
        <time>2024-07-02T08:48:19Z</time>
      </trkpt>
      <trkpt lat="44.87896" lon="5.24129">
        <ele>1317.6</ele>
        <time>2024-07-02T08:48:20Z</time>
      </trkpt>
      <trkpt lat="44.87897" lon="5.24129">
        <ele>1317.6</ele>
        <time>2024-07-02T08:48:21Z</time>
      </trkpt>
      <trkpt lat="44.87899" lon="5.2413">
        <ele>1317.4</ele>
        <time>2024-07-02T08:48:22Z</time>
      </trkpt>
      <trkpt lat="44.879" lon="5.24131">
        <ele>1317.3</ele>
        <time>2024-07-02T08:48:23Z</time>
      </trkpt>
      <trkpt lat="44.87901" lon="5.24131">
        <ele>1317.2</ele>
        <time>2024-07-02T08:48:24Z</time>
      </trkpt>
      <trkpt lat="44.87902" lon="5.24131">
        <ele>1317.1</ele>
        <time>2024-07-02T08:48:25Z</time>
      </trkpt>
      <trkpt lat="44.87903" lon="5.24132">
        <ele>1317</ele>
        <time>2024-07-02T08:48:26Z</time>
      </trkpt>
      <trkpt lat="44.87904" lon="5.24132">
        <ele>1316.9</ele>
        <time>2024-07-02T08:48:27Z</time>
      </trkpt>
      <trkpt lat="44.87905" lon="5.24133">
        <ele>1316.7</ele>
        <time>2024-07-02T08:48:28Z</time>
      </trkpt>
      <trkpt lat="44.87906" lon="5.24133">
        <ele>1316.6</ele>
        <time>2024-07-02T08:48:29Z</time>
      </trkpt>
      <trkpt lat="44.87907" lon="5.24134">
        <ele>1316.5</ele>
        <time>2024-07-02T08:48:30Z</time>
      </trkpt>
      <trkpt lat="44.87908" lon="5.24134">
        <ele>1316.4</ele>
        <time>2024-07-02T08:48:31Z</time>
      </trkpt>
      <trkpt lat="44.87909" lon="5.24135">
        <ele>1316.3</ele>
        <time>2024-07-02T08:48:32Z</time>
      </trkpt>
      <trkpt lat="44.8791" lon="5.24135">
        <ele>1316.2</ele>
        <time>2024-07-02T08:48:33Z</time>
      </trkpt>
      <trkpt lat="44.87911" lon="5.24136">
        <ele>1316</ele>
        <time>2024-07-02T08:48:34Z</time>
      </trkpt>
      <trkpt lat="44.87912" lon="5.24136">
        <ele>1315.9</ele>
        <time>2024-07-02T08:48:35Z</time>
      </trkpt>
      <trkpt lat="44.87913" lon="5.24137">
        <ele>1315.8</ele>
        <time>2024-07-02T08:48:36Z</time>
      </trkpt>
      <trkpt lat="44.87914" lon="5.24138">
        <ele>1315.7</ele>
        <time>2024-07-02T08:48:37Z</time>
      </trkpt>
      <trkpt lat="44.87915" lon="5.24139">
        <ele>1315.6</ele>
        <time>2024-07-02T08:48:38Z</time>
      </trkpt>
      <trkpt lat="44.87916" lon="5.24139">
        <ele>1315.4</ele>
        <time>2024-07-02T08:48:39Z</time>
      </trkpt>
      <trkpt lat="44.87917" lon="5.2414">
        <ele>1315.3</ele>
        <time>2024-07-02T08:48:40Z</time>
      </trkpt>
      <trkpt lat="44.87918" lon="5.24141">
        <ele>1315.2</ele>
        <time>2024-07-02T08:48:41Z</time>
      </trkpt>
      <trkpt lat="44.87919" lon="5.24141">
        <ele>1315.1</ele>
        <time>2024-07-02T08:48:42Z</time>
      </trkpt>
      <trkpt lat="44.8792" lon="5.24142">
        <ele>1315</ele>
        <time>2024-07-02T08:48:43Z</time>
      </trkpt>
      <trkpt lat="44.87921" lon="5.24143">
        <ele>1314.9</ele>
        <time>2024-07-02T08:48:44Z</time>
      </trkpt>
      <trkpt lat="44.87922" lon="5.24143">
        <ele>1314.8</ele>
        <time>2024-07-02T08:48:45Z</time>
      </trkpt>
      <trkpt lat="44.87923" lon="5.24144">
        <ele>1314.7</ele>
        <time>2024-07-02T08:48:46Z</time>
      </trkpt>
      <trkpt lat="44.87924" lon="5.24145">
        <ele>1314.6</ele>
        <time>2024-07-02T08:48:47Z</time>
      </trkpt>
      <trkpt lat="44.87925" lon="5.24145">
        <ele>1314.5</ele>
        <time>2024-07-02T08:48:48Z</time>
      </trkpt>
      <trkpt lat="44.87926" lon="5.24146">
        <ele>1314.4</ele>
        <time>2024-07-02T08:48:49Z</time>
      </trkpt>
      <trkpt lat="44.87926" lon="5.24146">
        <ele>1314.3</ele>
        <time>2024-07-02T08:48:50Z</time>
      </trkpt>
      <trkpt lat="44.87927" lon="5.24147">
        <ele>1314.2</ele>
        <time>2024-07-02T08:48:51Z</time>
      </trkpt>
      <trkpt lat="44.87929" lon="5.24149">
        <ele>1314</ele>
        <time>2024-07-02T08:48:52Z</time>
      </trkpt>
      <trkpt lat="44.8793" lon="5.24149">
        <ele>1314</ele>
        <time>2024-07-02T08:48:53Z</time>
      </trkpt>
      <trkpt lat="44.87931" lon="5.2415">
        <ele>1313.9</ele>
        <time>2024-07-02T08:48:54Z</time>
      </trkpt>
      <trkpt lat="44.87931" lon="5.2415">
        <ele>1313.8</ele>
        <time>2024-07-02T08:48:55Z</time>
      </trkpt>
      <trkpt lat="44.87933" lon="5.24151">
        <ele>1313.7</ele>
        <time>2024-07-02T08:48:56Z</time>
      </trkpt>
      <trkpt lat="44.87934" lon="5.24151">
        <ele>1313.6</ele>
        <time>2024-07-02T08:48:57Z</time>
      </trkpt>
      <trkpt lat="44.87935" lon="5.24152">
        <ele>1313.5</ele>
        <time>2024-07-02T08:48:58Z</time>
      </trkpt>
      <trkpt lat="44.87936" lon="5.24152">
        <ele>1313.4</ele>
        <time>2024-07-02T08:48:59Z</time>
      </trkpt>
      <trkpt lat="44.87937" lon="5.24153">
        <ele>1313.3</ele>
        <time>2024-07-02T08:49:00Z</time>
      </trkpt>
      <trkpt lat="44.87938" lon="5.24153">
        <ele>1313.2</ele>
        <time>2024-07-02T08:49:01Z</time>
      </trkpt>
      <trkpt lat="44.87939" lon="5.24154">
        <ele>1313.1</ele>
        <time>2024-07-02T08:49:02Z</time>
      </trkpt>
      <trkpt lat="44.8794" lon="5.24154">
        <ele>1313.1</ele>
        <time>2024-07-02T08:49:03Z</time>
      </trkpt>
      <trkpt lat="44.87941" lon="5.24154">
        <ele>1313</ele>
        <time>2024-07-02T08:49:04Z</time>
      </trkpt>
      <trkpt lat="44.87942" lon="5.24154">
        <ele>1312.9</ele>
        <time>2024-07-02T08:49:05Z</time>
      </trkpt>
      <trkpt lat="44.87943" lon="5.24155">
        <ele>1312.8</ele>
        <time>2024-07-02T08:49:06Z</time>
      </trkpt>
      <trkpt lat="44.87944" lon="5.24155">
        <ele>1312.7</ele>
        <time>2024-07-02T08:49:07Z</time>
      </trkpt>
      <trkpt lat="44.87945" lon="5.24155">
        <ele>1312.6</ele>
        <time>2024-07-02T08:49:08Z</time>
      </trkpt>
      <trkpt lat="44.87946" lon="5.24155">
        <ele>1312.5</ele>
        <time>2024-07-02T08:49:09Z</time>
      </trkpt>
      <trkpt lat="44.87947" lon="5.24155">
        <ele>1312.5</ele>
        <time>2024-07-02T08:49:10Z</time>
      </trkpt>
      <trkpt lat="44.87948" lon="5.24155">
        <ele>1312.4</ele>
        <time>2024-07-02T08:49:11Z</time>
      </trkpt>
      <trkpt lat="44.87949" lon="5.24156">
        <ele>1312.3</ele>
        <time>2024-07-02T08:49:12Z</time>
      </trkpt>
      <trkpt lat="44.8795" lon="5.24156">
        <ele>1312.2</ele>
        <time>2024-07-02T08:49:13Z</time>
      </trkpt>
      <trkpt lat="44.87951" lon="5.24157">
        <ele>1312.1</ele>
        <time>2024-07-02T08:49:14Z</time>
      </trkpt>
      <trkpt lat="44.87952" lon="5.24157">
        <ele>1312</ele>
        <time>2024-07-02T08:49:15Z</time>
      </trkpt>
      <trkpt lat="44.87953" lon="5.24158">
        <ele>1311.9</ele>
        <time>2024-07-02T08:49:16Z</time>
      </trkpt>
      <trkpt lat="44.87954" lon="5.24158">
        <ele>1311.8</ele>
        <time>2024-07-02T08:49:17Z</time>
      </trkpt>
      <trkpt lat="44.87955" lon="5.24159">
        <ele>1311.7</ele>
        <time>2024-07-02T08:49:18Z</time>
      </trkpt>
      <trkpt lat="44.87956" lon="5.24159">
        <ele>1311.6</ele>
        <time>2024-07-02T08:49:19Z</time>
      </trkpt>
      <trkpt lat="44.87957" lon="5.2416">
        <ele>1311.5</ele>
        <time>2024-07-02T08:49:20Z</time>
      </trkpt>
      <trkpt lat="44.87958" lon="5.2416">
        <ele>1311.4</ele>
        <time>2024-07-02T08:49:21Z</time>
      </trkpt>
      <trkpt lat="44.8796" lon="5.24161">
        <ele>1311.3</ele>
        <time>2024-07-02T08:49:22Z</time>
      </trkpt>
      <trkpt lat="44.8796" lon="5.24161">
        <ele>1311.2</ele>
        <time>2024-07-02T08:49:23Z</time>
      </trkpt>
      <trkpt lat="44.87961" lon="5.24162">
        <ele>1311.1</ele>
        <time>2024-07-02T08:49:24Z</time>
      </trkpt>
      <trkpt lat="44.87962" lon="5.24162">
        <ele>1311</ele>
        <time>2024-07-02T08:49:25Z</time>
      </trkpt>
      <trkpt lat="44.87963" lon="5.24163">
        <ele>1310.9</ele>
        <time>2024-07-02T08:49:26Z</time>
      </trkpt>
      <trkpt lat="44.87964" lon="5.24163">
        <ele>1310.8</ele>
        <time>2024-07-02T08:49:27Z</time>
      </trkpt>
      <trkpt lat="44.87965" lon="5.24164">
        <ele>1310.7</ele>
        <time>2024-07-02T08:49:28Z</time>
      </trkpt>
      <trkpt lat="44.87966" lon="5.24164">
        <ele>1310.6</ele>
        <time>2024-07-02T08:49:29Z</time>
      </trkpt>
      <trkpt lat="44.87967" lon="5.24165">
        <ele>1310.5</ele>
        <time>2024-07-02T08:49:30Z</time>
      </trkpt>
      <trkpt lat="44.87968" lon="5.24166">
        <ele>1310.4</ele>
        <time>2024-07-02T08:49:31Z</time>
      </trkpt>
      <trkpt lat="44.87969" lon="5.24166">
        <ele>1310.3</ele>
        <time>2024-07-02T08:49:32Z</time>
      </trkpt>
      <trkpt lat="44.8797" lon="5.24167">
        <ele>1310.1</ele>
        <time>2024-07-02T08:49:33Z</time>
      </trkpt>
      <trkpt lat="44.87971" lon="5.24168">
        <ele>1310</ele>
        <time>2024-07-02T08:49:34Z</time>
      </trkpt>
      <trkpt lat="44.87972" lon="5.24168">
        <ele>1309.9</ele>
        <time>2024-07-02T08:49:35Z</time>
      </trkpt>
      <trkpt lat="44.87973" lon="5.24169">
        <ele>1309.8</ele>
        <time>2024-07-02T08:49:36Z</time>
      </trkpt>
      <trkpt lat="44.87974" lon="5.2417">
        <ele>1309.7</ele>
        <time>2024-07-02T08:49:37Z</time>
      </trkpt>
      <trkpt lat="44.87975" lon="5.2417">
        <ele>1309.6</ele>
        <time>2024-07-02T08:49:38Z</time>
      </trkpt>
      <trkpt lat="44.87976" lon="5.24171">
        <ele>1309.5</ele>
        <time>2024-07-02T08:49:39Z</time>
      </trkpt>
      <trkpt lat="44.87977" lon="5.24172">
        <ele>1309.4</ele>
        <time>2024-07-02T08:49:40Z</time>
      </trkpt>
      <trkpt lat="44.87978" lon="5.24172">
        <ele>1309.2</ele>
        <time>2024-07-02T08:49:41Z</time>
      </trkpt>
      <trkpt lat="44.87979" lon="5.24172">
        <ele>1309.1</ele>
        <time>2024-07-02T08:49:42Z</time>
      </trkpt>
      <trkpt lat="44.8798" lon="5.24173">
        <ele>1309</ele>
        <time>2024-07-02T08:49:43Z</time>
      </trkpt>
      <trkpt lat="44.87981" lon="5.24174">
        <ele>1308.9</ele>
        <time>2024-07-02T08:49:44Z</time>
      </trkpt>
      <trkpt lat="44.87981" lon="5.24174">
        <ele>1308.9</ele>
        <time>2024-07-02T08:49:45Z</time>
      </trkpt>
      <trkpt lat="44.87981" lon="5.24174">
        <ele>1308.9</ele>
        <time>2024-07-02T08:49:46Z</time>
      </trkpt>
      <trkpt lat="44.87982" lon="5.24174">
        <ele>1308.8</ele>
        <time>2024-07-02T08:49:47Z</time>
      </trkpt>
      <trkpt lat="44.87982" lon="5.24174">
        <ele>1308.8</ele>
        <time>2024-07-02T08:49:48Z</time>
      </trkpt>
      <trkpt lat="44.87983" lon="5.24175">
        <ele>1308.6</ele>
        <time>2024-07-02T08:49:49Z</time>
      </trkpt>
      <trkpt lat="44.87984" lon="5.24175">
        <ele>1308.5</ele>
        <time>2024-07-02T08:49:50Z</time>
      </trkpt>
      <trkpt lat="44.87986" lon="5.24176">
        <ele>1308.3</ele>
        <time>2024-07-02T08:49:51Z</time>
      </trkpt>
      <trkpt lat="44.87987" lon="5.24176">
        <ele>1308.2</ele>
        <time>2024-07-02T08:49:52Z</time>
      </trkpt>
      <trkpt lat="44.87988" lon="5.24176">
        <ele>1308.1</ele>
        <time>2024-07-02T08:49:53Z</time>
      </trkpt>
      <trkpt lat="44.87989" lon="5.24177">
        <ele>1308</ele>
        <time>2024-07-02T08:49:54Z</time>
      </trkpt>
      <trkpt lat="44.8799" lon="5.24178">
        <ele>1307.8</ele>
        <time>2024-07-02T08:49:55Z</time>
      </trkpt>
      <trkpt lat="44.87991" lon="5.24178">
        <ele>1307.7</ele>
        <time>2024-07-02T08:49:56Z</time>
      </trkpt>
      <trkpt lat="44.87993" lon="5.24179">
        <ele>1307.5</ele>
        <time>2024-07-02T08:49:57Z</time>
      </trkpt>
      <trkpt lat="44.87994" lon="5.24179">
        <ele>1307.4</ele>
        <time>2024-07-02T08:49:58Z</time>
      </trkpt>
      <trkpt lat="44.87995" lon="5.2418">
        <ele>1307.3</ele>
        <time>2024-07-02T08:49:59Z</time>
      </trkpt>
      <trkpt lat="44.87997" lon="5.24181">
        <ele>1307.1</ele>
        <time>2024-07-02T08:50:00Z</time>
      </trkpt>
      <trkpt lat="44.87997" lon="5.24182">
        <ele>1307</ele>
        <time>2024-07-02T08:50:01Z</time>
      </trkpt>
      <trkpt lat="44.87998" lon="5.24183">
        <ele>1306.9</ele>
        <time>2024-07-02T08:50:02Z</time>
      </trkpt>
      <trkpt lat="44.88" lon="5.24184">
        <ele>1306.6</ele>
        <time>2024-07-02T08:50:03Z</time>
      </trkpt>
      <trkpt lat="44.88001" lon="5.24185">
        <ele>1306.5</ele>
        <time>2024-07-02T08:50:04Z</time>
      </trkpt>
      <trkpt lat="44.88002" lon="5.24186">
        <ele>1306.4</ele>
        <time>2024-07-02T08:50:05Z</time>
      </trkpt>
      <trkpt lat="44.88004" lon="5.24187">
        <ele>1306.2</ele>
        <time>2024-07-02T08:50:06Z</time>
      </trkpt>
      <trkpt lat="44.88004" lon="5.24187">
        <ele>1306.1</ele>
        <time>2024-07-02T08:50:07Z</time>
      </trkpt>
      <trkpt lat="44.88005" lon="5.24188">
        <ele>1306</ele>
        <time>2024-07-02T08:50:08Z</time>
      </trkpt>
      <trkpt lat="44.88006" lon="5.24188">
        <ele>1305.9</ele>
        <time>2024-07-02T08:50:09Z</time>
      </trkpt>
      <trkpt lat="44.88007" lon="5.24189">
        <ele>1305.7</ele>
        <time>2024-07-02T08:50:10Z</time>
      </trkpt>
      <trkpt lat="44.88008" lon="5.2419">
        <ele>1305.6</ele>
        <time>2024-07-02T08:50:11Z</time>
      </trkpt>
      <trkpt lat="44.88009" lon="5.2419">
        <ele>1305.5</ele>
        <time>2024-07-02T08:50:12Z</time>
      </trkpt>
      <trkpt lat="44.88011" lon="5.24191">
        <ele>1305.4</ele>
        <time>2024-07-02T08:50:13Z</time>
      </trkpt>
      <trkpt lat="44.88012" lon="5.24191">
        <ele>1305.2</ele>
        <time>2024-07-02T08:50:14Z</time>
      </trkpt>
      <trkpt lat="44.88014" lon="5.24192">
        <ele>1305</ele>
        <time>2024-07-02T08:50:15Z</time>
      </trkpt>
      <trkpt lat="44.88014" lon="5.24192">
        <ele>1305</ele>
        <time>2024-07-02T08:50:16Z</time>
      </trkpt>
      <trkpt lat="44.88015" lon="5.24193">
        <ele>1304.9</ele>
        <time>2024-07-02T08:50:17Z</time>
      </trkpt>
      <trkpt lat="44.88016" lon="5.24193">
        <ele>1304.7</ele>
        <time>2024-07-02T08:50:18Z</time>
      </trkpt>
      <trkpt lat="44.88017" lon="5.24194">
        <ele>1304.7</ele>
        <time>2024-07-02T08:50:19Z</time>
      </trkpt>
      <trkpt lat="44.88019" lon="5.24194">
        <ele>1304.5</ele>
        <time>2024-07-02T08:50:20Z</time>
      </trkpt>
      <trkpt lat="44.88021" lon="5.24195">
        <ele>1304.4</ele>
        <time>2024-07-02T08:50:21Z</time>
      </trkpt>
      <trkpt lat="44.88021" lon="5.24195">
        <ele>1304.3</ele>
        <time>2024-07-02T08:50:22Z</time>
      </trkpt>
      <trkpt lat="44.88022" lon="5.24195">
        <ele>1304.2</ele>
        <time>2024-07-02T08:50:23Z</time>
      </trkpt>
      <trkpt lat="44.88023" lon="5.24196">
        <ele>1304.1</ele>
        <time>2024-07-02T08:50:24Z</time>
      </trkpt>
      <trkpt lat="44.88024" lon="5.24196">
        <ele>1304</ele>
        <time>2024-07-02T08:50:25Z</time>
      </trkpt>
      <trkpt lat="44.88026" lon="5.24197">
        <ele>1303.9</ele>
        <time>2024-07-02T08:50:26Z</time>
      </trkpt>
      <trkpt lat="44.88028" lon="5.24198">
        <ele>1303.7</ele>
        <time>2024-07-02T08:50:27Z</time>
      </trkpt>
      <trkpt lat="44.88028" lon="5.24198">
        <ele>1303.6</ele>
        <time>2024-07-02T08:50:28Z</time>
      </trkpt>
      <trkpt lat="44.88029" lon="5.24198">
        <ele>1303.5</ele>
        <time>2024-07-02T08:50:29Z</time>
      </trkpt>
      <trkpt lat="44.8803" lon="5.24199">
        <ele>1303.4</ele>
        <time>2024-07-02T08:50:30Z</time>
      </trkpt>
      <trkpt lat="44.88032" lon="5.24199">
        <ele>1303.3</ele>
        <time>2024-07-02T08:50:31Z</time>
      </trkpt>
      <trkpt lat="44.88034" lon="5.242">
        <ele>1303.1</ele>
        <time>2024-07-02T08:50:32Z</time>
      </trkpt>
      <trkpt lat="44.88034" lon="5.24201">
        <ele>1303</ele>
        <time>2024-07-02T08:50:33Z</time>
      </trkpt>
      <trkpt lat="44.88035" lon="5.24201">
        <ele>1302.9</ele>
        <time>2024-07-02T08:50:34Z</time>
      </trkpt>
      <trkpt lat="44.88036" lon="5.24201">
        <ele>1302.8</ele>
        <time>2024-07-02T08:50:35Z</time>
      </trkpt>
      <trkpt lat="44.88037" lon="5.24202">
        <ele>1302.7</ele>
        <time>2024-07-02T08:50:36Z</time>
      </trkpt>
      <trkpt lat="44.88038" lon="5.24203">
        <ele>1302.6</ele>
        <time>2024-07-02T08:50:37Z</time>
      </trkpt>
      <trkpt lat="44.8804" lon="5.24205">
        <ele>1302.4</ele>
        <time>2024-07-02T08:50:38Z</time>
      </trkpt>
      <trkpt lat="44.88041" lon="5.24205">
        <ele>1302.3</ele>
        <time>2024-07-02T08:50:39Z</time>
      </trkpt>
      <trkpt lat="44.88042" lon="5.24206">
        <ele>1302.3</ele>
        <time>2024-07-02T08:50:40Z</time>
      </trkpt>
      <trkpt lat="44.88044" lon="5.24207">
        <ele>1302.1</ele>
        <time>2024-07-02T08:50:41Z</time>
      </trkpt>
      <trkpt lat="44.88044" lon="5.24208">
        <ele>1302</ele>
        <time>2024-07-02T08:50:42Z</time>
      </trkpt>
      <trkpt lat="44.88045" lon="5.24209">
        <ele>1301.9</ele>
        <time>2024-07-02T08:50:43Z</time>
      </trkpt>
      <trkpt lat="44.88046" lon="5.24209">
        <ele>1301.8</ele>
        <time>2024-07-02T08:50:44Z</time>
      </trkpt>
      <trkpt lat="44.88047" lon="5.2421">
        <ele>1301.7</ele>
        <time>2024-07-02T08:50:45Z</time>
      </trkpt>
      <trkpt lat="44.88049" lon="5.2421">
        <ele>1301.6</ele>
        <time>2024-07-02T08:50:46Z</time>
      </trkpt>
      <trkpt lat="44.8805" lon="5.24211">
        <ele>1301.4</ele>
        <time>2024-07-02T08:50:47Z</time>
      </trkpt>
      <trkpt lat="44.88051" lon="5.24211">
        <ele>1301.3</ele>
        <time>2024-07-02T08:50:48Z</time>
      </trkpt>
      <trkpt lat="44.88052" lon="5.24212">
        <ele>1301.2</ele>
        <time>2024-07-02T08:50:49Z</time>
      </trkpt>
      <trkpt lat="44.88054" lon="5.24212">
        <ele>1301</ele>
        <time>2024-07-02T08:50:50Z</time>
      </trkpt>
      <trkpt lat="44.88055" lon="5.24212">
        <ele>1301</ele>
        <time>2024-07-02T08:50:51Z</time>
      </trkpt>
      <trkpt lat="44.88056" lon="5.24213">
        <ele>1300.9</ele>
        <time>2024-07-02T08:50:52Z</time>
      </trkpt>
      <trkpt lat="44.88058" lon="5.24213">
        <ele>1300.7</ele>
        <time>2024-07-02T08:50:53Z</time>
      </trkpt>
      <trkpt lat="44.88059" lon="5.24214">
        <ele>1300.6</ele>
        <time>2024-07-02T08:50:54Z</time>
      </trkpt>
      <trkpt lat="44.88059" lon="5.24214">
        <ele>1300.5</ele>
        <time>2024-07-02T08:50:55Z</time>
      </trkpt>
      <trkpt lat="44.88062" lon="5.24214">
        <ele>1300.3</ele>
        <time>2024-07-02T08:50:56Z</time>
      </trkpt>
      <trkpt lat="44.88062" lon="5.24215">
        <ele>1300.3</ele>
        <time>2024-07-02T08:50:57Z</time>
      </trkpt>
      <trkpt lat="44.88063" lon="5.24215">
        <ele>1300.2</ele>
        <time>2024-07-02T08:50:58Z</time>
      </trkpt>
      <trkpt lat="44.88064" lon="5.24215">
        <ele>1300.1</ele>
        <time>2024-07-02T08:50:59Z</time>
      </trkpt>
      <trkpt lat="44.88065" lon="5.24216">
        <ele>1300</ele>
        <time>2024-07-02T08:51:00Z</time>
      </trkpt>
      <trkpt lat="44.88066" lon="5.24216">
        <ele>1299.9</ele>
        <time>2024-07-02T08:51:01Z</time>
      </trkpt>
      <trkpt lat="44.88067" lon="5.24216">
        <ele>1299.8</ele>
        <time>2024-07-02T08:51:02Z</time>
      </trkpt>
      <trkpt lat="44.88068" lon="5.24216">
        <ele>1299.7</ele>
        <time>2024-07-02T08:51:03Z</time>
      </trkpt>
      <trkpt lat="44.88069" lon="5.24217">
        <ele>1299.6</ele>
        <time>2024-07-02T08:51:04Z</time>
      </trkpt>
      <trkpt lat="44.8807" lon="5.24217">
        <ele>1299.5</ele>
        <time>2024-07-02T08:51:05Z</time>
      </trkpt>
      <trkpt lat="44.88071" lon="5.24218">
        <ele>1299.4</ele>
        <time>2024-07-02T08:51:06Z</time>
      </trkpt>
      <trkpt lat="44.88072" lon="5.24218">
        <ele>1299.3</ele>
        <time>2024-07-02T08:51:07Z</time>
      </trkpt>
      <trkpt lat="44.88073" lon="5.24219">
        <ele>1299.3</ele>
        <time>2024-07-02T08:51:08Z</time>
      </trkpt>
      <trkpt lat="44.88074" lon="5.24219">
        <ele>1299.1</ele>
        <time>2024-07-02T08:51:09Z</time>
      </trkpt>
      <trkpt lat="44.88075" lon="5.2422">
        <ele>1299.1</ele>
        <time>2024-07-02T08:51:10Z</time>
      </trkpt>
      <trkpt lat="44.88076" lon="5.2422">
        <ele>1299</ele>
        <time>2024-07-02T08:51:11Z</time>
      </trkpt>
      <trkpt lat="44.88077" lon="5.24221">
        <ele>1298.9</ele>
        <time>2024-07-02T08:51:12Z</time>
      </trkpt>
      <trkpt lat="44.88078" lon="5.24221">
        <ele>1298.8</ele>
        <time>2024-07-02T08:51:13Z</time>
      </trkpt>
      <trkpt lat="44.88079" lon="5.24221">
        <ele>1298.7</ele>
        <time>2024-07-02T08:51:14Z</time>
      </trkpt>
      <trkpt lat="44.88079" lon="5.24222">
        <ele>1298.6</ele>
        <time>2024-07-02T08:51:15Z</time>
      </trkpt>
      <trkpt lat="44.8808" lon="5.24222">
        <ele>1298.6</ele>
        <time>2024-07-02T08:51:16Z</time>
      </trkpt>
      <trkpt lat="44.88082" lon="5.24223">
        <ele>1298.5</ele>
        <time>2024-07-02T08:51:17Z</time>
      </trkpt>
      <trkpt lat="44.88083" lon="5.24223">
        <ele>1298.4</ele>
        <time>2024-07-02T08:51:18Z</time>
      </trkpt>
      <trkpt lat="44.88084" lon="5.24223">
        <ele>1298.3</ele>
        <time>2024-07-02T08:51:19Z</time>
      </trkpt>
      <trkpt lat="44.88085" lon="5.24223">
        <ele>1298.2</ele>
        <time>2024-07-02T08:51:20Z</time>
      </trkpt>
      <trkpt lat="44.88086" lon="5.24224">
        <ele>1298.1</ele>
        <time>2024-07-02T08:51:21Z</time>
      </trkpt>
      <trkpt lat="44.88087" lon="5.24224">
        <ele>1298</ele>
        <time>2024-07-02T08:51:22Z</time>
      </trkpt>
      <trkpt lat="44.88088" lon="5.24224">
        <ele>1297.9</ele>
        <time>2024-07-02T08:51:23Z</time>
      </trkpt>
      <trkpt lat="44.88089" lon="5.24225">
        <ele>1297.9</ele>
        <time>2024-07-02T08:51:24Z</time>
      </trkpt>
      <trkpt lat="44.8809" lon="5.24225">
        <ele>1297.8</ele>
        <time>2024-07-02T08:51:25Z</time>
      </trkpt>
      <trkpt lat="44.88091" lon="5.24226">
        <ele>1297.7</ele>
        <time>2024-07-02T08:51:26Z</time>
      </trkpt>
      <trkpt lat="44.88092" lon="5.24226">
        <ele>1297.6</ele>
        <time>2024-07-02T08:51:27Z</time>
      </trkpt>
      <trkpt lat="44.88093" lon="5.24226">
        <ele>1297.5</ele>
        <time>2024-07-02T08:51:28Z</time>
      </trkpt>
      <trkpt lat="44.88094" lon="5.24227">
        <ele>1297.4</ele>
        <time>2024-07-02T08:51:29Z</time>
      </trkpt>
      <trkpt lat="44.88094" lon="5.24229">
        <ele>1297.4</ele>
        <time>2024-07-02T08:51:30Z</time>
      </trkpt>
      <trkpt lat="44.88094" lon="5.2423">
        <ele>1297.3</ele>
        <time>2024-07-02T08:51:31Z</time>
      </trkpt>
      <trkpt lat="44.88092" lon="5.2423">
        <ele>1297.2</ele>
        <time>2024-07-02T08:51:32Z</time>
      </trkpt>
      <trkpt lat="44.88091" lon="5.2423">
        <ele>1297.1</ele>
        <time>2024-07-02T08:51:33Z</time>
      </trkpt>
      <trkpt lat="44.88091" lon="5.24229">
        <ele>1297.1</ele>
        <time>2024-07-02T08:51:34Z</time>
      </trkpt>
      <trkpt lat="44.8809" lon="5.24229">
        <ele>1297</ele>
        <time>2024-07-02T08:51:35Z</time>
      </trkpt>
      <trkpt lat="44.8809" lon="5.24229">
        <ele>1297</ele>
        <time>2024-07-02T08:51:36Z</time>
      </trkpt>
      <trkpt lat="44.8809" lon="5.2423">
        <ele>1297</ele>
        <time>2024-07-02T08:51:37Z</time>
      </trkpt>
      <trkpt lat="44.8809" lon="5.2423">
        <ele>1297</ele>
        <time>2024-07-02T08:51:38Z</time>
      </trkpt>
      <trkpt lat="44.8809" lon="5.24229">
        <ele>1297</ele>
        <time>2024-07-02T08:51:39Z</time>
      </trkpt>
      <trkpt lat="44.8809" lon="5.24229">
        <ele>1297</ele>
        <time>2024-07-02T08:51:40Z</time>
      </trkpt>
      <trkpt lat="44.8809" lon="5.2423">
        <ele>1297</ele>
        <time>2024-07-02T08:51:41Z</time>
      </trkpt>
      <trkpt lat="44.8809" lon="5.2423">
        <ele>1297</ele>
        <time>2024-07-02T08:51:42Z</time>
      </trkpt>
      <trkpt lat="44.8809" lon="5.2423">
        <ele>1297</ele>
        <time>2024-07-02T08:51:43Z</time>
      </trkpt>
      <trkpt lat="44.88091" lon="5.2423">
        <ele>1297</ele>
        <time>2024-07-02T08:51:44Z</time>
      </trkpt>
      <trkpt lat="44.88091" lon="5.2423">
        <ele>1297</ele>
        <time>2024-07-02T08:51:45Z</time>
      </trkpt>
      <trkpt lat="44.88091" lon="5.2423">
        <ele>1296.9</ele>
        <time>2024-07-02T08:51:46Z</time>
      </trkpt>
      <trkpt lat="44.88091" lon="5.2423">
        <ele>1296.9</ele>
        <time>2024-07-02T08:51:47Z</time>
      </trkpt>
      <trkpt lat="44.88091" lon="5.2423">
        <ele>1296.9</ele>
        <time>2024-07-02T08:51:48Z</time>
      </trkpt>
      <trkpt lat="44.88092" lon="5.2423">
        <ele>1296.9</ele>
        <time>2024-07-02T08:51:49Z</time>
      </trkpt>
      <trkpt lat="44.88092" lon="5.24231">
        <ele>1296.9</ele>
        <time>2024-07-02T08:51:50Z</time>
      </trkpt>
      <trkpt lat="44.88093" lon="5.24232">
        <ele>1296.7</ele>
        <time>2024-07-02T08:51:51Z</time>
      </trkpt>
      <trkpt lat="44.88094" lon="5.24234">
        <ele>1296.6</ele>
        <time>2024-07-02T08:51:52Z</time>
      </trkpt>
      <trkpt lat="44.88096" lon="5.24235">
        <ele>1296.5</ele>
        <time>2024-07-02T08:51:53Z</time>
      </trkpt>
      <trkpt lat="44.88098" lon="5.24236">
        <ele>1296.3</ele>
        <time>2024-07-02T08:51:54Z</time>
      </trkpt>
      <trkpt lat="44.88098" lon="5.24236">
        <ele>1296.2</ele>
        <time>2024-07-02T08:51:55Z</time>
      </trkpt>
      <trkpt lat="44.88099" lon="5.24236">
        <ele>1296.2</ele>
        <time>2024-07-02T08:51:56Z</time>
      </trkpt>
      <trkpt lat="44.881" lon="5.24235">
        <ele>1296.1</ele>
        <time>2024-07-02T08:51:57Z</time>
      </trkpt>
      <trkpt lat="44.88102" lon="5.24235">
        <ele>1296</ele>
        <time>2024-07-02T08:51:58Z</time>
      </trkpt>
      <trkpt lat="44.88102" lon="5.24234">
        <ele>1295.9</ele>
        <time>2024-07-02T08:51:59Z</time>
      </trkpt>
      <trkpt lat="44.88103" lon="5.24234">
        <ele>1295.9</ele>
        <time>2024-07-02T08:52:00Z</time>
      </trkpt>
      <trkpt lat="44.88103" lon="5.24234">
        <ele>1295.9</ele>
        <time>2024-07-02T08:52:01Z</time>
      </trkpt>
      <trkpt lat="44.88103" lon="5.24234">
        <ele>1295.8</ele>
        <time>2024-07-02T08:52:02Z</time>
      </trkpt>
      <trkpt lat="44.88103" lon="5.24234">
        <ele>1295.8</ele>
        <time>2024-07-02T08:52:03Z</time>
      </trkpt>
      <trkpt lat="44.88103" lon="5.24234">
        <ele>1295.8</ele>
        <time>2024-07-02T08:52:04Z</time>
      </trkpt>
      <trkpt lat="44.88103" lon="5.24234">
        <ele>1295.8</ele>
        <time>2024-07-02T08:52:05Z</time>
      </trkpt>
      <trkpt lat="44.88103" lon="5.24234">
        <ele>1295.8</ele>
        <time>2024-07-02T08:52:06Z</time>
      </trkpt>
      <trkpt lat="44.88103" lon="5.24234">
        <ele>1295.8</ele>
        <time>2024-07-02T08:52:07Z</time>
      </trkpt>
      <trkpt lat="44.88103" lon="5.24234">
        <ele>1295.8</ele>
        <time>2024-07-02T08:52:08Z</time>
      </trkpt>
      <trkpt lat="44.88103" lon="5.24234">
        <ele>1295.8</ele>
        <time>2024-07-02T08:52:09Z</time>
      </trkpt>
      <trkpt lat="44.88103" lon="5.24233">
        <ele>1295.8</ele>
        <time>2024-07-02T08:52:10Z</time>
      </trkpt>
      <trkpt lat="44.88103" lon="5.24233">
        <ele>1295.8</ele>
        <time>2024-07-02T08:52:11Z</time>
      </trkpt>
      <trkpt lat="44.88103" lon="5.24233">
        <ele>1295.8</ele>
        <time>2024-07-02T08:52:12Z</time>
      </trkpt>
      <trkpt lat="44.88103" lon="5.24233">
        <ele>1295.8</ele>
        <time>2024-07-02T08:52:13Z</time>
      </trkpt>
      <trkpt lat="44.88103" lon="5.24233">
        <ele>1295.8</ele>
        <time>2024-07-02T08:52:14Z</time>
      </trkpt>
      <trkpt lat="44.88103" lon="5.24233">
        <ele>1295.7</ele>
        <time>2024-07-02T08:52:15Z</time>
      </trkpt>
      <trkpt lat="44.88103" lon="5.24233">
        <ele>1295.7</ele>
        <time>2024-07-02T08:52:16Z</time>
      </trkpt>
      <trkpt lat="44.88103" lon="5.24233">
        <ele>1295.7</ele>
        <time>2024-07-02T08:52:17Z</time>
      </trkpt>
      <trkpt lat="44.88103" lon="5.24233">
        <ele>1295.7</ele>
        <time>2024-07-02T08:52:18Z</time>
      </trkpt>
      <trkpt lat="44.88103" lon="5.24233">
        <ele>1295.7</ele>
        <time>2024-07-02T08:52:19Z</time>
      </trkpt>
      <trkpt lat="44.88103" lon="5.24233">
        <ele>1295.7</ele>
        <time>2024-07-02T08:52:20Z</time>
      </trkpt>
      <trkpt lat="44.88103" lon="5.24233">
        <ele>1295.7</ele>
        <time>2024-07-02T08:52:21Z</time>
      </trkpt>
      <trkpt lat="44.88103" lon="5.24233">
        <ele>1295.7</ele>
        <time>2024-07-02T08:52:22Z</time>
      </trkpt>
      <trkpt lat="44.88103" lon="5.24233">
        <ele>1295.6</ele>
        <time>2024-07-02T08:52:23Z</time>
      </trkpt>
      <trkpt lat="44.88104" lon="5.24233">
        <ele>1295.6</ele>
        <time>2024-07-02T08:52:24Z</time>
      </trkpt>
      <trkpt lat="44.88104" lon="5.24233">
        <ele>1295.6</ele>
        <time>2024-07-02T08:52:25Z</time>
      </trkpt>
      <trkpt lat="44.88104" lon="5.24233">
        <ele>1295.5</ele>
        <time>2024-07-02T08:52:26Z</time>
      </trkpt>
      <trkpt lat="44.88105" lon="5.24232">
        <ele>1295.5</ele>
        <time>2024-07-02T08:52:27Z</time>
      </trkpt>
      <trkpt lat="44.88105" lon="5.24232">
        <ele>1295.4</ele>
        <time>2024-07-02T08:52:28Z</time>
      </trkpt>
      <trkpt lat="44.88106" lon="5.24232">
        <ele>1295.3</ele>
        <time>2024-07-02T08:52:29Z</time>
      </trkpt>
      <trkpt lat="44.88107" lon="5.24232">
        <ele>1295.3</ele>
        <time>2024-07-02T08:52:30Z</time>
      </trkpt>
      <trkpt lat="44.88108" lon="5.24233">
        <ele>1295.2</ele>
        <time>2024-07-02T08:52:31Z</time>
      </trkpt>
      <trkpt lat="44.88109" lon="5.24234">
        <ele>1295.1</ele>
        <time>2024-07-02T08:52:32Z</time>
      </trkpt>
      <trkpt lat="44.8811" lon="5.24234">
        <ele>1295</ele>
        <time>2024-07-02T08:52:33Z</time>
      </trkpt>
      <trkpt lat="44.88111" lon="5.24235">
        <ele>1294.9</ele>
        <time>2024-07-02T08:52:34Z</time>
      </trkpt>
      <trkpt lat="44.88111" lon="5.24236">
        <ele>1294.8</ele>
        <time>2024-07-02T08:52:35Z</time>
      </trkpt>
      <trkpt lat="44.88112" lon="5.24236">
        <ele>1294.7</ele>
        <time>2024-07-02T08:52:36Z</time>
      </trkpt>
      <trkpt lat="44.88113" lon="5.24237">
        <ele>1294.6</ele>
        <time>2024-07-02T08:52:37Z</time>
      </trkpt>
      <trkpt lat="44.88113" lon="5.24238">
        <ele>1294.5</ele>
        <time>2024-07-02T08:52:38Z</time>
      </trkpt>
      <trkpt lat="44.88113" lon="5.24239">
        <ele>1294.5</ele>
        <time>2024-07-02T08:52:39Z</time>
      </trkpt>
      <trkpt lat="44.88113" lon="5.2424">
        <ele>1294.3</ele>
        <time>2024-07-02T08:52:40Z</time>
      </trkpt>
      <trkpt lat="44.88112" lon="5.24242">
        <ele>1294.2</ele>
        <time>2024-07-02T08:52:41Z</time>
      </trkpt>
      <trkpt lat="44.8811" lon="5.24244">
        <ele>1294</ele>
        <time>2024-07-02T08:52:42Z</time>
      </trkpt>
      <trkpt lat="44.8811" lon="5.24243">
        <ele>1294</ele>
        <time>2024-07-02T08:52:43Z</time>
      </trkpt>
      <trkpt lat="44.88109" lon="5.24244">
        <ele>1293.9</ele>
        <time>2024-07-02T08:52:44Z</time>
      </trkpt>
      <trkpt lat="44.88109" lon="5.24244">
        <ele>1293.9</ele>
        <time>2024-07-02T08:52:45Z</time>
      </trkpt>
      <trkpt lat="44.88108" lon="5.24244">
        <ele>1293.8</ele>
        <time>2024-07-02T08:52:46Z</time>
      </trkpt>
      <trkpt lat="44.88108" lon="5.24245">
        <ele>1293.8</ele>
        <time>2024-07-02T08:52:47Z</time>
      </trkpt>
      <trkpt lat="44.88108" lon="5.24245">
        <ele>1293.8</ele>
        <time>2024-07-02T08:52:48Z</time>
      </trkpt>
      <trkpt lat="44.88108" lon="5.24245">
        <ele>1293.8</ele>
        <time>2024-07-02T08:52:49Z</time>
      </trkpt>
      <trkpt lat="44.88109" lon="5.24245">
        <ele>1293.7</ele>
        <time>2024-07-02T08:52:50Z</time>
      </trkpt>
      <trkpt lat="44.88109" lon="5.24246">
        <ele>1293.7</ele>
        <time>2024-07-02T08:52:51Z</time>
      </trkpt>
      <trkpt lat="44.8811" lon="5.24246">
        <ele>1293.6</ele>
        <time>2024-07-02T08:52:52Z</time>
      </trkpt>
      <trkpt lat="44.88111" lon="5.24247">
        <ele>1293.5</ele>
        <time>2024-07-02T08:52:53Z</time>
      </trkpt>
      <trkpt lat="44.88113" lon="5.24248">
        <ele>1293.3</ele>
        <time>2024-07-02T08:52:54Z</time>
      </trkpt>
      <trkpt lat="44.88114" lon="5.24249">
        <ele>1293.2</ele>
        <time>2024-07-02T08:52:55Z</time>
      </trkpt>
      <trkpt lat="44.88116" lon="5.24249">
        <ele>1293</ele>
        <time>2024-07-02T08:52:56Z</time>
      </trkpt>
      <trkpt lat="44.88117" lon="5.2425">
        <ele>1292.9</ele>
        <time>2024-07-02T08:52:57Z</time>
      </trkpt>
      <trkpt lat="44.88118" lon="5.2425">
        <ele>1292.9</ele>
        <time>2024-07-02T08:52:58Z</time>
      </trkpt>
      <trkpt lat="44.88119" lon="5.2425">
        <ele>1292.7</ele>
        <time>2024-07-02T08:52:59Z</time>
      </trkpt>
      <trkpt lat="44.8812" lon="5.2425">
        <ele>1292.7</ele>
        <time>2024-07-02T08:53:00Z</time>
      </trkpt>
      <trkpt lat="44.88121" lon="5.2425">
        <ele>1292.6</ele>
        <time>2024-07-02T08:53:01Z</time>
      </trkpt>
      <trkpt lat="44.88122" lon="5.2425">
        <ele>1292.5</ele>
        <time>2024-07-02T08:53:02Z</time>
      </trkpt>
      <trkpt lat="44.88123" lon="5.2425">
        <ele>1292.4</ele>
        <time>2024-07-02T08:53:03Z</time>
      </trkpt>
      <trkpt lat="44.88124" lon="5.24248">
        <ele>1292.3</ele>
        <time>2024-07-02T08:53:04Z</time>
      </trkpt>
      <trkpt lat="44.88124" lon="5.24247">
        <ele>1292.2</ele>
        <time>2024-07-02T08:53:05Z</time>
      </trkpt>
      <trkpt lat="44.88125" lon="5.24247">
        <ele>1292.1</ele>
        <time>2024-07-02T08:53:06Z</time>
      </trkpt>
      <trkpt lat="44.88126" lon="5.24246">
        <ele>1292</ele>
        <time>2024-07-02T08:53:07Z</time>
      </trkpt>
      <trkpt lat="44.88127" lon="5.24245">
        <ele>1291.9</ele>
        <time>2024-07-02T08:53:08Z</time>
      </trkpt>
      <trkpt lat="44.88127" lon="5.24245">
        <ele>1291.9</ele>
        <time>2024-07-02T08:53:09Z</time>
      </trkpt>
      <trkpt lat="44.88128" lon="5.24245">
        <ele>1291.8</ele>
        <time>2024-07-02T08:53:10Z</time>
      </trkpt>
      <trkpt lat="44.88129" lon="5.24245">
        <ele>1291.7</ele>
        <time>2024-07-02T08:53:11Z</time>
      </trkpt>
      <trkpt lat="44.8813" lon="5.24245">
        <ele>1291.6</ele>
        <time>2024-07-02T08:53:12Z</time>
      </trkpt>
      <trkpt lat="44.88131" lon="5.24245">
        <ele>1291.5</ele>
        <time>2024-07-02T08:53:13Z</time>
      </trkpt>
      <trkpt lat="44.88132" lon="5.24245">
        <ele>1291.5</ele>
        <time>2024-07-02T08:53:14Z</time>
      </trkpt>
      <trkpt lat="44.88133" lon="5.24245">
        <ele>1291.4</ele>
        <time>2024-07-02T08:53:15Z</time>
      </trkpt>
      <trkpt lat="44.88134" lon="5.24245">
        <ele>1291.3</ele>
        <time>2024-07-02T08:53:16Z</time>
      </trkpt>
      <trkpt lat="44.88135" lon="5.24244">
        <ele>1291.2</ele>
        <time>2024-07-02T08:53:17Z</time>
      </trkpt>
      <trkpt lat="44.88136" lon="5.24244">
        <ele>1291.1</ele>
        <time>2024-07-02T08:53:18Z</time>
      </trkpt>
      <trkpt lat="44.88137" lon="5.24244">
        <ele>1291.1</ele>
        <time>2024-07-02T08:53:19Z</time>
      </trkpt>
      <trkpt lat="44.88137" lon="5.24244">
        <ele>1291</ele>
        <time>2024-07-02T08:53:20Z</time>
      </trkpt>
      <trkpt lat="44.88138" lon="5.24244">
        <ele>1290.9</ele>
        <time>2024-07-02T08:53:21Z</time>
      </trkpt>
      <trkpt lat="44.88139" lon="5.24243">
        <ele>1290.8</ele>
        <time>2024-07-02T08:53:22Z</time>
      </trkpt>
      <trkpt lat="44.8814" lon="5.24243">
        <ele>1290.7</ele>
        <time>2024-07-02T08:53:23Z</time>
      </trkpt>
      <trkpt lat="44.88142" lon="5.24242">
        <ele>1290.6</ele>
        <time>2024-07-02T08:53:24Z</time>
      </trkpt>
      <trkpt lat="44.88142" lon="5.24242">
        <ele>1290.5</ele>
        <time>2024-07-02T08:53:25Z</time>
      </trkpt>
      <trkpt lat="44.88143" lon="5.24241">
        <ele>1290.4</ele>
        <time>2024-07-02T08:53:26Z</time>
      </trkpt>
      <trkpt lat="44.88145" lon="5.24241">
        <ele>1290.3</ele>
        <time>2024-07-02T08:53:27Z</time>
      </trkpt>
      <trkpt lat="44.88146" lon="5.2424">
        <ele>1290.2</ele>
        <time>2024-07-02T08:53:28Z</time>
      </trkpt>
      <trkpt lat="44.88146" lon="5.24239">
        <ele>1290.1</ele>
        <time>2024-07-02T08:53:29Z</time>
      </trkpt>
      <trkpt lat="44.88147" lon="5.24238">
        <ele>1290</ele>
        <time>2024-07-02T08:53:30Z</time>
      </trkpt>
      <trkpt lat="44.88148" lon="5.24238">
        <ele>1289.9</ele>
        <time>2024-07-02T08:53:31Z</time>
      </trkpt>
      <trkpt lat="44.88149" lon="5.24237">
        <ele>1289.8</ele>
        <time>2024-07-02T08:53:32Z</time>
      </trkpt>
      <trkpt lat="44.8815" lon="5.24237">
        <ele>1289.8</ele>
        <time>2024-07-02T08:53:33Z</time>
      </trkpt>
      <trkpt lat="44.88151" lon="5.24237">
        <ele>1289.7</ele>
        <time>2024-07-02T08:53:34Z</time>
      </trkpt>
      <trkpt lat="44.88152" lon="5.24237">
        <ele>1289.5</ele>
        <time>2024-07-02T08:53:35Z</time>
      </trkpt>
      <trkpt lat="44.88153" lon="5.24237">
        <ele>1289.4</ele>
        <time>2024-07-02T08:53:36Z</time>
      </trkpt>
      <trkpt lat="44.88154" lon="5.24238">
        <ele>1289.3</ele>
        <time>2024-07-02T08:53:37Z</time>
      </trkpt>
      <trkpt lat="44.88155" lon="5.24238">
        <ele>1289.2</ele>
        <time>2024-07-02T08:53:38Z</time>
      </trkpt>
      <trkpt lat="44.88157" lon="5.24238">
        <ele>1289.1</ele>
        <time>2024-07-02T08:53:39Z</time>
      </trkpt>
      <trkpt lat="44.88158" lon="5.24238">
        <ele>1289</ele>
        <time>2024-07-02T08:53:40Z</time>
      </trkpt>
      <trkpt lat="44.88159" lon="5.24238">
        <ele>1288.9</ele>
        <time>2024-07-02T08:53:41Z</time>
      </trkpt>
      <trkpt lat="44.8816" lon="5.24238">
        <ele>1288.8</ele>
        <time>2024-07-02T08:53:42Z</time>
      </trkpt>
      <trkpt lat="44.88161" lon="5.24239">
        <ele>1288.7</ele>
        <time>2024-07-02T08:53:43Z</time>
      </trkpt>
      <trkpt lat="44.88162" lon="5.24239">
        <ele>1288.6</ele>
        <time>2024-07-02T08:53:44Z</time>
      </trkpt>
      <trkpt lat="44.88163" lon="5.24239">
        <ele>1288.5</ele>
        <time>2024-07-02T08:53:45Z</time>
      </trkpt>
      <trkpt lat="44.88165" lon="5.24239">
        <ele>1288.4</ele>
        <time>2024-07-02T08:53:46Z</time>
      </trkpt>
      <trkpt lat="44.88166" lon="5.24239">
        <ele>1288.3</ele>
        <time>2024-07-02T08:53:47Z</time>
      </trkpt>
      <trkpt lat="44.88167" lon="5.2424">
        <ele>1288.2</ele>
        <time>2024-07-02T08:53:48Z</time>
      </trkpt>
      <trkpt lat="44.88168" lon="5.2424">
        <ele>1288</ele>
        <time>2024-07-02T08:53:49Z</time>
      </trkpt>
      <trkpt lat="44.88169" lon="5.2424">
        <ele>1287.9</ele>
        <time>2024-07-02T08:53:50Z</time>
      </trkpt>
      <trkpt lat="44.8817" lon="5.2424">
        <ele>1287.8</ele>
        <time>2024-07-02T08:53:51Z</time>
      </trkpt>
      <trkpt lat="44.88171" lon="5.2424">
        <ele>1287.7</ele>
        <time>2024-07-02T08:53:52Z</time>
      </trkpt>
      <trkpt lat="44.88172" lon="5.24241">
        <ele>1287.6</ele>
        <time>2024-07-02T08:53:53Z</time>
      </trkpt>
      <trkpt lat="44.88174" lon="5.24241">
        <ele>1287.5</ele>
        <time>2024-07-02T08:53:54Z</time>
      </trkpt>
      <trkpt lat="44.88175" lon="5.24241">
        <ele>1287.4</ele>
        <time>2024-07-02T08:53:55Z</time>
      </trkpt>
      <trkpt lat="44.88176" lon="5.24241">
        <ele>1287.3</ele>
        <time>2024-07-02T08:53:56Z</time>
      </trkpt>
      <trkpt lat="44.88177" lon="5.24242">
        <ele>1287.2</ele>
        <time>2024-07-02T08:53:57Z</time>
      </trkpt>
      <trkpt lat="44.88178" lon="5.24242">
        <ele>1287.1</ele>
        <time>2024-07-02T08:53:58Z</time>
      </trkpt>
      <trkpt lat="44.88179" lon="5.24242">
        <ele>1287</ele>
        <time>2024-07-02T08:53:59Z</time>
      </trkpt>
      <trkpt lat="44.8818" lon="5.24243">
        <ele>1286.9</ele>
        <time>2024-07-02T08:54:00Z</time>
      </trkpt>
      <trkpt lat="44.88181" lon="5.24243">
        <ele>1286.8</ele>
        <time>2024-07-02T08:54:01Z</time>
      </trkpt>
      <trkpt lat="44.88183" lon="5.24244">
        <ele>1286.7</ele>
        <time>2024-07-02T08:54:02Z</time>
      </trkpt>
      <trkpt lat="44.88184" lon="5.24244">
        <ele>1286.5</ele>
        <time>2024-07-02T08:54:03Z</time>
      </trkpt>
      <trkpt lat="44.88185" lon="5.24245">
        <ele>1286.5</ele>
        <time>2024-07-02T08:54:04Z</time>
      </trkpt>
      <trkpt lat="44.88186" lon="5.24245">
        <ele>1286.4</ele>
        <time>2024-07-02T08:54:05Z</time>
      </trkpt>
      <trkpt lat="44.88187" lon="5.24245">
        <ele>1286.3</ele>
        <time>2024-07-02T08:54:06Z</time>
      </trkpt>
      <trkpt lat="44.88189" lon="5.24245">
        <ele>1286.2</ele>
        <time>2024-07-02T08:54:07Z</time>
      </trkpt>
      <trkpt lat="44.88191" lon="5.24246">
        <ele>1286</ele>
        <time>2024-07-02T08:54:08Z</time>
      </trkpt>
      <trkpt lat="44.88192" lon="5.24246">
        <ele>1285.9</ele>
        <time>2024-07-02T08:54:09Z</time>
      </trkpt>
      <trkpt lat="44.88193" lon="5.24246">
        <ele>1285.8</ele>
        <time>2024-07-02T08:54:10Z</time>
      </trkpt>
      <trkpt lat="44.88194" lon="5.24246">
        <ele>1285.7</ele>
        <time>2024-07-02T08:54:11Z</time>
      </trkpt>
      <trkpt lat="44.88195" lon="5.24247">
        <ele>1285.6</ele>
        <time>2024-07-02T08:54:12Z</time>
      </trkpt>
      <trkpt lat="44.88196" lon="5.24247">
        <ele>1285.6</ele>
        <time>2024-07-02T08:54:13Z</time>
      </trkpt>
      <trkpt lat="44.88197" lon="5.24247">
        <ele>1285.5</ele>
        <time>2024-07-02T08:54:14Z</time>
      </trkpt>
      <trkpt lat="44.88198" lon="5.24247">
        <ele>1285.4</ele>
        <time>2024-07-02T08:54:15Z</time>
      </trkpt>
      <trkpt lat="44.88199" lon="5.24247">
        <ele>1285.3</ele>
        <time>2024-07-02T08:54:16Z</time>
      </trkpt>
      <trkpt lat="44.88201" lon="5.24248">
        <ele>1285.2</ele>
        <time>2024-07-02T08:54:17Z</time>
      </trkpt>
      <trkpt lat="44.88202" lon="5.24248">
        <ele>1285.1</ele>
        <time>2024-07-02T08:54:18Z</time>
      </trkpt>
      <trkpt lat="44.88203" lon="5.24247">
        <ele>1285.1</ele>
        <time>2024-07-02T08:54:19Z</time>
      </trkpt>
      <trkpt lat="44.88204" lon="5.24248">
        <ele>1285</ele>
        <time>2024-07-02T08:54:20Z</time>
      </trkpt>
      <trkpt lat="44.88205" lon="5.24248">
        <ele>1284.9</ele>
        <time>2024-07-02T08:54:21Z</time>
      </trkpt>
      <trkpt lat="44.88206" lon="5.24248">
        <ele>1284.8</ele>
        <time>2024-07-02T08:54:22Z</time>
      </trkpt>
      <trkpt lat="44.88207" lon="5.24248">
        <ele>1284.8</ele>
        <time>2024-07-02T08:54:23Z</time>
      </trkpt>
      <trkpt lat="44.88208" lon="5.24248">
        <ele>1284.7</ele>
        <time>2024-07-02T08:54:24Z</time>
      </trkpt>
      <trkpt lat="44.8821" lon="5.24248">
        <ele>1284.6</ele>
        <time>2024-07-02T08:54:25Z</time>
      </trkpt>
      <trkpt lat="44.88211" lon="5.24249">
        <ele>1284.5</ele>
        <time>2024-07-02T08:54:26Z</time>
      </trkpt>
      <trkpt lat="44.88212" lon="5.24249">
        <ele>1284.4</ele>
        <time>2024-07-02T08:54:27Z</time>
      </trkpt>
      <trkpt lat="44.88212" lon="5.2425">
        <ele>1284.4</ele>
        <time>2024-07-02T08:54:28Z</time>
      </trkpt>
      <trkpt lat="44.88213" lon="5.2425">
        <ele>1284.3</ele>
        <time>2024-07-02T08:54:29Z</time>
      </trkpt>
      <trkpt lat="44.88215" lon="5.2425">
        <ele>1284.2</ele>
        <time>2024-07-02T08:54:30Z</time>
      </trkpt>
      <trkpt lat="44.88216" lon="5.2425">
        <ele>1284.1</ele>
        <time>2024-07-02T08:54:31Z</time>
      </trkpt>
      <trkpt lat="44.88218" lon="5.24251">
        <ele>1284</ele>
        <time>2024-07-02T08:54:32Z</time>
      </trkpt>
      <trkpt lat="44.88218" lon="5.24251">
        <ele>1283.9</ele>
        <time>2024-07-02T08:54:33Z</time>
      </trkpt>
      <trkpt lat="44.88219" lon="5.24251">
        <ele>1283.9</ele>
        <time>2024-07-02T08:54:34Z</time>
      </trkpt>
      <trkpt lat="44.88221" lon="5.24252">
        <ele>1283.7</ele>
        <time>2024-07-02T08:54:35Z</time>
      </trkpt>
      <trkpt lat="44.88222" lon="5.24252">
        <ele>1283.6</ele>
        <time>2024-07-02T08:54:36Z</time>
      </trkpt>
      <trkpt lat="44.88223" lon="5.24252">
        <ele>1283.6</ele>
        <time>2024-07-02T08:54:37Z</time>
      </trkpt>
      <trkpt lat="44.88224" lon="5.24254">
        <ele>1283.4</ele>
        <time>2024-07-02T08:54:38Z</time>
      </trkpt>
      <trkpt lat="44.88225" lon="5.24255">
        <ele>1283.3</ele>
        <time>2024-07-02T08:54:39Z</time>
      </trkpt>
      <trkpt lat="44.88226" lon="5.24255">
        <ele>1283.3</ele>
        <time>2024-07-02T08:54:40Z</time>
      </trkpt>
      <trkpt lat="44.88227" lon="5.24255">
        <ele>1283.2</ele>
        <time>2024-07-02T08:54:41Z</time>
      </trkpt>
      <trkpt lat="44.88228" lon="5.24256">
        <ele>1283.1</ele>
        <time>2024-07-02T08:54:42Z</time>
      </trkpt>
      <trkpt lat="44.88229" lon="5.24255">
        <ele>1283</ele>
        <time>2024-07-02T08:54:43Z</time>
      </trkpt>
      <trkpt lat="44.8823" lon="5.24255">
        <ele>1282.9</ele>
        <time>2024-07-02T08:54:44Z</time>
      </trkpt>
      <trkpt lat="44.88232" lon="5.24256">
        <ele>1282.8</ele>
        <time>2024-07-02T08:54:45Z</time>
      </trkpt>
      <trkpt lat="44.88233" lon="5.24256">
        <ele>1282.7</ele>
        <time>2024-07-02T08:54:46Z</time>
      </trkpt>
      <trkpt lat="44.88234" lon="5.24256">
        <ele>1282.6</ele>
        <time>2024-07-02T08:54:47Z</time>
      </trkpt>
      <trkpt lat="44.88235" lon="5.24256">
        <ele>1282.5</ele>
        <time>2024-07-02T08:54:48Z</time>
      </trkpt>
      <trkpt lat="44.88236" lon="5.24256">
        <ele>1282.4</ele>
        <time>2024-07-02T08:54:49Z</time>
      </trkpt>
      <trkpt lat="44.88239" lon="5.24256">
        <ele>1282.2</ele>
        <time>2024-07-02T08:54:50Z</time>
      </trkpt>
      <trkpt lat="44.88239" lon="5.24256">
        <ele>1282.1</ele>
        <time>2024-07-02T08:54:51Z</time>
      </trkpt>
      <trkpt lat="44.8824" lon="5.24256">
        <ele>1282</ele>
        <time>2024-07-02T08:54:52Z</time>
      </trkpt>
      <trkpt lat="44.88242" lon="5.24256">
        <ele>1281.9</ele>
        <time>2024-07-02T08:54:53Z</time>
      </trkpt>
      <trkpt lat="44.88243" lon="5.24255">
        <ele>1281.8</ele>
        <time>2024-07-02T08:54:54Z</time>
      </trkpt>
      <trkpt lat="44.88245" lon="5.24256">
        <ele>1281.6</ele>
        <time>2024-07-02T08:54:55Z</time>
      </trkpt>
      <trkpt lat="44.88246" lon="5.24256">
        <ele>1281.5</ele>
        <time>2024-07-02T08:54:56Z</time>
      </trkpt>
      <trkpt lat="44.88247" lon="5.24256">
        <ele>1281.4</ele>
        <time>2024-07-02T08:54:57Z</time>
      </trkpt>
      <trkpt lat="44.88249" lon="5.24256">
        <ele>1281.3</ele>
        <time>2024-07-02T08:54:58Z</time>
      </trkpt>
      <trkpt lat="44.8825" lon="5.24256">
        <ele>1281.2</ele>
        <time>2024-07-02T08:54:59Z</time>
      </trkpt>
      <trkpt lat="44.88252" lon="5.24256">
        <ele>1281.1</ele>
        <time>2024-07-02T08:55:00Z</time>
      </trkpt>
      <trkpt lat="44.88253" lon="5.24256">
        <ele>1281</ele>
        <time>2024-07-02T08:55:01Z</time>
      </trkpt>
      <trkpt lat="44.88254" lon="5.24257">
        <ele>1280.9</ele>
        <time>2024-07-02T08:55:02Z</time>
      </trkpt>
      <trkpt lat="44.88255" lon="5.24257">
        <ele>1280.8</ele>
        <time>2024-07-02T08:55:03Z</time>
      </trkpt>
      <trkpt lat="44.88256" lon="5.24258">
        <ele>1280.7</ele>
        <time>2024-07-02T08:55:04Z</time>
      </trkpt>
      <trkpt lat="44.88257" lon="5.24258">
        <ele>1280.6</ele>
        <time>2024-07-02T08:55:05Z</time>
      </trkpt>
      <trkpt lat="44.88258" lon="5.24257">
        <ele>1280.5</ele>
        <time>2024-07-02T08:55:06Z</time>
      </trkpt>
      <trkpt lat="44.88259" lon="5.24257">
        <ele>1280.5</ele>
        <time>2024-07-02T08:55:07Z</time>
      </trkpt>
      <trkpt lat="44.8826" lon="5.24257">
        <ele>1280.4</ele>
        <time>2024-07-02T08:55:08Z</time>
      </trkpt>
      <trkpt lat="44.88261" lon="5.24257">
        <ele>1280.3</ele>
        <time>2024-07-02T08:55:09Z</time>
      </trkpt>
      <trkpt lat="44.88263" lon="5.24257">
        <ele>1280.2</ele>
        <time>2024-07-02T08:55:10Z</time>
      </trkpt>
      <trkpt lat="44.88263" lon="5.24258">
        <ele>1280.1</ele>
        <time>2024-07-02T08:55:11Z</time>
      </trkpt>
      <trkpt lat="44.88264" lon="5.24258">
        <ele>1280.1</ele>
        <time>2024-07-02T08:55:12Z</time>
      </trkpt>
      <trkpt lat="44.88265" lon="5.24258">
        <ele>1280</ele>
        <time>2024-07-02T08:55:13Z</time>
      </trkpt>
      <trkpt lat="44.88265" lon="5.24258">
        <ele>1279.9</ele>
        <time>2024-07-02T08:55:14Z</time>
      </trkpt>
      <trkpt lat="44.88267" lon="5.24259">
        <ele>1279.8</ele>
        <time>2024-07-02T08:55:15Z</time>
      </trkpt>
      <trkpt lat="44.88268" lon="5.24259">
        <ele>1279.8</ele>
        <time>2024-07-02T08:55:16Z</time>
      </trkpt>
      <trkpt lat="44.88269" lon="5.24258">
        <ele>1279.7</ele>
        <time>2024-07-02T08:55:17Z</time>
      </trkpt>
      <trkpt lat="44.88269" lon="5.24258">
        <ele>1279.6</ele>
        <time>2024-07-02T08:55:18Z</time>
      </trkpt>
      <trkpt lat="44.8827" lon="5.24258">
        <ele>1279.6</ele>
        <time>2024-07-02T08:55:19Z</time>
      </trkpt>
      <trkpt lat="44.88271" lon="5.24258">
        <ele>1279.5</ele>
        <time>2024-07-02T08:55:20Z</time>
      </trkpt>
      <trkpt lat="44.88271" lon="5.24258">
        <ele>1279.4</ele>
        <time>2024-07-02T08:55:21Z</time>
      </trkpt>
      <trkpt lat="44.88273" lon="5.2426">
        <ele>1279.2</ele>
        <time>2024-07-02T08:55:22Z</time>
      </trkpt>
      <trkpt lat="44.88274" lon="5.2426">
        <ele>1279.1</ele>
        <time>2024-07-02T08:55:23Z</time>
      </trkpt>
      <trkpt lat="44.88275" lon="5.24261">
        <ele>1279</ele>
        <time>2024-07-02T08:55:24Z</time>
      </trkpt>
      <trkpt lat="44.88277" lon="5.24263">
        <ele>1278.8</ele>
        <time>2024-07-02T08:55:25Z</time>
      </trkpt>
      <trkpt lat="44.88277" lon="5.24263">
        <ele>1278.8</ele>
        <time>2024-07-02T08:55:26Z</time>
      </trkpt>
      <trkpt lat="44.88278" lon="5.24264">
        <ele>1278.7</ele>
        <time>2024-07-02T08:55:27Z</time>
      </trkpt>
      <trkpt lat="44.8828" lon="5.24265">
        <ele>1278.5</ele>
        <time>2024-07-02T08:55:28Z</time>
      </trkpt>
      <trkpt lat="44.88281" lon="5.24266">
        <ele>1278.4</ele>
        <time>2024-07-02T08:55:29Z</time>
      </trkpt>
      <trkpt lat="44.88281" lon="5.24267">
        <ele>1278.3</ele>
        <time>2024-07-02T08:55:30Z</time>
      </trkpt>
      <trkpt lat="44.88282" lon="5.24267">
        <ele>1278.2</ele>
        <time>2024-07-02T08:55:31Z</time>
      </trkpt>
      <trkpt lat="44.88283" lon="5.24268">
        <ele>1278.1</ele>
        <time>2024-07-02T08:55:32Z</time>
      </trkpt>
      <trkpt lat="44.88284" lon="5.24269">
        <ele>1277.9</ele>
        <time>2024-07-02T08:55:33Z</time>
      </trkpt>
      <trkpt lat="44.88285" lon="5.2427">
        <ele>1277.8</ele>
        <time>2024-07-02T08:55:34Z</time>
      </trkpt>
      <trkpt lat="44.88286" lon="5.24271">
        <ele>1277.7</ele>
        <time>2024-07-02T08:55:35Z</time>
      </trkpt>
      <trkpt lat="44.88287" lon="5.24272">
        <ele>1277.6</ele>
        <time>2024-07-02T08:55:36Z</time>
      </trkpt>
      <trkpt lat="44.88287" lon="5.24273">
        <ele>1277.5</ele>
        <time>2024-07-02T08:55:37Z</time>
      </trkpt>
      <trkpt lat="44.88288" lon="5.24274">
        <ele>1277.4</ele>
        <time>2024-07-02T08:55:38Z</time>
      </trkpt>
      <trkpt lat="44.88288" lon="5.24275">
        <ele>1277.3</ele>
        <time>2024-07-02T08:55:39Z</time>
      </trkpt>
      <trkpt lat="44.88289" lon="5.24277">
        <ele>1277.2</ele>
        <time>2024-07-02T08:55:40Z</time>
      </trkpt>
      <trkpt lat="44.8829" lon="5.24278">
        <ele>1277.1</ele>
        <time>2024-07-02T08:55:41Z</time>
      </trkpt>
      <trkpt lat="44.8829" lon="5.24279">
        <ele>1276.9</ele>
        <time>2024-07-02T08:55:42Z</time>
      </trkpt>
      <trkpt lat="44.88291" lon="5.2428">
        <ele>1276.8</ele>
        <time>2024-07-02T08:55:43Z</time>
      </trkpt>
      <trkpt lat="44.88292" lon="5.24281">
        <ele>1276.7</ele>
        <time>2024-07-02T08:55:44Z</time>
      </trkpt>
      <trkpt lat="44.88293" lon="5.24282">
        <ele>1276.6</ele>
        <time>2024-07-02T08:55:45Z</time>
      </trkpt>
      <trkpt lat="44.88294" lon="5.24283">
        <ele>1276.5</ele>
        <time>2024-07-02T08:55:46Z</time>
      </trkpt>
      <trkpt lat="44.88295" lon="5.24283">
        <ele>1276.4</ele>
        <time>2024-07-02T08:55:47Z</time>
      </trkpt>
      <trkpt lat="44.88296" lon="5.24283">
        <ele>1276.3</ele>
        <time>2024-07-02T08:55:48Z</time>
      </trkpt>
      <trkpt lat="44.88298" lon="5.24284">
        <ele>1276</ele>
        <time>2024-07-02T08:55:49Z</time>
      </trkpt>
      <trkpt lat="44.88299" lon="5.24284">
        <ele>1276</ele>
        <time>2024-07-02T08:55:50Z</time>
      </trkpt>
      <trkpt lat="44.883" lon="5.24284">
        <ele>1275.9</ele>
        <time>2024-07-02T08:55:51Z</time>
      </trkpt>
      <trkpt lat="44.883" lon="5.24284">
        <ele>1275.8</ele>
        <time>2024-07-02T08:55:52Z</time>
      </trkpt>
      <trkpt lat="44.88301" lon="5.24284">
        <ele>1275.7</ele>
        <time>2024-07-02T08:55:53Z</time>
      </trkpt>
      <trkpt lat="44.88303" lon="5.24285">
        <ele>1275.6</ele>
        <time>2024-07-02T08:55:54Z</time>
      </trkpt>
      <trkpt lat="44.88303" lon="5.24285">
        <ele>1275.5</ele>
        <time>2024-07-02T08:55:55Z</time>
      </trkpt>
      <trkpt lat="44.88304" lon="5.24285">
        <ele>1275.4</ele>
        <time>2024-07-02T08:55:56Z</time>
      </trkpt>
      <trkpt lat="44.88305" lon="5.24285">
        <ele>1275.3</ele>
        <time>2024-07-02T08:55:57Z</time>
      </trkpt>
      <trkpt lat="44.88306" lon="5.24286">
        <ele>1275.2</ele>
        <time>2024-07-02T08:55:58Z</time>
      </trkpt>
      <trkpt lat="44.88307" lon="5.24286">
        <ele>1275.1</ele>
        <time>2024-07-02T08:55:59Z</time>
      </trkpt>
      <trkpt lat="44.88308" lon="5.24286">
        <ele>1274.9</ele>
        <time>2024-07-02T08:56:00Z</time>
      </trkpt>
      <trkpt lat="44.8831" lon="5.24287">
        <ele>1274.8</ele>
        <time>2024-07-02T08:56:01Z</time>
      </trkpt>
      <trkpt lat="44.88311" lon="5.24287">
        <ele>1274.7</ele>
        <time>2024-07-02T08:56:02Z</time>
      </trkpt>
      <trkpt lat="44.88311" lon="5.24288">
        <ele>1274.6</ele>
        <time>2024-07-02T08:56:03Z</time>
      </trkpt>
      <trkpt lat="44.88312" lon="5.24288">
        <ele>1274.6</ele>
        <time>2024-07-02T08:56:04Z</time>
      </trkpt>
      <trkpt lat="44.88313" lon="5.24288">
        <ele>1274.4</ele>
        <time>2024-07-02T08:56:05Z</time>
      </trkpt>
      <trkpt lat="44.88314" lon="5.24289">
        <ele>1274.3</ele>
        <time>2024-07-02T08:56:06Z</time>
      </trkpt>
      <trkpt lat="44.88315" lon="5.24289">
        <ele>1274.2</ele>
        <time>2024-07-02T08:56:07Z</time>
      </trkpt>
      <trkpt lat="44.88316" lon="5.2429">
        <ele>1274.1</ele>
        <time>2024-07-02T08:56:08Z</time>
      </trkpt>
      <trkpt lat="44.88317" lon="5.24291">
        <ele>1274</ele>
        <time>2024-07-02T08:56:09Z</time>
      </trkpt>
      <trkpt lat="44.88318" lon="5.24291">
        <ele>1273.9</ele>
        <time>2024-07-02T08:56:10Z</time>
      </trkpt>
      <trkpt lat="44.88319" lon="5.24291">
        <ele>1273.8</ele>
        <time>2024-07-02T08:56:11Z</time>
      </trkpt>
      <trkpt lat="44.88319" lon="5.24292">
        <ele>1273.8</ele>
        <time>2024-07-02T08:56:12Z</time>
      </trkpt>
      <trkpt lat="44.8832" lon="5.24293">
        <ele>1273.6</ele>
        <time>2024-07-02T08:56:13Z</time>
      </trkpt>
      <trkpt lat="44.88321" lon="5.24294">
        <ele>1273.5</ele>
        <time>2024-07-02T08:56:14Z</time>
      </trkpt>
      <trkpt lat="44.88322" lon="5.24295">
        <ele>1273.4</ele>
        <time>2024-07-02T08:56:15Z</time>
      </trkpt>
      <trkpt lat="44.88323" lon="5.24296">
        <ele>1273.3</ele>
        <time>2024-07-02T08:56:16Z</time>
      </trkpt>
      <trkpt lat="44.88323" lon="5.24297">
        <ele>1273.2</ele>
        <time>2024-07-02T08:56:17Z</time>
      </trkpt>
      <trkpt lat="44.88325" lon="5.24299">
        <ele>1272.9</ele>
        <time>2024-07-02T08:56:18Z</time>
      </trkpt>
      <trkpt lat="44.88325" lon="5.243">
        <ele>1272.9</ele>
        <time>2024-07-02T08:56:19Z</time>
      </trkpt>
      <trkpt lat="44.88326" lon="5.24301">
        <ele>1272.8</ele>
        <time>2024-07-02T08:56:20Z</time>
      </trkpt>
      <trkpt lat="44.88327" lon="5.24302">
        <ele>1272.6</ele>
        <time>2024-07-02T08:56:21Z</time>
      </trkpt>
      <trkpt lat="44.88328" lon="5.24304">
        <ele>1272.5</ele>
        <time>2024-07-02T08:56:22Z</time>
      </trkpt>
      <trkpt lat="44.8833" lon="5.24305">
        <ele>1272.3</ele>
        <time>2024-07-02T08:56:23Z</time>
      </trkpt>
      <trkpt lat="44.88331" lon="5.24306">
        <ele>1272.2</ele>
        <time>2024-07-02T08:56:24Z</time>
      </trkpt>
      <trkpt lat="44.88331" lon="5.24307">
        <ele>1272.1</ele>
        <time>2024-07-02T08:56:25Z</time>
      </trkpt>
      <trkpt lat="44.88332" lon="5.24307">
        <ele>1272</ele>
        <time>2024-07-02T08:56:26Z</time>
      </trkpt>
      <trkpt lat="44.88334" lon="5.24308">
        <ele>1271.8</ele>
        <time>2024-07-02T08:56:27Z</time>
      </trkpt>
      <trkpt lat="44.88335" lon="5.24309">
        <ele>1271.7</ele>
        <time>2024-07-02T08:56:28Z</time>
      </trkpt>
      <trkpt lat="44.88336" lon="5.2431">
        <ele>1271.6</ele>
        <time>2024-07-02T08:56:29Z</time>
      </trkpt>
      <trkpt lat="44.88337" lon="5.2431">
        <ele>1271.5</ele>
        <time>2024-07-02T08:56:30Z</time>
      </trkpt>
      <trkpt lat="44.88338" lon="5.24312">
        <ele>1271.3</ele>
        <time>2024-07-02T08:56:31Z</time>
      </trkpt>
      <trkpt lat="44.88338" lon="5.24313">
        <ele>1271.3</ele>
        <time>2024-07-02T08:56:32Z</time>
      </trkpt>
      <trkpt lat="44.88338" lon="5.24314">
        <ele>1271.2</ele>
        <time>2024-07-02T08:56:33Z</time>
      </trkpt>
      <trkpt lat="44.88339" lon="5.24315">
        <ele>1271.1</ele>
        <time>2024-07-02T08:56:34Z</time>
      </trkpt>
      <trkpt lat="44.88339" lon="5.24317">
        <ele>1270.9</ele>
        <time>2024-07-02T08:56:35Z</time>
      </trkpt>
      <trkpt lat="44.88339" lon="5.24318">
        <ele>1270.8</ele>
        <time>2024-07-02T08:56:36Z</time>
      </trkpt>
      <trkpt lat="44.88339" lon="5.24319">
        <ele>1270.8</ele>
        <time>2024-07-02T08:56:37Z</time>
      </trkpt>
      <trkpt lat="44.88339" lon="5.24319">
        <ele>1270.7</ele>
        <time>2024-07-02T08:56:38Z</time>
      </trkpt>
      <trkpt lat="44.88339" lon="5.2432">
        <ele>1270.6</ele>
        <time>2024-07-02T08:56:39Z</time>
      </trkpt>
      <trkpt lat="44.88339" lon="5.24323">
        <ele>1270.3</ele>
        <time>2024-07-02T08:56:40Z</time>
      </trkpt>
      <trkpt lat="44.8834" lon="5.24324">
        <ele>1270.2</ele>
        <time>2024-07-02T08:56:41Z</time>
      </trkpt>
      <trkpt lat="44.8834" lon="5.24325">
        <ele>1270.1</ele>
        <time>2024-07-02T08:56:42Z</time>
      </trkpt>
      <trkpt lat="44.88341" lon="5.24328">
        <ele>1269.7</ele>
        <time>2024-07-02T08:56:43Z</time>
      </trkpt>
      <trkpt lat="44.88341" lon="5.24329">
        <ele>1269.5</ele>
        <time>2024-07-02T08:56:44Z</time>
      </trkpt>
      <trkpt lat="44.88341" lon="5.2433">
        <ele>1269.3</ele>
        <time>2024-07-02T08:56:45Z</time>
      </trkpt>
      <trkpt lat="44.88341" lon="5.24332">
        <ele>1269.1</ele>
        <time>2024-07-02T08:56:46Z</time>
      </trkpt>
      <trkpt lat="44.88341" lon="5.24333">
        <ele>1268.9</ele>
        <time>2024-07-02T08:56:47Z</time>
      </trkpt>
      <trkpt lat="44.88341" lon="5.24334">
        <ele>1268.7</ele>
        <time>2024-07-02T08:56:48Z</time>
      </trkpt>
      <trkpt lat="44.88341" lon="5.24335">
        <ele>1268.6</ele>
        <time>2024-07-02T08:56:49Z</time>
      </trkpt>
      <trkpt lat="44.88341" lon="5.24336">
        <ele>1268.4</ele>
        <time>2024-07-02T08:56:50Z</time>
      </trkpt>
      <trkpt lat="44.88341" lon="5.24337">
        <ele>1268.2</ele>
        <time>2024-07-02T08:56:51Z</time>
      </trkpt>
      <trkpt lat="44.88341" lon="5.24339">
        <ele>1267.9</ele>
        <time>2024-07-02T08:56:52Z</time>
      </trkpt>
      <trkpt lat="44.88342" lon="5.2434">
        <ele>1267.8</ele>
        <time>2024-07-02T08:56:53Z</time>
      </trkpt>
      <trkpt lat="44.88342" lon="5.24341">
        <ele>1267.6</ele>
        <time>2024-07-02T08:56:54Z</time>
      </trkpt>
      <trkpt lat="44.88342" lon="5.24343">
        <ele>1267.4</ele>
        <time>2024-07-02T08:56:55Z</time>
      </trkpt>
      <trkpt lat="44.88341" lon="5.24344">
        <ele>1267.1</ele>
        <time>2024-07-02T08:56:56Z</time>
      </trkpt>
      <trkpt lat="44.88339" lon="5.24342">
        <ele>1266.5</ele>
        <time>2024-07-02T08:56:57Z</time>
      </trkpt>
      <trkpt lat="44.88338" lon="5.24342">
        <ele>1266.4</ele>
        <time>2024-07-02T08:56:58Z</time>
      </trkpt>
      <trkpt lat="44.88339" lon="5.24344">
        <ele>1266</ele>
        <time>2024-07-02T08:56:59Z</time>
      </trkpt>
      <trkpt lat="44.88339" lon="5.24345">
        <ele>1265.8</ele>
        <time>2024-07-02T08:57:00Z</time>
      </trkpt>
      <trkpt lat="44.88339" lon="5.24346">
        <ele>1265.6</ele>
        <time>2024-07-02T08:57:01Z</time>
      </trkpt>
      <trkpt lat="44.8834" lon="5.24348">
        <ele>1265.4</ele>
        <time>2024-07-02T08:57:02Z</time>
      </trkpt>
      <trkpt lat="44.88341" lon="5.24348">
        <ele>1265.1</ele>
        <time>2024-07-02T08:57:03Z</time>
      </trkpt>
      <trkpt lat="44.88342" lon="5.24349">
        <ele>1264.9</ele>
        <time>2024-07-02T08:57:04Z</time>
      </trkpt>
      <trkpt lat="44.88342" lon="5.2435">
        <ele>1264.7</ele>
        <time>2024-07-02T08:57:05Z</time>
      </trkpt>
      <trkpt lat="44.88343" lon="5.24351">
        <ele>1264.5</ele>
        <time>2024-07-02T08:57:06Z</time>
      </trkpt>
      <trkpt lat="44.88343" lon="5.24352">
        <ele>1264.3</ele>
        <time>2024-07-02T08:57:07Z</time>
      </trkpt>
      <trkpt lat="44.88343" lon="5.24353">
        <ele>1264.1</ele>
        <time>2024-07-02T08:57:08Z</time>
      </trkpt>
      <trkpt lat="44.88343" lon="5.24354">
        <ele>1263.9</ele>
        <time>2024-07-02T08:57:09Z</time>
      </trkpt>
      <trkpt lat="44.88342" lon="5.24355">
        <ele>1263.8</ele>
        <time>2024-07-02T08:57:10Z</time>
      </trkpt>
      <trkpt lat="44.88342" lon="5.24355">
        <ele>1263.7</ele>
        <time>2024-07-02T08:57:11Z</time>
      </trkpt>
      <trkpt lat="44.88342" lon="5.24356">
        <ele>1263.5</ele>
        <time>2024-07-02T08:57:12Z</time>
      </trkpt>
      <trkpt lat="44.88341" lon="5.24355">
        <ele>1263.5</ele>
        <time>2024-07-02T08:57:13Z</time>
      </trkpt>
      <trkpt lat="44.88341" lon="5.24356">
        <ele>1263.4</ele>
        <time>2024-07-02T08:57:14Z</time>
      </trkpt>
      <trkpt lat="44.88341" lon="5.24356">
        <ele>1263.3</ele>
        <time>2024-07-02T08:57:15Z</time>
      </trkpt>
      <trkpt lat="44.88341" lon="5.24356">
        <ele>1263.3</ele>
        <time>2024-07-02T08:57:16Z</time>
      </trkpt>
      <trkpt lat="44.88341" lon="5.24356">
        <ele>1263.2</ele>
        <time>2024-07-02T08:57:17Z</time>
      </trkpt>
      <trkpt lat="44.88341" lon="5.24356">
        <ele>1263.1</ele>
        <time>2024-07-02T08:57:18Z</time>
      </trkpt>
      <trkpt lat="44.8834" lon="5.24357">
        <ele>1263</ele>
        <time>2024-07-02T08:57:19Z</time>
      </trkpt>
      <trkpt lat="44.8834" lon="5.24358">
        <ele>1262.8</ele>
        <time>2024-07-02T08:57:20Z</time>
      </trkpt>
      <trkpt lat="44.8834" lon="5.24358">
        <ele>1262.7</ele>
        <time>2024-07-02T08:57:21Z</time>
      </trkpt>
      <trkpt lat="44.8834" lon="5.24359">
        <ele>1262.6</ele>
        <time>2024-07-02T08:57:22Z</time>
      </trkpt>
      <trkpt lat="44.8834" lon="5.2436">
        <ele>1262.5</ele>
        <time>2024-07-02T08:57:23Z</time>
      </trkpt>
      <trkpt lat="44.8834" lon="5.2436">
        <ele>1262.4</ele>
        <time>2024-07-02T08:57:24Z</time>
      </trkpt>
      <trkpt lat="44.8834" lon="5.2436">
        <ele>1262.4</ele>
        <time>2024-07-02T08:57:25Z</time>
      </trkpt>
      <trkpt lat="44.8834" lon="5.24361">
        <ele>1262.3</ele>
        <time>2024-07-02T08:57:26Z</time>
      </trkpt>
      <trkpt lat="44.8834" lon="5.24361">
        <ele>1262.3</ele>
        <time>2024-07-02T08:57:27Z</time>
      </trkpt>
      <trkpt lat="44.8834" lon="5.24361">
        <ele>1262.3</ele>
        <time>2024-07-02T08:57:28Z</time>
      </trkpt>
      <trkpt lat="44.8834" lon="5.24361">
        <ele>1262.2</ele>
        <time>2024-07-02T08:57:29Z</time>
      </trkpt>
      <trkpt lat="44.8834" lon="5.24362">
        <ele>1262.2</ele>
        <time>2024-07-02T08:57:30Z</time>
      </trkpt>
      <trkpt lat="44.8834" lon="5.24362">
        <ele>1262.2</ele>
        <time>2024-07-02T08:57:31Z</time>
      </trkpt>
      <trkpt lat="44.8834" lon="5.24362">
        <ele>1262.1</ele>
        <time>2024-07-02T08:57:32Z</time>
      </trkpt>
      <trkpt lat="44.8834" lon="5.24362">
        <ele>1262.1</ele>
        <time>2024-07-02T08:57:33Z</time>
      </trkpt>
      <trkpt lat="44.8834" lon="5.24362">
        <ele>1262</ele>
        <time>2024-07-02T08:57:34Z</time>
      </trkpt>
      <trkpt lat="44.8834" lon="5.24363">
        <ele>1262</ele>
        <time>2024-07-02T08:57:35Z</time>
      </trkpt>
      <trkpt lat="44.8834" lon="5.24363">
        <ele>1262</ele>
        <time>2024-07-02T08:57:36Z</time>
      </trkpt>
      <trkpt lat="44.8834" lon="5.24363">
        <ele>1261.9</ele>
        <time>2024-07-02T08:57:37Z</time>
      </trkpt>
      <trkpt lat="44.8834" lon="5.24363">
        <ele>1261.9</ele>
        <time>2024-07-02T08:57:38Z</time>
      </trkpt>
      <trkpt lat="44.8834" lon="5.24364">
        <ele>1261.9</ele>
        <time>2024-07-02T08:57:39Z</time>
      </trkpt>
      <trkpt lat="44.8834" lon="5.24364">
        <ele>1261.8</ele>
        <time>2024-07-02T08:57:40Z</time>
      </trkpt>
      <trkpt lat="44.8834" lon="5.24364">
        <ele>1261.8</ele>
        <time>2024-07-02T08:57:41Z</time>
      </trkpt>
      <trkpt lat="44.8834" lon="5.24364">
        <ele>1261.8</ele>
        <time>2024-07-02T08:57:42Z</time>
      </trkpt>
      <trkpt lat="44.8834" lon="5.24364">
        <ele>1261.7</ele>
        <time>2024-07-02T08:57:43Z</time>
      </trkpt>
      <trkpt lat="44.8834" lon="5.24365">
        <ele>1261.7</ele>
        <time>2024-07-02T08:57:44Z</time>
      </trkpt>
      <trkpt lat="44.88339" lon="5.24365">
        <ele>1261.7</ele>
        <time>2024-07-02T08:57:45Z</time>
      </trkpt>
      <trkpt lat="44.88339" lon="5.24365">
        <ele>1261.6</ele>
        <time>2024-07-02T08:57:46Z</time>
      </trkpt>
      <trkpt lat="44.88337" lon="5.24368">
        <ele>1261</ele>
        <time>2024-07-02T08:57:47Z</time>
      </trkpt>
      <trkpt lat="44.88337" lon="5.24369">
        <ele>1260.8</ele>
        <time>2024-07-02T08:57:48Z</time>
      </trkpt>
      <trkpt lat="44.88337" lon="5.2437">
        <ele>1260.6</ele>
        <time>2024-07-02T08:57:49Z</time>
      </trkpt>
      <trkpt lat="44.88337" lon="5.24372">
        <ele>1260.4</ele>
        <time>2024-07-02T08:57:50Z</time>
      </trkpt>
      <trkpt lat="44.88337" lon="5.24373">
        <ele>1260.2</ele>
        <time>2024-07-02T08:57:51Z</time>
      </trkpt>
      <trkpt lat="44.88336" lon="5.24374">
        <ele>1260</ele>
        <time>2024-07-02T08:57:52Z</time>
      </trkpt>
      <trkpt lat="44.88336" lon="5.24375">
        <ele>1259.8</ele>
        <time>2024-07-02T08:57:53Z</time>
      </trkpt>
      <trkpt lat="44.88335" lon="5.24376">
        <ele>1259.7</ele>
        <time>2024-07-02T08:57:54Z</time>
      </trkpt>
      <trkpt lat="44.88335" lon="5.24376">
        <ele>1259.6</ele>
        <time>2024-07-02T08:57:55Z</time>
      </trkpt>
      <trkpt lat="44.88334" lon="5.24376">
        <ele>1259.4</ele>
        <time>2024-07-02T08:57:56Z</time>
      </trkpt>
      <trkpt lat="44.88333" lon="5.24376">
        <ele>1259.2</ele>
        <time>2024-07-02T08:57:57Z</time>
      </trkpt>
      <trkpt lat="44.88332" lon="5.24377">
        <ele>1259</ele>
        <time>2024-07-02T08:57:58Z</time>
      </trkpt>
      <trkpt lat="44.88332" lon="5.24379">
        <ele>1258.8</ele>
        <time>2024-07-02T08:57:59Z</time>
      </trkpt>
      <trkpt lat="44.88331" lon="5.24381">
        <ele>1258.4</ele>
        <time>2024-07-02T08:58:00Z</time>
      </trkpt>
      <trkpt lat="44.88331" lon="5.24383">
        <ele>1258.2</ele>
        <time>2024-07-02T08:58:01Z</time>
      </trkpt>
      <trkpt lat="44.88331" lon="5.24384">
        <ele>1258</ele>
        <time>2024-07-02T08:58:02Z</time>
      </trkpt>
      <trkpt lat="44.88331" lon="5.24387">
        <ele>1257.5</ele>
        <time>2024-07-02T08:58:03Z</time>
      </trkpt>
      <trkpt lat="44.88331" lon="5.24388">
        <ele>1257.4</ele>
        <time>2024-07-02T08:58:04Z</time>
      </trkpt>
      <trkpt lat="44.88331" lon="5.2439">
        <ele>1257.2</ele>
        <time>2024-07-02T08:58:05Z</time>
      </trkpt>
      <trkpt lat="44.8833" lon="5.24391">
        <ele>1257</ele>
        <time>2024-07-02T08:58:06Z</time>
      </trkpt>
      <trkpt lat="44.88331" lon="5.24392">
        <ele>1256.8</ele>
        <time>2024-07-02T08:58:07Z</time>
      </trkpt>
      <trkpt lat="44.8833" lon="5.24394">
        <ele>1256.6</ele>
        <time>2024-07-02T08:58:08Z</time>
      </trkpt>
      <trkpt lat="44.8833" lon="5.24395">
        <ele>1256.4</ele>
        <time>2024-07-02T08:58:09Z</time>
      </trkpt>
      <trkpt lat="44.8833" lon="5.24397">
        <ele>1256.2</ele>
        <time>2024-07-02T08:58:10Z</time>
      </trkpt>
      <trkpt lat="44.8833" lon="5.24398">
        <ele>1256</ele>
        <time>2024-07-02T08:58:11Z</time>
      </trkpt>
      <trkpt lat="44.8833" lon="5.24399">
        <ele>1255.9</ele>
        <time>2024-07-02T08:58:12Z</time>
      </trkpt>
      <trkpt lat="44.8833" lon="5.244">
        <ele>1255.8</ele>
        <time>2024-07-02T08:58:13Z</time>
      </trkpt>
      <trkpt lat="44.88331" lon="5.244">
        <ele>1255.7</ele>
        <time>2024-07-02T08:58:14Z</time>
      </trkpt>
      <trkpt lat="44.88331" lon="5.24401">
        <ele>1255.6</ele>
        <time>2024-07-02T08:58:15Z</time>
      </trkpt>
      <trkpt lat="44.88331" lon="5.24402">
        <ele>1255.4</ele>
        <time>2024-07-02T08:58:16Z</time>
      </trkpt>
      <trkpt lat="44.8833" lon="5.24402">
        <ele>1255.4</ele>
        <time>2024-07-02T08:58:17Z</time>
      </trkpt>
      <trkpt lat="44.8833" lon="5.24403">
        <ele>1255.3</ele>
        <time>2024-07-02T08:58:18Z</time>
      </trkpt>
      <trkpt lat="44.8833" lon="5.24402">
        <ele>1255.3</ele>
        <time>2024-07-02T08:58:19Z</time>
      </trkpt>
      <trkpt lat="44.8833" lon="5.24403">
        <ele>1255.3</ele>
        <time>2024-07-02T08:58:20Z</time>
      </trkpt>
      <trkpt lat="44.8833" lon="5.24404">
        <ele>1255.1</ele>
        <time>2024-07-02T08:58:21Z</time>
      </trkpt>
      <trkpt lat="44.8833" lon="5.24404">
        <ele>1255.1</ele>
        <time>2024-07-02T08:58:22Z</time>
      </trkpt>
      <trkpt lat="44.88329" lon="5.24405">
        <ele>1254.8</ele>
        <time>2024-07-02T08:58:23Z</time>
      </trkpt>
      <trkpt lat="44.88329" lon="5.24407">
        <ele>1254.6</ele>
        <time>2024-07-02T08:58:24Z</time>
      </trkpt>
      <trkpt lat="44.88328" lon="5.24408">
        <ele>1254.4</ele>
        <time>2024-07-02T08:58:25Z</time>
      </trkpt>
      <trkpt lat="44.88327" lon="5.24409">
        <ele>1254.1</ele>
        <time>2024-07-02T08:58:26Z</time>
      </trkpt>
      <trkpt lat="44.88326" lon="5.24411">
        <ele>1253.9</ele>
        <time>2024-07-02T08:58:27Z</time>
      </trkpt>
      <trkpt lat="44.88326" lon="5.24412">
        <ele>1253.7</ele>
        <time>2024-07-02T08:58:28Z</time>
      </trkpt>
      <trkpt lat="44.88325" lon="5.24413">
        <ele>1253.5</ele>
        <time>2024-07-02T08:58:29Z</time>
      </trkpt>
      <trkpt lat="44.88324" lon="5.24414">
        <ele>1253.3</ele>
        <time>2024-07-02T08:58:30Z</time>
      </trkpt>
      <trkpt lat="44.88324" lon="5.24416">
        <ele>1253</ele>
        <time>2024-07-02T08:58:31Z</time>
      </trkpt>
      <trkpt lat="44.88323" lon="5.24417">
        <ele>1252.8</ele>
        <time>2024-07-02T08:58:32Z</time>
      </trkpt>
      <trkpt lat="44.88323" lon="5.24418">
        <ele>1252.6</ele>
        <time>2024-07-02T08:58:33Z</time>
      </trkpt>
      <trkpt lat="44.88322" lon="5.24419">
        <ele>1252.4</ele>
        <time>2024-07-02T08:58:34Z</time>
      </trkpt>
      <trkpt lat="44.88322" lon="5.2442">
        <ele>1252.2</ele>
        <time>2024-07-02T08:58:35Z</time>
      </trkpt>
      <trkpt lat="44.88321" lon="5.24422">
        <ele>1252</ele>
        <time>2024-07-02T08:58:36Z</time>
      </trkpt>
      <trkpt lat="44.8832" lon="5.24423">
        <ele>1251.8</ele>
        <time>2024-07-02T08:58:37Z</time>
      </trkpt>
      <trkpt lat="44.8832" lon="5.24424">
        <ele>1251.6</ele>
        <time>2024-07-02T08:58:38Z</time>
      </trkpt>
      <trkpt lat="44.8832" lon="5.24425">
        <ele>1251.4</ele>
        <time>2024-07-02T08:58:39Z</time>
      </trkpt>
      <trkpt lat="44.88319" lon="5.24427">
        <ele>1251.2</ele>
        <time>2024-07-02T08:58:40Z</time>
      </trkpt>
      <trkpt lat="44.88319" lon="5.24428">
        <ele>1251</ele>
        <time>2024-07-02T08:58:41Z</time>
      </trkpt>
      <trkpt lat="44.88319" lon="5.24429">
        <ele>1250.8</ele>
        <time>2024-07-02T08:58:42Z</time>
      </trkpt>
      <trkpt lat="44.88319" lon="5.2443">
        <ele>1250.6</ele>
        <time>2024-07-02T08:58:43Z</time>
      </trkpt>
      <trkpt lat="44.88319" lon="5.24432">
        <ele>1250.4</ele>
        <time>2024-07-02T08:58:44Z</time>
      </trkpt>
      <trkpt lat="44.88319" lon="5.24433">
        <ele>1250.3</ele>
        <time>2024-07-02T08:58:45Z</time>
      </trkpt>
      <trkpt lat="44.88319" lon="5.24434">
        <ele>1250.1</ele>
        <time>2024-07-02T08:58:46Z</time>
      </trkpt>
      <trkpt lat="44.88318" lon="5.24435">
        <ele>1250</ele>
        <time>2024-07-02T08:58:47Z</time>
      </trkpt>
      <trkpt lat="44.88318" lon="5.24436">
        <ele>1249.8</ele>
        <time>2024-07-02T08:58:48Z</time>
      </trkpt>
      <trkpt lat="44.88319" lon="5.24437">
        <ele>1249.7</ele>
        <time>2024-07-02T08:58:49Z</time>
      </trkpt>
      <trkpt lat="44.88318" lon="5.24436">
        <ele>1249.5</ele>
        <time>2024-07-02T08:58:50Z</time>
      </trkpt>
      <trkpt lat="44.88318" lon="5.24435">
        <ele>1249.4</ele>
        <time>2024-07-02T08:58:51Z</time>
      </trkpt>
      <trkpt lat="44.88317" lon="5.24432">
        <ele>1248.9</ele>
        <time>2024-07-02T08:58:52Z</time>
      </trkpt>
      <trkpt lat="44.88317" lon="5.24431">
        <ele>1248.7</ele>
        <time>2024-07-02T08:58:53Z</time>
      </trkpt>
      <trkpt lat="44.88317" lon="5.2443">
        <ele>1248.6</ele>
        <time>2024-07-02T08:58:54Z</time>
      </trkpt>
      <trkpt lat="44.88317" lon="5.2443">
        <ele>1248.6</ele>
        <time>2024-07-02T08:58:55Z</time>
      </trkpt>
      <trkpt lat="44.88316" lon="5.2443">
        <ele>1248.5</ele>
        <time>2024-07-02T08:58:56Z</time>
      </trkpt>
      <trkpt lat="44.88316" lon="5.2443">
        <ele>1248.5</ele>
        <time>2024-07-02T08:58:57Z</time>
      </trkpt>
      <trkpt lat="44.88316" lon="5.2443">
        <ele>1248.4</ele>
        <time>2024-07-02T08:58:58Z</time>
      </trkpt>
      <trkpt lat="44.88316" lon="5.24431">
        <ele>1248.3</ele>
        <time>2024-07-02T08:58:59Z</time>
      </trkpt>
      <trkpt lat="44.88316" lon="5.24432">
        <ele>1248.1</ele>
        <time>2024-07-02T08:59:00Z</time>
      </trkpt>
      <trkpt lat="44.88316" lon="5.24433">
        <ele>1248</ele>
        <time>2024-07-02T08:59:01Z</time>
      </trkpt>
      <trkpt lat="44.88316" lon="5.24434">
        <ele>1247.9</ele>
        <time>2024-07-02T08:59:02Z</time>
      </trkpt>
      <trkpt lat="44.88316" lon="5.24435">
        <ele>1247.8</ele>
        <time>2024-07-02T08:59:03Z</time>
      </trkpt>
      <trkpt lat="44.88316" lon="5.24435">
        <ele>1247.8</ele>
        <time>2024-07-02T08:59:04Z</time>
      </trkpt>
      <trkpt lat="44.88316" lon="5.24436">
        <ele>1247.5</ele>
        <time>2024-07-02T08:59:05Z</time>
      </trkpt>
      <trkpt lat="44.88316" lon="5.24438">
        <ele>1247.3</ele>
        <time>2024-07-02T08:59:06Z</time>
      </trkpt>
      <trkpt lat="44.88316" lon="5.24439">
        <ele>1247.1</ele>
        <time>2024-07-02T08:59:07Z</time>
      </trkpt>
      <trkpt lat="44.88317" lon="5.24441">
        <ele>1246.8</ele>
        <time>2024-07-02T08:59:08Z</time>
      </trkpt>
      <trkpt lat="44.88318" lon="5.24443">
        <ele>1246.5</ele>
        <time>2024-07-02T08:59:09Z</time>
      </trkpt>
      <trkpt lat="44.88318" lon="5.24444">
        <ele>1246.2</ele>
        <time>2024-07-02T08:59:10Z</time>
      </trkpt>
      <trkpt lat="44.88319" lon="5.24446">
        <ele>1245.9</ele>
        <time>2024-07-02T08:59:11Z</time>
      </trkpt>
      <trkpt lat="44.88319" lon="5.24446">
        <ele>1245.8</ele>
        <time>2024-07-02T08:59:12Z</time>
      </trkpt>
      <trkpt lat="44.88319" lon="5.24447">
        <ele>1245.7</ele>
        <time>2024-07-02T08:59:13Z</time>
      </trkpt>
      <trkpt lat="44.88319" lon="5.24448">
        <ele>1245.6</ele>
        <time>2024-07-02T08:59:14Z</time>
      </trkpt>
      <trkpt lat="44.88319" lon="5.24449">
        <ele>1245.4</ele>
        <time>2024-07-02T08:59:15Z</time>
      </trkpt>
      <trkpt lat="44.88318" lon="5.2445">
        <ele>1245.1</ele>
        <time>2024-07-02T08:59:16Z</time>
      </trkpt>
      <trkpt lat="44.88318" lon="5.24452">
        <ele>1244.9</ele>
        <time>2024-07-02T08:59:17Z</time>
      </trkpt>
      <trkpt lat="44.88317" lon="5.24452">
        <ele>1244.7</ele>
        <time>2024-07-02T08:59:18Z</time>
      </trkpt>
      <trkpt lat="44.88317" lon="5.24452">
        <ele>1244.6</ele>
        <time>2024-07-02T08:59:19Z</time>
      </trkpt>
      <trkpt lat="44.88316" lon="5.24451">
        <ele>1244.4</ele>
        <time>2024-07-02T08:59:20Z</time>
      </trkpt>
      <trkpt lat="44.88316" lon="5.24451">
        <ele>1244.3</ele>
        <time>2024-07-02T08:59:21Z</time>
      </trkpt>
      <trkpt lat="44.88317" lon="5.24452">
        <ele>1244.1</ele>
        <time>2024-07-02T08:59:22Z</time>
      </trkpt>
      <trkpt lat="44.88317" lon="5.24454">
        <ele>1243.8</ele>
        <time>2024-07-02T08:59:23Z</time>
      </trkpt>
      <trkpt lat="44.88317" lon="5.24455">
        <ele>1243.5</ele>
        <time>2024-07-02T08:59:24Z</time>
      </trkpt>
      <trkpt lat="44.88317" lon="5.24457">
        <ele>1243.3</ele>
        <time>2024-07-02T08:59:25Z</time>
      </trkpt>
      <trkpt lat="44.88317" lon="5.24459">
        <ele>1243</ele>
        <time>2024-07-02T08:59:26Z</time>
      </trkpt>
      <trkpt lat="44.88316" lon="5.2446">
        <ele>1242.7</ele>
        <time>2024-07-02T08:59:27Z</time>
      </trkpt>
      <trkpt lat="44.88316" lon="5.24462">
        <ele>1242.5</ele>
        <time>2024-07-02T08:59:28Z</time>
      </trkpt>
      <trkpt lat="44.88316" lon="5.24463">
        <ele>1242.3</ele>
        <time>2024-07-02T08:59:29Z</time>
      </trkpt>
      <trkpt lat="44.88315" lon="5.24464">
        <ele>1242</ele>
        <time>2024-07-02T08:59:30Z</time>
      </trkpt>
      <trkpt lat="44.88315" lon="5.24466">
        <ele>1241.9</ele>
        <time>2024-07-02T08:59:31Z</time>
      </trkpt>
      <trkpt lat="44.88314" lon="5.24467">
        <ele>1241.7</ele>
        <time>2024-07-02T08:59:32Z</time>
      </trkpt>
      <trkpt lat="44.88315" lon="5.24468">
        <ele>1241.5</ele>
        <time>2024-07-02T08:59:33Z</time>
      </trkpt>
      <trkpt lat="44.88315" lon="5.2447">
        <ele>1241.3</ele>
        <time>2024-07-02T08:59:34Z</time>
      </trkpt>
      <trkpt lat="44.88314" lon="5.24471">
        <ele>1241.2</ele>
        <time>2024-07-02T08:59:35Z</time>
      </trkpt>
      <trkpt lat="44.88314" lon="5.24474">
        <ele>1240.8</ele>
        <time>2024-07-02T08:59:36Z</time>
      </trkpt>
      <trkpt lat="44.88313" lon="5.24475">
        <ele>1240.7</ele>
        <time>2024-07-02T08:59:37Z</time>
      </trkpt>
      <trkpt lat="44.88313" lon="5.24476">
        <ele>1240.5</ele>
        <time>2024-07-02T08:59:38Z</time>
      </trkpt>
      <trkpt lat="44.88313" lon="5.24479">
        <ele>1240.3</ele>
        <time>2024-07-02T08:59:39Z</time>
      </trkpt>
      <trkpt lat="44.88312" lon="5.2448">
        <ele>1240.1</ele>
        <time>2024-07-02T08:59:40Z</time>
      </trkpt>
      <trkpt lat="44.88312" lon="5.24482">
        <ele>1239.9</ele>
        <time>2024-07-02T08:59:41Z</time>
      </trkpt>
      <trkpt lat="44.88311" lon="5.24484">
        <ele>1239.7</ele>
        <time>2024-07-02T08:59:42Z</time>
      </trkpt>
      <trkpt lat="44.8831" lon="5.24485">
        <ele>1239.6</ele>
        <time>2024-07-02T08:59:43Z</time>
      </trkpt>
      <trkpt lat="44.8831" lon="5.24486">
        <ele>1239.4</ele>
        <time>2024-07-02T08:59:44Z</time>
      </trkpt>
      <trkpt lat="44.88309" lon="5.24488">
        <ele>1239.3</ele>
        <time>2024-07-02T08:59:45Z</time>
      </trkpt>
      <trkpt lat="44.88309" lon="5.24489">
        <ele>1239.2</ele>
        <time>2024-07-02T08:59:46Z</time>
      </trkpt>
      <trkpt lat="44.88308" lon="5.2449">
        <ele>1239</ele>
        <time>2024-07-02T08:59:47Z</time>
      </trkpt>
      <trkpt lat="44.88307" lon="5.24491">
        <ele>1238.9</ele>
        <time>2024-07-02T08:59:48Z</time>
      </trkpt>
      <trkpt lat="44.88307" lon="5.24493">
        <ele>1238.8</ele>
        <time>2024-07-02T08:59:49Z</time>
      </trkpt>
      <trkpt lat="44.88306" lon="5.24494">
        <ele>1238.7</ele>
        <time>2024-07-02T08:59:50Z</time>
      </trkpt>
      <trkpt lat="44.88306" lon="5.24495">
        <ele>1238.6</ele>
        <time>2024-07-02T08:59:51Z</time>
      </trkpt>
      <trkpt lat="44.88306" lon="5.24497">
        <ele>1238.5</ele>
        <time>2024-07-02T08:59:52Z</time>
      </trkpt>
      <trkpt lat="44.88306" lon="5.24498">
        <ele>1238.4</ele>
        <time>2024-07-02T08:59:53Z</time>
      </trkpt>
      <trkpt lat="44.88307" lon="5.245">
        <ele>1238.3</ele>
        <time>2024-07-02T08:59:54Z</time>
      </trkpt>
      <trkpt lat="44.88307" lon="5.24501">
        <ele>1238.2</ele>
        <time>2024-07-02T08:59:55Z</time>
      </trkpt>
      <trkpt lat="44.88306" lon="5.24502">
        <ele>1238.1</ele>
        <time>2024-07-02T08:59:56Z</time>
      </trkpt>
      <trkpt lat="44.88306" lon="5.24504">
        <ele>1238</ele>
        <time>2024-07-02T08:59:57Z</time>
      </trkpt>
      <trkpt lat="44.88306" lon="5.24505">
        <ele>1237.9</ele>
        <time>2024-07-02T08:59:58Z</time>
      </trkpt>
      <trkpt lat="44.88306" lon="5.24506">
        <ele>1237.8</ele>
        <time>2024-07-02T08:59:59Z</time>
      </trkpt>
      <trkpt lat="44.88305" lon="5.24508">
        <ele>1237.7</ele>
        <time>2024-07-02T09:00:00Z</time>
      </trkpt>
      <trkpt lat="44.88305" lon="5.24509">
        <ele>1237.6</ele>
        <time>2024-07-02T09:00:01Z</time>
      </trkpt>
      <trkpt lat="44.88305" lon="5.2451">
        <ele>1237.5</ele>
        <time>2024-07-02T09:00:02Z</time>
      </trkpt>
      <trkpt lat="44.88304" lon="5.24512">
        <ele>1237.4</ele>
        <time>2024-07-02T09:00:03Z</time>
      </trkpt>
      <trkpt lat="44.88303" lon="5.24513">
        <ele>1237.3</ele>
        <time>2024-07-02T09:00:04Z</time>
      </trkpt>
      <trkpt lat="44.88303" lon="5.24514">
        <ele>1237.1</ele>
        <time>2024-07-02T09:00:05Z</time>
      </trkpt>
      <trkpt lat="44.88303" lon="5.24515">
        <ele>1237.1</ele>
        <time>2024-07-02T09:00:06Z</time>
      </trkpt>
      <trkpt lat="44.88303" lon="5.24515">
        <ele>1237.1</ele>
        <time>2024-07-02T09:00:07Z</time>
      </trkpt>
      <trkpt lat="44.88303" lon="5.24515">
        <ele>1237.1</ele>
        <time>2024-07-02T09:00:08Z</time>
      </trkpt>
      <trkpt lat="44.88303" lon="5.24516">
        <ele>1237</ele>
        <time>2024-07-02T09:00:09Z</time>
      </trkpt>
      <trkpt lat="44.88303" lon="5.24516">
        <ele>1237</ele>
        <time>2024-07-02T09:00:10Z</time>
      </trkpt>
      <trkpt lat="44.88303" lon="5.24516">
        <ele>1237</ele>
        <time>2024-07-02T09:00:11Z</time>
      </trkpt>
      <trkpt lat="44.88304" lon="5.24516">
        <ele>1237</ele>
        <time>2024-07-02T09:00:12Z</time>
      </trkpt>
      <trkpt lat="44.88304" lon="5.24517">
        <ele>1236.9</ele>
        <time>2024-07-02T09:00:13Z</time>
      </trkpt>
      <trkpt lat="44.88304" lon="5.24517">
        <ele>1236.9</ele>
        <time>2024-07-02T09:00:14Z</time>
      </trkpt>
      <trkpt lat="44.88304" lon="5.24517">
        <ele>1236.9</ele>
        <time>2024-07-02T09:00:15Z</time>
      </trkpt>
      <trkpt lat="44.88304" lon="5.24518">
        <ele>1236.9</ele>
        <time>2024-07-02T09:00:16Z</time>
      </trkpt>
      <trkpt lat="44.88304" lon="5.24518">
        <ele>1236.9</ele>
        <time>2024-07-02T09:00:17Z</time>
      </trkpt>
      <trkpt lat="44.88304" lon="5.24519">
        <ele>1236.7</ele>
        <time>2024-07-02T09:00:18Z</time>
      </trkpt>
      <trkpt lat="44.88304" lon="5.24521">
        <ele>1236.6</ele>
        <time>2024-07-02T09:00:19Z</time>
      </trkpt>
      <trkpt lat="44.88304" lon="5.24523">
        <ele>1236.5</ele>
        <time>2024-07-02T09:00:20Z</time>
      </trkpt>
      <trkpt lat="44.88304" lon="5.24525">
        <ele>1236.4</ele>
        <time>2024-07-02T09:00:21Z</time>
      </trkpt>
      <trkpt lat="44.88303" lon="5.24527">
        <ele>1236.2</ele>
        <time>2024-07-02T09:00:22Z</time>
      </trkpt>
      <trkpt lat="44.88303" lon="5.24529">
        <ele>1236</ele>
        <time>2024-07-02T09:00:23Z</time>
      </trkpt>
      <trkpt lat="44.88302" lon="5.24531">
        <ele>1235.9</ele>
        <time>2024-07-02T09:00:24Z</time>
      </trkpt>
      <trkpt lat="44.88302" lon="5.24533">
        <ele>1235.7</ele>
        <time>2024-07-02T09:00:25Z</time>
      </trkpt>
      <trkpt lat="44.88303" lon="5.24534">
        <ele>1235.6</ele>
        <time>2024-07-02T09:00:26Z</time>
      </trkpt>
      <trkpt lat="44.88303" lon="5.24535">
        <ele>1235.5</ele>
        <time>2024-07-02T09:00:27Z</time>
      </trkpt>
      <trkpt lat="44.88304" lon="5.24536">
        <ele>1235.4</ele>
        <time>2024-07-02T09:00:28Z</time>
      </trkpt>
      <trkpt lat="44.88304" lon="5.24537">
        <ele>1235.3</ele>
        <time>2024-07-02T09:00:29Z</time>
      </trkpt>
      <trkpt lat="44.88305" lon="5.24538">
        <ele>1235.2</ele>
        <time>2024-07-02T09:00:30Z</time>
      </trkpt>
      <trkpt lat="44.88305" lon="5.24538">
        <ele>1235.2</ele>
        <time>2024-07-02T09:00:31Z</time>
      </trkpt>
      <trkpt lat="44.88306" lon="5.24538">
        <ele>1235.2</ele>
        <time>2024-07-02T09:00:32Z</time>
      </trkpt>
      <trkpt lat="44.88306" lon="5.24538">
        <ele>1235.1</ele>
        <time>2024-07-02T09:00:33Z</time>
      </trkpt>
      <trkpt lat="44.88306" lon="5.24537">
        <ele>1235</ele>
        <time>2024-07-02T09:00:34Z</time>
      </trkpt>
      <trkpt lat="44.88306" lon="5.24538">
        <ele>1235</ele>
        <time>2024-07-02T09:00:35Z</time>
      </trkpt>
      <trkpt lat="44.88306" lon="5.24538">
        <ele>1235</ele>
        <time>2024-07-02T09:00:36Z</time>
      </trkpt>
      <trkpt lat="44.88305" lon="5.24539">
        <ele>1234.9</ele>
        <time>2024-07-02T09:00:37Z</time>
      </trkpt>
      <trkpt lat="44.88305" lon="5.2454">
        <ele>1234.8</ele>
        <time>2024-07-02T09:00:38Z</time>
      </trkpt>
      <trkpt lat="44.88305" lon="5.24542">
        <ele>1234.7</ele>
        <time>2024-07-02T09:00:39Z</time>
      </trkpt>
      <trkpt lat="44.88305" lon="5.24543">
        <ele>1234.6</ele>
        <time>2024-07-02T09:00:40Z</time>
      </trkpt>
      <trkpt lat="44.88305" lon="5.24544">
        <ele>1234.5</ele>
        <time>2024-07-02T09:00:41Z</time>
      </trkpt>
      <trkpt lat="44.88305" lon="5.24545">
        <ele>1234.4</ele>
        <time>2024-07-02T09:00:42Z</time>
      </trkpt>
      <trkpt lat="44.88305" lon="5.24546">
        <ele>1234.4</ele>
        <time>2024-07-02T09:00:43Z</time>
      </trkpt>
      <trkpt lat="44.88305" lon="5.24546">
        <ele>1234.3</ele>
        <time>2024-07-02T09:00:44Z</time>
      </trkpt>
      <trkpt lat="44.88305" lon="5.24547">
        <ele>1234.3</ele>
        <time>2024-07-02T09:00:45Z</time>
      </trkpt>
      <trkpt lat="44.88305" lon="5.24548">
        <ele>1234.2</ele>
        <time>2024-07-02T09:00:46Z</time>
      </trkpt>
      <trkpt lat="44.88304" lon="5.24548">
        <ele>1234.1</ele>
        <time>2024-07-02T09:00:47Z</time>
      </trkpt>
      <trkpt lat="44.88304" lon="5.2455">
        <ele>1234.1</ele>
        <time>2024-07-02T09:00:48Z</time>
      </trkpt>
      <trkpt lat="44.88304" lon="5.24549">
        <ele>1234</ele>
        <time>2024-07-02T09:00:49Z</time>
      </trkpt>
      <trkpt lat="44.88304" lon="5.24549">
        <ele>1234</ele>
        <time>2024-07-02T09:00:50Z</time>
      </trkpt>
      <trkpt lat="44.88304" lon="5.24549">
        <ele>1234</ele>
        <time>2024-07-02T09:00:51Z</time>
      </trkpt>
      <trkpt lat="44.88304" lon="5.24549">
        <ele>1234</ele>
        <time>2024-07-02T09:00:52Z</time>
      </trkpt>
      <trkpt lat="44.88304" lon="5.24549">
        <ele>1234</ele>
        <time>2024-07-02T09:00:53Z</time>
      </trkpt>
      <trkpt lat="44.88304" lon="5.24549">
        <ele>1233.9</ele>
        <time>2024-07-02T09:00:54Z</time>
      </trkpt>
      <trkpt lat="44.88303" lon="5.24552">
        <ele>1233.7</ele>
        <time>2024-07-02T09:00:55Z</time>
      </trkpt>
      <trkpt lat="44.88303" lon="5.24554">
        <ele>1233.6</ele>
        <time>2024-07-02T09:00:56Z</time>
      </trkpt>
      <trkpt lat="44.88303" lon="5.24556">
        <ele>1233.4</ele>
        <time>2024-07-02T09:00:57Z</time>
      </trkpt>
      <trkpt lat="44.88303" lon="5.24558">
        <ele>1233.3</ele>
        <time>2024-07-02T09:00:58Z</time>
      </trkpt>
      <trkpt lat="44.88304" lon="5.2456">
        <ele>1233.2</ele>
        <time>2024-07-02T09:00:59Z</time>
      </trkpt>
      <trkpt lat="44.88304" lon="5.2456">
        <ele>1233.1</ele>
        <time>2024-07-02T09:01:00Z</time>
      </trkpt>
      <trkpt lat="44.88304" lon="5.24561">
        <ele>1233.1</ele>
        <time>2024-07-02T09:01:01Z</time>
      </trkpt>
      <trkpt lat="44.88304" lon="5.2456">
        <ele>1233</ele>
        <time>2024-07-02T09:01:02Z</time>
      </trkpt>
      <trkpt lat="44.88304" lon="5.2456">
        <ele>1233</ele>
        <time>2024-07-02T09:01:03Z</time>
      </trkpt>
      <trkpt lat="44.88303" lon="5.24562">
        <ele>1232.9</ele>
        <time>2024-07-02T09:01:04Z</time>
      </trkpt>
      <trkpt lat="44.88303" lon="5.24564">
        <ele>1232.8</ele>
        <time>2024-07-02T09:01:05Z</time>
      </trkpt>
      <trkpt lat="44.88303" lon="5.24565">
        <ele>1232.7</ele>
        <time>2024-07-02T09:01:06Z</time>
      </trkpt>
      <trkpt lat="44.88303" lon="5.24565">
        <ele>1232.6</ele>
        <time>2024-07-02T09:01:07Z</time>
      </trkpt>
      <trkpt lat="44.88302" lon="5.24566">
        <ele>1232.5</ele>
        <time>2024-07-02T09:01:08Z</time>
      </trkpt>
      <trkpt lat="44.88302" lon="5.24567">
        <ele>1232.4</ele>
        <time>2024-07-02T09:01:09Z</time>
      </trkpt>
      <trkpt lat="44.88302" lon="5.24568">
        <ele>1232.3</ele>
        <time>2024-07-02T09:01:10Z</time>
      </trkpt>
      <trkpt lat="44.88302" lon="5.2457">
        <ele>1232.2</ele>
        <time>2024-07-02T09:01:11Z</time>
      </trkpt>
      <trkpt lat="44.88303" lon="5.24571">
        <ele>1232.1</ele>
        <time>2024-07-02T09:01:12Z</time>
      </trkpt>
      <trkpt lat="44.88303" lon="5.24572">
        <ele>1232</ele>
        <time>2024-07-02T09:01:13Z</time>
      </trkpt>
      <trkpt lat="44.88302" lon="5.24574">
        <ele>1231.9</ele>
        <time>2024-07-02T09:01:14Z</time>
      </trkpt>
      <trkpt lat="44.88302" lon="5.24575">
        <ele>1231.8</ele>
        <time>2024-07-02T09:01:15Z</time>
      </trkpt>
      <trkpt lat="44.88301" lon="5.24576">
        <ele>1231.7</ele>
        <time>2024-07-02T09:01:16Z</time>
      </trkpt>
      <trkpt lat="44.88301" lon="5.24578">
        <ele>1231.6</ele>
        <time>2024-07-02T09:01:17Z</time>
      </trkpt>
      <trkpt lat="44.88301" lon="5.24579">
        <ele>1231.5</ele>
        <time>2024-07-02T09:01:18Z</time>
      </trkpt>
      <trkpt lat="44.88301" lon="5.24581">
        <ele>1231.4</ele>
        <time>2024-07-02T09:01:19Z</time>
      </trkpt>
      <trkpt lat="44.883" lon="5.24582">
        <ele>1231.3</ele>
        <time>2024-07-02T09:01:20Z</time>
      </trkpt>
      <trkpt lat="44.883" lon="5.24583">
        <ele>1231.2</ele>
        <time>2024-07-02T09:01:21Z</time>
      </trkpt>
      <trkpt lat="44.883" lon="5.24584">
        <ele>1231.2</ele>
        <time>2024-07-02T09:01:22Z</time>
      </trkpt>
      <trkpt lat="44.883" lon="5.24585">
        <ele>1231.1</ele>
        <time>2024-07-02T09:01:23Z</time>
      </trkpt>
      <trkpt lat="44.883" lon="5.24587">
        <ele>1231</ele>
        <time>2024-07-02T09:01:24Z</time>
      </trkpt>
      <trkpt lat="44.883" lon="5.24588">
        <ele>1230.9</ele>
        <time>2024-07-02T09:01:25Z</time>
      </trkpt>
      <trkpt lat="44.883" lon="5.24588">
        <ele>1230.8</ele>
        <time>2024-07-02T09:01:26Z</time>
      </trkpt>
      <trkpt lat="44.883" lon="5.24587">
        <ele>1230.8</ele>
        <time>2024-07-02T09:01:27Z</time>
      </trkpt>
      <trkpt lat="44.883" lon="5.24586">
        <ele>1230.7</ele>
        <time>2024-07-02T09:01:28Z</time>
      </trkpt>
      <trkpt lat="44.88301" lon="5.24586">
        <ele>1230.7</ele>
        <time>2024-07-02T09:01:29Z</time>
      </trkpt>
      <trkpt lat="44.88301" lon="5.24585">
        <ele>1230.6</ele>
        <time>2024-07-02T09:01:30Z</time>
      </trkpt>
      <trkpt lat="44.88301" lon="5.24585">
        <ele>1230.6</ele>
        <time>2024-07-02T09:01:31Z</time>
      </trkpt>
      <trkpt lat="44.88301" lon="5.24585">
        <ele>1230.5</ele>
        <time>2024-07-02T09:01:32Z</time>
      </trkpt>
      <trkpt lat="44.88302" lon="5.24584">
        <ele>1230.5</ele>
        <time>2024-07-02T09:01:33Z</time>
      </trkpt>
      <trkpt lat="44.88302" lon="5.24584">
        <ele>1230.5</ele>
        <time>2024-07-02T09:01:34Z</time>
      </trkpt>
      <trkpt lat="44.88302" lon="5.24584">
        <ele>1230.4</ele>
        <time>2024-07-02T09:01:35Z</time>
      </trkpt>
      <trkpt lat="44.88302" lon="5.24584">
        <ele>1230.4</ele>
        <time>2024-07-02T09:01:36Z</time>
      </trkpt>
      <trkpt lat="44.88302" lon="5.24584">
        <ele>1230.4</ele>
        <time>2024-07-02T09:01:37Z</time>
      </trkpt>
      <trkpt lat="44.88302" lon="5.24584">
        <ele>1230.4</ele>
        <time>2024-07-02T09:01:38Z</time>
      </trkpt>
      <trkpt lat="44.88302" lon="5.24584">
        <ele>1230.4</ele>
        <time>2024-07-02T09:01:39Z</time>
      </trkpt>
      <trkpt lat="44.88302" lon="5.24584">
        <ele>1230.4</ele>
        <time>2024-07-02T09:01:40Z</time>
      </trkpt>
      <trkpt lat="44.88302" lon="5.24584">
        <ele>1230.4</ele>
        <time>2024-07-02T09:01:41Z</time>
      </trkpt>
      <trkpt lat="44.88302" lon="5.24584">
        <ele>1230.4</ele>
        <time>2024-07-02T09:01:42Z</time>
      </trkpt>
      <trkpt lat="44.88302" lon="5.24584">
        <ele>1230.4</ele>
        <time>2024-07-02T09:01:43Z</time>
      </trkpt>
      <trkpt lat="44.88302" lon="5.24584">
        <ele>1230.4</ele>
        <time>2024-07-02T09:01:44Z</time>
      </trkpt>
      <trkpt lat="44.88302" lon="5.24584">
        <ele>1230.3</ele>
        <time>2024-07-02T09:01:45Z</time>
      </trkpt>
      <trkpt lat="44.88302" lon="5.24585">
        <ele>1230.3</ele>
        <time>2024-07-02T09:01:46Z</time>
      </trkpt>
      <trkpt lat="44.88301" lon="5.24586">
        <ele>1230.2</ele>
        <time>2024-07-02T09:01:47Z</time>
      </trkpt>
      <trkpt lat="44.88301" lon="5.24587">
        <ele>1230.2</ele>
        <time>2024-07-02T09:01:48Z</time>
      </trkpt>
      <trkpt lat="44.88301" lon="5.24587">
        <ele>1230.1</ele>
        <time>2024-07-02T09:01:49Z</time>
      </trkpt>
      <trkpt lat="44.88301" lon="5.24588">
        <ele>1230.1</ele>
        <time>2024-07-02T09:01:50Z</time>
      </trkpt>
      <trkpt lat="44.88301" lon="5.24586">
        <ele>1230</ele>
        <time>2024-07-02T09:01:51Z</time>
      </trkpt>
      <trkpt lat="44.88301" lon="5.24587">
        <ele>1230</ele>
        <time>2024-07-02T09:01:52Z</time>
      </trkpt>
      <trkpt lat="44.88301" lon="5.24587">
        <ele>1229.9</ele>
        <time>2024-07-02T09:01:53Z</time>
      </trkpt>
      <trkpt lat="44.88301" lon="5.24587">
        <ele>1229.9</ele>
        <time>2024-07-02T09:01:54Z</time>
      </trkpt>
      <trkpt lat="44.88301" lon="5.24588">
        <ele>1229.9</ele>
        <time>2024-07-02T09:01:55Z</time>
      </trkpt>
      <trkpt lat="44.88301" lon="5.24588">
        <ele>1229.9</ele>
        <time>2024-07-02T09:01:56Z</time>
      </trkpt>
      <trkpt lat="44.88301" lon="5.24588">
        <ele>1229.9</ele>
        <time>2024-07-02T09:01:57Z</time>
      </trkpt>
      <trkpt lat="44.88301" lon="5.24588">
        <ele>1229.8</ele>
        <time>2024-07-02T09:01:58Z</time>
      </trkpt>
      <trkpt lat="44.88301" lon="5.24588">
        <ele>1229.8</ele>
        <time>2024-07-02T09:01:59Z</time>
      </trkpt>
      <trkpt lat="44.88301" lon="5.24588">
        <ele>1229.8</ele>
        <time>2024-07-02T09:02:00Z</time>
      </trkpt>
      <trkpt lat="44.88301" lon="5.24588">
        <ele>1229.8</ele>
        <time>2024-07-02T09:02:01Z</time>
      </trkpt>
      <trkpt lat="44.88301" lon="5.24588">
        <ele>1229.8</ele>
        <time>2024-07-02T09:02:02Z</time>
      </trkpt>
      <trkpt lat="44.88301" lon="5.24588">
        <ele>1229.8</ele>
        <time>2024-07-02T09:02:03Z</time>
      </trkpt>
      <trkpt lat="44.88301" lon="5.24588">
        <ele>1229.8</ele>
        <time>2024-07-02T09:02:04Z</time>
      </trkpt>
      <trkpt lat="44.88301" lon="5.24588">
        <ele>1229.8</ele>
        <time>2024-07-02T09:02:05Z</time>
      </trkpt>
      <trkpt lat="44.88301" lon="5.24588">
        <ele>1229.8</ele>
        <time>2024-07-02T09:02:06Z</time>
      </trkpt>
      <trkpt lat="44.88301" lon="5.24588">
        <ele>1229.8</ele>
        <time>2024-07-02T09:02:07Z</time>
      </trkpt>
      <trkpt lat="44.883" lon="5.24589">
        <ele>1229.7</ele>
        <time>2024-07-02T09:02:08Z</time>
      </trkpt>
      <trkpt lat="44.883" lon="5.24589">
        <ele>1229.7</ele>
        <time>2024-07-02T09:02:09Z</time>
      </trkpt>
      <trkpt lat="44.883" lon="5.24589">
        <ele>1229.7</ele>
        <time>2024-07-02T09:02:10Z</time>
      </trkpt>
      <trkpt lat="44.883" lon="5.24588">
        <ele>1229.7</ele>
        <time>2024-07-02T09:02:11Z</time>
      </trkpt>
      <trkpt lat="44.883" lon="5.24588">
        <ele>1229.6</ele>
        <time>2024-07-02T09:02:12Z</time>
      </trkpt>
      <trkpt lat="44.883" lon="5.24588">
        <ele>1229.6</ele>
        <time>2024-07-02T09:02:13Z</time>
      </trkpt>
      <trkpt lat="44.883" lon="5.24588">
        <ele>1229.6</ele>
        <time>2024-07-02T09:02:14Z</time>
      </trkpt>
      <trkpt lat="44.883" lon="5.24588">
        <ele>1229.6</ele>
        <time>2024-07-02T09:02:15Z</time>
      </trkpt>
      <trkpt lat="44.883" lon="5.24588">
        <ele>1229.6</ele>
        <time>2024-07-02T09:02:16Z</time>
      </trkpt>
      <trkpt lat="44.883" lon="5.24588">
        <ele>1229.6</ele>
        <time>2024-07-02T09:02:17Z</time>
      </trkpt>
      <trkpt lat="44.883" lon="5.24588">
        <ele>1229.6</ele>
        <time>2024-07-02T09:02:18Z</time>
      </trkpt>
      <trkpt lat="44.88299" lon="5.24588">
        <ele>1229.6</ele>
        <time>2024-07-02T09:02:19Z</time>
      </trkpt>
      <trkpt lat="44.88299" lon="5.24587">
        <ele>1229.5</ele>
        <time>2024-07-02T09:02:20Z</time>
      </trkpt>
      <trkpt lat="44.88299" lon="5.24588">
        <ele>1229.5</ele>
        <time>2024-07-02T09:02:21Z</time>
      </trkpt>
      <trkpt lat="44.88299" lon="5.24588">
        <ele>1229.4</ele>
        <time>2024-07-02T09:02:22Z</time>
      </trkpt>
      <trkpt lat="44.88298" lon="5.24589">
        <ele>1229.4</ele>
        <time>2024-07-02T09:02:23Z</time>
      </trkpt>
      <trkpt lat="44.88297" lon="5.24592">
        <ele>1229.1</ele>
        <time>2024-07-02T09:02:24Z</time>
      </trkpt>
      <trkpt lat="44.88297" lon="5.24592">
        <ele>1229</ele>
        <time>2024-07-02T09:02:25Z</time>
      </trkpt>
      <trkpt lat="44.88296" lon="5.24593">
        <ele>1228.9</ele>
        <time>2024-07-02T09:02:26Z</time>
      </trkpt>
      <trkpt lat="44.88295" lon="5.24595">
        <ele>1228.7</ele>
        <time>2024-07-02T09:02:27Z</time>
      </trkpt>
      <trkpt lat="44.88295" lon="5.24597">
        <ele>1228.4</ele>
        <time>2024-07-02T09:02:28Z</time>
      </trkpt>
      <trkpt lat="44.88294" lon="5.246">
        <ele>1228.1</ele>
        <time>2024-07-02T09:02:29Z</time>
      </trkpt>
      <trkpt lat="44.88294" lon="5.24601">
        <ele>1228</ele>
        <time>2024-07-02T09:02:30Z</time>
      </trkpt>
      <trkpt lat="44.88294" lon="5.24602">
        <ele>1227.8</ele>
        <time>2024-07-02T09:02:31Z</time>
      </trkpt>
      <trkpt lat="44.88294" lon="5.24604">
        <ele>1227.6</ele>
        <time>2024-07-02T09:02:32Z</time>
      </trkpt>
      <trkpt lat="44.88294" lon="5.24606">
        <ele>1227.5</ele>
        <time>2024-07-02T09:02:33Z</time>
      </trkpt>
      <trkpt lat="44.88294" lon="5.24607">
        <ele>1227.3</ele>
        <time>2024-07-02T09:02:34Z</time>
      </trkpt>
      <trkpt lat="44.88294" lon="5.24609">
        <ele>1227.1</ele>
        <time>2024-07-02T09:02:35Z</time>
      </trkpt>
      <trkpt lat="44.88294" lon="5.2461">
        <ele>1226.9</ele>
        <time>2024-07-02T09:02:36Z</time>
      </trkpt>
      <trkpt lat="44.88295" lon="5.24611">
        <ele>1226.8</ele>
        <time>2024-07-02T09:02:37Z</time>
      </trkpt>
      <trkpt lat="44.88295" lon="5.24612">
        <ele>1226.7</ele>
        <time>2024-07-02T09:02:38Z</time>
      </trkpt>
      <trkpt lat="44.88295" lon="5.24613">
        <ele>1226.6</ele>
        <time>2024-07-02T09:02:39Z</time>
      </trkpt>
      <trkpt lat="44.88295" lon="5.24614">
        <ele>1226.5</ele>
        <time>2024-07-02T09:02:40Z</time>
      </trkpt>
      <trkpt lat="44.88295" lon="5.24616">
        <ele>1226.3</ele>
        <time>2024-07-02T09:02:41Z</time>
      </trkpt>
      <trkpt lat="44.88295" lon="5.24617">
        <ele>1226.1</ele>
        <time>2024-07-02T09:02:42Z</time>
      </trkpt>
      <trkpt lat="44.88296" lon="5.24619">
        <ele>1226</ele>
        <time>2024-07-02T09:02:43Z</time>
      </trkpt>
      <trkpt lat="44.88296" lon="5.2462">
        <ele>1225.8</ele>
        <time>2024-07-02T09:02:44Z</time>
      </trkpt>
      <trkpt lat="44.88296" lon="5.24621">
        <ele>1225.7</ele>
        <time>2024-07-02T09:02:45Z</time>
      </trkpt>
      <trkpt lat="44.88295" lon="5.24622">
        <ele>1225.5</ele>
        <time>2024-07-02T09:02:46Z</time>
      </trkpt>
      <trkpt lat="44.88295" lon="5.24624">
        <ele>1225.3</ele>
        <time>2024-07-02T09:02:47Z</time>
      </trkpt>
      <trkpt lat="44.88295" lon="5.24625">
        <ele>1225.2</ele>
        <time>2024-07-02T09:02:48Z</time>
      </trkpt>
      <trkpt lat="44.88294" lon="5.24626">
        <ele>1225.1</ele>
        <time>2024-07-02T09:02:49Z</time>
      </trkpt>
      <trkpt lat="44.88294" lon="5.24627">
        <ele>1224.9</ele>
        <time>2024-07-02T09:02:50Z</time>
      </trkpt>
      <trkpt lat="44.88294" lon="5.24628">
        <ele>1224.8</ele>
        <time>2024-07-02T09:02:51Z</time>
      </trkpt>
      <trkpt lat="44.88294" lon="5.2463">
        <ele>1224.7</ele>
        <time>2024-07-02T09:02:52Z</time>
      </trkpt>
      <trkpt lat="44.88294" lon="5.24631">
        <ele>1224.6</ele>
        <time>2024-07-02T09:02:53Z</time>
      </trkpt>
      <trkpt lat="44.88294" lon="5.24632">
        <ele>1224.4</ele>
        <time>2024-07-02T09:02:54Z</time>
      </trkpt>
      <trkpt lat="44.88294" lon="5.24633">
        <ele>1224.3</ele>
        <time>2024-07-02T09:02:55Z</time>
      </trkpt>
      <trkpt lat="44.88293" lon="5.24634">
        <ele>1224.2</ele>
        <time>2024-07-02T09:02:56Z</time>
      </trkpt>
      <trkpt lat="44.88294" lon="5.24635">
        <ele>1224.2</ele>
        <time>2024-07-02T09:02:58Z</time>
      </trkpt>
      <trkpt lat="44.88293" lon="5.24634">
        <ele>1224.1</ele>
        <time>2024-07-02T09:02:59Z</time>
      </trkpt>
      <trkpt lat="44.88293" lon="5.24634">
        <ele>1224.1</ele>
        <time>2024-07-02T09:03:00Z</time>
      </trkpt>
      <trkpt lat="44.88293" lon="5.24634">
        <ele>1224</ele>
        <time>2024-07-02T09:03:01Z</time>
      </trkpt>
      <trkpt lat="44.88293" lon="5.24634">
        <ele>1224</ele>
        <time>2024-07-02T09:03:02Z</time>
      </trkpt>
      <trkpt lat="44.88293" lon="5.24634">
        <ele>1224</ele>
        <time>2024-07-02T09:03:03Z</time>
      </trkpt>
      <trkpt lat="44.88293" lon="5.24634">
        <ele>1223.9</ele>
        <time>2024-07-02T09:03:04Z</time>
      </trkpt>
      <trkpt lat="44.88294" lon="5.24633">
        <ele>1223.9</ele>
        <time>2024-07-02T09:03:05Z</time>
      </trkpt>
      <trkpt lat="44.88294" lon="5.24634">
        <ele>1223.8</ele>
        <time>2024-07-02T09:03:06Z</time>
      </trkpt>
      <trkpt lat="44.88295" lon="5.24634">
        <ele>1223.7</ele>
        <time>2024-07-02T09:03:07Z</time>
      </trkpt>
      <trkpt lat="44.88295" lon="5.24635">
        <ele>1223.6</ele>
        <time>2024-07-02T09:03:08Z</time>
      </trkpt>
      <trkpt lat="44.88295" lon="5.24635">
        <ele>1223.6</ele>
        <time>2024-07-02T09:03:09Z</time>
      </trkpt>
      <trkpt lat="44.88295" lon="5.24635">
        <ele>1223.6</ele>
        <time>2024-07-02T09:03:10Z</time>
      </trkpt>
      <trkpt lat="44.88295" lon="5.24635">
        <ele>1223.6</ele>
        <time>2024-07-02T09:03:11Z</time>
      </trkpt>
      <trkpt lat="44.88295" lon="5.24635">
        <ele>1223.6</ele>
        <time>2024-07-02T09:03:12Z</time>
      </trkpt>
      <trkpt lat="44.88295" lon="5.24635">
        <ele>1223.6</ele>
        <time>2024-07-02T09:03:13Z</time>
      </trkpt>
      <trkpt lat="44.88295" lon="5.24635">
        <ele>1223.5</ele>
        <time>2024-07-02T09:03:14Z</time>
      </trkpt>
      <trkpt lat="44.88295" lon="5.24635">
        <ele>1223.5</ele>
        <time>2024-07-02T09:03:15Z</time>
      </trkpt>
      <trkpt lat="44.88294" lon="5.24636">
        <ele>1223.4</ele>
        <time>2024-07-02T09:03:16Z</time>
      </trkpt>
      <trkpt lat="44.88294" lon="5.24638">
        <ele>1223.2</ele>
        <time>2024-07-02T09:03:17Z</time>
      </trkpt>
      <trkpt lat="44.88294" lon="5.24637">
        <ele>1223.2</ele>
        <time>2024-07-02T09:03:18Z</time>
      </trkpt>
      <trkpt lat="44.88293" lon="5.24637">
        <ele>1223.1</ele>
        <time>2024-07-02T09:03:19Z</time>
      </trkpt>
      <trkpt lat="44.88293" lon="5.24639">
        <ele>1223</ele>
        <time>2024-07-02T09:03:20Z</time>
      </trkpt>
      <trkpt lat="44.88293" lon="5.2464">
        <ele>1222.9</ele>
        <time>2024-07-02T09:03:21Z</time>
      </trkpt>
      <trkpt lat="44.88292" lon="5.24641">
        <ele>1222.8</ele>
        <time>2024-07-02T09:03:22Z</time>
      </trkpt>
      <trkpt lat="44.88291" lon="5.24642">
        <ele>1222.7</ele>
        <time>2024-07-02T09:03:23Z</time>
      </trkpt>
      <trkpt lat="44.88289" lon="5.24644">
        <ele>1222.4</ele>
        <time>2024-07-02T09:03:24Z</time>
      </trkpt>
      <trkpt lat="44.88289" lon="5.24645">
        <ele>1222.3</ele>
        <time>2024-07-02T09:03:25Z</time>
      </trkpt>
      <trkpt lat="44.88288" lon="5.24646">
        <ele>1222.2</ele>
        <time>2024-07-02T09:03:26Z</time>
      </trkpt>
      <trkpt lat="44.88287" lon="5.24648">
        <ele>1222</ele>
        <time>2024-07-02T09:03:27Z</time>
      </trkpt>
      <trkpt lat="44.88286" lon="5.2465">
        <ele>1221.9</ele>
        <time>2024-07-02T09:03:28Z</time>
      </trkpt>
      <trkpt lat="44.88286" lon="5.24651">
        <ele>1221.8</ele>
        <time>2024-07-02T09:03:29Z</time>
      </trkpt>
      <trkpt lat="44.88285" lon="5.24653">
        <ele>1221.6</ele>
        <time>2024-07-02T09:03:30Z</time>
      </trkpt>
      <trkpt lat="44.88284" lon="5.24654">
        <ele>1221.5</ele>
        <time>2024-07-02T09:03:31Z</time>
      </trkpt>
      <trkpt lat="44.88283" lon="5.24655">
        <ele>1221.4</ele>
        <time>2024-07-02T09:03:32Z</time>
      </trkpt>
      <trkpt lat="44.88283" lon="5.24656">
        <ele>1221.3</ele>
        <time>2024-07-02T09:03:33Z</time>
      </trkpt>
      <trkpt lat="44.88283" lon="5.24658">
        <ele>1221.2</ele>
        <time>2024-07-02T09:03:34Z</time>
      </trkpt>
      <trkpt lat="44.88282" lon="5.24659">
        <ele>1221.1</ele>
        <time>2024-07-02T09:03:35Z</time>
      </trkpt>
      <trkpt lat="44.88281" lon="5.24659">
        <ele>1221</ele>
        <time>2024-07-02T09:03:36Z</time>
      </trkpt>
      <trkpt lat="44.8828" lon="5.2466">
        <ele>1220.9</ele>
        <time>2024-07-02T09:03:37Z</time>
      </trkpt>
      <trkpt lat="44.88278" lon="5.24661">
        <ele>1220.8</ele>
        <time>2024-07-02T09:03:38Z</time>
      </trkpt>
      <trkpt lat="44.88277" lon="5.24662">
        <ele>1220.7</ele>
        <time>2024-07-02T09:03:39Z</time>
      </trkpt>
      <trkpt lat="44.88276" lon="5.24662">
        <ele>1220.6</ele>
        <time>2024-07-02T09:03:40Z</time>
      </trkpt>
      <trkpt lat="44.88276" lon="5.24663">
        <ele>1220.5</ele>
        <time>2024-07-02T09:03:41Z</time>
      </trkpt>
      <trkpt lat="44.88275" lon="5.24664">
        <ele>1220.4</ele>
        <time>2024-07-02T09:03:42Z</time>
      </trkpt>
      <trkpt lat="44.88274" lon="5.24665">
        <ele>1220.4</ele>
        <time>2024-07-02T09:03:43Z</time>
      </trkpt>
      <trkpt lat="44.88273" lon="5.24666">
        <ele>1220.2</ele>
        <time>2024-07-02T09:03:44Z</time>
      </trkpt>
      <trkpt lat="44.88272" lon="5.24667">
        <ele>1220.2</ele>
        <time>2024-07-02T09:03:45Z</time>
      </trkpt>
      <trkpt lat="44.88271" lon="5.24667">
        <ele>1220.1</ele>
        <time>2024-07-02T09:03:46Z</time>
      </trkpt>
      <trkpt lat="44.88271" lon="5.24668">
        <ele>1220.1</ele>
        <time>2024-07-02T09:03:47Z</time>
      </trkpt>
      <trkpt lat="44.8827" lon="5.24668">
        <ele>1220</ele>
        <time>2024-07-02T09:03:48Z</time>
      </trkpt>
      <trkpt lat="44.88269" lon="5.24669">
        <ele>1219.9</ele>
        <time>2024-07-02T09:03:49Z</time>
      </trkpt>
      <trkpt lat="44.88268" lon="5.24669">
        <ele>1219.8</ele>
        <time>2024-07-02T09:03:50Z</time>
      </trkpt>
      <trkpt lat="44.88267" lon="5.2467">
        <ele>1219.8</ele>
        <time>2024-07-02T09:03:51Z</time>
      </trkpt>
      <trkpt lat="44.88267" lon="5.24671">
        <ele>1219.7</ele>
        <time>2024-07-02T09:03:52Z</time>
      </trkpt>
      <trkpt lat="44.88266" lon="5.24671">
        <ele>1219.6</ele>
        <time>2024-07-02T09:03:53Z</time>
      </trkpt>
      <trkpt lat="44.88265" lon="5.24672">
        <ele>1219.6</ele>
        <time>2024-07-02T09:03:54Z</time>
      </trkpt>
      <trkpt lat="44.88264" lon="5.24673">
        <ele>1219.5</ele>
        <time>2024-07-02T09:03:55Z</time>
      </trkpt>
      <trkpt lat="44.88264" lon="5.24673">
        <ele>1219.4</ele>
        <time>2024-07-02T09:03:56Z</time>
      </trkpt>
      <trkpt lat="44.88263" lon="5.24674">
        <ele>1219.3</ele>
        <time>2024-07-02T09:03:57Z</time>
      </trkpt>
      <trkpt lat="44.88262" lon="5.24674">
        <ele>1219.3</ele>
        <time>2024-07-02T09:03:58Z</time>
      </trkpt>
      <trkpt lat="44.88261" lon="5.24675">
        <ele>1219.2</ele>
        <time>2024-07-02T09:03:59Z</time>
      </trkpt>
      <trkpt lat="44.8826" lon="5.24676">
        <ele>1219.1</ele>
        <time>2024-07-02T09:04:00Z</time>
      </trkpt>
      <trkpt lat="44.88259" lon="5.24676">
        <ele>1219</ele>
        <time>2024-07-02T09:04:01Z</time>
      </trkpt>
      <trkpt lat="44.88258" lon="5.24677">
        <ele>1218.9</ele>
        <time>2024-07-02T09:04:02Z</time>
      </trkpt>
      <trkpt lat="44.88257" lon="5.24678">
        <ele>1218.8</ele>
        <time>2024-07-02T09:04:03Z</time>
      </trkpt>
      <trkpt lat="44.88256" lon="5.2468">
        <ele>1218.6</ele>
        <time>2024-07-02T09:04:04Z</time>
      </trkpt>
      <trkpt lat="44.88255" lon="5.2468">
        <ele>1218.5</ele>
        <time>2024-07-02T09:04:05Z</time>
      </trkpt>
      <trkpt lat="44.88254" lon="5.24681">
        <ele>1218.4</ele>
        <time>2024-07-02T09:04:06Z</time>
      </trkpt>
      <trkpt lat="44.88253" lon="5.24682">
        <ele>1218.4</ele>
        <time>2024-07-02T09:04:07Z</time>
      </trkpt>
      <trkpt lat="44.88252" lon="5.24683">
        <ele>1218.2</ele>
        <time>2024-07-02T09:04:08Z</time>
      </trkpt>
      <trkpt lat="44.88251" lon="5.24684">
        <ele>1218.1</ele>
        <time>2024-07-02T09:04:09Z</time>
      </trkpt>
      <trkpt lat="44.88249" lon="5.24685">
        <ele>1217.9</ele>
        <time>2024-07-02T09:04:10Z</time>
      </trkpt>
      <trkpt lat="44.88249" lon="5.24686">
        <ele>1217.8</ele>
        <time>2024-07-02T09:04:11Z</time>
      </trkpt>
      <trkpt lat="44.88248" lon="5.24686">
        <ele>1217.8</ele>
        <time>2024-07-02T09:04:12Z</time>
      </trkpt>
      <trkpt lat="44.88247" lon="5.24687">
        <ele>1217.7</ele>
        <time>2024-07-02T09:04:13Z</time>
      </trkpt>
      <trkpt lat="44.88247" lon="5.24689">
        <ele>1217.6</ele>
        <time>2024-07-02T09:04:14Z</time>
      </trkpt>
      <trkpt lat="44.88246" lon="5.2469">
        <ele>1217.5</ele>
        <time>2024-07-02T09:04:15Z</time>
      </trkpt>
      <trkpt lat="44.88245" lon="5.24691">
        <ele>1217.3</ele>
        <time>2024-07-02T09:04:16Z</time>
      </trkpt>
      <trkpt lat="44.88245" lon="5.24692">
        <ele>1217.2</ele>
        <time>2024-07-02T09:04:17Z</time>
      </trkpt>
      <trkpt lat="44.88244" lon="5.24693">
        <ele>1217.1</ele>
        <time>2024-07-02T09:04:18Z</time>
      </trkpt>
      <trkpt lat="44.88243" lon="5.24694">
        <ele>1217</ele>
        <time>2024-07-02T09:04:19Z</time>
      </trkpt>
      <trkpt lat="44.88242" lon="5.24695">
        <ele>1216.9</ele>
        <time>2024-07-02T09:04:20Z</time>
      </trkpt>
      <trkpt lat="44.88242" lon="5.24696">
        <ele>1216.8</ele>
        <time>2024-07-02T09:04:21Z</time>
      </trkpt>
      <trkpt lat="44.88241" lon="5.24697">
        <ele>1216.7</ele>
        <time>2024-07-02T09:04:22Z</time>
      </trkpt>
      <trkpt lat="44.8824" lon="5.24698">
        <ele>1216.6</ele>
        <time>2024-07-02T09:04:23Z</time>
      </trkpt>
      <trkpt lat="44.88239" lon="5.24699">
        <ele>1216.5</ele>
        <time>2024-07-02T09:04:24Z</time>
      </trkpt>
      <trkpt lat="44.88238" lon="5.247">
        <ele>1216.4</ele>
        <time>2024-07-02T09:04:25Z</time>
      </trkpt>
      <trkpt lat="44.88237" lon="5.24701">
        <ele>1216.2</ele>
        <time>2024-07-02T09:04:26Z</time>
      </trkpt>
      <trkpt lat="44.88237" lon="5.24702">
        <ele>1216.1</ele>
        <time>2024-07-02T09:04:27Z</time>
      </trkpt>
      <trkpt lat="44.88236" lon="5.24703">
        <ele>1216</ele>
        <time>2024-07-02T09:04:28Z</time>
      </trkpt>
      <trkpt lat="44.88235" lon="5.24704">
        <ele>1215.9</ele>
        <time>2024-07-02T09:04:29Z</time>
      </trkpt>
      <trkpt lat="44.88234" lon="5.24705">
        <ele>1215.8</ele>
        <time>2024-07-02T09:04:30Z</time>
      </trkpt>
      <trkpt lat="44.88233" lon="5.24706">
        <ele>1215.7</ele>
        <time>2024-07-02T09:04:31Z</time>
      </trkpt>
      <trkpt lat="44.88233" lon="5.24706">
        <ele>1215.6</ele>
        <time>2024-07-02T09:04:32Z</time>
      </trkpt>
      <trkpt lat="44.88231" lon="5.24707">
        <ele>1215.5</ele>
        <time>2024-07-02T09:04:33Z</time>
      </trkpt>
      <trkpt lat="44.88231" lon="5.24708">
        <ele>1215.4</ele>
        <time>2024-07-02T09:04:34Z</time>
      </trkpt>
      <trkpt lat="44.8823" lon="5.24709">
        <ele>1215.3</ele>
        <time>2024-07-02T09:04:35Z</time>
      </trkpt>
      <trkpt lat="44.88229" lon="5.2471">
        <ele>1215.2</ele>
        <time>2024-07-02T09:04:36Z</time>
      </trkpt>
      <trkpt lat="44.88228" lon="5.24711">
        <ele>1215.1</ele>
        <time>2024-07-02T09:04:37Z</time>
      </trkpt>
      <trkpt lat="44.88227" lon="5.24712">
        <ele>1214.9</ele>
        <time>2024-07-02T09:04:38Z</time>
      </trkpt>
      <trkpt lat="44.88227" lon="5.24713">
        <ele>1214.8</ele>
        <time>2024-07-02T09:04:39Z</time>
      </trkpt>
      <trkpt lat="44.88226" lon="5.24714">
        <ele>1214.7</ele>
        <time>2024-07-02T09:04:40Z</time>
      </trkpt>
      <trkpt lat="44.88226" lon="5.24715">
        <ele>1214.7</ele>
        <time>2024-07-02T09:04:41Z</time>
      </trkpt>
      <trkpt lat="44.88225" lon="5.24715">
        <ele>1214.7</ele>
        <time>2024-07-02T09:04:42Z</time>
      </trkpt>
      <trkpt lat="44.88225" lon="5.24716">
        <ele>1214.6</ele>
        <time>2024-07-02T09:04:43Z</time>
      </trkpt>
      <trkpt lat="44.88225" lon="5.24716">
        <ele>1214.6</ele>
        <time>2024-07-02T09:04:44Z</time>
      </trkpt>
      <trkpt lat="44.88225" lon="5.24716">
        <ele>1214.6</ele>
        <time>2024-07-02T09:04:45Z</time>
      </trkpt>
      <trkpt lat="44.88225" lon="5.24717">
        <ele>1214.5</ele>
        <time>2024-07-02T09:04:46Z</time>
      </trkpt>
      <trkpt lat="44.88225" lon="5.24717">
        <ele>1214.5</ele>
        <time>2024-07-02T09:04:47Z</time>
      </trkpt>
      <trkpt lat="44.88225" lon="5.24718">
        <ele>1214.5</ele>
        <time>2024-07-02T09:04:48Z</time>
      </trkpt>
      <trkpt lat="44.88224" lon="5.24719">
        <ele>1214.3</ele>
        <time>2024-07-02T09:04:49Z</time>
      </trkpt>
      <trkpt lat="44.88223" lon="5.2472">
        <ele>1214.2</ele>
        <time>2024-07-02T09:04:50Z</time>
      </trkpt>
      <trkpt lat="44.88222" lon="5.24721">
        <ele>1214.1</ele>
        <time>2024-07-02T09:04:51Z</time>
      </trkpt>
      <trkpt lat="44.88222" lon="5.24722">
        <ele>1214</ele>
        <time>2024-07-02T09:04:52Z</time>
      </trkpt>
      <trkpt lat="44.88221" lon="5.24723">
        <ele>1213.9</ele>
        <time>2024-07-02T09:04:53Z</time>
      </trkpt>
      <trkpt lat="44.8822" lon="5.24723">
        <ele>1213.8</ele>
        <time>2024-07-02T09:04:54Z</time>
      </trkpt>
      <trkpt lat="44.88219" lon="5.24724">
        <ele>1213.7</ele>
        <time>2024-07-02T09:04:55Z</time>
      </trkpt>
      <trkpt lat="44.88218" lon="5.24725">
        <ele>1213.6</ele>
        <time>2024-07-02T09:04:56Z</time>
      </trkpt>
      <trkpt lat="44.88217" lon="5.24725">
        <ele>1213.5</ele>
        <time>2024-07-02T09:04:57Z</time>
      </trkpt>
      <trkpt lat="44.88216" lon="5.24726">
        <ele>1213.4</ele>
        <time>2024-07-02T09:04:58Z</time>
      </trkpt>
      <trkpt lat="44.88215" lon="5.24726">
        <ele>1213.3</ele>
        <time>2024-07-02T09:04:59Z</time>
      </trkpt>
      <trkpt lat="44.88215" lon="5.24727">
        <ele>1213.2</ele>
        <time>2024-07-02T09:05:00Z</time>
      </trkpt>
      <trkpt lat="44.88214" lon="5.24728">
        <ele>1213.1</ele>
        <time>2024-07-02T09:05:01Z</time>
      </trkpt>
      <trkpt lat="44.88213" lon="5.24728">
        <ele>1213.1</ele>
        <time>2024-07-02T09:05:02Z</time>
      </trkpt>
      <trkpt lat="44.88212" lon="5.24729">
        <ele>1213</ele>
        <time>2024-07-02T09:05:03Z</time>
      </trkpt>
      <trkpt lat="44.88211" lon="5.2473">
        <ele>1212.9</ele>
        <time>2024-07-02T09:05:04Z</time>
      </trkpt>
      <trkpt lat="44.8821" lon="5.2473">
        <ele>1212.8</ele>
        <time>2024-07-02T09:05:05Z</time>
      </trkpt>
      <trkpt lat="44.88209" lon="5.24731">
        <ele>1212.7</ele>
        <time>2024-07-02T09:05:06Z</time>
      </trkpt>
      <trkpt lat="44.88208" lon="5.24732">
        <ele>1212.5</ele>
        <time>2024-07-02T09:05:07Z</time>
      </trkpt>
      <trkpt lat="44.88207" lon="5.24732">
        <ele>1212.5</ele>
        <time>2024-07-02T09:05:08Z</time>
      </trkpt>
      <trkpt lat="44.88206" lon="5.24733">
        <ele>1212.4</ele>
        <time>2024-07-02T09:05:09Z</time>
      </trkpt>
      <trkpt lat="44.88206" lon="5.24733">
        <ele>1212.3</ele>
        <time>2024-07-02T09:05:10Z</time>
      </trkpt>
      <trkpt lat="44.88205" lon="5.24734">
        <ele>1212.2</ele>
        <time>2024-07-02T09:05:11Z</time>
      </trkpt>
      <trkpt lat="44.88204" lon="5.24735">
        <ele>1212.1</ele>
        <time>2024-07-02T09:05:12Z</time>
      </trkpt>
      <trkpt lat="44.88203" lon="5.24735">
        <ele>1212</ele>
        <time>2024-07-02T09:05:13Z</time>
      </trkpt>
      <trkpt lat="44.88202" lon="5.24736">
        <ele>1211.9</ele>
        <time>2024-07-02T09:05:14Z</time>
      </trkpt>
      <trkpt lat="44.88201" lon="5.24737">
        <ele>1211.8</ele>
        <time>2024-07-02T09:05:15Z</time>
      </trkpt>
      <trkpt lat="44.882" lon="5.24738">
        <ele>1211.7</ele>
        <time>2024-07-02T09:05:16Z</time>
      </trkpt>
      <trkpt lat="44.88199" lon="5.24738">
        <ele>1211.6</ele>
        <time>2024-07-02T09:05:17Z</time>
      </trkpt>
      <trkpt lat="44.88198" lon="5.24739">
        <ele>1211.5</ele>
        <time>2024-07-02T09:05:18Z</time>
      </trkpt>
      <trkpt lat="44.88198" lon="5.2474">
        <ele>1211.4</ele>
        <time>2024-07-02T09:05:19Z</time>
      </trkpt>
      <trkpt lat="44.88197" lon="5.24741">
        <ele>1211.3</ele>
        <time>2024-07-02T09:05:20Z</time>
      </trkpt>
      <trkpt lat="44.88196" lon="5.24742">
        <ele>1211.2</ele>
        <time>2024-07-02T09:05:21Z</time>
      </trkpt>
      <trkpt lat="44.88195" lon="5.24743">
        <ele>1211.1</ele>
        <time>2024-07-02T09:05:22Z</time>
      </trkpt>
      <trkpt lat="44.88194" lon="5.24744">
        <ele>1211</ele>
        <time>2024-07-02T09:05:23Z</time>
      </trkpt>
      <trkpt lat="44.88193" lon="5.24745">
        <ele>1210.9</ele>
        <time>2024-07-02T09:05:24Z</time>
      </trkpt>
      <trkpt lat="44.88192" lon="5.24746">
        <ele>1210.8</ele>
        <time>2024-07-02T09:05:25Z</time>
      </trkpt>
      <trkpt lat="44.88191" lon="5.24746">
        <ele>1210.7</ele>
        <time>2024-07-02T09:05:26Z</time>
      </trkpt>
      <trkpt lat="44.88191" lon="5.24747">
        <ele>1210.6</ele>
        <time>2024-07-02T09:05:27Z</time>
      </trkpt>
      <trkpt lat="44.8819" lon="5.24748">
        <ele>1210.6</ele>
        <time>2024-07-02T09:05:28Z</time>
      </trkpt>
      <trkpt lat="44.88189" lon="5.24749">
        <ele>1210.5</ele>
        <time>2024-07-02T09:05:29Z</time>
      </trkpt>
      <trkpt lat="44.88188" lon="5.24749">
        <ele>1210.4</ele>
        <time>2024-07-02T09:05:30Z</time>
      </trkpt>
      <trkpt lat="44.88187" lon="5.2475">
        <ele>1210.3</ele>
        <time>2024-07-02T09:05:31Z</time>
      </trkpt>
      <trkpt lat="44.88186" lon="5.24751">
        <ele>1210.2</ele>
        <time>2024-07-02T09:05:32Z</time>
      </trkpt>
      <trkpt lat="44.88185" lon="5.24751">
        <ele>1210.1</ele>
        <time>2024-07-02T09:05:33Z</time>
      </trkpt>
      <trkpt lat="44.88184" lon="5.24752">
        <ele>1210</ele>
        <time>2024-07-02T09:05:34Z</time>
      </trkpt>
      <trkpt lat="44.88184" lon="5.24752">
        <ele>1209.9</ele>
        <time>2024-07-02T09:05:35Z</time>
      </trkpt>
      <trkpt lat="44.88183" lon="5.24753">
        <ele>1209.8</ele>
        <time>2024-07-02T09:05:36Z</time>
      </trkpt>
      <trkpt lat="44.88182" lon="5.24754">
        <ele>1209.7</ele>
        <time>2024-07-02T09:05:37Z</time>
      </trkpt>
      <trkpt lat="44.88181" lon="5.24754">
        <ele>1209.6</ele>
        <time>2024-07-02T09:05:38Z</time>
      </trkpt>
      <trkpt lat="44.8818" lon="5.24754">
        <ele>1209.5</ele>
        <time>2024-07-02T09:05:39Z</time>
      </trkpt>
      <trkpt lat="44.88179" lon="5.24755">
        <ele>1209.4</ele>
        <time>2024-07-02T09:05:40Z</time>
      </trkpt>
      <trkpt lat="44.88179" lon="5.24755">
        <ele>1209.4</ele>
        <time>2024-07-02T09:05:41Z</time>
      </trkpt>
      <trkpt lat="44.88178" lon="5.24756">
        <ele>1209.2</ele>
        <time>2024-07-02T09:05:42Z</time>
      </trkpt>
      <trkpt lat="44.88177" lon="5.24757">
        <ele>1209.1</ele>
        <time>2024-07-02T09:05:43Z</time>
      </trkpt>
      <trkpt lat="44.88176" lon="5.24758">
        <ele>1209</ele>
        <time>2024-07-02T09:05:44Z</time>
      </trkpt>
      <trkpt lat="44.88176" lon="5.24759">
        <ele>1208.9</ele>
        <time>2024-07-02T09:05:45Z</time>
      </trkpt>
      <trkpt lat="44.88175" lon="5.2476">
        <ele>1208.8</ele>
        <time>2024-07-02T09:05:46Z</time>
      </trkpt>
      <trkpt lat="44.88174" lon="5.24761">
        <ele>1208.7</ele>
        <time>2024-07-02T09:05:47Z</time>
      </trkpt>
      <trkpt lat="44.88173" lon="5.24762">
        <ele>1208.6</ele>
        <time>2024-07-02T09:05:48Z</time>
      </trkpt>
      <trkpt lat="44.88172" lon="5.24763">
        <ele>1208.5</ele>
        <time>2024-07-02T09:05:49Z</time>
      </trkpt>
      <trkpt lat="44.88171" lon="5.24763">
        <ele>1208.4</ele>
        <time>2024-07-02T09:05:50Z</time>
      </trkpt>
      <trkpt lat="44.8817" lon="5.24764">
        <ele>1208.3</ele>
        <time>2024-07-02T09:05:51Z</time>
      </trkpt>
      <trkpt lat="44.8817" lon="5.24765">
        <ele>1208.2</ele>
        <time>2024-07-02T09:05:52Z</time>
      </trkpt>
      <trkpt lat="44.88169" lon="5.24766">
        <ele>1208.1</ele>
        <time>2024-07-02T09:05:53Z</time>
      </trkpt>
      <trkpt lat="44.88168" lon="5.24767">
        <ele>1207.9</ele>
        <time>2024-07-02T09:05:54Z</time>
      </trkpt>
      <trkpt lat="44.88167" lon="5.24769">
        <ele>1207.8</ele>
        <time>2024-07-02T09:05:55Z</time>
      </trkpt>
      <trkpt lat="44.88167" lon="5.2477">
        <ele>1207.7</ele>
        <time>2024-07-02T09:05:56Z</time>
      </trkpt>
      <trkpt lat="44.88165" lon="5.24772">
        <ele>1207.5</ele>
        <time>2024-07-02T09:05:57Z</time>
      </trkpt>
      <trkpt lat="44.88164" lon="5.24772">
        <ele>1207.4</ele>
        <time>2024-07-02T09:05:58Z</time>
      </trkpt>
      <trkpt lat="44.88164" lon="5.24773">
        <ele>1207.3</ele>
        <time>2024-07-02T09:05:59Z</time>
      </trkpt>
      <trkpt lat="44.88162" lon="5.24775">
        <ele>1207.1</ele>
        <time>2024-07-02T09:06:00Z</time>
      </trkpt>
      <trkpt lat="44.88161" lon="5.24776">
        <ele>1207</ele>
        <time>2024-07-02T09:06:01Z</time>
      </trkpt>
      <trkpt lat="44.88161" lon="5.24776">
        <ele>1206.9</ele>
        <time>2024-07-02T09:06:02Z</time>
      </trkpt>
      <trkpt lat="44.8816" lon="5.24777">
        <ele>1206.8</ele>
        <time>2024-07-02T09:06:03Z</time>
      </trkpt>
      <trkpt lat="44.88159" lon="5.24778">
        <ele>1206.7</ele>
        <time>2024-07-02T09:06:04Z</time>
      </trkpt>
      <trkpt lat="44.88158" lon="5.24779">
        <ele>1206.5</ele>
        <time>2024-07-02T09:06:05Z</time>
      </trkpt>
      <trkpt lat="44.88157" lon="5.24782">
        <ele>1206.3</ele>
        <time>2024-07-02T09:06:06Z</time>
      </trkpt>
      <trkpt lat="44.88156" lon="5.24783">
        <ele>1206.2</ele>
        <time>2024-07-02T09:06:07Z</time>
      </trkpt>
      <trkpt lat="44.88156" lon="5.24784">
        <ele>1206.1</ele>
        <time>2024-07-02T09:06:08Z</time>
      </trkpt>
      <trkpt lat="44.88155" lon="5.24785">
        <ele>1206</ele>
        <time>2024-07-02T09:06:09Z</time>
      </trkpt>
      <trkpt lat="44.88154" lon="5.24786">
        <ele>1205.9</ele>
        <time>2024-07-02T09:06:10Z</time>
      </trkpt>
      <trkpt lat="44.88153" lon="5.24787">
        <ele>1205.8</ele>
        <time>2024-07-02T09:06:11Z</time>
      </trkpt>
      <trkpt lat="44.88152" lon="5.24788">
        <ele>1205.6</ele>
        <time>2024-07-02T09:06:12Z</time>
      </trkpt>
      <trkpt lat="44.88152" lon="5.24789">
        <ele>1205.5</ele>
        <time>2024-07-02T09:06:13Z</time>
      </trkpt>
      <trkpt lat="44.88151" lon="5.2479">
        <ele>1205.4</ele>
        <time>2024-07-02T09:06:14Z</time>
      </trkpt>
      <trkpt lat="44.8815" lon="5.24792">
        <ele>1205.3</ele>
        <time>2024-07-02T09:06:15Z</time>
      </trkpt>
      <trkpt lat="44.8815" lon="5.24793">
        <ele>1205.2</ele>
        <time>2024-07-02T09:06:16Z</time>
      </trkpt>
      <trkpt lat="44.88149" lon="5.24794">
        <ele>1205.1</ele>
        <time>2024-07-02T09:06:17Z</time>
      </trkpt>
      <trkpt lat="44.88149" lon="5.24796">
        <ele>1205</ele>
        <time>2024-07-02T09:06:18Z</time>
      </trkpt>
      <trkpt lat="44.88149" lon="5.24797">
        <ele>1204.9</ele>
        <time>2024-07-02T09:06:19Z</time>
      </trkpt>
      <trkpt lat="44.88149" lon="5.24798">
        <ele>1204.9</ele>
        <time>2024-07-02T09:06:20Z</time>
      </trkpt>
      <trkpt lat="44.88148" lon="5.24799">
        <ele>1204.8</ele>
        <time>2024-07-02T09:06:21Z</time>
      </trkpt>
      <trkpt lat="44.88146" lon="5.248">
        <ele>1204.6</ele>
        <time>2024-07-02T09:06:22Z</time>
      </trkpt>
      <trkpt lat="44.88146" lon="5.24801">
        <ele>1204.5</ele>
        <time>2024-07-02T09:06:23Z</time>
      </trkpt>
      <trkpt lat="44.88145" lon="5.24802">
        <ele>1204.4</ele>
        <time>2024-07-02T09:06:24Z</time>
      </trkpt>
      <trkpt lat="44.88143" lon="5.24804">
        <ele>1204.2</ele>
        <time>2024-07-02T09:06:25Z</time>
      </trkpt>
      <trkpt lat="44.88143" lon="5.24804">
        <ele>1204.2</ele>
        <time>2024-07-02T09:06:26Z</time>
      </trkpt>
      <trkpt lat="44.88142" lon="5.24805">
        <ele>1204.1</ele>
        <time>2024-07-02T09:06:27Z</time>
      </trkpt>
      <trkpt lat="44.88141" lon="5.24806">
        <ele>1204</ele>
        <time>2024-07-02T09:06:28Z</time>
      </trkpt>
      <trkpt lat="44.8814" lon="5.24807">
        <ele>1204</ele>
        <time>2024-07-02T09:06:29Z</time>
      </trkpt>
      <trkpt lat="44.88139" lon="5.24808">
        <ele>1203.9</ele>
        <time>2024-07-02T09:06:30Z</time>
      </trkpt>
      <trkpt lat="44.88138" lon="5.24809">
        <ele>1203.8</ele>
        <time>2024-07-02T09:06:31Z</time>
      </trkpt>
      <trkpt lat="44.88138" lon="5.2481">
        <ele>1203.7</ele>
        <time>2024-07-02T09:06:32Z</time>
      </trkpt>
      <trkpt lat="44.88137" lon="5.24811">
        <ele>1203.6</ele>
        <time>2024-07-02T09:06:33Z</time>
      </trkpt>
      <trkpt lat="44.88136" lon="5.24812">
        <ele>1203.6</ele>
        <time>2024-07-02T09:06:34Z</time>
      </trkpt>
      <trkpt lat="44.88135" lon="5.24813">
        <ele>1203.5</ele>
        <time>2024-07-02T09:06:35Z</time>
      </trkpt>
      <trkpt lat="44.88135" lon="5.24814">
        <ele>1203.4</ele>
        <time>2024-07-02T09:06:36Z</time>
      </trkpt>
      <trkpt lat="44.88134" lon="5.24816">
        <ele>1203.4</ele>
        <time>2024-07-02T09:06:37Z</time>
      </trkpt>
      <trkpt lat="44.88133" lon="5.24817">
        <ele>1203.3</ele>
        <time>2024-07-02T09:06:38Z</time>
      </trkpt>
      <trkpt lat="44.88133" lon="5.24818">
        <ele>1203.3</ele>
        <time>2024-07-02T09:06:39Z</time>
      </trkpt>
      <trkpt lat="44.88132" lon="5.24819">
        <ele>1203.2</ele>
        <time>2024-07-02T09:06:40Z</time>
      </trkpt>
      <trkpt lat="44.88131" lon="5.2482">
        <ele>1203.2</ele>
        <time>2024-07-02T09:06:41Z</time>
      </trkpt>
      <trkpt lat="44.88131" lon="5.24822">
        <ele>1203.1</ele>
        <time>2024-07-02T09:06:42Z</time>
      </trkpt>
      <trkpt lat="44.8813" lon="5.24823">
        <ele>1203</ele>
        <time>2024-07-02T09:06:43Z</time>
      </trkpt>
      <trkpt lat="44.8813" lon="5.24824">
        <ele>1203</ele>
        <time>2024-07-02T09:06:44Z</time>
      </trkpt>
      <trkpt lat="44.88129" lon="5.24826">
        <ele>1202.9</ele>
        <time>2024-07-02T09:06:45Z</time>
      </trkpt>
      <trkpt lat="44.88129" lon="5.24827">
        <ele>1202.9</ele>
        <time>2024-07-02T09:06:46Z</time>
      </trkpt>
      <trkpt lat="44.88128" lon="5.24828">
        <ele>1202.9</ele>
        <time>2024-07-02T09:06:47Z</time>
      </trkpt>
      <trkpt lat="44.88127" lon="5.24829">
        <ele>1202.8</ele>
        <time>2024-07-02T09:06:48Z</time>
      </trkpt>
      <trkpt lat="44.88127" lon="5.2483">
        <ele>1202.8</ele>
        <time>2024-07-02T09:06:49Z</time>
      </trkpt>
      <trkpt lat="44.88126" lon="5.24832">
        <ele>1202.7</ele>
        <time>2024-07-02T09:06:50Z</time>
      </trkpt>
      <trkpt lat="44.88126" lon="5.24833">
        <ele>1202.7</ele>
        <time>2024-07-02T09:06:51Z</time>
      </trkpt>
      <trkpt lat="44.88125" lon="5.24834">
        <ele>1202.7</ele>
        <time>2024-07-02T09:06:52Z</time>
      </trkpt>
      <trkpt lat="44.88125" lon="5.24836">
        <ele>1202.6</ele>
        <time>2024-07-02T09:06:53Z</time>
      </trkpt>
      <trkpt lat="44.88124" lon="5.24837">
        <ele>1202.6</ele>
        <time>2024-07-02T09:06:54Z</time>
      </trkpt>
      <trkpt lat="44.88124" lon="5.24839">
        <ele>1202.5</ele>
        <time>2024-07-02T09:06:55Z</time>
      </trkpt>
      <trkpt lat="44.88124" lon="5.2484">
        <ele>1202.5</ele>
        <time>2024-07-02T09:06:56Z</time>
      </trkpt>
      <trkpt lat="44.88123" lon="5.24841">
        <ele>1202.5</ele>
        <time>2024-07-02T09:06:57Z</time>
      </trkpt>
      <trkpt lat="44.88123" lon="5.24843">
        <ele>1202.4</ele>
        <time>2024-07-02T09:06:58Z</time>
      </trkpt>
      <trkpt lat="44.88122" lon="5.24844">
        <ele>1202.4</ele>
        <time>2024-07-02T09:06:59Z</time>
      </trkpt>
      <trkpt lat="44.88122" lon="5.24845">
        <ele>1202.3</ele>
        <time>2024-07-02T09:07:00Z</time>
      </trkpt>
      <trkpt lat="44.88121" lon="5.24847">
        <ele>1202.3</ele>
        <time>2024-07-02T09:07:01Z</time>
      </trkpt>
      <trkpt lat="44.88121" lon="5.24848">
        <ele>1202.3</ele>
        <time>2024-07-02T09:07:02Z</time>
      </trkpt>
      <trkpt lat="44.8812" lon="5.24849">
        <ele>1202.2</ele>
        <time>2024-07-02T09:07:03Z</time>
      </trkpt>
      <trkpt lat="44.88119" lon="5.24851">
        <ele>1202.2</ele>
        <time>2024-07-02T09:07:04Z</time>
      </trkpt>
      <trkpt lat="44.88118" lon="5.24851">
        <ele>1202.2</ele>
        <time>2024-07-02T09:07:05Z</time>
      </trkpt>
      <trkpt lat="44.88117" lon="5.24853">
        <ele>1202.1</ele>
        <time>2024-07-02T09:07:06Z</time>
      </trkpt>
      <trkpt lat="44.88117" lon="5.24854">
        <ele>1202.1</ele>
        <time>2024-07-02T09:07:07Z</time>
      </trkpt>
      <trkpt lat="44.88116" lon="5.24855">
        <ele>1202.1</ele>
        <time>2024-07-02T09:07:08Z</time>
      </trkpt>
      <trkpt lat="44.88115" lon="5.24856">
        <ele>1202.1</ele>
        <time>2024-07-02T09:07:09Z</time>
      </trkpt>
      <trkpt lat="44.88115" lon="5.24857">
        <ele>1202</ele>
        <time>2024-07-02T09:07:10Z</time>
      </trkpt>
      <trkpt lat="44.88114" lon="5.24859">
        <ele>1202</ele>
        <time>2024-07-02T09:07:11Z</time>
      </trkpt>
      <trkpt lat="44.88113" lon="5.2486">
        <ele>1202</ele>
        <time>2024-07-02T09:07:12Z</time>
      </trkpt>
      <trkpt lat="44.88113" lon="5.24861">
        <ele>1202</ele>
        <time>2024-07-02T09:07:13Z</time>
      </trkpt>
      <trkpt lat="44.88112" lon="5.24862">
        <ele>1202</ele>
        <time>2024-07-02T09:07:14Z</time>
      </trkpt>
      <trkpt lat="44.88111" lon="5.24863">
        <ele>1201.9</ele>
        <time>2024-07-02T09:07:15Z</time>
      </trkpt>
      <trkpt lat="44.88111" lon="5.24864">
        <ele>1201.9</ele>
        <time>2024-07-02T09:07:16Z</time>
      </trkpt>
      <trkpt lat="44.8811" lon="5.24865">
        <ele>1201.9</ele>
        <time>2024-07-02T09:07:17Z</time>
      </trkpt>
      <trkpt lat="44.88109" lon="5.24867">
        <ele>1201.9</ele>
        <time>2024-07-02T09:07:18Z</time>
      </trkpt>
      <trkpt lat="44.88109" lon="5.24868">
        <ele>1201.9</ele>
        <time>2024-07-02T09:07:19Z</time>
      </trkpt>
      <trkpt lat="44.88108" lon="5.24869">
        <ele>1201.8</ele>
        <time>2024-07-02T09:07:20Z</time>
      </trkpt>
      <trkpt lat="44.88108" lon="5.24871">
        <ele>1201.8</ele>
        <time>2024-07-02T09:07:21Z</time>
      </trkpt>
      <trkpt lat="44.88107" lon="5.24872">
        <ele>1201.8</ele>
        <time>2024-07-02T09:07:22Z</time>
      </trkpt>
      <trkpt lat="44.88107" lon="5.24874">
        <ele>1201.8</ele>
        <time>2024-07-02T09:07:23Z</time>
      </trkpt>
      <trkpt lat="44.88106" lon="5.24875">
        <ele>1201.8</ele>
        <time>2024-07-02T09:07:24Z</time>
      </trkpt>
      <trkpt lat="44.88106" lon="5.24876">
        <ele>1201.8</ele>
        <time>2024-07-02T09:07:25Z</time>
      </trkpt>
      <trkpt lat="44.88105" lon="5.24877">
        <ele>1201.7</ele>
        <time>2024-07-02T09:07:26Z</time>
      </trkpt>
      <trkpt lat="44.88105" lon="5.24879">
        <ele>1201.7</ele>
        <time>2024-07-02T09:07:27Z</time>
      </trkpt>
      <trkpt lat="44.88104" lon="5.2488">
        <ele>1201.7</ele>
        <time>2024-07-02T09:07:28Z</time>
      </trkpt>
      <trkpt lat="44.88104" lon="5.24881">
        <ele>1201.7</ele>
        <time>2024-07-02T09:07:29Z</time>
      </trkpt>
      <trkpt lat="44.88104" lon="5.24883">
        <ele>1201.7</ele>
        <time>2024-07-02T09:07:30Z</time>
      </trkpt>
      <trkpt lat="44.88104" lon="5.24885">
        <ele>1201.6</ele>
        <time>2024-07-02T09:07:31Z</time>
      </trkpt>
      <trkpt lat="44.88104" lon="5.24886">
        <ele>1201.6</ele>
        <time>2024-07-02T09:07:32Z</time>
      </trkpt>
      <trkpt lat="44.88104" lon="5.24888">
        <ele>1201.6</ele>
        <time>2024-07-02T09:07:33Z</time>
      </trkpt>
      <trkpt lat="44.88103" lon="5.24889">
        <ele>1201.6</ele>
        <time>2024-07-02T09:07:34Z</time>
      </trkpt>
      <trkpt lat="44.88102" lon="5.24891">
        <ele>1201.5</ele>
        <time>2024-07-02T09:07:35Z</time>
      </trkpt>
      <trkpt lat="44.88102" lon="5.24894">
        <ele>1201.5</ele>
        <time>2024-07-02T09:07:36Z</time>
      </trkpt>
      <trkpt lat="44.88102" lon="5.24895">
        <ele>1201.5</ele>
        <time>2024-07-02T09:07:37Z</time>
      </trkpt>
      <trkpt lat="44.88102" lon="5.24897">
        <ele>1201.4</ele>
        <time>2024-07-02T09:07:38Z</time>
      </trkpt>
      <trkpt lat="44.88102" lon="5.24898">
        <ele>1201.4</ele>
        <time>2024-07-02T09:07:39Z</time>
      </trkpt>
      <trkpt lat="44.88101" lon="5.249">
        <ele>1201.4</ele>
        <time>2024-07-02T09:07:40Z</time>
      </trkpt>
      <trkpt lat="44.88102" lon="5.249">
        <ele>1201.4</ele>
        <time>2024-07-02T09:07:41Z</time>
      </trkpt>
      <trkpt lat="44.88102" lon="5.249">
        <ele>1201.4</ele>
        <time>2024-07-02T09:07:42Z</time>
      </trkpt>
      <trkpt lat="44.88102" lon="5.249">
        <ele>1201.3</ele>
        <time>2024-07-02T09:07:43Z</time>
      </trkpt>
      <trkpt lat="44.88101" lon="5.24901">
        <ele>1201.3</ele>
        <time>2024-07-02T09:07:44Z</time>
      </trkpt>
      <trkpt lat="44.88101" lon="5.24901">
        <ele>1201.3</ele>
        <time>2024-07-02T09:07:45Z</time>
      </trkpt>
      <trkpt lat="44.88101" lon="5.24901">
        <ele>1201.3</ele>
        <time>2024-07-02T09:07:46Z</time>
      </trkpt>
      <trkpt lat="44.881" lon="5.24901">
        <ele>1201.3</ele>
        <time>2024-07-02T09:07:47Z</time>
      </trkpt>
      <trkpt lat="44.881" lon="5.24901">
        <ele>1201.3</ele>
        <time>2024-07-02T09:07:48Z</time>
      </trkpt>
      <trkpt lat="44.881" lon="5.24901">
        <ele>1201.3</ele>
        <time>2024-07-02T09:07:49Z</time>
      </trkpt>
      <trkpt lat="44.881" lon="5.24902">
        <ele>1201.3</ele>
        <time>2024-07-02T09:07:50Z</time>
      </trkpt>
      <trkpt lat="44.881" lon="5.24902">
        <ele>1201.3</ele>
        <time>2024-07-02T09:07:51Z</time>
      </trkpt>
      <trkpt lat="44.881" lon="5.24902">
        <ele>1201.3</ele>
        <time>2024-07-02T09:07:52Z</time>
      </trkpt>
      <trkpt lat="44.881" lon="5.24902">
        <ele>1201.3</ele>
        <time>2024-07-02T09:07:53Z</time>
      </trkpt>
      <trkpt lat="44.881" lon="5.24902">
        <ele>1201.3</ele>
        <time>2024-07-02T09:07:54Z</time>
      </trkpt>
      <trkpt lat="44.881" lon="5.24903">
        <ele>1201.3</ele>
        <time>2024-07-02T09:07:55Z</time>
      </trkpt>
      <trkpt lat="44.88099" lon="5.24904">
        <ele>1201.2</ele>
        <time>2024-07-02T09:07:56Z</time>
      </trkpt>
      <trkpt lat="44.88099" lon="5.24908">
        <ele>1201.2</ele>
        <time>2024-07-02T09:07:57Z</time>
      </trkpt>
      <trkpt lat="44.88098" lon="5.24912">
        <ele>1201.1</ele>
        <time>2024-07-02T09:07:58Z</time>
      </trkpt>
      <trkpt lat="44.88097" lon="5.24914">
        <ele>1201</ele>
        <time>2024-07-02T09:07:59Z</time>
      </trkpt>
      <trkpt lat="44.88097" lon="5.24917">
        <ele>1201</ele>
        <time>2024-07-02T09:08:00Z</time>
      </trkpt>
      <trkpt lat="44.88097" lon="5.24919">
        <ele>1200.9</ele>
        <time>2024-07-02T09:08:01Z</time>
      </trkpt>
      <trkpt lat="44.88096" lon="5.24922">
        <ele>1200.9</ele>
        <time>2024-07-02T09:08:02Z</time>
      </trkpt>
      <trkpt lat="44.88095" lon="5.24923">
        <ele>1200.8</ele>
        <time>2024-07-02T09:08:03Z</time>
      </trkpt>
      <trkpt lat="44.88094" lon="5.24925">
        <ele>1200.8</ele>
        <time>2024-07-02T09:08:04Z</time>
      </trkpt>
      <trkpt lat="44.88093" lon="5.24926">
        <ele>1200.8</ele>
        <time>2024-07-02T09:08:05Z</time>
      </trkpt>
      <trkpt lat="44.88093" lon="5.24928">
        <ele>1200.8</ele>
        <time>2024-07-02T09:08:06Z</time>
      </trkpt>
      <trkpt lat="44.88093" lon="5.24928">
        <ele>1200.8</ele>
        <time>2024-07-02T09:08:07Z</time>
      </trkpt>
      <trkpt lat="44.88091" lon="5.24931">
        <ele>1200.7</ele>
        <time>2024-07-02T09:08:08Z</time>
      </trkpt>
      <trkpt lat="44.8809" lon="5.24932">
        <ele>1200.7</ele>
        <time>2024-07-02T09:08:09Z</time>
      </trkpt>
      <trkpt lat="44.8809" lon="5.24933">
        <ele>1200.7</ele>
        <time>2024-07-02T09:08:10Z</time>
      </trkpt>
      <trkpt lat="44.88089" lon="5.24935">
        <ele>1200.7</ele>
        <time>2024-07-02T09:08:11Z</time>
      </trkpt>
      <trkpt lat="44.88088" lon="5.24936">
        <ele>1200.7</ele>
        <time>2024-07-02T09:08:12Z</time>
      </trkpt>
      <trkpt lat="44.88087" lon="5.24937">
        <ele>1200.7</ele>
        <time>2024-07-02T09:08:13Z</time>
      </trkpt>
      <trkpt lat="44.88086" lon="5.24938">
        <ele>1200.7</ele>
        <time>2024-07-02T09:08:14Z</time>
      </trkpt>
      <trkpt lat="44.88086" lon="5.2494">
        <ele>1200.7</ele>
        <time>2024-07-02T09:08:15Z</time>
      </trkpt>
      <trkpt lat="44.88085" lon="5.24944">
        <ele>1200.7</ele>
        <time>2024-07-02T09:08:17Z</time>
      </trkpt>
      <trkpt lat="44.88085" lon="5.24945">
        <ele>1200.7</ele>
        <time>2024-07-02T09:08:18Z</time>
      </trkpt>
      <trkpt lat="44.88083" lon="5.24946">
        <ele>1200.7</ele>
        <time>2024-07-02T09:08:19Z</time>
      </trkpt>
      <trkpt lat="44.88083" lon="5.24948">
        <ele>1200.8</ele>
        <time>2024-07-02T09:08:20Z</time>
      </trkpt>
      <trkpt lat="44.88082" lon="5.24951">
        <ele>1200.8</ele>
        <time>2024-07-02T09:08:21Z</time>
      </trkpt>
      <trkpt lat="44.88082" lon="5.24952">
        <ele>1200.8</ele>
        <time>2024-07-02T09:08:22Z</time>
      </trkpt>
      <trkpt lat="44.88081" lon="5.24952">
        <ele>1200.8</ele>
        <time>2024-07-02T09:08:23Z</time>
      </trkpt>
      <trkpt lat="44.8808" lon="5.24955">
        <ele>1200.9</ele>
        <time>2024-07-02T09:08:24Z</time>
      </trkpt>
      <trkpt lat="44.88079" lon="5.24956">
        <ele>1200.9</ele>
        <time>2024-07-02T09:08:25Z</time>
      </trkpt>
      <trkpt lat="44.88079" lon="5.24957">
        <ele>1200.9</ele>
        <time>2024-07-02T09:08:26Z</time>
      </trkpt>
      <trkpt lat="44.88078" lon="5.24958">
        <ele>1200.9</ele>
        <time>2024-07-02T09:08:27Z</time>
      </trkpt>
      <trkpt lat="44.88077" lon="5.24959">
        <ele>1200.9</ele>
        <time>2024-07-02T09:08:28Z</time>
      </trkpt>
      <trkpt lat="44.88077" lon="5.2496">
        <ele>1201</ele>
        <time>2024-07-02T09:08:29Z</time>
      </trkpt>
      <trkpt lat="44.88076" lon="5.24962">
        <ele>1201</ele>
        <time>2024-07-02T09:08:30Z</time>
      </trkpt>
      <trkpt lat="44.88075" lon="5.24963">
        <ele>1201</ele>
        <time>2024-07-02T09:08:31Z</time>
      </trkpt>
      <trkpt lat="44.88074" lon="5.24964">
        <ele>1201</ele>
        <time>2024-07-02T09:08:32Z</time>
      </trkpt>
      <trkpt lat="44.88073" lon="5.24965">
        <ele>1201.1</ele>
        <time>2024-07-02T09:08:33Z</time>
      </trkpt>
      <trkpt lat="44.88072" lon="5.24966">
        <ele>1201.1</ele>
        <time>2024-07-02T09:08:34Z</time>
      </trkpt>
      <trkpt lat="44.88072" lon="5.24968">
        <ele>1201.1</ele>
        <time>2024-07-02T09:08:35Z</time>
      </trkpt>
      <trkpt lat="44.88071" lon="5.24969">
        <ele>1201.1</ele>
        <time>2024-07-02T09:08:36Z</time>
      </trkpt>
      <trkpt lat="44.8807" lon="5.2497">
        <ele>1201.2</ele>
        <time>2024-07-02T09:08:37Z</time>
      </trkpt>
      <trkpt lat="44.88071" lon="5.2497">
        <ele>1201.2</ele>
        <time>2024-07-02T09:08:38Z</time>
      </trkpt>
      <trkpt lat="44.88071" lon="5.2497">
        <ele>1201.2</ele>
        <time>2024-07-02T09:08:39Z</time>
      </trkpt>
      <trkpt lat="44.88072" lon="5.24968">
        <ele>1201.2</ele>
        <time>2024-07-02T09:08:40Z</time>
      </trkpt>
      <trkpt lat="44.88073" lon="5.24967">
        <ele>1201.2</ele>
        <time>2024-07-02T09:08:41Z</time>
      </trkpt>
      <trkpt lat="44.88073" lon="5.24967">
        <ele>1201.2</ele>
        <time>2024-07-02T09:08:42Z</time>
      </trkpt>
      <trkpt lat="44.88074" lon="5.24966">
        <ele>1201.3</ele>
        <time>2024-07-02T09:08:43Z</time>
      </trkpt>
      <trkpt lat="44.88074" lon="5.24966">
        <ele>1201.3</ele>
        <time>2024-07-02T09:08:44Z</time>
      </trkpt>
      <trkpt lat="44.88074" lon="5.24967">
        <ele>1201.3</ele>
        <time>2024-07-02T09:08:45Z</time>
      </trkpt>
      <trkpt lat="44.88074" lon="5.24967">
        <ele>1201.3</ele>
        <time>2024-07-02T09:08:46Z</time>
      </trkpt>
      <trkpt lat="44.88074" lon="5.24968">
        <ele>1201.3</ele>
        <time>2024-07-02T09:08:47Z</time>
      </trkpt>
      <trkpt lat="44.88074" lon="5.24969">
        <ele>1201.3</ele>
        <time>2024-07-02T09:08:48Z</time>
      </trkpt>
      <trkpt lat="44.88073" lon="5.2497">
        <ele>1201.3</ele>
        <time>2024-07-02T09:08:49Z</time>
      </trkpt>
      <trkpt lat="44.88073" lon="5.2497">
        <ele>1201.3</ele>
        <time>2024-07-02T09:08:50Z</time>
      </trkpt>
      <trkpt lat="44.88073" lon="5.24971">
        <ele>1201.3</ele>
        <time>2024-07-02T09:08:51Z</time>
      </trkpt>
      <trkpt lat="44.88073" lon="5.24973">
        <ele>1201.4</ele>
        <time>2024-07-02T09:08:52Z</time>
      </trkpt>
      <trkpt lat="44.88073" lon="5.24975">
        <ele>1201.4</ele>
        <time>2024-07-02T09:08:53Z</time>
      </trkpt>
      <trkpt lat="44.88074" lon="5.24977">
        <ele>1201.4</ele>
        <time>2024-07-02T09:08:54Z</time>
      </trkpt>
      <trkpt lat="44.88074" lon="5.24979">
        <ele>1201.4</ele>
        <time>2024-07-02T09:08:55Z</time>
      </trkpt>
      <trkpt lat="44.88075" lon="5.24981">
        <ele>1201.5</ele>
        <time>2024-07-02T09:08:56Z</time>
      </trkpt>
      <trkpt lat="44.88076" lon="5.24982">
        <ele>1201.4</ele>
        <time>2024-07-02T09:08:57Z</time>
      </trkpt>
      <trkpt lat="44.88076" lon="5.24984">
        <ele>1201.3</ele>
        <time>2024-07-02T09:08:58Z</time>
      </trkpt>
      <trkpt lat="44.88077" lon="5.24986">
        <ele>1201.2</ele>
        <time>2024-07-02T09:08:59Z</time>
      </trkpt>
      <trkpt lat="44.88078" lon="5.24987">
        <ele>1201.1</ele>
        <time>2024-07-02T09:09:00Z</time>
      </trkpt>
      <trkpt lat="44.88078" lon="5.24988">
        <ele>1201.1</ele>
        <time>2024-07-02T09:09:01Z</time>
      </trkpt>
      <trkpt lat="44.8808" lon="5.24989">
        <ele>1200.9</ele>
        <time>2024-07-02T09:09:02Z</time>
      </trkpt>
      <trkpt lat="44.88081" lon="5.2499">
        <ele>1200.8</ele>
        <time>2024-07-02T09:09:03Z</time>
      </trkpt>
      <trkpt lat="44.88082" lon="5.24991">
        <ele>1200.8</ele>
        <time>2024-07-02T09:09:04Z</time>
      </trkpt>
      <trkpt lat="44.88084" lon="5.24992">
        <ele>1200.6</ele>
        <time>2024-07-02T09:09:05Z</time>
      </trkpt>
      <trkpt lat="44.88084" lon="5.24993">
        <ele>1200.6</ele>
        <time>2024-07-02T09:09:06Z</time>
      </trkpt>
      <trkpt lat="44.88085" lon="5.24994">
        <ele>1200.5</ele>
        <time>2024-07-02T09:09:07Z</time>
      </trkpt>
      <trkpt lat="44.88086" lon="5.24996">
        <ele>1200.4</ele>
        <time>2024-07-02T09:09:08Z</time>
      </trkpt>
      <trkpt lat="44.88087" lon="5.24997">
        <ele>1200.4</ele>
        <time>2024-07-02T09:09:09Z</time>
      </trkpt>
      <trkpt lat="44.88088" lon="5.24997">
        <ele>1200.4</ele>
        <time>2024-07-02T09:09:10Z</time>
      </trkpt>
      <trkpt lat="44.88089" lon="5.24999">
        <ele>1200.3</ele>
        <time>2024-07-02T09:09:11Z</time>
      </trkpt>
      <trkpt lat="44.8809" lon="5.25001">
        <ele>1200.2</ele>
        <time>2024-07-02T09:09:12Z</time>
      </trkpt>
      <trkpt lat="44.8809" lon="5.25002">
        <ele>1200.2</ele>
        <time>2024-07-02T09:09:13Z</time>
      </trkpt>
      <trkpt lat="44.88091" lon="5.25004">
        <ele>1200.1</ele>
        <time>2024-07-02T09:09:14Z</time>
      </trkpt>
      <trkpt lat="44.88092" lon="5.25006">
        <ele>1200</ele>
        <time>2024-07-02T09:09:15Z</time>
      </trkpt>
      <trkpt lat="44.88093" lon="5.25007">
        <ele>1200</ele>
        <time>2024-07-02T09:09:16Z</time>
      </trkpt>
      <trkpt lat="44.88093" lon="5.25008">
        <ele>1199.9</ele>
        <time>2024-07-02T09:09:17Z</time>
      </trkpt>
      <trkpt lat="44.88095" lon="5.25011">
        <ele>1199.9</ele>
        <time>2024-07-02T09:09:18Z</time>
      </trkpt>
      <trkpt lat="44.88095" lon="5.25012">
        <ele>1199.8</ele>
        <time>2024-07-02T09:09:19Z</time>
      </trkpt>
      <trkpt lat="44.88096" lon="5.25013">
        <ele>1199.8</ele>
        <time>2024-07-02T09:09:20Z</time>
      </trkpt>
      <trkpt lat="44.88097" lon="5.25015">
        <ele>1199.8</ele>
        <time>2024-07-02T09:09:21Z</time>
      </trkpt>
      <trkpt lat="44.88098" lon="5.25015">
        <ele>1199.7</ele>
        <time>2024-07-02T09:09:22Z</time>
      </trkpt>
      <trkpt lat="44.88099" lon="5.25016">
        <ele>1199.7</ele>
        <time>2024-07-02T09:09:23Z</time>
      </trkpt>
      <trkpt lat="44.881" lon="5.25017">
        <ele>1199.7</ele>
        <time>2024-07-02T09:09:24Z</time>
      </trkpt>
      <trkpt lat="44.88102" lon="5.25017">
        <ele>1199.6</ele>
        <time>2024-07-02T09:09:25Z</time>
      </trkpt>
      <trkpt lat="44.88104" lon="5.25018">
        <ele>1199.6</ele>
        <time>2024-07-02T09:09:26Z</time>
      </trkpt>
      <trkpt lat="44.88105" lon="5.25018">
        <ele>1199.6</ele>
        <time>2024-07-02T09:09:27Z</time>
      </trkpt>
      <trkpt lat="44.88106" lon="5.25018">
        <ele>1199.5</ele>
        <time>2024-07-02T09:09:28Z</time>
      </trkpt>
      <trkpt lat="44.88108" lon="5.25018">
        <ele>1199.5</ele>
        <time>2024-07-02T09:09:29Z</time>
      </trkpt>
      <trkpt lat="44.88108" lon="5.25018">
        <ele>1199.5</ele>
        <time>2024-07-02T09:09:30Z</time>
      </trkpt>
      <trkpt lat="44.88109" lon="5.25018">
        <ele>1199.4</ele>
        <time>2024-07-02T09:09:31Z</time>
      </trkpt>
      <trkpt lat="44.88111" lon="5.25019">
        <ele>1199.4</ele>
        <time>2024-07-02T09:09:32Z</time>
      </trkpt>
      <trkpt lat="44.88112" lon="5.25019">
        <ele>1199.4</ele>
        <time>2024-07-02T09:09:33Z</time>
      </trkpt>
      <trkpt lat="44.88113" lon="5.2502">
        <ele>1199.3</ele>
        <time>2024-07-02T09:09:34Z</time>
      </trkpt>
      <trkpt lat="44.88114" lon="5.2502">
        <ele>1199.3</ele>
        <time>2024-07-02T09:09:35Z</time>
      </trkpt>
      <trkpt lat="44.88115" lon="5.25021">
        <ele>1199.3</ele>
        <time>2024-07-02T09:09:36Z</time>
      </trkpt>
      <trkpt lat="44.88116" lon="5.25022">
        <ele>1199.2</ele>
        <time>2024-07-02T09:09:37Z</time>
      </trkpt>
      <trkpt lat="44.88117" lon="5.25022">
        <ele>1199.2</ele>
        <time>2024-07-02T09:09:38Z</time>
      </trkpt>
      <trkpt lat="44.88118" lon="5.25022">
        <ele>1199.1</ele>
        <time>2024-07-02T09:09:39Z</time>
      </trkpt>
      <trkpt lat="44.88119" lon="5.25023">
        <ele>1199.1</ele>
        <time>2024-07-02T09:09:40Z</time>
      </trkpt>
      <trkpt lat="44.8812" lon="5.25023">
        <ele>1199.1</ele>
        <time>2024-07-02T09:09:41Z</time>
      </trkpt>
      <trkpt lat="44.88121" lon="5.25023">
        <ele>1199</ele>
        <time>2024-07-02T09:09:42Z</time>
      </trkpt>
      <trkpt lat="44.88122" lon="5.25024">
        <ele>1199</ele>
        <time>2024-07-02T09:09:43Z</time>
      </trkpt>
      <trkpt lat="44.88124" lon="5.25024">
        <ele>1198.9</ele>
        <time>2024-07-02T09:09:44Z</time>
      </trkpt>
      <trkpt lat="44.88125" lon="5.25025">
        <ele>1198.9</ele>
        <time>2024-07-02T09:09:45Z</time>
      </trkpt>
      <trkpt lat="44.88126" lon="5.25025">
        <ele>1198.9</ele>
        <time>2024-07-02T09:09:46Z</time>
      </trkpt>
      <trkpt lat="44.88127" lon="5.25026">
        <ele>1198.8</ele>
        <time>2024-07-02T09:09:47Z</time>
      </trkpt>
      <trkpt lat="44.88128" lon="5.25027">
        <ele>1198.8</ele>
        <time>2024-07-02T09:09:48Z</time>
      </trkpt>
      <trkpt lat="44.88129" lon="5.25028">
        <ele>1198.7</ele>
        <time>2024-07-02T09:09:49Z</time>
      </trkpt>
      <trkpt lat="44.8813" lon="5.25028">
        <ele>1198.7</ele>
        <time>2024-07-02T09:09:50Z</time>
      </trkpt>
      <trkpt lat="44.88131" lon="5.25028">
        <ele>1198.7</ele>
        <time>2024-07-02T09:09:51Z</time>
      </trkpt>
      <trkpt lat="44.88132" lon="5.25028">
        <ele>1198.6</ele>
        <time>2024-07-02T09:09:52Z</time>
      </trkpt>
      <trkpt lat="44.88134" lon="5.25029">
        <ele>1198.5</ele>
        <time>2024-07-02T09:09:53Z</time>
      </trkpt>
      <trkpt lat="44.88134" lon="5.2503">
        <ele>1198.5</ele>
        <time>2024-07-02T09:09:54Z</time>
      </trkpt>
      <trkpt lat="44.88135" lon="5.2503">
        <ele>1198.5</ele>
        <time>2024-07-02T09:09:55Z</time>
      </trkpt>
      <trkpt lat="44.88136" lon="5.25031">
        <ele>1198.5</ele>
        <time>2024-07-02T09:09:56Z</time>
      </trkpt>
      <trkpt lat="44.88137" lon="5.25031">
        <ele>1198.4</ele>
        <time>2024-07-02T09:09:57Z</time>
      </trkpt>
      <trkpt lat="44.88138" lon="5.25032">
        <ele>1198.4</ele>
        <time>2024-07-02T09:09:58Z</time>
      </trkpt>
      <trkpt lat="44.88139" lon="5.25033">
        <ele>1198.3</ele>
        <time>2024-07-02T09:09:59Z</time>
      </trkpt>
      <trkpt lat="44.8814" lon="5.25033">
        <ele>1198.3</ele>
        <time>2024-07-02T09:10:00Z</time>
      </trkpt>
      <trkpt lat="44.88141" lon="5.25034">
        <ele>1198.3</ele>
        <time>2024-07-02T09:10:01Z</time>
      </trkpt>
      <trkpt lat="44.88142" lon="5.25034">
        <ele>1198.2</ele>
        <time>2024-07-02T09:10:02Z</time>
      </trkpt>
      <trkpt lat="44.88144" lon="5.25035">
        <ele>1198.2</ele>
        <time>2024-07-02T09:10:03Z</time>
      </trkpt>
      <trkpt lat="44.88144" lon="5.25036">
        <ele>1198.1</ele>
        <time>2024-07-02T09:10:04Z</time>
      </trkpt>
      <trkpt lat="44.88145" lon="5.25037">
        <ele>1198.1</ele>
        <time>2024-07-02T09:10:05Z</time>
      </trkpt>
      <trkpt lat="44.88146" lon="5.25037">
        <ele>1198.1</ele>
        <time>2024-07-02T09:10:06Z</time>
      </trkpt>
      <trkpt lat="44.88147" lon="5.25038">
        <ele>1198</ele>
        <time>2024-07-02T09:10:07Z</time>
      </trkpt>
      <trkpt lat="44.88149" lon="5.25039">
        <ele>1198</ele>
        <time>2024-07-02T09:10:08Z</time>
      </trkpt>
      <trkpt lat="44.8815" lon="5.25039">
        <ele>1197.9</ele>
        <time>2024-07-02T09:10:09Z</time>
      </trkpt>
      <trkpt lat="44.88151" lon="5.2504">
        <ele>1197.9</ele>
        <time>2024-07-02T09:10:10Z</time>
      </trkpt>
      <trkpt lat="44.88152" lon="5.25041">
        <ele>1197.8</ele>
        <time>2024-07-02T09:10:11Z</time>
      </trkpt>
      <trkpt lat="44.88153" lon="5.25042">
        <ele>1197.8</ele>
        <time>2024-07-02T09:10:12Z</time>
      </trkpt>
      <trkpt lat="44.88154" lon="5.25042">
        <ele>1197.8</ele>
        <time>2024-07-02T09:10:13Z</time>
      </trkpt>
      <trkpt lat="44.88155" lon="5.25044">
        <ele>1197.7</ele>
        <time>2024-07-02T09:10:14Z</time>
      </trkpt>
      <trkpt lat="44.88156" lon="5.25045">
        <ele>1197.7</ele>
        <time>2024-07-02T09:10:15Z</time>
      </trkpt>
      <trkpt lat="44.88157" lon="5.25045">
        <ele>1197.7</ele>
        <time>2024-07-02T09:10:16Z</time>
      </trkpt>
      <trkpt lat="44.88158" lon="5.25047">
        <ele>1197.6</ele>
        <time>2024-07-02T09:10:17Z</time>
      </trkpt>
      <trkpt lat="44.88159" lon="5.25048">
        <ele>1197.6</ele>
        <time>2024-07-02T09:10:18Z</time>
      </trkpt>
      <trkpt lat="44.8816" lon="5.25049">
        <ele>1197.6</ele>
        <time>2024-07-02T09:10:19Z</time>
      </trkpt>
      <trkpt lat="44.88161" lon="5.2505">
        <ele>1197.5</ele>
        <time>2024-07-02T09:10:20Z</time>
      </trkpt>
      <trkpt lat="44.88163" lon="5.25051">
        <ele>1197.5</ele>
        <time>2024-07-02T09:10:21Z</time>
      </trkpt>
      <trkpt lat="44.88164" lon="5.25052">
        <ele>1197.5</ele>
        <time>2024-07-02T09:10:22Z</time>
      </trkpt>
      <trkpt lat="44.88166" lon="5.25054">
        <ele>1197.4</ele>
        <time>2024-07-02T09:10:23Z</time>
      </trkpt>
      <trkpt lat="44.88166" lon="5.25055">
        <ele>1197.4</ele>
        <time>2024-07-02T09:10:24Z</time>
      </trkpt>
      <trkpt lat="44.88167" lon="5.25055">
        <ele>1197.4</ele>
        <time>2024-07-02T09:10:25Z</time>
      </trkpt>
      <trkpt lat="44.88168" lon="5.25056">
        <ele>1197.3</ele>
        <time>2024-07-02T09:10:26Z</time>
      </trkpt>
      <trkpt lat="44.88169" lon="5.25057">
        <ele>1197.3</ele>
        <time>2024-07-02T09:10:27Z</time>
      </trkpt>
      <trkpt lat="44.8817" lon="5.25058">
        <ele>1197.3</ele>
        <time>2024-07-02T09:10:28Z</time>
      </trkpt>
      <trkpt lat="44.88172" lon="5.25059">
        <ele>1197.2</ele>
        <time>2024-07-02T09:10:29Z</time>
      </trkpt>
      <trkpt lat="44.88173" lon="5.2506">
        <ele>1197.2</ele>
        <time>2024-07-02T09:10:30Z</time>
      </trkpt>
      <trkpt lat="44.88174" lon="5.2506">
        <ele>1197.2</ele>
        <time>2024-07-02T09:10:31Z</time>
      </trkpt>
      <trkpt lat="44.88176" lon="5.25062">
        <ele>1197.1</ele>
        <time>2024-07-02T09:10:32Z</time>
      </trkpt>
      <trkpt lat="44.88176" lon="5.25062">
        <ele>1197.1</ele>
        <time>2024-07-02T09:10:33Z</time>
      </trkpt>
      <trkpt lat="44.88177" lon="5.25063">
        <ele>1197.1</ele>
        <time>2024-07-02T09:10:34Z</time>
      </trkpt>
      <trkpt lat="44.88178" lon="5.25063">
        <ele>1197</ele>
        <time>2024-07-02T09:10:35Z</time>
      </trkpt>
      <trkpt lat="44.88179" lon="5.25064">
        <ele>1197</ele>
        <time>2024-07-02T09:10:36Z</time>
      </trkpt>
      <trkpt lat="44.8818" lon="5.25065">
        <ele>1196.9</ele>
        <time>2024-07-02T09:10:37Z</time>
      </trkpt>
      <trkpt lat="44.88182" lon="5.25066">
        <ele>1196.9</ele>
        <time>2024-07-02T09:10:38Z</time>
      </trkpt>
      <trkpt lat="44.88183" lon="5.25067">
        <ele>1196.8</ele>
        <time>2024-07-02T09:10:39Z</time>
      </trkpt>
      <trkpt lat="44.88185" lon="5.25068">
        <ele>1196.7</ele>
        <time>2024-07-02T09:10:40Z</time>
      </trkpt>
      <trkpt lat="44.88186" lon="5.25068">
        <ele>1196.7</ele>
        <time>2024-07-02T09:10:41Z</time>
      </trkpt>
      <trkpt lat="44.88187" lon="5.2507">
        <ele>1196.6</ele>
        <time>2024-07-02T09:10:42Z</time>
      </trkpt>
      <trkpt lat="44.88188" lon="5.25071">
        <ele>1196.5</ele>
        <time>2024-07-02T09:10:43Z</time>
      </trkpt>
      <trkpt lat="44.8819" lon="5.25072">
        <ele>1196.5</ele>
        <time>2024-07-02T09:10:44Z</time>
      </trkpt>
      <trkpt lat="44.88191" lon="5.25073">
        <ele>1196.4</ele>
        <time>2024-07-02T09:10:45Z</time>
      </trkpt>
      <trkpt lat="44.88193" lon="5.25075">
        <ele>1196.3</ele>
        <time>2024-07-02T09:10:46Z</time>
      </trkpt>
      <trkpt lat="44.88193" lon="5.25076">
        <ele>1196.3</ele>
        <time>2024-07-02T09:10:47Z</time>
      </trkpt>
      <trkpt lat="44.88194" lon="5.25076">
        <ele>1196.2</ele>
        <time>2024-07-02T09:10:48Z</time>
      </trkpt>
      <trkpt lat="44.88196" lon="5.25078">
        <ele>1196.1</ele>
        <time>2024-07-02T09:10:49Z</time>
      </trkpt>
      <trkpt lat="44.88196" lon="5.25079">
        <ele>1196.1</ele>
        <time>2024-07-02T09:10:50Z</time>
      </trkpt>
      <trkpt lat="44.88197" lon="5.25079">
        <ele>1196.1</ele>
        <time>2024-07-02T09:10:51Z</time>
      </trkpt>
      <trkpt lat="44.88199" lon="5.25081">
        <ele>1196</ele>
        <time>2024-07-02T09:10:52Z</time>
      </trkpt>
      <trkpt lat="44.882" lon="5.25081">
        <ele>1195.9</ele>
        <time>2024-07-02T09:10:53Z</time>
      </trkpt>
      <trkpt lat="44.88201" lon="5.25082">
        <ele>1195.9</ele>
        <time>2024-07-02T09:10:54Z</time>
      </trkpt>
      <trkpt lat="44.88202" lon="5.25083">
        <ele>1195.8</ele>
        <time>2024-07-02T09:10:55Z</time>
      </trkpt>
      <trkpt lat="44.88203" lon="5.25084">
        <ele>1195.7</ele>
        <time>2024-07-02T09:10:56Z</time>
      </trkpt>
      <trkpt lat="44.88204" lon="5.25084">
        <ele>1195.7</ele>
        <time>2024-07-02T09:10:57Z</time>
      </trkpt>
      <trkpt lat="44.88205" lon="5.25085">
        <ele>1195.6</ele>
        <time>2024-07-02T09:10:58Z</time>
      </trkpt>
      <trkpt lat="44.88206" lon="5.25086">
        <ele>1195.6</ele>
        <time>2024-07-02T09:10:59Z</time>
      </trkpt>
      <trkpt lat="44.88207" lon="5.25087">
        <ele>1195.5</ele>
        <time>2024-07-02T09:11:00Z</time>
      </trkpt>
      <trkpt lat="44.88209" lon="5.25088">
        <ele>1195.4</ele>
        <time>2024-07-02T09:11:01Z</time>
      </trkpt>
      <trkpt lat="44.8821" lon="5.25088">
        <ele>1195.3</ele>
        <time>2024-07-02T09:11:02Z</time>
      </trkpt>
      <trkpt lat="44.8821" lon="5.25089">
        <ele>1195.3</ele>
        <time>2024-07-02T09:11:03Z</time>
      </trkpt>
      <trkpt lat="44.88213" lon="5.2509">
        <ele>1195.2</ele>
        <time>2024-07-02T09:11:04Z</time>
      </trkpt>
      <trkpt lat="44.88213" lon="5.2509">
        <ele>1195.1</ele>
        <time>2024-07-02T09:11:05Z</time>
      </trkpt>
      <trkpt lat="44.88214" lon="5.25091">
        <ele>1195.1</ele>
        <time>2024-07-02T09:11:06Z</time>
      </trkpt>
      <trkpt lat="44.88216" lon="5.25092">
        <ele>1195</ele>
        <time>2024-07-02T09:11:07Z</time>
      </trkpt>
      <trkpt lat="44.88217" lon="5.25092">
        <ele>1194.9</ele>
        <time>2024-07-02T09:11:08Z</time>
      </trkpt>
      <trkpt lat="44.88218" lon="5.25093">
        <ele>1194.9</ele>
        <time>2024-07-02T09:11:09Z</time>
      </trkpt>
      <trkpt lat="44.88218" lon="5.25093">
        <ele>1194.8</ele>
        <time>2024-07-02T09:11:10Z</time>
      </trkpt>
      <trkpt lat="44.88219" lon="5.25094">
        <ele>1194.8</ele>
        <time>2024-07-02T09:11:11Z</time>
      </trkpt>
      <trkpt lat="44.88221" lon="5.25095">
        <ele>1194.7</ele>
        <time>2024-07-02T09:11:12Z</time>
      </trkpt>
      <trkpt lat="44.88222" lon="5.25095">
        <ele>1194.7</ele>
        <time>2024-07-02T09:11:13Z</time>
      </trkpt>
      <trkpt lat="44.88223" lon="5.25095">
        <ele>1194.6</ele>
        <time>2024-07-02T09:11:14Z</time>
      </trkpt>
      <trkpt lat="44.88224" lon="5.25096">
        <ele>1194.5</ele>
        <time>2024-07-02T09:11:15Z</time>
      </trkpt>
      <trkpt lat="44.88226" lon="5.25098">
        <ele>1194.4</ele>
        <time>2024-07-02T09:11:16Z</time>
      </trkpt>
      <trkpt lat="44.88226" lon="5.25098">
        <ele>1194.4</ele>
        <time>2024-07-02T09:11:17Z</time>
      </trkpt>
      <trkpt lat="44.88227" lon="5.25099">
        <ele>1194.3</ele>
        <time>2024-07-02T09:11:18Z</time>
      </trkpt>
      <trkpt lat="44.88228" lon="5.251">
        <ele>1194.3</ele>
        <time>2024-07-02T09:11:19Z</time>
      </trkpt>
      <trkpt lat="44.88229" lon="5.25102">
        <ele>1194.2</ele>
        <time>2024-07-02T09:11:20Z</time>
      </trkpt>
      <trkpt lat="44.88231" lon="5.25105">
        <ele>1194.1</ele>
        <time>2024-07-02T09:11:21Z</time>
      </trkpt>
      <trkpt lat="44.88232" lon="5.25105">
        <ele>1194</ele>
        <time>2024-07-02T09:11:22Z</time>
      </trkpt>
      <trkpt lat="44.88233" lon="5.25106">
        <ele>1194</ele>
        <time>2024-07-02T09:11:23Z</time>
      </trkpt>
      <trkpt lat="44.88235" lon="5.25107">
        <ele>1193.9</ele>
        <time>2024-07-02T09:11:24Z</time>
      </trkpt>
      <trkpt lat="44.88237" lon="5.25108">
        <ele>1193.8</ele>
        <time>2024-07-02T09:11:25Z</time>
      </trkpt>
      <trkpt lat="44.88237" lon="5.25108">
        <ele>1193.8</ele>
        <time>2024-07-02T09:11:26Z</time>
      </trkpt>
      <trkpt lat="44.88238" lon="5.25109">
        <ele>1193.7</ele>
        <time>2024-07-02T09:11:27Z</time>
      </trkpt>
      <trkpt lat="44.8824" lon="5.2511">
        <ele>1193.6</ele>
        <time>2024-07-02T09:11:28Z</time>
      </trkpt>
      <trkpt lat="44.88241" lon="5.2511">
        <ele>1193.6</ele>
        <time>2024-07-02T09:11:29Z</time>
      </trkpt>
      <trkpt lat="44.88242" lon="5.2511">
        <ele>1193.5</ele>
        <time>2024-07-02T09:11:30Z</time>
      </trkpt>
      <trkpt lat="44.88243" lon="5.25112">
        <ele>1193.4</ele>
        <time>2024-07-02T09:11:31Z</time>
      </trkpt>
      <trkpt lat="44.88244" lon="5.25112">
        <ele>1193.4</ele>
        <time>2024-07-02T09:11:32Z</time>
      </trkpt>
      <trkpt lat="44.88245" lon="5.25113">
        <ele>1193.4</ele>
        <time>2024-07-02T09:11:33Z</time>
      </trkpt>
      <trkpt lat="44.88246" lon="5.25115">
        <ele>1193.3</ele>
        <time>2024-07-02T09:11:34Z</time>
      </trkpt>
      <trkpt lat="44.88247" lon="5.25116">
        <ele>1193.2</ele>
        <time>2024-07-02T09:11:35Z</time>
      </trkpt>
      <trkpt lat="44.88248" lon="5.25117">
        <ele>1193.2</ele>
        <time>2024-07-02T09:11:36Z</time>
      </trkpt>
      <trkpt lat="44.88249" lon="5.25118">
        <ele>1193.1</ele>
        <time>2024-07-02T09:11:37Z</time>
      </trkpt>
      <trkpt lat="44.8825" lon="5.25119">
        <ele>1193</ele>
        <time>2024-07-02T09:11:38Z</time>
      </trkpt>
      <trkpt lat="44.8825" lon="5.2512">
        <ele>1193</ele>
        <time>2024-07-02T09:11:39Z</time>
      </trkpt>
      <trkpt lat="44.88252" lon="5.25121">
        <ele>1192.9</ele>
        <time>2024-07-02T09:11:40Z</time>
      </trkpt>
      <trkpt lat="44.88253" lon="5.25123">
        <ele>1192.8</ele>
        <time>2024-07-02T09:11:41Z</time>
      </trkpt>
      <trkpt lat="44.88255" lon="5.25124">
        <ele>1192.7</ele>
        <time>2024-07-02T09:11:42Z</time>
      </trkpt>
      <trkpt lat="44.88255" lon="5.25125">
        <ele>1192.7</ele>
        <time>2024-07-02T09:11:43Z</time>
      </trkpt>
      <trkpt lat="44.88256" lon="5.25126">
        <ele>1192.6</ele>
        <time>2024-07-02T09:11:44Z</time>
      </trkpt>
      <trkpt lat="44.88257" lon="5.25127">
        <ele>1192.6</ele>
        <time>2024-07-02T09:11:45Z</time>
      </trkpt>
      <trkpt lat="44.88257" lon="5.25127">
        <ele>1192.5</ele>
        <time>2024-07-02T09:11:46Z</time>
      </trkpt>
      <trkpt lat="44.88258" lon="5.25128">
        <ele>1192.5</ele>
        <time>2024-07-02T09:11:47Z</time>
      </trkpt>
      <trkpt lat="44.88258" lon="5.25128">
        <ele>1192.5</ele>
        <time>2024-07-02T09:11:48Z</time>
      </trkpt>
      <trkpt lat="44.88258" lon="5.25128">
        <ele>1192.5</ele>
        <time>2024-07-02T09:11:49Z</time>
      </trkpt>
      <trkpt lat="44.88258" lon="5.25129">
        <ele>1192.5</ele>
        <time>2024-07-02T09:11:50Z</time>
      </trkpt>
      <trkpt lat="44.88258" lon="5.25129">
        <ele>1192.5</ele>
        <time>2024-07-02T09:11:51Z</time>
      </trkpt>
      <trkpt lat="44.88259" lon="5.25129">
        <ele>1192.4</ele>
        <time>2024-07-02T09:11:52Z</time>
      </trkpt>
      <trkpt lat="44.88259" lon="5.2513">
        <ele>1192.4</ele>
        <time>2024-07-02T09:11:53Z</time>
      </trkpt>
      <trkpt lat="44.88259" lon="5.25131">
        <ele>1192.4</ele>
        <time>2024-07-02T09:11:54Z</time>
      </trkpt>
      <trkpt lat="44.8826" lon="5.25131">
        <ele>1192.3</ele>
        <time>2024-07-02T09:11:55Z</time>
      </trkpt>
      <trkpt lat="44.88261" lon="5.25132">
        <ele>1192.2</ele>
        <time>2024-07-02T09:11:56Z</time>
      </trkpt>
      <trkpt lat="44.88263" lon="5.25134">
        <ele>1192.1</ele>
        <time>2024-07-02T09:11:57Z</time>
      </trkpt>
      <trkpt lat="44.88264" lon="5.25134">
        <ele>1192.1</ele>
        <time>2024-07-02T09:11:58Z</time>
      </trkpt>
      <trkpt lat="44.88265" lon="5.25135">
        <ele>1192</ele>
        <time>2024-07-02T09:11:59Z</time>
      </trkpt>
      <trkpt lat="44.88266" lon="5.25135">
        <ele>1192</ele>
        <time>2024-07-02T09:12:00Z</time>
      </trkpt>
      <trkpt lat="44.88266" lon="5.25136">
        <ele>1191.9</ele>
        <time>2024-07-02T09:12:01Z</time>
      </trkpt>
      <trkpt lat="44.88267" lon="5.25137">
        <ele>1191.8</ele>
        <time>2024-07-02T09:12:02Z</time>
      </trkpt>
      <trkpt lat="44.88268" lon="5.25138">
        <ele>1191.7</ele>
        <time>2024-07-02T09:12:03Z</time>
      </trkpt>
      <trkpt lat="44.88269" lon="5.25138">
        <ele>1191.7</ele>
        <time>2024-07-02T09:12:04Z</time>
      </trkpt>
      <trkpt lat="44.8827" lon="5.25139">
        <ele>1191.6</ele>
        <time>2024-07-02T09:12:05Z</time>
      </trkpt>
      <trkpt lat="44.88271" lon="5.25141">
        <ele>1191.5</ele>
        <time>2024-07-02T09:12:06Z</time>
      </trkpt>
      <trkpt lat="44.88272" lon="5.25142">
        <ele>1191.5</ele>
        <time>2024-07-02T09:12:07Z</time>
      </trkpt>
      <trkpt lat="44.88273" lon="5.25142">
        <ele>1191.4</ele>
        <time>2024-07-02T09:12:08Z</time>
      </trkpt>
      <trkpt lat="44.88273" lon="5.25144">
        <ele>1191.3</ele>
        <time>2024-07-02T09:12:09Z</time>
      </trkpt>
      <trkpt lat="44.88273" lon="5.25145">
        <ele>1191.2</ele>
        <time>2024-07-02T09:12:10Z</time>
      </trkpt>
      <trkpt lat="44.88274" lon="5.25146">
        <ele>1191.2</ele>
        <time>2024-07-02T09:12:11Z</time>
      </trkpt>
      <trkpt lat="44.88275" lon="5.25145">
        <ele>1191.1</ele>
        <time>2024-07-02T09:12:12Z</time>
      </trkpt>
      <trkpt lat="44.88276" lon="5.25145">
        <ele>1191.1</ele>
        <time>2024-07-02T09:12:13Z</time>
      </trkpt>
      <trkpt lat="44.88277" lon="5.25145">
        <ele>1191</ele>
        <time>2024-07-02T09:12:14Z</time>
      </trkpt>
      <trkpt lat="44.88278" lon="5.25146">
        <ele>1190.9</ele>
        <time>2024-07-02T09:12:15Z</time>
      </trkpt>
      <trkpt lat="44.8828" lon="5.25148">
        <ele>1190.7</ele>
        <time>2024-07-02T09:12:16Z</time>
      </trkpt>
      <trkpt lat="44.8828" lon="5.25149">
        <ele>1190.7</ele>
        <time>2024-07-02T09:12:17Z</time>
      </trkpt>
      <trkpt lat="44.88281" lon="5.2515">
        <ele>1190.6</ele>
        <time>2024-07-02T09:12:18Z</time>
      </trkpt>
      <trkpt lat="44.88282" lon="5.25151">
        <ele>1190.6</ele>
        <time>2024-07-02T09:12:19Z</time>
      </trkpt>
      <trkpt lat="44.88283" lon="5.25152">
        <ele>1190.5</ele>
        <time>2024-07-02T09:12:20Z</time>
      </trkpt>
      <trkpt lat="44.88284" lon="5.25152">
        <ele>1190.4</ele>
        <time>2024-07-02T09:12:21Z</time>
      </trkpt>
      <trkpt lat="44.88285" lon="5.25153">
        <ele>1190.3</ele>
        <time>2024-07-02T09:12:22Z</time>
      </trkpt>
      <trkpt lat="44.88285" lon="5.25154">
        <ele>1190.3</ele>
        <time>2024-07-02T09:12:23Z</time>
      </trkpt>
      <trkpt lat="44.88286" lon="5.25155">
        <ele>1190.2</ele>
        <time>2024-07-02T09:12:24Z</time>
      </trkpt>
      <trkpt lat="44.88287" lon="5.25155">
        <ele>1190.1</ele>
        <time>2024-07-02T09:12:25Z</time>
      </trkpt>
      <trkpt lat="44.88288" lon="5.25156">
        <ele>1190</ele>
        <time>2024-07-02T09:12:26Z</time>
      </trkpt>
      <trkpt lat="44.88289" lon="5.25157">
        <ele>1190</ele>
        <time>2024-07-02T09:12:27Z</time>
      </trkpt>
      <trkpt lat="44.88291" lon="5.25158">
        <ele>1189.8</ele>
        <time>2024-07-02T09:12:28Z</time>
      </trkpt>
      <trkpt lat="44.88292" lon="5.25159">
        <ele>1189.8</ele>
        <time>2024-07-02T09:12:29Z</time>
      </trkpt>
      <trkpt lat="44.88292" lon="5.25159">
        <ele>1189.8</ele>
        <time>2024-07-02T09:12:30Z</time>
      </trkpt>
      <trkpt lat="44.88293" lon="5.2516">
        <ele>1189.7</ele>
        <time>2024-07-02T09:12:31Z</time>
      </trkpt>
      <trkpt lat="44.88294" lon="5.25161">
        <ele>1189.6</ele>
        <time>2024-07-02T09:12:32Z</time>
      </trkpt>
      <trkpt lat="44.88295" lon="5.25162">
        <ele>1189.5</ele>
        <time>2024-07-02T09:12:33Z</time>
      </trkpt>
      <trkpt lat="44.88296" lon="5.25163">
        <ele>1189.5</ele>
        <time>2024-07-02T09:12:34Z</time>
      </trkpt>
      <trkpt lat="44.88297" lon="5.25164">
        <ele>1189.4</ele>
        <time>2024-07-02T09:12:35Z</time>
      </trkpt>
      <trkpt lat="44.88298" lon="5.25165">
        <ele>1189.3</ele>
        <time>2024-07-02T09:12:36Z</time>
      </trkpt>
      <trkpt lat="44.88299" lon="5.25165">
        <ele>1189.3</ele>
        <time>2024-07-02T09:12:37Z</time>
      </trkpt>
      <trkpt lat="44.883" lon="5.25166">
        <ele>1189.2</ele>
        <time>2024-07-02T09:12:38Z</time>
      </trkpt>
      <trkpt lat="44.88301" lon="5.25167">
        <ele>1189.2</ele>
        <time>2024-07-02T09:12:39Z</time>
      </trkpt>
      <trkpt lat="44.88302" lon="5.25168">
        <ele>1189.1</ele>
        <time>2024-07-02T09:12:40Z</time>
      </trkpt>
      <trkpt lat="44.88303" lon="5.25169">
        <ele>1189</ele>
        <time>2024-07-02T09:12:41Z</time>
      </trkpt>
      <trkpt lat="44.88304" lon="5.25169">
        <ele>1189</ele>
        <time>2024-07-02T09:12:42Z</time>
      </trkpt>
      <trkpt lat="44.88305" lon="5.2517">
        <ele>1188.9</ele>
        <time>2024-07-02T09:12:43Z</time>
      </trkpt>
      <trkpt lat="44.88306" lon="5.25171">
        <ele>1188.8</ele>
        <time>2024-07-02T09:12:44Z</time>
      </trkpt>
      <trkpt lat="44.88307" lon="5.25171">
        <ele>1188.8</ele>
        <time>2024-07-02T09:12:45Z</time>
      </trkpt>
      <trkpt lat="44.88309" lon="5.25173">
        <ele>1188.6</ele>
        <time>2024-07-02T09:12:46Z</time>
      </trkpt>
      <trkpt lat="44.8831" lon="5.25174">
        <ele>1188.6</ele>
        <time>2024-07-02T09:12:47Z</time>
      </trkpt>
      <trkpt lat="44.8831" lon="5.25174">
        <ele>1188.5</ele>
        <time>2024-07-02T09:12:48Z</time>
      </trkpt>
      <trkpt lat="44.88311" lon="5.25175">
        <ele>1188.5</ele>
        <time>2024-07-02T09:12:49Z</time>
      </trkpt>
      <trkpt lat="44.88312" lon="5.25176">
        <ele>1188.4</ele>
        <time>2024-07-02T09:12:50Z</time>
      </trkpt>
      <trkpt lat="44.88313" lon="5.25177">
        <ele>1188.4</ele>
        <time>2024-07-02T09:12:51Z</time>
      </trkpt>
      <trkpt lat="44.88314" lon="5.25177">
        <ele>1188.3</ele>
        <time>2024-07-02T09:12:52Z</time>
      </trkpt>
      <trkpt lat="44.88316" lon="5.25178">
        <ele>1188.2</ele>
        <time>2024-07-02T09:12:53Z</time>
      </trkpt>
      <trkpt lat="44.88317" lon="5.25179">
        <ele>1188.2</ele>
        <time>2024-07-02T09:12:54Z</time>
      </trkpt>
      <trkpt lat="44.88318" lon="5.25179">
        <ele>1188.1</ele>
        <time>2024-07-02T09:12:55Z</time>
      </trkpt>
      <trkpt lat="44.88319" lon="5.2518">
        <ele>1188</ele>
        <time>2024-07-02T09:12:56Z</time>
      </trkpt>
      <trkpt lat="44.88321" lon="5.25181">
        <ele>1187.9</ele>
        <time>2024-07-02T09:12:57Z</time>
      </trkpt>
      <trkpt lat="44.88322" lon="5.25182">
        <ele>1187.9</ele>
        <time>2024-07-02T09:12:58Z</time>
      </trkpt>
      <trkpt lat="44.88323" lon="5.25183">
        <ele>1187.8</ele>
        <time>2024-07-02T09:12:59Z</time>
      </trkpt>
      <trkpt lat="44.88324" lon="5.25184">
        <ele>1187.7</ele>
        <time>2024-07-02T09:13:00Z</time>
      </trkpt>
      <trkpt lat="44.88326" lon="5.25185">
        <ele>1187.6</ele>
        <time>2024-07-02T09:13:01Z</time>
      </trkpt>
      <trkpt lat="44.88327" lon="5.25186">
        <ele>1187.6</ele>
        <time>2024-07-02T09:13:02Z</time>
      </trkpt>
      <trkpt lat="44.88327" lon="5.25187">
        <ele>1187.5</ele>
        <time>2024-07-02T09:13:03Z</time>
      </trkpt>
      <trkpt lat="44.88329" lon="5.25188">
        <ele>1187.4</ele>
        <time>2024-07-02T09:13:04Z</time>
      </trkpt>
      <trkpt lat="44.8833" lon="5.25189">
        <ele>1187.4</ele>
        <time>2024-07-02T09:13:05Z</time>
      </trkpt>
      <trkpt lat="44.88331" lon="5.25189">
        <ele>1187.3</ele>
        <time>2024-07-02T09:13:06Z</time>
      </trkpt>
      <trkpt lat="44.88332" lon="5.25191">
        <ele>1187.2</ele>
        <time>2024-07-02T09:13:07Z</time>
      </trkpt>
      <trkpt lat="44.88333" lon="5.25192">
        <ele>1187.2</ele>
        <time>2024-07-02T09:13:08Z</time>
      </trkpt>
      <trkpt lat="44.88333" lon="5.25193">
        <ele>1187.2</ele>
        <time>2024-07-02T09:13:09Z</time>
      </trkpt>
      <trkpt lat="44.88334" lon="5.25193">
        <ele>1187.1</ele>
        <time>2024-07-02T09:13:10Z</time>
      </trkpt>
      <trkpt lat="44.88335" lon="5.25194">
        <ele>1187.1</ele>
        <time>2024-07-02T09:13:11Z</time>
      </trkpt>
      <trkpt lat="44.88336" lon="5.25195">
        <ele>1187</ele>
        <time>2024-07-02T09:13:12Z</time>
      </trkpt>
      <trkpt lat="44.88338" lon="5.25196">
        <ele>1186.9</ele>
        <time>2024-07-02T09:13:13Z</time>
      </trkpt>
      <trkpt lat="44.88339" lon="5.25196">
        <ele>1186.9</ele>
        <time>2024-07-02T09:13:14Z</time>
      </trkpt>
      <trkpt lat="44.8834" lon="5.25197">
        <ele>1186.8</ele>
        <time>2024-07-02T09:13:15Z</time>
      </trkpt>
      <trkpt lat="44.88341" lon="5.25198">
        <ele>1186.8</ele>
        <time>2024-07-02T09:13:16Z</time>
      </trkpt>
      <trkpt lat="44.88342" lon="5.25199">
        <ele>1186.8</ele>
        <time>2024-07-02T09:13:17Z</time>
      </trkpt>
      <trkpt lat="44.88343" lon="5.25199">
        <ele>1186.7</ele>
        <time>2024-07-02T09:13:18Z</time>
      </trkpt>
      <trkpt lat="44.88345" lon="5.25201">
        <ele>1186.6</ele>
        <time>2024-07-02T09:13:19Z</time>
      </trkpt>
      <trkpt lat="44.88345" lon="5.25201">
        <ele>1186.6</ele>
        <time>2024-07-02T09:13:20Z</time>
      </trkpt>
      <trkpt lat="44.88346" lon="5.25201">
        <ele>1186.6</ele>
        <time>2024-07-02T09:13:21Z</time>
      </trkpt>
      <trkpt lat="44.88347" lon="5.25202">
        <ele>1186.6</ele>
        <time>2024-07-02T09:13:22Z</time>
      </trkpt>
      <trkpt lat="44.88348" lon="5.25203">
        <ele>1186.5</ele>
        <time>2024-07-02T09:13:23Z</time>
      </trkpt>
      <trkpt lat="44.88349" lon="5.25204">
        <ele>1186.5</ele>
        <time>2024-07-02T09:13:24Z</time>
      </trkpt>
      <trkpt lat="44.88351" lon="5.25205">
        <ele>1186.4</ele>
        <time>2024-07-02T09:13:25Z</time>
      </trkpt>
      <trkpt lat="44.88352" lon="5.25205">
        <ele>1186.4</ele>
        <time>2024-07-02T09:13:26Z</time>
      </trkpt>
      <trkpt lat="44.88352" lon="5.25206">
        <ele>1186.4</ele>
        <time>2024-07-02T09:13:27Z</time>
      </trkpt>
      <trkpt lat="44.88354" lon="5.25206">
        <ele>1186.3</ele>
        <time>2024-07-02T09:13:28Z</time>
      </trkpt>
      <trkpt lat="44.88355" lon="5.25207">
        <ele>1186.3</ele>
        <time>2024-07-02T09:13:29Z</time>
      </trkpt>
      <trkpt lat="44.88355" lon="5.25208">
        <ele>1186.2</ele>
        <time>2024-07-02T09:13:30Z</time>
      </trkpt>
      <trkpt lat="44.88357" lon="5.25209">
        <ele>1186.2</ele>
        <time>2024-07-02T09:13:31Z</time>
      </trkpt>
      <trkpt lat="44.88358" lon="5.2521">
        <ele>1186.2</ele>
        <time>2024-07-02T09:13:32Z</time>
      </trkpt>
      <trkpt lat="44.88359" lon="5.2521">
        <ele>1186.1</ele>
        <time>2024-07-02T09:13:33Z</time>
      </trkpt>
      <trkpt lat="44.8836" lon="5.25211">
        <ele>1186.1</ele>
        <time>2024-07-02T09:13:34Z</time>
      </trkpt>
      <trkpt lat="44.88361" lon="5.25211">
        <ele>1186</ele>
        <time>2024-07-02T09:13:35Z</time>
      </trkpt>
      <trkpt lat="44.88362" lon="5.25212">
        <ele>1186</ele>
        <time>2024-07-02T09:13:36Z</time>
      </trkpt>
      <trkpt lat="44.88364" lon="5.25212">
        <ele>1185.9</ele>
        <time>2024-07-02T09:13:37Z</time>
      </trkpt>
      <trkpt lat="44.88365" lon="5.25212">
        <ele>1185.9</ele>
        <time>2024-07-02T09:13:38Z</time>
      </trkpt>
      <trkpt lat="44.88366" lon="5.25213">
        <ele>1185.9</ele>
        <time>2024-07-02T09:13:39Z</time>
      </trkpt>
      <trkpt lat="44.88368" lon="5.25213">
        <ele>1185.8</ele>
        <time>2024-07-02T09:13:40Z</time>
      </trkpt>
      <trkpt lat="44.88369" lon="5.25213">
        <ele>1185.8</ele>
        <time>2024-07-02T09:13:41Z</time>
      </trkpt>
      <trkpt lat="44.8837" lon="5.25213">
        <ele>1185.7</ele>
        <time>2024-07-02T09:13:42Z</time>
      </trkpt>
      <trkpt lat="44.88372" lon="5.25214">
        <ele>1185.7</ele>
        <time>2024-07-02T09:13:43Z</time>
      </trkpt>
      <trkpt lat="44.88373" lon="5.25214">
        <ele>1185.6</ele>
        <time>2024-07-02T09:13:44Z</time>
      </trkpt>
      <trkpt lat="44.88373" lon="5.25214">
        <ele>1185.6</ele>
        <time>2024-07-02T09:13:45Z</time>
      </trkpt>
      <trkpt lat="44.88376" lon="5.25213">
        <ele>1185.5</ele>
        <time>2024-07-02T09:13:46Z</time>
      </trkpt>
      <trkpt lat="44.88376" lon="5.25213">
        <ele>1185.5</ele>
        <time>2024-07-02T09:13:47Z</time>
      </trkpt>
      <trkpt lat="44.88377" lon="5.25213">
        <ele>1185.4</ele>
        <time>2024-07-02T09:13:48Z</time>
      </trkpt>
      <trkpt lat="44.88378" lon="5.25212">
        <ele>1185.4</ele>
        <time>2024-07-02T09:13:49Z</time>
      </trkpt>
      <trkpt lat="44.88379" lon="5.25212">
        <ele>1185.3</ele>
        <time>2024-07-02T09:13:50Z</time>
      </trkpt>
      <trkpt lat="44.8838" lon="5.25212">
        <ele>1185.3</ele>
        <time>2024-07-02T09:13:51Z</time>
      </trkpt>
      <trkpt lat="44.88382" lon="5.25211">
        <ele>1185.2</ele>
        <time>2024-07-02T09:13:52Z</time>
      </trkpt>
      <trkpt lat="44.88383" lon="5.25212">
        <ele>1185.1</ele>
        <time>2024-07-02T09:13:53Z</time>
      </trkpt>
      <trkpt lat="44.88384" lon="5.25212">
        <ele>1185.1</ele>
        <time>2024-07-02T09:13:54Z</time>
      </trkpt>
      <trkpt lat="44.88385" lon="5.25212">
        <ele>1185</ele>
        <time>2024-07-02T09:13:55Z</time>
      </trkpt>
      <trkpt lat="44.88387" lon="5.25212">
        <ele>1184.9</ele>
        <time>2024-07-02T09:13:56Z</time>
      </trkpt>
      <trkpt lat="44.88389" lon="5.25212">
        <ele>1184.8</ele>
        <time>2024-07-02T09:13:57Z</time>
      </trkpt>
      <trkpt lat="44.8839" lon="5.25212">
        <ele>1184.8</ele>
        <time>2024-07-02T09:13:58Z</time>
      </trkpt>
      <trkpt lat="44.88391" lon="5.25212">
        <ele>1184.7</ele>
        <time>2024-07-02T09:13:59Z</time>
      </trkpt>
      <trkpt lat="44.88393" lon="5.25211">
        <ele>1184.6</ele>
        <time>2024-07-02T09:14:00Z</time>
      </trkpt>
      <trkpt lat="44.88393" lon="5.2521">
        <ele>1184.5</ele>
        <time>2024-07-02T09:14:01Z</time>
      </trkpt>
      <trkpt lat="44.88394" lon="5.2521">
        <ele>1184.5</ele>
        <time>2024-07-02T09:14:02Z</time>
      </trkpt>
      <trkpt lat="44.88395" lon="5.25209">
        <ele>1184.4</ele>
        <time>2024-07-02T09:14:03Z</time>
      </trkpt>
      <trkpt lat="44.88396" lon="5.25208">
        <ele>1184.3</ele>
        <time>2024-07-02T09:14:04Z</time>
      </trkpt>
      <trkpt lat="44.88397" lon="5.25207">
        <ele>1184.2</ele>
        <time>2024-07-02T09:14:05Z</time>
      </trkpt>
      <trkpt lat="44.88398" lon="5.25206">
        <ele>1184.2</ele>
        <time>2024-07-02T09:14:06Z</time>
      </trkpt>
      <trkpt lat="44.88399" lon="5.25206">
        <ele>1184.1</ele>
        <time>2024-07-02T09:14:07Z</time>
      </trkpt>
      <trkpt lat="44.884" lon="5.25205">
        <ele>1184</ele>
        <time>2024-07-02T09:14:08Z</time>
      </trkpt>
      <trkpt lat="44.88402" lon="5.25204">
        <ele>1183.9</ele>
        <time>2024-07-02T09:14:09Z</time>
      </trkpt>
      <trkpt lat="44.88402" lon="5.25204">
        <ele>1183.8</ele>
        <time>2024-07-02T09:14:10Z</time>
      </trkpt>
      <trkpt lat="44.88403" lon="5.25203">
        <ele>1183.8</ele>
        <time>2024-07-02T09:14:11Z</time>
      </trkpt>
      <trkpt lat="44.88405" lon="5.25202">
        <ele>1183.6</ele>
        <time>2024-07-02T09:14:12Z</time>
      </trkpt>
      <trkpt lat="44.88406" lon="5.25201">
        <ele>1183.5</ele>
        <time>2024-07-02T09:14:13Z</time>
      </trkpt>
      <trkpt lat="44.88406" lon="5.252">
        <ele>1183.5</ele>
        <time>2024-07-02T09:14:14Z</time>
      </trkpt>
      <trkpt lat="44.88408" lon="5.25198">
        <ele>1183.3</ele>
        <time>2024-07-02T09:14:15Z</time>
      </trkpt>
      <trkpt lat="44.88408" lon="5.25197">
        <ele>1183.2</ele>
        <time>2024-07-02T09:14:16Z</time>
      </trkpt>
      <trkpt lat="44.88409" lon="5.25196">
        <ele>1183.2</ele>
        <time>2024-07-02T09:14:17Z</time>
      </trkpt>
      <trkpt lat="44.8841" lon="5.25196">
        <ele>1183.1</ele>
        <time>2024-07-02T09:14:18Z</time>
      </trkpt>
      <trkpt lat="44.88411" lon="5.25195">
        <ele>1183</ele>
        <time>2024-07-02T09:14:19Z</time>
      </trkpt>
      <trkpt lat="44.88412" lon="5.25194">
        <ele>1182.9</ele>
        <time>2024-07-02T09:14:20Z</time>
      </trkpt>
      <trkpt lat="44.88413" lon="5.25193">
        <ele>1182.8</ele>
        <time>2024-07-02T09:14:21Z</time>
      </trkpt>
      <trkpt lat="44.88414" lon="5.25192">
        <ele>1182.7</ele>
        <time>2024-07-02T09:14:22Z</time>
      </trkpt>
      <trkpt lat="44.88414" lon="5.25191">
        <ele>1182.6</ele>
        <time>2024-07-02T09:14:23Z</time>
      </trkpt>
      <trkpt lat="44.88415" lon="5.2519">
        <ele>1182.5</ele>
        <time>2024-07-02T09:14:24Z</time>
      </trkpt>
      <trkpt lat="44.88416" lon="5.25189">
        <ele>1182.4</ele>
        <time>2024-07-02T09:14:25Z</time>
      </trkpt>
      <trkpt lat="44.88417" lon="5.25188">
        <ele>1182.3</ele>
        <time>2024-07-02T09:14:26Z</time>
      </trkpt>
      <trkpt lat="44.88418" lon="5.25187">
        <ele>1182.2</ele>
        <time>2024-07-02T09:14:27Z</time>
      </trkpt>
      <trkpt lat="44.88419" lon="5.25186">
        <ele>1182.1</ele>
        <time>2024-07-02T09:14:28Z</time>
      </trkpt>
      <trkpt lat="44.8842" lon="5.25185">
        <ele>1182</ele>
        <time>2024-07-02T09:14:29Z</time>
      </trkpt>
      <trkpt lat="44.88422" lon="5.25183">
        <ele>1181.8</ele>
        <time>2024-07-02T09:14:30Z</time>
      </trkpt>
      <trkpt lat="44.88422" lon="5.25183">
        <ele>1181.8</ele>
        <time>2024-07-02T09:14:31Z</time>
      </trkpt>
      <trkpt lat="44.88423" lon="5.25182">
        <ele>1181.7</ele>
        <time>2024-07-02T09:14:32Z</time>
      </trkpt>
      <trkpt lat="44.88424" lon="5.25181">
        <ele>1181.6</ele>
        <time>2024-07-02T09:14:33Z</time>
      </trkpt>
      <trkpt lat="44.88425" lon="5.25181">
        <ele>1181.5</ele>
        <time>2024-07-02T09:14:34Z</time>
      </trkpt>
      <trkpt lat="44.88426" lon="5.2518">
        <ele>1181.4</ele>
        <time>2024-07-02T09:14:35Z</time>
      </trkpt>
      <trkpt lat="44.88427" lon="5.2518">
        <ele>1181.3</ele>
        <time>2024-07-02T09:14:36Z</time>
      </trkpt>
      <trkpt lat="44.88428" lon="5.25179">
        <ele>1181.2</ele>
        <time>2024-07-02T09:14:37Z</time>
      </trkpt>
      <trkpt lat="44.8843" lon="5.25179">
        <ele>1181.1</ele>
        <time>2024-07-02T09:14:38Z</time>
      </trkpt>
      <trkpt lat="44.88431" lon="5.25178">
        <ele>1181</ele>
        <time>2024-07-02T09:14:39Z</time>
      </trkpt>
      <trkpt lat="44.88432" lon="5.25178">
        <ele>1180.9</ele>
        <time>2024-07-02T09:14:40Z</time>
      </trkpt>
      <trkpt lat="44.88433" lon="5.25178">
        <ele>1180.8</ele>
        <time>2024-07-02T09:14:41Z</time>
      </trkpt>
      <trkpt lat="44.88435" lon="5.25177">
        <ele>1180.6</ele>
        <time>2024-07-02T09:14:42Z</time>
      </trkpt>
      <trkpt lat="44.88436" lon="5.25177">
        <ele>1180.5</ele>
        <time>2024-07-02T09:14:43Z</time>
      </trkpt>
      <trkpt lat="44.88437" lon="5.25177">
        <ele>1180.4</ele>
        <time>2024-07-02T09:14:44Z</time>
      </trkpt>
      <trkpt lat="44.88438" lon="5.25177">
        <ele>1180.3</ele>
        <time>2024-07-02T09:14:45Z</time>
      </trkpt>
      <trkpt lat="44.88439" lon="5.25177">
        <ele>1180.2</ele>
        <time>2024-07-02T09:14:46Z</time>
      </trkpt>
      <trkpt lat="44.8844" lon="5.25176">
        <ele>1180.1</ele>
        <time>2024-07-02T09:14:47Z</time>
      </trkpt>
      <trkpt lat="44.88442" lon="5.25176">
        <ele>1179.9</ele>
        <time>2024-07-02T09:14:48Z</time>
      </trkpt>
      <trkpt lat="44.88443" lon="5.25176">
        <ele>1179.9</ele>
        <time>2024-07-02T09:14:49Z</time>
      </trkpt>
      <trkpt lat="44.88444" lon="5.25177">
        <ele>1179.8</ele>
        <time>2024-07-02T09:14:50Z</time>
      </trkpt>
      <trkpt lat="44.88446" lon="5.25177">
        <ele>1179.7</ele>
        <time>2024-07-02T09:14:51Z</time>
      </trkpt>
      <trkpt lat="44.88447" lon="5.25177">
        <ele>1179.6</ele>
        <time>2024-07-02T09:14:52Z</time>
      </trkpt>
      <trkpt lat="44.88449" lon="5.25177">
        <ele>1179.4</ele>
        <time>2024-07-02T09:14:53Z</time>
      </trkpt>
      <trkpt lat="44.8845" lon="5.25177">
        <ele>1179.3</ele>
        <time>2024-07-02T09:14:54Z</time>
      </trkpt>
      <trkpt lat="44.88451" lon="5.25178">
        <ele>1179.2</ele>
        <time>2024-07-02T09:14:55Z</time>
      </trkpt>
      <trkpt lat="44.88453" lon="5.25178">
        <ele>1179.1</ele>
        <time>2024-07-02T09:14:56Z</time>
      </trkpt>
      <trkpt lat="44.88454" lon="5.25178">
        <ele>1179</ele>
        <time>2024-07-02T09:14:57Z</time>
      </trkpt>
      <trkpt lat="44.88454" lon="5.25179">
        <ele>1179</ele>
        <time>2024-07-02T09:14:58Z</time>
      </trkpt>
      <trkpt lat="44.88455" lon="5.25179">
        <ele>1178.9</ele>
        <time>2024-07-02T09:14:59Z</time>
      </trkpt>
      <trkpt lat="44.88456" lon="5.2518">
        <ele>1178.9</ele>
        <time>2024-07-02T09:15:00Z</time>
      </trkpt>
      <trkpt lat="44.88457" lon="5.2518">
        <ele>1178.8</ele>
        <time>2024-07-02T09:15:01Z</time>
      </trkpt>
      <trkpt lat="44.88458" lon="5.25181">
        <ele>1178.7</ele>
        <time>2024-07-02T09:15:02Z</time>
      </trkpt>
      <trkpt lat="44.88459" lon="5.25181">
        <ele>1178.6</ele>
        <time>2024-07-02T09:15:03Z</time>
      </trkpt>
      <trkpt lat="44.8846" lon="5.25181">
        <ele>1178.5</ele>
        <time>2024-07-02T09:15:04Z</time>
      </trkpt>
      <trkpt lat="44.88461" lon="5.25181">
        <ele>1178.5</ele>
        <time>2024-07-02T09:15:05Z</time>
      </trkpt>
      <trkpt lat="44.88463" lon="5.25182">
        <ele>1178.3</ele>
        <time>2024-07-02T09:15:06Z</time>
      </trkpt>
      <trkpt lat="44.88464" lon="5.25182">
        <ele>1178.3</ele>
        <time>2024-07-02T09:15:07Z</time>
      </trkpt>
      <trkpt lat="44.88465" lon="5.25182">
        <ele>1178.2</ele>
        <time>2024-07-02T09:15:08Z</time>
      </trkpt>
      <trkpt lat="44.88466" lon="5.25183">
        <ele>1178.1</ele>
        <time>2024-07-02T09:15:09Z</time>
      </trkpt>
      <trkpt lat="44.88467" lon="5.25183">
        <ele>1178.1</ele>
        <time>2024-07-02T09:15:10Z</time>
      </trkpt>
      <trkpt lat="44.88469" lon="5.25183">
        <ele>1178</ele>
        <time>2024-07-02T09:15:11Z</time>
      </trkpt>
      <trkpt lat="44.88471" lon="5.25183">
        <ele>1177.8</ele>
        <time>2024-07-02T09:15:12Z</time>
      </trkpt>
      <trkpt lat="44.88471" lon="5.25184">
        <ele>1177.8</ele>
        <time>2024-07-02T09:15:13Z</time>
      </trkpt>
      <trkpt lat="44.88472" lon="5.25184">
        <ele>1177.7</ele>
        <time>2024-07-02T09:15:14Z</time>
      </trkpt>
      <trkpt lat="44.88474" lon="5.25184">
        <ele>1177.6</ele>
        <time>2024-07-02T09:15:15Z</time>
      </trkpt>
      <trkpt lat="44.88475" lon="5.25185">
        <ele>1177.6</ele>
        <time>2024-07-02T09:15:16Z</time>
      </trkpt>
      <trkpt lat="44.88476" lon="5.25185">
        <ele>1177.5</ele>
        <time>2024-07-02T09:15:17Z</time>
      </trkpt>
      <trkpt lat="44.88477" lon="5.25185">
        <ele>1177.5</ele>
        <time>2024-07-02T09:15:18Z</time>
      </trkpt>
      <trkpt lat="44.88478" lon="5.25186">
        <ele>1177.4</ele>
        <time>2024-07-02T09:15:19Z</time>
      </trkpt>
      <trkpt lat="44.88479" lon="5.25186">
        <ele>1177.3</ele>
        <time>2024-07-02T09:15:20Z</time>
      </trkpt>
      <trkpt lat="44.88481" lon="5.25186">
        <ele>1177.2</ele>
        <time>2024-07-02T09:15:21Z</time>
      </trkpt>
      <trkpt lat="44.88482" lon="5.25187">
        <ele>1177.1</ele>
        <time>2024-07-02T09:15:22Z</time>
      </trkpt>
      <trkpt lat="44.88483" lon="5.25187">
        <ele>1177.1</ele>
        <time>2024-07-02T09:15:23Z</time>
      </trkpt>
      <trkpt lat="44.88485" lon="5.25187">
        <ele>1177</ele>
        <time>2024-07-02T09:15:24Z</time>
      </trkpt>
      <trkpt lat="44.88486" lon="5.25187">
        <ele>1176.9</ele>
        <time>2024-07-02T09:15:25Z</time>
      </trkpt>
      <trkpt lat="44.88487" lon="5.25188">
        <ele>1176.9</ele>
        <time>2024-07-02T09:15:26Z</time>
      </trkpt>
      <trkpt lat="44.88489" lon="5.25188">
        <ele>1176.7</ele>
        <time>2024-07-02T09:15:27Z</time>
      </trkpt>
      <trkpt lat="44.8849" lon="5.25188">
        <ele>1176.7</ele>
        <time>2024-07-02T09:15:28Z</time>
      </trkpt>
      <trkpt lat="44.8849" lon="5.25188">
        <ele>1176.6</ele>
        <time>2024-07-02T09:15:29Z</time>
      </trkpt>
      <trkpt lat="44.88492" lon="5.25189">
        <ele>1176.6</ele>
        <time>2024-07-02T09:15:30Z</time>
      </trkpt>
      <trkpt lat="44.88493" lon="5.25189">
        <ele>1176.5</ele>
        <time>2024-07-02T09:15:31Z</time>
      </trkpt>
      <trkpt lat="44.88494" lon="5.25189">
        <ele>1176.4</ele>
        <time>2024-07-02T09:15:32Z</time>
      </trkpt>
      <trkpt lat="44.88496" lon="5.25189">
        <ele>1176.3</ele>
        <time>2024-07-02T09:15:33Z</time>
      </trkpt>
      <trkpt lat="44.88497" lon="5.25189">
        <ele>1176.2</ele>
        <time>2024-07-02T09:15:34Z</time>
      </trkpt>
      <trkpt lat="44.88498" lon="5.25189">
        <ele>1176.2</ele>
        <time>2024-07-02T09:15:35Z</time>
      </trkpt>
      <trkpt lat="44.885" lon="5.25189">
        <ele>1176</ele>
        <time>2024-07-02T09:15:36Z</time>
      </trkpt>
      <trkpt lat="44.88501" lon="5.2519">
        <ele>1176</ele>
        <time>2024-07-02T09:15:37Z</time>
      </trkpt>
      <trkpt lat="44.88502" lon="5.2519">
        <ele>1175.9</ele>
        <time>2024-07-02T09:15:38Z</time>
      </trkpt>
      <trkpt lat="44.88504" lon="5.2519">
        <ele>1175.8</ele>
        <time>2024-07-02T09:15:39Z</time>
      </trkpt>
      <trkpt lat="44.88504" lon="5.2519">
        <ele>1175.8</ele>
        <time>2024-07-02T09:15:40Z</time>
      </trkpt>
      <trkpt lat="44.88505" lon="5.2519">
        <ele>1175.7</ele>
        <time>2024-07-02T09:15:41Z</time>
      </trkpt>
      <trkpt lat="44.88506" lon="5.2519">
        <ele>1175.6</ele>
        <time>2024-07-02T09:15:42Z</time>
      </trkpt>
      <trkpt lat="44.88507" lon="5.2519">
        <ele>1175.6</ele>
        <time>2024-07-02T09:15:43Z</time>
      </trkpt>
      <trkpt lat="44.88509" lon="5.2519">
        <ele>1175.5</ele>
        <time>2024-07-02T09:15:44Z</time>
      </trkpt>
      <trkpt lat="44.8851" lon="5.2519">
        <ele>1175.4</ele>
        <time>2024-07-02T09:15:45Z</time>
      </trkpt>
      <trkpt lat="44.88511" lon="5.2519">
        <ele>1175.4</ele>
        <time>2024-07-02T09:15:46Z</time>
      </trkpt>
      <trkpt lat="44.88512" lon="5.25191">
        <ele>1175.3</ele>
        <time>2024-07-02T09:15:47Z</time>
      </trkpt>
      <trkpt lat="44.88514" lon="5.25192">
        <ele>1175.2</ele>
        <time>2024-07-02T09:15:48Z</time>
      </trkpt>
      <trkpt lat="44.88515" lon="5.25192">
        <ele>1175.1</ele>
        <time>2024-07-02T09:15:49Z</time>
      </trkpt>
      <trkpt lat="44.88516" lon="5.25193">
        <ele>1175.1</ele>
        <time>2024-07-02T09:15:50Z</time>
      </trkpt>
      <trkpt lat="44.88518" lon="5.25194">
        <ele>1174.9</ele>
        <time>2024-07-02T09:15:51Z</time>
      </trkpt>
      <trkpt lat="44.88519" lon="5.25194">
        <ele>1174.9</ele>
        <time>2024-07-02T09:15:52Z</time>
      </trkpt>
      <trkpt lat="44.88519" lon="5.25194">
        <ele>1174.9</ele>
        <time>2024-07-02T09:15:53Z</time>
      </trkpt>
      <trkpt lat="44.88521" lon="5.25195">
        <ele>1174.8</ele>
        <time>2024-07-02T09:15:54Z</time>
      </trkpt>
      <trkpt lat="44.88522" lon="5.25195">
        <ele>1174.7</ele>
        <time>2024-07-02T09:15:55Z</time>
      </trkpt>
      <trkpt lat="44.88524" lon="5.25195">
        <ele>1174.6</ele>
        <time>2024-07-02T09:15:56Z</time>
      </trkpt>
      <trkpt lat="44.88525" lon="5.25195">
        <ele>1174.6</ele>
        <time>2024-07-02T09:15:57Z</time>
      </trkpt>
      <trkpt lat="44.88526" lon="5.25196">
        <ele>1174.5</ele>
        <time>2024-07-02T09:15:58Z</time>
      </trkpt>
      <trkpt lat="44.88528" lon="5.25196">
        <ele>1174.4</ele>
        <time>2024-07-02T09:15:59Z</time>
      </trkpt>
      <trkpt lat="44.88529" lon="5.25196">
        <ele>1174.4</ele>
        <time>2024-07-02T09:16:00Z</time>
      </trkpt>
      <trkpt lat="44.8853" lon="5.25197">
        <ele>1174.4</ele>
        <time>2024-07-02T09:16:01Z</time>
      </trkpt>
      <trkpt lat="44.88532" lon="5.25197">
        <ele>1174.3</ele>
        <time>2024-07-02T09:16:02Z</time>
      </trkpt>
      <trkpt lat="44.88532" lon="5.25197">
        <ele>1174.2</ele>
        <time>2024-07-02T09:16:03Z</time>
      </trkpt>
      <trkpt lat="44.88533" lon="5.25197">
        <ele>1174.2</ele>
        <time>2024-07-02T09:16:04Z</time>
      </trkpt>
      <trkpt lat="44.88535" lon="5.25198">
        <ele>1174.1</ele>
        <time>2024-07-02T09:16:05Z</time>
      </trkpt>
      <trkpt lat="44.88536" lon="5.25198">
        <ele>1174.1</ele>
        <time>2024-07-02T09:16:06Z</time>
      </trkpt>
      <trkpt lat="44.88537" lon="5.25198">
        <ele>1174.1</ele>
        <time>2024-07-02T09:16:07Z</time>
      </trkpt>
      <trkpt lat="44.88538" lon="5.25198">
        <ele>1174</ele>
        <time>2024-07-02T09:16:08Z</time>
      </trkpt>
      <trkpt lat="44.88539" lon="5.25198">
        <ele>1174</ele>
        <time>2024-07-02T09:16:09Z</time>
      </trkpt>
      <trkpt lat="44.8854" lon="5.25198">
        <ele>1173.9</ele>
        <time>2024-07-02T09:16:10Z</time>
      </trkpt>
      <trkpt lat="44.88542" lon="5.25198">
        <ele>1173.8</ele>
        <time>2024-07-02T09:16:11Z</time>
      </trkpt>
      <trkpt lat="44.88543" lon="5.25198">
        <ele>1173.8</ele>
        <time>2024-07-02T09:16:12Z</time>
      </trkpt>
      <trkpt lat="44.88544" lon="5.25198">
        <ele>1173.8</ele>
        <time>2024-07-02T09:16:13Z</time>
      </trkpt>
      <trkpt lat="44.88545" lon="5.25197">
        <ele>1173.7</ele>
        <time>2024-07-02T09:16:14Z</time>
      </trkpt>
      <trkpt lat="44.88546" lon="5.25197">
        <ele>1173.7</ele>
        <time>2024-07-02T09:16:15Z</time>
      </trkpt>
      <trkpt lat="44.88548" lon="5.25197">
        <ele>1173.7</ele>
        <time>2024-07-02T09:16:16Z</time>
      </trkpt>
      <trkpt lat="44.8855" lon="5.25197">
        <ele>1173.6</ele>
        <time>2024-07-02T09:16:17Z</time>
      </trkpt>
      <trkpt lat="44.88551" lon="5.25198">
        <ele>1173.6</ele>
        <time>2024-07-02T09:16:18Z</time>
      </trkpt>
      <trkpt lat="44.88551" lon="5.25198">
        <ele>1173.6</ele>
        <time>2024-07-02T09:16:19Z</time>
      </trkpt>
      <trkpt lat="44.88554" lon="5.25198">
        <ele>1173.5</ele>
        <time>2024-07-02T09:16:20Z</time>
      </trkpt>
      <trkpt lat="44.88554" lon="5.25198">
        <ele>1173.5</ele>
        <time>2024-07-02T09:16:21Z</time>
      </trkpt>
      <trkpt lat="44.88555" lon="5.25198">
        <ele>1173.4</ele>
        <time>2024-07-02T09:16:22Z</time>
      </trkpt>
      <trkpt lat="44.88557" lon="5.25199">
        <ele>1173.4</ele>
        <time>2024-07-02T09:16:23Z</time>
      </trkpt>
      <trkpt lat="44.88558" lon="5.25199">
        <ele>1173.4</ele>
        <time>2024-07-02T09:16:24Z</time>
      </trkpt>
      <trkpt lat="44.88559" lon="5.25199">
        <ele>1173.4</ele>
        <time>2024-07-02T09:16:25Z</time>
      </trkpt>
      <trkpt lat="44.88561" lon="5.25199">
        <ele>1173.3</ele>
        <time>2024-07-02T09:16:26Z</time>
      </trkpt>
      <trkpt lat="44.88562" lon="5.25199">
        <ele>1173.3</ele>
        <time>2024-07-02T09:16:27Z</time>
      </trkpt>
      <trkpt lat="44.88563" lon="5.25199">
        <ele>1173.3</ele>
        <time>2024-07-02T09:16:28Z</time>
      </trkpt>
      <trkpt lat="44.88564" lon="5.252">
        <ele>1173.3</ele>
        <time>2024-07-02T09:16:29Z</time>
      </trkpt>
      <trkpt lat="44.88566" lon="5.252">
        <ele>1173.2</ele>
        <time>2024-07-02T09:16:30Z</time>
      </trkpt>
      <trkpt lat="44.88567" lon="5.252">
        <ele>1173.2</ele>
        <time>2024-07-02T09:16:31Z</time>
      </trkpt>
      <trkpt lat="44.88569" lon="5.252">
        <ele>1173.2</ele>
        <time>2024-07-02T09:16:32Z</time>
      </trkpt>
      <trkpt lat="44.88571" lon="5.25201">
        <ele>1173.1</ele>
        <time>2024-07-02T09:16:33Z</time>
      </trkpt>
      <trkpt lat="44.88572" lon="5.25201">
        <ele>1173.1</ele>
        <time>2024-07-02T09:16:34Z</time>
      </trkpt>
      <trkpt lat="44.88573" lon="5.25201">
        <ele>1173.1</ele>
        <time>2024-07-02T09:16:35Z</time>
      </trkpt>
      <trkpt lat="44.88575" lon="5.25202">
        <ele>1173.1</ele>
        <time>2024-07-02T09:16:36Z</time>
      </trkpt>
      <trkpt lat="44.88575" lon="5.25202">
        <ele>1173</ele>
        <time>2024-07-02T09:16:37Z</time>
      </trkpt>
      <trkpt lat="44.88576" lon="5.25202">
        <ele>1173</ele>
        <time>2024-07-02T09:16:38Z</time>
      </trkpt>
      <trkpt lat="44.88578" lon="5.25203">
        <ele>1173</ele>
        <time>2024-07-02T09:16:39Z</time>
      </trkpt>
      <trkpt lat="44.88579" lon="5.25203">
        <ele>1172.9</ele>
        <time>2024-07-02T09:16:40Z</time>
      </trkpt>
      <trkpt lat="44.8858" lon="5.25203">
        <ele>1172.9</ele>
        <time>2024-07-02T09:16:41Z</time>
      </trkpt>
      <trkpt lat="44.88581" lon="5.25203">
        <ele>1172.9</ele>
        <time>2024-07-02T09:16:42Z</time>
      </trkpt>
      <trkpt lat="44.88583" lon="5.25203">
        <ele>1172.8</ele>
        <time>2024-07-02T09:16:43Z</time>
      </trkpt>
      <trkpt lat="44.88585" lon="5.25204">
        <ele>1172.8</ele>
        <time>2024-07-02T09:16:44Z</time>
      </trkpt>
      <trkpt lat="44.88585" lon="5.25204">
        <ele>1172.8</ele>
        <time>2024-07-02T09:16:45Z</time>
      </trkpt>
      <trkpt lat="44.88586" lon="5.25205">
        <ele>1172.7</ele>
        <time>2024-07-02T09:16:46Z</time>
      </trkpt>
      <trkpt lat="44.88587" lon="5.25206">
        <ele>1172.7</ele>
        <time>2024-07-02T09:16:47Z</time>
      </trkpt>
      <trkpt lat="44.88589" lon="5.25206">
        <ele>1172.6</ele>
        <time>2024-07-02T09:16:48Z</time>
      </trkpt>
      <trkpt lat="44.8859" lon="5.25207">
        <ele>1172.6</ele>
        <time>2024-07-02T09:16:49Z</time>
      </trkpt>
      <trkpt lat="44.88592" lon="5.25207">
        <ele>1172.6</ele>
        <time>2024-07-02T09:16:50Z</time>
      </trkpt>
      <trkpt lat="44.88594" lon="5.25208">
        <ele>1172.5</ele>
        <time>2024-07-02T09:16:51Z</time>
      </trkpt>
      <trkpt lat="44.88595" lon="5.25208">
        <ele>1172.5</ele>
        <time>2024-07-02T09:16:52Z</time>
      </trkpt>
      <trkpt lat="44.88595" lon="5.25208">
        <ele>1172.4</ele>
        <time>2024-07-02T09:16:53Z</time>
      </trkpt>
      <trkpt lat="44.88597" lon="5.25208">
        <ele>1172.4</ele>
        <time>2024-07-02T09:16:54Z</time>
      </trkpt>
      <trkpt lat="44.88598" lon="5.25208">
        <ele>1172.3</ele>
        <time>2024-07-02T09:16:55Z</time>
      </trkpt>
      <trkpt lat="44.88599" lon="5.25208">
        <ele>1172.3</ele>
        <time>2024-07-02T09:16:56Z</time>
      </trkpt>
      <trkpt lat="44.88601" lon="5.25207">
        <ele>1172.2</ele>
        <time>2024-07-02T09:16:57Z</time>
      </trkpt>
      <trkpt lat="44.88602" lon="5.25207">
        <ele>1172.2</ele>
        <time>2024-07-02T09:16:58Z</time>
      </trkpt>
      <trkpt lat="44.88603" lon="5.25207">
        <ele>1172.2</ele>
        <time>2024-07-02T09:16:59Z</time>
      </trkpt>
      <trkpt lat="44.88605" lon="5.25207">
        <ele>1172.1</ele>
        <time>2024-07-02T09:17:00Z</time>
      </trkpt>
      <trkpt lat="44.88606" lon="5.25207">
        <ele>1172.1</ele>
        <time>2024-07-02T09:17:01Z</time>
      </trkpt>
      <trkpt lat="44.88606" lon="5.25208">
        <ele>1172</ele>
        <time>2024-07-02T09:17:02Z</time>
      </trkpt>
      <trkpt lat="44.88608" lon="5.25208">
        <ele>1172</ele>
        <time>2024-07-02T09:17:03Z</time>
      </trkpt>
      <trkpt lat="44.88609" lon="5.25209">
        <ele>1171.9</ele>
        <time>2024-07-02T09:17:04Z</time>
      </trkpt>
      <trkpt lat="44.88611" lon="5.25209">
        <ele>1171.9</ele>
        <time>2024-07-02T09:17:05Z</time>
      </trkpt>
      <trkpt lat="44.88612" lon="5.2521">
        <ele>1171.8</ele>
        <time>2024-07-02T09:17:06Z</time>
      </trkpt>
      <trkpt lat="44.88613" lon="5.2521">
        <ele>1171.8</ele>
        <time>2024-07-02T09:17:07Z</time>
      </trkpt>
      <trkpt lat="44.88615" lon="5.25211">
        <ele>1171.7</ele>
        <time>2024-07-02T09:17:08Z</time>
      </trkpt>
      <trkpt lat="44.88616" lon="5.25211">
        <ele>1171.6</ele>
        <time>2024-07-02T09:17:09Z</time>
      </trkpt>
      <trkpt lat="44.88618" lon="5.25211">
        <ele>1171.6</ele>
        <time>2024-07-02T09:17:10Z</time>
      </trkpt>
      <trkpt lat="44.8862" lon="5.25211">
        <ele>1171.5</ele>
        <time>2024-07-02T09:17:11Z</time>
      </trkpt>
      <trkpt lat="44.88621" lon="5.25211">
        <ele>1171.5</ele>
        <time>2024-07-02T09:17:12Z</time>
      </trkpt>
      <trkpt lat="44.88622" lon="5.25211">
        <ele>1171.4</ele>
        <time>2024-07-02T09:17:13Z</time>
      </trkpt>
      <trkpt lat="44.88623" lon="5.25212">
        <ele>1171.4</ele>
        <time>2024-07-02T09:17:14Z</time>
      </trkpt>
      <trkpt lat="44.88624" lon="5.25212">
        <ele>1171.3</ele>
        <time>2024-07-02T09:17:15Z</time>
      </trkpt>
      <trkpt lat="44.88625" lon="5.25212">
        <ele>1171.3</ele>
        <time>2024-07-02T09:17:16Z</time>
      </trkpt>
      <trkpt lat="44.88626" lon="5.25212">
        <ele>1171.2</ele>
        <time>2024-07-02T09:17:17Z</time>
      </trkpt>
      <trkpt lat="44.88628" lon="5.25212">
        <ele>1171.2</ele>
        <time>2024-07-02T09:17:18Z</time>
      </trkpt>
      <trkpt lat="44.88629" lon="5.25211">
        <ele>1171.1</ele>
        <time>2024-07-02T09:17:19Z</time>
      </trkpt>
      <trkpt lat="44.88631" lon="5.25212">
        <ele>1171</ele>
        <time>2024-07-02T09:17:20Z</time>
      </trkpt>
      <trkpt lat="44.88632" lon="5.25212">
        <ele>1171</ele>
        <time>2024-07-02T09:17:21Z</time>
      </trkpt>
      <trkpt lat="44.88632" lon="5.25213">
        <ele>1171</ele>
        <time>2024-07-02T09:17:22Z</time>
      </trkpt>
      <trkpt lat="44.88634" lon="5.25213">
        <ele>1170.9</ele>
        <time>2024-07-02T09:17:23Z</time>
      </trkpt>
      <trkpt lat="44.88635" lon="5.25214">
        <ele>1170.8</ele>
        <time>2024-07-02T09:17:24Z</time>
      </trkpt>
      <trkpt lat="44.88636" lon="5.25214">
        <ele>1170.8</ele>
        <time>2024-07-02T09:17:25Z</time>
      </trkpt>
      <trkpt lat="44.88637" lon="5.25215">
        <ele>1170.7</ele>
        <time>2024-07-02T09:17:26Z</time>
      </trkpt>
      <trkpt lat="44.88638" lon="5.25215">
        <ele>1170.7</ele>
        <time>2024-07-02T09:17:27Z</time>
      </trkpt>
      <trkpt lat="44.88641" lon="5.25216">
        <ele>1170.5</ele>
        <time>2024-07-02T09:17:28Z</time>
      </trkpt>
      <trkpt lat="44.88641" lon="5.25216">
        <ele>1170.5</ele>
        <time>2024-07-02T09:17:29Z</time>
      </trkpt>
      <trkpt lat="44.88642" lon="5.25216">
        <ele>1170.5</ele>
        <time>2024-07-02T09:17:30Z</time>
      </trkpt>
      <trkpt lat="44.88645" lon="5.25217">
        <ele>1170.4</ele>
        <time>2024-07-02T09:17:31Z</time>
      </trkpt>
      <trkpt lat="44.88645" lon="5.25217">
        <ele>1170.3</ele>
        <time>2024-07-02T09:17:32Z</time>
      </trkpt>
      <trkpt lat="44.88646" lon="5.25217">
        <ele>1170.3</ele>
        <time>2024-07-02T09:17:33Z</time>
      </trkpt>
      <trkpt lat="44.88648" lon="5.25218">
        <ele>1170.2</ele>
        <time>2024-07-02T09:17:34Z</time>
      </trkpt>
      <trkpt lat="44.88649" lon="5.25218">
        <ele>1170.1</ele>
        <time>2024-07-02T09:17:35Z</time>
      </trkpt>
      <trkpt lat="44.8865" lon="5.25218">
        <ele>1170.1</ele>
        <time>2024-07-02T09:17:36Z</time>
      </trkpt>
      <trkpt lat="44.88651" lon="5.25218">
        <ele>1170</ele>
        <time>2024-07-02T09:17:37Z</time>
      </trkpt>
      <trkpt lat="44.88652" lon="5.25218">
        <ele>1170</ele>
        <time>2024-07-02T09:17:38Z</time>
      </trkpt>
      <trkpt lat="44.88653" lon="5.25218">
        <ele>1169.9</ele>
        <time>2024-07-02T09:17:39Z</time>
      </trkpt>
      <trkpt lat="44.88655" lon="5.25219">
        <ele>1169.9</ele>
        <time>2024-07-02T09:17:40Z</time>
      </trkpt>
      <trkpt lat="44.88656" lon="5.25219">
        <ele>1169.8</ele>
        <time>2024-07-02T09:17:41Z</time>
      </trkpt>
      <trkpt lat="44.88658" lon="5.25219">
        <ele>1169.7</ele>
        <time>2024-07-02T09:17:42Z</time>
      </trkpt>
      <trkpt lat="44.88659" lon="5.2522">
        <ele>1169.6</ele>
        <time>2024-07-02T09:17:43Z</time>
      </trkpt>
      <trkpt lat="44.8866" lon="5.2522">
        <ele>1169.6</ele>
        <time>2024-07-02T09:17:44Z</time>
      </trkpt>
      <trkpt lat="44.88661" lon="5.2522">
        <ele>1169.5</ele>
        <time>2024-07-02T09:17:45Z</time>
      </trkpt>
      <trkpt lat="44.88662" lon="5.2522">
        <ele>1169.5</ele>
        <time>2024-07-02T09:17:46Z</time>
      </trkpt>
      <trkpt lat="44.88663" lon="5.25221">
        <ele>1169.4</ele>
        <time>2024-07-02T09:17:47Z</time>
      </trkpt>
      <trkpt lat="44.88664" lon="5.25222">
        <ele>1169.4</ele>
        <time>2024-07-02T09:17:48Z</time>
      </trkpt>
      <trkpt lat="44.88665" lon="5.25222">
        <ele>1169.3</ele>
        <time>2024-07-02T09:17:49Z</time>
      </trkpt>
      <trkpt lat="44.88666" lon="5.25222">
        <ele>1169.2</ele>
        <time>2024-07-02T09:17:50Z</time>
      </trkpt>
      <trkpt lat="44.88668" lon="5.25223">
        <ele>1169.1</ele>
        <time>2024-07-02T09:17:51Z</time>
      </trkpt>
      <trkpt lat="44.88669" lon="5.25223">
        <ele>1169.1</ele>
        <time>2024-07-02T09:17:52Z</time>
      </trkpt>
      <trkpt lat="44.8867" lon="5.25223">
        <ele>1169</ele>
        <time>2024-07-02T09:17:53Z</time>
      </trkpt>
      <trkpt lat="44.88671" lon="5.25223">
        <ele>1169</ele>
        <time>2024-07-02T09:17:54Z</time>
      </trkpt>
      <trkpt lat="44.88672" lon="5.25224">
        <ele>1168.9</ele>
        <time>2024-07-02T09:17:55Z</time>
      </trkpt>
      <trkpt lat="44.88673" lon="5.25224">
        <ele>1168.8</ele>
        <time>2024-07-02T09:17:56Z</time>
      </trkpt>
      <trkpt lat="44.88675" lon="5.25225">
        <ele>1168.8</ele>
        <time>2024-07-02T09:17:57Z</time>
      </trkpt>
      <trkpt lat="44.88676" lon="5.25225">
        <ele>1168.7</ele>
        <time>2024-07-02T09:17:58Z</time>
      </trkpt>
      <trkpt lat="44.88678" lon="5.25226">
        <ele>1168.6</ele>
        <time>2024-07-02T09:17:59Z</time>
      </trkpt>
      <trkpt lat="44.88679" lon="5.25226">
        <ele>1168.5</ele>
        <time>2024-07-02T09:18:00Z</time>
      </trkpt>
      <trkpt lat="44.8868" lon="5.25226">
        <ele>1168.5</ele>
        <time>2024-07-02T09:18:01Z</time>
      </trkpt>
      <trkpt lat="44.88682" lon="5.25226">
        <ele>1168.4</ele>
        <time>2024-07-02T09:18:02Z</time>
      </trkpt>
      <trkpt lat="44.88683" lon="5.25226">
        <ele>1168.3</ele>
        <time>2024-07-02T09:18:03Z</time>
      </trkpt>
      <trkpt lat="44.88684" lon="5.25226">
        <ele>1168.3</ele>
        <time>2024-07-02T09:18:04Z</time>
      </trkpt>
      <trkpt lat="44.88685" lon="5.25226">
        <ele>1168.3</ele>
        <time>2024-07-02T09:18:05Z</time>
      </trkpt>
      <trkpt lat="44.88686" lon="5.25225">
        <ele>1168.2</ele>
        <time>2024-07-02T09:18:06Z</time>
      </trkpt>
      <trkpt lat="44.88687" lon="5.25226">
        <ele>1168.2</ele>
        <time>2024-07-02T09:18:07Z</time>
      </trkpt>
      <trkpt lat="44.88689" lon="5.25226">
        <ele>1168.1</ele>
        <time>2024-07-02T09:18:08Z</time>
      </trkpt>
      <trkpt lat="44.8869" lon="5.25226">
        <ele>1168</ele>
        <time>2024-07-02T09:18:09Z</time>
      </trkpt>
      <trkpt lat="44.88691" lon="5.25226">
        <ele>1168</ele>
        <time>2024-07-02T09:18:10Z</time>
      </trkpt>
      <trkpt lat="44.88692" lon="5.25226">
        <ele>1167.9</ele>
        <time>2024-07-02T09:18:11Z</time>
      </trkpt>
      <trkpt lat="44.88693" lon="5.25227">
        <ele>1167.9</ele>
        <time>2024-07-02T09:18:12Z</time>
      </trkpt>
      <trkpt lat="44.88694" lon="5.25227">
        <ele>1167.8</ele>
        <time>2024-07-02T09:18:13Z</time>
      </trkpt>
      <trkpt lat="44.88696" lon="5.25227">
        <ele>1167.8</ele>
        <time>2024-07-02T09:18:14Z</time>
      </trkpt>
      <trkpt lat="44.88697" lon="5.25227">
        <ele>1167.7</ele>
        <time>2024-07-02T09:18:15Z</time>
      </trkpt>
      <trkpt lat="44.88698" lon="5.25228">
        <ele>1167.7</ele>
        <time>2024-07-02T09:18:16Z</time>
      </trkpt>
      <trkpt lat="44.887" lon="5.25228">
        <ele>1167.6</ele>
        <time>2024-07-02T09:18:17Z</time>
      </trkpt>
      <trkpt lat="44.88701" lon="5.25228">
        <ele>1167.6</ele>
        <time>2024-07-02T09:18:18Z</time>
      </trkpt>
      <trkpt lat="44.88702" lon="5.25229">
        <ele>1167.5</ele>
        <time>2024-07-02T09:18:19Z</time>
      </trkpt>
      <trkpt lat="44.88704" lon="5.2523">
        <ele>1167.5</ele>
        <time>2024-07-02T09:18:20Z</time>
      </trkpt>
      <trkpt lat="44.88705" lon="5.2523">
        <ele>1167.4</ele>
        <time>2024-07-02T09:18:21Z</time>
      </trkpt>
      <trkpt lat="44.88705" lon="5.2523">
        <ele>1167.4</ele>
        <time>2024-07-02T09:18:22Z</time>
      </trkpt>
      <trkpt lat="44.88707" lon="5.25231">
        <ele>1167.3</ele>
        <time>2024-07-02T09:18:23Z</time>
      </trkpt>
      <trkpt lat="44.88708" lon="5.25231">
        <ele>1167.3</ele>
        <time>2024-07-02T09:18:24Z</time>
      </trkpt>
      <trkpt lat="44.88709" lon="5.25232">
        <ele>1167.3</ele>
        <time>2024-07-02T09:18:25Z</time>
      </trkpt>
      <trkpt lat="44.88711" lon="5.25232">
        <ele>1167.2</ele>
        <time>2024-07-02T09:18:26Z</time>
      </trkpt>
      <trkpt lat="44.88712" lon="5.25232">
        <ele>1167.2</ele>
        <time>2024-07-02T09:18:27Z</time>
      </trkpt>
      <trkpt lat="44.88713" lon="5.25233">
        <ele>1167.1</ele>
        <time>2024-07-02T09:18:28Z</time>
      </trkpt>
      <trkpt lat="44.88715" lon="5.25233">
        <ele>1167.1</ele>
        <time>2024-07-02T09:18:29Z</time>
      </trkpt>
      <trkpt lat="44.88717" lon="5.25234">
        <ele>1167</ele>
        <time>2024-07-02T09:18:30Z</time>
      </trkpt>
      <trkpt lat="44.88718" lon="5.25234">
        <ele>1167</ele>
        <time>2024-07-02T09:18:31Z</time>
      </trkpt>
      <trkpt lat="44.88719" lon="5.25234">
        <ele>1166.9</ele>
        <time>2024-07-02T09:18:32Z</time>
      </trkpt>
      <trkpt lat="44.88721" lon="5.25234">
        <ele>1166.8</ele>
        <time>2024-07-02T09:18:33Z</time>
      </trkpt>
      <trkpt lat="44.88722" lon="5.25234">
        <ele>1166.8</ele>
        <time>2024-07-02T09:18:34Z</time>
      </trkpt>
      <trkpt lat="44.88722" lon="5.25234">
        <ele>1166.8</ele>
        <time>2024-07-02T09:18:35Z</time>
      </trkpt>
      <trkpt lat="44.88724" lon="5.25235">
        <ele>1166.7</ele>
        <time>2024-07-02T09:18:36Z</time>
      </trkpt>
      <trkpt lat="44.88725" lon="5.25236">
        <ele>1166.7</ele>
        <time>2024-07-02T09:18:37Z</time>
      </trkpt>
      <trkpt lat="44.88727" lon="5.25236">
        <ele>1166.6</ele>
        <time>2024-07-02T09:18:38Z</time>
      </trkpt>
      <trkpt lat="44.88728" lon="5.25237">
        <ele>1166.6</ele>
        <time>2024-07-02T09:18:39Z</time>
      </trkpt>
      <trkpt lat="44.88729" lon="5.25237">
        <ele>1166.5</ele>
        <time>2024-07-02T09:18:40Z</time>
      </trkpt>
      <trkpt lat="44.88731" lon="5.25237">
        <ele>1166.4</ele>
        <time>2024-07-02T09:18:41Z</time>
      </trkpt>
      <trkpt lat="44.88732" lon="5.25237">
        <ele>1166.4</ele>
        <time>2024-07-02T09:18:42Z</time>
      </trkpt>
      <trkpt lat="44.88733" lon="5.25237">
        <ele>1166.4</ele>
        <time>2024-07-02T09:18:43Z</time>
      </trkpt>
      <trkpt lat="44.88735" lon="5.25238">
        <ele>1166.3</ele>
        <time>2024-07-02T09:18:44Z</time>
      </trkpt>
      <trkpt lat="44.88736" lon="5.25238">
        <ele>1166.3</ele>
        <time>2024-07-02T09:18:45Z</time>
      </trkpt>
      <trkpt lat="44.88737" lon="5.25238">
        <ele>1166.2</ele>
        <time>2024-07-02T09:18:46Z</time>
      </trkpt>
      <trkpt lat="44.88739" lon="5.25238">
        <ele>1166.1</ele>
        <time>2024-07-02T09:18:47Z</time>
      </trkpt>
      <trkpt lat="44.8874" lon="5.25239">
        <ele>1166.1</ele>
        <time>2024-07-02T09:18:48Z</time>
      </trkpt>
      <trkpt lat="44.88741" lon="5.25239">
        <ele>1166.1</ele>
        <time>2024-07-02T09:18:49Z</time>
      </trkpt>
      <trkpt lat="44.88742" lon="5.25239">
        <ele>1166</ele>
        <time>2024-07-02T09:18:50Z</time>
      </trkpt>
      <trkpt lat="44.88743" lon="5.25239">
        <ele>1166</ele>
        <time>2024-07-02T09:18:51Z</time>
      </trkpt>
      <trkpt lat="44.88745" lon="5.25239">
        <ele>1165.9</ele>
        <time>2024-07-02T09:18:52Z</time>
      </trkpt>
      <trkpt lat="44.88746" lon="5.2524">
        <ele>1165.9</ele>
        <time>2024-07-02T09:18:53Z</time>
      </trkpt>
      <trkpt lat="44.88748" lon="5.2524">
        <ele>1165.8</ele>
        <time>2024-07-02T09:18:54Z</time>
      </trkpt>
      <trkpt lat="44.88749" lon="5.25241">
        <ele>1165.8</ele>
        <time>2024-07-02T09:18:55Z</time>
      </trkpt>
      <trkpt lat="44.8875" lon="5.25241">
        <ele>1165.8</ele>
        <time>2024-07-02T09:18:56Z</time>
      </trkpt>
      <trkpt lat="44.88751" lon="5.25241">
        <ele>1165.8</ele>
        <time>2024-07-02T09:18:57Z</time>
      </trkpt>
      <trkpt lat="44.88752" lon="5.25241">
        <ele>1165.7</ele>
        <time>2024-07-02T09:18:58Z</time>
      </trkpt>
      <trkpt lat="44.88753" lon="5.25242">
        <ele>1165.7</ele>
        <time>2024-07-02T09:18:59Z</time>
      </trkpt>
      <trkpt lat="44.88756" lon="5.25243">
        <ele>1165.6</ele>
        <time>2024-07-02T09:19:00Z</time>
      </trkpt>
      <trkpt lat="44.88756" lon="5.25243">
        <ele>1165.6</ele>
        <time>2024-07-02T09:19:01Z</time>
      </trkpt>
      <trkpt lat="44.88757" lon="5.25244">
        <ele>1165.6</ele>
        <time>2024-07-02T09:19:02Z</time>
      </trkpt>
      <trkpt lat="44.88759" lon="5.25244">
        <ele>1165.6</ele>
        <time>2024-07-02T09:19:03Z</time>
      </trkpt>
      <trkpt lat="44.8876" lon="5.25244">
        <ele>1165.5</ele>
        <time>2024-07-02T09:19:04Z</time>
      </trkpt>
      <trkpt lat="44.88761" lon="5.25245">
        <ele>1165.5</ele>
        <time>2024-07-02T09:19:05Z</time>
      </trkpt>
      <trkpt lat="44.88763" lon="5.25245">
        <ele>1165.5</ele>
        <time>2024-07-02T09:19:06Z</time>
      </trkpt>
      <trkpt lat="44.88764" lon="5.25245">
        <ele>1165.5</ele>
        <time>2024-07-02T09:19:07Z</time>
      </trkpt>
      <trkpt lat="44.88764" lon="5.25245">
        <ele>1165.5</ele>
        <time>2024-07-02T09:19:08Z</time>
      </trkpt>
      <trkpt lat="44.88765" lon="5.25245">
        <ele>1165.4</ele>
        <time>2024-07-02T09:19:09Z</time>
      </trkpt>
      <trkpt lat="44.88767" lon="5.25245">
        <ele>1165.4</ele>
        <time>2024-07-02T09:19:10Z</time>
      </trkpt>
      <trkpt lat="44.88768" lon="5.25245">
        <ele>1165.4</ele>
        <time>2024-07-02T09:19:11Z</time>
      </trkpt>
      <trkpt lat="44.8877" lon="5.25245">
        <ele>1165.4</ele>
        <time>2024-07-02T09:19:12Z</time>
      </trkpt>
      <trkpt lat="44.88771" lon="5.25245">
        <ele>1165.4</ele>
        <time>2024-07-02T09:19:13Z</time>
      </trkpt>
      <trkpt lat="44.88771" lon="5.25245">
        <ele>1165.3</ele>
        <time>2024-07-02T09:19:14Z</time>
      </trkpt>
      <trkpt lat="44.88773" lon="5.25246">
        <ele>1165.3</ele>
        <time>2024-07-02T09:19:15Z</time>
      </trkpt>
      <trkpt lat="44.88774" lon="5.25247">
        <ele>1165.3</ele>
        <time>2024-07-02T09:19:16Z</time>
      </trkpt>
      <trkpt lat="44.88775" lon="5.25247">
        <ele>1165.3</ele>
        <time>2024-07-02T09:19:17Z</time>
      </trkpt>
      <trkpt lat="44.88777" lon="5.25249">
        <ele>1165.3</ele>
        <time>2024-07-02T09:19:18Z</time>
      </trkpt>
      <trkpt lat="44.88778" lon="5.25249">
        <ele>1165.3</ele>
        <time>2024-07-02T09:19:19Z</time>
      </trkpt>
      <trkpt lat="44.88778" lon="5.25249">
        <ele>1165.2</ele>
        <time>2024-07-02T09:19:20Z</time>
      </trkpt>
      <trkpt lat="44.8878" lon="5.25251">
        <ele>1165.2</ele>
        <time>2024-07-02T09:19:21Z</time>
      </trkpt>
      <trkpt lat="44.88781" lon="5.25251">
        <ele>1165.2</ele>
        <time>2024-07-02T09:19:22Z</time>
      </trkpt>
      <trkpt lat="44.88782" lon="5.25252">
        <ele>1165.2</ele>
        <time>2024-07-02T09:19:23Z</time>
      </trkpt>
      <trkpt lat="44.88783" lon="5.25252">
        <ele>1165.2</ele>
        <time>2024-07-02T09:19:24Z</time>
      </trkpt>
      <trkpt lat="44.88784" lon="5.25253">
        <ele>1165.2</ele>
        <time>2024-07-02T09:19:25Z</time>
      </trkpt>
      <trkpt lat="44.88785" lon="5.25253">
        <ele>1165.2</ele>
        <time>2024-07-02T09:19:26Z</time>
      </trkpt>
      <trkpt lat="44.88787" lon="5.25253">
        <ele>1165.2</ele>
        <time>2024-07-02T09:19:27Z</time>
      </trkpt>
      <trkpt lat="44.88788" lon="5.25252">
        <ele>1165.1</ele>
        <time>2024-07-02T09:19:28Z</time>
      </trkpt>
      <trkpt lat="44.88789" lon="5.25252">
        <ele>1165.1</ele>
        <time>2024-07-02T09:19:29Z</time>
      </trkpt>
      <trkpt lat="44.88791" lon="5.25252">
        <ele>1165.1</ele>
        <time>2024-07-02T09:19:30Z</time>
      </trkpt>
      <trkpt lat="44.88792" lon="5.25252">
        <ele>1165.1</ele>
        <time>2024-07-02T09:19:31Z</time>
      </trkpt>
      <trkpt lat="44.88793" lon="5.25252">
        <ele>1165.1</ele>
        <time>2024-07-02T09:19:32Z</time>
      </trkpt>
      <trkpt lat="44.88795" lon="5.25253">
        <ele>1165.1</ele>
        <time>2024-07-02T09:19:33Z</time>
      </trkpt>
      <trkpt lat="44.88796" lon="5.25253">
        <ele>1165.1</ele>
        <time>2024-07-02T09:19:34Z</time>
      </trkpt>
      <trkpt lat="44.88797" lon="5.25253">
        <ele>1165.1</ele>
        <time>2024-07-02T09:19:35Z</time>
      </trkpt>
      <trkpt lat="44.88798" lon="5.25253">
        <ele>1165</ele>
        <time>2024-07-02T09:19:36Z</time>
      </trkpt>
      <trkpt lat="44.88799" lon="5.25253">
        <ele>1165</ele>
        <time>2024-07-02T09:19:37Z</time>
      </trkpt>
      <trkpt lat="44.888" lon="5.25254">
        <ele>1165</ele>
        <time>2024-07-02T09:19:38Z</time>
      </trkpt>
      <trkpt lat="44.88802" lon="5.25255">
        <ele>1165</ele>
        <time>2024-07-02T09:19:39Z</time>
      </trkpt>
      <trkpt lat="44.88803" lon="5.25255">
        <ele>1165</ele>
        <time>2024-07-02T09:19:40Z</time>
      </trkpt>
      <trkpt lat="44.88804" lon="5.25256">
        <ele>1165</ele>
        <time>2024-07-02T09:19:41Z</time>
      </trkpt>
      <trkpt lat="44.88805" lon="5.25257">
        <ele>1165</ele>
        <time>2024-07-02T09:19:42Z</time>
      </trkpt>
      <trkpt lat="44.88806" lon="5.25257">
        <ele>1164.9</ele>
        <time>2024-07-02T09:19:43Z</time>
      </trkpt>
      <trkpt lat="44.88807" lon="5.25257">
        <ele>1164.9</ele>
        <time>2024-07-02T09:19:44Z</time>
      </trkpt>
      <trkpt lat="44.88808" lon="5.25258">
        <ele>1164.9</ele>
        <time>2024-07-02T09:19:45Z</time>
      </trkpt>
      <trkpt lat="44.8881" lon="5.25258">
        <ele>1164.9</ele>
        <time>2024-07-02T09:19:46Z</time>
      </trkpt>
      <trkpt lat="44.88811" lon="5.25258">
        <ele>1164.9</ele>
        <time>2024-07-02T09:19:47Z</time>
      </trkpt>
      <trkpt lat="44.88812" lon="5.25259">
        <ele>1164.8</ele>
        <time>2024-07-02T09:19:48Z</time>
      </trkpt>
      <trkpt lat="44.88813" lon="5.25259">
        <ele>1164.8</ele>
        <time>2024-07-02T09:19:49Z</time>
      </trkpt>
      <trkpt lat="44.88814" lon="5.2526">
        <ele>1164.8</ele>
        <time>2024-07-02T09:19:50Z</time>
      </trkpt>
      <trkpt lat="44.88816" lon="5.2526">
        <ele>1164.8</ele>
        <time>2024-07-02T09:19:51Z</time>
      </trkpt>
      <trkpt lat="44.88818" lon="5.25261">
        <ele>1164.8</ele>
        <time>2024-07-02T09:19:52Z</time>
      </trkpt>
      <trkpt lat="44.88818" lon="5.25262">
        <ele>1164.8</ele>
        <time>2024-07-02T09:19:53Z</time>
      </trkpt>
      <trkpt lat="44.88819" lon="5.25262">
        <ele>1164.8</ele>
        <time>2024-07-02T09:19:54Z</time>
      </trkpt>
      <trkpt lat="44.8882" lon="5.25263">
        <ele>1164.9</ele>
        <time>2024-07-02T09:19:55Z</time>
      </trkpt>
      <trkpt lat="44.88821" lon="5.25264">
        <ele>1164.9</ele>
        <time>2024-07-02T09:19:56Z</time>
      </trkpt>
      <trkpt lat="44.88822" lon="5.25265">
        <ele>1164.9</ele>
        <time>2024-07-02T09:19:57Z</time>
      </trkpt>
      <trkpt lat="44.88824" lon="5.25266">
        <ele>1164.9</ele>
        <time>2024-07-02T09:19:58Z</time>
      </trkpt>
      <trkpt lat="44.88825" lon="5.25267">
        <ele>1164.9</ele>
        <time>2024-07-02T09:19:59Z</time>
      </trkpt>
      <trkpt lat="44.88825" lon="5.25268">
        <ele>1164.9</ele>
        <time>2024-07-02T09:20:00Z</time>
      </trkpt>
      <trkpt lat="44.88827" lon="5.25268">
        <ele>1164.9</ele>
        <time>2024-07-02T09:20:01Z</time>
      </trkpt>
      <trkpt lat="44.88828" lon="5.25268">
        <ele>1164.9</ele>
        <time>2024-07-02T09:20:02Z</time>
      </trkpt>
      <trkpt lat="44.88829" lon="5.25268">
        <ele>1164.9</ele>
        <time>2024-07-02T09:20:03Z</time>
      </trkpt>
      <trkpt lat="44.88831" lon="5.25269">
        <ele>1165</ele>
        <time>2024-07-02T09:20:04Z</time>
      </trkpt>
      <trkpt lat="44.88832" lon="5.25269">
        <ele>1165</ele>
        <time>2024-07-02T09:20:05Z</time>
      </trkpt>
      <trkpt lat="44.88833" lon="5.25269">
        <ele>1165</ele>
        <time>2024-07-02T09:20:06Z</time>
      </trkpt>
      <trkpt lat="44.88835" lon="5.2527">
        <ele>1165</ele>
        <time>2024-07-02T09:20:07Z</time>
      </trkpt>
      <trkpt lat="44.88835" lon="5.25271">
        <ele>1165</ele>
        <time>2024-07-02T09:20:08Z</time>
      </trkpt>
      <trkpt lat="44.88836" lon="5.25271">
        <ele>1165</ele>
        <time>2024-07-02T09:20:09Z</time>
      </trkpt>
      <trkpt lat="44.88837" lon="5.25272">
        <ele>1165</ele>
        <time>2024-07-02T09:20:10Z</time>
      </trkpt>
      <trkpt lat="44.88838" lon="5.25273">
        <ele>1165</ele>
        <time>2024-07-02T09:20:11Z</time>
      </trkpt>
      <trkpt lat="44.88839" lon="5.25273">
        <ele>1165</ele>
        <time>2024-07-02T09:20:12Z</time>
      </trkpt>
      <trkpt lat="44.8884" lon="5.25274">
        <ele>1165.1</ele>
        <time>2024-07-02T09:20:13Z</time>
      </trkpt>
      <trkpt lat="44.88842" lon="5.25275">
        <ele>1165.1</ele>
        <time>2024-07-02T09:20:14Z</time>
      </trkpt>
      <trkpt lat="44.88842" lon="5.25275">
        <ele>1165.1</ele>
        <time>2024-07-02T09:20:15Z</time>
      </trkpt>
      <trkpt lat="44.88843" lon="5.25276">
        <ele>1165.1</ele>
        <time>2024-07-02T09:20:16Z</time>
      </trkpt>
      <trkpt lat="44.88843" lon="5.25277">
        <ele>1165.1</ele>
        <time>2024-07-02T09:20:17Z</time>
      </trkpt>
      <trkpt lat="44.88844" lon="5.25278">
        <ele>1165.1</ele>
        <time>2024-07-02T09:20:18Z</time>
      </trkpt>
      <trkpt lat="44.88845" lon="5.25278">
        <ele>1165.1</ele>
        <time>2024-07-02T09:20:19Z</time>
      </trkpt>
      <trkpt lat="44.88845" lon="5.25278">
        <ele>1165.1</ele>
        <time>2024-07-02T09:20:20Z</time>
      </trkpt>
      <trkpt lat="44.88845" lon="5.25278">
        <ele>1165.1</ele>
        <time>2024-07-02T09:20:21Z</time>
      </trkpt>
      <trkpt lat="44.88844" lon="5.25278">
        <ele>1165.1</ele>
        <time>2024-07-02T09:20:22Z</time>
      </trkpt>
      <trkpt lat="44.88844" lon="5.25278">
        <ele>1165.1</ele>
        <time>2024-07-02T09:20:23Z</time>
      </trkpt>
      <trkpt lat="44.88844" lon="5.25278">
        <ele>1165.1</ele>
        <time>2024-07-02T09:20:24Z</time>
      </trkpt>
      <trkpt lat="44.88844" lon="5.25278">
        <ele>1165.1</ele>
        <time>2024-07-02T09:20:25Z</time>
      </trkpt>
      <trkpt lat="44.88844" lon="5.25278">
        <ele>1165.1</ele>
        <time>2024-07-02T09:20:26Z</time>
      </trkpt>
      <trkpt lat="44.88844" lon="5.25278">
        <ele>1165.1</ele>
        <time>2024-07-02T09:20:27Z</time>
      </trkpt>
      <trkpt lat="44.88844" lon="5.25278">
        <ele>1165.1</ele>
        <time>2024-07-02T09:20:28Z</time>
      </trkpt>
      <trkpt lat="44.88844" lon="5.25278">
        <ele>1165.1</ele>
        <time>2024-07-02T09:20:29Z</time>
      </trkpt>
      <trkpt lat="44.88844" lon="5.25278">
        <ele>1165.1</ele>
        <time>2024-07-02T09:20:30Z</time>
      </trkpt>
      <trkpt lat="44.88844" lon="5.25278">
        <ele>1165.1</ele>
        <time>2024-07-02T09:20:31Z</time>
      </trkpt>
      <trkpt lat="44.88844" lon="5.25278">
        <ele>1165.1</ele>
        <time>2024-07-02T09:20:32Z</time>
      </trkpt>
      <trkpt lat="44.88844" lon="5.25278">
        <ele>1165.1</ele>
        <time>2024-07-02T09:20:33Z</time>
      </trkpt>
      <trkpt lat="44.88844" lon="5.25278">
        <ele>1165.1</ele>
        <time>2024-07-02T09:20:34Z</time>
      </trkpt>
      <trkpt lat="44.88844" lon="5.25278">
        <ele>1165.1</ele>
        <time>2024-07-02T09:20:35Z</time>
      </trkpt>
      <trkpt lat="44.88844" lon="5.25278">
        <ele>1165.1</ele>
        <time>2024-07-02T09:20:36Z</time>
      </trkpt>
      <trkpt lat="44.88844" lon="5.25278">
        <ele>1165.1</ele>
        <time>2024-07-02T09:20:37Z</time>
      </trkpt>
      <trkpt lat="44.88844" lon="5.25278">
        <ele>1165.1</ele>
        <time>2024-07-02T09:20:38Z</time>
      </trkpt>
      <trkpt lat="44.88844" lon="5.25279">
        <ele>1165.1</ele>
        <time>2024-07-02T09:20:39Z</time>
      </trkpt>
      <trkpt lat="44.88844" lon="5.25279">
        <ele>1165.1</ele>
        <time>2024-07-02T09:20:40Z</time>
      </trkpt>
      <trkpt lat="44.88844" lon="5.25279">
        <ele>1165.1</ele>
        <time>2024-07-02T09:20:41Z</time>
      </trkpt>
      <trkpt lat="44.88844" lon="5.25279">
        <ele>1165.1</ele>
        <time>2024-07-02T09:20:42Z</time>
      </trkpt>
      <trkpt lat="44.88844" lon="5.25279">
        <ele>1165.1</ele>
        <time>2024-07-02T09:20:43Z</time>
      </trkpt>
      <trkpt lat="44.88844" lon="5.25279">
        <ele>1165.1</ele>
        <time>2024-07-02T09:20:44Z</time>
      </trkpt>
      <trkpt lat="44.88844" lon="5.25279">
        <ele>1165.1</ele>
        <time>2024-07-02T09:20:45Z</time>
      </trkpt>
      <trkpt lat="44.88844" lon="5.25279">
        <ele>1165.1</ele>
        <time>2024-07-02T09:20:46Z</time>
      </trkpt>
      <trkpt lat="44.88844" lon="5.25279">
        <ele>1165.1</ele>
        <time>2024-07-02T09:20:47Z</time>
      </trkpt>
      <trkpt lat="44.88844" lon="5.25279">
        <ele>1165.1</ele>
        <time>2024-07-02T09:20:48Z</time>
      </trkpt>
      <trkpt lat="44.88844" lon="5.25279">
        <ele>1165.1</ele>
        <time>2024-07-02T09:20:49Z</time>
      </trkpt>
      <trkpt lat="44.88844" lon="5.25279">
        <ele>1165.1</ele>
        <time>2024-07-02T09:20:50Z</time>
      </trkpt>
      <trkpt lat="44.88844" lon="5.25279">
        <ele>1165.1</ele>
        <time>2024-07-02T09:20:51Z</time>
      </trkpt>
      <trkpt lat="44.88844" lon="5.25279">
        <ele>1165.1</ele>
        <time>2024-07-02T09:20:52Z</time>
      </trkpt>
      <trkpt lat="44.88844" lon="5.25279">
        <ele>1165.1</ele>
        <time>2024-07-02T09:20:53Z</time>
      </trkpt>
      <trkpt lat="44.88844" lon="5.25279">
        <ele>1165.1</ele>
        <time>2024-07-02T09:20:54Z</time>
      </trkpt>
      <trkpt lat="44.88844" lon="5.25279">
        <ele>1165.1</ele>
        <time>2024-07-02T09:20:55Z</time>
      </trkpt>
      <trkpt lat="44.88844" lon="5.25279">
        <ele>1165.1</ele>
        <time>2024-07-02T09:20:56Z</time>
      </trkpt>
      <trkpt lat="44.88844" lon="5.25279">
        <ele>1165.1</ele>
        <time>2024-07-02T09:20:57Z</time>
      </trkpt>
      <trkpt lat="44.88844" lon="5.25279">
        <ele>1165.1</ele>
        <time>2024-07-02T09:20:58Z</time>
      </trkpt>
      <trkpt lat="44.88844" lon="5.25279">
        <ele>1165.1</ele>
        <time>2024-07-02T09:20:59Z</time>
      </trkpt>
      <trkpt lat="44.88844" lon="5.25279">
        <ele>1165.1</ele>
        <time>2024-07-02T09:21:00Z</time>
      </trkpt>
      <trkpt lat="44.88844" lon="5.25279">
        <ele>1165.1</ele>
        <time>2024-07-02T09:21:01Z</time>
      </trkpt>
      <trkpt lat="44.88844" lon="5.25279">
        <ele>1165.1</ele>
        <time>2024-07-02T09:21:02Z</time>
      </trkpt>
      <trkpt lat="44.88844" lon="5.25278">
        <ele>1165.1</ele>
        <time>2024-07-02T09:21:03Z</time>
      </trkpt>
      <trkpt lat="44.88844" lon="5.25278">
        <ele>1165.2</ele>
        <time>2024-07-02T09:21:04Z</time>
      </trkpt>
      <trkpt lat="44.88844" lon="5.25278">
        <ele>1165.2</ele>
        <time>2024-07-02T09:21:05Z</time>
      </trkpt>
      <trkpt lat="44.88844" lon="5.25278">
        <ele>1165.2</ele>
        <time>2024-07-02T09:21:06Z</time>
      </trkpt>
      <trkpt lat="44.88844" lon="5.25278">
        <ele>1165.2</ele>
        <time>2024-07-02T09:21:07Z</time>
      </trkpt>
      <trkpt lat="44.88844" lon="5.25278">
        <ele>1165.2</ele>
        <time>2024-07-02T09:21:08Z</time>
      </trkpt>
      <trkpt lat="44.88844" lon="5.25278">
        <ele>1165.2</ele>
        <time>2024-07-02T09:21:09Z</time>
      </trkpt>
      <trkpt lat="44.88844" lon="5.25278">
        <ele>1165.2</ele>
        <time>2024-07-02T09:21:10Z</time>
      </trkpt>
      <trkpt lat="44.88844" lon="5.25278">
        <ele>1165.2</ele>
        <time>2024-07-02T09:21:11Z</time>
      </trkpt>
      <trkpt lat="44.88844" lon="5.25278">
        <ele>1165.2</ele>
        <time>2024-07-02T09:21:12Z</time>
      </trkpt>
      <trkpt lat="44.88844" lon="5.25278">
        <ele>1165.2</ele>
        <time>2024-07-02T09:21:13Z</time>
      </trkpt>
      <trkpt lat="44.88844" lon="5.25278">
        <ele>1165.2</ele>
        <time>2024-07-02T09:21:14Z</time>
      </trkpt>
      <trkpt lat="44.88844" lon="5.25278">
        <ele>1165.2</ele>
        <time>2024-07-02T09:21:15Z</time>
      </trkpt>
      <trkpt lat="44.88844" lon="5.25278">
        <ele>1165.2</ele>
        <time>2024-07-02T09:21:16Z</time>
      </trkpt>
      <trkpt lat="44.88844" lon="5.25278">
        <ele>1165.2</ele>
        <time>2024-07-02T09:21:17Z</time>
      </trkpt>
      <trkpt lat="44.88844" lon="5.25278">
        <ele>1165.2</ele>
        <time>2024-07-02T09:21:18Z</time>
      </trkpt>
      <trkpt lat="44.88844" lon="5.25278">
        <ele>1165.2</ele>
        <time>2024-07-02T09:21:19Z</time>
      </trkpt>
      <trkpt lat="44.88844" lon="5.25278">
        <ele>1165.2</ele>
        <time>2024-07-02T09:21:20Z</time>
      </trkpt>
      <trkpt lat="44.88844" lon="5.25278">
        <ele>1165.2</ele>
        <time>2024-07-02T09:21:21Z</time>
      </trkpt>
      <trkpt lat="44.88844" lon="5.25278">
        <ele>1165.2</ele>
        <time>2024-07-02T09:21:22Z</time>
      </trkpt>
      <trkpt lat="44.88844" lon="5.25278">
        <ele>1165.2</ele>
        <time>2024-07-02T09:21:23Z</time>
      </trkpt>
      <trkpt lat="44.88844" lon="5.25278">
        <ele>1165.2</ele>
        <time>2024-07-02T09:21:24Z</time>
      </trkpt>
      <trkpt lat="44.88844" lon="5.25278">
        <ele>1165.2</ele>
        <time>2024-07-02T09:21:25Z</time>
      </trkpt>
      <trkpt lat="44.88844" lon="5.25278">
        <ele>1165.2</ele>
        <time>2024-07-02T09:21:26Z</time>
      </trkpt>
      <trkpt lat="44.88844" lon="5.25278">
        <ele>1165.2</ele>
        <time>2024-07-02T09:21:27Z</time>
      </trkpt>
      <trkpt lat="44.88844" lon="5.25278">
        <ele>1165.2</ele>
        <time>2024-07-02T09:21:28Z</time>
      </trkpt>
      <trkpt lat="44.88844" lon="5.25278">
        <ele>1165.2</ele>
        <time>2024-07-02T09:21:29Z</time>
      </trkpt>
      <trkpt lat="44.88844" lon="5.25278">
        <ele>1165.2</ele>
        <time>2024-07-02T09:21:30Z</time>
      </trkpt>
      <trkpt lat="44.88844" lon="5.25278">
        <ele>1165.2</ele>
        <time>2024-07-02T09:21:31Z</time>
      </trkpt>
      <trkpt lat="44.88844" lon="5.25278">
        <ele>1165.2</ele>
        <time>2024-07-02T09:21:32Z</time>
      </trkpt>
      <trkpt lat="44.88845" lon="5.25278">
        <ele>1165.2</ele>
        <time>2024-07-02T09:21:33Z</time>
      </trkpt>
      <trkpt lat="44.88845" lon="5.25278">
        <ele>1165.2</ele>
        <time>2024-07-02T09:21:34Z</time>
      </trkpt>
      <trkpt lat="44.88845" lon="5.25278">
        <ele>1165.2</ele>
        <time>2024-07-02T09:21:35Z</time>
      </trkpt>
      <trkpt lat="44.88845" lon="5.25278">
        <ele>1165.2</ele>
        <time>2024-07-02T09:21:36Z</time>
      </trkpt>
      <trkpt lat="44.88845" lon="5.25278">
        <ele>1165.2</ele>
        <time>2024-07-02T09:21:37Z</time>
      </trkpt>
      <trkpt lat="44.88845" lon="5.25278">
        <ele>1165.2</ele>
        <time>2024-07-02T09:21:38Z</time>
      </trkpt>
      <trkpt lat="44.88844" lon="5.25278">
        <ele>1165.2</ele>
        <time>2024-07-02T09:21:39Z</time>
      </trkpt>
      <trkpt lat="44.88844" lon="5.25277">
        <ele>1165.1</ele>
        <time>2024-07-02T09:21:40Z</time>
      </trkpt>
      <trkpt lat="44.88843" lon="5.25277">
        <ele>1165.1</ele>
        <time>2024-07-02T09:21:41Z</time>
      </trkpt>
      <trkpt lat="44.88842" lon="5.25276">
        <ele>1165.1</ele>
        <time>2024-07-02T09:21:42Z</time>
      </trkpt>
      <trkpt lat="44.88841" lon="5.25276">
        <ele>1165.1</ele>
        <time>2024-07-02T09:21:43Z</time>
      </trkpt>
      <trkpt lat="44.8884" lon="5.25275">
        <ele>1165.1</ele>
        <time>2024-07-02T09:21:44Z</time>
      </trkpt>
      <trkpt lat="44.8884" lon="5.25275">
        <ele>1165.1</ele>
        <time>2024-07-02T09:21:45Z</time>
      </trkpt>
      <trkpt lat="44.88839" lon="5.25275">
        <ele>1165.1</ele>
        <time>2024-07-02T09:21:46Z</time>
      </trkpt>
      <trkpt lat="44.88838" lon="5.25274">
        <ele>1165.1</ele>
        <time>2024-07-02T09:21:47Z</time>
      </trkpt>
      <trkpt lat="44.88836" lon="5.25273">
        <ele>1165</ele>
        <time>2024-07-02T09:21:48Z</time>
      </trkpt>
      <trkpt lat="44.88835" lon="5.25272">
        <ele>1165</ele>
        <time>2024-07-02T09:21:49Z</time>
      </trkpt>
      <trkpt lat="44.88834" lon="5.25271">
        <ele>1165</ele>
        <time>2024-07-02T09:21:50Z</time>
      </trkpt>
      <trkpt lat="44.88833" lon="5.25271">
        <ele>1165</ele>
        <time>2024-07-02T09:21:51Z</time>
      </trkpt>
      <trkpt lat="44.88832" lon="5.25271">
        <ele>1165</ele>
        <time>2024-07-02T09:21:52Z</time>
      </trkpt>
      <trkpt lat="44.88831" lon="5.25272">
        <ele>1165</ele>
        <time>2024-07-02T09:21:53Z</time>
      </trkpt>
      <trkpt lat="44.8883" lon="5.25272">
        <ele>1165</ele>
        <time>2024-07-02T09:21:54Z</time>
      </trkpt>
      <trkpt lat="44.88829" lon="5.25272">
        <ele>1165</ele>
        <time>2024-07-02T09:21:55Z</time>
      </trkpt>
      <trkpt lat="44.88828" lon="5.25272">
        <ele>1165</ele>
        <time>2024-07-02T09:21:56Z</time>
      </trkpt>
      <trkpt lat="44.88827" lon="5.25272">
        <ele>1164.9</ele>
        <time>2024-07-02T09:21:57Z</time>
      </trkpt>
      <trkpt lat="44.88826" lon="5.25272">
        <ele>1164.9</ele>
        <time>2024-07-02T09:21:58Z</time>
      </trkpt>
      <trkpt lat="44.88825" lon="5.25271">
        <ele>1164.9</ele>
        <time>2024-07-02T09:21:59Z</time>
      </trkpt>
      <trkpt lat="44.88825" lon="5.25271">
        <ele>1164.9</ele>
        <time>2024-07-02T09:22:00Z</time>
      </trkpt>
      <trkpt lat="44.88824" lon="5.2527">
        <ele>1164.9</ele>
        <time>2024-07-02T09:22:01Z</time>
      </trkpt>
      <trkpt lat="44.88823" lon="5.25269">
        <ele>1164.9</ele>
        <time>2024-07-02T09:22:02Z</time>
      </trkpt>
      <trkpt lat="44.88822" lon="5.25268">
        <ele>1164.9</ele>
        <time>2024-07-02T09:22:03Z</time>
      </trkpt>
      <trkpt lat="44.88821" lon="5.25268">
        <ele>1164.9</ele>
        <time>2024-07-02T09:22:04Z</time>
      </trkpt>
      <trkpt lat="44.8882" lon="5.25267">
        <ele>1164.9</ele>
        <time>2024-07-02T09:22:05Z</time>
      </trkpt>
      <trkpt lat="44.88819" lon="5.25267">
        <ele>1164.9</ele>
        <time>2024-07-02T09:22:06Z</time>
      </trkpt>
      <trkpt lat="44.88818" lon="5.25266">
        <ele>1164.8</ele>
        <time>2024-07-02T09:22:07Z</time>
      </trkpt>
      <trkpt lat="44.88817" lon="5.25266">
        <ele>1164.8</ele>
        <time>2024-07-02T09:22:08Z</time>
      </trkpt>
      <trkpt lat="44.88816" lon="5.25265">
        <ele>1164.8</ele>
        <time>2024-07-02T09:22:09Z</time>
      </trkpt>
      <trkpt lat="44.88815" lon="5.25264">
        <ele>1164.8</ele>
        <time>2024-07-02T09:22:10Z</time>
      </trkpt>
      <trkpt lat="44.88814" lon="5.25264">
        <ele>1164.8</ele>
        <time>2024-07-02T09:22:11Z</time>
      </trkpt>
      <trkpt lat="44.88813" lon="5.25263">
        <ele>1164.8</ele>
        <time>2024-07-02T09:22:12Z</time>
      </trkpt>
      <trkpt lat="44.88812" lon="5.25263">
        <ele>1164.8</ele>
        <time>2024-07-02T09:22:13Z</time>
      </trkpt>
      <trkpt lat="44.88811" lon="5.25262">
        <ele>1164.8</ele>
        <time>2024-07-02T09:22:14Z</time>
      </trkpt>
      <trkpt lat="44.8881" lon="5.25261">
        <ele>1164.9</ele>
        <time>2024-07-02T09:22:15Z</time>
      </trkpt>
      <trkpt lat="44.88809" lon="5.2526">
        <ele>1164.9</ele>
        <time>2024-07-02T09:22:16Z</time>
      </trkpt>
      <trkpt lat="44.88808" lon="5.2526">
        <ele>1164.9</ele>
        <time>2024-07-02T09:22:17Z</time>
      </trkpt>
      <trkpt lat="44.88807" lon="5.25259">
        <ele>1164.9</ele>
        <time>2024-07-02T09:22:18Z</time>
      </trkpt>
      <trkpt lat="44.88806" lon="5.25259">
        <ele>1164.9</ele>
        <time>2024-07-02T09:22:19Z</time>
      </trkpt>
      <trkpt lat="44.88805" lon="5.25258">
        <ele>1165</ele>
        <time>2024-07-02T09:22:20Z</time>
      </trkpt>
      <trkpt lat="44.88804" lon="5.25258">
        <ele>1165</ele>
        <time>2024-07-02T09:22:21Z</time>
      </trkpt>
      <trkpt lat="44.88803" lon="5.25258">
        <ele>1165</ele>
        <time>2024-07-02T09:22:22Z</time>
      </trkpt>
      <trkpt lat="44.88802" lon="5.25257">
        <ele>1165</ele>
        <time>2024-07-02T09:22:23Z</time>
      </trkpt>
      <trkpt lat="44.88801" lon="5.25257">
        <ele>1165</ele>
        <time>2024-07-02T09:22:24Z</time>
      </trkpt>
      <trkpt lat="44.888" lon="5.25257">
        <ele>1165</ele>
        <time>2024-07-02T09:22:25Z</time>
      </trkpt>
      <trkpt lat="44.88799" lon="5.25256">
        <ele>1165</ele>
        <time>2024-07-02T09:22:26Z</time>
      </trkpt>
      <trkpt lat="44.88798" lon="5.25256">
        <ele>1165</ele>
        <time>2024-07-02T09:22:27Z</time>
      </trkpt>
      <trkpt lat="44.88796" lon="5.25256">
        <ele>1165.1</ele>
        <time>2024-07-02T09:22:28Z</time>
      </trkpt>
      <trkpt lat="44.88795" lon="5.25256">
        <ele>1165.1</ele>
        <time>2024-07-02T09:22:29Z</time>
      </trkpt>
      <trkpt lat="44.88794" lon="5.25255">
        <ele>1165.1</ele>
        <time>2024-07-02T09:22:30Z</time>
      </trkpt>
      <trkpt lat="44.88793" lon="5.25255">
        <ele>1165.1</ele>
        <time>2024-07-02T09:22:31Z</time>
      </trkpt>
      <trkpt lat="44.88792" lon="5.25255">
        <ele>1165.1</ele>
        <time>2024-07-02T09:22:32Z</time>
      </trkpt>
      <trkpt lat="44.88791" lon="5.25255">
        <ele>1165.1</ele>
        <time>2024-07-02T09:22:33Z</time>
      </trkpt>
      <trkpt lat="44.8879" lon="5.25255">
        <ele>1165.1</ele>
        <time>2024-07-02T09:22:34Z</time>
      </trkpt>
      <trkpt lat="44.88789" lon="5.25255">
        <ele>1165.1</ele>
        <time>2024-07-02T09:22:35Z</time>
      </trkpt>
      <trkpt lat="44.88788" lon="5.25255">
        <ele>1165.1</ele>
        <time>2024-07-02T09:22:36Z</time>
      </trkpt>
      <trkpt lat="44.88786" lon="5.25254">
        <ele>1165.2</ele>
        <time>2024-07-02T09:22:37Z</time>
      </trkpt>
      <trkpt lat="44.88785" lon="5.25253">
        <ele>1165.2</ele>
        <time>2024-07-02T09:22:38Z</time>
      </trkpt>
      <trkpt lat="44.88785" lon="5.25252">
        <ele>1165.2</ele>
        <time>2024-07-02T09:22:39Z</time>
      </trkpt>
      <trkpt lat="44.88784" lon="5.25252">
        <ele>1165.2</ele>
        <time>2024-07-02T09:22:40Z</time>
      </trkpt>
      <trkpt lat="44.88782" lon="5.25252">
        <ele>1165.2</ele>
        <time>2024-07-02T09:22:41Z</time>
      </trkpt>
      <trkpt lat="44.88781" lon="5.25252">
        <ele>1165.2</ele>
        <time>2024-07-02T09:22:42Z</time>
      </trkpt>
      <trkpt lat="44.88779" lon="5.25251">
        <ele>1165.2</ele>
        <time>2024-07-02T09:22:43Z</time>
      </trkpt>
      <trkpt lat="44.88778" lon="5.2525">
        <ele>1165.2</ele>
        <time>2024-07-02T09:22:44Z</time>
      </trkpt>
      <trkpt lat="44.88778" lon="5.2525">
        <ele>1165.2</ele>
        <time>2024-07-02T09:22:45Z</time>
      </trkpt>
      <trkpt lat="44.88776" lon="5.25249">
        <ele>1165.3</ele>
        <time>2024-07-02T09:22:46Z</time>
      </trkpt>
      <trkpt lat="44.88775" lon="5.25248">
        <ele>1165.3</ele>
        <time>2024-07-02T09:22:47Z</time>
      </trkpt>
      <trkpt lat="44.88775" lon="5.25247">
        <ele>1165.3</ele>
        <time>2024-07-02T09:22:48Z</time>
      </trkpt>
      <trkpt lat="44.88773" lon="5.25246">
        <ele>1165.3</ele>
        <time>2024-07-02T09:22:49Z</time>
      </trkpt>
      <trkpt lat="44.88772" lon="5.25246">
        <ele>1165.3</ele>
        <time>2024-07-02T09:22:50Z</time>
      </trkpt>
      <trkpt lat="44.88771" lon="5.25246">
        <ele>1165.3</ele>
        <time>2024-07-02T09:22:51Z</time>
      </trkpt>
      <trkpt lat="44.88769" lon="5.25245">
        <ele>1165.4</ele>
        <time>2024-07-02T09:22:52Z</time>
      </trkpt>
      <trkpt lat="44.88768" lon="5.25245">
        <ele>1165.4</ele>
        <time>2024-07-02T09:22:53Z</time>
      </trkpt>
      <trkpt lat="44.88767" lon="5.25245">
        <ele>1165.4</ele>
        <time>2024-07-02T09:22:54Z</time>
      </trkpt>
      <trkpt lat="44.88765" lon="5.25245">
        <ele>1165.4</ele>
        <time>2024-07-02T09:22:55Z</time>
      </trkpt>
      <trkpt lat="44.88764" lon="5.25245">
        <ele>1165.4</ele>
        <time>2024-07-02T09:22:56Z</time>
      </trkpt>
      <trkpt lat="44.88764" lon="5.25245">
        <ele>1165.5</ele>
        <time>2024-07-02T09:22:57Z</time>
      </trkpt>
      <trkpt lat="44.88762" lon="5.25245">
        <ele>1165.5</ele>
        <time>2024-07-02T09:22:58Z</time>
      </trkpt>
      <trkpt lat="44.88761" lon="5.25245">
        <ele>1165.5</ele>
        <time>2024-07-02T09:22:59Z</time>
      </trkpt>
      <trkpt lat="44.8876" lon="5.25245">
        <ele>1165.5</ele>
        <time>2024-07-02T09:23:00Z</time>
      </trkpt>
      <trkpt lat="44.88759" lon="5.25244">
        <ele>1165.6</ele>
        <time>2024-07-02T09:23:01Z</time>
      </trkpt>
      <trkpt lat="44.88758" lon="5.25244">
        <ele>1165.6</ele>
        <time>2024-07-02T09:23:02Z</time>
      </trkpt>
      <trkpt lat="44.88756" lon="5.25244">
        <ele>1165.6</ele>
        <time>2024-07-02T09:23:03Z</time>
      </trkpt>
      <trkpt lat="44.88754" lon="5.25243">
        <ele>1165.6</ele>
        <time>2024-07-02T09:23:04Z</time>
      </trkpt>
      <trkpt lat="44.88754" lon="5.25243">
        <ele>1165.7</ele>
        <time>2024-07-02T09:23:05Z</time>
      </trkpt>
      <trkpt lat="44.88753" lon="5.25243">
        <ele>1165.7</ele>
        <time>2024-07-02T09:23:06Z</time>
      </trkpt>
      <trkpt lat="44.88751" lon="5.25242">
        <ele>1165.7</ele>
        <time>2024-07-02T09:23:07Z</time>
      </trkpt>
      <trkpt lat="44.8875" lon="5.25242">
        <ele>1165.8</ele>
        <time>2024-07-02T09:23:08Z</time>
      </trkpt>
      <trkpt lat="44.88749" lon="5.25242">
        <ele>1165.8</ele>
        <time>2024-07-02T09:23:09Z</time>
      </trkpt>
      <trkpt lat="44.88747" lon="5.25242">
        <ele>1165.8</ele>
        <time>2024-07-02T09:23:10Z</time>
      </trkpt>
      <trkpt lat="44.88746" lon="5.25242">
        <ele>1165.9</ele>
        <time>2024-07-02T09:23:11Z</time>
      </trkpt>
      <trkpt lat="44.88745" lon="5.25242">
        <ele>1165.9</ele>
        <time>2024-07-02T09:23:12Z</time>
      </trkpt>
      <trkpt lat="44.88744" lon="5.25242">
        <ele>1165.9</ele>
        <time>2024-07-02T09:23:13Z</time>
      </trkpt>
      <trkpt lat="44.88743" lon="5.25242">
        <ele>1166</ele>
        <time>2024-07-02T09:23:14Z</time>
      </trkpt>
      <trkpt lat="44.88742" lon="5.25242">
        <ele>1166</ele>
        <time>2024-07-02T09:23:15Z</time>
      </trkpt>
      <trkpt lat="44.8874" lon="5.25241">
        <ele>1166.1</ele>
        <time>2024-07-02T09:23:16Z</time>
      </trkpt>
      <trkpt lat="44.88739" lon="5.25241">
        <ele>1166.1</ele>
        <time>2024-07-02T09:23:17Z</time>
      </trkpt>
      <trkpt lat="44.88738" lon="5.25241">
        <ele>1166.1</ele>
        <time>2024-07-02T09:23:18Z</time>
      </trkpt>
      <trkpt lat="44.88736" lon="5.25241">
        <ele>1166.2</ele>
        <time>2024-07-02T09:23:19Z</time>
      </trkpt>
      <trkpt lat="44.88735" lon="5.25241">
        <ele>1166.2</ele>
        <time>2024-07-02T09:23:20Z</time>
      </trkpt>
      <trkpt lat="44.88734" lon="5.25241">
        <ele>1166.3</ele>
        <time>2024-07-02T09:23:21Z</time>
      </trkpt>
      <trkpt lat="44.88733" lon="5.25241">
        <ele>1166.3</ele>
        <time>2024-07-02T09:23:22Z</time>
      </trkpt>
      <trkpt lat="44.88732" lon="5.25241">
        <ele>1166.4</ele>
        <time>2024-07-02T09:23:23Z</time>
      </trkpt>
      <trkpt lat="44.88731" lon="5.2524">
        <ele>1166.4</ele>
        <time>2024-07-02T09:23:24Z</time>
      </trkpt>
      <trkpt lat="44.8873" lon="5.25243">
        <ele>1166.5</ele>
        <time>2024-07-02T09:23:25Z</time>
      </trkpt>
      <trkpt lat="44.88729" lon="5.25244">
        <ele>1166.5</ele>
        <time>2024-07-02T09:23:26Z</time>
      </trkpt>
      <trkpt lat="44.88729" lon="5.25246">
        <ele>1166.6</ele>
        <time>2024-07-02T09:23:27Z</time>
      </trkpt>
      <trkpt lat="44.88728" lon="5.25244">
        <ele>1166.7</ele>
        <time>2024-07-02T09:23:28Z</time>
      </trkpt>
      <trkpt lat="44.88726" lon="5.25243">
        <ele>1166.7</ele>
        <time>2024-07-02T09:23:29Z</time>
      </trkpt>
      <trkpt lat="44.88725" lon="5.25243">
        <ele>1166.8</ele>
        <time>2024-07-02T09:23:30Z</time>
      </trkpt>
      <trkpt lat="44.88724" lon="5.25242">
        <ele>1166.8</ele>
        <time>2024-07-02T09:23:31Z</time>
      </trkpt>
      <trkpt lat="44.88722" lon="5.25242">
        <ele>1166.9</ele>
        <time>2024-07-02T09:23:32Z</time>
      </trkpt>
      <trkpt lat="44.88721" lon="5.25242">
        <ele>1166.9</ele>
        <time>2024-07-02T09:23:33Z</time>
      </trkpt>
      <trkpt lat="44.8872" lon="5.25241">
        <ele>1167</ele>
        <time>2024-07-02T09:23:34Z</time>
      </trkpt>
      <trkpt lat="44.88718" lon="5.25241">
        <ele>1167</ele>
        <time>2024-07-02T09:23:35Z</time>
      </trkpt>
      <trkpt lat="44.88717" lon="5.2524">
        <ele>1167.1</ele>
        <time>2024-07-02T09:23:36Z</time>
      </trkpt>
      <trkpt lat="44.88716" lon="5.2524">
        <ele>1167.1</ele>
        <time>2024-07-02T09:23:37Z</time>
      </trkpt>
      <trkpt lat="44.88714" lon="5.25239">
        <ele>1167.2</ele>
        <time>2024-07-02T09:23:38Z</time>
      </trkpt>
      <trkpt lat="44.88713" lon="5.25239">
        <ele>1167.2</ele>
        <time>2024-07-02T09:23:39Z</time>
      </trkpt>
      <trkpt lat="44.88713" lon="5.25238">
        <ele>1167.2</ele>
        <time>2024-07-02T09:23:40Z</time>
      </trkpt>
      <trkpt lat="44.88712" lon="5.25238">
        <ele>1167.3</ele>
        <time>2024-07-02T09:23:41Z</time>
      </trkpt>
      <trkpt lat="44.8871" lon="5.25237">
        <ele>1167.3</ele>
        <time>2024-07-02T09:23:42Z</time>
      </trkpt>
      <trkpt lat="44.8871" lon="5.25237">
        <ele>1167.3</ele>
        <time>2024-07-02T09:23:43Z</time>
      </trkpt>
      <trkpt lat="44.88708" lon="5.25236">
        <ele>1167.4</ele>
        <time>2024-07-02T09:23:44Z</time>
      </trkpt>
      <trkpt lat="44.88707" lon="5.25236">
        <ele>1167.4</ele>
        <time>2024-07-02T09:23:45Z</time>
      </trkpt>
      <trkpt lat="44.88706" lon="5.25235">
        <ele>1167.5</ele>
        <time>2024-07-02T09:23:46Z</time>
      </trkpt>
      <trkpt lat="44.88705" lon="5.25235">
        <ele>1167.5</ele>
        <time>2024-07-02T09:23:47Z</time>
      </trkpt>
      <trkpt lat="44.88704" lon="5.25234">
        <ele>1167.6</ele>
        <time>2024-07-02T09:23:48Z</time>
      </trkpt>
      <trkpt lat="44.88703" lon="5.25234">
        <ele>1167.6</ele>
        <time>2024-07-02T09:23:49Z</time>
      </trkpt>
      <trkpt lat="44.88702" lon="5.25233">
        <ele>1167.6</ele>
        <time>2024-07-02T09:23:50Z</time>
      </trkpt>
      <trkpt lat="44.88701" lon="5.25233">
        <ele>1167.7</ele>
        <time>2024-07-02T09:23:51Z</time>
      </trkpt>
      <trkpt lat="44.887" lon="5.25232">
        <ele>1167.7</ele>
        <time>2024-07-02T09:23:52Z</time>
      </trkpt>
      <trkpt lat="44.88698" lon="5.25231">
        <ele>1167.8</ele>
        <time>2024-07-02T09:23:53Z</time>
      </trkpt>
      <trkpt lat="44.88697" lon="5.25231">
        <ele>1167.9</ele>
        <time>2024-07-02T09:23:54Z</time>
      </trkpt>
      <trkpt lat="44.88696" lon="5.25231">
        <ele>1167.9</ele>
        <time>2024-07-02T09:23:55Z</time>
      </trkpt>
      <trkpt lat="44.88695" lon="5.2523">
        <ele>1167.9</ele>
        <time>2024-07-02T09:23:56Z</time>
      </trkpt>
      <trkpt lat="44.88693" lon="5.2523">
        <ele>1168</ele>
        <time>2024-07-02T09:23:57Z</time>
      </trkpt>
      <trkpt lat="44.88692" lon="5.2523">
        <ele>1168.1</ele>
        <time>2024-07-02T09:23:58Z</time>
      </trkpt>
      <trkpt lat="44.88691" lon="5.25229">
        <ele>1168.1</ele>
        <time>2024-07-02T09:23:59Z</time>
      </trkpt>
      <trkpt lat="44.88689" lon="5.25229">
        <ele>1168.2</ele>
        <time>2024-07-02T09:24:00Z</time>
      </trkpt>
      <trkpt lat="44.88688" lon="5.25228">
        <ele>1168.3</ele>
        <time>2024-07-02T09:24:01Z</time>
      </trkpt>
      <trkpt lat="44.88686" lon="5.25228">
        <ele>1168.3</ele>
        <time>2024-07-02T09:24:02Z</time>
      </trkpt>
      <trkpt lat="44.88685" lon="5.25228">
        <ele>1168.4</ele>
        <time>2024-07-02T09:24:03Z</time>
      </trkpt>
      <trkpt lat="44.88683" lon="5.25227">
        <ele>1168.5</ele>
        <time>2024-07-02T09:24:04Z</time>
      </trkpt>
      <trkpt lat="44.88682" lon="5.25227">
        <ele>1168.6</ele>
        <time>2024-07-02T09:24:05Z</time>
      </trkpt>
      <trkpt lat="44.8868" lon="5.25227">
        <ele>1168.7</ele>
        <time>2024-07-02T09:24:06Z</time>
      </trkpt>
      <trkpt lat="44.88679" lon="5.25227">
        <ele>1168.7</ele>
        <time>2024-07-02T09:24:07Z</time>
      </trkpt>
      <trkpt lat="44.88678" lon="5.25226">
        <ele>1168.8</ele>
        <time>2024-07-02T09:24:08Z</time>
      </trkpt>
      <trkpt lat="44.88676" lon="5.25226">
        <ele>1168.9</ele>
        <time>2024-07-02T09:24:09Z</time>
      </trkpt>
      <trkpt lat="44.88675" lon="5.25226">
        <ele>1168.9</ele>
        <time>2024-07-02T09:24:10Z</time>
      </trkpt>
      <trkpt lat="44.88674" lon="5.25225">
        <ele>1168.9</ele>
        <time>2024-07-02T09:24:11Z</time>
      </trkpt>
      <trkpt lat="44.88672" lon="5.25225">
        <ele>1169.1</ele>
        <time>2024-07-02T09:24:12Z</time>
      </trkpt>
      <trkpt lat="44.88672" lon="5.25225">
        <ele>1169.1</ele>
        <time>2024-07-02T09:24:13Z</time>
      </trkpt>
      <trkpt lat="44.88671" lon="5.25224">
        <ele>1169.1</ele>
        <time>2024-07-02T09:24:14Z</time>
      </trkpt>
      <trkpt lat="44.88669" lon="5.25224">
        <ele>1169.3</ele>
        <time>2024-07-02T09:24:15Z</time>
      </trkpt>
      <trkpt lat="44.88668" lon="5.25224">
        <ele>1169.3</ele>
        <time>2024-07-02T09:24:16Z</time>
      </trkpt>
      <trkpt lat="44.88667" lon="5.25224">
        <ele>1169.3</ele>
        <time>2024-07-02T09:24:17Z</time>
      </trkpt>
      <trkpt lat="44.88665" lon="5.25223">
        <ele>1169.4</ele>
        <time>2024-07-02T09:24:18Z</time>
      </trkpt>
      <trkpt lat="44.88664" lon="5.25223">
        <ele>1169.5</ele>
        <time>2024-07-02T09:24:19Z</time>
      </trkpt>
      <trkpt lat="44.88663" lon="5.25223">
        <ele>1169.5</ele>
        <time>2024-07-02T09:24:20Z</time>
      </trkpt>
      <trkpt lat="44.88662" lon="5.25223">
        <ele>1169.6</ele>
        <time>2024-07-02T09:24:21Z</time>
      </trkpt>
      <trkpt lat="44.88661" lon="5.25223">
        <ele>1169.7</ele>
        <time>2024-07-02T09:24:22Z</time>
      </trkpt>
      <trkpt lat="44.8866" lon="5.25222">
        <ele>1169.7</ele>
        <time>2024-07-02T09:24:23Z</time>
      </trkpt>
      <trkpt lat="44.88659" lon="5.25222">
        <ele>1169.8</ele>
        <time>2024-07-02T09:24:24Z</time>
      </trkpt>
      <trkpt lat="44.88658" lon="5.25221">
        <ele>1169.9</ele>
        <time>2024-07-02T09:24:25Z</time>
      </trkpt>
      <trkpt lat="44.88657" lon="5.25221">
        <ele>1169.9</ele>
        <time>2024-07-02T09:24:26Z</time>
      </trkpt>
      <trkpt lat="44.88655" lon="5.2522">
        <ele>1170</ele>
        <time>2024-07-02T09:24:27Z</time>
      </trkpt>
      <trkpt lat="44.88654" lon="5.2522">
        <ele>1170</ele>
        <time>2024-07-02T09:24:28Z</time>
      </trkpt>
      <trkpt lat="44.88653" lon="5.2522">
        <ele>1170.1</ele>
        <time>2024-07-02T09:24:29Z</time>
      </trkpt>
      <trkpt lat="44.88652" lon="5.25219">
        <ele>1170.1</ele>
        <time>2024-07-02T09:24:30Z</time>
      </trkpt>
      <trkpt lat="44.88651" lon="5.25219">
        <ele>1170.2</ele>
        <time>2024-07-02T09:24:31Z</time>
      </trkpt>
      <trkpt lat="44.8865" lon="5.25219">
        <ele>1170.2</ele>
        <time>2024-07-02T09:24:32Z</time>
      </trkpt>
      <trkpt lat="44.88649" lon="5.25219">
        <ele>1170.3</ele>
        <time>2024-07-02T09:24:33Z</time>
      </trkpt>
      <trkpt lat="44.88648" lon="5.25219">
        <ele>1170.3</ele>
        <time>2024-07-02T09:24:34Z</time>
      </trkpt>
      <trkpt lat="44.88647" lon="5.25219">
        <ele>1170.4</ele>
        <time>2024-07-02T09:24:35Z</time>
      </trkpt>
      <trkpt lat="44.88646" lon="5.25218">
        <ele>1170.5</ele>
        <time>2024-07-02T09:24:36Z</time>
      </trkpt>
      <trkpt lat="44.88644" lon="5.25218">
        <ele>1170.5</ele>
        <time>2024-07-02T09:24:37Z</time>
      </trkpt>
      <trkpt lat="44.88643" lon="5.25218">
        <ele>1170.6</ele>
        <time>2024-07-02T09:24:38Z</time>
      </trkpt>
      <trkpt lat="44.88642" lon="5.25217">
        <ele>1170.6</ele>
        <time>2024-07-02T09:24:39Z</time>
      </trkpt>
      <trkpt lat="44.88641" lon="5.25217">
        <ele>1170.7</ele>
        <time>2024-07-02T09:24:40Z</time>
      </trkpt>
      <trkpt lat="44.8864" lon="5.25216">
        <ele>1170.7</ele>
        <time>2024-07-02T09:24:41Z</time>
      </trkpt>
      <trkpt lat="44.88638" lon="5.25215">
        <ele>1170.8</ele>
        <time>2024-07-02T09:24:42Z</time>
      </trkpt>
      <trkpt lat="44.88637" lon="5.25215">
        <ele>1170.9</ele>
        <time>2024-07-02T09:24:43Z</time>
      </trkpt>
      <trkpt lat="44.88636" lon="5.25215">
        <ele>1170.9</ele>
        <time>2024-07-02T09:24:44Z</time>
      </trkpt>
      <trkpt lat="44.88635" lon="5.25215">
        <ele>1171</ele>
        <time>2024-07-02T09:24:45Z</time>
      </trkpt>
      <trkpt lat="44.88633" lon="5.25214">
        <ele>1171</ele>
        <time>2024-07-02T09:24:46Z</time>
      </trkpt>
      <trkpt lat="44.88632" lon="5.25214">
        <ele>1171.1</ele>
        <time>2024-07-02T09:24:47Z</time>
      </trkpt>
      <trkpt lat="44.88631" lon="5.25214">
        <ele>1171.2</ele>
        <time>2024-07-02T09:24:48Z</time>
      </trkpt>
      <trkpt lat="44.88629" lon="5.25214">
        <ele>1171.2</ele>
        <time>2024-07-02T09:24:49Z</time>
      </trkpt>
      <trkpt lat="44.88628" lon="5.25214">
        <ele>1171.3</ele>
        <time>2024-07-02T09:24:50Z</time>
      </trkpt>
      <trkpt lat="44.88626" lon="5.25214">
        <ele>1171.4</ele>
        <time>2024-07-02T09:24:51Z</time>
      </trkpt>
      <trkpt lat="44.88625" lon="5.25214">
        <ele>1171.4</ele>
        <time>2024-07-02T09:24:52Z</time>
      </trkpt>
      <trkpt lat="44.88624" lon="5.25214">
        <ele>1171.4</ele>
        <time>2024-07-02T09:24:53Z</time>
      </trkpt>
      <trkpt lat="44.88623" lon="5.25213">
        <ele>1171.5</ele>
        <time>2024-07-02T09:24:54Z</time>
      </trkpt>
      <trkpt lat="44.88622" lon="5.25213">
        <ele>1171.5</ele>
        <time>2024-07-02T09:24:55Z</time>
      </trkpt>
      <trkpt lat="44.88621" lon="5.25213">
        <ele>1171.6</ele>
        <time>2024-07-02T09:24:56Z</time>
      </trkpt>
      <trkpt lat="44.8862" lon="5.25212">
        <ele>1171.6</ele>
        <time>2024-07-02T09:24:57Z</time>
      </trkpt>
      <trkpt lat="44.88619" lon="5.25212">
        <ele>1171.7</ele>
        <time>2024-07-02T09:24:58Z</time>
      </trkpt>
      <trkpt lat="44.88618" lon="5.25212">
        <ele>1171.7</ele>
        <time>2024-07-02T09:24:59Z</time>
      </trkpt>
      <trkpt lat="44.88616" lon="5.25212">
        <ele>1171.8</ele>
        <time>2024-07-02T09:25:00Z</time>
      </trkpt>
      <trkpt lat="44.88615" lon="5.25212">
        <ele>1171.8</ele>
        <time>2024-07-02T09:25:01Z</time>
      </trkpt>
      <trkpt lat="44.88614" lon="5.25212">
        <ele>1171.8</ele>
        <time>2024-07-02T09:25:02Z</time>
      </trkpt>
      <trkpt lat="44.88613" lon="5.25212">
        <ele>1171.9</ele>
        <time>2024-07-02T09:25:03Z</time>
      </trkpt>
      <trkpt lat="44.88612" lon="5.25212">
        <ele>1171.9</ele>
        <time>2024-07-02T09:25:04Z</time>
      </trkpt>
      <trkpt lat="44.88611" lon="5.25212">
        <ele>1172</ele>
        <time>2024-07-02T09:25:05Z</time>
      </trkpt>
      <trkpt lat="44.8861" lon="5.25212">
        <ele>1172</ele>
        <time>2024-07-02T09:25:06Z</time>
      </trkpt>
      <trkpt lat="44.88609" lon="5.25212">
        <ele>1172.1</ele>
        <time>2024-07-02T09:25:07Z</time>
      </trkpt>
      <trkpt lat="44.88608" lon="5.25211">
        <ele>1172.1</ele>
        <time>2024-07-02T09:25:08Z</time>
      </trkpt>
      <trkpt lat="44.88606" lon="5.25211">
        <ele>1172.1</ele>
        <time>2024-07-02T09:25:09Z</time>
      </trkpt>
      <trkpt lat="44.88606" lon="5.25211">
        <ele>1172.2</ele>
        <time>2024-07-02T09:25:10Z</time>
      </trkpt>
      <trkpt lat="44.88604" lon="5.2521">
        <ele>1172.2</ele>
        <time>2024-07-02T09:25:11Z</time>
      </trkpt>
      <trkpt lat="44.88603" lon="5.2521">
        <ele>1172.3</ele>
        <time>2024-07-02T09:25:12Z</time>
      </trkpt>
      <trkpt lat="44.88602" lon="5.2521">
        <ele>1172.3</ele>
        <time>2024-07-02T09:25:13Z</time>
      </trkpt>
      <trkpt lat="44.88601" lon="5.2521">
        <ele>1172.3</ele>
        <time>2024-07-02T09:25:14Z</time>
      </trkpt>
      <trkpt lat="44.886" lon="5.2521">
        <ele>1172.4</ele>
        <time>2024-07-02T09:25:15Z</time>
      </trkpt>
      <trkpt lat="44.88599" lon="5.25209">
        <ele>1172.4</ele>
        <time>2024-07-02T09:25:16Z</time>
      </trkpt>
      <trkpt lat="44.88598" lon="5.25209">
        <ele>1172.4</ele>
        <time>2024-07-02T09:25:17Z</time>
      </trkpt>
      <trkpt lat="44.88597" lon="5.25209">
        <ele>1172.5</ele>
        <time>2024-07-02T09:25:18Z</time>
      </trkpt>
      <trkpt lat="44.88596" lon="5.25208">
        <ele>1172.5</ele>
        <time>2024-07-02T09:25:19Z</time>
      </trkpt>
      <trkpt lat="44.88595" lon="5.25208">
        <ele>1172.5</ele>
        <time>2024-07-02T09:25:20Z</time>
      </trkpt>
      <trkpt lat="44.88594" lon="5.25208">
        <ele>1172.6</ele>
        <time>2024-07-02T09:25:21Z</time>
      </trkpt>
      <trkpt lat="44.88593" lon="5.25207">
        <ele>1172.6</ele>
        <time>2024-07-02T09:25:22Z</time>
      </trkpt>
      <trkpt lat="44.88592" lon="5.25207">
        <ele>1172.6</ele>
        <time>2024-07-02T09:25:23Z</time>
      </trkpt>
      <trkpt lat="44.8859" lon="5.25207">
        <ele>1172.7</ele>
        <time>2024-07-02T09:25:24Z</time>
      </trkpt>
      <trkpt lat="44.88589" lon="5.25206">
        <ele>1172.7</ele>
        <time>2024-07-02T09:25:25Z</time>
      </trkpt>
      <trkpt lat="44.88588" lon="5.25206">
        <ele>1172.8</ele>
        <time>2024-07-02T09:25:26Z</time>
      </trkpt>
      <trkpt lat="44.88587" lon="5.25206">
        <ele>1172.8</ele>
        <time>2024-07-02T09:25:27Z</time>
      </trkpt>
      <trkpt lat="44.88585" lon="5.25206">
        <ele>1172.8</ele>
        <time>2024-07-02T09:25:28Z</time>
      </trkpt>
      <trkpt lat="44.88583" lon="5.25206">
        <ele>1172.9</ele>
        <time>2024-07-02T09:25:29Z</time>
      </trkpt>
      <trkpt lat="44.88582" lon="5.25205">
        <ele>1172.9</ele>
        <time>2024-07-02T09:25:30Z</time>
      </trkpt>
      <trkpt lat="44.88581" lon="5.25205">
        <ele>1173</ele>
        <time>2024-07-02T09:25:31Z</time>
      </trkpt>
      <trkpt lat="44.88579" lon="5.25205">
        <ele>1173</ele>
        <time>2024-07-02T09:25:32Z</time>
      </trkpt>
      <trkpt lat="44.88578" lon="5.25205">
        <ele>1173</ele>
        <time>2024-07-02T09:25:33Z</time>
      </trkpt>
      <trkpt lat="44.88577" lon="5.25205">
        <ele>1173</ele>
        <time>2024-07-02T09:25:34Z</time>
      </trkpt>
      <trkpt lat="44.88575" lon="5.25205">
        <ele>1173.1</ele>
        <time>2024-07-02T09:25:35Z</time>
      </trkpt>
      <trkpt lat="44.88574" lon="5.25204">
        <ele>1173.1</ele>
        <time>2024-07-02T09:25:36Z</time>
      </trkpt>
      <trkpt lat="44.88574" lon="5.25204">
        <ele>1173.1</ele>
        <time>2024-07-02T09:25:37Z</time>
      </trkpt>
      <trkpt lat="44.88572" lon="5.25204">
        <ele>1173.2</ele>
        <time>2024-07-02T09:25:38Z</time>
      </trkpt>
      <trkpt lat="44.88571" lon="5.25204">
        <ele>1173.2</ele>
        <time>2024-07-02T09:25:39Z</time>
      </trkpt>
      <trkpt lat="44.8857" lon="5.25203">
        <ele>1173.2</ele>
        <time>2024-07-02T09:25:40Z</time>
      </trkpt>
      <trkpt lat="44.88568" lon="5.25203">
        <ele>1173.2</ele>
        <time>2024-07-02T09:25:41Z</time>
      </trkpt>
      <trkpt lat="44.88567" lon="5.25202">
        <ele>1173.3</ele>
        <time>2024-07-02T09:25:42Z</time>
      </trkpt>
      <trkpt lat="44.88566" lon="5.25202">
        <ele>1173.3</ele>
        <time>2024-07-02T09:25:43Z</time>
      </trkpt>
      <trkpt lat="44.88564" lon="5.25201">
        <ele>1173.3</ele>
        <time>2024-07-02T09:25:44Z</time>
      </trkpt>
      <trkpt lat="44.88563" lon="5.25201">
        <ele>1173.3</ele>
        <time>2024-07-02T09:25:45Z</time>
      </trkpt>
      <trkpt lat="44.88563" lon="5.25201">
        <ele>1173.3</ele>
        <time>2024-07-02T09:25:46Z</time>
      </trkpt>
      <trkpt lat="44.88561" lon="5.252">
        <ele>1173.4</ele>
        <time>2024-07-02T09:25:47Z</time>
      </trkpt>
      <trkpt lat="44.8856" lon="5.252">
        <ele>1173.4</ele>
        <time>2024-07-02T09:25:48Z</time>
      </trkpt>
      <trkpt lat="44.88559" lon="5.252">
        <ele>1173.4</ele>
        <time>2024-07-02T09:25:49Z</time>
      </trkpt>
      <trkpt lat="44.88557" lon="5.252">
        <ele>1173.5</ele>
        <time>2024-07-02T09:25:50Z</time>
      </trkpt>
      <trkpt lat="44.88556" lon="5.25199">
        <ele>1173.5</ele>
        <time>2024-07-02T09:25:51Z</time>
      </trkpt>
      <trkpt lat="44.88554" lon="5.25199">
        <ele>1173.6</ele>
        <time>2024-07-02T09:25:52Z</time>
      </trkpt>
      <trkpt lat="44.88553" lon="5.25199">
        <ele>1173.6</ele>
        <time>2024-07-02T09:25:53Z</time>
      </trkpt>
      <trkpt lat="44.88551" lon="5.25198">
        <ele>1173.6</ele>
        <time>2024-07-02T09:25:54Z</time>
      </trkpt>
      <trkpt lat="44.8855" lon="5.25198">
        <ele>1173.7</ele>
        <time>2024-07-02T09:25:55Z</time>
      </trkpt>
      <trkpt lat="44.88549" lon="5.25198">
        <ele>1173.7</ele>
        <time>2024-07-02T09:25:56Z</time>
      </trkpt>
      <trkpt lat="44.88547" lon="5.25198">
        <ele>1173.8</ele>
        <time>2024-07-02T09:25:57Z</time>
      </trkpt>
      <trkpt lat="44.88545" lon="5.25197">
        <ele>1173.8</ele>
        <time>2024-07-02T09:25:58Z</time>
      </trkpt>
      <trkpt lat="44.88544" lon="5.25197">
        <ele>1173.9</ele>
        <time>2024-07-02T09:25:59Z</time>
      </trkpt>
      <trkpt lat="44.88543" lon="5.25197">
        <ele>1173.9</ele>
        <time>2024-07-02T09:26:00Z</time>
      </trkpt>
      <trkpt lat="44.88541" lon="5.25196">
        <ele>1174</ele>
        <time>2024-07-02T09:26:01Z</time>
      </trkpt>
      <trkpt lat="44.88541" lon="5.25196">
        <ele>1174</ele>
        <time>2024-07-02T09:26:02Z</time>
      </trkpt>
      <trkpt lat="44.8854" lon="5.25196">
        <ele>1174.1</ele>
        <time>2024-07-02T09:26:03Z</time>
      </trkpt>
      <trkpt lat="44.88537" lon="5.25196">
        <ele>1174.1</ele>
        <time>2024-07-02T09:26:04Z</time>
      </trkpt>
      <trkpt lat="44.88537" lon="5.25196">
        <ele>1174.2</ele>
        <time>2024-07-02T09:26:05Z</time>
      </trkpt>
      <trkpt lat="44.88536" lon="5.25196">
        <ele>1174.2</ele>
        <time>2024-07-02T09:26:06Z</time>
      </trkpt>
      <trkpt lat="44.88533" lon="5.25195">
        <ele>1174.3</ele>
        <time>2024-07-02T09:26:07Z</time>
      </trkpt>
      <trkpt lat="44.88532" lon="5.25195">
        <ele>1174.4</ele>
        <time>2024-07-02T09:26:08Z</time>
      </trkpt>
      <trkpt lat="44.88532" lon="5.25195">
        <ele>1174.4</ele>
        <time>2024-07-02T09:26:09Z</time>
      </trkpt>
      <trkpt lat="44.88531" lon="5.25195">
        <ele>1174.4</ele>
        <time>2024-07-02T09:26:10Z</time>
      </trkpt>
      <trkpt lat="44.8853" lon="5.25195">
        <ele>1174.5</ele>
        <time>2024-07-02T09:26:11Z</time>
      </trkpt>
      <trkpt lat="44.88528" lon="5.25195">
        <ele>1174.6</ele>
        <time>2024-07-02T09:26:12Z</time>
      </trkpt>
      <trkpt lat="44.88527" lon="5.25195">
        <ele>1174.6</ele>
        <time>2024-07-02T09:26:13Z</time>
      </trkpt>
      <trkpt lat="44.88525" lon="5.25195">
        <ele>1174.7</ele>
        <time>2024-07-02T09:26:14Z</time>
      </trkpt>
      <trkpt lat="44.88524" lon="5.25195">
        <ele>1174.7</ele>
        <time>2024-07-02T09:26:15Z</time>
      </trkpt>
      <trkpt lat="44.88523" lon="5.25194">
        <ele>1174.8</ele>
        <time>2024-07-02T09:26:16Z</time>
      </trkpt>
      <trkpt lat="44.88522" lon="5.25194">
        <ele>1174.9</ele>
        <time>2024-07-02T09:26:17Z</time>
      </trkpt>
      <trkpt lat="44.88521" lon="5.25194">
        <ele>1174.9</ele>
        <time>2024-07-02T09:26:18Z</time>
      </trkpt>
      <trkpt lat="44.8852" lon="5.25194">
        <ele>1175</ele>
        <time>2024-07-02T09:26:19Z</time>
      </trkpt>
      <trkpt lat="44.88518" lon="5.25193">
        <ele>1175.1</ele>
        <time>2024-07-02T09:26:20Z</time>
      </trkpt>
      <trkpt lat="44.88517" lon="5.25193">
        <ele>1175.1</ele>
        <time>2024-07-02T09:26:21Z</time>
      </trkpt>
      <trkpt lat="44.88516" lon="5.25193">
        <ele>1175.2</ele>
        <time>2024-07-02T09:26:22Z</time>
      </trkpt>
      <trkpt lat="44.88515" lon="5.25193">
        <ele>1175.3</ele>
        <time>2024-07-02T09:26:23Z</time>
      </trkpt>
      <trkpt lat="44.88513" lon="5.25192">
        <ele>1175.4</ele>
        <time>2024-07-02T09:26:24Z</time>
      </trkpt>
      <trkpt lat="44.88512" lon="5.25192">
        <ele>1175.4</ele>
        <time>2024-07-02T09:26:25Z</time>
      </trkpt>
      <trkpt lat="44.88511" lon="5.25192">
        <ele>1175.5</ele>
        <time>2024-07-02T09:26:26Z</time>
      </trkpt>
      <trkpt lat="44.8851" lon="5.25192">
        <ele>1175.5</ele>
        <time>2024-07-02T09:26:27Z</time>
      </trkpt>
      <trkpt lat="44.88509" lon="5.25192">
        <ele>1175.6</ele>
        <time>2024-07-02T09:26:28Z</time>
      </trkpt>
      <trkpt lat="44.88508" lon="5.25191">
        <ele>1175.7</ele>
        <time>2024-07-02T09:26:29Z</time>
      </trkpt>
      <trkpt lat="44.88507" lon="5.25191">
        <ele>1175.8</ele>
        <time>2024-07-02T09:26:30Z</time>
      </trkpt>
      <trkpt lat="44.88505" lon="5.25191">
        <ele>1175.8</ele>
        <time>2024-07-02T09:26:31Z</time>
      </trkpt>
      <trkpt lat="44.88505" lon="5.2519">
        <ele>1175.9</ele>
        <time>2024-07-02T09:26:32Z</time>
      </trkpt>
      <trkpt lat="44.88504" lon="5.2519">
        <ele>1176</ele>
        <time>2024-07-02T09:26:33Z</time>
      </trkpt>
      <trkpt lat="44.88503" lon="5.2519">
        <ele>1176</ele>
        <time>2024-07-02T09:26:34Z</time>
      </trkpt>
      <trkpt lat="44.88501" lon="5.25189">
        <ele>1176.1</ele>
        <time>2024-07-02T09:26:35Z</time>
      </trkpt>
      <trkpt lat="44.885" lon="5.25189">
        <ele>1176.2</ele>
        <time>2024-07-02T09:26:36Z</time>
      </trkpt>
      <trkpt lat="44.88499" lon="5.25189">
        <ele>1176.3</ele>
        <time>2024-07-02T09:26:37Z</time>
      </trkpt>
      <trkpt lat="44.88498" lon="5.25189">
        <ele>1176.3</ele>
        <time>2024-07-02T09:26:38Z</time>
      </trkpt>
      <trkpt lat="44.88497" lon="5.25189">
        <ele>1176.4</ele>
        <time>2024-07-02T09:26:39Z</time>
      </trkpt>
      <trkpt lat="44.88496" lon="5.25188">
        <ele>1176.5</ele>
        <time>2024-07-02T09:26:40Z</time>
      </trkpt>
      <trkpt lat="44.88495" lon="5.25188">
        <ele>1176.5</ele>
        <time>2024-07-02T09:26:41Z</time>
      </trkpt>
      <trkpt lat="44.88494" lon="5.25188">
        <ele>1176.6</ele>
        <time>2024-07-02T09:26:42Z</time>
      </trkpt>
      <trkpt lat="44.88493" lon="5.25187">
        <ele>1176.6</ele>
        <time>2024-07-02T09:26:43Z</time>
      </trkpt>
      <trkpt lat="44.88492" lon="5.25187">
        <ele>1176.7</ele>
        <time>2024-07-02T09:26:44Z</time>
      </trkpt>
      <trkpt lat="44.88491" lon="5.25187">
        <ele>1176.8</ele>
        <time>2024-07-02T09:26:45Z</time>
      </trkpt>
      <trkpt lat="44.8849" lon="5.25187">
        <ele>1176.8</ele>
        <time>2024-07-02T09:26:46Z</time>
      </trkpt>
      <trkpt lat="44.88489" lon="5.25186">
        <ele>1176.9</ele>
        <time>2024-07-02T09:26:47Z</time>
      </trkpt>
      <trkpt lat="44.88488" lon="5.25186">
        <ele>1176.9</ele>
        <time>2024-07-02T09:26:48Z</time>
      </trkpt>
      <trkpt lat="44.88487" lon="5.25185">
        <ele>1177</ele>
        <time>2024-07-02T09:26:49Z</time>
      </trkpt>
      <trkpt lat="44.88486" lon="5.25185">
        <ele>1177.1</ele>
        <time>2024-07-02T09:26:50Z</time>
      </trkpt>
      <trkpt lat="44.88485" lon="5.25185">
        <ele>1177.2</ele>
        <time>2024-07-02T09:26:51Z</time>
      </trkpt>
      <trkpt lat="44.88484" lon="5.25184">
        <ele>1177.2</ele>
        <time>2024-07-02T09:26:52Z</time>
      </trkpt>
      <trkpt lat="44.88483" lon="5.25184">
        <ele>1177.3</ele>
        <time>2024-07-02T09:26:53Z</time>
      </trkpt>
      <trkpt lat="44.88482" lon="5.25184">
        <ele>1177.3</ele>
        <time>2024-07-02T09:26:54Z</time>
      </trkpt>
      <trkpt lat="44.8848" lon="5.25184">
        <ele>1177.4</ele>
        <time>2024-07-02T09:26:55Z</time>
      </trkpt>
      <trkpt lat="44.88479" lon="5.25184">
        <ele>1177.5</ele>
        <time>2024-07-02T09:26:56Z</time>
      </trkpt>
      <trkpt lat="44.88478" lon="5.25184">
        <ele>1177.6</ele>
        <time>2024-07-02T09:26:57Z</time>
      </trkpt>
      <trkpt lat="44.88477" lon="5.25183">
        <ele>1177.6</ele>
        <time>2024-07-02T09:26:58Z</time>
      </trkpt>
      <trkpt lat="44.88476" lon="5.25183">
        <ele>1177.7</ele>
        <time>2024-07-02T09:26:59Z</time>
      </trkpt>
      <trkpt lat="44.88475" lon="5.25183">
        <ele>1177.8</ele>
        <time>2024-07-02T09:27:00Z</time>
      </trkpt>
      <trkpt lat="44.88473" lon="5.25182">
        <ele>1177.8</ele>
        <time>2024-07-02T09:27:01Z</time>
      </trkpt>
      <trkpt lat="44.88472" lon="5.25181">
        <ele>1177.9</ele>
        <time>2024-07-02T09:27:02Z</time>
      </trkpt>
      <trkpt lat="44.88471" lon="5.25181">
        <ele>1178</ele>
        <time>2024-07-02T09:27:03Z</time>
      </trkpt>
      <trkpt lat="44.8847" lon="5.25181">
        <ele>1178.1</ele>
        <time>2024-07-02T09:27:04Z</time>
      </trkpt>
      <trkpt lat="44.88469" lon="5.2518">
        <ele>1178.1</ele>
        <time>2024-07-02T09:27:05Z</time>
      </trkpt>
      <trkpt lat="44.88468" lon="5.2518">
        <ele>1178.2</ele>
        <time>2024-07-02T09:27:06Z</time>
      </trkpt>
      <trkpt lat="44.88467" lon="5.2518">
        <ele>1178.3</ele>
        <time>2024-07-02T09:27:07Z</time>
      </trkpt>
      <trkpt lat="44.88465" lon="5.25179">
        <ele>1178.4</ele>
        <time>2024-07-02T09:27:08Z</time>
      </trkpt>
      <trkpt lat="44.88464" lon="5.2518">
        <ele>1178.5</ele>
        <time>2024-07-02T09:27:09Z</time>
      </trkpt>
      <trkpt lat="44.88462" lon="5.2518">
        <ele>1178.6</ele>
        <time>2024-07-02T09:27:10Z</time>
      </trkpt>
      <trkpt lat="44.88461" lon="5.2518">
        <ele>1178.7</ele>
        <time>2024-07-02T09:27:11Z</time>
      </trkpt>
      <trkpt lat="44.8846" lon="5.2518">
        <ele>1178.8</ele>
        <time>2024-07-02T09:27:12Z</time>
      </trkpt>
      <trkpt lat="44.88459" lon="5.2518">
        <ele>1178.9</ele>
        <time>2024-07-02T09:27:13Z</time>
      </trkpt>
      <trkpt lat="44.88457" lon="5.2518">
        <ele>1179</ele>
        <time>2024-07-02T09:27:14Z</time>
      </trkpt>
      <trkpt lat="44.88456" lon="5.2518">
        <ele>1179.1</ele>
        <time>2024-07-02T09:27:15Z</time>
      </trkpt>
      <trkpt lat="44.88454" lon="5.25179">
        <ele>1179.2</ele>
        <time>2024-07-02T09:27:16Z</time>
      </trkpt>
      <trkpt lat="44.88453" lon="5.25179">
        <ele>1179.3</ele>
        <time>2024-07-02T09:27:17Z</time>
      </trkpt>
      <trkpt lat="44.88452" lon="5.25179">
        <ele>1179.3</ele>
        <time>2024-07-02T09:27:18Z</time>
      </trkpt>
      <trkpt lat="44.8845" lon="5.25179">
        <ele>1179.5</ele>
        <time>2024-07-02T09:27:19Z</time>
      </trkpt>
      <trkpt lat="44.8845" lon="5.25179">
        <ele>1179.6</ele>
        <time>2024-07-02T09:27:20Z</time>
      </trkpt>
      <trkpt lat="44.88449" lon="5.25178">
        <ele>1179.6</ele>
        <time>2024-07-02T09:27:21Z</time>
      </trkpt>
      <trkpt lat="44.88448" lon="5.25178">
        <ele>1179.7</ele>
        <time>2024-07-02T09:27:22Z</time>
      </trkpt>
      <trkpt lat="44.88447" lon="5.25178">
        <ele>1179.8</ele>
        <time>2024-07-02T09:27:23Z</time>
      </trkpt>
      <trkpt lat="44.88446" lon="5.25178">
        <ele>1179.9</ele>
        <time>2024-07-02T09:27:24Z</time>
      </trkpt>
      <trkpt lat="44.88445" lon="5.25178">
        <ele>1179.9</ele>
        <time>2024-07-02T09:27:25Z</time>
      </trkpt>
      <trkpt lat="44.88444" lon="5.25178">
        <ele>1180</ele>
        <time>2024-07-02T09:27:26Z</time>
      </trkpt>
      <trkpt lat="44.88442" lon="5.25177">
        <ele>1180.1</ele>
        <time>2024-07-02T09:27:27Z</time>
      </trkpt>
      <trkpt lat="44.88441" lon="5.25178">
        <ele>1180.2</ele>
        <time>2024-07-02T09:27:28Z</time>
      </trkpt>
      <trkpt lat="44.8844" lon="5.25178">
        <ele>1180.3</ele>
        <time>2024-07-02T09:27:29Z</time>
      </trkpt>
      <trkpt lat="44.88439" lon="5.25178">
        <ele>1180.4</ele>
        <time>2024-07-02T09:27:30Z</time>
      </trkpt>
      <trkpt lat="44.88438" lon="5.25178">
        <ele>1180.5</ele>
        <time>2024-07-02T09:27:31Z</time>
      </trkpt>
      <trkpt lat="44.88437" lon="5.25178">
        <ele>1180.6</ele>
        <time>2024-07-02T09:27:32Z</time>
      </trkpt>
      <trkpt lat="44.88436" lon="5.25178">
        <ele>1180.7</ele>
        <time>2024-07-02T09:27:33Z</time>
      </trkpt>
      <trkpt lat="44.88434" lon="5.25179">
        <ele>1180.9</ele>
        <time>2024-07-02T09:27:34Z</time>
      </trkpt>
      <trkpt lat="44.88433" lon="5.25179">
        <ele>1181</ele>
        <time>2024-07-02T09:27:35Z</time>
      </trkpt>
      <trkpt lat="44.88432" lon="5.25179">
        <ele>1181</ele>
        <time>2024-07-02T09:27:36Z</time>
      </trkpt>
      <trkpt lat="44.88431" lon="5.25179">
        <ele>1181.1</ele>
        <time>2024-07-02T09:27:37Z</time>
      </trkpt>
      <trkpt lat="44.8843" lon="5.25179">
        <ele>1181.2</ele>
        <time>2024-07-02T09:27:38Z</time>
      </trkpt>
      <trkpt lat="44.88429" lon="5.2518">
        <ele>1181.3</ele>
        <time>2024-07-02T09:27:39Z</time>
      </trkpt>
      <trkpt lat="44.88428" lon="5.2518">
        <ele>1181.4</ele>
        <time>2024-07-02T09:27:40Z</time>
      </trkpt>
      <trkpt lat="44.88427" lon="5.25181">
        <ele>1181.5</ele>
        <time>2024-07-02T09:27:41Z</time>
      </trkpt>
      <trkpt lat="44.88427" lon="5.25181">
        <ele>1181.6</ele>
        <time>2024-07-02T09:27:42Z</time>
      </trkpt>
      <trkpt lat="44.88426" lon="5.25182">
        <ele>1181.7</ele>
        <time>2024-07-02T09:27:43Z</time>
      </trkpt>
      <trkpt lat="44.88425" lon="5.25183">
        <ele>1181.8</ele>
        <time>2024-07-02T09:27:44Z</time>
      </trkpt>
      <trkpt lat="44.88423" lon="5.25183">
        <ele>1181.9</ele>
        <time>2024-07-02T09:27:45Z</time>
      </trkpt>
      <trkpt lat="44.88422" lon="5.25184">
        <ele>1182</ele>
        <time>2024-07-02T09:27:46Z</time>
      </trkpt>
      <trkpt lat="44.8842" lon="5.25185">
        <ele>1182.2</ele>
        <time>2024-07-02T09:27:47Z</time>
      </trkpt>
      <trkpt lat="44.88419" lon="5.25186">
        <ele>1182.4</ele>
        <time>2024-07-02T09:27:48Z</time>
      </trkpt>
      <trkpt lat="44.88418" lon="5.25186">
        <ele>1182.4</ele>
        <time>2024-07-02T09:27:49Z</time>
      </trkpt>
      <trkpt lat="44.88416" lon="5.25188">
        <ele>1182.6</ele>
        <time>2024-07-02T09:27:50Z</time>
      </trkpt>
      <trkpt lat="44.88416" lon="5.25189">
        <ele>1182.7</ele>
        <time>2024-07-02T09:27:51Z</time>
      </trkpt>
      <trkpt lat="44.88415" lon="5.2519">
        <ele>1182.7</ele>
        <time>2024-07-02T09:27:52Z</time>
      </trkpt>
      <trkpt lat="44.88414" lon="5.25192">
        <ele>1182.9</ele>
        <time>2024-07-02T09:27:53Z</time>
      </trkpt>
      <trkpt lat="44.88413" lon="5.25193">
        <ele>1183</ele>
        <time>2024-07-02T09:27:54Z</time>
      </trkpt>
      <trkpt lat="44.88412" lon="5.25193">
        <ele>1183</ele>
        <time>2024-07-02T09:27:55Z</time>
      </trkpt>
      <trkpt lat="44.88411" lon="5.25194">
        <ele>1183.1</ele>
        <time>2024-07-02T09:27:56Z</time>
      </trkpt>
      <trkpt lat="44.88411" lon="5.25195">
        <ele>1183.2</ele>
        <time>2024-07-02T09:27:57Z</time>
      </trkpt>
      <trkpt lat="44.8841" lon="5.25197">
        <ele>1183.3</ele>
        <time>2024-07-02T09:27:58Z</time>
      </trkpt>
      <trkpt lat="44.88409" lon="5.25198">
        <ele>1183.4</ele>
        <time>2024-07-02T09:27:59Z</time>
      </trkpt>
      <trkpt lat="44.88408" lon="5.25199">
        <ele>1183.5</ele>
        <time>2024-07-02T09:28:00Z</time>
      </trkpt>
      <trkpt lat="44.88407" lon="5.252">
        <ele>1183.6</ele>
        <time>2024-07-02T09:28:01Z</time>
      </trkpt>
      <trkpt lat="44.88406" lon="5.25201">
        <ele>1183.7</ele>
        <time>2024-07-02T09:28:02Z</time>
      </trkpt>
      <trkpt lat="44.88405" lon="5.25202">
        <ele>1183.7</ele>
        <time>2024-07-02T09:28:03Z</time>
      </trkpt>
      <trkpt lat="44.88404" lon="5.25203">
        <ele>1183.8</ele>
        <time>2024-07-02T09:28:04Z</time>
      </trkpt>
      <trkpt lat="44.88403" lon="5.25203">
        <ele>1183.9</ele>
        <time>2024-07-02T09:28:05Z</time>
      </trkpt>
      <trkpt lat="44.88402" lon="5.25204">
        <ele>1184</ele>
        <time>2024-07-02T09:28:06Z</time>
      </trkpt>
      <trkpt lat="44.88401" lon="5.25205">
        <ele>1184.1</ele>
        <time>2024-07-02T09:28:07Z</time>
      </trkpt>
      <trkpt lat="44.88401" lon="5.25206">
        <ele>1184.2</ele>
        <time>2024-07-02T09:28:08Z</time>
      </trkpt>
      <trkpt lat="44.884" lon="5.25207">
        <ele>1184.2</ele>
        <time>2024-07-02T09:28:09Z</time>
      </trkpt>
      <trkpt lat="44.88399" lon="5.25208">
        <ele>1184.3</ele>
        <time>2024-07-02T09:28:10Z</time>
      </trkpt>
      <trkpt lat="44.88398" lon="5.25209">
        <ele>1184.4</ele>
        <time>2024-07-02T09:28:11Z</time>
      </trkpt>
      <trkpt lat="44.88397" lon="5.2521">
        <ele>1184.5</ele>
        <time>2024-07-02T09:28:12Z</time>
      </trkpt>
      <trkpt lat="44.88396" lon="5.25211">
        <ele>1184.5</ele>
        <time>2024-07-02T09:28:13Z</time>
      </trkpt>
      <trkpt lat="44.88395" lon="5.25212">
        <ele>1184.6</ele>
        <time>2024-07-02T09:28:14Z</time>
      </trkpt>
      <trkpt lat="44.88394" lon="5.25213">
        <ele>1184.7</ele>
        <time>2024-07-02T09:28:15Z</time>
      </trkpt>
      <trkpt lat="44.88393" lon="5.25214">
        <ele>1184.7</ele>
        <time>2024-07-02T09:28:16Z</time>
      </trkpt>
      <trkpt lat="44.88392" lon="5.25215">
        <ele>1184.8</ele>
        <time>2024-07-02T09:28:17Z</time>
      </trkpt>
      <trkpt lat="44.88391" lon="5.25215">
        <ele>1184.9</ele>
        <time>2024-07-02T09:28:18Z</time>
      </trkpt>
      <trkpt lat="44.8839" lon="5.25216">
        <ele>1184.9</ele>
        <time>2024-07-02T09:28:19Z</time>
      </trkpt>
      <trkpt lat="44.88389" lon="5.25217">
        <ele>1185</ele>
        <time>2024-07-02T09:28:20Z</time>
      </trkpt>
      <trkpt lat="44.88388" lon="5.25217">
        <ele>1185.1</ele>
        <time>2024-07-02T09:28:21Z</time>
      </trkpt>
      <trkpt lat="44.88387" lon="5.25217">
        <ele>1185.1</ele>
        <time>2024-07-02T09:28:22Z</time>
      </trkpt>
      <trkpt lat="44.88384" lon="5.25217">
        <ele>1185.3</ele>
        <time>2024-07-02T09:28:23Z</time>
      </trkpt>
      <trkpt lat="44.88384" lon="5.25217">
        <ele>1185.3</ele>
        <time>2024-07-02T09:28:24Z</time>
      </trkpt>
      <trkpt lat="44.88383" lon="5.25217">
        <ele>1185.3</ele>
        <time>2024-07-02T09:28:25Z</time>
      </trkpt>
      <trkpt lat="44.88381" lon="5.25217">
        <ele>1185.4</ele>
        <time>2024-07-02T09:28:26Z</time>
      </trkpt>
      <trkpt lat="44.8838" lon="5.25216">
        <ele>1185.5</ele>
        <time>2024-07-02T09:28:27Z</time>
      </trkpt>
      <trkpt lat="44.88379" lon="5.25216">
        <ele>1185.5</ele>
        <time>2024-07-02T09:28:28Z</time>
      </trkpt>
      <trkpt lat="44.88378" lon="5.25216">
        <ele>1185.6</ele>
        <time>2024-07-02T09:28:29Z</time>
      </trkpt>
      <trkpt lat="44.88377" lon="5.25216">
        <ele>1185.6</ele>
        <time>2024-07-02T09:28:30Z</time>
      </trkpt>
      <trkpt lat="44.88376" lon="5.25215">
        <ele>1185.7</ele>
        <time>2024-07-02T09:28:31Z</time>
      </trkpt>
      <trkpt lat="44.88374" lon="5.25215">
        <ele>1185.7</ele>
        <time>2024-07-02T09:28:32Z</time>
      </trkpt>
      <trkpt lat="44.88373" lon="5.25214">
        <ele>1185.8</ele>
        <time>2024-07-02T09:28:33Z</time>
      </trkpt>
      <trkpt lat="44.88372" lon="5.25214">
        <ele>1185.8</ele>
        <time>2024-07-02T09:28:34Z</time>
      </trkpt>
      <trkpt lat="44.88371" lon="5.25214">
        <ele>1185.8</ele>
        <time>2024-07-02T09:28:35Z</time>
      </trkpt>
      <trkpt lat="44.8837" lon="5.25213">
        <ele>1185.9</ele>
        <time>2024-07-02T09:28:36Z</time>
      </trkpt>
      <trkpt lat="44.88369" lon="5.25213">
        <ele>1185.9</ele>
        <time>2024-07-02T09:28:37Z</time>
      </trkpt>
      <trkpt lat="44.88368" lon="5.25212">
        <ele>1186</ele>
        <time>2024-07-02T09:28:38Z</time>
      </trkpt>
      <trkpt lat="44.88366" lon="5.25212">
        <ele>1186</ele>
        <time>2024-07-02T09:28:39Z</time>
      </trkpt>
      <trkpt lat="44.88365" lon="5.25212">
        <ele>1186.1</ele>
        <time>2024-07-02T09:28:40Z</time>
      </trkpt>
      <trkpt lat="44.88363" lon="5.25211">
        <ele>1186.1</ele>
        <time>2024-07-02T09:28:41Z</time>
      </trkpt>
      <trkpt lat="44.88362" lon="5.2521">
        <ele>1186.2</ele>
        <time>2024-07-02T09:28:42Z</time>
      </trkpt>
      <trkpt lat="44.8836" lon="5.2521">
        <ele>1186.2</ele>
        <time>2024-07-02T09:28:43Z</time>
      </trkpt>
      <trkpt lat="44.88359" lon="5.25209">
        <ele>1186.2</ele>
        <time>2024-07-02T09:28:44Z</time>
      </trkpt>
      <trkpt lat="44.88358" lon="5.25209">
        <ele>1186.3</ele>
        <time>2024-07-02T09:28:45Z</time>
      </trkpt>
      <trkpt lat="44.88356" lon="5.25208">
        <ele>1186.3</ele>
        <time>2024-07-02T09:28:46Z</time>
      </trkpt>
      <trkpt lat="44.88355" lon="5.25207">
        <ele>1186.4</ele>
        <time>2024-07-02T09:28:47Z</time>
      </trkpt>
      <trkpt lat="44.88353" lon="5.25206">
        <ele>1186.5</ele>
        <time>2024-07-02T09:28:48Z</time>
      </trkpt>
      <trkpt lat="44.88352" lon="5.25206">
        <ele>1186.5</ele>
        <time>2024-07-02T09:28:49Z</time>
      </trkpt>
      <trkpt lat="44.88351" lon="5.25205">
        <ele>1186.5</ele>
        <time>2024-07-02T09:28:50Z</time>
      </trkpt>
      <trkpt lat="44.8835" lon="5.25205">
        <ele>1186.6</ele>
        <time>2024-07-02T09:28:51Z</time>
      </trkpt>
      <trkpt lat="44.88349" lon="5.25204">
        <ele>1186.6</ele>
        <time>2024-07-02T09:28:52Z</time>
      </trkpt>
      <trkpt lat="44.88347" lon="5.25203">
        <ele>1186.7</ele>
        <time>2024-07-02T09:28:53Z</time>
      </trkpt>
      <trkpt lat="44.88346" lon="5.25203">
        <ele>1186.7</ele>
        <time>2024-07-02T09:28:54Z</time>
      </trkpt>
      <trkpt lat="44.88345" lon="5.25202">
        <ele>1186.7</ele>
        <time>2024-07-02T09:28:55Z</time>
      </trkpt>
      <trkpt lat="44.88343" lon="5.25201">
        <ele>1186.8</ele>
        <time>2024-07-02T09:28:56Z</time>
      </trkpt>
      <trkpt lat="44.88343" lon="5.252">
        <ele>1186.8</ele>
        <time>2024-07-02T09:28:57Z</time>
      </trkpt>
      <trkpt lat="44.88342" lon="5.252">
        <ele>1186.9</ele>
        <time>2024-07-02T09:28:58Z</time>
      </trkpt>
      <trkpt lat="44.8834" lon="5.25199">
        <ele>1187</ele>
        <time>2024-07-02T09:28:59Z</time>
      </trkpt>
      <trkpt lat="44.88339" lon="5.25199">
        <ele>1187</ele>
        <time>2024-07-02T09:29:00Z</time>
      </trkpt>
      <trkpt lat="44.88338" lon="5.25198">
        <ele>1187.1</ele>
        <time>2024-07-02T09:29:01Z</time>
      </trkpt>
      <trkpt lat="44.88336" lon="5.25197">
        <ele>1187.2</ele>
        <time>2024-07-02T09:29:02Z</time>
      </trkpt>
      <trkpt lat="44.88336" lon="5.25196">
        <ele>1187.2</ele>
        <time>2024-07-02T09:29:03Z</time>
      </trkpt>
      <trkpt lat="44.88335" lon="5.25196">
        <ele>1187.2</ele>
        <time>2024-07-02T09:29:04Z</time>
      </trkpt>
      <trkpt lat="44.88333" lon="5.25194">
        <ele>1187.3</ele>
        <time>2024-07-02T09:29:05Z</time>
      </trkpt>
      <trkpt lat="44.88332" lon="5.25193">
        <ele>1187.4</ele>
        <time>2024-07-02T09:29:06Z</time>
      </trkpt>
      <trkpt lat="44.88332" lon="5.25193">
        <ele>1187.4</ele>
        <time>2024-07-02T09:29:07Z</time>
      </trkpt>
      <trkpt lat="44.8833" lon="5.25191">
        <ele>1187.5</ele>
        <time>2024-07-02T09:29:08Z</time>
      </trkpt>
      <trkpt lat="44.88329" lon="5.2519">
        <ele>1187.6</ele>
        <time>2024-07-02T09:29:09Z</time>
      </trkpt>
      <trkpt lat="44.88329" lon="5.2519">
        <ele>1187.6</ele>
        <time>2024-07-02T09:29:10Z</time>
      </trkpt>
      <trkpt lat="44.88327" lon="5.25188">
        <ele>1187.7</ele>
        <time>2024-07-02T09:29:11Z</time>
      </trkpt>
      <trkpt lat="44.88326" lon="5.25188">
        <ele>1187.8</ele>
        <time>2024-07-02T09:29:12Z</time>
      </trkpt>
      <trkpt lat="44.88325" lon="5.25187">
        <ele>1187.8</ele>
        <time>2024-07-02T09:29:13Z</time>
      </trkpt>
      <trkpt lat="44.88324" lon="5.25186">
        <ele>1187.9</ele>
        <time>2024-07-02T09:29:14Z</time>
      </trkpt>
      <trkpt lat="44.88323" lon="5.25186">
        <ele>1187.9</ele>
        <time>2024-07-02T09:29:15Z</time>
      </trkpt>
      <trkpt lat="44.88322" lon="5.25185">
        <ele>1188</ele>
        <time>2024-07-02T09:29:16Z</time>
      </trkpt>
      <trkpt lat="44.8832" lon="5.25184">
        <ele>1188.1</ele>
        <time>2024-07-02T09:29:17Z</time>
      </trkpt>
      <trkpt lat="44.8832" lon="5.25183">
        <ele>1188.2</ele>
        <time>2024-07-02T09:29:18Z</time>
      </trkpt>
      <trkpt lat="44.88319" lon="5.25183">
        <ele>1188.2</ele>
        <time>2024-07-02T09:29:19Z</time>
      </trkpt>
      <trkpt lat="44.88317" lon="5.25181">
        <ele>1188.3</ele>
        <time>2024-07-02T09:29:20Z</time>
      </trkpt>
      <trkpt lat="44.88316" lon="5.25181">
        <ele>1188.4</ele>
        <time>2024-07-02T09:29:21Z</time>
      </trkpt>
      <trkpt lat="44.88316" lon="5.2518">
        <ele>1188.4</ele>
        <time>2024-07-02T09:29:22Z</time>
      </trkpt>
      <trkpt lat="44.88314" lon="5.25178">
        <ele>1188.5</ele>
        <time>2024-07-02T09:29:23Z</time>
      </trkpt>
      <trkpt lat="44.88313" lon="5.25178">
        <ele>1188.6</ele>
        <time>2024-07-02T09:29:24Z</time>
      </trkpt>
      <trkpt lat="44.88312" lon="5.25177">
        <ele>1188.6</ele>
        <time>2024-07-02T09:29:25Z</time>
      </trkpt>
      <trkpt lat="44.8831" lon="5.25176">
        <ele>1188.7</ele>
        <time>2024-07-02T09:29:26Z</time>
      </trkpt>
      <trkpt lat="44.8831" lon="5.25176">
        <ele>1188.8</ele>
        <time>2024-07-02T09:29:27Z</time>
      </trkpt>
      <trkpt lat="44.88309" lon="5.25175">
        <ele>1188.8</ele>
        <time>2024-07-02T09:29:28Z</time>
      </trkpt>
      <trkpt lat="44.88307" lon="5.25174">
        <ele>1188.9</ele>
        <time>2024-07-02T09:29:29Z</time>
      </trkpt>
      <trkpt lat="44.88306" lon="5.25174">
        <ele>1189</ele>
        <time>2024-07-02T09:29:30Z</time>
      </trkpt>
      <trkpt lat="44.88305" lon="5.25174">
        <ele>1189</ele>
        <time>2024-07-02T09:29:31Z</time>
      </trkpt>
      <trkpt lat="44.88304" lon="5.25173">
        <ele>1189.1</ele>
        <time>2024-07-02T09:29:32Z</time>
      </trkpt>
      <trkpt lat="44.88302" lon="5.25172">
        <ele>1189.2</ele>
        <time>2024-07-02T09:29:33Z</time>
      </trkpt>
      <trkpt lat="44.883" lon="5.25172">
        <ele>1189.3</ele>
        <time>2024-07-02T09:29:34Z</time>
      </trkpt>
      <trkpt lat="44.883" lon="5.25172">
        <ele>1189.4</ele>
        <time>2024-07-02T09:29:35Z</time>
      </trkpt>
      <trkpt lat="44.88299" lon="5.25171">
        <ele>1189.4</ele>
        <time>2024-07-02T09:29:36Z</time>
      </trkpt>
      <trkpt lat="44.88298" lon="5.25171">
        <ele>1189.5</ele>
        <time>2024-07-02T09:29:37Z</time>
      </trkpt>
      <trkpt lat="44.88296" lon="5.2517">
        <ele>1189.5</ele>
        <time>2024-07-02T09:29:38Z</time>
      </trkpt>
      <trkpt lat="44.88295" lon="5.25169">
        <ele>1189.6</ele>
        <time>2024-07-02T09:29:39Z</time>
      </trkpt>
      <trkpt lat="44.88294" lon="5.25168">
        <ele>1189.7</ele>
        <time>2024-07-02T09:29:40Z</time>
      </trkpt>
      <trkpt lat="44.88293" lon="5.25168">
        <ele>1189.8</ele>
        <time>2024-07-02T09:29:41Z</time>
      </trkpt>
      <trkpt lat="44.88292" lon="5.25167">
        <ele>1189.8</ele>
        <time>2024-07-02T09:29:42Z</time>
      </trkpt>
      <trkpt lat="44.88291" lon="5.25166">
        <ele>1189.9</ele>
        <time>2024-07-02T09:29:43Z</time>
      </trkpt>
      <trkpt lat="44.8829" lon="5.25166">
        <ele>1190</ele>
        <time>2024-07-02T09:29:44Z</time>
      </trkpt>
      <trkpt lat="44.88289" lon="5.25165">
        <ele>1190</ele>
        <time>2024-07-02T09:29:45Z</time>
      </trkpt>
      <trkpt lat="44.88288" lon="5.25163">
        <ele>1190.2</ele>
        <time>2024-07-02T09:29:46Z</time>
      </trkpt>
      <trkpt lat="44.88287" lon="5.25163">
        <ele>1190.2</ele>
        <time>2024-07-02T09:29:47Z</time>
      </trkpt>
      <trkpt lat="44.88286" lon="5.25162">
        <ele>1190.3</ele>
        <time>2024-07-02T09:29:48Z</time>
      </trkpt>
      <trkpt lat="44.88286" lon="5.25161">
        <ele>1190.4</ele>
        <time>2024-07-02T09:29:49Z</time>
      </trkpt>
      <trkpt lat="44.88285" lon="5.2516">
        <ele>1190.4</ele>
        <time>2024-07-02T09:29:50Z</time>
      </trkpt>
      <trkpt lat="44.88284" lon="5.25159">
        <ele>1190.5</ele>
        <time>2024-07-02T09:29:51Z</time>
      </trkpt>
      <trkpt lat="44.88283" lon="5.25158">
        <ele>1190.6</ele>
        <time>2024-07-02T09:29:52Z</time>
      </trkpt>
      <trkpt lat="44.88282" lon="5.25157">
        <ele>1190.7</ele>
        <time>2024-07-02T09:29:53Z</time>
      </trkpt>
      <trkpt lat="44.88281" lon="5.25156">
        <ele>1190.7</ele>
        <time>2024-07-02T09:29:54Z</time>
      </trkpt>
      <trkpt lat="44.88281" lon="5.25155">
        <ele>1190.8</ele>
        <time>2024-07-02T09:29:55Z</time>
      </trkpt>
      <trkpt lat="44.88281" lon="5.25154">
        <ele>1190.9</ele>
        <time>2024-07-02T09:29:56Z</time>
      </trkpt>
      <trkpt lat="44.88279" lon="5.25153">
        <ele>1191</ele>
        <time>2024-07-02T09:29:57Z</time>
      </trkpt>
      <trkpt lat="44.88278" lon="5.25152">
        <ele>1191.1</ele>
        <time>2024-07-02T09:29:58Z</time>
      </trkpt>
      <trkpt lat="44.88277" lon="5.25151">
        <ele>1191.1</ele>
        <time>2024-07-02T09:29:59Z</time>
      </trkpt>
      <trkpt lat="44.88276" lon="5.25151">
        <ele>1191.2</ele>
        <time>2024-07-02T09:30:00Z</time>
      </trkpt>
      <trkpt lat="44.88274" lon="5.25149">
        <ele>1191.3</ele>
        <time>2024-07-02T09:30:01Z</time>
      </trkpt>
      <trkpt lat="44.88274" lon="5.25148">
        <ele>1191.4</ele>
        <time>2024-07-02T09:30:02Z</time>
      </trkpt>
      <trkpt lat="44.88273" lon="5.25148">
        <ele>1191.5</ele>
        <time>2024-07-02T09:30:03Z</time>
      </trkpt>
      <trkpt lat="44.88272" lon="5.25147">
        <ele>1191.5</ele>
        <time>2024-07-02T09:30:04Z</time>
      </trkpt>
      <trkpt lat="44.88271" lon="5.25146">
        <ele>1191.6</ele>
        <time>2024-07-02T09:30:05Z</time>
      </trkpt>
      <trkpt lat="44.8827" lon="5.25145">
        <ele>1191.7</ele>
        <time>2024-07-02T09:30:06Z</time>
      </trkpt>
      <trkpt lat="44.8827" lon="5.25144">
        <ele>1191.8</ele>
        <time>2024-07-02T09:30:07Z</time>
      </trkpt>
      <trkpt lat="44.88268" lon="5.25143">
        <ele>1191.9</ele>
        <time>2024-07-02T09:30:08Z</time>
      </trkpt>
      <trkpt lat="44.88268" lon="5.25142">
        <ele>1191.9</ele>
        <time>2024-07-02T09:30:09Z</time>
      </trkpt>
      <trkpt lat="44.88267" lon="5.25141">
        <ele>1192</ele>
        <time>2024-07-02T09:30:10Z</time>
      </trkpt>
      <trkpt lat="44.88266" lon="5.2514">
        <ele>1192</ele>
        <time>2024-07-02T09:30:11Z</time>
      </trkpt>
      <trkpt lat="44.88265" lon="5.2514">
        <ele>1192.1</ele>
        <time>2024-07-02T09:30:12Z</time>
      </trkpt>
      <trkpt lat="44.88263" lon="5.25138">
        <ele>1192.2</ele>
        <time>2024-07-02T09:30:13Z</time>
      </trkpt>
      <trkpt lat="44.88263" lon="5.25138">
        <ele>1192.3</ele>
        <time>2024-07-02T09:30:14Z</time>
      </trkpt>
      <trkpt lat="44.88262" lon="5.25137">
        <ele>1192.3</ele>
        <time>2024-07-02T09:30:15Z</time>
      </trkpt>
      <trkpt lat="44.8826" lon="5.25136">
        <ele>1192.4</ele>
        <time>2024-07-02T09:30:16Z</time>
      </trkpt>
      <trkpt lat="44.88259" lon="5.25136">
        <ele>1192.5</ele>
        <time>2024-07-02T09:30:17Z</time>
      </trkpt>
      <trkpt lat="44.88258" lon="5.25135">
        <ele>1192.5</ele>
        <time>2024-07-02T09:30:18Z</time>
      </trkpt>
      <trkpt lat="44.88256" lon="5.25134">
        <ele>1192.6</ele>
        <time>2024-07-02T09:30:19Z</time>
      </trkpt>
      <trkpt lat="44.88255" lon="5.25134">
        <ele>1192.7</ele>
        <time>2024-07-02T09:30:20Z</time>
      </trkpt>
      <trkpt lat="44.88254" lon="5.25133">
        <ele>1192.7</ele>
        <time>2024-07-02T09:30:21Z</time>
      </trkpt>
      <trkpt lat="44.88253" lon="5.25133">
        <ele>1192.8</ele>
        <time>2024-07-02T09:30:22Z</time>
      </trkpt>
      <trkpt lat="44.88252" lon="5.25132">
        <ele>1192.9</ele>
        <time>2024-07-02T09:30:23Z</time>
      </trkpt>
      <trkpt lat="44.8825" lon="5.25131">
        <ele>1193</ele>
        <time>2024-07-02T09:30:24Z</time>
      </trkpt>
      <trkpt lat="44.88249" lon="5.2513">
        <ele>1193</ele>
        <time>2024-07-02T09:30:25Z</time>
      </trkpt>
      <trkpt lat="44.88249" lon="5.2513">
        <ele>1193.1</ele>
        <time>2024-07-02T09:30:26Z</time>
      </trkpt>
      <trkpt lat="44.88248" lon="5.25129">
        <ele>1193.1</ele>
        <time>2024-07-02T09:30:27Z</time>
      </trkpt>
      <trkpt lat="44.88247" lon="5.25128">
        <ele>1193.2</ele>
        <time>2024-07-02T09:30:28Z</time>
      </trkpt>
      <trkpt lat="44.88246" lon="5.25127">
        <ele>1193.2</ele>
        <time>2024-07-02T09:30:29Z</time>
      </trkpt>
      <trkpt lat="44.88245" lon="5.25127">
        <ele>1193.3</ele>
        <time>2024-07-02T09:30:30Z</time>
      </trkpt>
      <trkpt lat="44.88244" lon="5.25126">
        <ele>1193.4</ele>
        <time>2024-07-02T09:30:31Z</time>
      </trkpt>
      <trkpt lat="44.88243" lon="5.25125">
        <ele>1193.4</ele>
        <time>2024-07-02T09:30:32Z</time>
      </trkpt>
      <trkpt lat="44.88241" lon="5.25123">
        <ele>1193.5</ele>
        <time>2024-07-02T09:30:33Z</time>
      </trkpt>
      <trkpt lat="44.8824" lon="5.25123">
        <ele>1193.5</ele>
        <time>2024-07-02T09:30:34Z</time>
      </trkpt>
      <trkpt lat="44.8824" lon="5.25122">
        <ele>1193.6</ele>
        <time>2024-07-02T09:30:35Z</time>
      </trkpt>
      <trkpt lat="44.88238" lon="5.2512">
        <ele>1193.7</ele>
        <time>2024-07-02T09:30:36Z</time>
      </trkpt>
      <trkpt lat="44.88237" lon="5.2512">
        <ele>1193.7</ele>
        <time>2024-07-02T09:30:37Z</time>
      </trkpt>
      <trkpt lat="44.88236" lon="5.25119">
        <ele>1193.8</ele>
        <time>2024-07-02T09:30:38Z</time>
      </trkpt>
      <trkpt lat="44.88235" lon="5.25118">
        <ele>1193.8</ele>
        <time>2024-07-02T09:30:39Z</time>
      </trkpt>
      <trkpt lat="44.88234" lon="5.25117">
        <ele>1193.9</ele>
        <time>2024-07-02T09:30:40Z</time>
      </trkpt>
      <trkpt lat="44.88233" lon="5.25116">
        <ele>1193.9</ele>
        <time>2024-07-02T09:30:41Z</time>
      </trkpt>
      <trkpt lat="44.88231" lon="5.25115">
        <ele>1194</ele>
        <time>2024-07-02T09:30:42Z</time>
      </trkpt>
      <trkpt lat="44.88231" lon="5.25114">
        <ele>1194.1</ele>
        <time>2024-07-02T09:30:43Z</time>
      </trkpt>
      <trkpt lat="44.8823" lon="5.25114">
        <ele>1194.1</ele>
        <time>2024-07-02T09:30:44Z</time>
      </trkpt>
      <trkpt lat="44.88229" lon="5.25112">
        <ele>1194.2</ele>
        <time>2024-07-02T09:30:45Z</time>
      </trkpt>
      <trkpt lat="44.88228" lon="5.25111">
        <ele>1194.2</ele>
        <time>2024-07-02T09:30:46Z</time>
      </trkpt>
      <trkpt lat="44.88227" lon="5.2511">
        <ele>1194.3</ele>
        <time>2024-07-02T09:30:47Z</time>
      </trkpt>
      <trkpt lat="44.88226" lon="5.25109">
        <ele>1194.4</ele>
        <time>2024-07-02T09:30:48Z</time>
      </trkpt>
      <trkpt lat="44.88225" lon="5.25108">
        <ele>1194.4</ele>
        <time>2024-07-02T09:30:49Z</time>
      </trkpt>
      <trkpt lat="44.88224" lon="5.25107">
        <ele>1194.5</ele>
        <time>2024-07-02T09:30:50Z</time>
      </trkpt>
      <trkpt lat="44.88223" lon="5.25105">
        <ele>1194.6</ele>
        <time>2024-07-02T09:30:51Z</time>
      </trkpt>
      <trkpt lat="44.88222" lon="5.25105">
        <ele>1194.6</ele>
        <time>2024-07-02T09:30:52Z</time>
      </trkpt>
      <trkpt lat="44.88221" lon="5.25104">
        <ele>1194.7</ele>
        <time>2024-07-02T09:30:53Z</time>
      </trkpt>
      <trkpt lat="44.8822" lon="5.25103">
        <ele>1194.7</ele>
        <time>2024-07-02T09:30:54Z</time>
      </trkpt>
      <trkpt lat="44.88219" lon="5.25102">
        <ele>1194.8</ele>
        <time>2024-07-02T09:30:55Z</time>
      </trkpt>
      <trkpt lat="44.88218" lon="5.25101">
        <ele>1194.9</ele>
        <time>2024-07-02T09:30:56Z</time>
      </trkpt>
      <trkpt lat="44.88217" lon="5.251">
        <ele>1194.9</ele>
        <time>2024-07-02T09:30:57Z</time>
      </trkpt>
      <trkpt lat="44.88216" lon="5.25099">
        <ele>1195</ele>
        <time>2024-07-02T09:30:58Z</time>
      </trkpt>
      <trkpt lat="44.88214" lon="5.25097">
        <ele>1195.1</ele>
        <time>2024-07-02T09:30:59Z</time>
      </trkpt>
      <trkpt lat="44.88214" lon="5.25097">
        <ele>1195.1</ele>
        <time>2024-07-02T09:31:00Z</time>
      </trkpt>
      <trkpt lat="44.88213" lon="5.25096">
        <ele>1195.2</ele>
        <time>2024-07-02T09:31:01Z</time>
      </trkpt>
      <trkpt lat="44.88211" lon="5.25095">
        <ele>1195.3</ele>
        <time>2024-07-02T09:31:02Z</time>
      </trkpt>
      <trkpt lat="44.8821" lon="5.25094">
        <ele>1195.4</ele>
        <time>2024-07-02T09:31:03Z</time>
      </trkpt>
      <trkpt lat="44.8821" lon="5.25093">
        <ele>1195.4</ele>
        <time>2024-07-02T09:31:04Z</time>
      </trkpt>
      <trkpt lat="44.88208" lon="5.25091">
        <ele>1195.5</ele>
        <time>2024-07-02T09:31:05Z</time>
      </trkpt>
      <trkpt lat="44.88207" lon="5.25091">
        <ele>1195.5</ele>
        <time>2024-07-02T09:31:06Z</time>
      </trkpt>
      <trkpt lat="44.88207" lon="5.2509">
        <ele>1195.6</ele>
        <time>2024-07-02T09:31:07Z</time>
      </trkpt>
      <trkpt lat="44.88206" lon="5.25089">
        <ele>1195.7</ele>
        <time>2024-07-02T09:31:08Z</time>
      </trkpt>
      <trkpt lat="44.88205" lon="5.25088">
        <ele>1195.7</ele>
        <time>2024-07-02T09:31:09Z</time>
      </trkpt>
      <trkpt lat="44.88204" lon="5.25087">
        <ele>1195.8</ele>
        <time>2024-07-02T09:31:10Z</time>
      </trkpt>
      <trkpt lat="44.88203" lon="5.25086">
        <ele>1195.8</ele>
        <time>2024-07-02T09:31:11Z</time>
      </trkpt>
      <trkpt lat="44.88202" lon="5.25084">
        <ele>1195.9</ele>
        <time>2024-07-02T09:31:12Z</time>
      </trkpt>
      <trkpt lat="44.882" lon="5.25083">
        <ele>1196</ele>
        <time>2024-07-02T09:31:13Z</time>
      </trkpt>
      <trkpt lat="44.882" lon="5.25082">
        <ele>1196</ele>
        <time>2024-07-02T09:31:14Z</time>
      </trkpt>
      <trkpt lat="44.88199" lon="5.25081">
        <ele>1196.1</ele>
        <time>2024-07-02T09:31:15Z</time>
      </trkpt>
      <trkpt lat="44.88198" lon="5.2508">
        <ele>1196.1</ele>
        <time>2024-07-02T09:31:16Z</time>
      </trkpt>
      <trkpt lat="44.88197" lon="5.2508">
        <ele>1196.2</ele>
        <time>2024-07-02T09:31:17Z</time>
      </trkpt>
      <trkpt lat="44.88196" lon="5.25079">
        <ele>1196.3</ele>
        <time>2024-07-02T09:31:18Z</time>
      </trkpt>
      <trkpt lat="44.88195" lon="5.25078">
        <ele>1196.3</ele>
        <time>2024-07-02T09:31:19Z</time>
      </trkpt>
      <trkpt lat="44.88194" lon="5.25077">
        <ele>1196.4</ele>
        <time>2024-07-02T09:31:20Z</time>
      </trkpt>
      <trkpt lat="44.88193" lon="5.25076">
        <ele>1196.4</ele>
        <time>2024-07-02T09:31:21Z</time>
      </trkpt>
      <trkpt lat="44.88191" lon="5.25075">
        <ele>1196.5</ele>
        <time>2024-07-02T09:31:22Z</time>
      </trkpt>
      <trkpt lat="44.8819" lon="5.25074">
        <ele>1196.6</ele>
        <time>2024-07-02T09:31:23Z</time>
      </trkpt>
      <trkpt lat="44.88189" lon="5.25074">
        <ele>1196.6</ele>
        <time>2024-07-02T09:31:24Z</time>
      </trkpt>
      <trkpt lat="44.88188" lon="5.25072">
        <ele>1196.7</ele>
        <time>2024-07-02T09:31:25Z</time>
      </trkpt>
      <trkpt lat="44.88187" lon="5.25072">
        <ele>1196.7</ele>
        <time>2024-07-02T09:31:26Z</time>
      </trkpt>
      <trkpt lat="44.88186" lon="5.25071">
        <ele>1196.8</ele>
        <time>2024-07-02T09:31:27Z</time>
      </trkpt>
      <trkpt lat="44.88184" lon="5.2507">
        <ele>1196.8</ele>
        <time>2024-07-02T09:31:28Z</time>
      </trkpt>
      <trkpt lat="44.88184" lon="5.25069">
        <ele>1196.9</ele>
        <time>2024-07-02T09:31:29Z</time>
      </trkpt>
      <trkpt lat="44.88183" lon="5.25069">
        <ele>1196.9</ele>
        <time>2024-07-02T09:31:30Z</time>
      </trkpt>
      <trkpt lat="44.88182" lon="5.25068">
        <ele>1196.9</ele>
        <time>2024-07-02T09:31:31Z</time>
      </trkpt>
      <trkpt lat="44.8818" lon="5.25067">
        <ele>1197</ele>
        <time>2024-07-02T09:31:32Z</time>
      </trkpt>
      <trkpt lat="44.88179" lon="5.25067">
        <ele>1197</ele>
        <time>2024-07-02T09:31:33Z</time>
      </trkpt>
      <trkpt lat="44.88177" lon="5.25066">
        <ele>1197.1</ele>
        <time>2024-07-02T09:31:34Z</time>
      </trkpt>
      <trkpt lat="44.88177" lon="5.25066">
        <ele>1197.1</ele>
        <time>2024-07-02T09:31:35Z</time>
      </trkpt>
      <trkpt lat="44.88176" lon="5.25066">
        <ele>1197.2</ele>
        <time>2024-07-02T09:31:36Z</time>
      </trkpt>
      <trkpt lat="44.88175" lon="5.25065">
        <ele>1197.2</ele>
        <time>2024-07-02T09:31:37Z</time>
      </trkpt>
      <trkpt lat="44.88174" lon="5.25065">
        <ele>1197.2</ele>
        <time>2024-07-02T09:31:38Z</time>
      </trkpt>
      <trkpt lat="44.88173" lon="5.25064">
        <ele>1197.3</ele>
        <time>2024-07-02T09:31:39Z</time>
      </trkpt>
      <trkpt lat="44.88171" lon="5.25062">
        <ele>1197.3</ele>
        <time>2024-07-02T09:31:40Z</time>
      </trkpt>
      <trkpt lat="44.8817" lon="5.25062">
        <ele>1197.3</ele>
        <time>2024-07-02T09:31:41Z</time>
      </trkpt>
      <trkpt lat="44.8817" lon="5.25061">
        <ele>1197.3</ele>
        <time>2024-07-02T09:31:42Z</time>
      </trkpt>
      <trkpt lat="44.88168" lon="5.25059">
        <ele>1197.4</ele>
        <time>2024-07-02T09:31:43Z</time>
      </trkpt>
      <trkpt lat="44.88167" lon="5.25059">
        <ele>1197.4</ele>
        <time>2024-07-02T09:31:44Z</time>
      </trkpt>
      <trkpt lat="44.88167" lon="5.25058">
        <ele>1197.4</ele>
        <time>2024-07-02T09:31:45Z</time>
      </trkpt>
      <trkpt lat="44.88165" lon="5.25056">
        <ele>1197.5</ele>
        <time>2024-07-02T09:31:46Z</time>
      </trkpt>
      <trkpt lat="44.88164" lon="5.25055">
        <ele>1197.5</ele>
        <time>2024-07-02T09:31:47Z</time>
      </trkpt>
      <trkpt lat="44.88164" lon="5.25055">
        <ele>1197.5</ele>
        <time>2024-07-02T09:31:48Z</time>
      </trkpt>
      <trkpt lat="44.88162" lon="5.25054">
        <ele>1197.6</ele>
        <time>2024-07-02T09:31:49Z</time>
      </trkpt>
      <trkpt lat="44.88161" lon="5.25053">
        <ele>1197.6</ele>
        <time>2024-07-02T09:31:50Z</time>
      </trkpt>
      <trkpt lat="44.8816" lon="5.25053">
        <ele>1197.6</ele>
        <time>2024-07-02T09:31:51Z</time>
      </trkpt>
      <trkpt lat="44.88159" lon="5.25052">
        <ele>1197.6</ele>
        <time>2024-07-02T09:31:52Z</time>
      </trkpt>
      <trkpt lat="44.88158" lon="5.25051">
        <ele>1197.7</ele>
        <time>2024-07-02T09:31:53Z</time>
      </trkpt>
      <trkpt lat="44.88157" lon="5.25051">
        <ele>1197.7</ele>
        <time>2024-07-02T09:31:54Z</time>
      </trkpt>
      <trkpt lat="44.88155" lon="5.25049">
        <ele>1197.8</ele>
        <time>2024-07-02T09:31:55Z</time>
      </trkpt>
      <trkpt lat="44.88154" lon="5.25049">
        <ele>1197.8</ele>
        <time>2024-07-02T09:31:56Z</time>
      </trkpt>
      <trkpt lat="44.88154" lon="5.25048">
        <ele>1197.8</ele>
        <time>2024-07-02T09:31:57Z</time>
      </trkpt>
      <trkpt lat="44.88152" lon="5.25047">
        <ele>1197.9</ele>
        <time>2024-07-02T09:31:58Z</time>
      </trkpt>
      <trkpt lat="44.88151" lon="5.25047">
        <ele>1197.9</ele>
        <time>2024-07-02T09:31:59Z</time>
      </trkpt>
      <trkpt lat="44.8815" lon="5.25046">
        <ele>1198</ele>
        <time>2024-07-02T09:32:00Z</time>
      </trkpt>
      <trkpt lat="44.88148" lon="5.25045">
        <ele>1198</ele>
        <time>2024-07-02T09:32:01Z</time>
      </trkpt>
      <trkpt lat="44.88146" lon="5.25044">
        <ele>1198.1</ele>
        <time>2024-07-02T09:32:02Z</time>
      </trkpt>
      <trkpt lat="44.88146" lon="5.25043">
        <ele>1198.1</ele>
        <time>2024-07-02T09:32:03Z</time>
      </trkpt>
      <trkpt lat="44.88145" lon="5.25042">
        <ele>1198.1</ele>
        <time>2024-07-02T09:32:04Z</time>
      </trkpt>
      <trkpt lat="44.88143" lon="5.25041">
        <ele>1198.2</ele>
        <time>2024-07-02T09:32:05Z</time>
      </trkpt>
      <trkpt lat="44.88142" lon="5.25041">
        <ele>1198.2</ele>
        <time>2024-07-02T09:32:06Z</time>
      </trkpt>
      <trkpt lat="44.88141" lon="5.2504">
        <ele>1198.3</ele>
        <time>2024-07-02T09:32:07Z</time>
      </trkpt>
      <trkpt lat="44.88139" lon="5.25038">
        <ele>1198.3</ele>
        <time>2024-07-02T09:32:08Z</time>
      </trkpt>
      <trkpt lat="44.88139" lon="5.25038">
        <ele>1198.4</ele>
        <time>2024-07-02T09:32:09Z</time>
      </trkpt>
      <trkpt lat="44.88138" lon="5.25037">
        <ele>1198.4</ele>
        <time>2024-07-02T09:32:10Z</time>
      </trkpt>
      <trkpt lat="44.88136" lon="5.25036">
        <ele>1198.5</ele>
        <time>2024-07-02T09:32:11Z</time>
      </trkpt>
      <trkpt lat="44.88135" lon="5.25035">
        <ele>1198.5</ele>
        <time>2024-07-02T09:32:12Z</time>
      </trkpt>
      <trkpt lat="44.88134" lon="5.25034">
        <ele>1198.6</ele>
        <time>2024-07-02T09:32:13Z</time>
      </trkpt>
      <trkpt lat="44.88133" lon="5.25033">
        <ele>1198.6</ele>
        <time>2024-07-02T09:32:14Z</time>
      </trkpt>
      <trkpt lat="44.88132" lon="5.25032">
        <ele>1198.7</ele>
        <time>2024-07-02T09:32:15Z</time>
      </trkpt>
      <trkpt lat="44.88131" lon="5.25032">
        <ele>1198.7</ele>
        <time>2024-07-02T09:32:16Z</time>
      </trkpt>
      <trkpt lat="44.88129" lon="5.2503">
        <ele>1198.8</ele>
        <time>2024-07-02T09:32:17Z</time>
      </trkpt>
      <trkpt lat="44.88129" lon="5.25029">
        <ele>1198.8</ele>
        <time>2024-07-02T09:32:18Z</time>
      </trkpt>
      <trkpt lat="44.88128" lon="5.25029">
        <ele>1198.8</ele>
        <time>2024-07-02T09:32:19Z</time>
      </trkpt>
      <trkpt lat="44.88126" lon="5.25027">
        <ele>1198.9</ele>
        <time>2024-07-02T09:32:20Z</time>
      </trkpt>
      <trkpt lat="44.88125" lon="5.25027">
        <ele>1198.9</ele>
        <time>2024-07-02T09:32:21Z</time>
      </trkpt>
      <trkpt lat="44.88125" lon="5.25026">
        <ele>1199</ele>
        <time>2024-07-02T09:32:22Z</time>
      </trkpt>
      <trkpt lat="44.88124" lon="5.25026">
        <ele>1199</ele>
        <time>2024-07-02T09:32:23Z</time>
      </trkpt>
      <trkpt lat="44.88122" lon="5.25025">
        <ele>1199.1</ele>
        <time>2024-07-02T09:32:24Z</time>
      </trkpt>
      <trkpt lat="44.88121" lon="5.25024">
        <ele>1199.1</ele>
        <time>2024-07-02T09:32:25Z</time>
      </trkpt>
      <trkpt lat="44.8812" lon="5.25023">
        <ele>1199.2</ele>
        <time>2024-07-02T09:32:26Z</time>
      </trkpt>
      <trkpt lat="44.88119" lon="5.25022">
        <ele>1199.2</ele>
        <time>2024-07-02T09:32:27Z</time>
      </trkpt>
      <trkpt lat="44.88118" lon="5.25021">
        <ele>1199.2</ele>
        <time>2024-07-02T09:32:28Z</time>
      </trkpt>
      <trkpt lat="44.88117" lon="5.2502">
        <ele>1199.3</ele>
        <time>2024-07-02T09:32:29Z</time>
      </trkpt>
      <trkpt lat="44.88116" lon="5.2502">
        <ele>1199.3</ele>
        <time>2024-07-02T09:32:30Z</time>
      </trkpt>
      <trkpt lat="44.88115" lon="5.25019">
        <ele>1199.3</ele>
        <time>2024-07-02T09:32:31Z</time>
      </trkpt>
      <trkpt lat="44.88113" lon="5.25018">
        <ele>1199.4</ele>
        <time>2024-07-02T09:32:32Z</time>
      </trkpt>
      <trkpt lat="44.88112" lon="5.25018">
        <ele>1199.4</ele>
        <time>2024-07-02T09:32:33Z</time>
      </trkpt>
      <trkpt lat="44.88112" lon="5.25017">
        <ele>1199.5</ele>
        <time>2024-07-02T09:32:34Z</time>
      </trkpt>
      <trkpt lat="44.88111" lon="5.25017">
        <ele>1199.5</ele>
        <time>2024-07-02T09:32:35Z</time>
      </trkpt>
      <trkpt lat="44.88109" lon="5.25016">
        <ele>1199.5</ele>
        <time>2024-07-02T09:32:36Z</time>
      </trkpt>
      <trkpt lat="44.88108" lon="5.25016">
        <ele>1199.5</ele>
        <time>2024-07-02T09:32:37Z</time>
      </trkpt>
      <trkpt lat="44.88106" lon="5.25016">
        <ele>1199.6</ele>
        <time>2024-07-02T09:32:38Z</time>
      </trkpt>
      <trkpt lat="44.88106" lon="5.25015">
        <ele>1199.6</ele>
        <time>2024-07-02T09:32:39Z</time>
      </trkpt>
      <trkpt lat="44.88105" lon="5.25015">
        <ele>1199.6</ele>
        <time>2024-07-02T09:32:40Z</time>
      </trkpt>
      <trkpt lat="44.88104" lon="5.25015">
        <ele>1199.7</ele>
        <time>2024-07-02T09:32:41Z</time>
      </trkpt>
      <trkpt lat="44.88103" lon="5.25015">
        <ele>1199.7</ele>
        <time>2024-07-02T09:32:42Z</time>
      </trkpt>
      <trkpt lat="44.88102" lon="5.25015">
        <ele>1199.7</ele>
        <time>2024-07-02T09:32:43Z</time>
      </trkpt>
      <trkpt lat="44.881" lon="5.25014">
        <ele>1199.7</ele>
        <time>2024-07-02T09:32:44Z</time>
      </trkpt>
      <trkpt lat="44.88099" lon="5.25015">
        <ele>1199.8</ele>
        <time>2024-07-02T09:32:45Z</time>
      </trkpt>
      <trkpt lat="44.88098" lon="5.25015">
        <ele>1199.8</ele>
        <time>2024-07-02T09:32:46Z</time>
      </trkpt>
      <trkpt lat="44.88097" lon="5.25015">
        <ele>1199.8</ele>
        <time>2024-07-02T09:32:47Z</time>
      </trkpt>
      <trkpt lat="44.88096" lon="5.25014">
        <ele>1199.9</ele>
        <time>2024-07-02T09:32:48Z</time>
      </trkpt>
      <trkpt lat="44.88095" lon="5.25013">
        <ele>1199.9</ele>
        <time>2024-07-02T09:32:49Z</time>
      </trkpt>
      <trkpt lat="44.88094" lon="5.25012">
        <ele>1200</ele>
        <time>2024-07-02T09:32:50Z</time>
      </trkpt>
      <trkpt lat="44.88093" lon="5.25011">
        <ele>1200</ele>
        <time>2024-07-02T09:32:51Z</time>
      </trkpt>
      <trkpt lat="44.88092" lon="5.2501">
        <ele>1200</ele>
        <time>2024-07-02T09:32:52Z</time>
      </trkpt>
      <trkpt lat="44.88091" lon="5.2501">
        <ele>1200.1</ele>
        <time>2024-07-02T09:32:53Z</time>
      </trkpt>
      <trkpt lat="44.8809" lon="5.25009">
        <ele>1200.1</ele>
        <time>2024-07-02T09:32:54Z</time>
      </trkpt>
      <trkpt lat="44.88089" lon="5.25008">
        <ele>1200.2</ele>
        <time>2024-07-02T09:32:55Z</time>
      </trkpt>
      <trkpt lat="44.88088" lon="5.25006">
        <ele>1200.3</ele>
        <time>2024-07-02T09:32:56Z</time>
      </trkpt>
      <trkpt lat="44.88087" lon="5.25005">
        <ele>1200.3</ele>
        <time>2024-07-02T09:32:57Z</time>
      </trkpt>
      <trkpt lat="44.88087" lon="5.25004">
        <ele>1200.4</ele>
        <time>2024-07-02T09:32:58Z</time>
      </trkpt>
      <trkpt lat="44.88085" lon="5.25002">
        <ele>1200.5</ele>
        <time>2024-07-02T09:32:59Z</time>
      </trkpt>
      <trkpt lat="44.88085" lon="5.25001">
        <ele>1200.5</ele>
        <time>2024-07-02T09:33:00Z</time>
      </trkpt>
      <trkpt lat="44.88084" lon="5.25">
        <ele>1200.5</ele>
        <time>2024-07-02T09:33:01Z</time>
      </trkpt>
      <trkpt lat="44.88082" lon="5.24999">
        <ele>1200.7</ele>
        <time>2024-07-02T09:33:02Z</time>
      </trkpt>
      <trkpt lat="44.88082" lon="5.24998">
        <ele>1200.7</ele>
        <time>2024-07-02T09:33:03Z</time>
      </trkpt>
      <trkpt lat="44.88081" lon="5.24997">
        <ele>1200.8</ele>
        <time>2024-07-02T09:33:04Z</time>
      </trkpt>
      <trkpt lat="44.88079" lon="5.24996">
        <ele>1200.9</ele>
        <time>2024-07-02T09:33:05Z</time>
      </trkpt>
      <trkpt lat="44.88078" lon="5.24996">
        <ele>1200.9</ele>
        <time>2024-07-02T09:33:06Z</time>
      </trkpt>
      <trkpt lat="44.88077" lon="5.24995">
        <ele>1201</ele>
        <time>2024-07-02T09:33:07Z</time>
      </trkpt>
      <trkpt lat="44.88076" lon="5.24995">
        <ele>1201.1</ele>
        <time>2024-07-02T09:33:08Z</time>
      </trkpt>
      <trkpt lat="44.88075" lon="5.24994">
        <ele>1201.2</ele>
        <time>2024-07-02T09:33:09Z</time>
      </trkpt>
      <trkpt lat="44.88073" lon="5.24994">
        <ele>1201.3</ele>
        <time>2024-07-02T09:33:10Z</time>
      </trkpt>
      <trkpt lat="44.88072" lon="5.24994">
        <ele>1201.4</ele>
        <time>2024-07-02T09:33:11Z</time>
      </trkpt>
      <trkpt lat="44.88071" lon="5.24994">
        <ele>1201.5</ele>
        <time>2024-07-02T09:33:12Z</time>
      </trkpt>
      <trkpt lat="44.8807" lon="5.24995">
        <ele>1201.5</ele>
        <time>2024-07-02T09:33:13Z</time>
      </trkpt>
      <trkpt lat="44.88069" lon="5.24995">
        <ele>1201.5</ele>
        <time>2024-07-02T09:33:14Z</time>
      </trkpt>
      <trkpt lat="44.88068" lon="5.24996">
        <ele>1201.6</ele>
        <time>2024-07-02T09:33:15Z</time>
      </trkpt>
      <trkpt lat="44.88067" lon="5.24997">
        <ele>1201.6</ele>
        <time>2024-07-02T09:33:16Z</time>
      </trkpt>
      <trkpt lat="44.88066" lon="5.24998">
        <ele>1201.6</ele>
        <time>2024-07-02T09:33:17Z</time>
      </trkpt>
      <trkpt lat="44.88065" lon="5.24999">
        <ele>1201.7</ele>
        <time>2024-07-02T09:33:18Z</time>
      </trkpt>
      <trkpt lat="44.88064" lon="5.25001">
        <ele>1201.7</ele>
        <time>2024-07-02T09:33:19Z</time>
      </trkpt>
      <trkpt lat="44.88064" lon="5.25003">
        <ele>1201.8</ele>
        <time>2024-07-02T09:33:20Z</time>
      </trkpt>
      <trkpt lat="44.88063" lon="5.25004">
        <ele>1201.8</ele>
        <time>2024-07-02T09:33:21Z</time>
      </trkpt>
      <trkpt lat="44.88062" lon="5.25006">
        <ele>1201.8</ele>
        <time>2024-07-02T09:33:22Z</time>
      </trkpt>
      <trkpt lat="44.88062" lon="5.25007">
        <ele>1201.9</ele>
        <time>2024-07-02T09:33:23Z</time>
      </trkpt>
      <trkpt lat="44.88062" lon="5.25008">
        <ele>1201.9</ele>
        <time>2024-07-02T09:33:24Z</time>
      </trkpt>
      <trkpt lat="44.88061" lon="5.25011">
        <ele>1201.9</ele>
        <time>2024-07-02T09:33:25Z</time>
      </trkpt>
      <trkpt lat="44.88061" lon="5.25012">
        <ele>1202</ele>
        <time>2024-07-02T09:33:26Z</time>
      </trkpt>
      <trkpt lat="44.88061" lon="5.25013">
        <ele>1202</ele>
        <time>2024-07-02T09:33:27Z</time>
      </trkpt>
      <trkpt lat="44.8806" lon="5.25015">
        <ele>1202</ele>
        <time>2024-07-02T09:33:28Z</time>
      </trkpt>
      <trkpt lat="44.8806" lon="5.25017">
        <ele>1202.1</ele>
        <time>2024-07-02T09:33:29Z</time>
      </trkpt>
      <trkpt lat="44.8806" lon="5.25018">
        <ele>1202.1</ele>
        <time>2024-07-02T09:33:30Z</time>
      </trkpt>
      <trkpt lat="44.8806" lon="5.2502">
        <ele>1202.2</ele>
        <time>2024-07-02T09:33:31Z</time>
      </trkpt>
      <trkpt lat="44.88059" lon="5.25021">
        <ele>1202.2</ele>
        <time>2024-07-02T09:33:32Z</time>
      </trkpt>
      <trkpt lat="44.88059" lon="5.25023">
        <ele>1202.3</ele>
        <time>2024-07-02T09:33:33Z</time>
      </trkpt>
      <trkpt lat="44.88059" lon="5.25025">
        <ele>1202.3</ele>
        <time>2024-07-02T09:33:34Z</time>
      </trkpt>
      <trkpt lat="44.88059" lon="5.25026">
        <ele>1202.4</ele>
        <time>2024-07-02T09:33:35Z</time>
      </trkpt>
      <trkpt lat="44.88058" lon="5.25028">
        <ele>1202.4</ele>
        <time>2024-07-02T09:33:36Z</time>
      </trkpt>
      <trkpt lat="44.88058" lon="5.2503">
        <ele>1202.5</ele>
        <time>2024-07-02T09:33:37Z</time>
      </trkpt>
      <trkpt lat="44.88058" lon="5.25031">
        <ele>1202.5</ele>
        <time>2024-07-02T09:33:38Z</time>
      </trkpt>
      <trkpt lat="44.88058" lon="5.25033">
        <ele>1202.6</ele>
        <time>2024-07-02T09:33:39Z</time>
      </trkpt>
      <trkpt lat="44.88057" lon="5.25036">
        <ele>1202.7</ele>
        <time>2024-07-02T09:33:40Z</time>
      </trkpt>
      <trkpt lat="44.88057" lon="5.25037">
        <ele>1202.8</ele>
        <time>2024-07-02T09:33:41Z</time>
      </trkpt>
      <trkpt lat="44.88057" lon="5.25038">
        <ele>1202.8</ele>
        <time>2024-07-02T09:33:42Z</time>
      </trkpt>
      <trkpt lat="44.88057" lon="5.2504">
        <ele>1202.9</ele>
        <time>2024-07-02T09:33:43Z</time>
      </trkpt>
      <trkpt lat="44.88057" lon="5.25041">
        <ele>1203</ele>
        <time>2024-07-02T09:33:44Z</time>
      </trkpt>
      <trkpt lat="44.88057" lon="5.25043">
        <ele>1203</ele>
        <time>2024-07-02T09:33:45Z</time>
      </trkpt>
      <trkpt lat="44.88057" lon="5.25044">
        <ele>1203.1</ele>
        <time>2024-07-02T09:33:46Z</time>
      </trkpt>
      <trkpt lat="44.88058" lon="5.25045">
        <ele>1203.2</ele>
        <time>2024-07-02T09:33:47Z</time>
      </trkpt>
      <trkpt lat="44.88058" lon="5.25046">
        <ele>1203.2</ele>
        <time>2024-07-02T09:33:48Z</time>
      </trkpt>
      <trkpt lat="44.88058" lon="5.25047">
        <ele>1203.3</ele>
        <time>2024-07-02T09:33:49Z</time>
      </trkpt>
      <trkpt lat="44.88058" lon="5.25049">
        <ele>1203.4</ele>
        <time>2024-07-02T09:33:50Z</time>
      </trkpt>
      <trkpt lat="44.88058" lon="5.2505">
        <ele>1203.5</ele>
        <time>2024-07-02T09:33:51Z</time>
      </trkpt>
      <trkpt lat="44.88058" lon="5.25052">
        <ele>1203.6</ele>
        <time>2024-07-02T09:33:52Z</time>
      </trkpt>
      <trkpt lat="44.88058" lon="5.25054">
        <ele>1203.7</ele>
        <time>2024-07-02T09:33:53Z</time>
      </trkpt>
      <trkpt lat="44.88058" lon="5.25055">
        <ele>1203.8</ele>
        <time>2024-07-02T09:33:54Z</time>
      </trkpt>
      <trkpt lat="44.88058" lon="5.25057">
        <ele>1203.9</ele>
        <time>2024-07-02T09:33:55Z</time>
      </trkpt>
      <trkpt lat="44.88058" lon="5.25059">
        <ele>1204</ele>
        <time>2024-07-02T09:33:56Z</time>
      </trkpt>
      <trkpt lat="44.88058" lon="5.2506">
        <ele>1204.1</ele>
        <time>2024-07-02T09:33:57Z</time>
      </trkpt>
      <trkpt lat="44.88058" lon="5.25062">
        <ele>1204.2</ele>
        <time>2024-07-02T09:33:58Z</time>
      </trkpt>
      <trkpt lat="44.88058" lon="5.25063">
        <ele>1204.4</ele>
        <time>2024-07-02T09:33:59Z</time>
      </trkpt>
      <trkpt lat="44.88058" lon="5.25065">
        <ele>1204.5</ele>
        <time>2024-07-02T09:34:00Z</time>
      </trkpt>
      <trkpt lat="44.88058" lon="5.25066">
        <ele>1204.6</ele>
        <time>2024-07-02T09:34:01Z</time>
      </trkpt>
      <trkpt lat="44.88058" lon="5.25067">
        <ele>1204.7</ele>
        <time>2024-07-02T09:34:02Z</time>
      </trkpt>
      <trkpt lat="44.88058" lon="5.25068">
        <ele>1204.8</ele>
        <time>2024-07-02T09:34:03Z</time>
      </trkpt>
      <trkpt lat="44.88058" lon="5.2507">
        <ele>1204.9</ele>
        <time>2024-07-02T09:34:04Z</time>
      </trkpt>
      <trkpt lat="44.88058" lon="5.25072">
        <ele>1205.1</ele>
        <time>2024-07-02T09:34:05Z</time>
      </trkpt>
      <trkpt lat="44.88058" lon="5.25073">
        <ele>1205.2</ele>
        <time>2024-07-02T09:34:06Z</time>
      </trkpt>
      <trkpt lat="44.88058" lon="5.25075">
        <ele>1205.3</ele>
        <time>2024-07-02T09:34:07Z</time>
      </trkpt>
      <trkpt lat="44.88058" lon="5.25076">
        <ele>1205.5</ele>
        <time>2024-07-02T09:34:08Z</time>
      </trkpt>
      <trkpt lat="44.88058" lon="5.25077">
        <ele>1205.6</ele>
        <time>2024-07-02T09:34:09Z</time>
      </trkpt>
      <trkpt lat="44.88058" lon="5.25079">
        <ele>1205.8</ele>
        <time>2024-07-02T09:34:10Z</time>
      </trkpt>
      <trkpt lat="44.88058" lon="5.2508">
        <ele>1205.9</ele>
        <time>2024-07-02T09:34:11Z</time>
      </trkpt>
      <trkpt lat="44.88058" lon="5.25082">
        <ele>1206</ele>
        <time>2024-07-02T09:34:12Z</time>
      </trkpt>
      <trkpt lat="44.88058" lon="5.25083">
        <ele>1206.1</ele>
        <time>2024-07-02T09:34:13Z</time>
      </trkpt>
      <trkpt lat="44.88059" lon="5.25084">
        <ele>1206.3</ele>
        <time>2024-07-02T09:34:14Z</time>
      </trkpt>
      <trkpt lat="44.88059" lon="5.25086">
        <ele>1206.4</ele>
        <time>2024-07-02T09:34:15Z</time>
      </trkpt>
      <trkpt lat="44.88059" lon="5.25087">
        <ele>1206.5</ele>
        <time>2024-07-02T09:34:16Z</time>
      </trkpt>
      <trkpt lat="44.88059" lon="5.25088">
        <ele>1206.6</ele>
        <time>2024-07-02T09:34:17Z</time>
      </trkpt>
      <trkpt lat="44.88059" lon="5.25089">
        <ele>1206.8</ele>
        <time>2024-07-02T09:34:18Z</time>
      </trkpt>
      <trkpt lat="44.88058" lon="5.2509">
        <ele>1206.9</ele>
        <time>2024-07-02T09:34:19Z</time>
      </trkpt>
      <trkpt lat="44.88058" lon="5.25091">
        <ele>1207</ele>
        <time>2024-07-02T09:34:20Z</time>
      </trkpt>
      <trkpt lat="44.88057" lon="5.25092">
        <ele>1207.1</ele>
        <time>2024-07-02T09:34:21Z</time>
      </trkpt>
      <trkpt lat="44.88057" lon="5.25093">
        <ele>1207.2</ele>
        <time>2024-07-02T09:34:22Z</time>
      </trkpt>
      <trkpt lat="44.88056" lon="5.25094">
        <ele>1207.4</ele>
        <time>2024-07-02T09:34:23Z</time>
      </trkpt>
      <trkpt lat="44.88056" lon="5.25095">
        <ele>1207.5</ele>
        <time>2024-07-02T09:34:24Z</time>
      </trkpt>
      <trkpt lat="44.88056" lon="5.25096">
        <ele>1207.6</ele>
        <time>2024-07-02T09:34:25Z</time>
      </trkpt>
      <trkpt lat="44.88056" lon="5.25097">
        <ele>1207.7</ele>
        <time>2024-07-02T09:34:26Z</time>
      </trkpt>
      <trkpt lat="44.88056" lon="5.25098">
        <ele>1207.8</ele>
        <time>2024-07-02T09:34:27Z</time>
      </trkpt>
      <trkpt lat="44.88055" lon="5.25099">
        <ele>1207.9</ele>
        <time>2024-07-02T09:34:28Z</time>
      </trkpt>
      <trkpt lat="44.88055" lon="5.251">
        <ele>1208</ele>
        <time>2024-07-02T09:34:29Z</time>
      </trkpt>
      <trkpt lat="44.88055" lon="5.25102">
        <ele>1208.1</ele>
        <time>2024-07-02T09:34:30Z</time>
      </trkpt>
      <trkpt lat="44.88054" lon="5.25103">
        <ele>1208.3</ele>
        <time>2024-07-02T09:34:31Z</time>
      </trkpt>
      <trkpt lat="44.88054" lon="5.25104">
        <ele>1208.3</ele>
        <time>2024-07-02T09:34:32Z</time>
      </trkpt>
      <trkpt lat="44.88054" lon="5.25105">
        <ele>1208.4</ele>
        <time>2024-07-02T09:34:33Z</time>
      </trkpt>
      <trkpt lat="44.88054" lon="5.25106">
        <ele>1208.5</ele>
        <time>2024-07-02T09:34:34Z</time>
      </trkpt>
      <trkpt lat="44.88053" lon="5.25108">
        <ele>1208.7</ele>
        <time>2024-07-02T09:34:35Z</time>
      </trkpt>
      <trkpt lat="44.88053" lon="5.25109">
        <ele>1208.8</ele>
        <time>2024-07-02T09:34:36Z</time>
      </trkpt>
      <trkpt lat="44.88053" lon="5.2511">
        <ele>1208.9</ele>
        <time>2024-07-02T09:34:37Z</time>
      </trkpt>
      <trkpt lat="44.88052" lon="5.25111">
        <ele>1209</ele>
        <time>2024-07-02T09:34:38Z</time>
      </trkpt>
      <trkpt lat="44.88052" lon="5.25112">
        <ele>1209</ele>
        <time>2024-07-02T09:34:39Z</time>
      </trkpt>
      <trkpt lat="44.88052" lon="5.25113">
        <ele>1209.2</ele>
        <time>2024-07-02T09:34:40Z</time>
      </trkpt>
      <trkpt lat="44.88052" lon="5.25114">
        <ele>1209.2</ele>
        <time>2024-07-02T09:34:41Z</time>
      </trkpt>
      <trkpt lat="44.88052" lon="5.25115">
        <ele>1209.3</ele>
        <time>2024-07-02T09:34:42Z</time>
      </trkpt>
      <trkpt lat="44.88052" lon="5.25116">
        <ele>1209.4</ele>
        <time>2024-07-02T09:34:43Z</time>
      </trkpt>
      <trkpt lat="44.88051" lon="5.25117">
        <ele>1209.5</ele>
        <time>2024-07-02T09:34:44Z</time>
      </trkpt>
      <trkpt lat="44.88051" lon="5.25119">
        <ele>1209.6</ele>
        <time>2024-07-02T09:34:45Z</time>
      </trkpt>
      <trkpt lat="44.88051" lon="5.2512">
        <ele>1209.7</ele>
        <time>2024-07-02T09:34:46Z</time>
      </trkpt>
      <trkpt lat="44.88051" lon="5.25121">
        <ele>1209.8</ele>
        <time>2024-07-02T09:34:47Z</time>
      </trkpt>
      <trkpt lat="44.88051" lon="5.25122">
        <ele>1209.9</ele>
        <time>2024-07-02T09:34:48Z</time>
      </trkpt>
      <trkpt lat="44.88051" lon="5.25124">
        <ele>1210</ele>
        <time>2024-07-02T09:34:49Z</time>
      </trkpt>
      <trkpt lat="44.88051" lon="5.25127">
        <ele>1210.2</ele>
        <time>2024-07-02T09:34:50Z</time>
      </trkpt>
      <trkpt lat="44.88051" lon="5.25128">
        <ele>1210.3</ele>
        <time>2024-07-02T09:34:51Z</time>
      </trkpt>
      <trkpt lat="44.88051" lon="5.25129">
        <ele>1210.4</ele>
        <time>2024-07-02T09:34:52Z</time>
      </trkpt>
      <trkpt lat="44.88052" lon="5.25131">
        <ele>1210.5</ele>
        <time>2024-07-02T09:34:53Z</time>
      </trkpt>
      <trkpt lat="44.88052" lon="5.25132">
        <ele>1210.6</ele>
        <time>2024-07-02T09:34:54Z</time>
      </trkpt>
      <trkpt lat="44.88053" lon="5.25134">
        <ele>1210.7</ele>
        <time>2024-07-02T09:34:55Z</time>
      </trkpt>
      <trkpt lat="44.88053" lon="5.25135">
        <ele>1210.9</ele>
        <time>2024-07-02T09:34:56Z</time>
      </trkpt>
      <trkpt lat="44.88055" lon="5.25136">
        <ele>1211</ele>
        <time>2024-07-02T09:34:57Z</time>
      </trkpt>
      <trkpt lat="44.88056" lon="5.25137">
        <ele>1211.2</ele>
        <time>2024-07-02T09:34:58Z</time>
      </trkpt>
      <trkpt lat="44.88057" lon="5.25138">
        <ele>1211.3</ele>
        <time>2024-07-02T09:34:59Z</time>
      </trkpt>
      <trkpt lat="44.88058" lon="5.25139">
        <ele>1211.4</ele>
        <time>2024-07-02T09:35:00Z</time>
      </trkpt>
      <trkpt lat="44.88059" lon="5.25141">
        <ele>1211.6</ele>
        <time>2024-07-02T09:35:01Z</time>
      </trkpt>
      <trkpt lat="44.8806" lon="5.25142">
        <ele>1211.7</ele>
        <time>2024-07-02T09:35:02Z</time>
      </trkpt>
      <trkpt lat="44.8806" lon="5.25143">
        <ele>1211.8</ele>
        <time>2024-07-02T09:35:03Z</time>
      </trkpt>
      <trkpt lat="44.88061" lon="5.25144">
        <ele>1211.9</ele>
        <time>2024-07-02T09:35:04Z</time>
      </trkpt>
      <trkpt lat="44.88062" lon="5.25145">
        <ele>1212</ele>
        <time>2024-07-02T09:35:05Z</time>
      </trkpt>
      <trkpt lat="44.88062" lon="5.25146">
        <ele>1212.1</ele>
        <time>2024-07-02T09:35:06Z</time>
      </trkpt>
      <trkpt lat="44.88063" lon="5.25147">
        <ele>1212.1</ele>
        <time>2024-07-02T09:35:07Z</time>
      </trkpt>
      <trkpt lat="44.88063" lon="5.25148">
        <ele>1212.2</ele>
        <time>2024-07-02T09:35:08Z</time>
      </trkpt>
      <trkpt lat="44.88063" lon="5.25149">
        <ele>1212.3</ele>
        <time>2024-07-02T09:35:09Z</time>
      </trkpt>
      <trkpt lat="44.88064" lon="5.25151">
        <ele>1212.4</ele>
        <time>2024-07-02T09:35:10Z</time>
      </trkpt>
      <trkpt lat="44.88064" lon="5.25152">
        <ele>1212.5</ele>
        <time>2024-07-02T09:35:11Z</time>
      </trkpt>
      <trkpt lat="44.88064" lon="5.25153">
        <ele>1212.6</ele>
        <time>2024-07-02T09:35:12Z</time>
      </trkpt>
      <trkpt lat="44.88065" lon="5.25154">
        <ele>1212.6</ele>
        <time>2024-07-02T09:35:13Z</time>
      </trkpt>
      <trkpt lat="44.88065" lon="5.25155">
        <ele>1212.7</ele>
        <time>2024-07-02T09:35:14Z</time>
      </trkpt>
      <trkpt lat="44.88065" lon="5.25157">
        <ele>1212.8</ele>
        <time>2024-07-02T09:35:15Z</time>
      </trkpt>
      <trkpt lat="44.88065" lon="5.25158">
        <ele>1212.9</ele>
        <time>2024-07-02T09:35:16Z</time>
      </trkpt>
      <trkpt lat="44.88065" lon="5.2516">
        <ele>1213</ele>
        <time>2024-07-02T09:35:17Z</time>
      </trkpt>
      <trkpt lat="44.88066" lon="5.25161">
        <ele>1213.1</ele>
        <time>2024-07-02T09:35:18Z</time>
      </trkpt>
      <trkpt lat="44.88066" lon="5.25162">
        <ele>1213.2</ele>
        <time>2024-07-02T09:35:19Z</time>
      </trkpt>
      <trkpt lat="44.88066" lon="5.25164">
        <ele>1213.3</ele>
        <time>2024-07-02T09:35:20Z</time>
      </trkpt>
      <trkpt lat="44.88066" lon="5.25165">
        <ele>1213.4</ele>
        <time>2024-07-02T09:35:21Z</time>
      </trkpt>
      <trkpt lat="44.88066" lon="5.25167">
        <ele>1213.5</ele>
        <time>2024-07-02T09:35:22Z</time>
      </trkpt>
      <trkpt lat="44.88067" lon="5.25169">
        <ele>1213.6</ele>
        <time>2024-07-02T09:35:23Z</time>
      </trkpt>
      <trkpt lat="44.88067" lon="5.2517">
        <ele>1213.7</ele>
        <time>2024-07-02T09:35:24Z</time>
      </trkpt>
      <trkpt lat="44.88067" lon="5.25171">
        <ele>1213.7</ele>
        <time>2024-07-02T09:35:25Z</time>
      </trkpt>
      <trkpt lat="44.88067" lon="5.25172">
        <ele>1213.8</ele>
        <time>2024-07-02T09:35:26Z</time>
      </trkpt>
      <trkpt lat="44.88067" lon="5.25173">
        <ele>1213.8</ele>
        <time>2024-07-02T09:35:27Z</time>
      </trkpt>
      <trkpt lat="44.88068" lon="5.25173">
        <ele>1213.9</ele>
        <time>2024-07-02T09:35:28Z</time>
      </trkpt>
      <trkpt lat="44.88069" lon="5.25174">
        <ele>1214</ele>
        <time>2024-07-02T09:35:29Z</time>
      </trkpt>
      <trkpt lat="44.88069" lon="5.25175">
        <ele>1214</ele>
        <time>2024-07-02T09:35:30Z</time>
      </trkpt>
      <trkpt lat="44.8807" lon="5.25175">
        <ele>1214.1</ele>
        <time>2024-07-02T09:35:31Z</time>
      </trkpt>
      <trkpt lat="44.88071" lon="5.25175">
        <ele>1214.1</ele>
        <time>2024-07-02T09:35:32Z</time>
      </trkpt>
      <trkpt lat="44.88071" lon="5.25175">
        <ele>1214.2</ele>
        <time>2024-07-02T09:35:33Z</time>
      </trkpt>
      <trkpt lat="44.88072" lon="5.25176">
        <ele>1214.2</ele>
        <time>2024-07-02T09:35:34Z</time>
      </trkpt>
      <trkpt lat="44.88072" lon="5.25177">
        <ele>1214.3</ele>
        <time>2024-07-02T09:35:35Z</time>
      </trkpt>
      <trkpt lat="44.88071" lon="5.25179">
        <ele>1214.4</ele>
        <time>2024-07-02T09:35:36Z</time>
      </trkpt>
      <trkpt lat="44.8807" lon="5.25179">
        <ele>1214.5</ele>
        <time>2024-07-02T09:35:37Z</time>
      </trkpt>
      <trkpt lat="44.88069" lon="5.2518">
        <ele>1214.6</ele>
        <time>2024-07-02T09:35:38Z</time>
      </trkpt>
      <trkpt lat="44.88068" lon="5.25182">
        <ele>1214.7</ele>
        <time>2024-07-02T09:35:39Z</time>
      </trkpt>
      <trkpt lat="44.88067" lon="5.25184">
        <ele>1214.8</ele>
        <time>2024-07-02T09:35:40Z</time>
      </trkpt>
      <trkpt lat="44.88067" lon="5.25185">
        <ele>1214.9</ele>
        <time>2024-07-02T09:35:41Z</time>
      </trkpt>
      <trkpt lat="44.88066" lon="5.25186">
        <ele>1215</ele>
        <time>2024-07-02T09:35:42Z</time>
      </trkpt>
      <trkpt lat="44.88066" lon="5.25188">
        <ele>1215.1</ele>
        <time>2024-07-02T09:35:43Z</time>
      </trkpt>
      <trkpt lat="44.88066" lon="5.2519">
        <ele>1215.1</ele>
        <time>2024-07-02T09:35:44Z</time>
      </trkpt>
      <trkpt lat="44.88066" lon="5.25191">
        <ele>1215.2</ele>
        <time>2024-07-02T09:35:45Z</time>
      </trkpt>
      <trkpt lat="44.88067" lon="5.25193">
        <ele>1215.3</ele>
        <time>2024-07-02T09:35:46Z</time>
      </trkpt>
      <trkpt lat="44.88067" lon="5.25194">
        <ele>1215.4</ele>
        <time>2024-07-02T09:35:47Z</time>
      </trkpt>
      <trkpt lat="44.88068" lon="5.25195">
        <ele>1215.5</ele>
        <time>2024-07-02T09:35:48Z</time>
      </trkpt>
      <trkpt lat="44.88068" lon="5.25197">
        <ele>1215.5</ele>
        <time>2024-07-02T09:35:49Z</time>
      </trkpt>
      <trkpt lat="44.88068" lon="5.25198">
        <ele>1215.6</ele>
        <time>2024-07-02T09:35:50Z</time>
      </trkpt>
      <trkpt lat="44.88069" lon="5.25199">
        <ele>1215.7</ele>
        <time>2024-07-02T09:35:51Z</time>
      </trkpt>
      <trkpt lat="44.88069" lon="5.25201">
        <ele>1215.7</ele>
        <time>2024-07-02T09:35:52Z</time>
      </trkpt>
      <trkpt lat="44.8807" lon="5.25202">
        <ele>1215.8</ele>
        <time>2024-07-02T09:35:53Z</time>
      </trkpt>
      <trkpt lat="44.8807" lon="5.25203">
        <ele>1215.9</ele>
        <time>2024-07-02T09:35:54Z</time>
      </trkpt>
      <trkpt lat="44.88071" lon="5.25204">
        <ele>1215.9</ele>
        <time>2024-07-02T09:35:55Z</time>
      </trkpt>
      <trkpt lat="44.88071" lon="5.25205">
        <ele>1216</ele>
        <time>2024-07-02T09:35:56Z</time>
      </trkpt>
      <trkpt lat="44.88072" lon="5.25206">
        <ele>1216.1</ele>
        <time>2024-07-02T09:35:57Z</time>
      </trkpt>
      <trkpt lat="44.88072" lon="5.25207">
        <ele>1216.1</ele>
        <time>2024-07-02T09:35:58Z</time>
      </trkpt>
      <trkpt lat="44.88073" lon="5.25208">
        <ele>1216.2</ele>
        <time>2024-07-02T09:35:59Z</time>
      </trkpt>
      <trkpt lat="44.88073" lon="5.25209">
        <ele>1216.2</ele>
        <time>2024-07-02T09:36:00Z</time>
      </trkpt>
      <trkpt lat="44.88074" lon="5.2521">
        <ele>1216.3</ele>
        <time>2024-07-02T09:36:01Z</time>
      </trkpt>
      <trkpt lat="44.88074" lon="5.25212">
        <ele>1216.4</ele>
        <time>2024-07-02T09:36:02Z</time>
      </trkpt>
      <trkpt lat="44.88075" lon="5.25212">
        <ele>1216.4</ele>
        <time>2024-07-02T09:36:03Z</time>
      </trkpt>
      <trkpt lat="44.88076" lon="5.25214">
        <ele>1216.5</ele>
        <time>2024-07-02T09:36:04Z</time>
      </trkpt>
      <trkpt lat="44.88077" lon="5.25214">
        <ele>1216.6</ele>
        <time>2024-07-02T09:36:05Z</time>
      </trkpt>
      <trkpt lat="44.88078" lon="5.25215">
        <ele>1216.7</ele>
        <time>2024-07-02T09:36:06Z</time>
      </trkpt>
      <trkpt lat="44.88078" lon="5.25216">
        <ele>1216.7</ele>
        <time>2024-07-02T09:36:07Z</time>
      </trkpt>
      <trkpt lat="44.88079" lon="5.25217">
        <ele>1216.8</ele>
        <time>2024-07-02T09:36:08Z</time>
      </trkpt>
      <trkpt lat="44.8808" lon="5.25218">
        <ele>1216.9</ele>
        <time>2024-07-02T09:36:09Z</time>
      </trkpt>
      <trkpt lat="44.8808" lon="5.25219">
        <ele>1216.9</ele>
        <time>2024-07-02T09:36:10Z</time>
      </trkpt>
      <trkpt lat="44.8808" lon="5.2522">
        <ele>1217</ele>
        <time>2024-07-02T09:36:11Z</time>
      </trkpt>
      <trkpt lat="44.8808" lon="5.25221">
        <ele>1217.1</ele>
        <time>2024-07-02T09:36:12Z</time>
      </trkpt>
      <trkpt lat="44.88081" lon="5.25223">
        <ele>1217.2</ele>
        <time>2024-07-02T09:36:13Z</time>
      </trkpt>
      <trkpt lat="44.88081" lon="5.25225">
        <ele>1217.3</ele>
        <time>2024-07-02T09:36:14Z</time>
      </trkpt>
      <trkpt lat="44.8808" lon="5.25229">
        <ele>1217.5</ele>
        <time>2024-07-02T09:36:15Z</time>
      </trkpt>
      <trkpt lat="44.8808" lon="5.25231">
        <ele>1217.6</ele>
        <time>2024-07-02T09:36:16Z</time>
      </trkpt>
      <trkpt lat="44.88079" lon="5.25232">
        <ele>1217.7</ele>
        <time>2024-07-02T09:36:17Z</time>
      </trkpt>
      <trkpt lat="44.88079" lon="5.25234">
        <ele>1217.7</ele>
        <time>2024-07-02T09:36:18Z</time>
      </trkpt>
      <trkpt lat="44.88079" lon="5.25235">
        <ele>1217.8</ele>
        <time>2024-07-02T09:36:19Z</time>
      </trkpt>
      <trkpt lat="44.8808" lon="5.25236">
        <ele>1217.9</ele>
        <time>2024-07-02T09:36:20Z</time>
      </trkpt>
      <trkpt lat="44.88081" lon="5.25237">
        <ele>1218</ele>
        <time>2024-07-02T09:36:21Z</time>
      </trkpt>
      <trkpt lat="44.88082" lon="5.25238">
        <ele>1218.1</ele>
        <time>2024-07-02T09:36:22Z</time>
      </trkpt>
      <trkpt lat="44.88083" lon="5.2524">
        <ele>1218.2</ele>
        <time>2024-07-02T09:36:24Z</time>
      </trkpt>
      <trkpt lat="44.88083" lon="5.25244">
        <ele>1218.5</ele>
        <time>2024-07-02T09:36:25Z</time>
      </trkpt>
      <trkpt lat="44.88084" lon="5.25246">
        <ele>1218.6</ele>
        <time>2024-07-02T09:36:26Z</time>
      </trkpt>
      <trkpt lat="44.88085" lon="5.25247">
        <ele>1218.7</ele>
        <time>2024-07-02T09:36:27Z</time>
      </trkpt>
      <trkpt lat="44.88085" lon="5.25249">
        <ele>1218.8</ele>
        <time>2024-07-02T09:36:28Z</time>
      </trkpt>
      <trkpt lat="44.88084" lon="5.25251">
        <ele>1219</ele>
        <time>2024-07-02T09:36:29Z</time>
      </trkpt>
      <trkpt lat="44.88084" lon="5.25253">
        <ele>1219.1</ele>
        <time>2024-07-02T09:36:30Z</time>
      </trkpt>
      <trkpt lat="44.88083" lon="5.25255">
        <ele>1219.3</ele>
        <time>2024-07-02T09:36:31Z</time>
      </trkpt>
      <trkpt lat="44.8808" lon="5.25257">
        <ele>1219.5</ele>
        <time>2024-07-02T09:36:32Z</time>
      </trkpt>
      <trkpt lat="44.8808" lon="5.25258">
        <ele>1219.6</ele>
        <time>2024-07-02T09:36:33Z</time>
      </trkpt>
      <trkpt lat="44.88079" lon="5.25258">
        <ele>1219.7</ele>
        <time>2024-07-02T09:36:34Z</time>
      </trkpt>
      <trkpt lat="44.88078" lon="5.2526">
        <ele>1219.8</ele>
        <time>2024-07-02T09:36:35Z</time>
      </trkpt>
      <trkpt lat="44.88077" lon="5.2526">
        <ele>1219.9</ele>
        <time>2024-07-02T09:36:36Z</time>
      </trkpt>
      <trkpt lat="44.88077" lon="5.2526">
        <ele>1219.9</ele>
        <time>2024-07-02T09:36:37Z</time>
      </trkpt>
      <trkpt lat="44.88077" lon="5.2526">
        <ele>1220</ele>
        <time>2024-07-02T09:36:38Z</time>
      </trkpt>
      <trkpt lat="44.88077" lon="5.2526">
        <ele>1220</ele>
        <time>2024-07-02T09:36:39Z</time>
      </trkpt>
      <trkpt lat="44.88076" lon="5.25261">
        <ele>1220.1</ele>
        <time>2024-07-02T09:36:40Z</time>
      </trkpt>
      <trkpt lat="44.88077" lon="5.25262">
        <ele>1220.2</ele>
        <time>2024-07-02T09:36:41Z</time>
      </trkpt>
      <trkpt lat="44.88077" lon="5.25263">
        <ele>1220.2</ele>
        <time>2024-07-02T09:36:42Z</time>
      </trkpt>
      <trkpt lat="44.88079" lon="5.25264">
        <ele>1220.4</ele>
        <time>2024-07-02T09:36:43Z</time>
      </trkpt>
      <trkpt lat="44.8808" lon="5.25265">
        <ele>1220.6</ele>
        <time>2024-07-02T09:36:44Z</time>
      </trkpt>
      <trkpt lat="44.88081" lon="5.25267">
        <ele>1220.7</ele>
        <time>2024-07-02T09:36:45Z</time>
      </trkpt>
      <trkpt lat="44.88082" lon="5.25267">
        <ele>1220.8</ele>
        <time>2024-07-02T09:36:46Z</time>
      </trkpt>
      <trkpt lat="44.88082" lon="5.25268">
        <ele>1220.9</ele>
        <time>2024-07-02T09:36:47Z</time>
      </trkpt>
      <trkpt lat="44.88083" lon="5.25268">
        <ele>1221</ele>
        <time>2024-07-02T09:36:48Z</time>
      </trkpt>
      <trkpt lat="44.88083" lon="5.25269">
        <ele>1221</ele>
        <time>2024-07-02T09:36:49Z</time>
      </trkpt>
      <trkpt lat="44.88084" lon="5.2527">
        <ele>1221.1</ele>
        <time>2024-07-02T09:36:50Z</time>
      </trkpt>
      <trkpt lat="44.88084" lon="5.2527">
        <ele>1221.1</ele>
        <time>2024-07-02T09:36:51Z</time>
      </trkpt>
      <trkpt lat="44.88084" lon="5.2527">
        <ele>1221.1</ele>
        <time>2024-07-02T09:36:52Z</time>
      </trkpt>
      <trkpt lat="44.88085" lon="5.25271">
        <ele>1221.2</ele>
        <time>2024-07-02T09:36:53Z</time>
      </trkpt>
      <trkpt lat="44.88085" lon="5.25272">
        <ele>1221.3</ele>
        <time>2024-07-02T09:36:54Z</time>
      </trkpt>
      <trkpt lat="44.88085" lon="5.25273">
        <ele>1221.4</ele>
        <time>2024-07-02T09:36:55Z</time>
      </trkpt>
      <trkpt lat="44.88085" lon="5.25274">
        <ele>1221.4</ele>
        <time>2024-07-02T09:36:56Z</time>
      </trkpt>
      <trkpt lat="44.88086" lon="5.25275">
        <ele>1221.5</ele>
        <time>2024-07-02T09:36:57Z</time>
      </trkpt>
      <trkpt lat="44.88086" lon="5.25277">
        <ele>1221.6</ele>
        <time>2024-07-02T09:36:58Z</time>
      </trkpt>
      <trkpt lat="44.88086" lon="5.25277">
        <ele>1221.7</ele>
        <time>2024-07-02T09:36:59Z</time>
      </trkpt>
      <trkpt lat="44.88087" lon="5.2528">
        <ele>1221.8</ele>
        <time>2024-07-02T09:37:00Z</time>
      </trkpt>
      <trkpt lat="44.88087" lon="5.2528">
        <ele>1221.9</ele>
        <time>2024-07-02T09:37:01Z</time>
      </trkpt>
      <trkpt lat="44.88087" lon="5.25281">
        <ele>1222</ele>
        <time>2024-07-02T09:37:02Z</time>
      </trkpt>
      <trkpt lat="44.88087" lon="5.25282">
        <ele>1222</ele>
        <time>2024-07-02T09:37:03Z</time>
      </trkpt>
      <trkpt lat="44.88088" lon="5.25283">
        <ele>1222.1</ele>
        <time>2024-07-02T09:37:04Z</time>
      </trkpt>
      <trkpt lat="44.88089" lon="5.25284">
        <ele>1222.2</ele>
        <time>2024-07-02T09:37:05Z</time>
      </trkpt>
      <trkpt lat="44.88089" lon="5.25285">
        <ele>1222.3</ele>
        <time>2024-07-02T09:37:06Z</time>
      </trkpt>
      <trkpt lat="44.88089" lon="5.25286">
        <ele>1222.3</ele>
        <time>2024-07-02T09:37:07Z</time>
      </trkpt>
      <trkpt lat="44.88089" lon="5.25287">
        <ele>1222.4</ele>
        <time>2024-07-02T09:37:08Z</time>
      </trkpt>
      <trkpt lat="44.8809" lon="5.25288">
        <ele>1222.4</ele>
        <time>2024-07-02T09:37:09Z</time>
      </trkpt>
      <trkpt lat="44.8809" lon="5.25289">
        <ele>1222.5</ele>
        <time>2024-07-02T09:37:10Z</time>
      </trkpt>
      <trkpt lat="44.88091" lon="5.2529">
        <ele>1222.6</ele>
        <time>2024-07-02T09:37:11Z</time>
      </trkpt>
      <trkpt lat="44.88091" lon="5.25291">
        <ele>1222.7</ele>
        <time>2024-07-02T09:37:12Z</time>
      </trkpt>
      <trkpt lat="44.88092" lon="5.25291">
        <ele>1222.8</ele>
        <time>2024-07-02T09:37:13Z</time>
      </trkpt>
      <trkpt lat="44.88093" lon="5.25291">
        <ele>1222.8</ele>
        <time>2024-07-02T09:37:14Z</time>
      </trkpt>
      <trkpt lat="44.88093" lon="5.25291">
        <ele>1222.8</ele>
        <time>2024-07-02T09:37:15Z</time>
      </trkpt>
      <trkpt lat="44.88093" lon="5.25291">
        <ele>1222.9</ele>
        <time>2024-07-02T09:37:16Z</time>
      </trkpt>
      <trkpt lat="44.88092" lon="5.25291">
        <ele>1222.9</ele>
        <time>2024-07-02T09:37:17Z</time>
      </trkpt>
      <trkpt lat="44.88092" lon="5.25292">
        <ele>1222.9</ele>
        <time>2024-07-02T09:37:18Z</time>
      </trkpt>
      <trkpt lat="44.88092" lon="5.25292">
        <ele>1222.9</ele>
        <time>2024-07-02T09:37:19Z</time>
      </trkpt>
      <trkpt lat="44.88092" lon="5.25292">
        <ele>1222.9</ele>
        <time>2024-07-02T09:37:20Z</time>
      </trkpt>
      <trkpt lat="44.88092" lon="5.25292">
        <ele>1223</ele>
        <time>2024-07-02T09:37:21Z</time>
      </trkpt>
      <trkpt lat="44.88092" lon="5.25293">
        <ele>1223</ele>
        <time>2024-07-02T09:37:22Z</time>
      </trkpt>
      <trkpt lat="44.88092" lon="5.25293">
        <ele>1223</ele>
        <time>2024-07-02T09:37:23Z</time>
      </trkpt>
      <trkpt lat="44.88093" lon="5.25294">
        <ele>1223.1</ele>
        <time>2024-07-02T09:37:24Z</time>
      </trkpt>
      <trkpt lat="44.88094" lon="5.25296">
        <ele>1223.3</ele>
        <time>2024-07-02T09:37:25Z</time>
      </trkpt>
      <trkpt lat="44.88095" lon="5.25298">
        <ele>1223.4</ele>
        <time>2024-07-02T09:37:26Z</time>
      </trkpt>
      <trkpt lat="44.88096" lon="5.253">
        <ele>1223.6</ele>
        <time>2024-07-02T09:37:27Z</time>
      </trkpt>
      <trkpt lat="44.88097" lon="5.25301">
        <ele>1223.7</ele>
        <time>2024-07-02T09:37:28Z</time>
      </trkpt>
      <trkpt lat="44.88098" lon="5.25303">
        <ele>1223.8</ele>
        <time>2024-07-02T09:37:29Z</time>
      </trkpt>
      <trkpt lat="44.88099" lon="5.25306">
        <ele>1224.1</ele>
        <time>2024-07-02T09:37:30Z</time>
      </trkpt>
      <trkpt lat="44.88099" lon="5.25307">
        <ele>1224.1</ele>
        <time>2024-07-02T09:37:31Z</time>
      </trkpt>
      <trkpt lat="44.881" lon="5.25308">
        <ele>1224.2</ele>
        <time>2024-07-02T09:37:32Z</time>
      </trkpt>
      <trkpt lat="44.88101" lon="5.25311">
        <ele>1224.4</ele>
        <time>2024-07-02T09:37:33Z</time>
      </trkpt>
      <trkpt lat="44.88101" lon="5.25312">
        <ele>1224.5</ele>
        <time>2024-07-02T09:37:34Z</time>
      </trkpt>
      <trkpt lat="44.88101" lon="5.25313">
        <ele>1224.6</ele>
        <time>2024-07-02T09:37:35Z</time>
      </trkpt>
      <trkpt lat="44.88102" lon="5.25316">
        <ele>1224.9</ele>
        <time>2024-07-02T09:37:36Z</time>
      </trkpt>
      <trkpt lat="44.88103" lon="5.25317">
        <ele>1224.9</ele>
        <time>2024-07-02T09:37:37Z</time>
      </trkpt>
      <trkpt lat="44.88103" lon="5.25318">
        <ele>1225</ele>
        <time>2024-07-02T09:37:38Z</time>
      </trkpt>
      <trkpt lat="44.88103" lon="5.25319">
        <ele>1225.1</ele>
        <time>2024-07-02T09:37:39Z</time>
      </trkpt>
      <trkpt lat="44.88104" lon="5.25321">
        <ele>1225.3</ele>
        <time>2024-07-02T09:37:40Z</time>
      </trkpt>
      <trkpt lat="44.88104" lon="5.25322">
        <ele>1225.4</ele>
        <time>2024-07-02T09:37:41Z</time>
      </trkpt>
      <trkpt lat="44.88105" lon="5.25324">
        <ele>1225.5</ele>
        <time>2024-07-02T09:37:42Z</time>
      </trkpt>
      <trkpt lat="44.88105" lon="5.25325">
        <ele>1225.7</ele>
        <time>2024-07-02T09:37:43Z</time>
      </trkpt>
      <trkpt lat="44.88106" lon="5.25327">
        <ele>1225.8</ele>
        <time>2024-07-02T09:37:44Z</time>
      </trkpt>
      <trkpt lat="44.88106" lon="5.25328">
        <ele>1225.9</ele>
        <time>2024-07-02T09:37:45Z</time>
      </trkpt>
      <trkpt lat="44.88106" lon="5.2533">
        <ele>1226.1</ele>
        <time>2024-07-02T09:37:46Z</time>
      </trkpt>
      <trkpt lat="44.88107" lon="5.25331">
        <ele>1226.2</ele>
        <time>2024-07-02T09:37:47Z</time>
      </trkpt>
      <trkpt lat="44.88107" lon="5.25332">
        <ele>1226.3</ele>
        <time>2024-07-02T09:37:48Z</time>
      </trkpt>
      <trkpt lat="44.88108" lon="5.25334">
        <ele>1226.4</ele>
        <time>2024-07-02T09:37:49Z</time>
      </trkpt>
      <trkpt lat="44.88108" lon="5.25335">
        <ele>1226.5</ele>
        <time>2024-07-02T09:37:50Z</time>
      </trkpt>
      <trkpt lat="44.88109" lon="5.25337">
        <ele>1226.7</ele>
        <time>2024-07-02T09:37:51Z</time>
      </trkpt>
      <trkpt lat="44.88109" lon="5.25338">
        <ele>1226.8</ele>
        <time>2024-07-02T09:37:52Z</time>
      </trkpt>
      <trkpt lat="44.88109" lon="5.25338">
        <ele>1226.8</ele>
        <time>2024-07-02T09:37:53Z</time>
      </trkpt>
      <trkpt lat="44.88109" lon="5.25339">
        <ele>1226.9</ele>
        <time>2024-07-02T09:37:54Z</time>
      </trkpt>
      <trkpt lat="44.88109" lon="5.25339">
        <ele>1227</ele>
        <time>2024-07-02T09:37:55Z</time>
      </trkpt>
      <trkpt lat="44.8811" lon="5.25341">
        <ele>1227.1</ele>
        <time>2024-07-02T09:37:56Z</time>
      </trkpt>
      <trkpt lat="44.8811" lon="5.25342">
        <ele>1227.2</ele>
        <time>2024-07-02T09:37:57Z</time>
      </trkpt>
      <trkpt lat="44.88111" lon="5.25343">
        <ele>1227.3</ele>
        <time>2024-07-02T09:37:58Z</time>
      </trkpt>
      <trkpt lat="44.88112" lon="5.25344">
        <ele>1227.5</ele>
        <time>2024-07-02T09:37:59Z</time>
      </trkpt>
      <trkpt lat="44.88112" lon="5.25345">
        <ele>1227.6</ele>
        <time>2024-07-02T09:38:00Z</time>
      </trkpt>
      <trkpt lat="44.88113" lon="5.25346">
        <ele>1227.7</ele>
        <time>2024-07-02T09:38:01Z</time>
      </trkpt>
      <trkpt lat="44.88115" lon="5.25348">
        <ele>1227.9</ele>
        <time>2024-07-02T09:38:02Z</time>
      </trkpt>
      <trkpt lat="44.88115" lon="5.25349">
        <ele>1228.1</ele>
        <time>2024-07-02T09:38:03Z</time>
      </trkpt>
      <trkpt lat="44.88116" lon="5.2535">
        <ele>1228.1</ele>
        <time>2024-07-02T09:38:04Z</time>
      </trkpt>
      <trkpt lat="44.88117" lon="5.25351">
        <ele>1228.3</ele>
        <time>2024-07-02T09:38:05Z</time>
      </trkpt>
      <trkpt lat="44.88117" lon="5.25352">
        <ele>1228.4</ele>
        <time>2024-07-02T09:38:06Z</time>
      </trkpt>
      <trkpt lat="44.88118" lon="5.25353">
        <ele>1228.5</ele>
        <time>2024-07-02T09:38:07Z</time>
      </trkpt>
      <trkpt lat="44.88119" lon="5.25354">
        <ele>1228.6</ele>
        <time>2024-07-02T09:38:08Z</time>
      </trkpt>
      <trkpt lat="44.88119" lon="5.25356">
        <ele>1228.8</ele>
        <time>2024-07-02T09:38:09Z</time>
      </trkpt>
      <trkpt lat="44.8812" lon="5.25357">
        <ele>1228.8</ele>
        <time>2024-07-02T09:38:10Z</time>
      </trkpt>
      <trkpt lat="44.88121" lon="5.25358">
        <ele>1229</ele>
        <time>2024-07-02T09:38:11Z</time>
      </trkpt>
      <trkpt lat="44.88121" lon="5.25359">
        <ele>1229.1</ele>
        <time>2024-07-02T09:38:12Z</time>
      </trkpt>
      <trkpt lat="44.88122" lon="5.2536">
        <ele>1229.2</ele>
        <time>2024-07-02T09:38:13Z</time>
      </trkpt>
      <trkpt lat="44.88123" lon="5.25361">
        <ele>1229.3</ele>
        <time>2024-07-02T09:38:14Z</time>
      </trkpt>
      <trkpt lat="44.88124" lon="5.25362">
        <ele>1229.4</ele>
        <time>2024-07-02T09:38:15Z</time>
      </trkpt>
      <trkpt lat="44.88125" lon="5.25363">
        <ele>1229.5</ele>
        <time>2024-07-02T09:38:16Z</time>
      </trkpt>
      <trkpt lat="44.88126" lon="5.25365">
        <ele>1229.7</ele>
        <time>2024-07-02T09:38:17Z</time>
      </trkpt>
      <trkpt lat="44.88127" lon="5.25366">
        <ele>1229.8</ele>
        <time>2024-07-02T09:38:18Z</time>
      </trkpt>
      <trkpt lat="44.88127" lon="5.25367">
        <ele>1229.8</ele>
        <time>2024-07-02T09:38:19Z</time>
      </trkpt>
      <trkpt lat="44.88129" lon="5.25369">
        <ele>1230</ele>
        <time>2024-07-02T09:38:20Z</time>
      </trkpt>
      <trkpt lat="44.88129" lon="5.2537">
        <ele>1230.1</ele>
        <time>2024-07-02T09:38:21Z</time>
      </trkpt>
      <trkpt lat="44.8813" lon="5.25371">
        <ele>1230.2</ele>
        <time>2024-07-02T09:38:22Z</time>
      </trkpt>
      <trkpt lat="44.88131" lon="5.25372">
        <ele>1230.3</ele>
        <time>2024-07-02T09:38:23Z</time>
      </trkpt>
      <trkpt lat="44.88132" lon="5.25372">
        <ele>1230.4</ele>
        <time>2024-07-02T09:38:24Z</time>
      </trkpt>
      <trkpt lat="44.88133" lon="5.25373">
        <ele>1230.5</ele>
        <time>2024-07-02T09:38:25Z</time>
      </trkpt>
      <trkpt lat="44.88133" lon="5.25374">
        <ele>1230.6</ele>
        <time>2024-07-02T09:38:26Z</time>
      </trkpt>
      <trkpt lat="44.88134" lon="5.25376">
        <ele>1230.7</ele>
        <time>2024-07-02T09:38:27Z</time>
      </trkpt>
      <trkpt lat="44.88135" lon="5.25377">
        <ele>1230.8</ele>
        <time>2024-07-02T09:38:28Z</time>
      </trkpt>
      <trkpt lat="44.88136" lon="5.25379">
        <ele>1230.9</ele>
        <time>2024-07-02T09:38:29Z</time>
      </trkpt>
      <trkpt lat="44.88137" lon="5.2538">
        <ele>1231</ele>
        <time>2024-07-02T09:38:30Z</time>
      </trkpt>
      <trkpt lat="44.88138" lon="5.25381">
        <ele>1231.1</ele>
        <time>2024-07-02T09:38:31Z</time>
      </trkpt>
      <trkpt lat="44.88139" lon="5.25383">
        <ele>1231.2</ele>
        <time>2024-07-02T09:38:32Z</time>
      </trkpt>
      <trkpt lat="44.88139" lon="5.25383">
        <ele>1231.3</ele>
        <time>2024-07-02T09:38:33Z</time>
      </trkpt>
      <trkpt lat="44.8814" lon="5.25384">
        <ele>1231.4</ele>
        <time>2024-07-02T09:38:34Z</time>
      </trkpt>
      <trkpt lat="44.88141" lon="5.25385">
        <ele>1231.5</ele>
        <time>2024-07-02T09:38:35Z</time>
      </trkpt>
      <trkpt lat="44.88141" lon="5.25386">
        <ele>1231.6</ele>
        <time>2024-07-02T09:38:36Z</time>
      </trkpt>
      <trkpt lat="44.88142" lon="5.25388">
        <ele>1231.7</ele>
        <time>2024-07-02T09:38:37Z</time>
      </trkpt>
      <trkpt lat="44.88143" lon="5.25389">
        <ele>1231.8</ele>
        <time>2024-07-02T09:38:38Z</time>
      </trkpt>
      <trkpt lat="44.88144" lon="5.2539">
        <ele>1231.9</ele>
        <time>2024-07-02T09:38:39Z</time>
      </trkpt>
      <trkpt lat="44.88145" lon="5.25391">
        <ele>1232</ele>
        <time>2024-07-02T09:38:40Z</time>
      </trkpt>
      <trkpt lat="44.88145" lon="5.25392">
        <ele>1232.1</ele>
        <time>2024-07-02T09:38:41Z</time>
      </trkpt>
      <trkpt lat="44.88146" lon="5.25393">
        <ele>1232.2</ele>
        <time>2024-07-02T09:38:42Z</time>
      </trkpt>
      <trkpt lat="44.88147" lon="5.25393">
        <ele>1232.3</ele>
        <time>2024-07-02T09:38:43Z</time>
      </trkpt>
      <trkpt lat="44.88148" lon="5.25394">
        <ele>1232.4</ele>
        <time>2024-07-02T09:38:44Z</time>
      </trkpt>
      <trkpt lat="44.88149" lon="5.25395">
        <ele>1232.6</ele>
        <time>2024-07-02T09:38:45Z</time>
      </trkpt>
      <trkpt lat="44.8815" lon="5.25396">
        <ele>1232.7</ele>
        <time>2024-07-02T09:38:46Z</time>
      </trkpt>
      <trkpt lat="44.8815" lon="5.25397">
        <ele>1232.8</ele>
        <time>2024-07-02T09:38:47Z</time>
      </trkpt>
      <trkpt lat="44.88151" lon="5.25397">
        <ele>1233</ele>
        <time>2024-07-02T09:38:48Z</time>
      </trkpt>
      <trkpt lat="44.88152" lon="5.25398">
        <ele>1233.1</ele>
        <time>2024-07-02T09:38:49Z</time>
      </trkpt>
      <trkpt lat="44.88153" lon="5.25399">
        <ele>1233.2</ele>
        <time>2024-07-02T09:38:50Z</time>
      </trkpt>
      <trkpt lat="44.88154" lon="5.25399">
        <ele>1233.3</ele>
        <time>2024-07-02T09:38:51Z</time>
      </trkpt>
      <trkpt lat="44.88155" lon="5.254">
        <ele>1233.4</ele>
        <time>2024-07-02T09:38:52Z</time>
      </trkpt>
      <trkpt lat="44.88155" lon="5.25401">
        <ele>1233.6</ele>
        <time>2024-07-02T09:38:53Z</time>
      </trkpt>
      <trkpt lat="44.88156" lon="5.25402">
        <ele>1233.7</ele>
        <time>2024-07-02T09:38:54Z</time>
      </trkpt>
      <trkpt lat="44.88157" lon="5.25402">
        <ele>1233.8</ele>
        <time>2024-07-02T09:38:55Z</time>
      </trkpt>
      <trkpt lat="44.88158" lon="5.25403">
        <ele>1233.9</ele>
        <time>2024-07-02T09:38:56Z</time>
      </trkpt>
      <trkpt lat="44.88158" lon="5.25403">
        <ele>1234.1</ele>
        <time>2024-07-02T09:38:57Z</time>
      </trkpt>
      <trkpt lat="44.88159" lon="5.25404">
        <ele>1234.1</ele>
        <time>2024-07-02T09:38:58Z</time>
      </trkpt>
      <trkpt lat="44.8816" lon="5.25404">
        <ele>1234.3</ele>
        <time>2024-07-02T09:38:59Z</time>
      </trkpt>
      <trkpt lat="44.88161" lon="5.25405">
        <ele>1234.4</ele>
        <time>2024-07-02T09:39:00Z</time>
      </trkpt>
      <trkpt lat="44.88161" lon="5.25406">
        <ele>1234.5</ele>
        <time>2024-07-02T09:39:01Z</time>
      </trkpt>
      <trkpt lat="44.88162" lon="5.25406">
        <ele>1234.7</ele>
        <time>2024-07-02T09:39:02Z</time>
      </trkpt>
      <trkpt lat="44.88163" lon="5.25407">
        <ele>1234.8</ele>
        <time>2024-07-02T09:39:03Z</time>
      </trkpt>
      <trkpt lat="44.88164" lon="5.25408">
        <ele>1235</ele>
        <time>2024-07-02T09:39:04Z</time>
      </trkpt>
      <trkpt lat="44.88165" lon="5.25408">
        <ele>1235.2</ele>
        <time>2024-07-02T09:39:05Z</time>
      </trkpt>
      <trkpt lat="44.88166" lon="5.25409">
        <ele>1235.3</ele>
        <time>2024-07-02T09:39:06Z</time>
      </trkpt>
      <trkpt lat="44.88166" lon="5.25409">
        <ele>1235.4</ele>
        <time>2024-07-02T09:39:07Z</time>
      </trkpt>
      <trkpt lat="44.88167" lon="5.2541">
        <ele>1235.6</ele>
        <time>2024-07-02T09:39:08Z</time>
      </trkpt>
      <trkpt lat="44.88168" lon="5.2541">
        <ele>1235.7</ele>
        <time>2024-07-02T09:39:09Z</time>
      </trkpt>
      <trkpt lat="44.88169" lon="5.25411">
        <ele>1235.9</ele>
        <time>2024-07-02T09:39:10Z</time>
      </trkpt>
      <trkpt lat="44.8817" lon="5.25412">
        <ele>1236</ele>
        <time>2024-07-02T09:39:11Z</time>
      </trkpt>
      <trkpt lat="44.8817" lon="5.25413">
        <ele>1236.2</ele>
        <time>2024-07-02T09:39:12Z</time>
      </trkpt>
      <trkpt lat="44.88171" lon="5.25414">
        <ele>1236.3</ele>
        <time>2024-07-02T09:39:13Z</time>
      </trkpt>
      <trkpt lat="44.88172" lon="5.25415">
        <ele>1236.5</ele>
        <time>2024-07-02T09:39:14Z</time>
      </trkpt>
      <trkpt lat="44.88173" lon="5.25416">
        <ele>1236.7</ele>
        <time>2024-07-02T09:39:15Z</time>
      </trkpt>
      <trkpt lat="44.88173" lon="5.25417">
        <ele>1236.9</ele>
        <time>2024-07-02T09:39:16Z</time>
      </trkpt>
      <trkpt lat="44.88174" lon="5.25418">
        <ele>1237.1</ele>
        <time>2024-07-02T09:39:17Z</time>
      </trkpt>
      <trkpt lat="44.88174" lon="5.2542">
        <ele>1237.3</ele>
        <time>2024-07-02T09:39:18Z</time>
      </trkpt>
      <trkpt lat="44.88175" lon="5.25421">
        <ele>1237.4</ele>
        <time>2024-07-02T09:39:19Z</time>
      </trkpt>
      <trkpt lat="44.88176" lon="5.25422">
        <ele>1237.6</ele>
        <time>2024-07-02T09:39:20Z</time>
      </trkpt>
      <trkpt lat="44.88176" lon="5.25423">
        <ele>1237.8</ele>
        <time>2024-07-02T09:39:21Z</time>
      </trkpt>
      <trkpt lat="44.88177" lon="5.25424">
        <ele>1238</ele>
        <time>2024-07-02T09:39:22Z</time>
      </trkpt>
      <trkpt lat="44.88177" lon="5.25425">
        <ele>1238.1</ele>
        <time>2024-07-02T09:39:23Z</time>
      </trkpt>
      <trkpt lat="44.88178" lon="5.25426">
        <ele>1238.3</ele>
        <time>2024-07-02T09:39:24Z</time>
      </trkpt>
      <trkpt lat="44.88179" lon="5.25428">
        <ele>1238.5</ele>
        <time>2024-07-02T09:39:25Z</time>
      </trkpt>
      <trkpt lat="44.88179" lon="5.25429">
        <ele>1238.7</ele>
        <time>2024-07-02T09:39:26Z</time>
      </trkpt>
      <trkpt lat="44.8818" lon="5.2543">
        <ele>1238.9</ele>
        <time>2024-07-02T09:39:27Z</time>
      </trkpt>
      <trkpt lat="44.8818" lon="5.25431">
        <ele>1239</ele>
        <time>2024-07-02T09:39:28Z</time>
      </trkpt>
      <trkpt lat="44.88181" lon="5.25432">
        <ele>1239.2</ele>
        <time>2024-07-02T09:39:29Z</time>
      </trkpt>
      <trkpt lat="44.88182" lon="5.25434">
        <ele>1239.4</ele>
        <time>2024-07-02T09:39:30Z</time>
      </trkpt>
      <trkpt lat="44.88183" lon="5.25436">
        <ele>1239.8</ele>
        <time>2024-07-02T09:39:31Z</time>
      </trkpt>
      <trkpt lat="44.88184" lon="5.25437">
        <ele>1239.9</ele>
        <time>2024-07-02T09:39:32Z</time>
      </trkpt>
      <trkpt lat="44.88184" lon="5.25438">
        <ele>1240.1</ele>
        <time>2024-07-02T09:39:33Z</time>
      </trkpt>
      <trkpt lat="44.88185" lon="5.2544">
        <ele>1240.4</ele>
        <time>2024-07-02T09:39:34Z</time>
      </trkpt>
      <trkpt lat="44.88186" lon="5.25441">
        <ele>1240.6</ele>
        <time>2024-07-02T09:39:35Z</time>
      </trkpt>
      <trkpt lat="44.88186" lon="5.25442">
        <ele>1240.7</ele>
        <time>2024-07-02T09:39:36Z</time>
      </trkpt>
      <trkpt lat="44.88187" lon="5.25444">
        <ele>1241</ele>
        <time>2024-07-02T09:39:37Z</time>
      </trkpt>
      <trkpt lat="44.88188" lon="5.25445">
        <ele>1241.1</ele>
        <time>2024-07-02T09:39:38Z</time>
      </trkpt>
      <trkpt lat="44.88188" lon="5.25446">
        <ele>1241.3</ele>
        <time>2024-07-02T09:39:39Z</time>
      </trkpt>
      <trkpt lat="44.88189" lon="5.25448">
        <ele>1241.5</ele>
        <time>2024-07-02T09:39:40Z</time>
      </trkpt>
      <trkpt lat="44.88189" lon="5.25449">
        <ele>1241.7</ele>
        <time>2024-07-02T09:39:41Z</time>
      </trkpt>
      <trkpt lat="44.8819" lon="5.2545">
        <ele>1241.9</ele>
        <time>2024-07-02T09:39:42Z</time>
      </trkpt>
      <trkpt lat="44.8819" lon="5.25452">
        <ele>1242.1</ele>
        <time>2024-07-02T09:39:43Z</time>
      </trkpt>
      <trkpt lat="44.88191" lon="5.25453">
        <ele>1242.2</ele>
        <time>2024-07-02T09:39:44Z</time>
      </trkpt>
      <trkpt lat="44.88191" lon="5.25454">
        <ele>1242.4</ele>
        <time>2024-07-02T09:39:45Z</time>
      </trkpt>
      <trkpt lat="44.88192" lon="5.25455">
        <ele>1242.6</ele>
        <time>2024-07-02T09:39:46Z</time>
      </trkpt>
      <trkpt lat="44.88192" lon="5.25455">
        <ele>1242.7</ele>
        <time>2024-07-02T09:39:47Z</time>
      </trkpt>
      <trkpt lat="44.88193" lon="5.25457">
        <ele>1242.9</ele>
        <time>2024-07-02T09:39:48Z</time>
      </trkpt>
      <trkpt lat="44.88193" lon="5.25458">
        <ele>1243.1</ele>
        <time>2024-07-02T09:39:49Z</time>
      </trkpt>
      <trkpt lat="44.88194" lon="5.25459">
        <ele>1243.2</ele>
        <time>2024-07-02T09:39:50Z</time>
      </trkpt>
      <trkpt lat="44.88194" lon="5.2546">
        <ele>1243.4</ele>
        <time>2024-07-02T09:39:51Z</time>
      </trkpt>
      <trkpt lat="44.88195" lon="5.25461">
        <ele>1243.6</ele>
        <time>2024-07-02T09:39:52Z</time>
      </trkpt>
      <trkpt lat="44.88196" lon="5.25462">
        <ele>1243.8</ele>
        <time>2024-07-02T09:39:53Z</time>
      </trkpt>
      <trkpt lat="44.88196" lon="5.25463">
        <ele>1244</ele>
        <time>2024-07-02T09:39:54Z</time>
      </trkpt>
      <trkpt lat="44.88197" lon="5.25465">
        <ele>1244.2</ele>
        <time>2024-07-02T09:39:55Z</time>
      </trkpt>
      <trkpt lat="44.88197" lon="5.25466">
        <ele>1244.4</ele>
        <time>2024-07-02T09:39:56Z</time>
      </trkpt>
      <trkpt lat="44.88198" lon="5.25467">
        <ele>1244.6</ele>
        <time>2024-07-02T09:39:57Z</time>
      </trkpt>
      <trkpt lat="44.88198" lon="5.25468">
        <ele>1244.8</ele>
        <time>2024-07-02T09:39:58Z</time>
      </trkpt>
      <trkpt lat="44.88199" lon="5.25469">
        <ele>1245</ele>
        <time>2024-07-02T09:39:59Z</time>
      </trkpt>
      <trkpt lat="44.88199" lon="5.25471">
        <ele>1245.2</ele>
        <time>2024-07-02T09:40:00Z</time>
      </trkpt>
      <trkpt lat="44.882" lon="5.25472">
        <ele>1245.4</ele>
        <time>2024-07-02T09:40:01Z</time>
      </trkpt>
      <trkpt lat="44.88201" lon="5.25472">
        <ele>1245.6</ele>
        <time>2024-07-02T09:40:02Z</time>
      </trkpt>
      <trkpt lat="44.88201" lon="5.25473">
        <ele>1245.7</ele>
        <time>2024-07-02T09:40:03Z</time>
      </trkpt>
      <trkpt lat="44.88202" lon="5.25474">
        <ele>1245.9</ele>
        <time>2024-07-02T09:40:04Z</time>
      </trkpt>
      <trkpt lat="44.88202" lon="5.25475">
        <ele>1246.1</ele>
        <time>2024-07-02T09:40:05Z</time>
      </trkpt>
      <trkpt lat="44.88202" lon="5.25477">
        <ele>1246.3</ele>
        <time>2024-07-02T09:40:06Z</time>
      </trkpt>
      <trkpt lat="44.88202" lon="5.25478">
        <ele>1246.4</ele>
        <time>2024-07-02T09:40:07Z</time>
      </trkpt>
      <trkpt lat="44.88203" lon="5.25479">
        <ele>1246.6</ele>
        <time>2024-07-02T09:40:08Z</time>
      </trkpt>
      <trkpt lat="44.88203" lon="5.2548">
        <ele>1246.8</ele>
        <time>2024-07-02T09:40:09Z</time>
      </trkpt>
      <trkpt lat="44.88203" lon="5.25481">
        <ele>1247</ele>
        <time>2024-07-02T09:40:10Z</time>
      </trkpt>
      <trkpt lat="44.88204" lon="5.25482">
        <ele>1247.2</ele>
        <time>2024-07-02T09:40:11Z</time>
      </trkpt>
      <trkpt lat="44.88204" lon="5.25483">
        <ele>1247.3</ele>
        <time>2024-07-02T09:40:12Z</time>
      </trkpt>
      <trkpt lat="44.88204" lon="5.25485">
        <ele>1247.5</ele>
        <time>2024-07-02T09:40:13Z</time>
      </trkpt>
      <trkpt lat="44.88204" lon="5.25486">
        <ele>1247.7</ele>
        <time>2024-07-02T09:40:14Z</time>
      </trkpt>
      <trkpt lat="44.88204" lon="5.25487">
        <ele>1247.9</ele>
        <time>2024-07-02T09:40:15Z</time>
      </trkpt>
      <trkpt lat="44.88205" lon="5.25489">
        <ele>1248.1</ele>
        <time>2024-07-02T09:40:16Z</time>
      </trkpt>
      <trkpt lat="44.88205" lon="5.2549">
        <ele>1248.3</ele>
        <time>2024-07-02T09:40:17Z</time>
      </trkpt>
      <trkpt lat="44.88205" lon="5.25491">
        <ele>1248.4</ele>
        <time>2024-07-02T09:40:18Z</time>
      </trkpt>
      <trkpt lat="44.88205" lon="5.25491">
        <ele>1248.5</ele>
        <time>2024-07-02T09:40:19Z</time>
      </trkpt>
      <trkpt lat="44.88205" lon="5.25491">
        <ele>1248.5</ele>
        <time>2024-07-02T09:40:20Z</time>
      </trkpt>
      <trkpt lat="44.88205" lon="5.25492">
        <ele>1248.7</ele>
        <time>2024-07-02T09:40:21Z</time>
      </trkpt>
      <trkpt lat="44.88205" lon="5.25493">
        <ele>1248.7</ele>
        <time>2024-07-02T09:40:22Z</time>
      </trkpt>
      <trkpt lat="44.88205" lon="5.25494">
        <ele>1248.9</ele>
        <time>2024-07-02T09:40:23Z</time>
      </trkpt>
      <trkpt lat="44.88206" lon="5.25495">
        <ele>1249.1</ele>
        <time>2024-07-02T09:40:24Z</time>
      </trkpt>
      <trkpt lat="44.88206" lon="5.25496">
        <ele>1249.2</ele>
        <time>2024-07-02T09:40:25Z</time>
      </trkpt>
      <trkpt lat="44.88207" lon="5.25497">
        <ele>1249.4</ele>
        <time>2024-07-02T09:40:26Z</time>
      </trkpt>
      <trkpt lat="44.88207" lon="5.25498">
        <ele>1249.6</ele>
        <time>2024-07-02T09:40:27Z</time>
      </trkpt>
      <trkpt lat="44.88207" lon="5.25499">
        <ele>1249.7</ele>
        <time>2024-07-02T09:40:28Z</time>
      </trkpt>
      <trkpt lat="44.88207" lon="5.25501">
        <ele>1249.9</ele>
        <time>2024-07-02T09:40:29Z</time>
      </trkpt>
      <trkpt lat="44.88207" lon="5.25501">
        <ele>1250</ele>
        <time>2024-07-02T09:40:30Z</time>
      </trkpt>
      <trkpt lat="44.88207" lon="5.25503">
        <ele>1250.2</ele>
        <time>2024-07-02T09:40:31Z</time>
      </trkpt>
      <trkpt lat="44.88207" lon="5.25503">
        <ele>1250.3</ele>
        <time>2024-07-02T09:40:32Z</time>
      </trkpt>
      <trkpt lat="44.88207" lon="5.25505">
        <ele>1250.5</ele>
        <time>2024-07-02T09:40:33Z</time>
      </trkpt>
      <trkpt lat="44.88207" lon="5.25506">
        <ele>1250.7</ele>
        <time>2024-07-02T09:40:34Z</time>
      </trkpt>
      <trkpt lat="44.88207" lon="5.25507">
        <ele>1250.8</ele>
        <time>2024-07-02T09:40:35Z</time>
      </trkpt>
      <trkpt lat="44.88207" lon="5.25508">
        <ele>1251</ele>
        <time>2024-07-02T09:40:36Z</time>
      </trkpt>
      <trkpt lat="44.88208" lon="5.25509">
        <ele>1251.1</ele>
        <time>2024-07-02T09:40:37Z</time>
      </trkpt>
      <trkpt lat="44.88209" lon="5.2551">
        <ele>1251.3</ele>
        <time>2024-07-02T09:40:38Z</time>
      </trkpt>
      <trkpt lat="44.88209" lon="5.25511">
        <ele>1251.5</ele>
        <time>2024-07-02T09:40:39Z</time>
      </trkpt>
      <trkpt lat="44.8821" lon="5.25512">
        <ele>1251.7</ele>
        <time>2024-07-02T09:40:40Z</time>
      </trkpt>
      <trkpt lat="44.8821" lon="5.25513">
        <ele>1251.9</ele>
        <time>2024-07-02T09:40:41Z</time>
      </trkpt>
      <trkpt lat="44.8821" lon="5.25514">
        <ele>1252.1</ele>
        <time>2024-07-02T09:40:42Z</time>
      </trkpt>
      <trkpt lat="44.88211" lon="5.25515">
        <ele>1252.2</ele>
        <time>2024-07-02T09:40:43Z</time>
      </trkpt>
      <trkpt lat="44.88211" lon="5.25516">
        <ele>1252.3</ele>
        <time>2024-07-02T09:40:44Z</time>
      </trkpt>
      <trkpt lat="44.88211" lon="5.25517">
        <ele>1252.5</ele>
        <time>2024-07-02T09:40:45Z</time>
      </trkpt>
      <trkpt lat="44.88212" lon="5.25519">
        <ele>1252.8</ele>
        <time>2024-07-02T09:40:46Z</time>
      </trkpt>
      <trkpt lat="44.88212" lon="5.2552">
        <ele>1253</ele>
        <time>2024-07-02T09:40:47Z</time>
      </trkpt>
      <trkpt lat="44.88212" lon="5.25521">
        <ele>1253.1</ele>
        <time>2024-07-02T09:40:48Z</time>
      </trkpt>
      <trkpt lat="44.88213" lon="5.25521">
        <ele>1253.2</ele>
        <time>2024-07-02T09:40:49Z</time>
      </trkpt>
      <trkpt lat="44.88213" lon="5.25523">
        <ele>1253.4</ele>
        <time>2024-07-02T09:40:50Z</time>
      </trkpt>
      <trkpt lat="44.88213" lon="5.25524">
        <ele>1253.6</ele>
        <time>2024-07-02T09:40:51Z</time>
      </trkpt>
      <trkpt lat="44.88213" lon="5.25525">
        <ele>1253.8</ele>
        <time>2024-07-02T09:40:52Z</time>
      </trkpt>
      <trkpt lat="44.88213" lon="5.25526">
        <ele>1254</ele>
        <time>2024-07-02T09:40:53Z</time>
      </trkpt>
      <trkpt lat="44.88213" lon="5.25528">
        <ele>1254.3</ele>
        <time>2024-07-02T09:40:54Z</time>
      </trkpt>
      <trkpt lat="44.88213" lon="5.25529">
        <ele>1254.4</ele>
        <time>2024-07-02T09:40:55Z</time>
      </trkpt>
      <trkpt lat="44.88213" lon="5.2553">
        <ele>1254.6</ele>
        <time>2024-07-02T09:40:56Z</time>
      </trkpt>
      <trkpt lat="44.88213" lon="5.25531">
        <ele>1254.7</ele>
        <time>2024-07-02T09:40:57Z</time>
      </trkpt>
      <trkpt lat="44.88213" lon="5.25532">
        <ele>1254.8</ele>
        <time>2024-07-02T09:40:58Z</time>
      </trkpt>
      <trkpt lat="44.88213" lon="5.25533">
        <ele>1255</ele>
        <time>2024-07-02T09:40:59Z</time>
      </trkpt>
      <trkpt lat="44.88214" lon="5.25534">
        <ele>1255.1</ele>
        <time>2024-07-02T09:41:00Z</time>
      </trkpt>
      <trkpt lat="44.88214" lon="5.25535">
        <ele>1255.3</ele>
        <time>2024-07-02T09:41:01Z</time>
      </trkpt>
      <trkpt lat="44.88214" lon="5.25537">
        <ele>1255.5</ele>
        <time>2024-07-02T09:41:02Z</time>
      </trkpt>
      <trkpt lat="44.88214" lon="5.25537">
        <ele>1255.6</ele>
        <time>2024-07-02T09:41:03Z</time>
      </trkpt>
      <trkpt lat="44.88215" lon="5.25539">
        <ele>1255.8</ele>
        <time>2024-07-02T09:41:04Z</time>
      </trkpt>
      <trkpt lat="44.88215" lon="5.25539">
        <ele>1255.9</ele>
        <time>2024-07-02T09:41:05Z</time>
      </trkpt>
      <trkpt lat="44.88215" lon="5.2554">
        <ele>1256.1</ele>
        <time>2024-07-02T09:41:06Z</time>
      </trkpt>
      <trkpt lat="44.88215" lon="5.25542">
        <ele>1256.3</ele>
        <time>2024-07-02T09:41:07Z</time>
      </trkpt>
      <trkpt lat="44.88215" lon="5.25543">
        <ele>1256.4</ele>
        <time>2024-07-02T09:41:08Z</time>
      </trkpt>
      <trkpt lat="44.88215" lon="5.25544">
        <ele>1256.6</ele>
        <time>2024-07-02T09:41:09Z</time>
      </trkpt>
      <trkpt lat="44.88215" lon="5.25545">
        <ele>1256.8</ele>
        <time>2024-07-02T09:41:10Z</time>
      </trkpt>
      <trkpt lat="44.88216" lon="5.25546">
        <ele>1256.9</ele>
        <time>2024-07-02T09:41:11Z</time>
      </trkpt>
      <trkpt lat="44.88216" lon="5.25548">
        <ele>1257.1</ele>
        <time>2024-07-02T09:41:12Z</time>
      </trkpt>
      <trkpt lat="44.88216" lon="5.25549">
        <ele>1257.3</ele>
        <time>2024-07-02T09:41:13Z</time>
      </trkpt>
      <trkpt lat="44.88216" lon="5.2555">
        <ele>1257.5</ele>
        <time>2024-07-02T09:41:14Z</time>
      </trkpt>
      <trkpt lat="44.88217" lon="5.25551">
        <ele>1257.7</ele>
        <time>2024-07-02T09:41:15Z</time>
      </trkpt>
      <trkpt lat="44.88217" lon="5.25552">
        <ele>1257.9</ele>
        <time>2024-07-02T09:41:16Z</time>
      </trkpt>
      <trkpt lat="44.88218" lon="5.25554">
        <ele>1258.2</ele>
        <time>2024-07-02T09:41:17Z</time>
      </trkpt>
      <trkpt lat="44.88218" lon="5.25555">
        <ele>1258.3</ele>
        <time>2024-07-02T09:41:18Z</time>
      </trkpt>
      <trkpt lat="44.88218" lon="5.25556">
        <ele>1258.5</ele>
        <time>2024-07-02T09:41:19Z</time>
      </trkpt>
      <trkpt lat="44.88218" lon="5.25557">
        <ele>1258.6</ele>
        <time>2024-07-02T09:41:20Z</time>
      </trkpt>
      <trkpt lat="44.88219" lon="5.25558">
        <ele>1258.8</ele>
        <time>2024-07-02T09:41:21Z</time>
      </trkpt>
      <trkpt lat="44.88219" lon="5.2556">
        <ele>1259</ele>
        <time>2024-07-02T09:41:22Z</time>
      </trkpt>
      <trkpt lat="44.88219" lon="5.25561">
        <ele>1259.2</ele>
        <time>2024-07-02T09:41:23Z</time>
      </trkpt>
      <trkpt lat="44.88219" lon="5.25562">
        <ele>1259.3</ele>
        <time>2024-07-02T09:41:24Z</time>
      </trkpt>
      <trkpt lat="44.88219" lon="5.25563">
        <ele>1259.5</ele>
        <time>2024-07-02T09:41:25Z</time>
      </trkpt>
      <trkpt lat="44.8822" lon="5.25564">
        <ele>1259.7</ele>
        <time>2024-07-02T09:41:26Z</time>
      </trkpt>
      <trkpt lat="44.8822" lon="5.25566">
        <ele>1259.9</ele>
        <time>2024-07-02T09:41:27Z</time>
      </trkpt>
      <trkpt lat="44.88221" lon="5.25567">
        <ele>1260.1</ele>
        <time>2024-07-02T09:41:28Z</time>
      </trkpt>
      <trkpt lat="44.88221" lon="5.25568">
        <ele>1260.3</ele>
        <time>2024-07-02T09:41:29Z</time>
      </trkpt>
      <trkpt lat="44.88222" lon="5.25569">
        <ele>1260.6</ele>
        <time>2024-07-02T09:41:30Z</time>
      </trkpt>
      <trkpt lat="44.88222" lon="5.2557">
        <ele>1260.7</ele>
        <time>2024-07-02T09:41:31Z</time>
      </trkpt>
      <trkpt lat="44.88222" lon="5.25572">
        <ele>1260.9</ele>
        <time>2024-07-02T09:41:32Z</time>
      </trkpt>
      <trkpt lat="44.88222" lon="5.25573">
        <ele>1261</ele>
        <time>2024-07-02T09:41:33Z</time>
      </trkpt>
      <trkpt lat="44.88222" lon="5.25574">
        <ele>1261.2</ele>
        <time>2024-07-02T09:41:34Z</time>
      </trkpt>
      <trkpt lat="44.88222" lon="5.25575">
        <ele>1261.3</ele>
        <time>2024-07-02T09:41:35Z</time>
      </trkpt>
      <trkpt lat="44.88222" lon="5.25576">
        <ele>1261.5</ele>
        <time>2024-07-02T09:41:36Z</time>
      </trkpt>
      <trkpt lat="44.88222" lon="5.25577">
        <ele>1261.7</ele>
        <time>2024-07-02T09:41:37Z</time>
      </trkpt>
      <trkpt lat="44.88221" lon="5.25578">
        <ele>1261.8</ele>
        <time>2024-07-02T09:41:38Z</time>
      </trkpt>
      <trkpt lat="44.88221" lon="5.2558">
        <ele>1262</ele>
        <time>2024-07-02T09:41:39Z</time>
      </trkpt>
      <trkpt lat="44.88221" lon="5.25581">
        <ele>1262.2</ele>
        <time>2024-07-02T09:41:40Z</time>
      </trkpt>
      <trkpt lat="44.88221" lon="5.25582">
        <ele>1262.3</ele>
        <time>2024-07-02T09:41:41Z</time>
      </trkpt>
      <trkpt lat="44.8822" lon="5.25584">
        <ele>1262.5</ele>
        <time>2024-07-02T09:41:42Z</time>
      </trkpt>
      <trkpt lat="44.8822" lon="5.25585">
        <ele>1262.6</ele>
        <time>2024-07-02T09:41:43Z</time>
      </trkpt>
      <trkpt lat="44.8822" lon="5.25586">
        <ele>1262.7</ele>
        <time>2024-07-02T09:41:44Z</time>
      </trkpt>
      <trkpt lat="44.88219" lon="5.25587">
        <ele>1262.9</ele>
        <time>2024-07-02T09:41:45Z</time>
      </trkpt>
      <trkpt lat="44.88219" lon="5.25588">
        <ele>1263</ele>
        <time>2024-07-02T09:41:46Z</time>
      </trkpt>
      <trkpt lat="44.88219" lon="5.2559">
        <ele>1263.1</ele>
        <time>2024-07-02T09:41:47Z</time>
      </trkpt>
      <trkpt lat="44.88218" lon="5.25591">
        <ele>1263.2</ele>
        <time>2024-07-02T09:41:48Z</time>
      </trkpt>
      <trkpt lat="44.88218" lon="5.25591">
        <ele>1263.3</ele>
        <time>2024-07-02T09:41:49Z</time>
      </trkpt>
      <trkpt lat="44.88217" lon="5.25593">
        <ele>1263.4</ele>
        <time>2024-07-02T09:41:50Z</time>
      </trkpt>
      <trkpt lat="44.88217" lon="5.25593">
        <ele>1263.5</ele>
        <time>2024-07-02T09:41:51Z</time>
      </trkpt>
      <trkpt lat="44.88216" lon="5.25596">
        <ele>1263.7</ele>
        <time>2024-07-02T09:41:52Z</time>
      </trkpt>
      <trkpt lat="44.88216" lon="5.25596">
        <ele>1263.8</ele>
        <time>2024-07-02T09:41:53Z</time>
      </trkpt>
      <trkpt lat="44.88216" lon="5.25597">
        <ele>1263.9</ele>
        <time>2024-07-02T09:41:54Z</time>
      </trkpt>
      <trkpt lat="44.88215" lon="5.25598">
        <ele>1263.9</ele>
        <time>2024-07-02T09:41:55Z</time>
      </trkpt>
      <trkpt lat="44.88215" lon="5.256">
        <ele>1264</ele>
        <time>2024-07-02T09:41:56Z</time>
      </trkpt>
      <trkpt lat="44.88215" lon="5.25601">
        <ele>1264.1</ele>
        <time>2024-07-02T09:41:57Z</time>
      </trkpt>
      <trkpt lat="44.88215" lon="5.25603">
        <ele>1264.2</ele>
        <time>2024-07-02T09:41:58Z</time>
      </trkpt>
      <trkpt lat="44.88215" lon="5.25604">
        <ele>1264.3</ele>
        <time>2024-07-02T09:41:59Z</time>
      </trkpt>
      <trkpt lat="44.88215" lon="5.25605">
        <ele>1264.3</ele>
        <time>2024-07-02T09:42:00Z</time>
      </trkpt>
      <trkpt lat="44.88215" lon="5.25607">
        <ele>1264.4</ele>
        <time>2024-07-02T09:42:01Z</time>
      </trkpt>
      <trkpt lat="44.88215" lon="5.25608">
        <ele>1264.4</ele>
        <time>2024-07-02T09:42:02Z</time>
      </trkpt>
      <trkpt lat="44.88215" lon="5.2561">
        <ele>1264.5</ele>
        <time>2024-07-02T09:42:03Z</time>
      </trkpt>
      <trkpt lat="44.88214" lon="5.25611">
        <ele>1264.5</ele>
        <time>2024-07-02T09:42:04Z</time>
      </trkpt>
      <trkpt lat="44.88214" lon="5.25613">
        <ele>1264.6</ele>
        <time>2024-07-02T09:42:05Z</time>
      </trkpt>
      <trkpt lat="44.88213" lon="5.25614">
        <ele>1264.6</ele>
        <time>2024-07-02T09:42:06Z</time>
      </trkpt>
      <trkpt lat="44.88213" lon="5.25615">
        <ele>1264.6</ele>
        <time>2024-07-02T09:42:07Z</time>
      </trkpt>
      <trkpt lat="44.88212" lon="5.25617">
        <ele>1264.5</ele>
        <time>2024-07-02T09:42:08Z</time>
      </trkpt>
      <trkpt lat="44.88212" lon="5.25618">
        <ele>1264.4</ele>
        <time>2024-07-02T09:42:09Z</time>
      </trkpt>
      <trkpt lat="44.88211" lon="5.25619">
        <ele>1264.3</ele>
        <time>2024-07-02T09:42:10Z</time>
      </trkpt>
      <trkpt lat="44.8821" lon="5.25621">
        <ele>1264.2</ele>
        <time>2024-07-02T09:42:11Z</time>
      </trkpt>
      <trkpt lat="44.8821" lon="5.25622">
        <ele>1264.1</ele>
        <time>2024-07-02T09:42:12Z</time>
      </trkpt>
      <trkpt lat="44.88209" lon="5.25623">
        <ele>1264</ele>
        <time>2024-07-02T09:42:13Z</time>
      </trkpt>
      <trkpt lat="44.88208" lon="5.25625">
        <ele>1263.8</ele>
        <time>2024-07-02T09:42:14Z</time>
      </trkpt>
      <trkpt lat="44.88208" lon="5.25626">
        <ele>1263.8</ele>
        <time>2024-07-02T09:42:15Z</time>
      </trkpt>
      <trkpt lat="44.88208" lon="5.25627">
        <ele>1263.7</ele>
        <time>2024-07-02T09:42:16Z</time>
      </trkpt>
      <trkpt lat="44.88207" lon="5.25627">
        <ele>1263.6</ele>
        <time>2024-07-02T09:42:17Z</time>
      </trkpt>
      <trkpt lat="44.88206" lon="5.25629">
        <ele>1263.5</ele>
        <time>2024-07-02T09:42:18Z</time>
      </trkpt>
      <trkpt lat="44.88206" lon="5.2563">
        <ele>1263.4</ele>
        <time>2024-07-02T09:42:19Z</time>
      </trkpt>
      <trkpt lat="44.88205" lon="5.25631">
        <ele>1263.3</ele>
        <time>2024-07-02T09:42:20Z</time>
      </trkpt>
      <trkpt lat="44.88204" lon="5.25631">
        <ele>1263.2</ele>
        <time>2024-07-02T09:42:21Z</time>
      </trkpt>
      <trkpt lat="44.88203" lon="5.25632">
        <ele>1263.1</ele>
        <time>2024-07-02T09:42:22Z</time>
      </trkpt>
      <trkpt lat="44.88202" lon="5.25633">
        <ele>1263</ele>
        <time>2024-07-02T09:42:23Z</time>
      </trkpt>
      <trkpt lat="44.88201" lon="5.25633">
        <ele>1262.9</ele>
        <time>2024-07-02T09:42:24Z</time>
      </trkpt>
      <trkpt lat="44.88201" lon="5.25634">
        <ele>1262.8</ele>
        <time>2024-07-02T09:42:25Z</time>
      </trkpt>
      <trkpt lat="44.882" lon="5.25634">
        <ele>1262.7</ele>
        <time>2024-07-02T09:42:26Z</time>
      </trkpt>
      <trkpt lat="44.88199" lon="5.25635">
        <ele>1262.6</ele>
        <time>2024-07-02T09:42:27Z</time>
      </trkpt>
      <trkpt lat="44.88197" lon="5.25636">
        <ele>1262.5</ele>
        <time>2024-07-02T09:42:28Z</time>
      </trkpt>
      <trkpt lat="44.88197" lon="5.25636">
        <ele>1262.4</ele>
        <time>2024-07-02T09:42:29Z</time>
      </trkpt>
      <trkpt lat="44.88196" lon="5.25636">
        <ele>1262.3</ele>
        <time>2024-07-02T09:42:30Z</time>
      </trkpt>
      <trkpt lat="44.88196" lon="5.25637">
        <ele>1262.2</ele>
        <time>2024-07-02T09:42:31Z</time>
      </trkpt>
      <trkpt lat="44.88195" lon="5.25637">
        <ele>1262.1</ele>
        <time>2024-07-02T09:42:32Z</time>
      </trkpt>
      <trkpt lat="44.88194" lon="5.25638">
        <ele>1262</ele>
        <time>2024-07-02T09:42:33Z</time>
      </trkpt>
      <trkpt lat="44.88193" lon="5.25638">
        <ele>1261.9</ele>
        <time>2024-07-02T09:42:34Z</time>
      </trkpt>
      <trkpt lat="44.88192" lon="5.25639">
        <ele>1261.8</ele>
        <time>2024-07-02T09:42:35Z</time>
      </trkpt>
      <trkpt lat="44.88191" lon="5.2564">
        <ele>1261.6</ele>
        <time>2024-07-02T09:42:36Z</time>
      </trkpt>
      <trkpt lat="44.8819" lon="5.2564">
        <ele>1261.5</ele>
        <time>2024-07-02T09:42:37Z</time>
      </trkpt>
      <trkpt lat="44.88189" lon="5.25641">
        <ele>1261.4</ele>
        <time>2024-07-02T09:42:38Z</time>
      </trkpt>
      <trkpt lat="44.88188" lon="5.25641">
        <ele>1261.2</ele>
        <time>2024-07-02T09:42:39Z</time>
      </trkpt>
      <trkpt lat="44.88187" lon="5.25641">
        <ele>1261.1</ele>
        <time>2024-07-02T09:42:40Z</time>
      </trkpt>
      <trkpt lat="44.88186" lon="5.25642">
        <ele>1260.9</ele>
        <time>2024-07-02T09:42:41Z</time>
      </trkpt>
      <trkpt lat="44.88185" lon="5.25643">
        <ele>1260.8</ele>
        <time>2024-07-02T09:42:42Z</time>
      </trkpt>
      <trkpt lat="44.88185" lon="5.25644">
        <ele>1260.6</ele>
        <time>2024-07-02T09:42:43Z</time>
      </trkpt>
      <trkpt lat="44.88184" lon="5.25645">
        <ele>1260.5</ele>
        <time>2024-07-02T09:42:44Z</time>
      </trkpt>
      <trkpt lat="44.88183" lon="5.25646">
        <ele>1260.3</ele>
        <time>2024-07-02T09:42:45Z</time>
      </trkpt>
      <trkpt lat="44.88183" lon="5.25647">
        <ele>1260.2</ele>
        <time>2024-07-02T09:42:46Z</time>
      </trkpt>
      <trkpt lat="44.88182" lon="5.25648">
        <ele>1260</ele>
        <time>2024-07-02T09:42:47Z</time>
      </trkpt>
      <trkpt lat="44.88181" lon="5.2565">
        <ele>1259.8</ele>
        <time>2024-07-02T09:42:48Z</time>
      </trkpt>
      <trkpt lat="44.88181" lon="5.2565">
        <ele>1259.7</ele>
        <time>2024-07-02T09:42:49Z</time>
      </trkpt>
      <trkpt lat="44.8818" lon="5.25651">
        <ele>1259.6</ele>
        <time>2024-07-02T09:42:50Z</time>
      </trkpt>
      <trkpt lat="44.88179" lon="5.25652">
        <ele>1259.4</ele>
        <time>2024-07-02T09:42:51Z</time>
      </trkpt>
      <trkpt lat="44.88178" lon="5.25653">
        <ele>1259.3</ele>
        <time>2024-07-02T09:42:52Z</time>
      </trkpt>
      <trkpt lat="44.88178" lon="5.25654">
        <ele>1259.1</ele>
        <time>2024-07-02T09:42:53Z</time>
      </trkpt>
      <trkpt lat="44.88177" lon="5.25655">
        <ele>1259</ele>
        <time>2024-07-02T09:42:54Z</time>
      </trkpt>
      <trkpt lat="44.88177" lon="5.25655">
        <ele>1258.9</ele>
        <time>2024-07-02T09:42:55Z</time>
      </trkpt>
      <trkpt lat="44.88176" lon="5.25656">
        <ele>1258.7</ele>
        <time>2024-07-02T09:42:56Z</time>
      </trkpt>
      <trkpt lat="44.88175" lon="5.25656">
        <ele>1258.6</ele>
        <time>2024-07-02T09:42:57Z</time>
      </trkpt>
      <trkpt lat="44.88174" lon="5.25657">
        <ele>1258.5</ele>
        <time>2024-07-02T09:42:58Z</time>
      </trkpt>
      <trkpt lat="44.88173" lon="5.25658">
        <ele>1258.3</ele>
        <time>2024-07-02T09:42:59Z</time>
      </trkpt>
      <trkpt lat="44.88173" lon="5.25658">
        <ele>1258.2</ele>
        <time>2024-07-02T09:43:00Z</time>
      </trkpt>
      <trkpt lat="44.88172" lon="5.25659">
        <ele>1258.1</ele>
        <time>2024-07-02T09:43:01Z</time>
      </trkpt>
      <trkpt lat="44.88172" lon="5.25661">
        <ele>1257.9</ele>
        <time>2024-07-02T09:43:02Z</time>
      </trkpt>
      <trkpt lat="44.88171" lon="5.25662">
        <ele>1257.7</ele>
        <time>2024-07-02T09:43:03Z</time>
      </trkpt>
      <trkpt lat="44.88171" lon="5.25663">
        <ele>1257.6</ele>
        <time>2024-07-02T09:43:04Z</time>
      </trkpt>
      <trkpt lat="44.8817" lon="5.25664">
        <ele>1257.4</ele>
        <time>2024-07-02T09:43:05Z</time>
      </trkpt>
      <trkpt lat="44.88169" lon="5.25665">
        <ele>1257.2</ele>
        <time>2024-07-02T09:43:06Z</time>
      </trkpt>
      <trkpt lat="44.88169" lon="5.25666">
        <ele>1257.1</ele>
        <time>2024-07-02T09:43:07Z</time>
      </trkpt>
      <trkpt lat="44.88168" lon="5.25667">
        <ele>1256.9</ele>
        <time>2024-07-02T09:43:08Z</time>
      </trkpt>
      <trkpt lat="44.88167" lon="5.25668">
        <ele>1256.8</ele>
        <time>2024-07-02T09:43:09Z</time>
      </trkpt>
      <trkpt lat="44.88167" lon="5.25668">
        <ele>1256.7</ele>
        <time>2024-07-02T09:43:10Z</time>
      </trkpt>
      <trkpt lat="44.88166" lon="5.25668">
        <ele>1256.6</ele>
        <time>2024-07-02T09:43:11Z</time>
      </trkpt>
      <trkpt lat="44.88167" lon="5.25668">
        <ele>1256.5</ele>
        <time>2024-07-02T09:43:12Z</time>
      </trkpt>
      <trkpt lat="44.88167" lon="5.25667">
        <ele>1256.5</ele>
        <time>2024-07-02T09:43:13Z</time>
      </trkpt>
      <trkpt lat="44.88167" lon="5.25667">
        <ele>1256.5</ele>
        <time>2024-07-02T09:43:14Z</time>
      </trkpt>
      <trkpt lat="44.88167" lon="5.25667">
        <ele>1256.4</ele>
        <time>2024-07-02T09:43:15Z</time>
      </trkpt>
      <trkpt lat="44.88167" lon="5.25667">
        <ele>1256.4</ele>
        <time>2024-07-02T09:43:16Z</time>
      </trkpt>
      <trkpt lat="44.88168" lon="5.25668">
        <ele>1256.3</ele>
        <time>2024-07-02T09:43:17Z</time>
      </trkpt>
      <trkpt lat="44.88168" lon="5.25669">
        <ele>1256.2</ele>
        <time>2024-07-02T09:43:18Z</time>
      </trkpt>
      <trkpt lat="44.88168" lon="5.25672">
        <ele>1255.9</ele>
        <time>2024-07-02T09:43:19Z</time>
      </trkpt>
      <trkpt lat="44.88169" lon="5.25675">
        <ele>1255.7</ele>
        <time>2024-07-02T09:43:20Z</time>
      </trkpt>
      <trkpt lat="44.88169" lon="5.25676">
        <ele>1255.6</ele>
        <time>2024-07-02T09:43:21Z</time>
      </trkpt>
      <trkpt lat="44.88169" lon="5.25678">
        <ele>1255.5</ele>
        <time>2024-07-02T09:43:22Z</time>
      </trkpt>
      <trkpt lat="44.88169" lon="5.25681">
        <ele>1255.3</ele>
        <time>2024-07-02T09:43:23Z</time>
      </trkpt>
      <trkpt lat="44.88169" lon="5.25682">
        <ele>1255.2</ele>
        <time>2024-07-02T09:43:24Z</time>
      </trkpt>
      <trkpt lat="44.88169" lon="5.25683">
        <ele>1255.2</ele>
        <time>2024-07-02T09:43:25Z</time>
      </trkpt>
      <trkpt lat="44.88169" lon="5.25685">
        <ele>1255.1</ele>
        <time>2024-07-02T09:43:26Z</time>
      </trkpt>
      <trkpt lat="44.88169" lon="5.25686">
        <ele>1255</ele>
        <time>2024-07-02T09:43:27Z</time>
      </trkpt>
      <trkpt lat="44.88169" lon="5.25688">
        <ele>1255</ele>
        <time>2024-07-02T09:43:28Z</time>
      </trkpt>
      <trkpt lat="44.88168" lon="5.25689">
        <ele>1254.9</ele>
        <time>2024-07-02T09:43:29Z</time>
      </trkpt>
      <trkpt lat="44.88168" lon="5.25691">
        <ele>1254.9</ele>
        <time>2024-07-02T09:43:30Z</time>
      </trkpt>
      <trkpt lat="44.88167" lon="5.25692">
        <ele>1254.8</ele>
        <time>2024-07-02T09:43:31Z</time>
      </trkpt>
      <trkpt lat="44.88167" lon="5.25694">
        <ele>1254.8</ele>
        <time>2024-07-02T09:43:32Z</time>
      </trkpt>
      <trkpt lat="44.88167" lon="5.25695">
        <ele>1254.8</ele>
        <time>2024-07-02T09:43:33Z</time>
      </trkpt>
      <trkpt lat="44.88166" lon="5.25697">
        <ele>1254.8</ele>
        <time>2024-07-02T09:43:34Z</time>
      </trkpt>
      <trkpt lat="44.88166" lon="5.25698">
        <ele>1254.8</ele>
        <time>2024-07-02T09:43:35Z</time>
      </trkpt>
      <trkpt lat="44.88166" lon="5.25699">
        <ele>1254.7</ele>
        <time>2024-07-02T09:43:36Z</time>
      </trkpt>
      <trkpt lat="44.88166" lon="5.257">
        <ele>1254.7</ele>
        <time>2024-07-02T09:43:37Z</time>
      </trkpt>
      <trkpt lat="44.88166" lon="5.25701">
        <ele>1254.8</ele>
        <time>2024-07-02T09:43:38Z</time>
      </trkpt>
      <trkpt lat="44.88167" lon="5.25702">
        <ele>1255</ele>
        <time>2024-07-02T09:43:39Z</time>
      </trkpt>
      <trkpt lat="44.88167" lon="5.25703">
        <ele>1255.1</ele>
        <time>2024-07-02T09:43:40Z</time>
      </trkpt>
      <trkpt lat="44.88168" lon="5.25704">
        <ele>1255.1</ele>
        <time>2024-07-02T09:43:41Z</time>
      </trkpt>
      <trkpt lat="44.88168" lon="5.25705">
        <ele>1255.2</ele>
        <time>2024-07-02T09:43:42Z</time>
      </trkpt>
      <trkpt lat="44.88168" lon="5.25705">
        <ele>1255.3</ele>
        <time>2024-07-02T09:43:43Z</time>
      </trkpt>
      <trkpt lat="44.88168" lon="5.25706">
        <ele>1255.4</ele>
        <time>2024-07-02T09:43:44Z</time>
      </trkpt>
      <trkpt lat="44.88168" lon="5.25705">
        <ele>1255.4</ele>
        <time>2024-07-02T09:43:45Z</time>
      </trkpt>
      <trkpt lat="44.88168" lon="5.25705">
        <ele>1255.5</ele>
        <time>2024-07-02T09:43:46Z</time>
      </trkpt>
      <trkpt lat="44.88168" lon="5.25705">
        <ele>1255.5</ele>
        <time>2024-07-02T09:43:47Z</time>
      </trkpt>
      <trkpt lat="44.88168" lon="5.25704">
        <ele>1255.5</ele>
        <time>2024-07-02T09:43:48Z</time>
      </trkpt>
      <trkpt lat="44.88168" lon="5.25704">
        <ele>1255.5</ele>
        <time>2024-07-02T09:43:49Z</time>
      </trkpt>
      <trkpt lat="44.88168" lon="5.25704">
        <ele>1255.6</ele>
        <time>2024-07-02T09:43:50Z</time>
      </trkpt>
      <trkpt lat="44.88168" lon="5.25704">
        <ele>1255.6</ele>
        <time>2024-07-02T09:43:51Z</time>
      </trkpt>
      <trkpt lat="44.88168" lon="5.25704">
        <ele>1255.6</ele>
        <time>2024-07-02T09:43:52Z</time>
      </trkpt>
      <trkpt lat="44.88168" lon="5.25704">
        <ele>1255.6</ele>
        <time>2024-07-02T09:43:53Z</time>
      </trkpt>
      <trkpt lat="44.88169" lon="5.25704">
        <ele>1255.7</ele>
        <time>2024-07-02T09:43:54Z</time>
      </trkpt>
      <trkpt lat="44.88169" lon="5.25704">
        <ele>1255.7</ele>
        <time>2024-07-02T09:43:55Z</time>
      </trkpt>
      <trkpt lat="44.8817" lon="5.25705">
        <ele>1255.9</ele>
        <time>2024-07-02T09:43:56Z</time>
      </trkpt>
      <trkpt lat="44.88171" lon="5.25706">
        <ele>1256</ele>
        <time>2024-07-02T09:43:57Z</time>
      </trkpt>
      <trkpt lat="44.88171" lon="5.25708">
        <ele>1256.2</ele>
        <time>2024-07-02T09:43:58Z</time>
      </trkpt>
      <trkpt lat="44.88172" lon="5.25709">
        <ele>1256.4</ele>
        <time>2024-07-02T09:43:59Z</time>
      </trkpt>
      <trkpt lat="44.88172" lon="5.2571">
        <ele>1256.5</ele>
        <time>2024-07-02T09:44:00Z</time>
      </trkpt>
      <trkpt lat="44.88173" lon="5.25711">
        <ele>1256.7</ele>
        <time>2024-07-02T09:44:01Z</time>
      </trkpt>
      <trkpt lat="44.88173" lon="5.25712">
        <ele>1256.9</ele>
        <time>2024-07-02T09:44:02Z</time>
      </trkpt>
      <trkpt lat="44.88174" lon="5.25713">
        <ele>1257</ele>
        <time>2024-07-02T09:44:03Z</time>
      </trkpt>
      <trkpt lat="44.88174" lon="5.25714">
        <ele>1257.2</ele>
        <time>2024-07-02T09:44:04Z</time>
      </trkpt>
      <trkpt lat="44.88175" lon="5.25715">
        <ele>1257.3</ele>
        <time>2024-07-02T09:44:05Z</time>
      </trkpt>
      <trkpt lat="44.88175" lon="5.25715">
        <ele>1257.4</ele>
        <time>2024-07-02T09:44:06Z</time>
      </trkpt>
      <trkpt lat="44.88176" lon="5.25716">
        <ele>1257.6</ele>
        <time>2024-07-02T09:44:07Z</time>
      </trkpt>
      <trkpt lat="44.88176" lon="5.25717">
        <ele>1257.7</ele>
        <time>2024-07-02T09:44:08Z</time>
      </trkpt>
      <trkpt lat="44.88177" lon="5.25718">
        <ele>1257.9</ele>
        <time>2024-07-02T09:44:09Z</time>
      </trkpt>
      <trkpt lat="44.88177" lon="5.25719">
        <ele>1258</ele>
        <time>2024-07-02T09:44:10Z</time>
      </trkpt>
      <trkpt lat="44.88177" lon="5.25719">
        <ele>1258.1</ele>
        <time>2024-07-02T09:44:11Z</time>
      </trkpt>
      <trkpt lat="44.88178" lon="5.2572">
        <ele>1258.3</ele>
        <time>2024-07-02T09:44:12Z</time>
      </trkpt>
      <trkpt lat="44.88178" lon="5.2572">
        <ele>1258.3</ele>
        <time>2024-07-02T09:44:13Z</time>
      </trkpt>
      <trkpt lat="44.88179" lon="5.25721">
        <ele>1258.5</ele>
        <time>2024-07-02T09:44:14Z</time>
      </trkpt>
      <trkpt lat="44.88179" lon="5.25722">
        <ele>1258.7</ele>
        <time>2024-07-02T09:44:15Z</time>
      </trkpt>
      <trkpt lat="44.8818" lon="5.25722">
        <ele>1258.8</ele>
        <time>2024-07-02T09:44:16Z</time>
      </trkpt>
      <trkpt lat="44.88181" lon="5.25723">
        <ele>1259</ele>
        <time>2024-07-02T09:44:17Z</time>
      </trkpt>
      <trkpt lat="44.88181" lon="5.25723">
        <ele>1259.2</ele>
        <time>2024-07-02T09:44:18Z</time>
      </trkpt>
      <trkpt lat="44.88182" lon="5.25724">
        <ele>1259.3</ele>
        <time>2024-07-02T09:44:19Z</time>
      </trkpt>
      <trkpt lat="44.88183" lon="5.25725">
        <ele>1259.5</ele>
        <time>2024-07-02T09:44:20Z</time>
      </trkpt>
      <trkpt lat="44.88183" lon="5.25726">
        <ele>1259.7</ele>
        <time>2024-07-02T09:44:21Z</time>
      </trkpt>
      <trkpt lat="44.88184" lon="5.25726">
        <ele>1259.9</ele>
        <time>2024-07-02T09:44:22Z</time>
      </trkpt>
      <trkpt lat="44.88185" lon="5.25727">
        <ele>1260.1</ele>
        <time>2024-07-02T09:44:23Z</time>
      </trkpt>
      <trkpt lat="44.88186" lon="5.25728">
        <ele>1260.3</ele>
        <time>2024-07-02T09:44:24Z</time>
      </trkpt>
      <trkpt lat="44.88186" lon="5.25728">
        <ele>1260.5</ele>
        <time>2024-07-02T09:44:25Z</time>
      </trkpt>
      <trkpt lat="44.88187" lon="5.25729">
        <ele>1260.7</ele>
        <time>2024-07-02T09:44:26Z</time>
      </trkpt>
      <trkpt lat="44.88188" lon="5.2573">
        <ele>1260.8</ele>
        <time>2024-07-02T09:44:27Z</time>
      </trkpt>
      <trkpt lat="44.88188" lon="5.2573">
        <ele>1261</ele>
        <time>2024-07-02T09:44:28Z</time>
      </trkpt>
      <trkpt lat="44.88189" lon="5.25731">
        <ele>1261.2</ele>
        <time>2024-07-02T09:44:29Z</time>
      </trkpt>
      <trkpt lat="44.88189" lon="5.25732">
        <ele>1261.4</ele>
        <time>2024-07-02T09:44:30Z</time>
      </trkpt>
      <trkpt lat="44.8819" lon="5.25732">
        <ele>1261.5</ele>
        <time>2024-07-02T09:44:31Z</time>
      </trkpt>
      <trkpt lat="44.88191" lon="5.25733">
        <ele>1261.8</ele>
        <time>2024-07-02T09:44:32Z</time>
      </trkpt>
      <trkpt lat="44.88191" lon="5.25734">
        <ele>1262</ele>
        <time>2024-07-02T09:44:33Z</time>
      </trkpt>
      <trkpt lat="44.88192" lon="5.25735">
        <ele>1262.2</ele>
        <time>2024-07-02T09:44:34Z</time>
      </trkpt>
      <trkpt lat="44.88192" lon="5.25736">
        <ele>1262.3</ele>
        <time>2024-07-02T09:44:35Z</time>
      </trkpt>
      <trkpt lat="44.88193" lon="5.25736">
        <ele>1262.5</ele>
        <time>2024-07-02T09:44:36Z</time>
      </trkpt>
      <trkpt lat="44.88193" lon="5.25737">
        <ele>1262.7</ele>
        <time>2024-07-02T09:44:37Z</time>
      </trkpt>
      <trkpt lat="44.88194" lon="5.25738">
        <ele>1262.9</ele>
        <time>2024-07-02T09:44:38Z</time>
      </trkpt>
      <trkpt lat="44.88195" lon="5.25739">
        <ele>1263.1</ele>
        <time>2024-07-02T09:44:39Z</time>
      </trkpt>
      <trkpt lat="44.88195" lon="5.2574">
        <ele>1263.4</ele>
        <time>2024-07-02T09:44:40Z</time>
      </trkpt>
      <trkpt lat="44.88196" lon="5.25742">
        <ele>1263.7</ele>
        <time>2024-07-02T09:44:41Z</time>
      </trkpt>
      <trkpt lat="44.88196" lon="5.25743">
        <ele>1263.9</ele>
        <time>2024-07-02T09:44:42Z</time>
      </trkpt>
      <trkpt lat="44.88197" lon="5.25745">
        <ele>1264.2</ele>
        <time>2024-07-02T09:44:43Z</time>
      </trkpt>
      <trkpt lat="44.88198" lon="5.25746">
        <ele>1264.4</ele>
        <time>2024-07-02T09:44:44Z</time>
      </trkpt>
      <trkpt lat="44.88198" lon="5.25747">
        <ele>1264.7</ele>
        <time>2024-07-02T09:44:45Z</time>
      </trkpt>
      <trkpt lat="44.88199" lon="5.25748">
        <ele>1264.9</ele>
        <time>2024-07-02T09:44:46Z</time>
      </trkpt>
      <trkpt lat="44.882" lon="5.25749">
        <ele>1265.2</ele>
        <time>2024-07-02T09:44:47Z</time>
      </trkpt>
      <trkpt lat="44.88201" lon="5.2575">
        <ele>1265.4</ele>
        <time>2024-07-02T09:44:48Z</time>
      </trkpt>
      <trkpt lat="44.88201" lon="5.25751">
        <ele>1265.6</ele>
        <time>2024-07-02T09:44:49Z</time>
      </trkpt>
      <trkpt lat="44.88202" lon="5.25752">
        <ele>1265.9</ele>
        <time>2024-07-02T09:44:50Z</time>
      </trkpt>
      <trkpt lat="44.88202" lon="5.25753">
        <ele>1266</ele>
        <time>2024-07-02T09:44:51Z</time>
      </trkpt>
      <trkpt lat="44.88203" lon="5.25754">
        <ele>1266.2</ele>
        <time>2024-07-02T09:44:52Z</time>
      </trkpt>
      <trkpt lat="44.88204" lon="5.25754">
        <ele>1266.4</ele>
        <time>2024-07-02T09:44:53Z</time>
      </trkpt>
      <trkpt lat="44.88204" lon="5.25755">
        <ele>1266.6</ele>
        <time>2024-07-02T09:44:54Z</time>
      </trkpt>
      <trkpt lat="44.88205" lon="5.25756">
        <ele>1266.8</ele>
        <time>2024-07-02T09:44:55Z</time>
      </trkpt>
      <trkpt lat="44.88205" lon="5.25757">
        <ele>1267</ele>
        <time>2024-07-02T09:44:56Z</time>
      </trkpt>
      <trkpt lat="44.88205" lon="5.25758">
        <ele>1267.1</ele>
        <time>2024-07-02T09:44:57Z</time>
      </trkpt>
      <trkpt lat="44.88206" lon="5.25759">
        <ele>1267.4</ele>
        <time>2024-07-02T09:44:58Z</time>
      </trkpt>
      <trkpt lat="44.88206" lon="5.2576">
        <ele>1267.5</ele>
        <time>2024-07-02T09:44:59Z</time>
      </trkpt>
      <trkpt lat="44.88207" lon="5.2576">
        <ele>1267.7</ele>
        <time>2024-07-02T09:45:00Z</time>
      </trkpt>
      <trkpt lat="44.88208" lon="5.25761">
        <ele>1267.9</ele>
        <time>2024-07-02T09:45:01Z</time>
      </trkpt>
      <trkpt lat="44.88208" lon="5.25762">
        <ele>1268.1</ele>
        <time>2024-07-02T09:45:02Z</time>
      </trkpt>
      <trkpt lat="44.88209" lon="5.25762">
        <ele>1268.3</ele>
        <time>2024-07-02T09:45:03Z</time>
      </trkpt>
      <trkpt lat="44.88209" lon="5.25763">
        <ele>1268.4</ele>
        <time>2024-07-02T09:45:04Z</time>
      </trkpt>
      <trkpt lat="44.8821" lon="5.25764">
        <ele>1268.6</ele>
        <time>2024-07-02T09:45:05Z</time>
      </trkpt>
      <trkpt lat="44.88211" lon="5.25765">
        <ele>1268.9</ele>
        <time>2024-07-02T09:45:06Z</time>
      </trkpt>
      <trkpt lat="44.88211" lon="5.25766">
        <ele>1269</ele>
        <time>2024-07-02T09:45:07Z</time>
      </trkpt>
      <trkpt lat="44.88211" lon="5.25767">
        <ele>1269.3</ele>
        <time>2024-07-02T09:45:08Z</time>
      </trkpt>
      <trkpt lat="44.88212" lon="5.25768">
        <ele>1269.5</ele>
        <time>2024-07-02T09:45:09Z</time>
      </trkpt>
      <trkpt lat="44.88212" lon="5.25769">
        <ele>1269.7</ele>
        <time>2024-07-02T09:45:10Z</time>
      </trkpt>
      <trkpt lat="44.88213" lon="5.2577">
        <ele>1269.9</ele>
        <time>2024-07-02T09:45:11Z</time>
      </trkpt>
      <trkpt lat="44.88213" lon="5.25771">
        <ele>1270</ele>
        <time>2024-07-02T09:45:12Z</time>
      </trkpt>
      <trkpt lat="44.88213" lon="5.25772">
        <ele>1270.2</ele>
        <time>2024-07-02T09:45:13Z</time>
      </trkpt>
      <trkpt lat="44.88213" lon="5.25772">
        <ele>1270.3</ele>
        <time>2024-07-02T09:45:14Z</time>
      </trkpt>
      <trkpt lat="44.88213" lon="5.25773">
        <ele>1270.5</ele>
        <time>2024-07-02T09:45:15Z</time>
      </trkpt>
      <trkpt lat="44.88213" lon="5.25774">
        <ele>1270.7</ele>
        <time>2024-07-02T09:45:16Z</time>
      </trkpt>
      <trkpt lat="44.88213" lon="5.25774">
        <ele>1270.7</ele>
        <time>2024-07-02T09:45:17Z</time>
      </trkpt>
      <trkpt lat="44.88213" lon="5.25775">
        <ele>1270.9</ele>
        <time>2024-07-02T09:45:18Z</time>
      </trkpt>
      <trkpt lat="44.88213" lon="5.25776">
        <ele>1271</ele>
        <time>2024-07-02T09:45:19Z</time>
      </trkpt>
      <trkpt lat="44.88213" lon="5.25776">
        <ele>1271.1</ele>
        <time>2024-07-02T09:45:20Z</time>
      </trkpt>
      <trkpt lat="44.88214" lon="5.25777">
        <ele>1271.4</ele>
        <time>2024-07-02T09:45:21Z</time>
      </trkpt>
      <trkpt lat="44.88215" lon="5.25777">
        <ele>1271.6</ele>
        <time>2024-07-02T09:45:22Z</time>
      </trkpt>
      <trkpt lat="44.88216" lon="5.25778">
        <ele>1271.9</ele>
        <time>2024-07-02T09:45:23Z</time>
      </trkpt>
      <trkpt lat="44.88217" lon="5.25779">
        <ele>1272.1</ele>
        <time>2024-07-02T09:45:24Z</time>
      </trkpt>
      <trkpt lat="44.88217" lon="5.25779">
        <ele>1272.3</ele>
        <time>2024-07-02T09:45:25Z</time>
      </trkpt>
      <trkpt lat="44.88218" lon="5.2578">
        <ele>1272.5</ele>
        <time>2024-07-02T09:45:26Z</time>
      </trkpt>
      <trkpt lat="44.88218" lon="5.2578">
        <ele>1272.6</ele>
        <time>2024-07-02T09:45:27Z</time>
      </trkpt>
      <trkpt lat="44.88219" lon="5.2578">
        <ele>1272.8</ele>
        <time>2024-07-02T09:45:28Z</time>
      </trkpt>
      <trkpt lat="44.88219" lon="5.25781">
        <ele>1273</ele>
        <time>2024-07-02T09:45:29Z</time>
      </trkpt>
      <trkpt lat="44.8822" lon="5.25781">
        <ele>1273.1</ele>
        <time>2024-07-02T09:45:30Z</time>
      </trkpt>
      <trkpt lat="44.88221" lon="5.25782">
        <ele>1273.3</ele>
        <time>2024-07-02T09:45:31Z</time>
      </trkpt>
      <trkpt lat="44.88221" lon="5.25783">
        <ele>1273.5</ele>
        <time>2024-07-02T09:45:32Z</time>
      </trkpt>
      <trkpt lat="44.88222" lon="5.25783">
        <ele>1273.7</ele>
        <time>2024-07-02T09:45:33Z</time>
      </trkpt>
      <trkpt lat="44.88222" lon="5.25784">
        <ele>1273.9</ele>
        <time>2024-07-02T09:45:34Z</time>
      </trkpt>
      <trkpt lat="44.88223" lon="5.25784">
        <ele>1274.1</ele>
        <time>2024-07-02T09:45:35Z</time>
      </trkpt>
      <trkpt lat="44.88223" lon="5.25785">
        <ele>1274.2</ele>
        <time>2024-07-02T09:45:36Z</time>
      </trkpt>
      <trkpt lat="44.88224" lon="5.25785">
        <ele>1274.3</ele>
        <time>2024-07-02T09:45:37Z</time>
      </trkpt>
      <trkpt lat="44.88224" lon="5.25785">
        <ele>1274.5</ele>
        <time>2024-07-02T09:45:38Z</time>
      </trkpt>
      <trkpt lat="44.88225" lon="5.25785">
        <ele>1274.7</ele>
        <time>2024-07-02T09:45:39Z</time>
      </trkpt>
      <trkpt lat="44.88225" lon="5.25786">
        <ele>1274.8</ele>
        <time>2024-07-02T09:45:40Z</time>
      </trkpt>
      <trkpt lat="44.88226" lon="5.25786">
        <ele>1275</ele>
        <time>2024-07-02T09:45:41Z</time>
      </trkpt>
      <trkpt lat="44.88226" lon="5.25786">
        <ele>1275</ele>
        <time>2024-07-02T09:45:42Z</time>
      </trkpt>
      <trkpt lat="44.88226" lon="5.25786">
        <ele>1275.1</ele>
        <time>2024-07-02T09:45:43Z</time>
      </trkpt>
      <trkpt lat="44.88227" lon="5.25786">
        <ele>1275.3</ele>
        <time>2024-07-02T09:45:44Z</time>
      </trkpt>
      <trkpt lat="44.88227" lon="5.25786">
        <ele>1275.4</ele>
        <time>2024-07-02T09:45:45Z</time>
      </trkpt>
      <trkpt lat="44.88228" lon="5.25786">
        <ele>1275.6</ele>
        <time>2024-07-02T09:45:46Z</time>
      </trkpt>
      <trkpt lat="44.88228" lon="5.25786">
        <ele>1275.7</ele>
        <time>2024-07-02T09:45:47Z</time>
      </trkpt>
      <trkpt lat="44.88229" lon="5.25786">
        <ele>1275.8</ele>
        <time>2024-07-02T09:45:48Z</time>
      </trkpt>
      <trkpt lat="44.8823" lon="5.25787">
        <ele>1276.1</ele>
        <time>2024-07-02T09:45:49Z</time>
      </trkpt>
      <trkpt lat="44.8823" lon="5.25786">
        <ele>1276.2</ele>
        <time>2024-07-02T09:45:50Z</time>
      </trkpt>
      <trkpt lat="44.88231" lon="5.25786">
        <ele>1276.4</ele>
        <time>2024-07-02T09:45:51Z</time>
      </trkpt>
      <trkpt lat="44.88231" lon="5.25787">
        <ele>1276.5</ele>
        <time>2024-07-02T09:45:52Z</time>
      </trkpt>
      <trkpt lat="44.88232" lon="5.25787">
        <ele>1276.8</ele>
        <time>2024-07-02T09:45:53Z</time>
      </trkpt>
      <trkpt lat="44.88233" lon="5.25787">
        <ele>1277</ele>
        <time>2024-07-02T09:45:54Z</time>
      </trkpt>
      <trkpt lat="44.88234" lon="5.25787">
        <ele>1277.1</ele>
        <time>2024-07-02T09:45:55Z</time>
      </trkpt>
      <trkpt lat="44.88234" lon="5.25787">
        <ele>1277.3</ele>
        <time>2024-07-02T09:45:56Z</time>
      </trkpt>
      <trkpt lat="44.88235" lon="5.25787">
        <ele>1277.5</ele>
        <time>2024-07-02T09:45:57Z</time>
      </trkpt>
      <trkpt lat="44.88236" lon="5.25788">
        <ele>1277.7</ele>
        <time>2024-07-02T09:45:58Z</time>
      </trkpt>
      <trkpt lat="44.88237" lon="5.25789">
        <ele>1278</ele>
        <time>2024-07-02T09:45:59Z</time>
      </trkpt>
      <trkpt lat="44.88237" lon="5.2579">
        <ele>1278.2</ele>
        <time>2024-07-02T09:46:00Z</time>
      </trkpt>
      <trkpt lat="44.88238" lon="5.25791">
        <ele>1278.4</ele>
        <time>2024-07-02T09:46:01Z</time>
      </trkpt>
      <trkpt lat="44.88239" lon="5.25792">
        <ele>1278.6</ele>
        <time>2024-07-02T09:46:02Z</time>
      </trkpt>
      <trkpt lat="44.88239" lon="5.25792">
        <ele>1278.8</ele>
        <time>2024-07-02T09:46:03Z</time>
      </trkpt>
      <trkpt lat="44.8824" lon="5.25793">
        <ele>1279</ele>
        <time>2024-07-02T09:46:04Z</time>
      </trkpt>
      <trkpt lat="44.88241" lon="5.25794">
        <ele>1279.2</ele>
        <time>2024-07-02T09:46:05Z</time>
      </trkpt>
      <trkpt lat="44.88242" lon="5.25795">
        <ele>1279.4</ele>
        <time>2024-07-02T09:46:06Z</time>
      </trkpt>
      <trkpt lat="44.88242" lon="5.25795">
        <ele>1279.6</ele>
        <time>2024-07-02T09:46:07Z</time>
      </trkpt>
      <trkpt lat="44.88243" lon="5.25796">
        <ele>1279.7</ele>
        <time>2024-07-02T09:46:08Z</time>
      </trkpt>
      <trkpt lat="44.88244" lon="5.25797">
        <ele>1279.9</ele>
        <time>2024-07-02T09:46:09Z</time>
      </trkpt>
      <trkpt lat="44.88243" lon="5.25797">
        <ele>1280.1</ele>
        <time>2024-07-02T09:46:10Z</time>
      </trkpt>
      <trkpt lat="44.88243" lon="5.25798">
        <ele>1280.2</ele>
        <time>2024-07-02T09:46:11Z</time>
      </trkpt>
      <trkpt lat="44.88243" lon="5.25799">
        <ele>1280.3</ele>
        <time>2024-07-02T09:46:12Z</time>
      </trkpt>
      <trkpt lat="44.88243" lon="5.258">
        <ele>1280.4</ele>
        <time>2024-07-02T09:46:13Z</time>
      </trkpt>
      <trkpt lat="44.88244" lon="5.25801">
        <ele>1280.6</ele>
        <time>2024-07-02T09:46:14Z</time>
      </trkpt>
      <trkpt lat="44.88244" lon="5.25801">
        <ele>1280.7</ele>
        <time>2024-07-02T09:46:15Z</time>
      </trkpt>
      <trkpt lat="44.88245" lon="5.25802">
        <ele>1280.8</ele>
        <time>2024-07-02T09:46:16Z</time>
      </trkpt>
      <trkpt lat="44.88246" lon="5.25802">
        <ele>1280.9</ele>
        <time>2024-07-02T09:46:17Z</time>
      </trkpt>
      <trkpt lat="44.88247" lon="5.25802">
        <ele>1281.1</ele>
        <time>2024-07-02T09:46:18Z</time>
      </trkpt>
      <trkpt lat="44.88248" lon="5.25802">
        <ele>1281.2</ele>
        <time>2024-07-02T09:46:19Z</time>
      </trkpt>
      <trkpt lat="44.88249" lon="5.25801">
        <ele>1281.4</ele>
        <time>2024-07-02T09:46:20Z</time>
      </trkpt>
      <trkpt lat="44.8825" lon="5.25801">
        <ele>1281.5</ele>
        <time>2024-07-02T09:46:21Z</time>
      </trkpt>
      <trkpt lat="44.8825" lon="5.25802">
        <ele>1281.7</ele>
        <time>2024-07-02T09:46:22Z</time>
      </trkpt>
      <trkpt lat="44.88251" lon="5.25802">
        <ele>1281.8</ele>
        <time>2024-07-02T09:46:23Z</time>
      </trkpt>
      <trkpt lat="44.88252" lon="5.25803">
        <ele>1282</ele>
        <time>2024-07-02T09:46:24Z</time>
      </trkpt>
      <trkpt lat="44.88253" lon="5.25803">
        <ele>1282.1</ele>
        <time>2024-07-02T09:46:25Z</time>
      </trkpt>
      <trkpt lat="44.88254" lon="5.25803">
        <ele>1282.2</ele>
        <time>2024-07-02T09:46:26Z</time>
      </trkpt>
      <trkpt lat="44.88254" lon="5.25804">
        <ele>1282.3</ele>
        <time>2024-07-02T09:46:27Z</time>
      </trkpt>
      <trkpt lat="44.88255" lon="5.25804">
        <ele>1282.4</ele>
        <time>2024-07-02T09:46:28Z</time>
      </trkpt>
      <trkpt lat="44.88256" lon="5.25805">
        <ele>1282.5</ele>
        <time>2024-07-02T09:46:29Z</time>
      </trkpt>
      <trkpt lat="44.88256" lon="5.25806">
        <ele>1282.6</ele>
        <time>2024-07-02T09:46:30Z</time>
      </trkpt>
      <trkpt lat="44.88256" lon="5.25807">
        <ele>1282.7</ele>
        <time>2024-07-02T09:46:31Z</time>
      </trkpt>
      <trkpt lat="44.88257" lon="5.25807">
        <ele>1282.8</ele>
        <time>2024-07-02T09:46:32Z</time>
      </trkpt>
      <trkpt lat="44.88257" lon="5.25808">
        <ele>1282.8</ele>
        <time>2024-07-02T09:46:33Z</time>
      </trkpt>
      <trkpt lat="44.88258" lon="5.25809">
        <ele>1283</ele>
        <time>2024-07-02T09:46:34Z</time>
      </trkpt>
      <trkpt lat="44.88258" lon="5.2581">
        <ele>1283</ele>
        <time>2024-07-02T09:46:35Z</time>
      </trkpt>
      <trkpt lat="44.88258" lon="5.25811">
        <ele>1283.1</ele>
        <time>2024-07-02T09:46:36Z</time>
      </trkpt>
      <trkpt lat="44.88259" lon="5.25812">
        <ele>1283.2</ele>
        <time>2024-07-02T09:46:37Z</time>
      </trkpt>
      <trkpt lat="44.88259" lon="5.25812">
        <ele>1283.3</ele>
        <time>2024-07-02T09:46:38Z</time>
      </trkpt>
      <trkpt lat="44.88259" lon="5.25813">
        <ele>1283.3</ele>
        <time>2024-07-02T09:46:39Z</time>
      </trkpt>
      <trkpt lat="44.88259" lon="5.25814">
        <ele>1283.4</ele>
        <time>2024-07-02T09:46:40Z</time>
      </trkpt>
      <trkpt lat="44.8826" lon="5.25815">
        <ele>1283.5</ele>
        <time>2024-07-02T09:46:41Z</time>
      </trkpt>
      <trkpt lat="44.8826" lon="5.25816">
        <ele>1283.6</ele>
        <time>2024-07-02T09:46:42Z</time>
      </trkpt>
      <trkpt lat="44.8826" lon="5.25816">
        <ele>1283.7</ele>
        <time>2024-07-02T09:46:43Z</time>
      </trkpt>
      <trkpt lat="44.8826" lon="5.25817">
        <ele>1283.7</ele>
        <time>2024-07-02T09:46:44Z</time>
      </trkpt>
      <trkpt lat="44.88261" lon="5.25819">
        <ele>1283.9</ele>
        <time>2024-07-02T09:46:45Z</time>
      </trkpt>
      <trkpt lat="44.88261" lon="5.25819">
        <ele>1283.9</ele>
        <time>2024-07-02T09:46:46Z</time>
      </trkpt>
      <trkpt lat="44.88262" lon="5.2582">
        <ele>1284</ele>
        <time>2024-07-02T09:46:47Z</time>
      </trkpt>
      <trkpt lat="44.88262" lon="5.25821">
        <ele>1284.1</ele>
        <time>2024-07-02T09:46:48Z</time>
      </trkpt>
      <trkpt lat="44.88262" lon="5.25821">
        <ele>1284.1</ele>
        <time>2024-07-02T09:46:49Z</time>
      </trkpt>
      <trkpt lat="44.88263" lon="5.25823">
        <ele>1284.2</ele>
        <time>2024-07-02T09:46:50Z</time>
      </trkpt>
      <trkpt lat="44.88263" lon="5.25823">
        <ele>1284.3</ele>
        <time>2024-07-02T09:46:51Z</time>
      </trkpt>
      <trkpt lat="44.88263" lon="5.25824">
        <ele>1284.4</ele>
        <time>2024-07-02T09:46:52Z</time>
      </trkpt>
      <trkpt lat="44.88263" lon="5.25825">
        <ele>1284.5</ele>
        <time>2024-07-02T09:46:53Z</time>
      </trkpt>
      <trkpt lat="44.88263" lon="5.25826">
        <ele>1284.6</ele>
        <time>2024-07-02T09:46:54Z</time>
      </trkpt>
      <trkpt lat="44.88264" lon="5.25828">
        <ele>1284.7</ele>
        <time>2024-07-02T09:46:55Z</time>
      </trkpt>
      <trkpt lat="44.88264" lon="5.25829">
        <ele>1284.8</ele>
        <time>2024-07-02T09:46:56Z</time>
      </trkpt>
      <trkpt lat="44.88265" lon="5.2583">
        <ele>1284.9</ele>
        <time>2024-07-02T09:46:57Z</time>
      </trkpt>
      <trkpt lat="44.88265" lon="5.25831">
        <ele>1285</ele>
        <time>2024-07-02T09:46:58Z</time>
      </trkpt>
      <trkpt lat="44.88266" lon="5.25833">
        <ele>1285.1</ele>
        <time>2024-07-02T09:46:59Z</time>
      </trkpt>
      <trkpt lat="44.88267" lon="5.25834">
        <ele>1285.2</ele>
        <time>2024-07-02T09:47:00Z</time>
      </trkpt>
      <trkpt lat="44.88267" lon="5.25835">
        <ele>1285.3</ele>
        <time>2024-07-02T09:47:01Z</time>
      </trkpt>
      <trkpt lat="44.88268" lon="5.25836">
        <ele>1285.4</ele>
        <time>2024-07-02T09:47:02Z</time>
      </trkpt>
      <trkpt lat="44.88268" lon="5.25837">
        <ele>1285.5</ele>
        <time>2024-07-02T09:47:03Z</time>
      </trkpt>
      <trkpt lat="44.88269" lon="5.25838">
        <ele>1285.6</ele>
        <time>2024-07-02T09:47:04Z</time>
      </trkpt>
      <trkpt lat="44.88269" lon="5.25839">
        <ele>1285.6</ele>
        <time>2024-07-02T09:47:05Z</time>
      </trkpt>
      <trkpt lat="44.88269" lon="5.2584">
        <ele>1285.7</ele>
        <time>2024-07-02T09:47:06Z</time>
      </trkpt>
      <trkpt lat="44.88269" lon="5.25841">
        <ele>1285.7</ele>
        <time>2024-07-02T09:47:07Z</time>
      </trkpt>
      <trkpt lat="44.8827" lon="5.25842">
        <ele>1285.8</ele>
        <time>2024-07-02T09:47:08Z</time>
      </trkpt>
      <trkpt lat="44.8827" lon="5.25843">
        <ele>1285.9</ele>
        <time>2024-07-02T09:47:09Z</time>
      </trkpt>
      <trkpt lat="44.88271" lon="5.25845">
        <ele>1286</ele>
        <time>2024-07-02T09:47:10Z</time>
      </trkpt>
      <trkpt lat="44.88271" lon="5.25846">
        <ele>1286.1</ele>
        <time>2024-07-02T09:47:11Z</time>
      </trkpt>
      <trkpt lat="44.88271" lon="5.25847">
        <ele>1286.2</ele>
        <time>2024-07-02T09:47:12Z</time>
      </trkpt>
      <trkpt lat="44.88271" lon="5.25849">
        <ele>1286.3</ele>
        <time>2024-07-02T09:47:13Z</time>
      </trkpt>
      <trkpt lat="44.88271" lon="5.2585">
        <ele>1286.4</ele>
        <time>2024-07-02T09:47:14Z</time>
      </trkpt>
      <trkpt lat="44.88272" lon="5.25852">
        <ele>1286.5</ele>
        <time>2024-07-02T09:47:15Z</time>
      </trkpt>
      <trkpt lat="44.88272" lon="5.25853">
        <ele>1286.5</ele>
        <time>2024-07-02T09:47:16Z</time>
      </trkpt>
      <trkpt lat="44.88272" lon="5.25854">
        <ele>1286.6</ele>
        <time>2024-07-02T09:47:17Z</time>
      </trkpt>
      <trkpt lat="44.88272" lon="5.25855">
        <ele>1286.7</ele>
        <time>2024-07-02T09:47:18Z</time>
      </trkpt>
      <trkpt lat="44.88272" lon="5.25856">
        <ele>1286.7</ele>
        <time>2024-07-02T09:47:19Z</time>
      </trkpt>
      <trkpt lat="44.88273" lon="5.25857">
        <ele>1286.8</ele>
        <time>2024-07-02T09:47:20Z</time>
      </trkpt>
      <trkpt lat="44.88273" lon="5.25858">
        <ele>1286.8</ele>
        <time>2024-07-02T09:47:21Z</time>
      </trkpt>
      <trkpt lat="44.88273" lon="5.25859">
        <ele>1286.9</ele>
        <time>2024-07-02T09:47:22Z</time>
      </trkpt>
      <trkpt lat="44.88273" lon="5.2586">
        <ele>1287</ele>
        <time>2024-07-02T09:47:23Z</time>
      </trkpt>
      <trkpt lat="44.88273" lon="5.25861">
        <ele>1287</ele>
        <time>2024-07-02T09:47:24Z</time>
      </trkpt>
      <trkpt lat="44.88274" lon="5.25862">
        <ele>1287.1</ele>
        <time>2024-07-02T09:47:25Z</time>
      </trkpt>
      <trkpt lat="44.88274" lon="5.25863">
        <ele>1287.1</ele>
        <time>2024-07-02T09:47:26Z</time>
      </trkpt>
      <trkpt lat="44.88275" lon="5.25864">
        <ele>1287.2</ele>
        <time>2024-07-02T09:47:27Z</time>
      </trkpt>
      <trkpt lat="44.88275" lon="5.25865">
        <ele>1287.3</ele>
        <time>2024-07-02T09:47:28Z</time>
      </trkpt>
      <trkpt lat="44.88275" lon="5.25866">
        <ele>1287.3</ele>
        <time>2024-07-02T09:47:29Z</time>
      </trkpt>
      <trkpt lat="44.88276" lon="5.25867">
        <ele>1287.4</ele>
        <time>2024-07-02T09:47:30Z</time>
      </trkpt>
      <trkpt lat="44.88276" lon="5.25868">
        <ele>1287.5</ele>
        <time>2024-07-02T09:47:31Z</time>
      </trkpt>
      <trkpt lat="44.88276" lon="5.2587">
        <ele>1287.6</ele>
        <time>2024-07-02T09:47:32Z</time>
      </trkpt>
      <trkpt lat="44.88277" lon="5.25871">
        <ele>1287.7</ele>
        <time>2024-07-02T09:47:33Z</time>
      </trkpt>
      <trkpt lat="44.88277" lon="5.25873">
        <ele>1287.7</ele>
        <time>2024-07-02T09:47:34Z</time>
      </trkpt>
      <trkpt lat="44.88277" lon="5.25874">
        <ele>1287.8</ele>
        <time>2024-07-02T09:47:35Z</time>
      </trkpt>
      <trkpt lat="44.88278" lon="5.25875">
        <ele>1287.9</ele>
        <time>2024-07-02T09:47:36Z</time>
      </trkpt>
      <trkpt lat="44.88278" lon="5.25876">
        <ele>1287.9</ele>
        <time>2024-07-02T09:47:37Z</time>
      </trkpt>
      <trkpt lat="44.88279" lon="5.25877">
        <ele>1288</ele>
        <time>2024-07-02T09:47:38Z</time>
      </trkpt>
      <trkpt lat="44.88279" lon="5.25878">
        <ele>1288.1</ele>
        <time>2024-07-02T09:47:39Z</time>
      </trkpt>
      <trkpt lat="44.8828" lon="5.25879">
        <ele>1288.2</ele>
        <time>2024-07-02T09:47:40Z</time>
      </trkpt>
      <trkpt lat="44.88281" lon="5.25881">
        <ele>1288.3</ele>
        <time>2024-07-02T09:47:41Z</time>
      </trkpt>
      <trkpt lat="44.88281" lon="5.25882">
        <ele>1288.4</ele>
        <time>2024-07-02T09:47:42Z</time>
      </trkpt>
      <trkpt lat="44.88282" lon="5.25883">
        <ele>1288.5</ele>
        <time>2024-07-02T09:47:43Z</time>
      </trkpt>
      <trkpt lat="44.88283" lon="5.25884">
        <ele>1288.6</ele>
        <time>2024-07-02T09:47:44Z</time>
      </trkpt>
      <trkpt lat="44.88284" lon="5.25885">
        <ele>1288.7</ele>
        <time>2024-07-02T09:47:45Z</time>
      </trkpt>
      <trkpt lat="44.88285" lon="5.25886">
        <ele>1288.8</ele>
        <time>2024-07-02T09:47:46Z</time>
      </trkpt>
      <trkpt lat="44.88286" lon="5.25886">
        <ele>1288.9</ele>
        <time>2024-07-02T09:47:47Z</time>
      </trkpt>
      <trkpt lat="44.88287" lon="5.25887">
        <ele>1289</ele>
        <time>2024-07-02T09:47:48Z</time>
      </trkpt>
      <trkpt lat="44.88288" lon="5.25888">
        <ele>1289.1</ele>
        <time>2024-07-02T09:47:49Z</time>
      </trkpt>
      <trkpt lat="44.88289" lon="5.25889">
        <ele>1289.2</ele>
        <time>2024-07-02T09:47:50Z</time>
      </trkpt>
      <trkpt lat="44.88289" lon="5.2589">
        <ele>1289.3</ele>
        <time>2024-07-02T09:47:51Z</time>
      </trkpt>
      <trkpt lat="44.8829" lon="5.25891">
        <ele>1289.4</ele>
        <time>2024-07-02T09:47:52Z</time>
      </trkpt>
      <trkpt lat="44.88291" lon="5.25892">
        <ele>1289.5</ele>
        <time>2024-07-02T09:47:53Z</time>
      </trkpt>
      <trkpt lat="44.88292" lon="5.25893">
        <ele>1289.6</ele>
        <time>2024-07-02T09:47:54Z</time>
      </trkpt>
      <trkpt lat="44.88293" lon="5.25894">
        <ele>1289.8</ele>
        <time>2024-07-02T09:47:55Z</time>
      </trkpt>
      <trkpt lat="44.88293" lon="5.25896">
        <ele>1289.9</ele>
        <time>2024-07-02T09:47:56Z</time>
      </trkpt>
      <trkpt lat="44.88294" lon="5.25897">
        <ele>1290</ele>
        <time>2024-07-02T09:47:57Z</time>
      </trkpt>
      <trkpt lat="44.88294" lon="5.25898">
        <ele>1290.1</ele>
        <time>2024-07-02T09:47:58Z</time>
      </trkpt>
      <trkpt lat="44.88295" lon="5.25899">
        <ele>1290.2</ele>
        <time>2024-07-02T09:47:59Z</time>
      </trkpt>
      <trkpt lat="44.88296" lon="5.25901">
        <ele>1290.3</ele>
        <time>2024-07-02T09:48:00Z</time>
      </trkpt>
      <trkpt lat="44.88296" lon="5.25902">
        <ele>1290.4</ele>
        <time>2024-07-02T09:48:01Z</time>
      </trkpt>
      <trkpt lat="44.88296" lon="5.25903">
        <ele>1290.5</ele>
        <time>2024-07-02T09:48:02Z</time>
      </trkpt>
      <trkpt lat="44.88297" lon="5.25905">
        <ele>1290.6</ele>
        <time>2024-07-02T09:48:03Z</time>
      </trkpt>
      <trkpt lat="44.88298" lon="5.25906">
        <ele>1290.6</ele>
        <time>2024-07-02T09:48:04Z</time>
      </trkpt>
      <trkpt lat="44.88298" lon="5.25907">
        <ele>1290.7</ele>
        <time>2024-07-02T09:48:05Z</time>
      </trkpt>
      <trkpt lat="44.883" lon="5.25909">
        <ele>1290.9</ele>
        <time>2024-07-02T09:48:06Z</time>
      </trkpt>
      <trkpt lat="44.883" lon="5.2591">
        <ele>1290.9</ele>
        <time>2024-07-02T09:48:07Z</time>
      </trkpt>
      <trkpt lat="44.88301" lon="5.25911">
        <ele>1291</ele>
        <time>2024-07-02T09:48:08Z</time>
      </trkpt>
      <trkpt lat="44.88302" lon="5.25911">
        <ele>1291</ele>
        <time>2024-07-02T09:48:09Z</time>
      </trkpt>
      <trkpt lat="44.88303" lon="5.25912">
        <ele>1291.1</ele>
        <time>2024-07-02T09:48:10Z</time>
      </trkpt>
      <trkpt lat="44.88304" lon="5.25913">
        <ele>1291.2</ele>
        <time>2024-07-02T09:48:11Z</time>
      </trkpt>
      <trkpt lat="44.88304" lon="5.25915">
        <ele>1291.2</ele>
        <time>2024-07-02T09:48:12Z</time>
      </trkpt>
      <trkpt lat="44.88305" lon="5.25916">
        <ele>1291.3</ele>
        <time>2024-07-02T09:48:13Z</time>
      </trkpt>
      <trkpt lat="44.88305" lon="5.25917">
        <ele>1291.4</ele>
        <time>2024-07-02T09:48:14Z</time>
      </trkpt>
      <trkpt lat="44.88306" lon="5.25918">
        <ele>1291.4</ele>
        <time>2024-07-02T09:48:15Z</time>
      </trkpt>
      <trkpt lat="44.88307" lon="5.2592">
        <ele>1291.5</ele>
        <time>2024-07-02T09:48:16Z</time>
      </trkpt>
      <trkpt lat="44.88308" lon="5.25921">
        <ele>1291.5</ele>
        <time>2024-07-02T09:48:17Z</time>
      </trkpt>
      <trkpt lat="44.88309" lon="5.25923">
        <ele>1291.6</ele>
        <time>2024-07-02T09:48:18Z</time>
      </trkpt>
      <trkpt lat="44.8831" lon="5.25924">
        <ele>1291.6</ele>
        <time>2024-07-02T09:48:19Z</time>
      </trkpt>
      <trkpt lat="44.8831" lon="5.25925">
        <ele>1291.7</ele>
        <time>2024-07-02T09:48:20Z</time>
      </trkpt>
      <trkpt lat="44.88312" lon="5.25927">
        <ele>1291.7</ele>
        <time>2024-07-02T09:48:21Z</time>
      </trkpt>
      <trkpt lat="44.88312" lon="5.25928">
        <ele>1291.8</ele>
        <time>2024-07-02T09:48:22Z</time>
      </trkpt>
      <trkpt lat="44.88313" lon="5.25929">
        <ele>1291.8</ele>
        <time>2024-07-02T09:48:23Z</time>
      </trkpt>
      <trkpt lat="44.88314" lon="5.2593">
        <ele>1291.8</ele>
        <time>2024-07-02T09:48:24Z</time>
      </trkpt>
      <trkpt lat="44.88315" lon="5.25931">
        <ele>1291.9</ele>
        <time>2024-07-02T09:48:25Z</time>
      </trkpt>
      <trkpt lat="44.88316" lon="5.25933">
        <ele>1291.9</ele>
        <time>2024-07-02T09:48:26Z</time>
      </trkpt>
      <trkpt lat="44.88317" lon="5.25934">
        <ele>1292</ele>
        <time>2024-07-02T09:48:27Z</time>
      </trkpt>
      <trkpt lat="44.88318" lon="5.25936">
        <ele>1292</ele>
        <time>2024-07-02T09:48:28Z</time>
      </trkpt>
      <trkpt lat="44.88319" lon="5.25937">
        <ele>1292.1</ele>
        <time>2024-07-02T09:48:29Z</time>
      </trkpt>
      <trkpt lat="44.8832" lon="5.25937">
        <ele>1292.1</ele>
        <time>2024-07-02T09:48:30Z</time>
      </trkpt>
      <trkpt lat="44.88322" lon="5.25939">
        <ele>1292.2</ele>
        <time>2024-07-02T09:48:31Z</time>
      </trkpt>
      <trkpt lat="44.88322" lon="5.2594">
        <ele>1292.2</ele>
        <time>2024-07-02T09:48:32Z</time>
      </trkpt>
      <trkpt lat="44.88323" lon="5.25941">
        <ele>1292.2</ele>
        <time>2024-07-02T09:48:33Z</time>
      </trkpt>
      <trkpt lat="44.88324" lon="5.25943">
        <ele>1292.3</ele>
        <time>2024-07-02T09:48:34Z</time>
      </trkpt>
      <trkpt lat="44.88325" lon="5.25944">
        <ele>1292.3</ele>
        <time>2024-07-02T09:48:35Z</time>
      </trkpt>
      <trkpt lat="44.88325" lon="5.25944">
        <ele>1292.3</ele>
        <time>2024-07-02T09:48:36Z</time>
      </trkpt>
      <trkpt lat="44.88327" lon="5.25946">
        <ele>1292.4</ele>
        <time>2024-07-02T09:48:37Z</time>
      </trkpt>
      <trkpt lat="44.88328" lon="5.25947">
        <ele>1292.4</ele>
        <time>2024-07-02T09:48:38Z</time>
      </trkpt>
      <trkpt lat="44.88328" lon="5.25948">
        <ele>1292.5</ele>
        <time>2024-07-02T09:48:39Z</time>
      </trkpt>
      <trkpt lat="44.88329" lon="5.2595">
        <ele>1292.5</ele>
        <time>2024-07-02T09:48:40Z</time>
      </trkpt>
      <trkpt lat="44.8833" lon="5.25951">
        <ele>1292.6</ele>
        <time>2024-07-02T09:48:41Z</time>
      </trkpt>
      <trkpt lat="44.88331" lon="5.25952">
        <ele>1292.6</ele>
        <time>2024-07-02T09:48:42Z</time>
      </trkpt>
      <trkpt lat="44.88332" lon="5.25953">
        <ele>1292.7</ele>
        <time>2024-07-02T09:48:43Z</time>
      </trkpt>
      <trkpt lat="44.88332" lon="5.25954">
        <ele>1292.7</ele>
        <time>2024-07-02T09:48:44Z</time>
      </trkpt>
      <trkpt lat="44.88333" lon="5.25955">
        <ele>1292.8</ele>
        <time>2024-07-02T09:48:45Z</time>
      </trkpt>
      <trkpt lat="44.88334" lon="5.25956">
        <ele>1292.8</ele>
        <time>2024-07-02T09:48:46Z</time>
      </trkpt>
      <trkpt lat="44.88335" lon="5.25958">
        <ele>1292.9</ele>
        <time>2024-07-02T09:48:47Z</time>
      </trkpt>
      <trkpt lat="44.88336" lon="5.25959">
        <ele>1293</ele>
        <time>2024-07-02T09:48:48Z</time>
      </trkpt>
      <trkpt lat="44.88336" lon="5.25959">
        <ele>1293</ele>
        <time>2024-07-02T09:48:49Z</time>
      </trkpt>
      <trkpt lat="44.88337" lon="5.25961">
        <ele>1293.1</ele>
        <time>2024-07-02T09:48:50Z</time>
      </trkpt>
      <trkpt lat="44.88338" lon="5.25962">
        <ele>1293.2</ele>
        <time>2024-07-02T09:48:51Z</time>
      </trkpt>
      <trkpt lat="44.88339" lon="5.25963">
        <ele>1293.2</ele>
        <time>2024-07-02T09:48:52Z</time>
      </trkpt>
      <trkpt lat="44.8834" lon="5.25963">
        <ele>1293.3</ele>
        <time>2024-07-02T09:48:53Z</time>
      </trkpt>
      <trkpt lat="44.88341" lon="5.25964">
        <ele>1293.4</ele>
        <time>2024-07-02T09:48:54Z</time>
      </trkpt>
      <trkpt lat="44.88343" lon="5.25965">
        <ele>1293.5</ele>
        <time>2024-07-02T09:48:55Z</time>
      </trkpt>
      <trkpt lat="44.88344" lon="5.25965">
        <ele>1293.6</ele>
        <time>2024-07-02T09:48:56Z</time>
      </trkpt>
      <trkpt lat="44.88345" lon="5.25966">
        <ele>1293.6</ele>
        <time>2024-07-02T09:48:57Z</time>
      </trkpt>
      <trkpt lat="44.88347" lon="5.25967">
        <ele>1293.8</ele>
        <time>2024-07-02T09:48:58Z</time>
      </trkpt>
      <trkpt lat="44.88347" lon="5.25968">
        <ele>1293.8</ele>
        <time>2024-07-02T09:48:59Z</time>
      </trkpt>
      <trkpt lat="44.88348" lon="5.25968">
        <ele>1293.9</ele>
        <time>2024-07-02T09:49:00Z</time>
      </trkpt>
      <trkpt lat="44.88349" lon="5.25967">
        <ele>1293.9</ele>
        <time>2024-07-02T09:49:01Z</time>
      </trkpt>
      <trkpt lat="44.88349" lon="5.25966">
        <ele>1294</ele>
        <time>2024-07-02T09:49:02Z</time>
      </trkpt>
      <trkpt lat="44.88349" lon="5.25966">
        <ele>1294</ele>
        <time>2024-07-02T09:49:03Z</time>
      </trkpt>
      <trkpt lat="44.88349" lon="5.25966">
        <ele>1294</ele>
        <time>2024-07-02T09:49:04Z</time>
      </trkpt>
      <trkpt lat="44.88349" lon="5.25967">
        <ele>1294</ele>
        <time>2024-07-02T09:49:05Z</time>
      </trkpt>
      <trkpt lat="44.88349" lon="5.25967">
        <ele>1294.1</ele>
        <time>2024-07-02T09:49:06Z</time>
      </trkpt>
      <trkpt lat="44.88349" lon="5.25968">
        <ele>1294.1</ele>
        <time>2024-07-02T09:49:07Z</time>
      </trkpt>
      <trkpt lat="44.88349" lon="5.25968">
        <ele>1294.1</ele>
        <time>2024-07-02T09:49:08Z</time>
      </trkpt>
      <trkpt lat="44.8835" lon="5.25968">
        <ele>1294.1</ele>
        <time>2024-07-02T09:49:09Z</time>
      </trkpt>
      <trkpt lat="44.88351" lon="5.2597">
        <ele>1294.3</ele>
        <time>2024-07-02T09:49:10Z</time>
      </trkpt>
      <trkpt lat="44.88352" lon="5.25972">
        <ele>1294.4</ele>
        <time>2024-07-02T09:49:11Z</time>
      </trkpt>
      <trkpt lat="44.88353" lon="5.25973">
        <ele>1294.4</ele>
        <time>2024-07-02T09:49:12Z</time>
      </trkpt>
      <trkpt lat="44.88354" lon="5.25974">
        <ele>1294.5</ele>
        <time>2024-07-02T09:49:13Z</time>
      </trkpt>
      <trkpt lat="44.88354" lon="5.25975">
        <ele>1294.5</ele>
        <time>2024-07-02T09:49:14Z</time>
      </trkpt>
      <trkpt lat="44.88354" lon="5.25975">
        <ele>1294.6</ele>
        <time>2024-07-02T09:49:15Z</time>
      </trkpt>
      <trkpt lat="44.88354" lon="5.25974">
        <ele>1294.6</ele>
        <time>2024-07-02T09:49:16Z</time>
      </trkpt>
      <trkpt lat="44.88354" lon="5.25974">
        <ele>1294.6</ele>
        <time>2024-07-02T09:49:17Z</time>
      </trkpt>
      <trkpt lat="44.88355" lon="5.25973">
        <ele>1294.7</ele>
        <time>2024-07-02T09:49:18Z</time>
      </trkpt>
      <trkpt lat="44.88355" lon="5.25973">
        <ele>1294.7</ele>
        <time>2024-07-02T09:49:19Z</time>
      </trkpt>
      <trkpt lat="44.88355" lon="5.25973">
        <ele>1294.7</ele>
        <time>2024-07-02T09:49:20Z</time>
      </trkpt>
      <trkpt lat="44.88355" lon="5.25973">
        <ele>1294.7</ele>
        <time>2024-07-02T09:49:21Z</time>
      </trkpt>
      <trkpt lat="44.88356" lon="5.25973">
        <ele>1294.7</ele>
        <time>2024-07-02T09:49:22Z</time>
      </trkpt>
      <trkpt lat="44.88356" lon="5.25974">
        <ele>1294.8</ele>
        <time>2024-07-02T09:49:23Z</time>
      </trkpt>
      <trkpt lat="44.88357" lon="5.25974">
        <ele>1294.8</ele>
        <time>2024-07-02T09:49:24Z</time>
      </trkpt>
      <trkpt lat="44.88357" lon="5.25974">
        <ele>1294.8</ele>
        <time>2024-07-02T09:49:25Z</time>
      </trkpt>
      <trkpt lat="44.88357" lon="5.25975">
        <ele>1294.8</ele>
        <time>2024-07-02T09:49:26Z</time>
      </trkpt>
      <trkpt lat="44.88357" lon="5.25975">
        <ele>1294.8</ele>
        <time>2024-07-02T09:49:27Z</time>
      </trkpt>
      <trkpt lat="44.88357" lon="5.25975">
        <ele>1294.8</ele>
        <time>2024-07-02T09:49:28Z</time>
      </trkpt>
      <trkpt lat="44.88357" lon="5.25975">
        <ele>1294.9</ele>
        <time>2024-07-02T09:49:29Z</time>
      </trkpt>
      <trkpt lat="44.88357" lon="5.25976">
        <ele>1294.9</ele>
        <time>2024-07-02T09:49:30Z</time>
      </trkpt>
      <trkpt lat="44.88357" lon="5.25976">
        <ele>1294.9</ele>
        <time>2024-07-02T09:49:31Z</time>
      </trkpt>
      <trkpt lat="44.88357" lon="5.25976">
        <ele>1294.9</ele>
        <time>2024-07-02T09:49:32Z</time>
      </trkpt>
      <trkpt lat="44.88357" lon="5.25976">
        <ele>1294.9</ele>
        <time>2024-07-02T09:49:33Z</time>
      </trkpt>
      <trkpt lat="44.88357" lon="5.25976">
        <ele>1294.9</ele>
        <time>2024-07-02T09:49:34Z</time>
      </trkpt>
      <trkpt lat="44.88357" lon="5.25976">
        <ele>1294.9</ele>
        <time>2024-07-02T09:49:35Z</time>
      </trkpt>
      <trkpt lat="44.88358" lon="5.25976">
        <ele>1295</ele>
        <time>2024-07-02T09:49:36Z</time>
      </trkpt>
      <trkpt lat="44.88358" lon="5.25976">
        <ele>1295</ele>
        <time>2024-07-02T09:49:37Z</time>
      </trkpt>
      <trkpt lat="44.88358" lon="5.25976">
        <ele>1295</ele>
        <time>2024-07-02T09:49:38Z</time>
      </trkpt>
      <trkpt lat="44.88358" lon="5.25976">
        <ele>1295</ele>
        <time>2024-07-02T09:49:39Z</time>
      </trkpt>
      <trkpt lat="44.88358" lon="5.25976">
        <ele>1295</ele>
        <time>2024-07-02T09:49:40Z</time>
      </trkpt>
      <trkpt lat="44.88358" lon="5.25976">
        <ele>1295</ele>
        <time>2024-07-02T09:49:41Z</time>
      </trkpt>
      <trkpt lat="44.88358" lon="5.25976">
        <ele>1295</ele>
        <time>2024-07-02T09:49:42Z</time>
      </trkpt>
      <trkpt lat="44.88358" lon="5.25976">
        <ele>1295</ele>
        <time>2024-07-02T09:49:43Z</time>
      </trkpt>
      <trkpt lat="44.88359" lon="5.25976">
        <ele>1295.1</ele>
        <time>2024-07-02T09:49:44Z</time>
      </trkpt>
      <trkpt lat="44.88359" lon="5.25976">
        <ele>1295.1</ele>
        <time>2024-07-02T09:49:45Z</time>
      </trkpt>
      <trkpt lat="44.88359" lon="5.25976">
        <ele>1295.1</ele>
        <time>2024-07-02T09:49:46Z</time>
      </trkpt>
      <trkpt lat="44.88359" lon="5.25976">
        <ele>1295.1</ele>
        <time>2024-07-02T09:49:47Z</time>
      </trkpt>
      <trkpt lat="44.88359" lon="5.25976">
        <ele>1295.1</ele>
        <time>2024-07-02T09:49:48Z</time>
      </trkpt>
      <trkpt lat="44.8836" lon="5.25976">
        <ele>1295.1</ele>
        <time>2024-07-02T09:49:49Z</time>
      </trkpt>
      <trkpt lat="44.8836" lon="5.25976">
        <ele>1295.1</ele>
        <time>2024-07-02T09:49:50Z</time>
      </trkpt>
      <trkpt lat="44.8836" lon="5.25976">
        <ele>1295.1</ele>
        <time>2024-07-02T09:49:51Z</time>
      </trkpt>
      <trkpt lat="44.8836" lon="5.25976">
        <ele>1295.2</ele>
        <time>2024-07-02T09:49:52Z</time>
      </trkpt>
      <trkpt lat="44.8836" lon="5.25976">
        <ele>1295.2</ele>
        <time>2024-07-02T09:49:53Z</time>
      </trkpt>
      <trkpt lat="44.8836" lon="5.25976">
        <ele>1295.2</ele>
        <time>2024-07-02T09:49:54Z</time>
      </trkpt>
      <trkpt lat="44.88361" lon="5.25977">
        <ele>1295.2</ele>
        <time>2024-07-02T09:49:55Z</time>
      </trkpt>
      <trkpt lat="44.88361" lon="5.25977">
        <ele>1295.2</ele>
        <time>2024-07-02T09:49:56Z</time>
      </trkpt>
      <trkpt lat="44.88361" lon="5.25977">
        <ele>1295.2</ele>
        <time>2024-07-02T09:49:57Z</time>
      </trkpt>
      <trkpt lat="44.88361" lon="5.25977">
        <ele>1295.2</ele>
        <time>2024-07-02T09:49:58Z</time>
      </trkpt>
      <trkpt lat="44.88361" lon="5.25977">
        <ele>1295.2</ele>
        <time>2024-07-02T09:49:59Z</time>
      </trkpt>
      <trkpt lat="44.88361" lon="5.25977">
        <ele>1295.3</ele>
        <time>2024-07-02T09:50:00Z</time>
      </trkpt>
      <trkpt lat="44.88362" lon="5.25977">
        <ele>1295.3</ele>
        <time>2024-07-02T09:50:01Z</time>
      </trkpt>
      <trkpt lat="44.88362" lon="5.25977">
        <ele>1295.3</ele>
        <time>2024-07-02T09:50:02Z</time>
      </trkpt>
      <trkpt lat="44.88362" lon="5.25977">
        <ele>1295.3</ele>
        <time>2024-07-02T09:50:03Z</time>
      </trkpt>
      <trkpt lat="44.88363" lon="5.25978">
        <ele>1295.4</ele>
        <time>2024-07-02T09:50:04Z</time>
      </trkpt>
      <trkpt lat="44.88363" lon="5.25979">
        <ele>1295.4</ele>
        <time>2024-07-02T09:50:05Z</time>
      </trkpt>
      <trkpt lat="44.88364" lon="5.2598">
        <ele>1295.5</ele>
        <time>2024-07-02T09:50:06Z</time>
      </trkpt>
      <trkpt lat="44.88364" lon="5.2598">
        <ele>1295.5</ele>
        <time>2024-07-02T09:50:07Z</time>
      </trkpt>
      <trkpt lat="44.88364" lon="5.25981">
        <ele>1295.5</ele>
        <time>2024-07-02T09:50:08Z</time>
      </trkpt>
      <trkpt lat="44.88366" lon="5.25982">
        <ele>1295.6</ele>
        <time>2024-07-02T09:50:09Z</time>
      </trkpt>
      <trkpt lat="44.88367" lon="5.25982">
        <ele>1295.7</ele>
        <time>2024-07-02T09:50:10Z</time>
      </trkpt>
      <trkpt lat="44.88368" lon="5.25984">
        <ele>1295.8</ele>
        <time>2024-07-02T09:50:11Z</time>
      </trkpt>
      <trkpt lat="44.88368" lon="5.25984">
        <ele>1295.8</ele>
        <time>2024-07-02T09:50:12Z</time>
      </trkpt>
      <trkpt lat="44.88369" lon="5.25985">
        <ele>1295.9</ele>
        <time>2024-07-02T09:50:13Z</time>
      </trkpt>
      <trkpt lat="44.8837" lon="5.25986">
        <ele>1296</ele>
        <time>2024-07-02T09:50:14Z</time>
      </trkpt>
      <trkpt lat="44.88371" lon="5.25987">
        <ele>1296.1</ele>
        <time>2024-07-02T09:50:15Z</time>
      </trkpt>
      <trkpt lat="44.88372" lon="5.25987">
        <ele>1296.1</ele>
        <time>2024-07-02T09:50:16Z</time>
      </trkpt>
      <trkpt lat="44.88372" lon="5.25987">
        <ele>1296.2</ele>
        <time>2024-07-02T09:50:17Z</time>
      </trkpt>
      <trkpt lat="44.88373" lon="5.25988">
        <ele>1296.2</ele>
        <time>2024-07-02T09:50:18Z</time>
      </trkpt>
      <trkpt lat="44.88374" lon="5.25988">
        <ele>1296.3</ele>
        <time>2024-07-02T09:50:19Z</time>
      </trkpt>
      <trkpt lat="44.88374" lon="5.25989">
        <ele>1296.3</ele>
        <time>2024-07-02T09:50:20Z</time>
      </trkpt>
      <trkpt lat="44.88375" lon="5.25989">
        <ele>1296.4</ele>
        <time>2024-07-02T09:50:21Z</time>
      </trkpt>
      <trkpt lat="44.88376" lon="5.2599">
        <ele>1296.5</ele>
        <time>2024-07-02T09:50:22Z</time>
      </trkpt>
      <trkpt lat="44.88376" lon="5.25991">
        <ele>1296.5</ele>
        <time>2024-07-02T09:50:23Z</time>
      </trkpt>
      <trkpt lat="44.88377" lon="5.25992">
        <ele>1296.6</ele>
        <time>2024-07-02T09:50:24Z</time>
      </trkpt>
      <trkpt lat="44.88378" lon="5.25993">
        <ele>1296.7</ele>
        <time>2024-07-02T09:50:25Z</time>
      </trkpt>
      <trkpt lat="44.88379" lon="5.25994">
        <ele>1296.8</ele>
        <time>2024-07-02T09:50:26Z</time>
      </trkpt>
      <trkpt lat="44.88379" lon="5.25995">
        <ele>1296.8</ele>
        <time>2024-07-02T09:50:27Z</time>
      </trkpt>
      <trkpt lat="44.8838" lon="5.25995">
        <ele>1296.9</ele>
        <time>2024-07-02T09:50:28Z</time>
      </trkpt>
      <trkpt lat="44.8838" lon="5.25996">
        <ele>1296.9</ele>
        <time>2024-07-02T09:50:29Z</time>
      </trkpt>
      <trkpt lat="44.8838" lon="5.25997">
        <ele>1297</ele>
        <time>2024-07-02T09:50:30Z</time>
      </trkpt>
      <trkpt lat="44.88381" lon="5.25998">
        <ele>1297.1</ele>
        <time>2024-07-02T09:50:31Z</time>
      </trkpt>
      <trkpt lat="44.88381" lon="5.25999">
        <ele>1297.2</ele>
        <time>2024-07-02T09:50:32Z</time>
      </trkpt>
      <trkpt lat="44.88382" lon="5.26">
        <ele>1297.2</ele>
        <time>2024-07-02T09:50:33Z</time>
      </trkpt>
      <trkpt lat="44.88382" lon="5.26001">
        <ele>1297.3</ele>
        <time>2024-07-02T09:50:34Z</time>
      </trkpt>
      <trkpt lat="44.88383" lon="5.26002">
        <ele>1297.3</ele>
        <time>2024-07-02T09:50:35Z</time>
      </trkpt>
      <trkpt lat="44.88383" lon="5.26003">
        <ele>1297.4</ele>
        <time>2024-07-02T09:50:36Z</time>
      </trkpt>
      <trkpt lat="44.88383" lon="5.26003">
        <ele>1297.4</ele>
        <time>2024-07-02T09:50:37Z</time>
      </trkpt>
      <trkpt lat="44.88383" lon="5.26004">
        <ele>1297.5</ele>
        <time>2024-07-02T09:50:38Z</time>
      </trkpt>
      <trkpt lat="44.88384" lon="5.26005">
        <ele>1297.5</ele>
        <time>2024-07-02T09:50:39Z</time>
      </trkpt>
      <trkpt lat="44.88384" lon="5.26005">
        <ele>1297.6</ele>
        <time>2024-07-02T09:50:40Z</time>
      </trkpt>
      <trkpt lat="44.88385" lon="5.26006">
        <ele>1297.6</ele>
        <time>2024-07-02T09:50:41Z</time>
      </trkpt>
      <trkpt lat="44.88385" lon="5.26006">
        <ele>1297.7</ele>
        <time>2024-07-02T09:50:42Z</time>
      </trkpt>
      <trkpt lat="44.88386" lon="5.26007">
        <ele>1297.8</ele>
        <time>2024-07-02T09:50:43Z</time>
      </trkpt>
      <trkpt lat="44.88387" lon="5.26008">
        <ele>1297.9</ele>
        <time>2024-07-02T09:50:44Z</time>
      </trkpt>
      <trkpt lat="44.88387" lon="5.26009">
        <ele>1297.9</ele>
        <time>2024-07-02T09:50:45Z</time>
      </trkpt>
      <trkpt lat="44.88388" lon="5.2601">
        <ele>1298</ele>
        <time>2024-07-02T09:50:46Z</time>
      </trkpt>
      <trkpt lat="44.88389" lon="5.26011">
        <ele>1298.1</ele>
        <time>2024-07-02T09:50:47Z</time>
      </trkpt>
      <trkpt lat="44.88389" lon="5.26012">
        <ele>1298.2</ele>
        <time>2024-07-02T09:50:48Z</time>
      </trkpt>
      <trkpt lat="44.8839" lon="5.26013">
        <ele>1298.3</ele>
        <time>2024-07-02T09:50:49Z</time>
      </trkpt>
      <trkpt lat="44.88391" lon="5.26014">
        <ele>1298.3</ele>
        <time>2024-07-02T09:50:50Z</time>
      </trkpt>
      <trkpt lat="44.88391" lon="5.26015">
        <ele>1298.4</ele>
        <time>2024-07-02T09:50:51Z</time>
      </trkpt>
      <trkpt lat="44.88392" lon="5.26015">
        <ele>1298.5</ele>
        <time>2024-07-02T09:50:52Z</time>
      </trkpt>
      <trkpt lat="44.88393" lon="5.26016">
        <ele>1298.6</ele>
        <time>2024-07-02T09:50:53Z</time>
      </trkpt>
      <trkpt lat="44.88394" lon="5.26017">
        <ele>1298.7</ele>
        <time>2024-07-02T09:50:54Z</time>
      </trkpt>
      <trkpt lat="44.88395" lon="5.26018">
        <ele>1298.7</ele>
        <time>2024-07-02T09:50:55Z</time>
      </trkpt>
      <trkpt lat="44.88395" lon="5.26019">
        <ele>1298.8</ele>
        <time>2024-07-02T09:50:56Z</time>
      </trkpt>
      <trkpt lat="44.88396" lon="5.26021">
        <ele>1298.9</ele>
        <time>2024-07-02T09:50:57Z</time>
      </trkpt>
      <trkpt lat="44.88397" lon="5.26022">
        <ele>1298.9</ele>
        <time>2024-07-02T09:50:58Z</time>
      </trkpt>
      <trkpt lat="44.88397" lon="5.26022">
        <ele>1299</ele>
        <time>2024-07-02T09:50:59Z</time>
      </trkpt>
      <trkpt lat="44.88398" lon="5.26023">
        <ele>1299</ele>
        <time>2024-07-02T09:51:00Z</time>
      </trkpt>
      <trkpt lat="44.88398" lon="5.26024">
        <ele>1299.1</ele>
        <time>2024-07-02T09:51:01Z</time>
      </trkpt>
      <trkpt lat="44.88399" lon="5.26025">
        <ele>1299.2</ele>
        <time>2024-07-02T09:51:02Z</time>
      </trkpt>
      <trkpt lat="44.884" lon="5.26026">
        <ele>1299.2</ele>
        <time>2024-07-02T09:51:03Z</time>
      </trkpt>
      <trkpt lat="44.88401" lon="5.26027">
        <ele>1299.3</ele>
        <time>2024-07-02T09:51:04Z</time>
      </trkpt>
      <trkpt lat="44.88402" lon="5.26028">
        <ele>1299.3</ele>
        <time>2024-07-02T09:51:05Z</time>
      </trkpt>
      <trkpt lat="44.88402" lon="5.26029">
        <ele>1299.4</ele>
        <time>2024-07-02T09:51:06Z</time>
      </trkpt>
      <trkpt lat="44.88403" lon="5.2603">
        <ele>1299.4</ele>
        <time>2024-07-02T09:51:07Z</time>
      </trkpt>
      <trkpt lat="44.88404" lon="5.26031">
        <ele>1299.5</ele>
        <time>2024-07-02T09:51:08Z</time>
      </trkpt>
      <trkpt lat="44.88405" lon="5.26032">
        <ele>1299.5</ele>
        <time>2024-07-02T09:51:09Z</time>
      </trkpt>
      <trkpt lat="44.88405" lon="5.26033">
        <ele>1299.6</ele>
        <time>2024-07-02T09:51:10Z</time>
      </trkpt>
      <trkpt lat="44.88406" lon="5.26035">
        <ele>1299.6</ele>
        <time>2024-07-02T09:51:11Z</time>
      </trkpt>
      <trkpt lat="44.88407" lon="5.26036">
        <ele>1299.7</ele>
        <time>2024-07-02T09:51:12Z</time>
      </trkpt>
      <trkpt lat="44.88408" lon="5.26037">
        <ele>1299.7</ele>
        <time>2024-07-02T09:51:13Z</time>
      </trkpt>
      <trkpt lat="44.88408" lon="5.26038">
        <ele>1299.8</ele>
        <time>2024-07-02T09:51:14Z</time>
      </trkpt>
      <trkpt lat="44.88409" lon="5.26039">
        <ele>1299.8</ele>
        <time>2024-07-02T09:51:15Z</time>
      </trkpt>
      <trkpt lat="44.88409" lon="5.2604">
        <ele>1299.9</ele>
        <time>2024-07-02T09:51:16Z</time>
      </trkpt>
      <trkpt lat="44.8841" lon="5.26041">
        <ele>1299.9</ele>
        <time>2024-07-02T09:51:17Z</time>
      </trkpt>
      <trkpt lat="44.88411" lon="5.26042">
        <ele>1299.9</ele>
        <time>2024-07-02T09:51:18Z</time>
      </trkpt>
      <trkpt lat="44.88411" lon="5.26044">
        <ele>1300</ele>
        <time>2024-07-02T09:51:19Z</time>
      </trkpt>
      <trkpt lat="44.88412" lon="5.26045">
        <ele>1300</ele>
        <time>2024-07-02T09:51:20Z</time>
      </trkpt>
      <trkpt lat="44.88412" lon="5.26046">
        <ele>1300.1</ele>
        <time>2024-07-02T09:51:21Z</time>
      </trkpt>
      <trkpt lat="44.88413" lon="5.26047">
        <ele>1300.1</ele>
        <time>2024-07-02T09:51:22Z</time>
      </trkpt>
      <trkpt lat="44.88413" lon="5.26048">
        <ele>1300.2</ele>
        <time>2024-07-02T09:51:23Z</time>
      </trkpt>
      <trkpt lat="44.88414" lon="5.26049">
        <ele>1300.2</ele>
        <time>2024-07-02T09:51:24Z</time>
      </trkpt>
      <trkpt lat="44.88415" lon="5.2605">
        <ele>1300.2</ele>
        <time>2024-07-02T09:51:25Z</time>
      </trkpt>
      <trkpt lat="44.88415" lon="5.26051">
        <ele>1300.3</ele>
        <time>2024-07-02T09:51:26Z</time>
      </trkpt>
      <trkpt lat="44.88415" lon="5.26052">
        <ele>1300.3</ele>
        <time>2024-07-02T09:51:27Z</time>
      </trkpt>
      <trkpt lat="44.88416" lon="5.26052">
        <ele>1300.3</ele>
        <time>2024-07-02T09:51:28Z</time>
      </trkpt>
      <trkpt lat="44.88417" lon="5.26052">
        <ele>1300.4</ele>
        <time>2024-07-02T09:51:29Z</time>
      </trkpt>
      <trkpt lat="44.88418" lon="5.26053">
        <ele>1300.4</ele>
        <time>2024-07-02T09:51:30Z</time>
      </trkpt>
      <trkpt lat="44.88419" lon="5.26055">
        <ele>1300.5</ele>
        <time>2024-07-02T09:51:31Z</time>
      </trkpt>
      <trkpt lat="44.8842" lon="5.26055">
        <ele>1300.6</ele>
        <time>2024-07-02T09:51:32Z</time>
      </trkpt>
      <trkpt lat="44.88421" lon="5.26056">
        <ele>1300.6</ele>
        <time>2024-07-02T09:51:33Z</time>
      </trkpt>
      <trkpt lat="44.88422" lon="5.26058">
        <ele>1300.7</ele>
        <time>2024-07-02T09:51:34Z</time>
      </trkpt>
      <trkpt lat="44.88423" lon="5.26059">
        <ele>1300.8</ele>
        <time>2024-07-02T09:51:35Z</time>
      </trkpt>
      <trkpt lat="44.88423" lon="5.2606">
        <ele>1300.8</ele>
        <time>2024-07-02T09:51:36Z</time>
      </trkpt>
      <trkpt lat="44.88425" lon="5.26062">
        <ele>1300.9</ele>
        <time>2024-07-02T09:51:37Z</time>
      </trkpt>
      <trkpt lat="44.88426" lon="5.26063">
        <ele>1301</ele>
        <time>2024-07-02T09:51:38Z</time>
      </trkpt>
      <trkpt lat="44.88426" lon="5.26063">
        <ele>1301</ele>
        <time>2024-07-02T09:51:39Z</time>
      </trkpt>
      <trkpt lat="44.88428" lon="5.26065">
        <ele>1301.1</ele>
        <time>2024-07-02T09:51:40Z</time>
      </trkpt>
      <trkpt lat="44.88428" lon="5.26066">
        <ele>1301.1</ele>
        <time>2024-07-02T09:51:41Z</time>
      </trkpt>
      <trkpt lat="44.88429" lon="5.26067">
        <ele>1301.2</ele>
        <time>2024-07-02T09:51:42Z</time>
      </trkpt>
      <trkpt lat="44.8843" lon="5.26068">
        <ele>1301.2</ele>
        <time>2024-07-02T09:51:43Z</time>
      </trkpt>
      <trkpt lat="44.88431" lon="5.26069">
        <ele>1301.3</ele>
        <time>2024-07-02T09:51:44Z</time>
      </trkpt>
      <trkpt lat="44.88432" lon="5.2607">
        <ele>1301.3</ele>
        <time>2024-07-02T09:51:45Z</time>
      </trkpt>
      <trkpt lat="44.88433" lon="5.26072">
        <ele>1301.4</ele>
        <time>2024-07-02T09:51:46Z</time>
      </trkpt>
      <trkpt lat="44.88433" lon="5.26073">
        <ele>1301.4</ele>
        <time>2024-07-02T09:51:47Z</time>
      </trkpt>
      <trkpt lat="44.88434" lon="5.26074">
        <ele>1301.4</ele>
        <time>2024-07-02T09:51:48Z</time>
      </trkpt>
      <trkpt lat="44.88435" lon="5.26076">
        <ele>1301.5</ele>
        <time>2024-07-02T09:51:49Z</time>
      </trkpt>
      <trkpt lat="44.88436" lon="5.26077">
        <ele>1301.5</ele>
        <time>2024-07-02T09:51:50Z</time>
      </trkpt>
      <trkpt lat="44.88436" lon="5.26078">
        <ele>1301.6</ele>
        <time>2024-07-02T09:51:51Z</time>
      </trkpt>
      <trkpt lat="44.88437" lon="5.26081">
        <ele>1301.6</ele>
        <time>2024-07-02T09:51:52Z</time>
      </trkpt>
      <trkpt lat="44.88438" lon="5.26082">
        <ele>1301.7</ele>
        <time>2024-07-02T09:51:53Z</time>
      </trkpt>
      <trkpt lat="44.88438" lon="5.26082">
        <ele>1301.7</ele>
        <time>2024-07-02T09:51:54Z</time>
      </trkpt>
      <trkpt lat="44.88439" lon="5.26084">
        <ele>1301.7</ele>
        <time>2024-07-02T09:51:55Z</time>
      </trkpt>
      <trkpt lat="44.8844" lon="5.26085">
        <ele>1301.8</ele>
        <time>2024-07-02T09:51:56Z</time>
      </trkpt>
      <trkpt lat="44.8844" lon="5.26086">
        <ele>1301.8</ele>
        <time>2024-07-02T09:51:57Z</time>
      </trkpt>
      <trkpt lat="44.88441" lon="5.26088">
        <ele>1301.9</ele>
        <time>2024-07-02T09:51:58Z</time>
      </trkpt>
      <trkpt lat="44.88442" lon="5.26089">
        <ele>1301.9</ele>
        <time>2024-07-02T09:51:59Z</time>
      </trkpt>
      <trkpt lat="44.88442" lon="5.26091">
        <ele>1301.9</ele>
        <time>2024-07-02T09:52:00Z</time>
      </trkpt>
      <trkpt lat="44.88443" lon="5.26092">
        <ele>1302</ele>
        <time>2024-07-02T09:52:01Z</time>
      </trkpt>
      <trkpt lat="44.88443" lon="5.26093">
        <ele>1302</ele>
        <time>2024-07-02T09:52:02Z</time>
      </trkpt>
      <trkpt lat="44.88444" lon="5.26095">
        <ele>1302.1</ele>
        <time>2024-07-02T09:52:03Z</time>
      </trkpt>
      <trkpt lat="44.88445" lon="5.26096">
        <ele>1302.1</ele>
        <time>2024-07-02T09:52:04Z</time>
      </trkpt>
      <trkpt lat="44.88445" lon="5.26097">
        <ele>1302.1</ele>
        <time>2024-07-02T09:52:05Z</time>
      </trkpt>
      <trkpt lat="44.88446" lon="5.26098">
        <ele>1302.2</ele>
        <time>2024-07-02T09:52:06Z</time>
      </trkpt>
      <trkpt lat="44.88448" lon="5.261">
        <ele>1302.3</ele>
        <time>2024-07-02T09:52:07Z</time>
      </trkpt>
      <trkpt lat="44.88448" lon="5.26101">
        <ele>1302.3</ele>
        <time>2024-07-02T09:52:08Z</time>
      </trkpt>
      <trkpt lat="44.88449" lon="5.26102">
        <ele>1302.3</ele>
        <time>2024-07-02T09:52:09Z</time>
      </trkpt>
      <trkpt lat="44.8845" lon="5.26103">
        <ele>1302.4</ele>
        <time>2024-07-02T09:52:10Z</time>
      </trkpt>
      <trkpt lat="44.8845" lon="5.26104">
        <ele>1302.4</ele>
        <time>2024-07-02T09:52:11Z</time>
      </trkpt>
      <trkpt lat="44.88451" lon="5.26105">
        <ele>1302.5</ele>
        <time>2024-07-02T09:52:12Z</time>
      </trkpt>
      <trkpt lat="44.88452" lon="5.26106">
        <ele>1302.5</ele>
        <time>2024-07-02T09:52:13Z</time>
      </trkpt>
      <trkpt lat="44.88453" lon="5.26107">
        <ele>1302.5</ele>
        <time>2024-07-02T09:52:14Z</time>
      </trkpt>
      <trkpt lat="44.88453" lon="5.26109">
        <ele>1302.6</ele>
        <time>2024-07-02T09:52:15Z</time>
      </trkpt>
      <trkpt lat="44.88454" lon="5.2611">
        <ele>1302.6</ele>
        <time>2024-07-02T09:52:16Z</time>
      </trkpt>
      <trkpt lat="44.88454" lon="5.26111">
        <ele>1302.7</ele>
        <time>2024-07-02T09:52:17Z</time>
      </trkpt>
      <trkpt lat="44.88455" lon="5.26112">
        <ele>1302.7</ele>
        <time>2024-07-02T09:52:18Z</time>
      </trkpt>
      <trkpt lat="44.88456" lon="5.26114">
        <ele>1302.8</ele>
        <time>2024-07-02T09:52:19Z</time>
      </trkpt>
      <trkpt lat="44.88456" lon="5.26115">
        <ele>1302.8</ele>
        <time>2024-07-02T09:52:20Z</time>
      </trkpt>
      <trkpt lat="44.88457" lon="5.26116">
        <ele>1302.8</ele>
        <time>2024-07-02T09:52:21Z</time>
      </trkpt>
      <trkpt lat="44.88457" lon="5.26117">
        <ele>1302.9</ele>
        <time>2024-07-02T09:52:22Z</time>
      </trkpt>
      <trkpt lat="44.88457" lon="5.26119">
        <ele>1302.9</ele>
        <time>2024-07-02T09:52:23Z</time>
      </trkpt>
      <trkpt lat="44.88457" lon="5.2612">
        <ele>1302.9</ele>
        <time>2024-07-02T09:52:24Z</time>
      </trkpt>
      <trkpt lat="44.88458" lon="5.26121">
        <ele>1303</ele>
        <time>2024-07-02T09:52:25Z</time>
      </trkpt>
      <trkpt lat="44.88459" lon="5.26123">
        <ele>1303</ele>
        <time>2024-07-02T09:52:26Z</time>
      </trkpt>
      <trkpt lat="44.88459" lon="5.26124">
        <ele>1303.1</ele>
        <time>2024-07-02T09:52:27Z</time>
      </trkpt>
      <trkpt lat="44.88459" lon="5.26126">
        <ele>1303.1</ele>
        <time>2024-07-02T09:52:28Z</time>
      </trkpt>
      <trkpt lat="44.88459" lon="5.26127">
        <ele>1303.2</ele>
        <time>2024-07-02T09:52:29Z</time>
      </trkpt>
      <trkpt lat="44.88459" lon="5.26129">
        <ele>1303.2</ele>
        <time>2024-07-02T09:52:30Z</time>
      </trkpt>
      <trkpt lat="44.8846" lon="5.2613">
        <ele>1303.2</ele>
        <time>2024-07-02T09:52:31Z</time>
      </trkpt>
      <trkpt lat="44.88461" lon="5.26131">
        <ele>1303.3</ele>
        <time>2024-07-02T09:52:32Z</time>
      </trkpt>
      <trkpt lat="44.88461" lon="5.26132">
        <ele>1303.3</ele>
        <time>2024-07-02T09:52:33Z</time>
      </trkpt>
      <trkpt lat="44.88463" lon="5.26134">
        <ele>1303.3</ele>
        <time>2024-07-02T09:52:34Z</time>
      </trkpt>
      <trkpt lat="44.88464" lon="5.26135">
        <ele>1303.4</ele>
        <time>2024-07-02T09:52:35Z</time>
      </trkpt>
      <trkpt lat="44.88465" lon="5.26135">
        <ele>1303.4</ele>
        <time>2024-07-02T09:52:36Z</time>
      </trkpt>
      <trkpt lat="44.88466" lon="5.26136">
        <ele>1303.4</ele>
        <time>2024-07-02T09:52:37Z</time>
      </trkpt>
      <trkpt lat="44.88467" lon="5.26137">
        <ele>1303.4</ele>
        <time>2024-07-02T09:52:38Z</time>
      </trkpt>
      <trkpt lat="44.88467" lon="5.26138">
        <ele>1303.4</ele>
        <time>2024-07-02T09:52:39Z</time>
      </trkpt>
      <trkpt lat="44.88468" lon="5.2614">
        <ele>1303.5</ele>
        <time>2024-07-02T09:52:40Z</time>
      </trkpt>
      <trkpt lat="44.88469" lon="5.26141">
        <ele>1303.5</ele>
        <time>2024-07-02T09:52:41Z</time>
      </trkpt>
      <trkpt lat="44.88469" lon="5.26142">
        <ele>1303.5</ele>
        <time>2024-07-02T09:52:42Z</time>
      </trkpt>
      <trkpt lat="44.88469" lon="5.26142">
        <ele>1303.5</ele>
        <time>2024-07-02T09:52:43Z</time>
      </trkpt>
      <trkpt lat="44.8847" lon="5.26144">
        <ele>1303.6</ele>
        <time>2024-07-02T09:52:44Z</time>
      </trkpt>
      <trkpt lat="44.8847" lon="5.26145">
        <ele>1303.6</ele>
        <time>2024-07-02T09:52:45Z</time>
      </trkpt>
      <trkpt lat="44.8847" lon="5.26146">
        <ele>1303.6</ele>
        <time>2024-07-02T09:52:46Z</time>
      </trkpt>
      <trkpt lat="44.8847" lon="5.26148">
        <ele>1303.6</ele>
        <time>2024-07-02T09:52:47Z</time>
      </trkpt>
      <trkpt lat="44.88471" lon="5.26149">
        <ele>1303.6</ele>
        <time>2024-07-02T09:52:48Z</time>
      </trkpt>
      <trkpt lat="44.88471" lon="5.2615">
        <ele>1303.7</ele>
        <time>2024-07-02T09:52:49Z</time>
      </trkpt>
      <trkpt lat="44.88471" lon="5.26152">
        <ele>1303.7</ele>
        <time>2024-07-02T09:52:50Z</time>
      </trkpt>
      <trkpt lat="44.88472" lon="5.26153">
        <ele>1303.7</ele>
        <time>2024-07-02T09:52:51Z</time>
      </trkpt>
      <trkpt lat="44.88472" lon="5.26154">
        <ele>1303.7</ele>
        <time>2024-07-02T09:52:52Z</time>
      </trkpt>
      <trkpt lat="44.88472" lon="5.26156">
        <ele>1303.8</ele>
        <time>2024-07-02T09:52:53Z</time>
      </trkpt>
      <trkpt lat="44.88473" lon="5.26157">
        <ele>1303.8</ele>
        <time>2024-07-02T09:52:54Z</time>
      </trkpt>
      <trkpt lat="44.88473" lon="5.26158">
        <ele>1303.8</ele>
        <time>2024-07-02T09:52:55Z</time>
      </trkpt>
      <trkpt lat="44.88474" lon="5.26159">
        <ele>1303.8</ele>
        <time>2024-07-02T09:52:56Z</time>
      </trkpt>
      <trkpt lat="44.88474" lon="5.2616">
        <ele>1303.9</ele>
        <time>2024-07-02T09:52:57Z</time>
      </trkpt>
      <trkpt lat="44.88474" lon="5.26162">
        <ele>1303.9</ele>
        <time>2024-07-02T09:52:58Z</time>
      </trkpt>
      <trkpt lat="44.88474" lon="5.26163">
        <ele>1303.9</ele>
        <time>2024-07-02T09:52:59Z</time>
      </trkpt>
      <trkpt lat="44.88475" lon="5.26165">
        <ele>1303.9</ele>
        <time>2024-07-02T09:53:00Z</time>
      </trkpt>
      <trkpt lat="44.88475" lon="5.26166">
        <ele>1304</ele>
        <time>2024-07-02T09:53:01Z</time>
      </trkpt>
      <trkpt lat="44.88476" lon="5.26167">
        <ele>1304</ele>
        <time>2024-07-02T09:53:02Z</time>
      </trkpt>
      <trkpt lat="44.88476" lon="5.26168">
        <ele>1304</ele>
        <time>2024-07-02T09:53:03Z</time>
      </trkpt>
      <trkpt lat="44.88477" lon="5.26169">
        <ele>1304.1</ele>
        <time>2024-07-02T09:53:04Z</time>
      </trkpt>
      <trkpt lat="44.88477" lon="5.26169">
        <ele>1304.1</ele>
        <time>2024-07-02T09:53:05Z</time>
      </trkpt>
      <trkpt lat="44.88478" lon="5.26171">
        <ele>1304.1</ele>
        <time>2024-07-02T09:53:06Z</time>
      </trkpt>
      <trkpt lat="44.88478" lon="5.26171">
        <ele>1304.1</ele>
        <time>2024-07-02T09:53:07Z</time>
      </trkpt>
      <trkpt lat="44.88479" lon="5.26172">
        <ele>1304.2</ele>
        <time>2024-07-02T09:53:08Z</time>
      </trkpt>
      <trkpt lat="44.88479" lon="5.26174">
        <ele>1304.2</ele>
        <time>2024-07-02T09:53:09Z</time>
      </trkpt>
      <trkpt lat="44.88479" lon="5.26175">
        <ele>1304.2</ele>
        <time>2024-07-02T09:53:10Z</time>
      </trkpt>
      <trkpt lat="44.8848" lon="5.26176">
        <ele>1304.2</ele>
        <time>2024-07-02T09:53:11Z</time>
      </trkpt>
      <trkpt lat="44.88481" lon="5.26177">
        <ele>1304.3</ele>
        <time>2024-07-02T09:53:12Z</time>
      </trkpt>
      <trkpt lat="44.88481" lon="5.26179">
        <ele>1304.3</ele>
        <time>2024-07-02T09:53:13Z</time>
      </trkpt>
      <trkpt lat="44.88482" lon="5.2618">
        <ele>1304.3</ele>
        <time>2024-07-02T09:53:14Z</time>
      </trkpt>
      <trkpt lat="44.88482" lon="5.26181">
        <ele>1304.4</ele>
        <time>2024-07-02T09:53:15Z</time>
      </trkpt>
      <trkpt lat="44.88483" lon="5.26182">
        <ele>1304.4</ele>
        <time>2024-07-02T09:53:16Z</time>
      </trkpt>
      <trkpt lat="44.88483" lon="5.26184">
        <ele>1304.4</ele>
        <time>2024-07-02T09:53:17Z</time>
      </trkpt>
      <trkpt lat="44.88484" lon="5.26185">
        <ele>1304.5</ele>
        <time>2024-07-02T09:53:18Z</time>
      </trkpt>
      <trkpt lat="44.88484" lon="5.26186">
        <ele>1304.5</ele>
        <time>2024-07-02T09:53:19Z</time>
      </trkpt>
      <trkpt lat="44.88485" lon="5.26188">
        <ele>1304.5</ele>
        <time>2024-07-02T09:53:20Z</time>
      </trkpt>
      <trkpt lat="44.88485" lon="5.26189">
        <ele>1304.6</ele>
        <time>2024-07-02T09:53:21Z</time>
      </trkpt>
      <trkpt lat="44.88485" lon="5.2619">
        <ele>1304.6</ele>
        <time>2024-07-02T09:53:22Z</time>
      </trkpt>
      <trkpt lat="44.88486" lon="5.26192">
        <ele>1304.6</ele>
        <time>2024-07-02T09:53:23Z</time>
      </trkpt>
      <trkpt lat="44.88486" lon="5.26193">
        <ele>1304.6</ele>
        <time>2024-07-02T09:53:24Z</time>
      </trkpt>
      <trkpt lat="44.88486" lon="5.26195">
        <ele>1304.7</ele>
        <time>2024-07-02T09:53:25Z</time>
      </trkpt>
      <trkpt lat="44.88487" lon="5.26196">
        <ele>1304.7</ele>
        <time>2024-07-02T09:53:26Z</time>
      </trkpt>
      <trkpt lat="44.88487" lon="5.26198">
        <ele>1304.7</ele>
        <time>2024-07-02T09:53:27Z</time>
      </trkpt>
      <trkpt lat="44.88488" lon="5.26199">
        <ele>1304.8</ele>
        <time>2024-07-02T09:53:28Z</time>
      </trkpt>
      <trkpt lat="44.88488" lon="5.26201">
        <ele>1304.8</ele>
        <time>2024-07-02T09:53:29Z</time>
      </trkpt>
      <trkpt lat="44.88488" lon="5.26203">
        <ele>1304.8</ele>
        <time>2024-07-02T09:53:30Z</time>
      </trkpt>
      <trkpt lat="44.88488" lon="5.26204">
        <ele>1304.8</ele>
        <time>2024-07-02T09:53:31Z</time>
      </trkpt>
      <trkpt lat="44.88489" lon="5.26206">
        <ele>1304.9</ele>
        <time>2024-07-02T09:53:32Z</time>
      </trkpt>
      <trkpt lat="44.88489" lon="5.26207">
        <ele>1304.9</ele>
        <time>2024-07-02T09:53:33Z</time>
      </trkpt>
      <trkpt lat="44.8849" lon="5.26208">
        <ele>1304.9</ele>
        <time>2024-07-02T09:53:34Z</time>
      </trkpt>
      <trkpt lat="44.8849" lon="5.2621">
        <ele>1304.9</ele>
        <time>2024-07-02T09:53:35Z</time>
      </trkpt>
      <trkpt lat="44.88491" lon="5.26211">
        <ele>1304.9</ele>
        <time>2024-07-02T09:53:36Z</time>
      </trkpt>
      <trkpt lat="44.88491" lon="5.26212">
        <ele>1305</ele>
        <time>2024-07-02T09:53:37Z</time>
      </trkpt>
      <trkpt lat="44.88492" lon="5.26214">
        <ele>1305</ele>
        <time>2024-07-02T09:53:38Z</time>
      </trkpt>
      <trkpt lat="44.88492" lon="5.26215">
        <ele>1305</ele>
        <time>2024-07-02T09:53:39Z</time>
      </trkpt>
      <trkpt lat="44.88492" lon="5.26216">
        <ele>1305</ele>
        <time>2024-07-02T09:53:40Z</time>
      </trkpt>
      <trkpt lat="44.88493" lon="5.26218">
        <ele>1305.1</ele>
        <time>2024-07-02T09:53:41Z</time>
      </trkpt>
      <trkpt lat="44.88493" lon="5.26219">
        <ele>1305.1</ele>
        <time>2024-07-02T09:53:42Z</time>
      </trkpt>
      <trkpt lat="44.88493" lon="5.26221">
        <ele>1305.1</ele>
        <time>2024-07-02T09:53:43Z</time>
      </trkpt>
      <trkpt lat="44.88493" lon="5.26223">
        <ele>1305.1</ele>
        <time>2024-07-02T09:53:44Z</time>
      </trkpt>
      <trkpt lat="44.88493" lon="5.26224">
        <ele>1305.2</ele>
        <time>2024-07-02T09:53:45Z</time>
      </trkpt>
      <trkpt lat="44.88493" lon="5.26226">
        <ele>1305.2</ele>
        <time>2024-07-02T09:53:46Z</time>
      </trkpt>
      <trkpt lat="44.88493" lon="5.26228">
        <ele>1305.2</ele>
        <time>2024-07-02T09:53:47Z</time>
      </trkpt>
      <trkpt lat="44.88494" lon="5.26229">
        <ele>1305.2</ele>
        <time>2024-07-02T09:53:48Z</time>
      </trkpt>
      <trkpt lat="44.88494" lon="5.2623">
        <ele>1305.3</ele>
        <time>2024-07-02T09:53:49Z</time>
      </trkpt>
      <trkpt lat="44.88495" lon="5.26232">
        <ele>1305.3</ele>
        <time>2024-07-02T09:53:50Z</time>
      </trkpt>
      <trkpt lat="44.88495" lon="5.26233">
        <ele>1305.3</ele>
        <time>2024-07-02T09:53:51Z</time>
      </trkpt>
      <trkpt lat="44.88495" lon="5.26235">
        <ele>1305.3</ele>
        <time>2024-07-02T09:53:52Z</time>
      </trkpt>
      <trkpt lat="44.88496" lon="5.26236">
        <ele>1305.4</ele>
        <time>2024-07-02T09:53:53Z</time>
      </trkpt>
      <trkpt lat="44.88496" lon="5.26237">
        <ele>1305.4</ele>
        <time>2024-07-02T09:53:54Z</time>
      </trkpt>
      <trkpt lat="44.88496" lon="5.26239">
        <ele>1305.4</ele>
        <time>2024-07-02T09:53:55Z</time>
      </trkpt>
      <trkpt lat="44.88496" lon="5.26241">
        <ele>1305.5</ele>
        <time>2024-07-02T09:53:56Z</time>
      </trkpt>
      <trkpt lat="44.88496" lon="5.26243">
        <ele>1305.5</ele>
        <time>2024-07-02T09:53:57Z</time>
      </trkpt>
      <trkpt lat="44.88497" lon="5.26244">
        <ele>1305.6</ele>
        <time>2024-07-02T09:53:58Z</time>
      </trkpt>
      <trkpt lat="44.88497" lon="5.26247">
        <ele>1305.6</ele>
        <time>2024-07-02T09:53:59Z</time>
      </trkpt>
      <trkpt lat="44.88498" lon="5.26248">
        <ele>1305.7</ele>
        <time>2024-07-02T09:54:00Z</time>
      </trkpt>
      <trkpt lat="44.88498" lon="5.26249">
        <ele>1305.7</ele>
        <time>2024-07-02T09:54:01Z</time>
      </trkpt>
      <trkpt lat="44.88499" lon="5.26252">
        <ele>1305.8</ele>
        <time>2024-07-02T09:54:02Z</time>
      </trkpt>
      <trkpt lat="44.88499" lon="5.26253">
        <ele>1305.8</ele>
        <time>2024-07-02T09:54:03Z</time>
      </trkpt>
      <trkpt lat="44.88499" lon="5.26254">
        <ele>1305.8</ele>
        <time>2024-07-02T09:54:04Z</time>
      </trkpt>
      <trkpt lat="44.885" lon="5.26257">
        <ele>1305.9</ele>
        <time>2024-07-02T09:54:05Z</time>
      </trkpt>
      <trkpt lat="44.88501" lon="5.26258">
        <ele>1306</ele>
        <time>2024-07-02T09:54:06Z</time>
      </trkpt>
      <trkpt lat="44.88501" lon="5.26259">
        <ele>1306</ele>
        <time>2024-07-02T09:54:07Z</time>
      </trkpt>
      <trkpt lat="44.88502" lon="5.26261">
        <ele>1306.1</ele>
        <time>2024-07-02T09:54:08Z</time>
      </trkpt>
      <trkpt lat="44.88503" lon="5.26262">
        <ele>1306.2</ele>
        <time>2024-07-02T09:54:09Z</time>
      </trkpt>
      <trkpt lat="44.88503" lon="5.26263">
        <ele>1306.2</ele>
        <time>2024-07-02T09:54:10Z</time>
      </trkpt>
      <trkpt lat="44.88504" lon="5.26264">
        <ele>1306.2</ele>
        <time>2024-07-02T09:54:11Z</time>
      </trkpt>
      <trkpt lat="44.88504" lon="5.26266">
        <ele>1306.3</ele>
        <time>2024-07-02T09:54:12Z</time>
      </trkpt>
      <trkpt lat="44.88504" lon="5.26267">
        <ele>1306.4</ele>
        <time>2024-07-02T09:54:13Z</time>
      </trkpt>
      <trkpt lat="44.88504" lon="5.2627">
        <ele>1306.5</ele>
        <time>2024-07-02T09:54:14Z</time>
      </trkpt>
      <trkpt lat="44.88505" lon="5.26271">
        <ele>1306.5</ele>
        <time>2024-07-02T09:54:15Z</time>
      </trkpt>
      <trkpt lat="44.88505" lon="5.26272">
        <ele>1306.5</ele>
        <time>2024-07-02T09:54:16Z</time>
      </trkpt>
      <trkpt lat="44.88506" lon="5.26275">
        <ele>1306.6</ele>
        <time>2024-07-02T09:54:17Z</time>
      </trkpt>
      <trkpt lat="44.88506" lon="5.26276">
        <ele>1306.7</ele>
        <time>2024-07-02T09:54:18Z</time>
      </trkpt>
      <trkpt lat="44.88507" lon="5.26277">
        <ele>1306.7</ele>
        <time>2024-07-02T09:54:19Z</time>
      </trkpt>
      <trkpt lat="44.88507" lon="5.26279">
        <ele>1306.8</ele>
        <time>2024-07-02T09:54:20Z</time>
      </trkpt>
      <trkpt lat="44.88508" lon="5.2628">
        <ele>1306.8</ele>
        <time>2024-07-02T09:54:21Z</time>
      </trkpt>
      <trkpt lat="44.88508" lon="5.26281">
        <ele>1306.9</ele>
        <time>2024-07-02T09:54:22Z</time>
      </trkpt>
      <trkpt lat="44.88509" lon="5.26284">
        <ele>1307</ele>
        <time>2024-07-02T09:54:23Z</time>
      </trkpt>
      <trkpt lat="44.8851" lon="5.26285">
        <ele>1307</ele>
        <time>2024-07-02T09:54:24Z</time>
      </trkpt>
      <trkpt lat="44.8851" lon="5.26286">
        <ele>1307.1</ele>
        <time>2024-07-02T09:54:25Z</time>
      </trkpt>
      <trkpt lat="44.88511" lon="5.26287">
        <ele>1307.1</ele>
        <time>2024-07-02T09:54:26Z</time>
      </trkpt>
      <trkpt lat="44.88511" lon="5.26289">
        <ele>1307.2</ele>
        <time>2024-07-02T09:54:27Z</time>
      </trkpt>
      <trkpt lat="44.88512" lon="5.2629">
        <ele>1307.2</ele>
        <time>2024-07-02T09:54:28Z</time>
      </trkpt>
      <trkpt lat="44.88512" lon="5.26291">
        <ele>1307.3</ele>
        <time>2024-07-02T09:54:29Z</time>
      </trkpt>
      <trkpt lat="44.88513" lon="5.26293">
        <ele>1307.3</ele>
        <time>2024-07-02T09:54:30Z</time>
      </trkpt>
      <trkpt lat="44.88513" lon="5.26294">
        <ele>1307.4</ele>
        <time>2024-07-02T09:54:31Z</time>
      </trkpt>
      <trkpt lat="44.88514" lon="5.26296">
        <ele>1307.5</ele>
        <time>2024-07-02T09:54:32Z</time>
      </trkpt>
      <trkpt lat="44.88514" lon="5.26298">
        <ele>1307.6</ele>
        <time>2024-07-02T09:54:33Z</time>
      </trkpt>
      <trkpt lat="44.88514" lon="5.263">
        <ele>1307.7</ele>
        <time>2024-07-02T09:54:34Z</time>
      </trkpt>
      <trkpt lat="44.88514" lon="5.26302">
        <ele>1307.8</ele>
        <time>2024-07-02T09:54:35Z</time>
      </trkpt>
      <trkpt lat="44.88515" lon="5.26304">
        <ele>1307.9</ele>
        <time>2024-07-02T09:54:36Z</time>
      </trkpt>
      <trkpt lat="44.88515" lon="5.26306">
        <ele>1308</ele>
        <time>2024-07-02T09:54:37Z</time>
      </trkpt>
      <trkpt lat="44.88516" lon="5.26308">
        <ele>1308.1</ele>
        <time>2024-07-02T09:54:38Z</time>
      </trkpt>
      <trkpt lat="44.88516" lon="5.2631">
        <ele>1308.2</ele>
        <time>2024-07-02T09:54:39Z</time>
      </trkpt>
      <trkpt lat="44.88517" lon="5.26311">
        <ele>1308.2</ele>
        <time>2024-07-02T09:54:40Z</time>
      </trkpt>
      <trkpt lat="44.88517" lon="5.26312">
        <ele>1308.3</ele>
        <time>2024-07-02T09:54:41Z</time>
      </trkpt>
      <trkpt lat="44.88518" lon="5.26313">
        <ele>1308.4</ele>
        <time>2024-07-02T09:54:42Z</time>
      </trkpt>
      <trkpt lat="44.88519" lon="5.26315">
        <ele>1308.5</ele>
        <time>2024-07-02T09:54:43Z</time>
      </trkpt>
      <trkpt lat="44.8852" lon="5.26317">
        <ele>1308.6</ele>
        <time>2024-07-02T09:54:44Z</time>
      </trkpt>
      <trkpt lat="44.88521" lon="5.26317">
        <ele>1308.7</ele>
        <time>2024-07-02T09:54:45Z</time>
      </trkpt>
      <trkpt lat="44.88521" lon="5.26318">
        <ele>1308.7</ele>
        <time>2024-07-02T09:54:46Z</time>
      </trkpt>
      <trkpt lat="44.88522" lon="5.26319">
        <ele>1308.8</ele>
        <time>2024-07-02T09:54:47Z</time>
      </trkpt>
      <trkpt lat="44.88523" lon="5.26321">
        <ele>1308.9</ele>
        <time>2024-07-02T09:54:48Z</time>
      </trkpt>
      <trkpt lat="44.88523" lon="5.26322">
        <ele>1309</ele>
        <time>2024-07-02T09:54:49Z</time>
      </trkpt>
      <trkpt lat="44.88524" lon="5.26325">
        <ele>1309.2</ele>
        <time>2024-07-02T09:54:50Z</time>
      </trkpt>
      <trkpt lat="44.88524" lon="5.26326">
        <ele>1309.2</ele>
        <time>2024-07-02T09:54:51Z</time>
      </trkpt>
      <trkpt lat="44.88525" lon="5.26327">
        <ele>1309.3</ele>
        <time>2024-07-02T09:54:52Z</time>
      </trkpt>
      <trkpt lat="44.88525" lon="5.26329">
        <ele>1309.4</ele>
        <time>2024-07-02T09:54:53Z</time>
      </trkpt>
      <trkpt lat="44.88525" lon="5.2633">
        <ele>1309.4</ele>
        <time>2024-07-02T09:54:54Z</time>
      </trkpt>
      <trkpt lat="44.88526" lon="5.26331">
        <ele>1309.5</ele>
        <time>2024-07-02T09:54:55Z</time>
      </trkpt>
      <trkpt lat="44.88526" lon="5.26333">
        <ele>1309.6</ele>
        <time>2024-07-02T09:54:56Z</time>
      </trkpt>
      <trkpt lat="44.88526" lon="5.26335">
        <ele>1309.7</ele>
        <time>2024-07-02T09:54:57Z</time>
      </trkpt>
      <trkpt lat="44.88525" lon="5.26336">
        <ele>1309.8</ele>
        <time>2024-07-02T09:54:58Z</time>
      </trkpt>
      <trkpt lat="44.88525" lon="5.26338">
        <ele>1309.8</ele>
        <time>2024-07-02T09:54:59Z</time>
      </trkpt>
      <trkpt lat="44.88526" lon="5.26339">
        <ele>1309.9</ele>
        <time>2024-07-02T09:55:00Z</time>
      </trkpt>
      <trkpt lat="44.88527" lon="5.2634">
        <ele>1310</ele>
        <time>2024-07-02T09:55:01Z</time>
      </trkpt>
      <trkpt lat="44.88527" lon="5.26341">
        <ele>1310.1</ele>
        <time>2024-07-02T09:55:02Z</time>
      </trkpt>
      <trkpt lat="44.88528" lon="5.26343">
        <ele>1310.2</ele>
        <time>2024-07-02T09:55:03Z</time>
      </trkpt>
      <trkpt lat="44.88528" lon="5.26344">
        <ele>1310.2</ele>
        <time>2024-07-02T09:55:04Z</time>
      </trkpt>
      <trkpt lat="44.88528" lon="5.26345">
        <ele>1310.3</ele>
        <time>2024-07-02T09:55:05Z</time>
      </trkpt>
      <trkpt lat="44.88529" lon="5.26347">
        <ele>1310.4</ele>
        <time>2024-07-02T09:55:06Z</time>
      </trkpt>
      <trkpt lat="44.8853" lon="5.26348">
        <ele>1310.5</ele>
        <time>2024-07-02T09:55:07Z</time>
      </trkpt>
      <trkpt lat="44.8853" lon="5.26349">
        <ele>1310.6</ele>
        <time>2024-07-02T09:55:08Z</time>
      </trkpt>
      <trkpt lat="44.88531" lon="5.2635">
        <ele>1310.6</ele>
        <time>2024-07-02T09:55:09Z</time>
      </trkpt>
      <trkpt lat="44.88531" lon="5.2635">
        <ele>1310.7</ele>
        <time>2024-07-02T09:55:10Z</time>
      </trkpt>
      <trkpt lat="44.88531" lon="5.26352">
        <ele>1310.7</ele>
        <time>2024-07-02T09:55:11Z</time>
      </trkpt>
      <trkpt lat="44.88532" lon="5.26352">
        <ele>1310.8</ele>
        <time>2024-07-02T09:55:12Z</time>
      </trkpt>
      <trkpt lat="44.88532" lon="5.26354">
        <ele>1310.9</ele>
        <time>2024-07-02T09:55:13Z</time>
      </trkpt>
      <trkpt lat="44.88532" lon="5.26354">
        <ele>1310.9</ele>
        <time>2024-07-02T09:55:14Z</time>
      </trkpt>
      <trkpt lat="44.88533" lon="5.26355">
        <ele>1311</ele>
        <time>2024-07-02T09:55:15Z</time>
      </trkpt>
      <trkpt lat="44.88533" lon="5.26356">
        <ele>1311</ele>
        <time>2024-07-02T09:55:16Z</time>
      </trkpt>
      <trkpt lat="44.88534" lon="5.26357">
        <ele>1311.1</ele>
        <time>2024-07-02T09:55:17Z</time>
      </trkpt>
      <trkpt lat="44.88534" lon="5.26358">
        <ele>1311.2</ele>
        <time>2024-07-02T09:55:18Z</time>
      </trkpt>
      <trkpt lat="44.88535" lon="5.26359">
        <ele>1311.2</ele>
        <time>2024-07-02T09:55:19Z</time>
      </trkpt>
      <trkpt lat="44.88536" lon="5.26359">
        <ele>1311.3</ele>
        <time>2024-07-02T09:55:20Z</time>
      </trkpt>
      <trkpt lat="44.88537" lon="5.2636">
        <ele>1311.4</ele>
        <time>2024-07-02T09:55:21Z</time>
      </trkpt>
      <trkpt lat="44.88537" lon="5.26361">
        <ele>1311.5</ele>
        <time>2024-07-02T09:55:22Z</time>
      </trkpt>
      <trkpt lat="44.88538" lon="5.26362">
        <ele>1311.6</ele>
        <time>2024-07-02T09:55:23Z</time>
      </trkpt>
      <trkpt lat="44.88538" lon="5.26363">
        <ele>1311.7</ele>
        <time>2024-07-02T09:55:24Z</time>
      </trkpt>
      <trkpt lat="44.88539" lon="5.26364">
        <ele>1311.8</ele>
        <time>2024-07-02T09:55:25Z</time>
      </trkpt>
      <trkpt lat="44.88539" lon="5.26367">
        <ele>1311.9</ele>
        <time>2024-07-02T09:55:26Z</time>
      </trkpt>
      <trkpt lat="44.88539" lon="5.26367">
        <ele>1312</ele>
        <time>2024-07-02T09:55:27Z</time>
      </trkpt>
      <trkpt lat="44.88539" lon="5.26368">
        <ele>1312.1</ele>
        <time>2024-07-02T09:55:28Z</time>
      </trkpt>
      <trkpt lat="44.8854" lon="5.26369">
        <ele>1312.1</ele>
        <time>2024-07-02T09:55:29Z</time>
      </trkpt>
      <trkpt lat="44.8854" lon="5.26371">
        <ele>1312.3</ele>
        <time>2024-07-02T09:55:30Z</time>
      </trkpt>
      <trkpt lat="44.88541" lon="5.26372">
        <ele>1312.4</ele>
        <time>2024-07-02T09:55:31Z</time>
      </trkpt>
      <trkpt lat="44.88541" lon="5.26373">
        <ele>1312.5</ele>
        <time>2024-07-02T09:55:32Z</time>
      </trkpt>
      <trkpt lat="44.88541" lon="5.26374">
        <ele>1312.5</ele>
        <time>2024-07-02T09:55:33Z</time>
      </trkpt>
      <trkpt lat="44.88542" lon="5.26375">
        <ele>1312.7</ele>
        <time>2024-07-02T09:55:34Z</time>
      </trkpt>
      <trkpt lat="44.88543" lon="5.26376">
        <ele>1312.8</ele>
        <time>2024-07-02T09:55:35Z</time>
      </trkpt>
      <trkpt lat="44.88544" lon="5.26377">
        <ele>1312.9</ele>
        <time>2024-07-02T09:55:36Z</time>
      </trkpt>
      <trkpt lat="44.88545" lon="5.26379">
        <ele>1313.2</ele>
        <time>2024-07-02T09:55:37Z</time>
      </trkpt>
      <trkpt lat="44.88546" lon="5.2638">
        <ele>1313.2</ele>
        <time>2024-07-02T09:55:38Z</time>
      </trkpt>
      <trkpt lat="44.88546" lon="5.26381">
        <ele>1313.3</ele>
        <time>2024-07-02T09:55:39Z</time>
      </trkpt>
      <trkpt lat="44.88547" lon="5.26383">
        <ele>1313.6</ele>
        <time>2024-07-02T09:55:40Z</time>
      </trkpt>
      <trkpt lat="44.88548" lon="5.26385">
        <ele>1313.7</ele>
        <time>2024-07-02T09:55:41Z</time>
      </trkpt>
      <trkpt lat="44.88548" lon="5.26386">
        <ele>1313.8</ele>
        <time>2024-07-02T09:55:42Z</time>
      </trkpt>
      <trkpt lat="44.88549" lon="5.26387">
        <ele>1313.9</ele>
        <time>2024-07-02T09:55:43Z</time>
      </trkpt>
      <trkpt lat="44.88549" lon="5.26388">
        <ele>1314</ele>
        <time>2024-07-02T09:55:44Z</time>
      </trkpt>
      <trkpt lat="44.8855" lon="5.26389">
        <ele>1314.1</ele>
        <time>2024-07-02T09:55:45Z</time>
      </trkpt>
      <trkpt lat="44.88551" lon="5.26391">
        <ele>1314.2</ele>
        <time>2024-07-02T09:55:46Z</time>
      </trkpt>
      <trkpt lat="44.88551" lon="5.26392">
        <ele>1314.4</ele>
        <time>2024-07-02T09:55:47Z</time>
      </trkpt>
      <trkpt lat="44.88552" lon="5.26393">
        <ele>1314.5</ele>
        <time>2024-07-02T09:55:48Z</time>
      </trkpt>
      <trkpt lat="44.88554" lon="5.26395">
        <ele>1314.7</ele>
        <time>2024-07-02T09:55:49Z</time>
      </trkpt>
      <trkpt lat="44.88554" lon="5.26395">
        <ele>1314.7</ele>
        <time>2024-07-02T09:55:50Z</time>
      </trkpt>
      <trkpt lat="44.88555" lon="5.26395">
        <ele>1314.8</ele>
        <time>2024-07-02T09:55:51Z</time>
      </trkpt>
      <trkpt lat="44.88555" lon="5.26396">
        <ele>1314.8</ele>
        <time>2024-07-02T09:55:52Z</time>
      </trkpt>
      <trkpt lat="44.88556" lon="5.26397">
        <ele>1314.9</ele>
        <time>2024-07-02T09:55:53Z</time>
      </trkpt>
      <trkpt lat="44.88556" lon="5.26398">
        <ele>1315</ele>
        <time>2024-07-02T09:55:54Z</time>
      </trkpt>
      <trkpt lat="44.88557" lon="5.264">
        <ele>1315.1</ele>
        <time>2024-07-02T09:55:55Z</time>
      </trkpt>
      <trkpt lat="44.88557" lon="5.26401">
        <ele>1315.2</ele>
        <time>2024-07-02T09:55:56Z</time>
      </trkpt>
      <trkpt lat="44.88558" lon="5.26402">
        <ele>1315.3</ele>
        <time>2024-07-02T09:55:57Z</time>
      </trkpt>
      <trkpt lat="44.88558" lon="5.26404">
        <ele>1315.4</ele>
        <time>2024-07-02T09:55:58Z</time>
      </trkpt>
      <trkpt lat="44.88558" lon="5.26406">
        <ele>1315.5</ele>
        <time>2024-07-02T09:55:59Z</time>
      </trkpt>
      <trkpt lat="44.88558" lon="5.26407">
        <ele>1315.5</ele>
        <time>2024-07-02T09:56:00Z</time>
      </trkpt>
      <trkpt lat="44.88558" lon="5.26409">
        <ele>1315.6</ele>
        <time>2024-07-02T09:56:01Z</time>
      </trkpt>
      <trkpt lat="44.88558" lon="5.26411">
        <ele>1315.7</ele>
        <time>2024-07-02T09:56:02Z</time>
      </trkpt>
      <trkpt lat="44.88558" lon="5.26413">
        <ele>1315.8</ele>
        <time>2024-07-02T09:56:03Z</time>
      </trkpt>
      <trkpt lat="44.88558" lon="5.26414">
        <ele>1315.9</ele>
        <time>2024-07-02T09:56:04Z</time>
      </trkpt>
      <trkpt lat="44.88558" lon="5.26416">
        <ele>1316</ele>
        <time>2024-07-02T09:56:05Z</time>
      </trkpt>
      <trkpt lat="44.88558" lon="5.26417">
        <ele>1316</ele>
        <time>2024-07-02T09:56:06Z</time>
      </trkpt>
      <trkpt lat="44.88559" lon="5.2642">
        <ele>1316.2</ele>
        <time>2024-07-02T09:56:07Z</time>
      </trkpt>
      <trkpt lat="44.88559" lon="5.26421">
        <ele>1316.2</ele>
        <time>2024-07-02T09:56:08Z</time>
      </trkpt>
      <trkpt lat="44.88559" lon="5.26422">
        <ele>1316.3</ele>
        <time>2024-07-02T09:56:09Z</time>
      </trkpt>
      <trkpt lat="44.88559" lon="5.26424">
        <ele>1316.3</ele>
        <time>2024-07-02T09:56:10Z</time>
      </trkpt>
      <trkpt lat="44.88559" lon="5.26425">
        <ele>1316.4</ele>
        <time>2024-07-02T09:56:11Z</time>
      </trkpt>
      <trkpt lat="44.88559" lon="5.26427">
        <ele>1316.5</ele>
        <time>2024-07-02T09:56:12Z</time>
      </trkpt>
      <trkpt lat="44.8856" lon="5.26428">
        <ele>1316.5</ele>
        <time>2024-07-02T09:56:13Z</time>
      </trkpt>
      <trkpt lat="44.8856" lon="5.26429">
        <ele>1316.6</ele>
        <time>2024-07-02T09:56:14Z</time>
      </trkpt>
      <trkpt lat="44.8856" lon="5.26431">
        <ele>1316.7</ele>
        <time>2024-07-02T09:56:15Z</time>
      </trkpt>
      <trkpt lat="44.8856" lon="5.26432">
        <ele>1316.7</ele>
        <time>2024-07-02T09:56:16Z</time>
      </trkpt>
      <trkpt lat="44.8856" lon="5.26434">
        <ele>1316.8</ele>
        <time>2024-07-02T09:56:17Z</time>
      </trkpt>
      <trkpt lat="44.8856" lon="5.26436">
        <ele>1316.9</ele>
        <time>2024-07-02T09:56:18Z</time>
      </trkpt>
      <trkpt lat="44.8856" lon="5.26437">
        <ele>1316.9</ele>
        <time>2024-07-02T09:56:19Z</time>
      </trkpt>
      <trkpt lat="44.8856" lon="5.26438">
        <ele>1317</ele>
        <time>2024-07-02T09:56:20Z</time>
      </trkpt>
      <trkpt lat="44.8856" lon="5.26439">
        <ele>1317</ele>
        <time>2024-07-02T09:56:21Z</time>
      </trkpt>
      <trkpt lat="44.88559" lon="5.26441">
        <ele>1317.1</ele>
        <time>2024-07-02T09:56:22Z</time>
      </trkpt>
      <trkpt lat="44.8856" lon="5.26442">
        <ele>1317.2</ele>
        <time>2024-07-02T09:56:23Z</time>
      </trkpt>
      <trkpt lat="44.8856" lon="5.26443">
        <ele>1317.2</ele>
        <time>2024-07-02T09:56:24Z</time>
      </trkpt>
      <trkpt lat="44.8856" lon="5.26445">
        <ele>1317.3</ele>
        <time>2024-07-02T09:56:25Z</time>
      </trkpt>
      <trkpt lat="44.8856" lon="5.26446">
        <ele>1317.3</ele>
        <time>2024-07-02T09:56:26Z</time>
      </trkpt>
      <trkpt lat="44.88559" lon="5.26447">
        <ele>1317.4</ele>
        <time>2024-07-02T09:56:27Z</time>
      </trkpt>
      <trkpt lat="44.88559" lon="5.26448">
        <ele>1317.4</ele>
        <time>2024-07-02T09:56:28Z</time>
      </trkpt>
      <trkpt lat="44.88559" lon="5.26448">
        <ele>1317.4</ele>
        <time>2024-07-02T09:56:29Z</time>
      </trkpt>
      <trkpt lat="44.88559" lon="5.26448">
        <ele>1317.4</ele>
        <time>2024-07-02T09:56:30Z</time>
      </trkpt>
      <trkpt lat="44.88559" lon="5.26448">
        <ele>1317.5</ele>
        <time>2024-07-02T09:56:31Z</time>
      </trkpt>
      <trkpt lat="44.88559" lon="5.26448">
        <ele>1317.5</ele>
        <time>2024-07-02T09:56:32Z</time>
      </trkpt>
      <trkpt lat="44.88558" lon="5.26449">
        <ele>1317.5</ele>
        <time>2024-07-02T09:56:33Z</time>
      </trkpt>
      <trkpt lat="44.88558" lon="5.26449">
        <ele>1317.5</ele>
        <time>2024-07-02T09:56:34Z</time>
      </trkpt>
      <trkpt lat="44.88558" lon="5.2645">
        <ele>1317.6</ele>
        <time>2024-07-02T09:56:35Z</time>
      </trkpt>
      <trkpt lat="44.88557" lon="5.26451">
        <ele>1317.7</ele>
        <time>2024-07-02T09:56:36Z</time>
      </trkpt>
      <trkpt lat="44.88556" lon="5.26453">
        <ele>1317.7</ele>
        <time>2024-07-02T09:56:37Z</time>
      </trkpt>
      <trkpt lat="44.88556" lon="5.26455">
        <ele>1317.9</ele>
        <time>2024-07-02T09:56:38Z</time>
      </trkpt>
      <trkpt lat="44.88555" lon="5.26457">
        <ele>1317.9</ele>
        <time>2024-07-02T09:56:39Z</time>
      </trkpt>
      <trkpt lat="44.88555" lon="5.26458">
        <ele>1318</ele>
        <time>2024-07-02T09:56:40Z</time>
      </trkpt>
      <trkpt lat="44.88555" lon="5.2646">
        <ele>1318.1</ele>
        <time>2024-07-02T09:56:41Z</time>
      </trkpt>
      <trkpt lat="44.88555" lon="5.26462">
        <ele>1318.1</ele>
        <time>2024-07-02T09:56:42Z</time>
      </trkpt>
      <trkpt lat="44.88555" lon="5.26463">
        <ele>1318.2</ele>
        <time>2024-07-02T09:56:43Z</time>
      </trkpt>
      <trkpt lat="44.88555" lon="5.26463">
        <ele>1318.2</ele>
        <time>2024-07-02T09:56:44Z</time>
      </trkpt>
      <trkpt lat="44.88555" lon="5.26463">
        <ele>1318.2</ele>
        <time>2024-07-02T09:56:45Z</time>
      </trkpt>
      <trkpt lat="44.88555" lon="5.26464">
        <ele>1318.2</ele>
        <time>2024-07-02T09:56:46Z</time>
      </trkpt>
      <trkpt lat="44.88555" lon="5.26465">
        <ele>1318.3</ele>
        <time>2024-07-02T09:56:47Z</time>
      </trkpt>
      <trkpt lat="44.88556" lon="5.26466">
        <ele>1318.3</ele>
        <time>2024-07-02T09:56:48Z</time>
      </trkpt>
      <trkpt lat="44.88556" lon="5.26467">
        <ele>1318.4</ele>
        <time>2024-07-02T09:56:49Z</time>
      </trkpt>
      <trkpt lat="44.88557" lon="5.26468">
        <ele>1318.4</ele>
        <time>2024-07-02T09:56:50Z</time>
      </trkpt>
      <trkpt lat="44.88557" lon="5.26469">
        <ele>1318.5</ele>
        <time>2024-07-02T09:56:51Z</time>
      </trkpt>
      <trkpt lat="44.88558" lon="5.2647">
        <ele>1318.5</ele>
        <time>2024-07-02T09:56:52Z</time>
      </trkpt>
      <trkpt lat="44.88559" lon="5.26471">
        <ele>1318.6</ele>
        <time>2024-07-02T09:56:53Z</time>
      </trkpt>
      <trkpt lat="44.88559" lon="5.26472">
        <ele>1318.6</ele>
        <time>2024-07-02T09:56:54Z</time>
      </trkpt>
      <trkpt lat="44.88559" lon="5.26474">
        <ele>1318.7</ele>
        <time>2024-07-02T09:56:55Z</time>
      </trkpt>
      <trkpt lat="44.8856" lon="5.26475">
        <ele>1318.7</ele>
        <time>2024-07-02T09:56:56Z</time>
      </trkpt>
      <trkpt lat="44.8856" lon="5.26477">
        <ele>1318.8</ele>
        <time>2024-07-02T09:56:57Z</time>
      </trkpt>
      <trkpt lat="44.8856" lon="5.26478">
        <ele>1318.8</ele>
        <time>2024-07-02T09:56:58Z</time>
      </trkpt>
      <trkpt lat="44.8856" lon="5.26479">
        <ele>1318.8</ele>
        <time>2024-07-02T09:56:59Z</time>
      </trkpt>
      <trkpt lat="44.88561" lon="5.26481">
        <ele>1318.9</ele>
        <time>2024-07-02T09:57:00Z</time>
      </trkpt>
      <trkpt lat="44.88561" lon="5.26482">
        <ele>1318.9</ele>
        <time>2024-07-02T09:57:01Z</time>
      </trkpt>
      <trkpt lat="44.88561" lon="5.26483">
        <ele>1318.9</ele>
        <time>2024-07-02T09:57:02Z</time>
      </trkpt>
      <trkpt lat="44.88561" lon="5.26484">
        <ele>1318.9</ele>
        <time>2024-07-02T09:57:03Z</time>
      </trkpt>
      <trkpt lat="44.88561" lon="5.26486">
        <ele>1318.9</ele>
        <time>2024-07-02T09:57:04Z</time>
      </trkpt>
      <trkpt lat="44.88562" lon="5.26487">
        <ele>1319</ele>
        <time>2024-07-02T09:57:05Z</time>
      </trkpt>
      <trkpt lat="44.88562" lon="5.26488">
        <ele>1319</ele>
        <time>2024-07-02T09:57:06Z</time>
      </trkpt>
      <trkpt lat="44.88563" lon="5.26489">
        <ele>1319</ele>
        <time>2024-07-02T09:57:07Z</time>
      </trkpt>
      <trkpt lat="44.88563" lon="5.2649">
        <ele>1319</ele>
        <time>2024-07-02T09:57:08Z</time>
      </trkpt>
      <trkpt lat="44.88564" lon="5.26491">
        <ele>1319</ele>
        <time>2024-07-02T09:57:09Z</time>
      </trkpt>
      <trkpt lat="44.88564" lon="5.26492">
        <ele>1318.9</ele>
        <time>2024-07-02T09:57:10Z</time>
      </trkpt>
      <trkpt lat="44.88564" lon="5.26493">
        <ele>1318.9</ele>
        <time>2024-07-02T09:57:11Z</time>
      </trkpt>
      <trkpt lat="44.88564" lon="5.26495">
        <ele>1318.9</ele>
        <time>2024-07-02T09:57:12Z</time>
      </trkpt>
      <trkpt lat="44.88565" lon="5.26496">
        <ele>1318.9</ele>
        <time>2024-07-02T09:57:13Z</time>
      </trkpt>
      <trkpt lat="44.88565" lon="5.26497">
        <ele>1318.9</ele>
        <time>2024-07-02T09:57:14Z</time>
      </trkpt>
      <trkpt lat="44.88565" lon="5.26498">
        <ele>1318.8</ele>
        <time>2024-07-02T09:57:15Z</time>
      </trkpt>
      <trkpt lat="44.88565" lon="5.265">
        <ele>1318.8</ele>
        <time>2024-07-02T09:57:16Z</time>
      </trkpt>
      <trkpt lat="44.88565" lon="5.26501">
        <ele>1318.7</ele>
        <time>2024-07-02T09:57:17Z</time>
      </trkpt>
      <trkpt lat="44.88565" lon="5.26503">
        <ele>1318.7</ele>
        <time>2024-07-02T09:57:18Z</time>
      </trkpt>
      <trkpt lat="44.88564" lon="5.26505">
        <ele>1318.6</ele>
        <time>2024-07-02T09:57:19Z</time>
      </trkpt>
      <trkpt lat="44.88564" lon="5.26506">
        <ele>1318.6</ele>
        <time>2024-07-02T09:57:20Z</time>
      </trkpt>
      <trkpt lat="44.88564" lon="5.26508">
        <ele>1318.5</ele>
        <time>2024-07-02T09:57:21Z</time>
      </trkpt>
      <trkpt lat="44.88564" lon="5.26509">
        <ele>1318.4</ele>
        <time>2024-07-02T09:57:22Z</time>
      </trkpt>
      <trkpt lat="44.88564" lon="5.26511">
        <ele>1318.4</ele>
        <time>2024-07-02T09:57:23Z</time>
      </trkpt>
      <trkpt lat="44.88564" lon="5.26512">
        <ele>1318.3</ele>
        <time>2024-07-02T09:57:24Z</time>
      </trkpt>
      <trkpt lat="44.88564" lon="5.26513">
        <ele>1318.2</ele>
        <time>2024-07-02T09:57:25Z</time>
      </trkpt>
      <trkpt lat="44.88564" lon="5.26516">
        <ele>1318.1</ele>
        <time>2024-07-02T09:57:26Z</time>
      </trkpt>
      <trkpt lat="44.88564" lon="5.26517">
        <ele>1318</ele>
        <time>2024-07-02T09:57:27Z</time>
      </trkpt>
      <trkpt lat="44.88564" lon="5.26519">
        <ele>1317.9</ele>
        <time>2024-07-02T09:57:28Z</time>
      </trkpt>
      <trkpt lat="44.88565" lon="5.26521">
        <ele>1317.8</ele>
        <time>2024-07-02T09:57:29Z</time>
      </trkpt>
      <trkpt lat="44.88565" lon="5.26522">
        <ele>1317.7</ele>
        <time>2024-07-02T09:57:30Z</time>
      </trkpt>
      <trkpt lat="44.88565" lon="5.26523">
        <ele>1317.7</ele>
        <time>2024-07-02T09:57:31Z</time>
      </trkpt>
      <trkpt lat="44.88566" lon="5.26526">
        <ele>1317.5</ele>
        <time>2024-07-02T09:57:32Z</time>
      </trkpt>
      <trkpt lat="44.88567" lon="5.26526">
        <ele>1317.5</ele>
        <time>2024-07-02T09:57:33Z</time>
      </trkpt>
      <trkpt lat="44.88568" lon="5.26527">
        <ele>1317.4</ele>
        <time>2024-07-02T09:57:34Z</time>
      </trkpt>
      <trkpt lat="44.8857" lon="5.26529">
        <ele>1317.2</ele>
        <time>2024-07-02T09:57:35Z</time>
      </trkpt>
      <trkpt lat="44.8857" lon="5.2653">
        <ele>1317.2</ele>
        <time>2024-07-02T09:57:36Z</time>
      </trkpt>
      <trkpt lat="44.88571" lon="5.26531">
        <ele>1317.1</ele>
        <time>2024-07-02T09:57:37Z</time>
      </trkpt>
      <trkpt lat="44.88571" lon="5.26533">
        <ele>1317</ele>
        <time>2024-07-02T09:57:38Z</time>
      </trkpt>
      <trkpt lat="44.88571" lon="5.26534">
        <ele>1316.9</ele>
        <time>2024-07-02T09:57:39Z</time>
      </trkpt>
      <trkpt lat="44.88571" lon="5.26535">
        <ele>1316.9</ele>
        <time>2024-07-02T09:57:40Z</time>
      </trkpt>
      <trkpt lat="44.88571" lon="5.26537">
        <ele>1316.8</ele>
        <time>2024-07-02T09:57:41Z</time>
      </trkpt>
      <trkpt lat="44.88571" lon="5.26538">
        <ele>1316.8</ele>
        <time>2024-07-02T09:57:42Z</time>
      </trkpt>
      <trkpt lat="44.88571" lon="5.2654">
        <ele>1316.7</ele>
        <time>2024-07-02T09:57:43Z</time>
      </trkpt>
      <trkpt lat="44.88571" lon="5.26541">
        <ele>1316.7</ele>
        <time>2024-07-02T09:57:44Z</time>
      </trkpt>
      <trkpt lat="44.88571" lon="5.26542">
        <ele>1316.6</ele>
        <time>2024-07-02T09:57:45Z</time>
      </trkpt>
      <trkpt lat="44.88572" lon="5.26543">
        <ele>1316.6</ele>
        <time>2024-07-02T09:57:46Z</time>
      </trkpt>
      <trkpt lat="44.88572" lon="5.26544">
        <ele>1316.6</ele>
        <time>2024-07-02T09:57:47Z</time>
      </trkpt>
      <trkpt lat="44.88572" lon="5.26545">
        <ele>1316.5</ele>
        <time>2024-07-02T09:57:48Z</time>
      </trkpt>
      <trkpt lat="44.88572" lon="5.26545">
        <ele>1316.5</ele>
        <time>2024-07-02T09:57:49Z</time>
      </trkpt>
      <trkpt lat="44.88572" lon="5.26545">
        <ele>1316.5</ele>
        <time>2024-07-02T09:57:50Z</time>
      </trkpt>
      <trkpt lat="44.88571" lon="5.26547">
        <ele>1316.4</ele>
        <time>2024-07-02T09:57:51Z</time>
      </trkpt>
      <trkpt lat="44.88571" lon="5.26548">
        <ele>1316.4</ele>
        <time>2024-07-02T09:57:52Z</time>
      </trkpt>
      <trkpt lat="44.8857" lon="5.26549">
        <ele>1316.4</ele>
        <time>2024-07-02T09:57:53Z</time>
      </trkpt>
      <trkpt lat="44.8857" lon="5.26549">
        <ele>1316.4</ele>
        <time>2024-07-02T09:57:54Z</time>
      </trkpt>
      <trkpt lat="44.88569" lon="5.2655">
        <ele>1316.3</ele>
        <time>2024-07-02T09:57:55Z</time>
      </trkpt>
      <trkpt lat="44.88569" lon="5.26551">
        <ele>1316.3</ele>
        <time>2024-07-02T09:57:56Z</time>
      </trkpt>
      <trkpt lat="44.88569" lon="5.26552">
        <ele>1316.3</ele>
        <time>2024-07-02T09:57:57Z</time>
      </trkpt>
      <trkpt lat="44.88569" lon="5.26554">
        <ele>1316.2</ele>
        <time>2024-07-02T09:57:58Z</time>
      </trkpt>
      <trkpt lat="44.88569" lon="5.26554">
        <ele>1316.2</ele>
        <time>2024-07-02T09:57:59Z</time>
      </trkpt>
      <trkpt lat="44.88569" lon="5.26555">
        <ele>1316.2</ele>
        <time>2024-07-02T09:58:00Z</time>
      </trkpt>
      <trkpt lat="44.88568" lon="5.26556">
        <ele>1316.2</ele>
        <time>2024-07-02T09:58:01Z</time>
      </trkpt>
      <trkpt lat="44.88568" lon="5.26557">
        <ele>1316.2</ele>
        <time>2024-07-02T09:58:02Z</time>
      </trkpt>
      <trkpt lat="44.88568" lon="5.26558">
        <ele>1316.2</ele>
        <time>2024-07-02T09:58:03Z</time>
      </trkpt>
      <trkpt lat="44.88568" lon="5.26559">
        <ele>1316.2</ele>
        <time>2024-07-02T09:58:04Z</time>
      </trkpt>
      <trkpt lat="44.88568" lon="5.2656">
        <ele>1316.1</ele>
        <time>2024-07-02T09:58:05Z</time>
      </trkpt>
      <trkpt lat="44.88568" lon="5.26561">
        <ele>1316.1</ele>
        <time>2024-07-02T09:58:06Z</time>
      </trkpt>
      <trkpt lat="44.88569" lon="5.26562">
        <ele>1316.1</ele>
        <time>2024-07-02T09:58:07Z</time>
      </trkpt>
      <trkpt lat="44.88569" lon="5.26563">
        <ele>1316.1</ele>
        <time>2024-07-02T09:58:08Z</time>
      </trkpt>
      <trkpt lat="44.8857" lon="5.26564">
        <ele>1316.1</ele>
        <time>2024-07-02T09:58:09Z</time>
      </trkpt>
      <trkpt lat="44.88571" lon="5.26565">
        <ele>1316.1</ele>
        <time>2024-07-02T09:58:10Z</time>
      </trkpt>
      <trkpt lat="44.88572" lon="5.26567">
        <ele>1316</ele>
        <time>2024-07-02T09:58:11Z</time>
      </trkpt>
      <trkpt lat="44.88573" lon="5.26568">
        <ele>1316</ele>
        <time>2024-07-02T09:58:12Z</time>
      </trkpt>
      <trkpt lat="44.88573" lon="5.2657">
        <ele>1316</ele>
        <time>2024-07-02T09:58:13Z</time>
      </trkpt>
      <trkpt lat="44.88573" lon="5.26571">
        <ele>1316</ele>
        <time>2024-07-02T09:58:14Z</time>
      </trkpt>
      <trkpt lat="44.88573" lon="5.26572">
        <ele>1316</ele>
        <time>2024-07-02T09:58:15Z</time>
      </trkpt>
      <trkpt lat="44.88574" lon="5.26573">
        <ele>1316</ele>
        <time>2024-07-02T09:58:16Z</time>
      </trkpt>
      <trkpt lat="44.88574" lon="5.26574">
        <ele>1315.9</ele>
        <time>2024-07-02T09:58:17Z</time>
      </trkpt>
      <trkpt lat="44.88574" lon="5.26576">
        <ele>1315.9</ele>
        <time>2024-07-02T09:58:18Z</time>
      </trkpt>
      <trkpt lat="44.88574" lon="5.26577">
        <ele>1315.9</ele>
        <time>2024-07-02T09:58:19Z</time>
      </trkpt>
      <trkpt lat="44.88573" lon="5.26578">
        <ele>1315.9</ele>
        <time>2024-07-02T09:58:20Z</time>
      </trkpt>
      <trkpt lat="44.88573" lon="5.26579">
        <ele>1315.8</ele>
        <time>2024-07-02T09:58:21Z</time>
      </trkpt>
      <trkpt lat="44.88573" lon="5.2658">
        <ele>1315.8</ele>
        <time>2024-07-02T09:58:22Z</time>
      </trkpt>
      <trkpt lat="44.88573" lon="5.26581">
        <ele>1315.8</ele>
        <time>2024-07-02T09:58:23Z</time>
      </trkpt>
      <trkpt lat="44.88573" lon="5.26582">
        <ele>1315.7</ele>
        <time>2024-07-02T09:58:24Z</time>
      </trkpt>
      <trkpt lat="44.88574" lon="5.26582">
        <ele>1315.7</ele>
        <time>2024-07-02T09:58:25Z</time>
      </trkpt>
      <trkpt lat="44.88574" lon="5.26583">
        <ele>1315.7</ele>
        <time>2024-07-02T09:58:26Z</time>
      </trkpt>
      <trkpt lat="44.88574" lon="5.26584">
        <ele>1315.6</ele>
        <time>2024-07-02T09:58:27Z</time>
      </trkpt>
      <trkpt lat="44.88574" lon="5.26585">
        <ele>1315.6</ele>
        <time>2024-07-02T09:58:28Z</time>
      </trkpt>
      <trkpt lat="44.88574" lon="5.26587">
        <ele>1315.5</ele>
        <time>2024-07-02T09:58:29Z</time>
      </trkpt>
      <trkpt lat="44.88574" lon="5.26587">
        <ele>1315.5</ele>
        <time>2024-07-02T09:58:30Z</time>
      </trkpt>
      <trkpt lat="44.88575" lon="5.26587">
        <ele>1315.4</ele>
        <time>2024-07-02T09:58:31Z</time>
      </trkpt>
      <trkpt lat="44.88575" lon="5.26588">
        <ele>1315.4</ele>
        <time>2024-07-02T09:58:32Z</time>
      </trkpt>
      <trkpt lat="44.88576" lon="5.26589">
        <ele>1315.3</ele>
        <time>2024-07-02T09:58:33Z</time>
      </trkpt>
      <trkpt lat="44.88577" lon="5.26589">
        <ele>1315.2</ele>
        <time>2024-07-02T09:58:34Z</time>
      </trkpt>
      <trkpt lat="44.88578" lon="5.2659">
        <ele>1315.1</ele>
        <time>2024-07-02T09:58:35Z</time>
      </trkpt>
      <trkpt lat="44.88579" lon="5.26591">
        <ele>1315.1</ele>
        <time>2024-07-02T09:58:36Z</time>
      </trkpt>
      <trkpt lat="44.88579" lon="5.26592">
        <ele>1315</ele>
        <time>2024-07-02T09:58:37Z</time>
      </trkpt>
      <trkpt lat="44.88579" lon="5.26592">
        <ele>1314.9</ele>
        <time>2024-07-02T09:58:38Z</time>
      </trkpt>
      <trkpt lat="44.8858" lon="5.26593">
        <ele>1314.8</ele>
        <time>2024-07-02T09:58:39Z</time>
      </trkpt>
      <trkpt lat="44.8858" lon="5.26594">
        <ele>1314.7</ele>
        <time>2024-07-02T09:58:40Z</time>
      </trkpt>
      <trkpt lat="44.88581" lon="5.26595">
        <ele>1314.6</ele>
        <time>2024-07-02T09:58:41Z</time>
      </trkpt>
      <trkpt lat="44.88582" lon="5.26595">
        <ele>1314.5</ele>
        <time>2024-07-02T09:58:42Z</time>
      </trkpt>
      <trkpt lat="44.88582" lon="5.26595">
        <ele>1314.5</ele>
        <time>2024-07-02T09:58:43Z</time>
      </trkpt>
      <trkpt lat="44.88583" lon="5.26595">
        <ele>1314.4</ele>
        <time>2024-07-02T09:58:44Z</time>
      </trkpt>
      <trkpt lat="44.88584" lon="5.26595">
        <ele>1314.3</ele>
        <time>2024-07-02T09:58:45Z</time>
      </trkpt>
      <trkpt lat="44.88585" lon="5.26595">
        <ele>1314.1</ele>
        <time>2024-07-02T09:58:46Z</time>
      </trkpt>
      <trkpt lat="44.88585" lon="5.26596">
        <ele>1314</ele>
        <time>2024-07-02T09:58:47Z</time>
      </trkpt>
      <trkpt lat="44.88586" lon="5.26597">
        <ele>1313.9</ele>
        <time>2024-07-02T09:58:48Z</time>
      </trkpt>
      <trkpt lat="44.88586" lon="5.26598">
        <ele>1313.8</ele>
        <time>2024-07-02T09:58:49Z</time>
      </trkpt>
      <trkpt lat="44.88585" lon="5.26598">
        <ele>1313.7</ele>
        <time>2024-07-02T09:58:50Z</time>
      </trkpt>
      <trkpt lat="44.88585" lon="5.26599">
        <ele>1313.7</ele>
        <time>2024-07-02T09:58:51Z</time>
      </trkpt>
      <trkpt lat="44.88585" lon="5.26599">
        <ele>1313.6</ele>
        <time>2024-07-02T09:58:52Z</time>
      </trkpt>
      <trkpt lat="44.88585" lon="5.26598">
        <ele>1313.5</ele>
        <time>2024-07-02T09:58:53Z</time>
      </trkpt>
      <trkpt lat="44.88585" lon="5.26599">
        <ele>1313.4</ele>
        <time>2024-07-02T09:58:54Z</time>
      </trkpt>
      <trkpt lat="44.88585" lon="5.26599">
        <ele>1313.4</ele>
        <time>2024-07-02T09:58:55Z</time>
      </trkpt>
      <trkpt lat="44.88585" lon="5.26599">
        <ele>1313.4</ele>
        <time>2024-07-02T09:58:56Z</time>
      </trkpt>
      <trkpt lat="44.88584" lon="5.266">
        <ele>1313.3</ele>
        <time>2024-07-02T09:58:57Z</time>
      </trkpt>
      <trkpt lat="44.88584" lon="5.26599">
        <ele>1313.2</ele>
        <time>2024-07-02T09:58:58Z</time>
      </trkpt>
      <trkpt lat="44.88584" lon="5.26599">
        <ele>1313.2</ele>
        <time>2024-07-02T09:58:59Z</time>
      </trkpt>
      <trkpt lat="44.88584" lon="5.26598">
        <ele>1313.1</ele>
        <time>2024-07-02T09:59:00Z</time>
      </trkpt>
      <trkpt lat="44.88584" lon="5.26598">
        <ele>1313</ele>
        <time>2024-07-02T09:59:01Z</time>
      </trkpt>
      <trkpt lat="44.88584" lon="5.26598">
        <ele>1313</ele>
        <time>2024-07-02T09:59:02Z</time>
      </trkpt>
      <trkpt lat="44.88584" lon="5.26598">
        <ele>1313</ele>
        <time>2024-07-02T09:59:03Z</time>
      </trkpt>
      <trkpt lat="44.88583" lon="5.26598">
        <ele>1312.9</ele>
        <time>2024-07-02T09:59:04Z</time>
      </trkpt>
      <trkpt lat="44.88583" lon="5.26598">
        <ele>1312.7</ele>
        <time>2024-07-02T09:59:05Z</time>
      </trkpt>
      <trkpt lat="44.88582" lon="5.26598">
        <ele>1312.6</ele>
        <time>2024-07-02T09:59:06Z</time>
      </trkpt>
      <trkpt lat="44.88581" lon="5.266">
        <ele>1312.3</ele>
        <time>2024-07-02T09:59:07Z</time>
      </trkpt>
      <trkpt lat="44.88581" lon="5.26602">
        <ele>1312.1</ele>
        <time>2024-07-02T09:59:08Z</time>
      </trkpt>
      <trkpt lat="44.88581" lon="5.26603">
        <ele>1311.9</ele>
        <time>2024-07-02T09:59:09Z</time>
      </trkpt>
      <trkpt lat="44.88582" lon="5.26604">
        <ele>1311.7</ele>
        <time>2024-07-02T09:59:10Z</time>
      </trkpt>
      <trkpt lat="44.88582" lon="5.26606">
        <ele>1311.5</ele>
        <time>2024-07-02T09:59:11Z</time>
      </trkpt>
      <trkpt lat="44.88583" lon="5.26607">
        <ele>1311.3</ele>
        <time>2024-07-02T09:59:12Z</time>
      </trkpt>
      <trkpt lat="44.88583" lon="5.26608">
        <ele>1311.1</ele>
        <time>2024-07-02T09:59:13Z</time>
      </trkpt>
      <trkpt lat="44.88584" lon="5.26609">
        <ele>1310.9</ele>
        <time>2024-07-02T09:59:14Z</time>
      </trkpt>
      <trkpt lat="44.88584" lon="5.26611">
        <ele>1310.7</ele>
        <time>2024-07-02T09:59:15Z</time>
      </trkpt>
      <trkpt lat="44.88584" lon="5.26612">
        <ele>1310.5</ele>
        <time>2024-07-02T09:59:16Z</time>
      </trkpt>
      <trkpt lat="44.88584" lon="5.26613">
        <ele>1310.5</ele>
        <time>2024-07-02T09:59:17Z</time>
      </trkpt>
      <trkpt lat="44.88584" lon="5.26613">
        <ele>1310.4</ele>
        <time>2024-07-02T09:59:18Z</time>
      </trkpt>
      <trkpt lat="44.88585" lon="5.26613">
        <ele>1310.4</ele>
        <time>2024-07-02T09:59:19Z</time>
      </trkpt>
      <trkpt lat="44.88585" lon="5.26614">
        <ele>1310.3</ele>
        <time>2024-07-02T09:59:20Z</time>
      </trkpt>
      <trkpt lat="44.88585" lon="5.26613">
        <ele>1310.2</ele>
        <time>2024-07-02T09:59:21Z</time>
      </trkpt>
      <trkpt lat="44.88585" lon="5.26613">
        <ele>1310.1</ele>
        <time>2024-07-02T09:59:22Z</time>
      </trkpt>
      <trkpt lat="44.88585" lon="5.26613">
        <ele>1310.1</ele>
        <time>2024-07-02T09:59:23Z</time>
      </trkpt>
      <trkpt lat="44.88585" lon="5.26613">
        <ele>1310.1</ele>
        <time>2024-07-02T09:59:24Z</time>
      </trkpt>
      <trkpt lat="44.88585" lon="5.26613">
        <ele>1310.1</ele>
        <time>2024-07-02T09:59:25Z</time>
      </trkpt>
      <trkpt lat="44.88586" lon="5.26614">
        <ele>1309.9</ele>
        <time>2024-07-02T09:59:26Z</time>
      </trkpt>
      <trkpt lat="44.88587" lon="5.26614">
        <ele>1309.7</ele>
        <time>2024-07-02T09:59:27Z</time>
      </trkpt>
      <trkpt lat="44.88589" lon="5.26616">
        <ele>1309.3</ele>
        <time>2024-07-02T09:59:28Z</time>
      </trkpt>
      <trkpt lat="44.8859" lon="5.26618">
        <ele>1309</ele>
        <time>2024-07-02T09:59:29Z</time>
      </trkpt>
      <trkpt lat="44.8859" lon="5.26619">
        <ele>1308.8</ele>
        <time>2024-07-02T09:59:30Z</time>
      </trkpt>
      <trkpt lat="44.8859" lon="5.26621">
        <ele>1308.6</ele>
        <time>2024-07-02T09:59:31Z</time>
      </trkpt>
      <trkpt lat="44.8859" lon="5.26622">
        <ele>1308.4</ele>
        <time>2024-07-02T09:59:32Z</time>
      </trkpt>
      <trkpt lat="44.8859" lon="5.26624">
        <ele>1308.2</ele>
        <time>2024-07-02T09:59:33Z</time>
      </trkpt>
      <trkpt lat="44.88591" lon="5.26625">
        <ele>1308.1</ele>
        <time>2024-07-02T09:59:34Z</time>
      </trkpt>
      <trkpt lat="44.88591" lon="5.26626">
        <ele>1308</ele>
        <time>2024-07-02T09:59:35Z</time>
      </trkpt>
      <trkpt lat="44.88591" lon="5.26626">
        <ele>1307.9</ele>
        <time>2024-07-02T09:59:36Z</time>
      </trkpt>
      <trkpt lat="44.88591" lon="5.26627">
        <ele>1307.8</ele>
        <time>2024-07-02T09:59:37Z</time>
      </trkpt>
      <trkpt lat="44.88592" lon="5.26628">
        <ele>1307.7</ele>
        <time>2024-07-02T09:59:38Z</time>
      </trkpt>
      <trkpt lat="44.88592" lon="5.26629">
        <ele>1307.6</ele>
        <time>2024-07-02T09:59:39Z</time>
      </trkpt>
      <trkpt lat="44.88592" lon="5.2663">
        <ele>1307.4</ele>
        <time>2024-07-02T09:59:40Z</time>
      </trkpt>
      <trkpt lat="44.88592" lon="5.26631">
        <ele>1307.3</ele>
        <time>2024-07-02T09:59:41Z</time>
      </trkpt>
      <trkpt lat="44.88593" lon="5.26632">
        <ele>1307.2</ele>
        <time>2024-07-02T09:59:42Z</time>
      </trkpt>
      <trkpt lat="44.88593" lon="5.26633">
        <ele>1307</ele>
        <time>2024-07-02T09:59:43Z</time>
      </trkpt>
      <trkpt lat="44.88594" lon="5.26634">
        <ele>1306.9</ele>
        <time>2024-07-02T09:59:44Z</time>
      </trkpt>
      <trkpt lat="44.88594" lon="5.26635">
        <ele>1306.8</ele>
        <time>2024-07-02T09:59:45Z</time>
      </trkpt>
      <trkpt lat="44.88594" lon="5.26636">
        <ele>1306.6</ele>
        <time>2024-07-02T09:59:46Z</time>
      </trkpt>
      <trkpt lat="44.88595" lon="5.26637">
        <ele>1306.5</ele>
        <time>2024-07-02T09:59:47Z</time>
      </trkpt>
      <trkpt lat="44.88595" lon="5.26638">
        <ele>1306.3</ele>
        <time>2024-07-02T09:59:48Z</time>
      </trkpt>
      <trkpt lat="44.88595" lon="5.26638">
        <ele>1306.3</ele>
        <time>2024-07-02T09:59:49Z</time>
      </trkpt>
      <trkpt lat="44.88595" lon="5.26638">
        <ele>1306.3</ele>
        <time>2024-07-02T09:59:50Z</time>
      </trkpt>
      <trkpt lat="44.88595" lon="5.26638">
        <ele>1306.2</ele>
        <time>2024-07-02T09:59:51Z</time>
      </trkpt>
      <trkpt lat="44.88594" lon="5.26637">
        <ele>1306.1</ele>
        <time>2024-07-02T09:59:52Z</time>
      </trkpt>
      <trkpt lat="44.88594" lon="5.26637">
        <ele>1306</ele>
        <time>2024-07-02T09:59:53Z</time>
      </trkpt>
      <trkpt lat="44.88594" lon="5.26637">
        <ele>1306</ele>
        <time>2024-07-02T09:59:54Z</time>
      </trkpt>
      <trkpt lat="44.88594" lon="5.26637">
        <ele>1306</ele>
        <time>2024-07-02T09:59:55Z</time>
      </trkpt>
      <trkpt lat="44.88594" lon="5.26637">
        <ele>1306</ele>
        <time>2024-07-02T09:59:56Z</time>
      </trkpt>
      <trkpt lat="44.88594" lon="5.26637">
        <ele>1306</ele>
        <time>2024-07-02T09:59:57Z</time>
      </trkpt>
      <trkpt lat="44.88594" lon="5.26636">
        <ele>1305.9</ele>
        <time>2024-07-02T09:59:58Z</time>
      </trkpt>
      <trkpt lat="44.88594" lon="5.26636">
        <ele>1305.9</ele>
        <time>2024-07-02T09:59:59Z</time>
      </trkpt>
      <trkpt lat="44.88594" lon="5.26636">
        <ele>1305.9</ele>
        <time>2024-07-02T10:00:00Z</time>
      </trkpt>
      <trkpt lat="44.88594" lon="5.26636">
        <ele>1305.9</ele>
        <time>2024-07-02T10:00:01Z</time>
      </trkpt>
      <trkpt lat="44.88595" lon="5.26637">
        <ele>1305.8</ele>
        <time>2024-07-02T10:00:02Z</time>
      </trkpt>
      <trkpt lat="44.88595" lon="5.26637">
        <ele>1305.8</ele>
        <time>2024-07-02T10:00:03Z</time>
      </trkpt>
      <trkpt lat="44.88595" lon="5.26638">
        <ele>1305.6</ele>
        <time>2024-07-02T10:00:04Z</time>
      </trkpt>
      <trkpt lat="44.88596" lon="5.26639">
        <ele>1305.5</ele>
        <time>2024-07-02T10:00:05Z</time>
      </trkpt>
      <trkpt lat="44.88596" lon="5.26639">
        <ele>1305.4</ele>
        <time>2024-07-02T10:00:06Z</time>
      </trkpt>
      <trkpt lat="44.88598" lon="5.26641">
        <ele>1305.1</ele>
        <time>2024-07-02T10:00:07Z</time>
      </trkpt>
      <trkpt lat="44.88599" lon="5.26642">
        <ele>1304.9</ele>
        <time>2024-07-02T10:00:08Z</time>
      </trkpt>
      <trkpt lat="44.886" lon="5.26643">
        <ele>1304.7</ele>
        <time>2024-07-02T10:00:09Z</time>
      </trkpt>
      <trkpt lat="44.88601" lon="5.26643">
        <ele>1304.6</ele>
        <time>2024-07-02T10:00:10Z</time>
      </trkpt>
      <trkpt lat="44.88602" lon="5.26644">
        <ele>1304.4</ele>
        <time>2024-07-02T10:00:11Z</time>
      </trkpt>
      <trkpt lat="44.88602" lon="5.26646">
        <ele>1304.2</ele>
        <time>2024-07-02T10:00:12Z</time>
      </trkpt>
      <trkpt lat="44.88603" lon="5.26647">
        <ele>1304</ele>
        <time>2024-07-02T10:00:13Z</time>
      </trkpt>
      <trkpt lat="44.88604" lon="5.26647">
        <ele>1303.8</ele>
        <time>2024-07-02T10:00:14Z</time>
      </trkpt>
      <trkpt lat="44.88605" lon="5.26648">
        <ele>1303.6</ele>
        <time>2024-07-02T10:00:15Z</time>
      </trkpt>
      <trkpt lat="44.88606" lon="5.26649">
        <ele>1303.4</ele>
        <time>2024-07-02T10:00:16Z</time>
      </trkpt>
      <trkpt lat="44.88607" lon="5.26649">
        <ele>1303.2</ele>
        <time>2024-07-02T10:00:17Z</time>
      </trkpt>
      <trkpt lat="44.88608" lon="5.2665">
        <ele>1303</ele>
        <time>2024-07-02T10:00:18Z</time>
      </trkpt>
      <trkpt lat="44.88609" lon="5.2665">
        <ele>1302.9</ele>
        <time>2024-07-02T10:00:19Z</time>
      </trkpt>
      <trkpt lat="44.8861" lon="5.2665">
        <ele>1302.7</ele>
        <time>2024-07-02T10:00:20Z</time>
      </trkpt>
      <trkpt lat="44.88611" lon="5.2665">
        <ele>1302.5</ele>
        <time>2024-07-02T10:00:21Z</time>
      </trkpt>
      <trkpt lat="44.88612" lon="5.2665">
        <ele>1302.3</ele>
        <time>2024-07-02T10:00:22Z</time>
      </trkpt>
      <trkpt lat="44.88613" lon="5.2665">
        <ele>1302.2</ele>
        <time>2024-07-02T10:00:23Z</time>
      </trkpt>
      <trkpt lat="44.88613" lon="5.2665">
        <ele>1302.1</ele>
        <time>2024-07-02T10:00:24Z</time>
      </trkpt>
      <trkpt lat="44.88614" lon="5.2665">
        <ele>1302</ele>
        <time>2024-07-02T10:00:25Z</time>
      </trkpt>
      <trkpt lat="44.88615" lon="5.2665">
        <ele>1301.9</ele>
        <time>2024-07-02T10:00:26Z</time>
      </trkpt>
      <trkpt lat="44.88615" lon="5.2665">
        <ele>1301.8</ele>
        <time>2024-07-02T10:00:27Z</time>
      </trkpt>
      <trkpt lat="44.88616" lon="5.26651">
        <ele>1301.7</ele>
        <time>2024-07-02T10:00:28Z</time>
      </trkpt>
      <trkpt lat="44.88617" lon="5.26651">
        <ele>1301.5</ele>
        <time>2024-07-02T10:00:29Z</time>
      </trkpt>
      <trkpt lat="44.88617" lon="5.26651">
        <ele>1301.4</ele>
        <time>2024-07-02T10:00:30Z</time>
      </trkpt>
      <trkpt lat="44.88618" lon="5.26651">
        <ele>1301.2</ele>
        <time>2024-07-02T10:00:31Z</time>
      </trkpt>
      <trkpt lat="44.88619" lon="5.26652">
        <ele>1301.1</ele>
        <time>2024-07-02T10:00:32Z</time>
      </trkpt>
      <trkpt lat="44.8862" lon="5.26652">
        <ele>1301</ele>
        <time>2024-07-02T10:00:33Z</time>
      </trkpt>
      <trkpt lat="44.8862" lon="5.26652">
        <ele>1300.9</ele>
        <time>2024-07-02T10:00:34Z</time>
      </trkpt>
      <trkpt lat="44.88621" lon="5.26653">
        <ele>1300.8</ele>
        <time>2024-07-02T10:00:35Z</time>
      </trkpt>
      <trkpt lat="44.88621" lon="5.26653">
        <ele>1300.7</ele>
        <time>2024-07-02T10:00:36Z</time>
      </trkpt>
      <trkpt lat="44.88622" lon="5.26653">
        <ele>1300.6</ele>
        <time>2024-07-02T10:00:37Z</time>
      </trkpt>
      <trkpt lat="44.88623" lon="5.26653">
        <ele>1300.4</ele>
        <time>2024-07-02T10:00:38Z</time>
      </trkpt>
      <trkpt lat="44.88624" lon="5.26653">
        <ele>1300.2</ele>
        <time>2024-07-02T10:00:39Z</time>
      </trkpt>
      <trkpt lat="44.88625" lon="5.26653">
        <ele>1300</ele>
        <time>2024-07-02T10:00:40Z</time>
      </trkpt>
      <trkpt lat="44.88627" lon="5.26654">
        <ele>1299.9</ele>
        <time>2024-07-02T10:00:41Z</time>
      </trkpt>
      <trkpt lat="44.88627" lon="5.26654">
        <ele>1299.7</ele>
        <time>2024-07-02T10:00:42Z</time>
      </trkpt>
      <trkpt lat="44.88628" lon="5.26654">
        <ele>1299.6</ele>
        <time>2024-07-02T10:00:43Z</time>
      </trkpt>
      <trkpt lat="44.88629" lon="5.26655">
        <ele>1299.4</ele>
        <time>2024-07-02T10:00:44Z</time>
      </trkpt>
      <trkpt lat="44.88629" lon="5.26656">
        <ele>1299.3</ele>
        <time>2024-07-02T10:00:45Z</time>
      </trkpt>
      <trkpt lat="44.8863" lon="5.26657">
        <ele>1299.2</ele>
        <time>2024-07-02T10:00:46Z</time>
      </trkpt>
      <trkpt lat="44.8863" lon="5.26658">
        <ele>1299.1</ele>
        <time>2024-07-02T10:00:47Z</time>
      </trkpt>
      <trkpt lat="44.8863" lon="5.26658">
        <ele>1299</ele>
        <time>2024-07-02T10:00:48Z</time>
      </trkpt>
      <trkpt lat="44.88631" lon="5.2666">
        <ele>1298.9</ele>
        <time>2024-07-02T10:00:49Z</time>
      </trkpt>
      <trkpt lat="44.88631" lon="5.26661">
        <ele>1298.8</ele>
        <time>2024-07-02T10:00:50Z</time>
      </trkpt>
      <trkpt lat="44.88631" lon="5.26662">
        <ele>1298.7</ele>
        <time>2024-07-02T10:00:51Z</time>
      </trkpt>
      <trkpt lat="44.88631" lon="5.26663">
        <ele>1298.6</ele>
        <time>2024-07-02T10:00:52Z</time>
      </trkpt>
      <trkpt lat="44.88631" lon="5.26663">
        <ele>1298.5</ele>
        <time>2024-07-02T10:00:53Z</time>
      </trkpt>
      <trkpt lat="44.88631" lon="5.26664">
        <ele>1298.4</ele>
        <time>2024-07-02T10:00:54Z</time>
      </trkpt>
      <trkpt lat="44.88632" lon="5.26665">
        <ele>1298.3</ele>
        <time>2024-07-02T10:00:55Z</time>
      </trkpt>
      <trkpt lat="44.88632" lon="5.26666">
        <ele>1298.2</ele>
        <time>2024-07-02T10:00:56Z</time>
      </trkpt>
      <trkpt lat="44.88632" lon="5.26667">
        <ele>1298.1</ele>
        <time>2024-07-02T10:00:57Z</time>
      </trkpt>
      <trkpt lat="44.88633" lon="5.26669">
        <ele>1297.9</ele>
        <time>2024-07-02T10:00:58Z</time>
      </trkpt>
      <trkpt lat="44.88633" lon="5.2667">
        <ele>1297.8</ele>
        <time>2024-07-02T10:00:59Z</time>
      </trkpt>
      <trkpt lat="44.88633" lon="5.2667">
        <ele>1297.7</ele>
        <time>2024-07-02T10:01:00Z</time>
      </trkpt>
      <trkpt lat="44.88633" lon="5.26672">
        <ele>1297.6</ele>
        <time>2024-07-02T10:01:01Z</time>
      </trkpt>
      <trkpt lat="44.88634" lon="5.26673">
        <ele>1297.5</ele>
        <time>2024-07-02T10:01:02Z</time>
      </trkpt>
      <trkpt lat="44.88634" lon="5.26674">
        <ele>1297.4</ele>
        <time>2024-07-02T10:01:03Z</time>
      </trkpt>
      <trkpt lat="44.88634" lon="5.26675">
        <ele>1297.3</ele>
        <time>2024-07-02T10:01:04Z</time>
      </trkpt>
      <trkpt lat="44.88634" lon="5.26676">
        <ele>1297.2</ele>
        <time>2024-07-02T10:01:05Z</time>
      </trkpt>
      <trkpt lat="44.88635" lon="5.26676">
        <ele>1297.1</ele>
        <time>2024-07-02T10:01:06Z</time>
      </trkpt>
      <trkpt lat="44.88635" lon="5.26678">
        <ele>1296.9</ele>
        <time>2024-07-02T10:01:07Z</time>
      </trkpt>
      <trkpt lat="44.88636" lon="5.26678">
        <ele>1296.8</ele>
        <time>2024-07-02T10:01:08Z</time>
      </trkpt>
      <trkpt lat="44.88637" lon="5.26679">
        <ele>1296.7</ele>
        <time>2024-07-02T10:01:09Z</time>
      </trkpt>
      <trkpt lat="44.88637" lon="5.26679">
        <ele>1296.6</ele>
        <time>2024-07-02T10:01:10Z</time>
      </trkpt>
      <trkpt lat="44.88638" lon="5.2668">
        <ele>1296.5</ele>
        <time>2024-07-02T10:01:11Z</time>
      </trkpt>
      <trkpt lat="44.88638" lon="5.26681">
        <ele>1296.4</ele>
        <time>2024-07-02T10:01:12Z</time>
      </trkpt>
      <trkpt lat="44.88639" lon="5.26681">
        <ele>1296.3</ele>
        <time>2024-07-02T10:01:13Z</time>
      </trkpt>
      <trkpt lat="44.88639" lon="5.26682">
        <ele>1296.1</ele>
        <time>2024-07-02T10:01:14Z</time>
      </trkpt>
      <trkpt lat="44.88639" lon="5.26683">
        <ele>1296.1</ele>
        <time>2024-07-02T10:01:15Z</time>
      </trkpt>
      <trkpt lat="44.8864" lon="5.26684">
        <ele>1296</ele>
        <time>2024-07-02T10:01:16Z</time>
      </trkpt>
      <trkpt lat="44.8864" lon="5.26685">
        <ele>1295.8</ele>
        <time>2024-07-02T10:01:17Z</time>
      </trkpt>
      <trkpt lat="44.8864" lon="5.26686">
        <ele>1295.7</ele>
        <time>2024-07-02T10:01:18Z</time>
      </trkpt>
      <trkpt lat="44.8864" lon="5.26687">
        <ele>1295.6</ele>
        <time>2024-07-02T10:01:19Z</time>
      </trkpt>
      <trkpt lat="44.8864" lon="5.26687">
        <ele>1295.5</ele>
        <time>2024-07-02T10:01:20Z</time>
      </trkpt>
      <trkpt lat="44.88641" lon="5.26688">
        <ele>1295.4</ele>
        <time>2024-07-02T10:01:21Z</time>
      </trkpt>
      <trkpt lat="44.88641" lon="5.26689">
        <ele>1295.3</ele>
        <time>2024-07-02T10:01:22Z</time>
      </trkpt>
      <trkpt lat="44.88641" lon="5.2669">
        <ele>1295.2</ele>
        <time>2024-07-02T10:01:23Z</time>
      </trkpt>
      <trkpt lat="44.88642" lon="5.26691">
        <ele>1295</ele>
        <time>2024-07-02T10:01:24Z</time>
      </trkpt>
      <trkpt lat="44.88642" lon="5.26692">
        <ele>1294.9</ele>
        <time>2024-07-02T10:01:25Z</time>
      </trkpt>
      <trkpt lat="44.88642" lon="5.26693">
        <ele>1294.8</ele>
        <time>2024-07-02T10:01:26Z</time>
      </trkpt>
      <trkpt lat="44.88643" lon="5.26694">
        <ele>1294.6</ele>
        <time>2024-07-02T10:01:27Z</time>
      </trkpt>
      <trkpt lat="44.88643" lon="5.26695">
        <ele>1294.5</ele>
        <time>2024-07-02T10:01:28Z</time>
      </trkpt>
      <trkpt lat="44.88644" lon="5.26695">
        <ele>1294.4</ele>
        <time>2024-07-02T10:01:29Z</time>
      </trkpt>
      <trkpt lat="44.88644" lon="5.26696">
        <ele>1294.3</ele>
        <time>2024-07-02T10:01:30Z</time>
      </trkpt>
      <trkpt lat="44.88644" lon="5.26697">
        <ele>1294.2</ele>
        <time>2024-07-02T10:01:31Z</time>
      </trkpt>
      <trkpt lat="44.88645" lon="5.26698">
        <ele>1294</ele>
        <time>2024-07-02T10:01:32Z</time>
      </trkpt>
      <trkpt lat="44.88645" lon="5.26699">
        <ele>1293.9</ele>
        <time>2024-07-02T10:01:33Z</time>
      </trkpt>
      <trkpt lat="44.88645" lon="5.267">
        <ele>1293.7</ele>
        <time>2024-07-02T10:01:34Z</time>
      </trkpt>
      <trkpt lat="44.88646" lon="5.26701">
        <ele>1293.6</ele>
        <time>2024-07-02T10:01:35Z</time>
      </trkpt>
      <trkpt lat="44.88646" lon="5.26702">
        <ele>1293.5</ele>
        <time>2024-07-02T10:01:36Z</time>
      </trkpt>
      <trkpt lat="44.88647" lon="5.26704">
        <ele>1293.2</ele>
        <time>2024-07-02T10:01:37Z</time>
      </trkpt>
      <trkpt lat="44.88647" lon="5.26705">
        <ele>1293.1</ele>
        <time>2024-07-02T10:01:38Z</time>
      </trkpt>
      <trkpt lat="44.88648" lon="5.26705">
        <ele>1293</ele>
        <time>2024-07-02T10:01:39Z</time>
      </trkpt>
      <trkpt lat="44.88648" lon="5.26706">
        <ele>1292.8</ele>
        <time>2024-07-02T10:01:40Z</time>
      </trkpt>
      <trkpt lat="44.88648" lon="5.26708">
        <ele>1292.7</ele>
        <time>2024-07-02T10:01:41Z</time>
      </trkpt>
      <trkpt lat="44.88648" lon="5.26709">
        <ele>1292.5</ele>
        <time>2024-07-02T10:01:42Z</time>
      </trkpt>
      <trkpt lat="44.88648" lon="5.2671">
        <ele>1292.4</ele>
        <time>2024-07-02T10:01:43Z</time>
      </trkpt>
      <trkpt lat="44.88649" lon="5.26711">
        <ele>1292.3</ele>
        <time>2024-07-02T10:01:44Z</time>
      </trkpt>
      <trkpt lat="44.88649" lon="5.26712">
        <ele>1292.1</ele>
        <time>2024-07-02T10:01:45Z</time>
      </trkpt>
      <trkpt lat="44.88649" lon="5.26714">
        <ele>1291.9</ele>
        <time>2024-07-02T10:01:46Z</time>
      </trkpt>
      <trkpt lat="44.8865" lon="5.26715">
        <ele>1291.7</ele>
        <time>2024-07-02T10:01:47Z</time>
      </trkpt>
      <trkpt lat="44.8865" lon="5.26717">
        <ele>1291.6</ele>
        <time>2024-07-02T10:01:48Z</time>
      </trkpt>
      <trkpt lat="44.88651" lon="5.26718">
        <ele>1291.4</ele>
        <time>2024-07-02T10:01:49Z</time>
      </trkpt>
      <trkpt lat="44.88651" lon="5.2672">
        <ele>1291.2</ele>
        <time>2024-07-02T10:01:50Z</time>
      </trkpt>
      <trkpt lat="44.88652" lon="5.26722">
        <ele>1290.8</ele>
        <time>2024-07-02T10:01:51Z</time>
      </trkpt>
      <trkpt lat="44.88653" lon="5.26723">
        <ele>1290.7</ele>
        <time>2024-07-02T10:01:52Z</time>
      </trkpt>
      <trkpt lat="44.88653" lon="5.26724">
        <ele>1290.6</ele>
        <time>2024-07-02T10:01:53Z</time>
      </trkpt>
      <trkpt lat="44.88654" lon="5.26726">
        <ele>1290.4</ele>
        <time>2024-07-02T10:01:54Z</time>
      </trkpt>
      <trkpt lat="44.88654" lon="5.26727">
        <ele>1290.3</ele>
        <time>2024-07-02T10:01:55Z</time>
      </trkpt>
      <trkpt lat="44.88654" lon="5.26729">
        <ele>1290.1</ele>
        <time>2024-07-02T10:01:56Z</time>
      </trkpt>
      <trkpt lat="44.88654" lon="5.2673">
        <ele>1290</ele>
        <time>2024-07-02T10:01:57Z</time>
      </trkpt>
      <trkpt lat="44.88654" lon="5.26731">
        <ele>1289.8</ele>
        <time>2024-07-02T10:01:58Z</time>
      </trkpt>
      <trkpt lat="44.88655" lon="5.26733">
        <ele>1289.7</ele>
        <time>2024-07-02T10:01:59Z</time>
      </trkpt>
      <trkpt lat="44.88655" lon="5.26734">
        <ele>1289.5</ele>
        <time>2024-07-02T10:02:00Z</time>
      </trkpt>
      <trkpt lat="44.88656" lon="5.26735">
        <ele>1289.4</ele>
        <time>2024-07-02T10:02:01Z</time>
      </trkpt>
      <trkpt lat="44.88657" lon="5.26736">
        <ele>1289.3</ele>
        <time>2024-07-02T10:02:02Z</time>
      </trkpt>
      <trkpt lat="44.88659" lon="5.26738">
        <ele>1289</ele>
        <time>2024-07-02T10:02:03Z</time>
      </trkpt>
      <trkpt lat="44.88659" lon="5.26739">
        <ele>1288.9</ele>
        <time>2024-07-02T10:02:04Z</time>
      </trkpt>
      <trkpt lat="44.8866" lon="5.26739">
        <ele>1288.8</ele>
        <time>2024-07-02T10:02:05Z</time>
      </trkpt>
      <trkpt lat="44.88661" lon="5.26742">
        <ele>1288.6</ele>
        <time>2024-07-02T10:02:06Z</time>
      </trkpt>
      <trkpt lat="44.88661" lon="5.26743">
        <ele>1288.5</ele>
        <time>2024-07-02T10:02:07Z</time>
      </trkpt>
      <trkpt lat="44.88662" lon="5.26744">
        <ele>1288.4</ele>
        <time>2024-07-02T10:02:08Z</time>
      </trkpt>
      <trkpt lat="44.88662" lon="5.26745">
        <ele>1288.3</ele>
        <time>2024-07-02T10:02:09Z</time>
      </trkpt>
      <trkpt lat="44.88663" lon="5.26746">
        <ele>1288.2</ele>
        <time>2024-07-02T10:02:10Z</time>
      </trkpt>
      <trkpt lat="44.88664" lon="5.26747">
        <ele>1288</ele>
        <time>2024-07-02T10:02:11Z</time>
      </trkpt>
      <trkpt lat="44.88664" lon="5.26749">
        <ele>1287.9</ele>
        <time>2024-07-02T10:02:12Z</time>
      </trkpt>
      <trkpt lat="44.88665" lon="5.2675">
        <ele>1287.8</ele>
        <time>2024-07-02T10:02:13Z</time>
      </trkpt>
      <trkpt lat="44.88666" lon="5.26751">
        <ele>1287.7</ele>
        <time>2024-07-02T10:02:14Z</time>
      </trkpt>
      <trkpt lat="44.88667" lon="5.26753">
        <ele>1287.5</ele>
        <time>2024-07-02T10:02:15Z</time>
      </trkpt>
      <trkpt lat="44.88667" lon="5.26754">
        <ele>1287.4</ele>
        <time>2024-07-02T10:02:16Z</time>
      </trkpt>
      <trkpt lat="44.88667" lon="5.26756">
        <ele>1287.3</ele>
        <time>2024-07-02T10:02:17Z</time>
      </trkpt>
      <trkpt lat="44.88667" lon="5.26757">
        <ele>1287.2</ele>
        <time>2024-07-02T10:02:18Z</time>
      </trkpt>
      <trkpt lat="44.88668" lon="5.26758">
        <ele>1287.1</ele>
        <time>2024-07-02T10:02:19Z</time>
      </trkpt>
      <trkpt lat="44.88669" lon="5.2676">
        <ele>1287</ele>
        <time>2024-07-02T10:02:20Z</time>
      </trkpt>
      <trkpt lat="44.88669" lon="5.26761">
        <ele>1286.9</ele>
        <time>2024-07-02T10:02:21Z</time>
      </trkpt>
      <trkpt lat="44.8867" lon="5.26762">
        <ele>1286.8</ele>
        <time>2024-07-02T10:02:22Z</time>
      </trkpt>
      <trkpt lat="44.8867" lon="5.26763">
        <ele>1286.6</ele>
        <time>2024-07-02T10:02:23Z</time>
      </trkpt>
      <trkpt lat="44.88671" lon="5.26764">
        <ele>1286.5</ele>
        <time>2024-07-02T10:02:24Z</time>
      </trkpt>
      <trkpt lat="44.88672" lon="5.26765">
        <ele>1286.4</ele>
        <time>2024-07-02T10:02:25Z</time>
      </trkpt>
      <trkpt lat="44.88673" lon="5.26766">
        <ele>1286.3</ele>
        <time>2024-07-02T10:02:26Z</time>
      </trkpt>
      <trkpt lat="44.88674" lon="5.26767">
        <ele>1286.2</ele>
        <time>2024-07-02T10:02:27Z</time>
      </trkpt>
      <trkpt lat="44.88675" lon="5.26768">
        <ele>1286</ele>
        <time>2024-07-02T10:02:28Z</time>
      </trkpt>
      <trkpt lat="44.88675" lon="5.2677">
        <ele>1285.9</ele>
        <time>2024-07-02T10:02:29Z</time>
      </trkpt>
      <trkpt lat="44.88676" lon="5.26771">
        <ele>1285.7</ele>
        <time>2024-07-02T10:02:30Z</time>
      </trkpt>
      <trkpt lat="44.88677" lon="5.26772">
        <ele>1285.6</ele>
        <time>2024-07-02T10:02:31Z</time>
      </trkpt>
      <trkpt lat="44.88678" lon="5.26773">
        <ele>1285.5</ele>
        <time>2024-07-02T10:02:32Z</time>
      </trkpt>
      <trkpt lat="44.88679" lon="5.26774">
        <ele>1285.3</ele>
        <time>2024-07-02T10:02:33Z</time>
      </trkpt>
      <trkpt lat="44.8868" lon="5.26775">
        <ele>1285.2</ele>
        <time>2024-07-02T10:02:34Z</time>
      </trkpt>
      <trkpt lat="44.8868" lon="5.26776">
        <ele>1285.1</ele>
        <time>2024-07-02T10:02:35Z</time>
      </trkpt>
      <trkpt lat="44.88682" lon="5.26779">
        <ele>1284.9</ele>
        <time>2024-07-02T10:02:36Z</time>
      </trkpt>
      <trkpt lat="44.88682" lon="5.2678">
        <ele>1284.8</ele>
        <time>2024-07-02T10:02:37Z</time>
      </trkpt>
      <trkpt lat="44.88682" lon="5.2678">
        <ele>1284.7</ele>
        <time>2024-07-02T10:02:38Z</time>
      </trkpt>
      <trkpt lat="44.88683" lon="5.26781">
        <ele>1284.6</ele>
        <time>2024-07-02T10:02:39Z</time>
      </trkpt>
      <trkpt lat="44.88684" lon="5.26783">
        <ele>1284.4</ele>
        <time>2024-07-02T10:02:40Z</time>
      </trkpt>
      <trkpt lat="44.88685" lon="5.26784">
        <ele>1284.3</ele>
        <time>2024-07-02T10:02:41Z</time>
      </trkpt>
      <trkpt lat="44.88685" lon="5.26785">
        <ele>1284.2</ele>
        <time>2024-07-02T10:02:42Z</time>
      </trkpt>
      <trkpt lat="44.88686" lon="5.26786">
        <ele>1284.1</ele>
        <time>2024-07-02T10:02:43Z</time>
      </trkpt>
      <trkpt lat="44.88686" lon="5.26787">
        <ele>1284</ele>
        <time>2024-07-02T10:02:44Z</time>
      </trkpt>
      <trkpt lat="44.88686" lon="5.26789">
        <ele>1283.9</ele>
        <time>2024-07-02T10:02:45Z</time>
      </trkpt>
      <trkpt lat="44.88687" lon="5.2679">
        <ele>1283.8</ele>
        <time>2024-07-02T10:02:46Z</time>
      </trkpt>
      <trkpt lat="44.88687" lon="5.2679">
        <ele>1283.7</ele>
        <time>2024-07-02T10:02:47Z</time>
      </trkpt>
      <trkpt lat="44.88687" lon="5.26792">
        <ele>1283.6</ele>
        <time>2024-07-02T10:02:48Z</time>
      </trkpt>
      <trkpt lat="44.88687" lon="5.26793">
        <ele>1283.5</ele>
        <time>2024-07-02T10:02:49Z</time>
      </trkpt>
      <trkpt lat="44.88687" lon="5.26794">
        <ele>1283.4</ele>
        <time>2024-07-02T10:02:50Z</time>
      </trkpt>
      <trkpt lat="44.88688" lon="5.26795">
        <ele>1283.3</ele>
        <time>2024-07-02T10:02:51Z</time>
      </trkpt>
      <trkpt lat="44.88688" lon="5.26796">
        <ele>1283.2</ele>
        <time>2024-07-02T10:02:52Z</time>
      </trkpt>
      <trkpt lat="44.88689" lon="5.26797">
        <ele>1283</ele>
        <time>2024-07-02T10:02:53Z</time>
      </trkpt>
      <trkpt lat="44.88689" lon="5.26798">
        <ele>1283</ele>
        <time>2024-07-02T10:02:54Z</time>
      </trkpt>
      <trkpt lat="44.88689" lon="5.26799">
        <ele>1282.9</ele>
        <time>2024-07-02T10:02:55Z</time>
      </trkpt>
      <trkpt lat="44.8869" lon="5.26801">
        <ele>1282.7</ele>
        <time>2024-07-02T10:02:56Z</time>
      </trkpt>
      <trkpt lat="44.8869" lon="5.26802">
        <ele>1282.6</ele>
        <time>2024-07-02T10:02:57Z</time>
      </trkpt>
      <trkpt lat="44.8869" lon="5.26803">
        <ele>1282.5</ele>
        <time>2024-07-02T10:02:58Z</time>
      </trkpt>
      <trkpt lat="44.8869" lon="5.26804">
        <ele>1282.4</ele>
        <time>2024-07-02T10:02:59Z</time>
      </trkpt>
      <trkpt lat="44.8869" lon="5.26805">
        <ele>1282.3</ele>
        <time>2024-07-02T10:03:00Z</time>
      </trkpt>
      <trkpt lat="44.8869" lon="5.26806">
        <ele>1282.2</ele>
        <time>2024-07-02T10:03:01Z</time>
      </trkpt>
      <trkpt lat="44.8869" lon="5.26807">
        <ele>1282.1</ele>
        <time>2024-07-02T10:03:02Z</time>
      </trkpt>
      <trkpt lat="44.8869" lon="5.26808">
        <ele>1282</ele>
        <time>2024-07-02T10:03:03Z</time>
      </trkpt>
      <trkpt lat="44.8869" lon="5.2681">
        <ele>1281.8</ele>
        <time>2024-07-02T10:03:04Z</time>
      </trkpt>
      <trkpt lat="44.8869" lon="5.26811">
        <ele>1281.7</ele>
        <time>2024-07-02T10:03:05Z</time>
      </trkpt>
      <trkpt lat="44.8869" lon="5.26812">
        <ele>1281.6</ele>
        <time>2024-07-02T10:03:06Z</time>
      </trkpt>
      <trkpt lat="44.8869" lon="5.26812">
        <ele>1281.6</ele>
        <time>2024-07-02T10:03:07Z</time>
      </trkpt>
      <trkpt lat="44.8869" lon="5.26813">
        <ele>1281.5</ele>
        <time>2024-07-02T10:03:08Z</time>
      </trkpt>
      <trkpt lat="44.8869" lon="5.26815">
        <ele>1281.4</ele>
        <time>2024-07-02T10:03:09Z</time>
      </trkpt>
      <trkpt lat="44.8869" lon="5.26816">
        <ele>1281.3</ele>
        <time>2024-07-02T10:03:10Z</time>
      </trkpt>
      <trkpt lat="44.8869" lon="5.26817">
        <ele>1281.1</ele>
        <time>2024-07-02T10:03:11Z</time>
      </trkpt>
      <trkpt lat="44.88689" lon="5.26817">
        <ele>1281.1</ele>
        <time>2024-07-02T10:03:12Z</time>
      </trkpt>
      <trkpt lat="44.88688" lon="5.26817">
        <ele>1280.9</ele>
        <time>2024-07-02T10:03:13Z</time>
      </trkpt>
      <trkpt lat="44.88687" lon="5.26817">
        <ele>1280.8</ele>
        <time>2024-07-02T10:03:14Z</time>
      </trkpt>
      <trkpt lat="44.88687" lon="5.26816">
        <ele>1280.7</ele>
        <time>2024-07-02T10:03:15Z</time>
      </trkpt>
      <trkpt lat="44.88688" lon="5.26816">
        <ele>1280.7</ele>
        <time>2024-07-02T10:03:16Z</time>
      </trkpt>
      <trkpt lat="44.88688" lon="5.26815">
        <ele>1280.7</ele>
        <time>2024-07-02T10:03:17Z</time>
      </trkpt>
      <trkpt lat="44.88688" lon="5.26815">
        <ele>1280.6</ele>
        <time>2024-07-02T10:03:18Z</time>
      </trkpt>
      <trkpt lat="44.88688" lon="5.26815">
        <ele>1280.6</ele>
        <time>2024-07-02T10:03:19Z</time>
      </trkpt>
      <trkpt lat="44.88688" lon="5.26815">
        <ele>1280.6</ele>
        <time>2024-07-02T10:03:20Z</time>
      </trkpt>
      <trkpt lat="44.88688" lon="5.26815">
        <ele>1280.6</ele>
        <time>2024-07-02T10:03:21Z</time>
      </trkpt>
      <trkpt lat="44.88687" lon="5.26815">
        <ele>1280.6</ele>
        <time>2024-07-02T10:03:22Z</time>
      </trkpt>
      <trkpt lat="44.88687" lon="5.26815">
        <ele>1280.6</ele>
        <time>2024-07-02T10:03:23Z</time>
      </trkpt>
      <trkpt lat="44.88687" lon="5.26814">
        <ele>1280.5</ele>
        <time>2024-07-02T10:03:24Z</time>
      </trkpt>
      <trkpt lat="44.88687" lon="5.26814">
        <ele>1280.5</ele>
        <time>2024-07-02T10:03:25Z</time>
      </trkpt>
      <trkpt lat="44.88687" lon="5.26814">
        <ele>1280.5</ele>
        <time>2024-07-02T10:03:26Z</time>
      </trkpt>
      <trkpt lat="44.88687" lon="5.26814">
        <ele>1280.5</ele>
        <time>2024-07-02T10:03:27Z</time>
      </trkpt>
      <trkpt lat="44.88687" lon="5.26814">
        <ele>1280.5</ele>
        <time>2024-07-02T10:03:28Z</time>
      </trkpt>
      <trkpt lat="44.88687" lon="5.26814">
        <ele>1280.5</ele>
        <time>2024-07-02T10:03:29Z</time>
      </trkpt>
      <trkpt lat="44.88687" lon="5.26814">
        <ele>1280.5</ele>
        <time>2024-07-02T10:03:30Z</time>
      </trkpt>
      <trkpt lat="44.88687" lon="5.26814">
        <ele>1280.5</ele>
        <time>2024-07-02T10:03:31Z</time>
      </trkpt>
      <trkpt lat="44.88688" lon="5.26814">
        <ele>1280.4</ele>
        <time>2024-07-02T10:03:32Z</time>
      </trkpt>
      <trkpt lat="44.88688" lon="5.26815">
        <ele>1280.4</ele>
        <time>2024-07-02T10:03:33Z</time>
      </trkpt>
      <trkpt lat="44.88688" lon="5.26816">
        <ele>1280.3</ele>
        <time>2024-07-02T10:03:34Z</time>
      </trkpt>
      <trkpt lat="44.88688" lon="5.26817">
        <ele>1280.2</ele>
        <time>2024-07-02T10:03:35Z</time>
      </trkpt>
      <trkpt lat="44.88688" lon="5.26816">
        <ele>1280.1</ele>
        <time>2024-07-02T10:03:36Z</time>
      </trkpt>
      <trkpt lat="44.88688" lon="5.26817">
        <ele>1280</ele>
        <time>2024-07-02T10:03:37Z</time>
      </trkpt>
      <trkpt lat="44.88687" lon="5.26819">
        <ele>1279.8</ele>
        <time>2024-07-02T10:03:38Z</time>
      </trkpt>
      <trkpt lat="44.88686" lon="5.2682">
        <ele>1279.6</ele>
        <time>2024-07-02T10:03:39Z</time>
      </trkpt>
      <trkpt lat="44.88687" lon="5.26822">
        <ele>1279.4</ele>
        <time>2024-07-02T10:03:40Z</time>
      </trkpt>
      <trkpt lat="44.88687" lon="5.26823">
        <ele>1279.3</ele>
        <time>2024-07-02T10:03:41Z</time>
      </trkpt>
      <trkpt lat="44.88687" lon="5.26823">
        <ele>1279.3</ele>
        <time>2024-07-02T10:03:42Z</time>
      </trkpt>
      <trkpt lat="44.88688" lon="5.26825">
        <ele>1279.2</ele>
        <time>2024-07-02T10:03:43Z</time>
      </trkpt>
      <trkpt lat="44.88688" lon="5.26826">
        <ele>1279</ele>
        <time>2024-07-02T10:03:44Z</time>
      </trkpt>
      <trkpt lat="44.88689" lon="5.26827">
        <ele>1279</ele>
        <time>2024-07-02T10:03:45Z</time>
      </trkpt>
      <trkpt lat="44.88689" lon="5.26828">
        <ele>1278.9</ele>
        <time>2024-07-02T10:03:46Z</time>
      </trkpt>
      <trkpt lat="44.88689" lon="5.26829">
        <ele>1278.8</ele>
        <time>2024-07-02T10:03:47Z</time>
      </trkpt>
      <trkpt lat="44.88689" lon="5.26831">
        <ele>1278.8</ele>
        <time>2024-07-02T10:03:48Z</time>
      </trkpt>
      <trkpt lat="44.88689" lon="5.26832">
        <ele>1278.7</ele>
        <time>2024-07-02T10:03:49Z</time>
      </trkpt>
      <trkpt lat="44.88688" lon="5.26833">
        <ele>1278.6</ele>
        <time>2024-07-02T10:03:50Z</time>
      </trkpt>
      <trkpt lat="44.88688" lon="5.26834">
        <ele>1278.6</ele>
        <time>2024-07-02T10:03:51Z</time>
      </trkpt>
      <trkpt lat="44.88688" lon="5.26835">
        <ele>1278.5</ele>
        <time>2024-07-02T10:03:52Z</time>
      </trkpt>
      <trkpt lat="44.88688" lon="5.26837">
        <ele>1278.4</ele>
        <time>2024-07-02T10:03:53Z</time>
      </trkpt>
      <trkpt lat="44.88688" lon="5.26838">
        <ele>1278.3</ele>
        <time>2024-07-02T10:03:54Z</time>
      </trkpt>
      <trkpt lat="44.88687" lon="5.26838">
        <ele>1278.3</ele>
        <time>2024-07-02T10:03:55Z</time>
      </trkpt>
      <trkpt lat="44.88688" lon="5.2684">
        <ele>1278.2</ele>
        <time>2024-07-02T10:03:56Z</time>
      </trkpt>
      <trkpt lat="44.88687" lon="5.26841">
        <ele>1278.2</ele>
        <time>2024-07-02T10:03:57Z</time>
      </trkpt>
      <trkpt lat="44.88687" lon="5.26841">
        <ele>1278.1</ele>
        <time>2024-07-02T10:03:58Z</time>
      </trkpt>
      <trkpt lat="44.88687" lon="5.26843">
        <ele>1278.1</ele>
        <time>2024-07-02T10:03:59Z</time>
      </trkpt>
      <trkpt lat="44.88688" lon="5.26843">
        <ele>1278</ele>
        <time>2024-07-02T10:04:00Z</time>
      </trkpt>
      <trkpt lat="44.88688" lon="5.26845">
        <ele>1277.9</ele>
        <time>2024-07-02T10:04:01Z</time>
      </trkpt>
      <trkpt lat="44.88688" lon="5.26846">
        <ele>1277.8</ele>
        <time>2024-07-02T10:04:02Z</time>
      </trkpt>
      <trkpt lat="44.88688" lon="5.26847">
        <ele>1277.8</ele>
        <time>2024-07-02T10:04:03Z</time>
      </trkpt>
      <trkpt lat="44.88689" lon="5.26849">
        <ele>1277.7</ele>
        <time>2024-07-02T10:04:04Z</time>
      </trkpt>
      <trkpt lat="44.88689" lon="5.2685">
        <ele>1277.6</ele>
        <time>2024-07-02T10:04:05Z</time>
      </trkpt>
      <trkpt lat="44.88689" lon="5.26851">
        <ele>1277.6</ele>
        <time>2024-07-02T10:04:06Z</time>
      </trkpt>
      <trkpt lat="44.8869" lon="5.26852">
        <ele>1277.5</ele>
        <time>2024-07-02T10:04:07Z</time>
      </trkpt>
      <trkpt lat="44.8869" lon="5.26853">
        <ele>1277.4</ele>
        <time>2024-07-02T10:04:08Z</time>
      </trkpt>
      <trkpt lat="44.8869" lon="5.26854">
        <ele>1277.3</ele>
        <time>2024-07-02T10:04:09Z</time>
      </trkpt>
      <trkpt lat="44.88691" lon="5.26855">
        <ele>1277.3</ele>
        <time>2024-07-02T10:04:10Z</time>
      </trkpt>
      <trkpt lat="44.88691" lon="5.26857">
        <ele>1277.2</ele>
        <time>2024-07-02T10:04:11Z</time>
      </trkpt>
      <trkpt lat="44.88691" lon="5.26858">
        <ele>1277.1</ele>
        <time>2024-07-02T10:04:12Z</time>
      </trkpt>
      <trkpt lat="44.88691" lon="5.2686">
        <ele>1277</ele>
        <time>2024-07-02T10:04:13Z</time>
      </trkpt>
      <trkpt lat="44.88691" lon="5.26861">
        <ele>1276.9</ele>
        <time>2024-07-02T10:04:14Z</time>
      </trkpt>
      <trkpt lat="44.88691" lon="5.26863">
        <ele>1276.8</ele>
        <time>2024-07-02T10:04:15Z</time>
      </trkpt>
      <trkpt lat="44.88691" lon="5.26864">
        <ele>1276.7</ele>
        <time>2024-07-02T10:04:16Z</time>
      </trkpt>
      <trkpt lat="44.88691" lon="5.26865">
        <ele>1276.6</ele>
        <time>2024-07-02T10:04:17Z</time>
      </trkpt>
      <trkpt lat="44.88691" lon="5.26867">
        <ele>1276.5</ele>
        <time>2024-07-02T10:04:18Z</time>
      </trkpt>
      <trkpt lat="44.88691" lon="5.26868">
        <ele>1276.4</ele>
        <time>2024-07-02T10:04:19Z</time>
      </trkpt>
      <trkpt lat="44.88691" lon="5.2687">
        <ele>1276.3</ele>
        <time>2024-07-02T10:04:20Z</time>
      </trkpt>
      <trkpt lat="44.88691" lon="5.26871">
        <ele>1276.2</ele>
        <time>2024-07-02T10:04:21Z</time>
      </trkpt>
      <trkpt lat="44.88692" lon="5.26872">
        <ele>1276.1</ele>
        <time>2024-07-02T10:04:22Z</time>
      </trkpt>
      <trkpt lat="44.88692" lon="5.26874">
        <ele>1276</ele>
        <time>2024-07-02T10:04:23Z</time>
      </trkpt>
      <trkpt lat="44.88692" lon="5.26875">
        <ele>1276</ele>
        <time>2024-07-02T10:04:24Z</time>
      </trkpt>
      <trkpt lat="44.88692" lon="5.26876">
        <ele>1275.8</ele>
        <time>2024-07-02T10:04:25Z</time>
      </trkpt>
      <trkpt lat="44.88692" lon="5.26878">
        <ele>1275.7</ele>
        <time>2024-07-02T10:04:26Z</time>
      </trkpt>
      <trkpt lat="44.88692" lon="5.2688">
        <ele>1275.6</ele>
        <time>2024-07-02T10:04:27Z</time>
      </trkpt>
      <trkpt lat="44.88692" lon="5.26881">
        <ele>1275.5</ele>
        <time>2024-07-02T10:04:28Z</time>
      </trkpt>
      <trkpt lat="44.88692" lon="5.26882">
        <ele>1275.4</ele>
        <time>2024-07-02T10:04:29Z</time>
      </trkpt>
      <trkpt lat="44.88692" lon="5.26884">
        <ele>1275.3</ele>
        <time>2024-07-02T10:04:30Z</time>
      </trkpt>
      <trkpt lat="44.88691" lon="5.26885">
        <ele>1275.3</ele>
        <time>2024-07-02T10:04:31Z</time>
      </trkpt>
      <trkpt lat="44.88692" lon="5.26886">
        <ele>1275.2</ele>
        <time>2024-07-02T10:04:32Z</time>
      </trkpt>
      <trkpt lat="44.88692" lon="5.26889">
        <ele>1274.9</ele>
        <time>2024-07-02T10:04:33Z</time>
      </trkpt>
      <trkpt lat="44.88692" lon="5.2689">
        <ele>1274.9</ele>
        <time>2024-07-02T10:04:34Z</time>
      </trkpt>
      <trkpt lat="44.88693" lon="5.26892">
        <ele>1274.8</ele>
        <time>2024-07-02T10:04:35Z</time>
      </trkpt>
      <trkpt lat="44.88693" lon="5.26893">
        <ele>1274.6</ele>
        <time>2024-07-02T10:04:36Z</time>
      </trkpt>
      <trkpt lat="44.88694" lon="5.26895">
        <ele>1274.5</ele>
        <time>2024-07-02T10:04:37Z</time>
      </trkpt>
      <trkpt lat="44.88695" lon="5.26897">
        <ele>1274.3</ele>
        <time>2024-07-02T10:04:38Z</time>
      </trkpt>
      <trkpt lat="44.88696" lon="5.26899">
        <ele>1274.2</ele>
        <time>2024-07-02T10:04:39Z</time>
      </trkpt>
      <trkpt lat="44.88696" lon="5.269">
        <ele>1274</ele>
        <time>2024-07-02T10:04:40Z</time>
      </trkpt>
      <trkpt lat="44.88697" lon="5.26902">
        <ele>1273.9</ele>
        <time>2024-07-02T10:04:41Z</time>
      </trkpt>
      <trkpt lat="44.88698" lon="5.26904">
        <ele>1273.7</ele>
        <time>2024-07-02T10:04:42Z</time>
      </trkpt>
      <trkpt lat="44.88699" lon="5.26906">
        <ele>1273.5</ele>
        <time>2024-07-02T10:04:43Z</time>
      </trkpt>
      <trkpt lat="44.887" lon="5.26908">
        <ele>1273.4</ele>
        <time>2024-07-02T10:04:44Z</time>
      </trkpt>
      <trkpt lat="44.88701" lon="5.26909">
        <ele>1273.2</ele>
        <time>2024-07-02T10:04:45Z</time>
      </trkpt>
      <trkpt lat="44.88702" lon="5.26912">
        <ele>1273</ele>
        <time>2024-07-02T10:04:46Z</time>
      </trkpt>
      <trkpt lat="44.88702" lon="5.26913">
        <ele>1272.9</ele>
        <time>2024-07-02T10:04:47Z</time>
      </trkpt>
      <trkpt lat="44.88702" lon="5.26915">
        <ele>1272.8</ele>
        <time>2024-07-02T10:04:48Z</time>
      </trkpt>
      <trkpt lat="44.88703" lon="5.26916">
        <ele>1272.7</ele>
        <time>2024-07-02T10:04:49Z</time>
      </trkpt>
      <trkpt lat="44.88703" lon="5.26918">
        <ele>1272.5</ele>
        <time>2024-07-02T10:04:50Z</time>
      </trkpt>
      <trkpt lat="44.88703" lon="5.26919">
        <ele>1272.4</ele>
        <time>2024-07-02T10:04:51Z</time>
      </trkpt>
      <trkpt lat="44.88704" lon="5.2692">
        <ele>1272.3</ele>
        <time>2024-07-02T10:04:52Z</time>
      </trkpt>
      <trkpt lat="44.88704" lon="5.26922">
        <ele>1272.2</ele>
        <time>2024-07-02T10:04:53Z</time>
      </trkpt>
      <trkpt lat="44.88705" lon="5.26923">
        <ele>1272.1</ele>
        <time>2024-07-02T10:04:54Z</time>
      </trkpt>
      <trkpt lat="44.88705" lon="5.26924">
        <ele>1272</ele>
        <time>2024-07-02T10:04:55Z</time>
      </trkpt>
      <trkpt lat="44.88706" lon="5.26926">
        <ele>1271.9</ele>
        <time>2024-07-02T10:04:56Z</time>
      </trkpt>
      <trkpt lat="44.88706" lon="5.26927">
        <ele>1271.7</ele>
        <time>2024-07-02T10:04:57Z</time>
      </trkpt>
      <trkpt lat="44.88707" lon="5.2693">
        <ele>1271.5</ele>
        <time>2024-07-02T10:04:58Z</time>
      </trkpt>
      <trkpt lat="44.88708" lon="5.26931">
        <ele>1271.4</ele>
        <time>2024-07-02T10:04:59Z</time>
      </trkpt>
      <trkpt lat="44.88709" lon="5.26932">
        <ele>1271.4</ele>
        <time>2024-07-02T10:05:00Z</time>
      </trkpt>
      <trkpt lat="44.8871" lon="5.26934">
        <ele>1271.2</ele>
        <time>2024-07-02T10:05:01Z</time>
      </trkpt>
      <trkpt lat="44.88711" lon="5.26935">
        <ele>1271.1</ele>
        <time>2024-07-02T10:05:02Z</time>
      </trkpt>
      <trkpt lat="44.88711" lon="5.26937">
        <ele>1271</ele>
        <time>2024-07-02T10:05:03Z</time>
      </trkpt>
      <trkpt lat="44.88712" lon="5.26938">
        <ele>1270.9</ele>
        <time>2024-07-02T10:05:04Z</time>
      </trkpt>
      <trkpt lat="44.88713" lon="5.26941">
        <ele>1270.7</ele>
        <time>2024-07-02T10:05:05Z</time>
      </trkpt>
      <trkpt lat="44.88714" lon="5.26942">
        <ele>1270.6</ele>
        <time>2024-07-02T10:05:06Z</time>
      </trkpt>
      <trkpt lat="44.88714" lon="5.26943">
        <ele>1270.6</ele>
        <time>2024-07-02T10:05:07Z</time>
      </trkpt>
      <trkpt lat="44.88715" lon="5.26946">
        <ele>1270.4</ele>
        <time>2024-07-02T10:05:08Z</time>
      </trkpt>
      <trkpt lat="44.88715" lon="5.26947">
        <ele>1270.3</ele>
        <time>2024-07-02T10:05:09Z</time>
      </trkpt>
      <trkpt lat="44.88715" lon="5.26948">
        <ele>1270.3</ele>
        <time>2024-07-02T10:05:10Z</time>
      </trkpt>
      <trkpt lat="44.88715" lon="5.26949">
        <ele>1270.2</ele>
        <time>2024-07-02T10:05:11Z</time>
      </trkpt>
      <trkpt lat="44.88716" lon="5.26951">
        <ele>1270.1</ele>
        <time>2024-07-02T10:05:12Z</time>
      </trkpt>
      <trkpt lat="44.88716" lon="5.26952">
        <ele>1270.1</ele>
        <time>2024-07-02T10:05:13Z</time>
      </trkpt>
      <trkpt lat="44.88717" lon="5.26953">
        <ele>1270</ele>
        <time>2024-07-02T10:05:14Z</time>
      </trkpt>
      <trkpt lat="44.88717" lon="5.26954">
        <ele>1269.9</ele>
        <time>2024-07-02T10:05:15Z</time>
      </trkpt>
      <trkpt lat="44.88718" lon="5.26955">
        <ele>1269.9</ele>
        <time>2024-07-02T10:05:16Z</time>
      </trkpt>
      <trkpt lat="44.88719" lon="5.26956">
        <ele>1269.8</ele>
        <time>2024-07-02T10:05:17Z</time>
      </trkpt>
      <trkpt lat="44.8872" lon="5.26957">
        <ele>1269.7</ele>
        <time>2024-07-02T10:05:18Z</time>
      </trkpt>
      <trkpt lat="44.88721" lon="5.26958">
        <ele>1269.7</ele>
        <time>2024-07-02T10:05:19Z</time>
      </trkpt>
      <trkpt lat="44.88722" lon="5.26959">
        <ele>1269.6</ele>
        <time>2024-07-02T10:05:20Z</time>
      </trkpt>
      <trkpt lat="44.88723" lon="5.2696">
        <ele>1269.6</ele>
        <time>2024-07-02T10:05:21Z</time>
      </trkpt>
      <trkpt lat="44.88723" lon="5.26961">
        <ele>1269.5</ele>
        <time>2024-07-02T10:05:22Z</time>
      </trkpt>
      <trkpt lat="44.88724" lon="5.26962">
        <ele>1269.5</ele>
        <time>2024-07-02T10:05:23Z</time>
      </trkpt>
      <trkpt lat="44.88725" lon="5.26963">
        <ele>1269.4</ele>
        <time>2024-07-02T10:05:24Z</time>
      </trkpt>
      <trkpt lat="44.88726" lon="5.26964">
        <ele>1269.4</ele>
        <time>2024-07-02T10:05:25Z</time>
      </trkpt>
      <trkpt lat="44.88727" lon="5.26964">
        <ele>1269.4</ele>
        <time>2024-07-02T10:05:26Z</time>
      </trkpt>
      <trkpt lat="44.88728" lon="5.26963">
        <ele>1269.4</ele>
        <time>2024-07-02T10:05:27Z</time>
      </trkpt>
      <trkpt lat="44.88729" lon="5.26963">
        <ele>1269.4</ele>
        <time>2024-07-02T10:05:28Z</time>
      </trkpt>
      <trkpt lat="44.8873" lon="5.26963">
        <ele>1269.4</ele>
        <time>2024-07-02T10:05:29Z</time>
      </trkpt>
      <trkpt lat="44.88731" lon="5.26964">
        <ele>1269.4</ele>
        <time>2024-07-02T10:05:30Z</time>
      </trkpt>
      <trkpt lat="44.88731" lon="5.26964">
        <ele>1269.4</ele>
        <time>2024-07-02T10:05:31Z</time>
      </trkpt>
      <trkpt lat="44.88731" lon="5.26965">
        <ele>1269.4</ele>
        <time>2024-07-02T10:05:32Z</time>
      </trkpt>
      <trkpt lat="44.88731" lon="5.26965">
        <ele>1269.4</ele>
        <time>2024-07-02T10:05:33Z</time>
      </trkpt>
      <trkpt lat="44.88731" lon="5.26965">
        <ele>1269.4</ele>
        <time>2024-07-02T10:05:34Z</time>
      </trkpt>
      <trkpt lat="44.88731" lon="5.26965">
        <ele>1269.4</ele>
        <time>2024-07-02T10:05:35Z</time>
      </trkpt>
      <trkpt lat="44.88731" lon="5.26965">
        <ele>1269.4</ele>
        <time>2024-07-02T10:05:36Z</time>
      </trkpt>
      <trkpt lat="44.88731" lon="5.26965">
        <ele>1269.4</ele>
        <time>2024-07-02T10:05:37Z</time>
      </trkpt>
      <trkpt lat="44.88731" lon="5.26965">
        <ele>1269.4</ele>
        <time>2024-07-02T10:05:38Z</time>
      </trkpt>
      <trkpt lat="44.88731" lon="5.26965">
        <ele>1269.4</ele>
        <time>2024-07-02T10:05:39Z</time>
      </trkpt>
      <trkpt lat="44.88732" lon="5.26965">
        <ele>1269.4</ele>
        <time>2024-07-02T10:05:40Z</time>
      </trkpt>
      <trkpt lat="44.88732" lon="5.26965">
        <ele>1269.4</ele>
        <time>2024-07-02T10:05:41Z</time>
      </trkpt>
      <trkpt lat="44.88732" lon="5.26965">
        <ele>1269.4</ele>
        <time>2024-07-02T10:05:42Z</time>
      </trkpt>
      <trkpt lat="44.88732" lon="5.26965">
        <ele>1269.4</ele>
        <time>2024-07-02T10:05:43Z</time>
      </trkpt>
      <trkpt lat="44.88732" lon="5.26965">
        <ele>1269.4</ele>
        <time>2024-07-02T10:05:44Z</time>
      </trkpt>
      <trkpt lat="44.88732" lon="5.26965">
        <ele>1269.4</ele>
        <time>2024-07-02T10:05:45Z</time>
      </trkpt>
      <trkpt lat="44.88732" lon="5.26965">
        <ele>1269.4</ele>
        <time>2024-07-02T10:05:46Z</time>
      </trkpt>
      <trkpt lat="44.88732" lon="5.26965">
        <ele>1269.4</ele>
        <time>2024-07-02T10:05:47Z</time>
      </trkpt>
      <trkpt lat="44.88732" lon="5.26965">
        <ele>1269.4</ele>
        <time>2024-07-02T10:05:48Z</time>
      </trkpt>
      <trkpt lat="44.88732" lon="5.26965">
        <ele>1269.4</ele>
        <time>2024-07-02T10:05:49Z</time>
      </trkpt>
      <trkpt lat="44.88732" lon="5.26965">
        <ele>1269.4</ele>
        <time>2024-07-02T10:05:50Z</time>
      </trkpt>
      <trkpt lat="44.88732" lon="5.26965">
        <ele>1269.4</ele>
        <time>2024-07-02T10:05:51Z</time>
      </trkpt>
      <trkpt lat="44.88732" lon="5.26965">
        <ele>1269.4</ele>
        <time>2024-07-02T10:05:52Z</time>
      </trkpt>
      <trkpt lat="44.88732" lon="5.26965">
        <ele>1269.4</ele>
        <time>2024-07-02T10:05:53Z</time>
      </trkpt>
      <trkpt lat="44.88732" lon="5.26965">
        <ele>1269.4</ele>
        <time>2024-07-02T10:05:54Z</time>
      </trkpt>
      <trkpt lat="44.88732" lon="5.26965">
        <ele>1269.4</ele>
        <time>2024-07-02T10:05:55Z</time>
      </trkpt>
      <trkpt lat="44.88732" lon="5.26965">
        <ele>1269.4</ele>
        <time>2024-07-02T10:05:56Z</time>
      </trkpt>
      <trkpt lat="44.88732" lon="5.26965">
        <ele>1269.4</ele>
        <time>2024-07-02T10:05:57Z</time>
      </trkpt>
      <trkpt lat="44.88732" lon="5.26965">
        <ele>1269.4</ele>
        <time>2024-07-02T10:05:58Z</time>
      </trkpt>
      <trkpt lat="44.88732" lon="5.26965">
        <ele>1269.4</ele>
        <time>2024-07-02T10:05:59Z</time>
      </trkpt>
      <trkpt lat="44.88732" lon="5.26965">
        <ele>1269.4</ele>
        <time>2024-07-02T10:06:00Z</time>
      </trkpt>
      <trkpt lat="44.88732" lon="5.26965">
        <ele>1269.4</ele>
        <time>2024-07-02T10:06:01Z</time>
      </trkpt>
      <trkpt lat="44.88732" lon="5.26965">
        <ele>1269.4</ele>
        <time>2024-07-02T10:06:02Z</time>
      </trkpt>
      <trkpt lat="44.88732" lon="5.26965">
        <ele>1269.4</ele>
        <time>2024-07-02T10:06:03Z</time>
      </trkpt>
      <trkpt lat="44.88732" lon="5.26965">
        <ele>1269.4</ele>
        <time>2024-07-02T10:06:04Z</time>
      </trkpt>
      <trkpt lat="44.88732" lon="5.26965">
        <ele>1269.4</ele>
        <time>2024-07-02T10:06:05Z</time>
      </trkpt>
      <trkpt lat="44.88732" lon="5.26965">
        <ele>1269.4</ele>
        <time>2024-07-02T10:06:06Z</time>
      </trkpt>
      <trkpt lat="44.88732" lon="5.26965">
        <ele>1269.4</ele>
        <time>2024-07-02T10:06:07Z</time>
      </trkpt>
      <trkpt lat="44.88732" lon="5.26965">
        <ele>1269.4</ele>
        <time>2024-07-02T10:06:08Z</time>
      </trkpt>
      <trkpt lat="44.88732" lon="5.26965">
        <ele>1269.4</ele>
        <time>2024-07-02T10:06:09Z</time>
      </trkpt>
      <trkpt lat="44.88732" lon="5.26965">
        <ele>1269.4</ele>
        <time>2024-07-02T10:06:10Z</time>
      </trkpt>
      <trkpt lat="44.88732" lon="5.26965">
        <ele>1269.4</ele>
        <time>2024-07-02T10:06:11Z</time>
      </trkpt>
      <trkpt lat="44.88732" lon="5.26965">
        <ele>1269.4</ele>
        <time>2024-07-02T10:06:12Z</time>
      </trkpt>
      <trkpt lat="44.88732" lon="5.26965">
        <ele>1269.4</ele>
        <time>2024-07-02T10:06:13Z</time>
      </trkpt>
      <trkpt lat="44.88732" lon="5.26965">
        <ele>1269.4</ele>
        <time>2024-07-02T10:06:14Z</time>
      </trkpt>
      <trkpt lat="44.88732" lon="5.26966">
        <ele>1269.4</ele>
        <time>2024-07-02T10:06:15Z</time>
      </trkpt>
      <trkpt lat="44.88732" lon="5.26966">
        <ele>1269.4</ele>
        <time>2024-07-02T10:06:16Z</time>
      </trkpt>
      <trkpt lat="44.88732" lon="5.26966">
        <ele>1269.4</ele>
        <time>2024-07-02T10:06:17Z</time>
      </trkpt>
      <trkpt lat="44.88732" lon="5.26966">
        <ele>1269.4</ele>
        <time>2024-07-02T10:06:18Z</time>
      </trkpt>
      <trkpt lat="44.88732" lon="5.26966">
        <ele>1269.4</ele>
        <time>2024-07-02T10:06:19Z</time>
      </trkpt>
      <trkpt lat="44.88732" lon="5.26966">
        <ele>1269.4</ele>
        <time>2024-07-02T10:06:20Z</time>
      </trkpt>
      <trkpt lat="44.88732" lon="5.26966">
        <ele>1269.4</ele>
        <time>2024-07-02T10:06:21Z</time>
      </trkpt>
      <trkpt lat="44.88732" lon="5.26966">
        <ele>1269.4</ele>
        <time>2024-07-02T10:06:22Z</time>
      </trkpt>
      <trkpt lat="44.88732" lon="5.26966">
        <ele>1269.4</ele>
        <time>2024-07-02T10:06:23Z</time>
      </trkpt>
      <trkpt lat="44.88732" lon="5.26966">
        <ele>1269.4</ele>
        <time>2024-07-02T10:06:24Z</time>
      </trkpt>
      <trkpt lat="44.88732" lon="5.26966">
        <ele>1269.4</ele>
        <time>2024-07-02T10:06:25Z</time>
      </trkpt>
      <trkpt lat="44.88732" lon="5.26966">
        <ele>1269.4</ele>
        <time>2024-07-02T10:06:26Z</time>
      </trkpt>
      <trkpt lat="44.88732" lon="5.26966">
        <ele>1269.4</ele>
        <time>2024-07-02T10:06:27Z</time>
      </trkpt>
      <trkpt lat="44.88732" lon="5.26966">
        <ele>1269.4</ele>
        <time>2024-07-02T10:06:28Z</time>
      </trkpt>
      <trkpt lat="44.88732" lon="5.26966">
        <ele>1269.4</ele>
        <time>2024-07-02T10:06:29Z</time>
      </trkpt>
      <trkpt lat="44.88732" lon="5.26966">
        <ele>1269.4</ele>
        <time>2024-07-02T10:06:30Z</time>
      </trkpt>
      <trkpt lat="44.88732" lon="5.26966">
        <ele>1269.4</ele>
        <time>2024-07-02T10:06:31Z</time>
      </trkpt>
      <trkpt lat="44.88732" lon="5.26966">
        <ele>1269.4</ele>
        <time>2024-07-02T10:06:32Z</time>
      </trkpt>
      <trkpt lat="44.88732" lon="5.26966">
        <ele>1269.4</ele>
        <time>2024-07-02T10:06:33Z</time>
      </trkpt>
      <trkpt lat="44.88732" lon="5.26966">
        <ele>1269.4</ele>
        <time>2024-07-02T10:06:34Z</time>
      </trkpt>
      <trkpt lat="44.88731" lon="5.26967">
        <ele>1269.5</ele>
        <time>2024-07-02T10:06:35Z</time>
      </trkpt>
      <trkpt lat="44.8873" lon="5.26968">
        <ele>1269.5</ele>
        <time>2024-07-02T10:06:36Z</time>
      </trkpt>
      <trkpt lat="44.88729" lon="5.26968">
        <ele>1269.6</ele>
        <time>2024-07-02T10:06:37Z</time>
      </trkpt>
      <trkpt lat="44.88728" lon="5.26969">
        <ele>1269.7</ele>
        <time>2024-07-02T10:06:38Z</time>
      </trkpt>
      <trkpt lat="44.88727" lon="5.26969">
        <ele>1269.7</ele>
        <time>2024-07-02T10:06:39Z</time>
      </trkpt>
      <trkpt lat="44.88726" lon="5.26969">
        <ele>1269.8</ele>
        <time>2024-07-02T10:06:40Z</time>
      </trkpt>
      <trkpt lat="44.88726" lon="5.26969">
        <ele>1269.8</ele>
        <time>2024-07-02T10:06:41Z</time>
      </trkpt>
      <trkpt lat="44.88725" lon="5.26969">
        <ele>1269.9</ele>
        <time>2024-07-02T10:06:42Z</time>
      </trkpt>
      <trkpt lat="44.88724" lon="5.2697">
        <ele>1270</ele>
        <time>2024-07-02T10:06:43Z</time>
      </trkpt>
      <trkpt lat="44.88724" lon="5.26971">
        <ele>1270.1</ele>
        <time>2024-07-02T10:06:44Z</time>
      </trkpt>
      <trkpt lat="44.88723" lon="5.26973">
        <ele>1270.3</ele>
        <time>2024-07-02T10:06:45Z</time>
      </trkpt>
      <trkpt lat="44.88724" lon="5.26974">
        <ele>1270.4</ele>
        <time>2024-07-02T10:06:46Z</time>
      </trkpt>
      <trkpt lat="44.88724" lon="5.26975">
        <ele>1270.5</ele>
        <time>2024-07-02T10:06:47Z</time>
      </trkpt>
      <trkpt lat="44.88724" lon="5.26977">
        <ele>1270.6</ele>
        <time>2024-07-02T10:06:48Z</time>
      </trkpt>
      <trkpt lat="44.88723" lon="5.26978">
        <ele>1270.7</ele>
        <time>2024-07-02T10:06:49Z</time>
      </trkpt>
      <trkpt lat="44.88723" lon="5.26979">
        <ele>1270.9</ele>
        <time>2024-07-02T10:06:50Z</time>
      </trkpt>
      <trkpt lat="44.88723" lon="5.2698">
        <ele>1271</ele>
        <time>2024-07-02T10:06:51Z</time>
      </trkpt>
      <trkpt lat="44.88723" lon="5.26981">
        <ele>1271.1</ele>
        <time>2024-07-02T10:06:52Z</time>
      </trkpt>
      <trkpt lat="44.88723" lon="5.26982">
        <ele>1271.3</ele>
        <time>2024-07-02T10:06:53Z</time>
      </trkpt>
      <trkpt lat="44.88723" lon="5.26983">
        <ele>1271.4</ele>
        <time>2024-07-02T10:06:54Z</time>
      </trkpt>
      <trkpt lat="44.88723" lon="5.26985">
        <ele>1271.5</ele>
        <time>2024-07-02T10:06:55Z</time>
      </trkpt>
      <trkpt lat="44.88723" lon="5.26985">
        <ele>1271.6</ele>
        <time>2024-07-02T10:06:56Z</time>
      </trkpt>
      <trkpt lat="44.88722" lon="5.26986">
        <ele>1271.8</ele>
        <time>2024-07-02T10:06:57Z</time>
      </trkpt>
      <trkpt lat="44.88722" lon="5.26987">
        <ele>1271.9</ele>
        <time>2024-07-02T10:06:58Z</time>
      </trkpt>
      <trkpt lat="44.88722" lon="5.26988">
        <ele>1272</ele>
        <time>2024-07-02T10:06:59Z</time>
      </trkpt>
      <trkpt lat="44.88721" lon="5.26989">
        <ele>1272.1</ele>
        <time>2024-07-02T10:07:00Z</time>
      </trkpt>
      <trkpt lat="44.88721" lon="5.2699">
        <ele>1272.3</ele>
        <time>2024-07-02T10:07:01Z</time>
      </trkpt>
      <trkpt lat="44.88721" lon="5.26991">
        <ele>1272.4</ele>
        <time>2024-07-02T10:07:02Z</time>
      </trkpt>
      <trkpt lat="44.88721" lon="5.26992">
        <ele>1272.6</ele>
        <time>2024-07-02T10:07:03Z</time>
      </trkpt>
      <trkpt lat="44.88721" lon="5.26993">
        <ele>1272.7</ele>
        <time>2024-07-02T10:07:04Z</time>
      </trkpt>
      <trkpt lat="44.8872" lon="5.26994">
        <ele>1272.8</ele>
        <time>2024-07-02T10:07:05Z</time>
      </trkpt>
      <trkpt lat="44.88721" lon="5.26995">
        <ele>1273</ele>
        <time>2024-07-02T10:07:06Z</time>
      </trkpt>
      <trkpt lat="44.88721" lon="5.26997">
        <ele>1273.1</ele>
        <time>2024-07-02T10:07:07Z</time>
      </trkpt>
      <trkpt lat="44.88721" lon="5.26998">
        <ele>1273.3</ele>
        <time>2024-07-02T10:07:08Z</time>
      </trkpt>
      <trkpt lat="44.88721" lon="5.26999">
        <ele>1273.4</ele>
        <time>2024-07-02T10:07:09Z</time>
      </trkpt>
      <trkpt lat="44.88722" lon="5.26999">
        <ele>1273.5</ele>
        <time>2024-07-02T10:07:10Z</time>
      </trkpt>
      <trkpt lat="44.88722" lon="5.27001">
        <ele>1273.7</ele>
        <time>2024-07-02T10:07:11Z</time>
      </trkpt>
      <trkpt lat="44.88722" lon="5.27002">
        <ele>1273.8</ele>
        <time>2024-07-02T10:07:12Z</time>
      </trkpt>
      <trkpt lat="44.88722" lon="5.27003">
        <ele>1274</ele>
        <time>2024-07-02T10:07:13Z</time>
      </trkpt>
      <trkpt lat="44.88721" lon="5.27004">
        <ele>1274.1</ele>
        <time>2024-07-02T10:07:14Z</time>
      </trkpt>
      <trkpt lat="44.88721" lon="5.27005">
        <ele>1274.2</ele>
        <time>2024-07-02T10:07:15Z</time>
      </trkpt>
      <trkpt lat="44.8872" lon="5.27006">
        <ele>1274.4</ele>
        <time>2024-07-02T10:07:16Z</time>
      </trkpt>
      <trkpt lat="44.8872" lon="5.27007">
        <ele>1274.6</ele>
        <time>2024-07-02T10:07:17Z</time>
      </trkpt>
      <trkpt lat="44.88718" lon="5.27009">
        <ele>1274.8</ele>
        <time>2024-07-02T10:07:18Z</time>
      </trkpt>
      <trkpt lat="44.88718" lon="5.2701">
        <ele>1274.9</ele>
        <time>2024-07-02T10:07:19Z</time>
      </trkpt>
      <trkpt lat="44.88718" lon="5.2701">
        <ele>1275</ele>
        <time>2024-07-02T10:07:20Z</time>
      </trkpt>
      <trkpt lat="44.88718" lon="5.27011">
        <ele>1275.2</ele>
        <time>2024-07-02T10:07:21Z</time>
      </trkpt>
      <trkpt lat="44.88718" lon="5.27013">
        <ele>1275.3</ele>
        <time>2024-07-02T10:07:22Z</time>
      </trkpt>
      <trkpt lat="44.88717" lon="5.27014">
        <ele>1275.4</ele>
        <time>2024-07-02T10:07:23Z</time>
      </trkpt>
      <trkpt lat="44.88717" lon="5.27015">
        <ele>1275.6</ele>
        <time>2024-07-02T10:07:24Z</time>
      </trkpt>
      <trkpt lat="44.88717" lon="5.27016">
        <ele>1275.7</ele>
        <time>2024-07-02T10:07:25Z</time>
      </trkpt>
      <trkpt lat="44.88716" lon="5.27018">
        <ele>1275.9</ele>
        <time>2024-07-02T10:07:26Z</time>
      </trkpt>
      <trkpt lat="44.88716" lon="5.27019">
        <ele>1276</ele>
        <time>2024-07-02T10:07:27Z</time>
      </trkpt>
      <trkpt lat="44.88715" lon="5.2702">
        <ele>1276.1</ele>
        <time>2024-07-02T10:07:28Z</time>
      </trkpt>
      <trkpt lat="44.88715" lon="5.27021">
        <ele>1276.2</ele>
        <time>2024-07-02T10:07:29Z</time>
      </trkpt>
      <trkpt lat="44.88715" lon="5.27022">
        <ele>1276.3</ele>
        <time>2024-07-02T10:07:30Z</time>
      </trkpt>
      <trkpt lat="44.88715" lon="5.27024">
        <ele>1276.4</ele>
        <time>2024-07-02T10:07:31Z</time>
      </trkpt>
      <trkpt lat="44.88714" lon="5.27025">
        <ele>1276.5</ele>
        <time>2024-07-02T10:07:32Z</time>
      </trkpt>
      <trkpt lat="44.88714" lon="5.27026">
        <ele>1276.7</ele>
        <time>2024-07-02T10:07:33Z</time>
      </trkpt>
      <trkpt lat="44.88714" lon="5.27028">
        <ele>1276.8</ele>
        <time>2024-07-02T10:07:34Z</time>
      </trkpt>
      <trkpt lat="44.88713" lon="5.27029">
        <ele>1276.9</ele>
        <time>2024-07-02T10:07:35Z</time>
      </trkpt>
      <trkpt lat="44.88713" lon="5.2703">
        <ele>1277.1</ele>
        <time>2024-07-02T10:07:36Z</time>
      </trkpt>
      <trkpt lat="44.88712" lon="5.27031">
        <ele>1277.2</ele>
        <time>2024-07-02T10:07:37Z</time>
      </trkpt>
      <trkpt lat="44.88712" lon="5.27032">
        <ele>1277.3</ele>
        <time>2024-07-02T10:07:38Z</time>
      </trkpt>
      <trkpt lat="44.88712" lon="5.27033">
        <ele>1277.4</ele>
        <time>2024-07-02T10:07:39Z</time>
      </trkpt>
      <trkpt lat="44.88711" lon="5.27034">
        <ele>1277.5</ele>
        <time>2024-07-02T10:07:40Z</time>
      </trkpt>
      <trkpt lat="44.88711" lon="5.27036">
        <ele>1277.6</ele>
        <time>2024-07-02T10:07:41Z</time>
      </trkpt>
      <trkpt lat="44.8871" lon="5.27037">
        <ele>1277.7</ele>
        <time>2024-07-02T10:07:42Z</time>
      </trkpt>
      <trkpt lat="44.8871" lon="5.27038">
        <ele>1277.8</ele>
        <time>2024-07-02T10:07:43Z</time>
      </trkpt>
      <trkpt lat="44.88709" lon="5.27039">
        <ele>1278</ele>
        <time>2024-07-02T10:07:44Z</time>
      </trkpt>
      <trkpt lat="44.88709" lon="5.2704">
        <ele>1278.1</ele>
        <time>2024-07-02T10:07:45Z</time>
      </trkpt>
      <trkpt lat="44.88708" lon="5.27041">
        <ele>1278.2</ele>
        <time>2024-07-02T10:07:46Z</time>
      </trkpt>
      <trkpt lat="44.88708" lon="5.27042">
        <ele>1278.3</ele>
        <time>2024-07-02T10:07:47Z</time>
      </trkpt>
      <trkpt lat="44.88707" lon="5.27043">
        <ele>1278.4</ele>
        <time>2024-07-02T10:07:48Z</time>
      </trkpt>
      <trkpt lat="44.88707" lon="5.27044">
        <ele>1278.6</ele>
        <time>2024-07-02T10:07:49Z</time>
      </trkpt>
      <trkpt lat="44.88706" lon="5.27045">
        <ele>1278.6</ele>
        <time>2024-07-02T10:07:50Z</time>
      </trkpt>
      <trkpt lat="44.88706" lon="5.27045">
        <ele>1278.7</ele>
        <time>2024-07-02T10:07:51Z</time>
      </trkpt>
      <trkpt lat="44.88705" lon="5.27046">
        <ele>1278.8</ele>
        <time>2024-07-02T10:07:52Z</time>
      </trkpt>
      <trkpt lat="44.88705" lon="5.27047">
        <ele>1278.9</ele>
        <time>2024-07-02T10:07:53Z</time>
      </trkpt>
      <trkpt lat="44.88705" lon="5.27049">
        <ele>1279</ele>
        <time>2024-07-02T10:07:54Z</time>
      </trkpt>
      <trkpt lat="44.88705" lon="5.2705">
        <ele>1279.1</ele>
        <time>2024-07-02T10:07:55Z</time>
      </trkpt>
      <trkpt lat="44.88704" lon="5.27051">
        <ele>1279.3</ele>
        <time>2024-07-02T10:07:56Z</time>
      </trkpt>
      <trkpt lat="44.88704" lon="5.27052">
        <ele>1279.4</ele>
        <time>2024-07-02T10:07:57Z</time>
      </trkpt>
      <trkpt lat="44.88704" lon="5.27053">
        <ele>1279.5</ele>
        <time>2024-07-02T10:07:58Z</time>
      </trkpt>
      <trkpt lat="44.88703" lon="5.27055">
        <ele>1279.6</ele>
        <time>2024-07-02T10:07:59Z</time>
      </trkpt>
      <trkpt lat="44.88703" lon="5.27056">
        <ele>1279.7</ele>
        <time>2024-07-02T10:08:00Z</time>
      </trkpt>
      <trkpt lat="44.88703" lon="5.27057">
        <ele>1279.9</ele>
        <time>2024-07-02T10:08:01Z</time>
      </trkpt>
      <trkpt lat="44.88703" lon="5.27059">
        <ele>1280</ele>
        <time>2024-07-02T10:08:02Z</time>
      </trkpt>
      <trkpt lat="44.88702" lon="5.2706">
        <ele>1280.1</ele>
        <time>2024-07-02T10:08:03Z</time>
      </trkpt>
      <trkpt lat="44.88702" lon="5.27061">
        <ele>1280.2</ele>
        <time>2024-07-02T10:08:04Z</time>
      </trkpt>
      <trkpt lat="44.88701" lon="5.27062">
        <ele>1280.4</ele>
        <time>2024-07-02T10:08:05Z</time>
      </trkpt>
      <trkpt lat="44.88701" lon="5.27064">
        <ele>1280.5</ele>
        <time>2024-07-02T10:08:06Z</time>
      </trkpt>
      <trkpt lat="44.88701" lon="5.27065">
        <ele>1280.7</ele>
        <time>2024-07-02T10:08:07Z</time>
      </trkpt>
      <trkpt lat="44.887" lon="5.27067">
        <ele>1280.8</ele>
        <time>2024-07-02T10:08:08Z</time>
      </trkpt>
      <trkpt lat="44.887" lon="5.27068">
        <ele>1280.9</ele>
        <time>2024-07-02T10:08:09Z</time>
      </trkpt>
      <trkpt lat="44.88699" lon="5.27069">
        <ele>1281.1</ele>
        <time>2024-07-02T10:08:10Z</time>
      </trkpt>
      <trkpt lat="44.88699" lon="5.2707">
        <ele>1281.2</ele>
        <time>2024-07-02T10:08:11Z</time>
      </trkpt>
      <trkpt lat="44.88699" lon="5.27072">
        <ele>1281.3</ele>
        <time>2024-07-02T10:08:12Z</time>
      </trkpt>
      <trkpt lat="44.88698" lon="5.27073">
        <ele>1281.4</ele>
        <time>2024-07-02T10:08:13Z</time>
      </trkpt>
      <trkpt lat="44.88698" lon="5.27074">
        <ele>1281.6</ele>
        <time>2024-07-02T10:08:14Z</time>
      </trkpt>
      <trkpt lat="44.88698" lon="5.27075">
        <ele>1281.7</ele>
        <time>2024-07-02T10:08:15Z</time>
      </trkpt>
      <trkpt lat="44.88697" lon="5.27076">
        <ele>1281.8</ele>
        <time>2024-07-02T10:08:16Z</time>
      </trkpt>
      <trkpt lat="44.88697" lon="5.27078">
        <ele>1281.9</ele>
        <time>2024-07-02T10:08:17Z</time>
      </trkpt>
      <trkpt lat="44.88697" lon="5.27079">
        <ele>1282</ele>
        <time>2024-07-02T10:08:18Z</time>
      </trkpt>
      <trkpt lat="44.88696" lon="5.2708">
        <ele>1282.2</ele>
        <time>2024-07-02T10:08:19Z</time>
      </trkpt>
      <trkpt lat="44.88696" lon="5.27081">
        <ele>1282.3</ele>
        <time>2024-07-02T10:08:20Z</time>
      </trkpt>
      <trkpt lat="44.88696" lon="5.27083">
        <ele>1282.4</ele>
        <time>2024-07-02T10:08:21Z</time>
      </trkpt>
      <trkpt lat="44.88695" lon="5.27084">
        <ele>1282.5</ele>
        <time>2024-07-02T10:08:22Z</time>
      </trkpt>
      <trkpt lat="44.88695" lon="5.27086">
        <ele>1282.7</ele>
        <time>2024-07-02T10:08:23Z</time>
      </trkpt>
      <trkpt lat="44.88695" lon="5.27087">
        <ele>1282.8</ele>
        <time>2024-07-02T10:08:24Z</time>
      </trkpt>
      <trkpt lat="44.88694" lon="5.27088">
        <ele>1282.9</ele>
        <time>2024-07-02T10:08:25Z</time>
      </trkpt>
      <trkpt lat="44.88694" lon="5.27089">
        <ele>1283</ele>
        <time>2024-07-02T10:08:26Z</time>
      </trkpt>
      <trkpt lat="44.88694" lon="5.2709">
        <ele>1283.2</ele>
        <time>2024-07-02T10:08:27Z</time>
      </trkpt>
      <trkpt lat="44.88694" lon="5.27092">
        <ele>1283.3</ele>
        <time>2024-07-02T10:08:28Z</time>
      </trkpt>
      <trkpt lat="44.88693" lon="5.27093">
        <ele>1283.5</ele>
        <time>2024-07-02T10:08:29Z</time>
      </trkpt>
      <trkpt lat="44.88693" lon="5.27095">
        <ele>1283.6</ele>
        <time>2024-07-02T10:08:30Z</time>
      </trkpt>
      <trkpt lat="44.88693" lon="5.27096">
        <ele>1283.7</ele>
        <time>2024-07-02T10:08:31Z</time>
      </trkpt>
      <trkpt lat="44.88692" lon="5.27098">
        <ele>1283.9</ele>
        <time>2024-07-02T10:08:32Z</time>
      </trkpt>
      <trkpt lat="44.88692" lon="5.27099">
        <ele>1284</ele>
        <time>2024-07-02T10:08:33Z</time>
      </trkpt>
      <trkpt lat="44.88692" lon="5.27101">
        <ele>1284.1</ele>
        <time>2024-07-02T10:08:34Z</time>
      </trkpt>
      <trkpt lat="44.88692" lon="5.27102">
        <ele>1284.3</ele>
        <time>2024-07-02T10:08:35Z</time>
      </trkpt>
      <trkpt lat="44.88691" lon="5.27104">
        <ele>1284.4</ele>
        <time>2024-07-02T10:08:36Z</time>
      </trkpt>
      <trkpt lat="44.88691" lon="5.27105">
        <ele>1284.6</ele>
        <time>2024-07-02T10:08:37Z</time>
      </trkpt>
      <trkpt lat="44.88691" lon="5.27107">
        <ele>1284.7</ele>
        <time>2024-07-02T10:08:38Z</time>
      </trkpt>
      <trkpt lat="44.8869" lon="5.27108">
        <ele>1284.8</ele>
        <time>2024-07-02T10:08:39Z</time>
      </trkpt>
      <trkpt lat="44.8869" lon="5.2711">
        <ele>1285</ele>
        <time>2024-07-02T10:08:40Z</time>
      </trkpt>
      <trkpt lat="44.8869" lon="5.27111">
        <ele>1285.1</ele>
        <time>2024-07-02T10:08:41Z</time>
      </trkpt>
      <trkpt lat="44.88689" lon="5.27112">
        <ele>1285.2</ele>
        <time>2024-07-02T10:08:42Z</time>
      </trkpt>
      <trkpt lat="44.88689" lon="5.27113">
        <ele>1285.3</ele>
        <time>2024-07-02T10:08:43Z</time>
      </trkpt>
      <trkpt lat="44.88689" lon="5.27115">
        <ele>1285.4</ele>
        <time>2024-07-02T10:08:44Z</time>
      </trkpt>
      <trkpt lat="44.88689" lon="5.27116">
        <ele>1285.6</ele>
        <time>2024-07-02T10:08:45Z</time>
      </trkpt>
      <trkpt lat="44.88688" lon="5.27117">
        <ele>1285.7</ele>
        <time>2024-07-02T10:08:46Z</time>
      </trkpt>
      <trkpt lat="44.88688" lon="5.27119">
        <ele>1285.8</ele>
        <time>2024-07-02T10:08:47Z</time>
      </trkpt>
      <trkpt lat="44.88688" lon="5.2712">
        <ele>1286</ele>
        <time>2024-07-02T10:08:48Z</time>
      </trkpt>
      <trkpt lat="44.88687" lon="5.27121">
        <ele>1286.1</ele>
        <time>2024-07-02T10:08:49Z</time>
      </trkpt>
      <trkpt lat="44.88687" lon="5.27123">
        <ele>1286.2</ele>
        <time>2024-07-02T10:08:50Z</time>
      </trkpt>
      <trkpt lat="44.88687" lon="5.27124">
        <ele>1286.3</ele>
        <time>2024-07-02T10:08:51Z</time>
      </trkpt>
      <trkpt lat="44.88686" lon="5.27125">
        <ele>1286.5</ele>
        <time>2024-07-02T10:08:52Z</time>
      </trkpt>
      <trkpt lat="44.88686" lon="5.27126">
        <ele>1286.6</ele>
        <time>2024-07-02T10:08:53Z</time>
      </trkpt>
      <trkpt lat="44.88686" lon="5.27127">
        <ele>1286.7</ele>
        <time>2024-07-02T10:08:54Z</time>
      </trkpt>
      <trkpt lat="44.88685" lon="5.27128">
        <ele>1286.9</ele>
        <time>2024-07-02T10:08:55Z</time>
      </trkpt>
      <trkpt lat="44.88685" lon="5.27129">
        <ele>1287</ele>
        <time>2024-07-02T10:08:56Z</time>
      </trkpt>
      <trkpt lat="44.88685" lon="5.27131">
        <ele>1287.1</ele>
        <time>2024-07-02T10:08:57Z</time>
      </trkpt>
      <trkpt lat="44.88684" lon="5.27132">
        <ele>1287.2</ele>
        <time>2024-07-02T10:08:58Z</time>
      </trkpt>
      <trkpt lat="44.88684" lon="5.27133">
        <ele>1287.3</ele>
        <time>2024-07-02T10:08:59Z</time>
      </trkpt>
      <trkpt lat="44.88684" lon="5.27134">
        <ele>1287.5</ele>
        <time>2024-07-02T10:09:00Z</time>
      </trkpt>
      <trkpt lat="44.88684" lon="5.27135">
        <ele>1287.6</ele>
        <time>2024-07-02T10:09:01Z</time>
      </trkpt>
      <trkpt lat="44.88684" lon="5.27136">
        <ele>1287.7</ele>
        <time>2024-07-02T10:09:02Z</time>
      </trkpt>
      <trkpt lat="44.88684" lon="5.27137">
        <ele>1287.8</ele>
        <time>2024-07-02T10:09:03Z</time>
      </trkpt>
      <trkpt lat="44.88684" lon="5.27139">
        <ele>1288</ele>
        <time>2024-07-02T10:09:04Z</time>
      </trkpt>
      <trkpt lat="44.88683" lon="5.2714">
        <ele>1288.1</ele>
        <time>2024-07-02T10:09:05Z</time>
      </trkpt>
      <trkpt lat="44.88683" lon="5.27142">
        <ele>1288.4</ele>
        <time>2024-07-02T10:09:06Z</time>
      </trkpt>
      <trkpt lat="44.88683" lon="5.27143">
        <ele>1288.5</ele>
        <time>2024-07-02T10:09:07Z</time>
      </trkpt>
      <trkpt lat="44.88683" lon="5.27144">
        <ele>1288.6</ele>
        <time>2024-07-02T10:09:08Z</time>
      </trkpt>
      <trkpt lat="44.88682" lon="5.27145">
        <ele>1288.7</ele>
        <time>2024-07-02T10:09:09Z</time>
      </trkpt>
      <trkpt lat="44.88682" lon="5.27146">
        <ele>1288.8</ele>
        <time>2024-07-02T10:09:10Z</time>
      </trkpt>
      <trkpt lat="44.88681" lon="5.27146">
        <ele>1288.9</ele>
        <time>2024-07-02T10:09:11Z</time>
      </trkpt>
      <trkpt lat="44.88681" lon="5.27146">
        <ele>1289</ele>
        <time>2024-07-02T10:09:12Z</time>
      </trkpt>
      <trkpt lat="44.8868" lon="5.27147">
        <ele>1289.1</ele>
        <time>2024-07-02T10:09:13Z</time>
      </trkpt>
      <trkpt lat="44.8868" lon="5.27148">
        <ele>1289.2</ele>
        <time>2024-07-02T10:09:14Z</time>
      </trkpt>
      <trkpt lat="44.8868" lon="5.2715">
        <ele>1289.5</ele>
        <time>2024-07-02T10:09:15Z</time>
      </trkpt>
      <trkpt lat="44.8868" lon="5.27152">
        <ele>1289.7</ele>
        <time>2024-07-02T10:09:16Z</time>
      </trkpt>
      <trkpt lat="44.8868" lon="5.27155">
        <ele>1290</ele>
        <time>2024-07-02T10:09:17Z</time>
      </trkpt>
      <trkpt lat="44.8868" lon="5.27156">
        <ele>1290.1</ele>
        <time>2024-07-02T10:09:18Z</time>
      </trkpt>
      <trkpt lat="44.8868" lon="5.27157">
        <ele>1290.2</ele>
        <time>2024-07-02T10:09:19Z</time>
      </trkpt>
      <trkpt lat="44.8868" lon="5.27159">
        <ele>1290.4</ele>
        <time>2024-07-02T10:09:20Z</time>
      </trkpt>
      <trkpt lat="44.88681" lon="5.2716">
        <ele>1290.5</ele>
        <time>2024-07-02T10:09:21Z</time>
      </trkpt>
      <trkpt lat="44.88681" lon="5.27162">
        <ele>1290.7</ele>
        <time>2024-07-02T10:09:22Z</time>
      </trkpt>
      <trkpt lat="44.88681" lon="5.27163">
        <ele>1290.8</ele>
        <time>2024-07-02T10:09:23Z</time>
      </trkpt>
      <trkpt lat="44.88681" lon="5.27165">
        <ele>1290.9</ele>
        <time>2024-07-02T10:09:24Z</time>
      </trkpt>
      <trkpt lat="44.8868" lon="5.27166">
        <ele>1291</ele>
        <time>2024-07-02T10:09:25Z</time>
      </trkpt>
      <trkpt lat="44.8868" lon="5.27167">
        <ele>1291.1</ele>
        <time>2024-07-02T10:09:26Z</time>
      </trkpt>
      <trkpt lat="44.8868" lon="5.27168">
        <ele>1291.2</ele>
        <time>2024-07-02T10:09:27Z</time>
      </trkpt>
      <trkpt lat="44.8868" lon="5.27169">
        <ele>1291.3</ele>
        <time>2024-07-02T10:09:28Z</time>
      </trkpt>
      <trkpt lat="44.88679" lon="5.2717">
        <ele>1291.4</ele>
        <time>2024-07-02T10:09:29Z</time>
      </trkpt>
      <trkpt lat="44.88679" lon="5.27172">
        <ele>1291.6</ele>
        <time>2024-07-02T10:09:30Z</time>
      </trkpt>
      <trkpt lat="44.88679" lon="5.27173">
        <ele>1291.6</ele>
        <time>2024-07-02T10:09:31Z</time>
      </trkpt>
      <trkpt lat="44.88678" lon="5.27174">
        <ele>1291.7</ele>
        <time>2024-07-02T10:09:32Z</time>
      </trkpt>
      <trkpt lat="44.88678" lon="5.27175">
        <ele>1291.9</ele>
        <time>2024-07-02T10:09:33Z</time>
      </trkpt>
      <trkpt lat="44.88677" lon="5.27176">
        <ele>1292</ele>
        <time>2024-07-02T10:09:34Z</time>
      </trkpt>
      <trkpt lat="44.88677" lon="5.27178">
        <ele>1292.1</ele>
        <time>2024-07-02T10:09:35Z</time>
      </trkpt>
      <trkpt lat="44.88677" lon="5.27179">
        <ele>1292.2</ele>
        <time>2024-07-02T10:09:36Z</time>
      </trkpt>
      <trkpt lat="44.88677" lon="5.27181">
        <ele>1292.3</ele>
        <time>2024-07-02T10:09:37Z</time>
      </trkpt>
      <trkpt lat="44.88677" lon="5.27182">
        <ele>1292.4</ele>
        <time>2024-07-02T10:09:38Z</time>
      </trkpt>
      <trkpt lat="44.88677" lon="5.27183">
        <ele>1292.5</ele>
        <time>2024-07-02T10:09:39Z</time>
      </trkpt>
      <trkpt lat="44.88676" lon="5.27185">
        <ele>1292.6</ele>
        <time>2024-07-02T10:09:40Z</time>
      </trkpt>
      <trkpt lat="44.88676" lon="5.27186">
        <ele>1292.7</ele>
        <time>2024-07-02T10:09:41Z</time>
      </trkpt>
      <trkpt lat="44.88676" lon="5.27187">
        <ele>1292.8</ele>
        <time>2024-07-02T10:09:42Z</time>
      </trkpt>
      <trkpt lat="44.88676" lon="5.27188">
        <ele>1292.9</ele>
        <time>2024-07-02T10:09:43Z</time>
      </trkpt>
      <trkpt lat="44.88676" lon="5.27189">
        <ele>1293</ele>
        <time>2024-07-02T10:09:44Z</time>
      </trkpt>
      <trkpt lat="44.88676" lon="5.27191">
        <ele>1293.1</ele>
        <time>2024-07-02T10:09:45Z</time>
      </trkpt>
      <trkpt lat="44.88676" lon="5.27192">
        <ele>1293.2</ele>
        <time>2024-07-02T10:09:46Z</time>
      </trkpt>
      <trkpt lat="44.88676" lon="5.27193">
        <ele>1293.3</ele>
        <time>2024-07-02T10:09:47Z</time>
      </trkpt>
      <trkpt lat="44.88675" lon="5.27194">
        <ele>1293.4</ele>
        <time>2024-07-02T10:09:48Z</time>
      </trkpt>
      <trkpt lat="44.88675" lon="5.27196">
        <ele>1293.5</ele>
        <time>2024-07-02T10:09:49Z</time>
      </trkpt>
      <trkpt lat="44.88675" lon="5.27196">
        <ele>1293.6</ele>
        <time>2024-07-02T10:09:50Z</time>
      </trkpt>
      <trkpt lat="44.88674" lon="5.27197">
        <ele>1293.7</ele>
        <time>2024-07-02T10:09:51Z</time>
      </trkpt>
      <trkpt lat="44.88674" lon="5.27198">
        <ele>1293.8</ele>
        <time>2024-07-02T10:09:52Z</time>
      </trkpt>
      <trkpt lat="44.88674" lon="5.27199">
        <ele>1293.9</ele>
        <time>2024-07-02T10:09:53Z</time>
      </trkpt>
      <trkpt lat="44.88674" lon="5.272">
        <ele>1293.9</ele>
        <time>2024-07-02T10:09:54Z</time>
      </trkpt>
      <trkpt lat="44.88673" lon="5.27201">
        <ele>1294.1</ele>
        <time>2024-07-02T10:09:55Z</time>
      </trkpt>
      <trkpt lat="44.88673" lon="5.27202">
        <ele>1294.2</ele>
        <time>2024-07-02T10:09:56Z</time>
      </trkpt>
      <trkpt lat="44.88673" lon="5.27203">
        <ele>1294.3</ele>
        <time>2024-07-02T10:09:57Z</time>
      </trkpt>
      <trkpt lat="44.88674" lon="5.27205">
        <ele>1294.4</ele>
        <time>2024-07-02T10:09:58Z</time>
      </trkpt>
      <trkpt lat="44.88674" lon="5.27205">
        <ele>1294.5</ele>
        <time>2024-07-02T10:09:59Z</time>
      </trkpt>
      <trkpt lat="44.88675" lon="5.27206">
        <ele>1294.6</ele>
        <time>2024-07-02T10:10:00Z</time>
      </trkpt>
      <trkpt lat="44.88675" lon="5.27207">
        <ele>1294.7</ele>
        <time>2024-07-02T10:10:01Z</time>
      </trkpt>
      <trkpt lat="44.88675" lon="5.27208">
        <ele>1294.8</ele>
        <time>2024-07-02T10:10:02Z</time>
      </trkpt>
      <trkpt lat="44.88675" lon="5.27209">
        <ele>1294.9</ele>
        <time>2024-07-02T10:10:03Z</time>
      </trkpt>
      <trkpt lat="44.88676" lon="5.2721">
        <ele>1295</ele>
        <time>2024-07-02T10:10:04Z</time>
      </trkpt>
      <trkpt lat="44.88676" lon="5.27211">
        <ele>1295.1</ele>
        <time>2024-07-02T10:10:05Z</time>
      </trkpt>
      <trkpt lat="44.88676" lon="5.27212">
        <ele>1295.3</ele>
        <time>2024-07-02T10:10:06Z</time>
      </trkpt>
      <trkpt lat="44.88676" lon="5.27214">
        <ele>1295.4</ele>
        <time>2024-07-02T10:10:07Z</time>
      </trkpt>
      <trkpt lat="44.88676" lon="5.27215">
        <ele>1295.5</ele>
        <time>2024-07-02T10:10:08Z</time>
      </trkpt>
      <trkpt lat="44.88677" lon="5.27216">
        <ele>1295.6</ele>
        <time>2024-07-02T10:10:09Z</time>
      </trkpt>
      <trkpt lat="44.88677" lon="5.27216">
        <ele>1295.7</ele>
        <time>2024-07-02T10:10:10Z</time>
      </trkpt>
      <trkpt lat="44.88677" lon="5.27215">
        <ele>1295.7</ele>
        <time>2024-07-02T10:10:11Z</time>
      </trkpt>
      <trkpt lat="44.88677" lon="5.27215">
        <ele>1295.7</ele>
        <time>2024-07-02T10:10:12Z</time>
      </trkpt>
      <trkpt lat="44.88677" lon="5.27215">
        <ele>1295.7</ele>
        <time>2024-07-02T10:10:13Z</time>
      </trkpt>
      <trkpt lat="44.88677" lon="5.27215">
        <ele>1295.7</ele>
        <time>2024-07-02T10:10:14Z</time>
      </trkpt>
      <trkpt lat="44.88677" lon="5.27215">
        <ele>1295.7</ele>
        <time>2024-07-02T10:10:15Z</time>
      </trkpt>
      <trkpt lat="44.88677" lon="5.27215">
        <ele>1295.7</ele>
        <time>2024-07-02T10:10:16Z</time>
      </trkpt>
      <trkpt lat="44.88677" lon="5.27215">
        <ele>1295.7</ele>
        <time>2024-07-02T10:10:17Z</time>
      </trkpt>
      <trkpt lat="44.88677" lon="5.27215">
        <ele>1295.8</ele>
        <time>2024-07-02T10:10:18Z</time>
      </trkpt>
      <trkpt lat="44.88677" lon="5.27215">
        <ele>1295.8</ele>
        <time>2024-07-02T10:10:19Z</time>
      </trkpt>
      <trkpt lat="44.88677" lon="5.27215">
        <ele>1295.8</ele>
        <time>2024-07-02T10:10:20Z</time>
      </trkpt>
      <trkpt lat="44.88677" lon="5.27215">
        <ele>1295.8</ele>
        <time>2024-07-02T10:10:21Z</time>
      </trkpt>
      <trkpt lat="44.88677" lon="5.27215">
        <ele>1295.8</ele>
        <time>2024-07-02T10:10:22Z</time>
      </trkpt>
      <trkpt lat="44.88677" lon="5.27215">
        <ele>1295.8</ele>
        <time>2024-07-02T10:10:23Z</time>
      </trkpt>
      <trkpt lat="44.88677" lon="5.27215">
        <ele>1295.8</ele>
        <time>2024-07-02T10:10:24Z</time>
      </trkpt>
      <trkpt lat="44.88677" lon="5.27215">
        <ele>1295.8</ele>
        <time>2024-07-02T10:10:25Z</time>
      </trkpt>
      <trkpt lat="44.88677" lon="5.27215">
        <ele>1295.8</ele>
        <time>2024-07-02T10:10:26Z</time>
      </trkpt>
      <trkpt lat="44.88677" lon="5.27215">
        <ele>1295.9</ele>
        <time>2024-07-02T10:10:27Z</time>
      </trkpt>
      <trkpt lat="44.88677" lon="5.27215">
        <ele>1295.9</ele>
        <time>2024-07-02T10:10:28Z</time>
      </trkpt>
      <trkpt lat="44.88677" lon="5.27215">
        <ele>1295.9</ele>
        <time>2024-07-02T10:10:29Z</time>
      </trkpt>
      <trkpt lat="44.88677" lon="5.27215">
        <ele>1295.9</ele>
        <time>2024-07-02T10:10:30Z</time>
      </trkpt>
      <trkpt lat="44.88677" lon="5.27215">
        <ele>1296</ele>
        <time>2024-07-02T10:10:31Z</time>
      </trkpt>
      <trkpt lat="44.88676" lon="5.27214">
        <ele>1296.1</ele>
        <time>2024-07-02T10:10:32Z</time>
      </trkpt>
      <trkpt lat="44.88676" lon="5.27214">
        <ele>1296.1</ele>
        <time>2024-07-02T10:10:33Z</time>
      </trkpt>
      <trkpt lat="44.88677" lon="5.27215">
        <ele>1296.2</ele>
        <time>2024-07-02T10:10:35Z</time>
      </trkpt>
      <trkpt lat="44.88677" lon="5.27215">
        <ele>1296.2</ele>
        <time>2024-07-02T10:10:36Z</time>
      </trkpt>
      <trkpt lat="44.88677" lon="5.27215">
        <ele>1296.2</ele>
        <time>2024-07-02T10:10:37Z</time>
      </trkpt>
      <trkpt lat="44.88677" lon="5.27215">
        <ele>1296.2</ele>
        <time>2024-07-02T10:10:38Z</time>
      </trkpt>
      <trkpt lat="44.88677" lon="5.27215">
        <ele>1296.2</ele>
        <time>2024-07-02T10:10:39Z</time>
      </trkpt>
      <trkpt lat="44.88677" lon="5.27215">
        <ele>1296.2</ele>
        <time>2024-07-02T10:10:40Z</time>
      </trkpt>
      <trkpt lat="44.88677" lon="5.27215">
        <ele>1296.2</ele>
        <time>2024-07-02T10:10:41Z</time>
      </trkpt>
      <trkpt lat="44.88677" lon="5.27216">
        <ele>1296.4</ele>
        <time>2024-07-02T10:10:42Z</time>
      </trkpt>
      <trkpt lat="44.88676" lon="5.27218">
        <ele>1296.5</ele>
        <time>2024-07-02T10:10:43Z</time>
      </trkpt>
      <trkpt lat="44.88677" lon="5.27216">
        <ele>1296.7</ele>
        <time>2024-07-02T10:10:44Z</time>
      </trkpt>
      <trkpt lat="44.88677" lon="5.27217">
        <ele>1296.7</ele>
        <time>2024-07-02T10:10:45Z</time>
      </trkpt>
      <trkpt lat="44.88677" lon="5.27217">
        <ele>1296.7</ele>
        <time>2024-07-02T10:10:46Z</time>
      </trkpt>
      <trkpt lat="44.88677" lon="5.27216">
        <ele>1296.8</ele>
        <time>2024-07-02T10:10:47Z</time>
      </trkpt>
      <trkpt lat="44.88677" lon="5.27217">
        <ele>1296.8</ele>
        <time>2024-07-02T10:10:48Z</time>
      </trkpt>
      <trkpt lat="44.88677" lon="5.27218">
        <ele>1296.8</ele>
        <time>2024-07-02T10:10:49Z</time>
      </trkpt>
      <trkpt lat="44.88677" lon="5.27218">
        <ele>1296.9</ele>
        <time>2024-07-02T10:10:50Z</time>
      </trkpt>
      <trkpt lat="44.88677" lon="5.27218">
        <ele>1296.9</ele>
        <time>2024-07-02T10:10:51Z</time>
      </trkpt>
      <trkpt lat="44.88676" lon="5.2722">
        <ele>1297</ele>
        <time>2024-07-02T10:10:52Z</time>
      </trkpt>
      <trkpt lat="44.88676" lon="5.2722">
        <ele>1297</ele>
        <time>2024-07-02T10:10:53Z</time>
      </trkpt>
      <trkpt lat="44.88676" lon="5.2722">
        <ele>1297</ele>
        <time>2024-07-02T10:10:54Z</time>
      </trkpt>
      <trkpt lat="44.88676" lon="5.2722">
        <ele>1297</ele>
        <time>2024-07-02T10:10:55Z</time>
      </trkpt>
      <trkpt lat="44.88676" lon="5.27219">
        <ele>1297.1</ele>
        <time>2024-07-02T10:10:56Z</time>
      </trkpt>
      <trkpt lat="44.88676" lon="5.27219">
        <ele>1297.1</ele>
        <time>2024-07-02T10:10:57Z</time>
      </trkpt>
      <trkpt lat="44.88676" lon="5.27219">
        <ele>1297.1</ele>
        <time>2024-07-02T10:10:58Z</time>
      </trkpt>
      <trkpt lat="44.88676" lon="5.27219">
        <ele>1297.1</ele>
        <time>2024-07-02T10:10:59Z</time>
      </trkpt>
      <trkpt lat="44.88676" lon="5.27219">
        <ele>1297.1</ele>
        <time>2024-07-02T10:11:00Z</time>
      </trkpt>
      <trkpt lat="44.88676" lon="5.27219">
        <ele>1297.1</ele>
        <time>2024-07-02T10:11:01Z</time>
      </trkpt>
      <trkpt lat="44.88676" lon="5.27219">
        <ele>1297.1</ele>
        <time>2024-07-02T10:11:02Z</time>
      </trkpt>
      <trkpt lat="44.88676" lon="5.27219">
        <ele>1297.1</ele>
        <time>2024-07-02T10:11:03Z</time>
      </trkpt>
      <trkpt lat="44.88676" lon="5.27219">
        <ele>1297.1</ele>
        <time>2024-07-02T10:11:04Z</time>
      </trkpt>
      <trkpt lat="44.88676" lon="5.27218">
        <ele>1297.1</ele>
        <time>2024-07-02T10:11:05Z</time>
      </trkpt>
      <trkpt lat="44.88676" lon="5.27218">
        <ele>1297.1</ele>
        <time>2024-07-02T10:11:06Z</time>
      </trkpt>
      <trkpt lat="44.88676" lon="5.27219">
        <ele>1297.1</ele>
        <time>2024-07-02T10:11:07Z</time>
      </trkpt>
      <trkpt lat="44.88676" lon="5.27219">
        <ele>1297.1</ele>
        <time>2024-07-02T10:11:08Z</time>
      </trkpt>
      <trkpt lat="44.88676" lon="5.27219">
        <ele>1297.2</ele>
        <time>2024-07-02T10:11:09Z</time>
      </trkpt>
      <trkpt lat="44.88676" lon="5.27219">
        <ele>1297.2</ele>
        <time>2024-07-02T10:11:10Z</time>
      </trkpt>
      <trkpt lat="44.88676" lon="5.27219">
        <ele>1297.2</ele>
        <time>2024-07-02T10:11:11Z</time>
      </trkpt>
      <trkpt lat="44.88676" lon="5.27219">
        <ele>1297.2</ele>
        <time>2024-07-02T10:11:12Z</time>
      </trkpt>
      <trkpt lat="44.88676" lon="5.27219">
        <ele>1297.2</ele>
        <time>2024-07-02T10:11:13Z</time>
      </trkpt>
      <trkpt lat="44.88676" lon="5.27219">
        <ele>1297.2</ele>
        <time>2024-07-02T10:11:14Z</time>
      </trkpt>
      <trkpt lat="44.88676" lon="5.27219">
        <ele>1297.2</ele>
        <time>2024-07-02T10:11:15Z</time>
      </trkpt>
      <trkpt lat="44.88676" lon="5.27219">
        <ele>1297.2</ele>
        <time>2024-07-02T10:11:16Z</time>
      </trkpt>
      <trkpt lat="44.88676" lon="5.27219">
        <ele>1297.3</ele>
        <time>2024-07-02T10:11:17Z</time>
      </trkpt>
      <trkpt lat="44.88677" lon="5.27219">
        <ele>1297.3</ele>
        <time>2024-07-02T10:11:18Z</time>
      </trkpt>
      <trkpt lat="44.88676" lon="5.2722">
        <ele>1297.3</ele>
        <time>2024-07-02T10:11:19Z</time>
      </trkpt>
      <trkpt lat="44.88676" lon="5.2722">
        <ele>1297.4</ele>
        <time>2024-07-02T10:11:20Z</time>
      </trkpt>
      <trkpt lat="44.88676" lon="5.27219">
        <ele>1297.4</ele>
        <time>2024-07-02T10:11:21Z</time>
      </trkpt>
      <trkpt lat="44.88677" lon="5.27219">
        <ele>1297.5</ele>
        <time>2024-07-02T10:11:22Z</time>
      </trkpt>
      <trkpt lat="44.88678" lon="5.2722">
        <ele>1297.5</ele>
        <time>2024-07-02T10:11:23Z</time>
      </trkpt>
      <trkpt lat="44.88679" lon="5.27221">
        <ele>1297.6</ele>
        <time>2024-07-02T10:11:24Z</time>
      </trkpt>
      <trkpt lat="44.8868" lon="5.27221">
        <ele>1297.6</ele>
        <time>2024-07-02T10:11:25Z</time>
      </trkpt>
      <trkpt lat="44.8868" lon="5.27222">
        <ele>1297.7</ele>
        <time>2024-07-02T10:11:26Z</time>
      </trkpt>
      <trkpt lat="44.8868" lon="5.27222">
        <ele>1297.7</ele>
        <time>2024-07-02T10:11:27Z</time>
      </trkpt>
      <trkpt lat="44.8868" lon="5.27223">
        <ele>1297.7</ele>
        <time>2024-07-02T10:11:28Z</time>
      </trkpt>
      <trkpt lat="44.88681" lon="5.27223">
        <ele>1297.7</ele>
        <time>2024-07-02T10:11:29Z</time>
      </trkpt>
      <trkpt lat="44.88681" lon="5.27224">
        <ele>1297.8</ele>
        <time>2024-07-02T10:11:30Z</time>
      </trkpt>
      <trkpt lat="44.88681" lon="5.27224">
        <ele>1297.8</ele>
        <time>2024-07-02T10:11:31Z</time>
      </trkpt>
      <trkpt lat="44.88682" lon="5.27224">
        <ele>1297.8</ele>
        <time>2024-07-02T10:11:32Z</time>
      </trkpt>
      <trkpt lat="44.88682" lon="5.27225">
        <ele>1297.8</ele>
        <time>2024-07-02T10:11:33Z</time>
      </trkpt>
      <trkpt lat="44.88683" lon="5.27225">
        <ele>1297.9</ele>
        <time>2024-07-02T10:11:34Z</time>
      </trkpt>
      <trkpt lat="44.88684" lon="5.27226">
        <ele>1298</ele>
        <time>2024-07-02T10:11:35Z</time>
      </trkpt>
      <trkpt lat="44.88686" lon="5.27228">
        <ele>1298.1</ele>
        <time>2024-07-02T10:11:36Z</time>
      </trkpt>
      <trkpt lat="44.88687" lon="5.27229">
        <ele>1298.2</ele>
        <time>2024-07-02T10:11:37Z</time>
      </trkpt>
      <trkpt lat="44.88687" lon="5.27229">
        <ele>1298.2</ele>
        <time>2024-07-02T10:11:38Z</time>
      </trkpt>
      <trkpt lat="44.88689" lon="5.27231">
        <ele>1298.3</ele>
        <time>2024-07-02T10:11:39Z</time>
      </trkpt>
      <trkpt lat="44.8869" lon="5.27232">
        <ele>1298.4</ele>
        <time>2024-07-02T10:11:40Z</time>
      </trkpt>
      <trkpt lat="44.88691" lon="5.27233">
        <ele>1298.5</ele>
        <time>2024-07-02T10:11:41Z</time>
      </trkpt>
      <trkpt lat="44.88691" lon="5.27235">
        <ele>1298.5</ele>
        <time>2024-07-02T10:11:42Z</time>
      </trkpt>
      <trkpt lat="44.88692" lon="5.27236">
        <ele>1298.6</ele>
        <time>2024-07-02T10:11:43Z</time>
      </trkpt>
      <trkpt lat="44.88693" lon="5.27237">
        <ele>1298.7</ele>
        <time>2024-07-02T10:11:44Z</time>
      </trkpt>
      <trkpt lat="44.88694" lon="5.27238">
        <ele>1298.7</ele>
        <time>2024-07-02T10:11:45Z</time>
      </trkpt>
      <trkpt lat="44.88694" lon="5.2724">
        <ele>1298.8</ele>
        <time>2024-07-02T10:11:46Z</time>
      </trkpt>
      <trkpt lat="44.88695" lon="5.27241">
        <ele>1298.9</ele>
        <time>2024-07-02T10:11:47Z</time>
      </trkpt>
      <trkpt lat="44.88695" lon="5.27243">
        <ele>1299</ele>
        <time>2024-07-02T10:11:48Z</time>
      </trkpt>
      <trkpt lat="44.88695" lon="5.27245">
        <ele>1299.1</ele>
        <time>2024-07-02T10:11:49Z</time>
      </trkpt>
      <trkpt lat="44.88695" lon="5.27246">
        <ele>1299.1</ele>
        <time>2024-07-02T10:11:50Z</time>
      </trkpt>
      <trkpt lat="44.88696" lon="5.27248">
        <ele>1299.2</ele>
        <time>2024-07-02T10:11:51Z</time>
      </trkpt>
      <trkpt lat="44.88697" lon="5.27249">
        <ele>1299.3</ele>
        <time>2024-07-02T10:11:52Z</time>
      </trkpt>
      <trkpt lat="44.88698" lon="5.2725">
        <ele>1299.4</ele>
        <time>2024-07-02T10:11:53Z</time>
      </trkpt>
      <trkpt lat="44.88698" lon="5.27251">
        <ele>1299.5</ele>
        <time>2024-07-02T10:11:54Z</time>
      </trkpt>
      <trkpt lat="44.88699" lon="5.27252">
        <ele>1299.5</ele>
        <time>2024-07-02T10:11:55Z</time>
      </trkpt>
      <trkpt lat="44.887" lon="5.27253">
        <ele>1299.6</ele>
        <time>2024-07-02T10:11:56Z</time>
      </trkpt>
      <trkpt lat="44.88701" lon="5.27254">
        <ele>1299.7</ele>
        <time>2024-07-02T10:11:57Z</time>
      </trkpt>
      <trkpt lat="44.88701" lon="5.27255">
        <ele>1299.7</ele>
        <time>2024-07-02T10:11:58Z</time>
      </trkpt>
      <trkpt lat="44.88702" lon="5.27256">
        <ele>1299.8</ele>
        <time>2024-07-02T10:11:59Z</time>
      </trkpt>
      <trkpt lat="44.88703" lon="5.27257">
        <ele>1299.9</ele>
        <time>2024-07-02T10:12:00Z</time>
      </trkpt>
      <trkpt lat="44.88704" lon="5.27257">
        <ele>1299.9</ele>
        <time>2024-07-02T10:12:01Z</time>
      </trkpt>
      <trkpt lat="44.88704" lon="5.27257">
        <ele>1300</ele>
        <time>2024-07-02T10:12:02Z</time>
      </trkpt>
      <trkpt lat="44.88705" lon="5.27258">
        <ele>1300</ele>
        <time>2024-07-02T10:12:03Z</time>
      </trkpt>
      <trkpt lat="44.88706" lon="5.27257">
        <ele>1300.1</ele>
        <time>2024-07-02T10:12:04Z</time>
      </trkpt>
      <trkpt lat="44.88705" lon="5.27257">
        <ele>1300.1</ele>
        <time>2024-07-02T10:12:05Z</time>
      </trkpt>
      <trkpt lat="44.88705" lon="5.27256">
        <ele>1300.1</ele>
        <time>2024-07-02T10:12:06Z</time>
      </trkpt>
      <trkpt lat="44.88705" lon="5.27256">
        <ele>1300.2</ele>
        <time>2024-07-02T10:12:07Z</time>
      </trkpt>
      <trkpt lat="44.88705" lon="5.27256">
        <ele>1300.2</ele>
        <time>2024-07-02T10:12:08Z</time>
      </trkpt>
      <trkpt lat="44.88704" lon="5.27255">
        <ele>1300.2</ele>
        <time>2024-07-02T10:12:09Z</time>
      </trkpt>
      <trkpt lat="44.88703" lon="5.27256">
        <ele>1300.3</ele>
        <time>2024-07-02T10:12:10Z</time>
      </trkpt>
      <trkpt lat="44.88701" lon="5.27259">
        <ele>1300.5</ele>
        <time>2024-07-02T10:12:11Z</time>
      </trkpt>
      <trkpt lat="44.88703" lon="5.27258">
        <ele>1300.6</ele>
        <time>2024-07-02T10:12:12Z</time>
      </trkpt>
      <trkpt lat="44.88704" lon="5.27257">
        <ele>1300.7</ele>
        <time>2024-07-02T10:12:13Z</time>
      </trkpt>
      <trkpt lat="44.88706" lon="5.27258">
        <ele>1300.8</ele>
        <time>2024-07-02T10:12:14Z</time>
      </trkpt>
      <trkpt lat="44.88707" lon="5.27258">
        <ele>1300.9</ele>
        <time>2024-07-02T10:12:15Z</time>
      </trkpt>
      <trkpt lat="44.88708" lon="5.27259">
        <ele>1300.9</ele>
        <time>2024-07-02T10:12:16Z</time>
      </trkpt>
      <trkpt lat="44.88709" lon="5.2726">
        <ele>1301</ele>
        <time>2024-07-02T10:12:17Z</time>
      </trkpt>
      <trkpt lat="44.8871" lon="5.2726">
        <ele>1301</ele>
        <time>2024-07-02T10:12:18Z</time>
      </trkpt>
      <trkpt lat="44.8871" lon="5.27261">
        <ele>1301.1</ele>
        <time>2024-07-02T10:12:19Z</time>
      </trkpt>
      <trkpt lat="44.88711" lon="5.27262">
        <ele>1301.1</ele>
        <time>2024-07-02T10:12:20Z</time>
      </trkpt>
      <trkpt lat="44.88712" lon="5.27263">
        <ele>1301.1</ele>
        <time>2024-07-02T10:12:21Z</time>
      </trkpt>
      <trkpt lat="44.88712" lon="5.27263">
        <ele>1301.2</ele>
        <time>2024-07-02T10:12:22Z</time>
      </trkpt>
      <trkpt lat="44.88713" lon="5.27264">
        <ele>1301.2</ele>
        <time>2024-07-02T10:12:23Z</time>
      </trkpt>
      <trkpt lat="44.88714" lon="5.27264">
        <ele>1301.3</ele>
        <time>2024-07-02T10:12:24Z</time>
      </trkpt>
      <trkpt lat="44.88715" lon="5.27265">
        <ele>1301.3</ele>
        <time>2024-07-02T10:12:25Z</time>
      </trkpt>
      <trkpt lat="44.88716" lon="5.27265">
        <ele>1301.4</ele>
        <time>2024-07-02T10:12:26Z</time>
      </trkpt>
      <trkpt lat="44.88717" lon="5.27266">
        <ele>1301.4</ele>
        <time>2024-07-02T10:12:27Z</time>
      </trkpt>
      <trkpt lat="44.88718" lon="5.27267">
        <ele>1301.5</ele>
        <time>2024-07-02T10:12:28Z</time>
      </trkpt>
      <trkpt lat="44.88719" lon="5.27267">
        <ele>1301.5</ele>
        <time>2024-07-02T10:12:29Z</time>
      </trkpt>
      <trkpt lat="44.88719" lon="5.27268">
        <ele>1301.6</ele>
        <time>2024-07-02T10:12:30Z</time>
      </trkpt>
      <trkpt lat="44.88721" lon="5.27269">
        <ele>1301.6</ele>
        <time>2024-07-02T10:12:31Z</time>
      </trkpt>
      <trkpt lat="44.88722" lon="5.2727">
        <ele>1301.7</ele>
        <time>2024-07-02T10:12:32Z</time>
      </trkpt>
      <trkpt lat="44.88722" lon="5.2727">
        <ele>1301.7</ele>
        <time>2024-07-02T10:12:33Z</time>
      </trkpt>
      <trkpt lat="44.88723" lon="5.27271">
        <ele>1301.7</ele>
        <time>2024-07-02T10:12:34Z</time>
      </trkpt>
      <trkpt lat="44.88724" lon="5.27271">
        <ele>1301.8</ele>
        <time>2024-07-02T10:12:35Z</time>
      </trkpt>
      <trkpt lat="44.88725" lon="5.27271">
        <ele>1301.8</ele>
        <time>2024-07-02T10:12:36Z</time>
      </trkpt>
      <trkpt lat="44.88725" lon="5.27272">
        <ele>1301.8</ele>
        <time>2024-07-02T10:12:37Z</time>
      </trkpt>
      <trkpt lat="44.88726" lon="5.27272">
        <ele>1301.9</ele>
        <time>2024-07-02T10:12:38Z</time>
      </trkpt>
      <trkpt lat="44.88726" lon="5.27273">
        <ele>1301.9</ele>
        <time>2024-07-02T10:12:39Z</time>
      </trkpt>
      <trkpt lat="44.88727" lon="5.27274">
        <ele>1301.9</ele>
        <time>2024-07-02T10:12:40Z</time>
      </trkpt>
      <trkpt lat="44.88728" lon="5.27275">
        <ele>1302</ele>
        <time>2024-07-02T10:12:41Z</time>
      </trkpt>
      <trkpt lat="44.88728" lon="5.27276">
        <ele>1302</ele>
        <time>2024-07-02T10:12:42Z</time>
      </trkpt>
      <trkpt lat="44.88728" lon="5.27277">
        <ele>1302.1</ele>
        <time>2024-07-02T10:12:43Z</time>
      </trkpt>
      <trkpt lat="44.88728" lon="5.27278">
        <ele>1302.1</ele>
        <time>2024-07-02T10:12:44Z</time>
      </trkpt>
      <trkpt lat="44.88728" lon="5.27278">
        <ele>1302.1</ele>
        <time>2024-07-02T10:12:45Z</time>
      </trkpt>
      <trkpt lat="44.88728" lon="5.27279">
        <ele>1302.1</ele>
        <time>2024-07-02T10:12:46Z</time>
      </trkpt>
      <trkpt lat="44.88729" lon="5.27279">
        <ele>1302.2</ele>
        <time>2024-07-02T10:12:47Z</time>
      </trkpt>
      <trkpt lat="44.88729" lon="5.2728">
        <ele>1302.2</ele>
        <time>2024-07-02T10:12:48Z</time>
      </trkpt>
      <trkpt lat="44.8873" lon="5.27281">
        <ele>1302.3</ele>
        <time>2024-07-02T10:12:49Z</time>
      </trkpt>
      <trkpt lat="44.8873" lon="5.27282">
        <ele>1302.3</ele>
        <time>2024-07-02T10:12:50Z</time>
      </trkpt>
      <trkpt lat="44.88731" lon="5.27282">
        <ele>1302.3</ele>
        <time>2024-07-02T10:12:51Z</time>
      </trkpt>
      <trkpt lat="44.88731" lon="5.27283">
        <ele>1302.4</ele>
        <time>2024-07-02T10:12:52Z</time>
      </trkpt>
      <trkpt lat="44.88731" lon="5.27284">
        <ele>1302.4</ele>
        <time>2024-07-02T10:12:53Z</time>
      </trkpt>
      <trkpt lat="44.88732" lon="5.27285">
        <ele>1302.5</ele>
        <time>2024-07-02T10:12:54Z</time>
      </trkpt>
      <trkpt lat="44.88732" lon="5.27286">
        <ele>1302.5</ele>
        <time>2024-07-02T10:12:55Z</time>
      </trkpt>
      <trkpt lat="44.88733" lon="5.27287">
        <ele>1302.6</ele>
        <time>2024-07-02T10:12:56Z</time>
      </trkpt>
      <trkpt lat="44.88734" lon="5.27287">
        <ele>1302.6</ele>
        <time>2024-07-02T10:12:57Z</time>
      </trkpt>
      <trkpt lat="44.88735" lon="5.27288">
        <ele>1302.7</ele>
        <time>2024-07-02T10:12:58Z</time>
      </trkpt>
      <trkpt lat="44.88735" lon="5.27288">
        <ele>1302.7</ele>
        <time>2024-07-02T10:12:59Z</time>
      </trkpt>
      <trkpt lat="44.88736" lon="5.27289">
        <ele>1302.7</ele>
        <time>2024-07-02T10:13:00Z</time>
      </trkpt>
      <trkpt lat="44.88736" lon="5.27289">
        <ele>1302.8</ele>
        <time>2024-07-02T10:13:01Z</time>
      </trkpt>
      <trkpt lat="44.88736" lon="5.2729">
        <ele>1302.8</ele>
        <time>2024-07-02T10:13:02Z</time>
      </trkpt>
      <trkpt lat="44.88737" lon="5.27291">
        <ele>1302.8</ele>
        <time>2024-07-02T10:13:03Z</time>
      </trkpt>
      <trkpt lat="44.88737" lon="5.27292">
        <ele>1302.9</ele>
        <time>2024-07-02T10:13:04Z</time>
      </trkpt>
      <trkpt lat="44.88738" lon="5.27293">
        <ele>1303</ele>
        <time>2024-07-02T10:13:05Z</time>
      </trkpt>
      <trkpt lat="44.88739" lon="5.27294">
        <ele>1303.1</ele>
        <time>2024-07-02T10:13:06Z</time>
      </trkpt>
      <trkpt lat="44.8874" lon="5.27295">
        <ele>1303.1</ele>
        <time>2024-07-02T10:13:07Z</time>
      </trkpt>
      <trkpt lat="44.8874" lon="5.27296">
        <ele>1303.2</ele>
        <time>2024-07-02T10:13:08Z</time>
      </trkpt>
      <trkpt lat="44.88741" lon="5.27297">
        <ele>1303.2</ele>
        <time>2024-07-02T10:13:09Z</time>
      </trkpt>
      <trkpt lat="44.88741" lon="5.27298">
        <ele>1303.3</ele>
        <time>2024-07-02T10:13:10Z</time>
      </trkpt>
      <trkpt lat="44.88742" lon="5.27299">
        <ele>1303.4</ele>
        <time>2024-07-02T10:13:11Z</time>
      </trkpt>
      <trkpt lat="44.88743" lon="5.273">
        <ele>1303.4</ele>
        <time>2024-07-02T10:13:12Z</time>
      </trkpt>
      <trkpt lat="44.88743" lon="5.27301">
        <ele>1303.5</ele>
        <time>2024-07-02T10:13:13Z</time>
      </trkpt>
      <trkpt lat="44.88744" lon="5.27302">
        <ele>1303.6</ele>
        <time>2024-07-02T10:13:14Z</time>
      </trkpt>
      <trkpt lat="44.88745" lon="5.27303">
        <ele>1303.7</ele>
        <time>2024-07-02T10:13:15Z</time>
      </trkpt>
      <trkpt lat="44.88745" lon="5.27304">
        <ele>1303.7</ele>
        <time>2024-07-02T10:13:16Z</time>
      </trkpt>
      <trkpt lat="44.88746" lon="5.27305">
        <ele>1303.8</ele>
        <time>2024-07-02T10:13:17Z</time>
      </trkpt>
      <trkpt lat="44.88747" lon="5.27306">
        <ele>1303.9</ele>
        <time>2024-07-02T10:13:18Z</time>
      </trkpt>
      <trkpt lat="44.88747" lon="5.27307">
        <ele>1303.9</ele>
        <time>2024-07-02T10:13:19Z</time>
      </trkpt>
      <trkpt lat="44.88748" lon="5.27308">
        <ele>1304</ele>
        <time>2024-07-02T10:13:20Z</time>
      </trkpt>
      <trkpt lat="44.88749" lon="5.27308">
        <ele>1304</ele>
        <time>2024-07-02T10:13:21Z</time>
      </trkpt>
      <trkpt lat="44.8875" lon="5.27309">
        <ele>1304.1</ele>
        <time>2024-07-02T10:13:22Z</time>
      </trkpt>
      <trkpt lat="44.8875" lon="5.2731">
        <ele>1304.2</ele>
        <time>2024-07-02T10:13:23Z</time>
      </trkpt>
      <trkpt lat="44.88751" lon="5.27311">
        <ele>1304.2</ele>
        <time>2024-07-02T10:13:24Z</time>
      </trkpt>
      <trkpt lat="44.88752" lon="5.27312">
        <ele>1304.3</ele>
        <time>2024-07-02T10:13:25Z</time>
      </trkpt>
      <trkpt lat="44.88753" lon="5.27314">
        <ele>1304.4</ele>
        <time>2024-07-02T10:13:26Z</time>
      </trkpt>
      <trkpt lat="44.88753" lon="5.27314">
        <ele>1304.5</ele>
        <time>2024-07-02T10:13:27Z</time>
      </trkpt>
      <trkpt lat="44.88754" lon="5.27315">
        <ele>1304.5</ele>
        <time>2024-07-02T10:13:28Z</time>
      </trkpt>
      <trkpt lat="44.88754" lon="5.27316">
        <ele>1304.6</ele>
        <time>2024-07-02T10:13:29Z</time>
      </trkpt>
      <trkpt lat="44.88755" lon="5.27317">
        <ele>1304.7</ele>
        <time>2024-07-02T10:13:30Z</time>
      </trkpt>
      <trkpt lat="44.88755" lon="5.27318">
        <ele>1304.7</ele>
        <time>2024-07-02T10:13:31Z</time>
      </trkpt>
      <trkpt lat="44.88755" lon="5.2732">
        <ele>1304.8</ele>
        <time>2024-07-02T10:13:32Z</time>
      </trkpt>
      <trkpt lat="44.88755" lon="5.27321">
        <ele>1304.9</ele>
        <time>2024-07-02T10:13:33Z</time>
      </trkpt>
      <trkpt lat="44.88755" lon="5.27322">
        <ele>1305</ele>
        <time>2024-07-02T10:13:34Z</time>
      </trkpt>
      <trkpt lat="44.88755" lon="5.27324">
        <ele>1305</ele>
        <time>2024-07-02T10:13:35Z</time>
      </trkpt>
      <trkpt lat="44.88754" lon="5.27325">
        <ele>1305.1</ele>
        <time>2024-07-02T10:13:36Z</time>
      </trkpt>
      <trkpt lat="44.88753" lon="5.27326">
        <ele>1305.2</ele>
        <time>2024-07-02T10:13:37Z</time>
      </trkpt>
      <trkpt lat="44.88753" lon="5.27328">
        <ele>1305.3</ele>
        <time>2024-07-02T10:13:38Z</time>
      </trkpt>
      <trkpt lat="44.88752" lon="5.27328">
        <ele>1305.3</ele>
        <time>2024-07-02T10:13:39Z</time>
      </trkpt>
      <trkpt lat="44.88751" lon="5.27329">
        <ele>1305.4</ele>
        <time>2024-07-02T10:13:40Z</time>
      </trkpt>
      <trkpt lat="44.88751" lon="5.2733">
        <ele>1305.4</ele>
        <time>2024-07-02T10:13:41Z</time>
      </trkpt>
      <trkpt lat="44.8875" lon="5.27331">
        <ele>1305.5</ele>
        <time>2024-07-02T10:13:42Z</time>
      </trkpt>
      <trkpt lat="44.88749" lon="5.27332">
        <ele>1305.6</ele>
        <time>2024-07-02T10:13:43Z</time>
      </trkpt>
      <trkpt lat="44.88749" lon="5.27333">
        <ele>1305.6</ele>
        <time>2024-07-02T10:13:44Z</time>
      </trkpt>
      <trkpt lat="44.88749" lon="5.27333">
        <ele>1305.7</ele>
        <time>2024-07-02T10:13:45Z</time>
      </trkpt>
      <trkpt lat="44.88749" lon="5.27334">
        <ele>1305.7</ele>
        <time>2024-07-02T10:13:46Z</time>
      </trkpt>
      <trkpt lat="44.88749" lon="5.27335">
        <ele>1305.8</ele>
        <time>2024-07-02T10:13:47Z</time>
      </trkpt>
      <trkpt lat="44.88748" lon="5.27337">
        <ele>1305.8</ele>
        <time>2024-07-02T10:13:48Z</time>
      </trkpt>
      <trkpt lat="44.88749" lon="5.27338">
        <ele>1305.9</ele>
        <time>2024-07-02T10:13:49Z</time>
      </trkpt>
      <trkpt lat="44.88749" lon="5.2734">
        <ele>1306</ele>
        <time>2024-07-02T10:13:50Z</time>
      </trkpt>
      <trkpt lat="44.88749" lon="5.27341">
        <ele>1306</ele>
        <time>2024-07-02T10:13:51Z</time>
      </trkpt>
      <trkpt lat="44.88749" lon="5.27343">
        <ele>1306.1</ele>
        <time>2024-07-02T10:13:52Z</time>
      </trkpt>
      <trkpt lat="44.88749" lon="5.27344">
        <ele>1306.2</ele>
        <time>2024-07-02T10:13:53Z</time>
      </trkpt>
      <trkpt lat="44.88749" lon="5.27348">
        <ele>1306.4</ele>
        <time>2024-07-02T10:13:54Z</time>
      </trkpt>
      <trkpt lat="44.88749" lon="5.27349">
        <ele>1306.4</ele>
        <time>2024-07-02T10:13:55Z</time>
      </trkpt>
      <trkpt lat="44.88749" lon="5.2735">
        <ele>1306.5</ele>
        <time>2024-07-02T10:13:56Z</time>
      </trkpt>
      <trkpt lat="44.88749" lon="5.27353">
        <ele>1306.6</ele>
        <time>2024-07-02T10:13:57Z</time>
      </trkpt>
      <trkpt lat="44.8875" lon="5.27354">
        <ele>1306.7</ele>
        <time>2024-07-02T10:13:58Z</time>
      </trkpt>
      <trkpt lat="44.8875" lon="5.27356">
        <ele>1306.7</ele>
        <time>2024-07-02T10:13:59Z</time>
      </trkpt>
      <trkpt lat="44.8875" lon="5.27357">
        <ele>1306.8</ele>
        <time>2024-07-02T10:14:00Z</time>
      </trkpt>
      <trkpt lat="44.8875" lon="5.27359">
        <ele>1306.9</ele>
        <time>2024-07-02T10:14:01Z</time>
      </trkpt>
      <trkpt lat="44.88749" lon="5.2736">
        <ele>1306.9</ele>
        <time>2024-07-02T10:14:02Z</time>
      </trkpt>
      <trkpt lat="44.88749" lon="5.27362">
        <ele>1307</ele>
        <time>2024-07-02T10:14:03Z</time>
      </trkpt>
      <trkpt lat="44.88749" lon="5.27363">
        <ele>1307.1</ele>
        <time>2024-07-02T10:14:04Z</time>
      </trkpt>
      <trkpt lat="44.88749" lon="5.27365">
        <ele>1307.1</ele>
        <time>2024-07-02T10:14:05Z</time>
      </trkpt>
      <trkpt lat="44.88748" lon="5.27366">
        <ele>1307.2</ele>
        <time>2024-07-02T10:14:06Z</time>
      </trkpt>
      <trkpt lat="44.88748" lon="5.27367">
        <ele>1307.2</ele>
        <time>2024-07-02T10:14:07Z</time>
      </trkpt>
      <trkpt lat="44.88747" lon="5.27368">
        <ele>1307.3</ele>
        <time>2024-07-02T10:14:08Z</time>
      </trkpt>
      <trkpt lat="44.88747" lon="5.27369">
        <ele>1307.3</ele>
        <time>2024-07-02T10:14:09Z</time>
      </trkpt>
      <trkpt lat="44.88747" lon="5.2737">
        <ele>1307.4</ele>
        <time>2024-07-02T10:14:10Z</time>
      </trkpt>
      <trkpt lat="44.88746" lon="5.27371">
        <ele>1307.4</ele>
        <time>2024-07-02T10:14:11Z</time>
      </trkpt>
      <trkpt lat="44.88746" lon="5.27373">
        <ele>1307.4</ele>
        <time>2024-07-02T10:14:12Z</time>
      </trkpt>
      <trkpt lat="44.88746" lon="5.27374">
        <ele>1307.5</ele>
        <time>2024-07-02T10:14:13Z</time>
      </trkpt>
      <trkpt lat="44.88745" lon="5.27375">
        <ele>1307.6</ele>
        <time>2024-07-02T10:14:14Z</time>
      </trkpt>
      <trkpt lat="44.88745" lon="5.27377">
        <ele>1307.6</ele>
        <time>2024-07-02T10:14:15Z</time>
      </trkpt>
      <trkpt lat="44.88744" lon="5.27378">
        <ele>1307.7</ele>
        <time>2024-07-02T10:14:16Z</time>
      </trkpt>
      <trkpt lat="44.88743" lon="5.27379">
        <ele>1307.7</ele>
        <time>2024-07-02T10:14:17Z</time>
      </trkpt>
      <trkpt lat="44.88743" lon="5.2738">
        <ele>1307.8</ele>
        <time>2024-07-02T10:14:18Z</time>
      </trkpt>
      <trkpt lat="44.88741" lon="5.27383">
        <ele>1307.9</ele>
        <time>2024-07-02T10:14:19Z</time>
      </trkpt>
      <trkpt lat="44.88741" lon="5.27384">
        <ele>1308</ele>
        <time>2024-07-02T10:14:20Z</time>
      </trkpt>
      <trkpt lat="44.8874" lon="5.27385">
        <ele>1308</ele>
        <time>2024-07-02T10:14:21Z</time>
      </trkpt>
      <trkpt lat="44.88739" lon="5.27386">
        <ele>1308.1</ele>
        <time>2024-07-02T10:14:22Z</time>
      </trkpt>
      <trkpt lat="44.88739" lon="5.27387">
        <ele>1308.1</ele>
        <time>2024-07-02T10:14:23Z</time>
      </trkpt>
      <trkpt lat="44.88738" lon="5.27387">
        <ele>1308.2</ele>
        <time>2024-07-02T10:14:24Z</time>
      </trkpt>
      <trkpt lat="44.88737" lon="5.27388">
        <ele>1308.2</ele>
        <time>2024-07-02T10:14:25Z</time>
      </trkpt>
      <trkpt lat="44.88736" lon="5.27389">
        <ele>1308.3</ele>
        <time>2024-07-02T10:14:26Z</time>
      </trkpt>
      <trkpt lat="44.88735" lon="5.2739">
        <ele>1308.4</ele>
        <time>2024-07-02T10:14:27Z</time>
      </trkpt>
      <trkpt lat="44.88734" lon="5.2739">
        <ele>1308.4</ele>
        <time>2024-07-02T10:14:28Z</time>
      </trkpt>
      <trkpt lat="44.88733" lon="5.27391">
        <ele>1308.5</ele>
        <time>2024-07-02T10:14:29Z</time>
      </trkpt>
      <trkpt lat="44.88732" lon="5.27392">
        <ele>1308.6</ele>
        <time>2024-07-02T10:14:30Z</time>
      </trkpt>
      <trkpt lat="44.88731" lon="5.27393">
        <ele>1308.6</ele>
        <time>2024-07-02T10:14:31Z</time>
      </trkpt>
      <trkpt lat="44.8873" lon="5.27394">
        <ele>1308.7</ele>
        <time>2024-07-02T10:14:32Z</time>
      </trkpt>
      <trkpt lat="44.88729" lon="5.27395">
        <ele>1308.8</ele>
        <time>2024-07-02T10:14:33Z</time>
      </trkpt>
      <trkpt lat="44.88728" lon="5.27395">
        <ele>1308.8</ele>
        <time>2024-07-02T10:14:34Z</time>
      </trkpt>
      <trkpt lat="44.88727" lon="5.27396">
        <ele>1308.9</ele>
        <time>2024-07-02T10:14:35Z</time>
      </trkpt>
      <trkpt lat="44.88726" lon="5.27397">
        <ele>1309</ele>
        <time>2024-07-02T10:14:36Z</time>
      </trkpt>
      <trkpt lat="44.88725" lon="5.27398">
        <ele>1309.1</ele>
        <time>2024-07-02T10:14:37Z</time>
      </trkpt>
      <trkpt lat="44.88725" lon="5.27399">
        <ele>1309.1</ele>
        <time>2024-07-02T10:14:38Z</time>
      </trkpt>
      <trkpt lat="44.88724" lon="5.274">
        <ele>1309.2</ele>
        <time>2024-07-02T10:14:39Z</time>
      </trkpt>
      <trkpt lat="44.88724" lon="5.27401">
        <ele>1309.3</ele>
        <time>2024-07-02T10:14:40Z</time>
      </trkpt>
      <trkpt lat="44.88723" lon="5.27402">
        <ele>1309.3</ele>
        <time>2024-07-02T10:14:41Z</time>
      </trkpt>
      <trkpt lat="44.88722" lon="5.27403">
        <ele>1309.4</ele>
        <time>2024-07-02T10:14:42Z</time>
      </trkpt>
      <trkpt lat="44.88721" lon="5.27405">
        <ele>1309.5</ele>
        <time>2024-07-02T10:14:43Z</time>
      </trkpt>
      <trkpt lat="44.88721" lon="5.27406">
        <ele>1309.6</ele>
        <time>2024-07-02T10:14:44Z</time>
      </trkpt>
      <trkpt lat="44.8872" lon="5.27407">
        <ele>1309.7</ele>
        <time>2024-07-02T10:14:45Z</time>
      </trkpt>
      <trkpt lat="44.88719" lon="5.27408">
        <ele>1309.7</ele>
        <time>2024-07-02T10:14:46Z</time>
      </trkpt>
      <trkpt lat="44.88719" lon="5.27409">
        <ele>1309.8</ele>
        <time>2024-07-02T10:14:47Z</time>
      </trkpt>
      <trkpt lat="44.88718" lon="5.2741">
        <ele>1309.9</ele>
        <time>2024-07-02T10:14:48Z</time>
      </trkpt>
      <trkpt lat="44.88718" lon="5.27411">
        <ele>1309.9</ele>
        <time>2024-07-02T10:14:49Z</time>
      </trkpt>
      <trkpt lat="44.88718" lon="5.27413">
        <ele>1310</ele>
        <time>2024-07-02T10:14:50Z</time>
      </trkpt>
      <trkpt lat="44.88717" lon="5.27414">
        <ele>1310.1</ele>
        <time>2024-07-02T10:14:51Z</time>
      </trkpt>
      <trkpt lat="44.88717" lon="5.27415">
        <ele>1310.2</ele>
        <time>2024-07-02T10:14:52Z</time>
      </trkpt>
      <trkpt lat="44.88717" lon="5.27417">
        <ele>1310.2</ele>
        <time>2024-07-02T10:14:53Z</time>
      </trkpt>
      <trkpt lat="44.88717" lon="5.27418">
        <ele>1310.3</ele>
        <time>2024-07-02T10:14:54Z</time>
      </trkpt>
      <trkpt lat="44.88717" lon="5.2742">
        <ele>1310.4</ele>
        <time>2024-07-02T10:14:55Z</time>
      </trkpt>
      <trkpt lat="44.88717" lon="5.27421">
        <ele>1310.4</ele>
        <time>2024-07-02T10:14:56Z</time>
      </trkpt>
      <trkpt lat="44.88717" lon="5.27423">
        <ele>1310.5</ele>
        <time>2024-07-02T10:14:57Z</time>
      </trkpt>
      <trkpt lat="44.88717" lon="5.27424">
        <ele>1310.6</ele>
        <time>2024-07-02T10:14:58Z</time>
      </trkpt>
      <trkpt lat="44.88716" lon="5.27426">
        <ele>1310.6</ele>
        <time>2024-07-02T10:14:59Z</time>
      </trkpt>
      <trkpt lat="44.88716" lon="5.27427">
        <ele>1310.7</ele>
        <time>2024-07-02T10:15:00Z</time>
      </trkpt>
      <trkpt lat="44.88716" lon="5.27429">
        <ele>1310.8</ele>
        <time>2024-07-02T10:15:01Z</time>
      </trkpt>
      <trkpt lat="44.88716" lon="5.2743">
        <ele>1310.9</ele>
        <time>2024-07-02T10:15:02Z</time>
      </trkpt>
      <trkpt lat="44.88716" lon="5.27431">
        <ele>1310.9</ele>
        <time>2024-07-02T10:15:03Z</time>
      </trkpt>
      <trkpt lat="44.88715" lon="5.27432">
        <ele>1310.9</ele>
        <time>2024-07-02T10:15:04Z</time>
      </trkpt>
      <trkpt lat="44.88715" lon="5.27432">
        <ele>1311</ele>
        <time>2024-07-02T10:15:05Z</time>
      </trkpt>
      <trkpt lat="44.88715" lon="5.27434">
        <ele>1311</ele>
        <time>2024-07-02T10:15:06Z</time>
      </trkpt>
      <trkpt lat="44.88715" lon="5.27435">
        <ele>1311.1</ele>
        <time>2024-07-02T10:15:07Z</time>
      </trkpt>
      <trkpt lat="44.88714" lon="5.27436">
        <ele>1311.2</ele>
        <time>2024-07-02T10:15:08Z</time>
      </trkpt>
      <trkpt lat="44.88714" lon="5.27437">
        <ele>1311.2</ele>
        <time>2024-07-02T10:15:09Z</time>
      </trkpt>
      <trkpt lat="44.88713" lon="5.27438">
        <ele>1311.3</ele>
        <time>2024-07-02T10:15:10Z</time>
      </trkpt>
      <trkpt lat="44.88713" lon="5.2744">
        <ele>1311.4</ele>
        <time>2024-07-02T10:15:11Z</time>
      </trkpt>
      <trkpt lat="44.88713" lon="5.27441">
        <ele>1311.4</ele>
        <time>2024-07-02T10:15:12Z</time>
      </trkpt>
      <trkpt lat="44.88712" lon="5.27442">
        <ele>1311.5</ele>
        <time>2024-07-02T10:15:13Z</time>
      </trkpt>
      <trkpt lat="44.88712" lon="5.27443">
        <ele>1311.5</ele>
        <time>2024-07-02T10:15:14Z</time>
      </trkpt>
      <trkpt lat="44.88712" lon="5.27444">
        <ele>1311.6</ele>
        <time>2024-07-02T10:15:15Z</time>
      </trkpt>
      <trkpt lat="44.88711" lon="5.27445">
        <ele>1311.6</ele>
        <time>2024-07-02T10:15:16Z</time>
      </trkpt>
      <trkpt lat="44.88711" lon="5.27446">
        <ele>1311.6</ele>
        <time>2024-07-02T10:15:17Z</time>
      </trkpt>
      <trkpt lat="44.8871" lon="5.27447">
        <ele>1311.7</ele>
        <time>2024-07-02T10:15:18Z</time>
      </trkpt>
      <trkpt lat="44.8871" lon="5.27449">
        <ele>1311.8</ele>
        <time>2024-07-02T10:15:19Z</time>
      </trkpt>
      <trkpt lat="44.88709" lon="5.27449">
        <ele>1311.8</ele>
        <time>2024-07-02T10:15:20Z</time>
      </trkpt>
      <trkpt lat="44.88709" lon="5.27451">
        <ele>1311.9</ele>
        <time>2024-07-02T10:15:21Z</time>
      </trkpt>
      <trkpt lat="44.88708" lon="5.27451">
        <ele>1311.9</ele>
        <time>2024-07-02T10:15:22Z</time>
      </trkpt>
      <trkpt lat="44.88708" lon="5.27452">
        <ele>1312</ele>
        <time>2024-07-02T10:15:23Z</time>
      </trkpt>
      <trkpt lat="44.88707" lon="5.27454">
        <ele>1312</ele>
        <time>2024-07-02T10:15:24Z</time>
      </trkpt>
      <trkpt lat="44.88707" lon="5.27455">
        <ele>1312.1</ele>
        <time>2024-07-02T10:15:25Z</time>
      </trkpt>
      <trkpt lat="44.88706" lon="5.27456">
        <ele>1312.1</ele>
        <time>2024-07-02T10:15:26Z</time>
      </trkpt>
      <trkpt lat="44.88706" lon="5.27457">
        <ele>1312.2</ele>
        <time>2024-07-02T10:15:27Z</time>
      </trkpt>
      <trkpt lat="44.88705" lon="5.27458">
        <ele>1312.3</ele>
        <time>2024-07-02T10:15:28Z</time>
      </trkpt>
      <trkpt lat="44.88704" lon="5.2746">
        <ele>1312.3</ele>
        <time>2024-07-02T10:15:29Z</time>
      </trkpt>
      <trkpt lat="44.88704" lon="5.27461">
        <ele>1312.4</ele>
        <time>2024-07-02T10:15:30Z</time>
      </trkpt>
      <trkpt lat="44.88703" lon="5.27462">
        <ele>1312.4</ele>
        <time>2024-07-02T10:15:31Z</time>
      </trkpt>
      <trkpt lat="44.88703" lon="5.27463">
        <ele>1312.5</ele>
        <time>2024-07-02T10:15:32Z</time>
      </trkpt>
      <trkpt lat="44.88702" lon="5.27464">
        <ele>1312.5</ele>
        <time>2024-07-02T10:15:33Z</time>
      </trkpt>
      <trkpt lat="44.88702" lon="5.27465">
        <ele>1312.6</ele>
        <time>2024-07-02T10:15:34Z</time>
      </trkpt>
      <trkpt lat="44.887" lon="5.27467">
        <ele>1312.7</ele>
        <time>2024-07-02T10:15:35Z</time>
      </trkpt>
      <trkpt lat="44.887" lon="5.27468">
        <ele>1312.7</ele>
        <time>2024-07-02T10:15:36Z</time>
      </trkpt>
      <trkpt lat="44.88699" lon="5.27469">
        <ele>1312.8</ele>
        <time>2024-07-02T10:15:37Z</time>
      </trkpt>
      <trkpt lat="44.88699" lon="5.2747">
        <ele>1312.8</ele>
        <time>2024-07-02T10:15:38Z</time>
      </trkpt>
      <trkpt lat="44.88698" lon="5.27472">
        <ele>1312.9</ele>
        <time>2024-07-02T10:15:39Z</time>
      </trkpt>
      <trkpt lat="44.88698" lon="5.27473">
        <ele>1313</ele>
        <time>2024-07-02T10:15:40Z</time>
      </trkpt>
      <trkpt lat="44.88697" lon="5.27474">
        <ele>1313</ele>
        <time>2024-07-02T10:15:41Z</time>
      </trkpt>
      <trkpt lat="44.88696" lon="5.27476">
        <ele>1313.1</ele>
        <time>2024-07-02T10:15:42Z</time>
      </trkpt>
      <trkpt lat="44.88696" lon="5.27477">
        <ele>1313.1</ele>
        <time>2024-07-02T10:15:43Z</time>
      </trkpt>
      <trkpt lat="44.88695" lon="5.2748">
        <ele>1313.3</ele>
        <time>2024-07-02T10:15:44Z</time>
      </trkpt>
      <trkpt lat="44.88694" lon="5.27482">
        <ele>1313.3</ele>
        <time>2024-07-02T10:15:45Z</time>
      </trkpt>
      <trkpt lat="44.88694" lon="5.27483">
        <ele>1313.3</ele>
        <time>2024-07-02T10:15:46Z</time>
      </trkpt>
      <trkpt lat="44.88693" lon="5.27485">
        <ele>1313.4</ele>
        <time>2024-07-02T10:15:47Z</time>
      </trkpt>
      <trkpt lat="44.88693" lon="5.27486">
        <ele>1313.5</ele>
        <time>2024-07-02T10:15:48Z</time>
      </trkpt>
      <trkpt lat="44.88692" lon="5.27488">
        <ele>1313.5</ele>
        <time>2024-07-02T10:15:49Z</time>
      </trkpt>
      <trkpt lat="44.88692" lon="5.2749">
        <ele>1313.6</ele>
        <time>2024-07-02T10:15:50Z</time>
      </trkpt>
      <trkpt lat="44.88691" lon="5.27492">
        <ele>1313.7</ele>
        <time>2024-07-02T10:15:51Z</time>
      </trkpt>
      <trkpt lat="44.88691" lon="5.27493">
        <ele>1313.7</ele>
        <time>2024-07-02T10:15:52Z</time>
      </trkpt>
      <trkpt lat="44.88689" lon="5.27496">
        <ele>1313.8</ele>
        <time>2024-07-02T10:15:53Z</time>
      </trkpt>
      <trkpt lat="44.88689" lon="5.27497">
        <ele>1313.9</ele>
        <time>2024-07-02T10:15:54Z</time>
      </trkpt>
      <trkpt lat="44.88688" lon="5.27498">
        <ele>1313.9</ele>
        <time>2024-07-02T10:15:55Z</time>
      </trkpt>
      <trkpt lat="44.88688" lon="5.275">
        <ele>1314</ele>
        <time>2024-07-02T10:15:56Z</time>
      </trkpt>
      <trkpt lat="44.88687" lon="5.27501">
        <ele>1314.1</ele>
        <time>2024-07-02T10:15:57Z</time>
      </trkpt>
      <trkpt lat="44.88686" lon="5.27504">
        <ele>1314.2</ele>
        <time>2024-07-02T10:15:58Z</time>
      </trkpt>
      <trkpt lat="44.88686" lon="5.27505">
        <ele>1314.2</ele>
        <time>2024-07-02T10:15:59Z</time>
      </trkpt>
      <trkpt lat="44.88685" lon="5.27506">
        <ele>1314.3</ele>
        <time>2024-07-02T10:16:00Z</time>
      </trkpt>
      <trkpt lat="44.88685" lon="5.27507">
        <ele>1314.3</ele>
        <time>2024-07-02T10:16:01Z</time>
      </trkpt>
      <trkpt lat="44.88684" lon="5.27509">
        <ele>1314.4</ele>
        <time>2024-07-02T10:16:02Z</time>
      </trkpt>
      <trkpt lat="44.88684" lon="5.2751">
        <ele>1314.4</ele>
        <time>2024-07-02T10:16:03Z</time>
      </trkpt>
      <trkpt lat="44.88684" lon="5.27511">
        <ele>1314.5</ele>
        <time>2024-07-02T10:16:04Z</time>
      </trkpt>
      <trkpt lat="44.88683" lon="5.27513">
        <ele>1314.5</ele>
        <time>2024-07-02T10:16:05Z</time>
      </trkpt>
      <trkpt lat="44.88683" lon="5.27514">
        <ele>1314.6</ele>
        <time>2024-07-02T10:16:06Z</time>
      </trkpt>
      <trkpt lat="44.88683" lon="5.27515">
        <ele>1314.7</ele>
        <time>2024-07-02T10:16:07Z</time>
      </trkpt>
      <trkpt lat="44.88682" lon="5.27517">
        <ele>1314.7</ele>
        <time>2024-07-02T10:16:08Z</time>
      </trkpt>
      <trkpt lat="44.88682" lon="5.27518">
        <ele>1314.8</ele>
        <time>2024-07-02T10:16:09Z</time>
      </trkpt>
      <trkpt lat="44.88682" lon="5.27519">
        <ele>1314.8</ele>
        <time>2024-07-02T10:16:10Z</time>
      </trkpt>
      <trkpt lat="44.88682" lon="5.2752">
        <ele>1314.8</ele>
        <time>2024-07-02T10:16:11Z</time>
      </trkpt>
      <trkpt lat="44.88681" lon="5.27522">
        <ele>1314.9</ele>
        <time>2024-07-02T10:16:12Z</time>
      </trkpt>
      <trkpt lat="44.88682" lon="5.27523">
        <ele>1315</ele>
        <time>2024-07-02T10:16:13Z</time>
      </trkpt>
      <trkpt lat="44.88682" lon="5.27524">
        <ele>1315</ele>
        <time>2024-07-02T10:16:14Z</time>
      </trkpt>
      <trkpt lat="44.88682" lon="5.27526">
        <ele>1315.1</ele>
        <time>2024-07-02T10:16:15Z</time>
      </trkpt>
      <trkpt lat="44.88682" lon="5.27528">
        <ele>1315.1</ele>
        <time>2024-07-02T10:16:16Z</time>
      </trkpt>
      <trkpt lat="44.88683" lon="5.27529">
        <ele>1315.2</ele>
        <time>2024-07-02T10:16:17Z</time>
      </trkpt>
      <trkpt lat="44.88683" lon="5.2753">
        <ele>1315.2</ele>
        <time>2024-07-02T10:16:18Z</time>
      </trkpt>
      <trkpt lat="44.88683" lon="5.27531">
        <ele>1315.3</ele>
        <time>2024-07-02T10:16:19Z</time>
      </trkpt>
      <trkpt lat="44.88684" lon="5.27533">
        <ele>1315.3</ele>
        <time>2024-07-02T10:16:20Z</time>
      </trkpt>
      <trkpt lat="44.88684" lon="5.27534">
        <ele>1315.4</ele>
        <time>2024-07-02T10:16:21Z</time>
      </trkpt>
      <trkpt lat="44.88684" lon="5.27536">
        <ele>1315.4</ele>
        <time>2024-07-02T10:16:22Z</time>
      </trkpt>
      <trkpt lat="44.88684" lon="5.27537">
        <ele>1315.5</ele>
        <time>2024-07-02T10:16:23Z</time>
      </trkpt>
      <trkpt lat="44.88684" lon="5.27538">
        <ele>1315.5</ele>
        <time>2024-07-02T10:16:24Z</time>
      </trkpt>
      <trkpt lat="44.88684" lon="5.27539">
        <ele>1315.5</ele>
        <time>2024-07-02T10:16:25Z</time>
      </trkpt>
      <trkpt lat="44.88685" lon="5.2754">
        <ele>1315.6</ele>
        <time>2024-07-02T10:16:26Z</time>
      </trkpt>
      <trkpt lat="44.88685" lon="5.27541">
        <ele>1315.6</ele>
        <time>2024-07-02T10:16:27Z</time>
      </trkpt>
      <trkpt lat="44.88685" lon="5.27542">
        <ele>1315.6</ele>
        <time>2024-07-02T10:16:28Z</time>
      </trkpt>
      <trkpt lat="44.88685" lon="5.27543">
        <ele>1315.7</ele>
        <time>2024-07-02T10:16:29Z</time>
      </trkpt>
      <trkpt lat="44.88685" lon="5.27544">
        <ele>1315.7</ele>
        <time>2024-07-02T10:16:30Z</time>
      </trkpt>
      <trkpt lat="44.88685" lon="5.27545">
        <ele>1315.7</ele>
        <time>2024-07-02T10:16:31Z</time>
      </trkpt>
      <trkpt lat="44.88685" lon="5.27546">
        <ele>1315.8</ele>
        <time>2024-07-02T10:16:32Z</time>
      </trkpt>
      <trkpt lat="44.88686" lon="5.27548">
        <ele>1315.8</ele>
        <time>2024-07-02T10:16:33Z</time>
      </trkpt>
      <trkpt lat="44.88686" lon="5.27548">
        <ele>1315.8</ele>
        <time>2024-07-02T10:16:34Z</time>
      </trkpt>
      <trkpt lat="44.88686" lon="5.27548">
        <ele>1315.8</ele>
        <time>2024-07-02T10:16:35Z</time>
      </trkpt>
      <trkpt lat="44.88685" lon="5.27548">
        <ele>1315.8</ele>
        <time>2024-07-02T10:16:36Z</time>
      </trkpt>
      <trkpt lat="44.88686" lon="5.27549">
        <ele>1315.9</ele>
        <time>2024-07-02T10:16:37Z</time>
      </trkpt>
      <trkpt lat="44.88686" lon="5.2755">
        <ele>1315.9</ele>
        <time>2024-07-02T10:16:38Z</time>
      </trkpt>
      <trkpt lat="44.88686" lon="5.27551">
        <ele>1315.9</ele>
        <time>2024-07-02T10:16:39Z</time>
      </trkpt>
      <trkpt lat="44.88686" lon="5.27552">
        <ele>1316</ele>
        <time>2024-07-02T10:16:40Z</time>
      </trkpt>
      <trkpt lat="44.88687" lon="5.27552">
        <ele>1316</ele>
        <time>2024-07-02T10:16:41Z</time>
      </trkpt>
      <trkpt lat="44.88687" lon="5.27553">
        <ele>1316</ele>
        <time>2024-07-02T10:16:42Z</time>
      </trkpt>
      <trkpt lat="44.88688" lon="5.27555">
        <ele>1316</ele>
        <time>2024-07-02T10:16:43Z</time>
      </trkpt>
      <trkpt lat="44.88688" lon="5.27555">
        <ele>1316.1</ele>
        <time>2024-07-02T10:16:44Z</time>
      </trkpt>
      <trkpt lat="44.88689" lon="5.27557">
        <ele>1316.1</ele>
        <time>2024-07-02T10:16:45Z</time>
      </trkpt>
      <trkpt lat="44.88689" lon="5.27557">
        <ele>1316.1</ele>
        <time>2024-07-02T10:16:46Z</time>
      </trkpt>
      <trkpt lat="44.88689" lon="5.27558">
        <ele>1316.2</ele>
        <time>2024-07-02T10:16:47Z</time>
      </trkpt>
      <trkpt lat="44.8869" lon="5.27559">
        <ele>1316.2</ele>
        <time>2024-07-02T10:16:48Z</time>
      </trkpt>
      <trkpt lat="44.8869" lon="5.2756">
        <ele>1316.2</ele>
        <time>2024-07-02T10:16:49Z</time>
      </trkpt>
      <trkpt lat="44.8869" lon="5.27561">
        <ele>1316.3</ele>
        <time>2024-07-02T10:16:50Z</time>
      </trkpt>
      <trkpt lat="44.88691" lon="5.27562">
        <ele>1316.3</ele>
        <time>2024-07-02T10:16:51Z</time>
      </trkpt>
      <trkpt lat="44.88691" lon="5.27563">
        <ele>1316.3</ele>
        <time>2024-07-02T10:16:52Z</time>
      </trkpt>
      <trkpt lat="44.88691" lon="5.27564">
        <ele>1316.4</ele>
        <time>2024-07-02T10:16:53Z</time>
      </trkpt>
      <trkpt lat="44.88691" lon="5.27565">
        <ele>1316.4</ele>
        <time>2024-07-02T10:16:54Z</time>
      </trkpt>
      <trkpt lat="44.88692" lon="5.27567">
        <ele>1316.4</ele>
        <time>2024-07-02T10:16:55Z</time>
      </trkpt>
      <trkpt lat="44.88692" lon="5.27568">
        <ele>1316.5</ele>
        <time>2024-07-02T10:16:56Z</time>
      </trkpt>
      <trkpt lat="44.88692" lon="5.27569">
        <ele>1316.5</ele>
        <time>2024-07-02T10:16:57Z</time>
      </trkpt>
      <trkpt lat="44.88692" lon="5.27571">
        <ele>1316.6</ele>
        <time>2024-07-02T10:16:58Z</time>
      </trkpt>
      <trkpt lat="44.88693" lon="5.27572">
        <ele>1316.6</ele>
        <time>2024-07-02T10:16:59Z</time>
      </trkpt>
      <trkpt lat="44.88693" lon="5.27573">
        <ele>1316.7</ele>
        <time>2024-07-02T10:17:00Z</time>
      </trkpt>
      <trkpt lat="44.88694" lon="5.27574">
        <ele>1316.7</ele>
        <time>2024-07-02T10:17:01Z</time>
      </trkpt>
      <trkpt lat="44.88694" lon="5.27575">
        <ele>1316.7</ele>
        <time>2024-07-02T10:17:02Z</time>
      </trkpt>
      <trkpt lat="44.88694" lon="5.27576">
        <ele>1316.8</ele>
        <time>2024-07-02T10:17:03Z</time>
      </trkpt>
      <trkpt lat="44.88695" lon="5.27577">
        <ele>1316.8</ele>
        <time>2024-07-02T10:17:04Z</time>
      </trkpt>
      <trkpt lat="44.88695" lon="5.27579">
        <ele>1316.9</ele>
        <time>2024-07-02T10:17:05Z</time>
      </trkpt>
      <trkpt lat="44.88695" lon="5.2758">
        <ele>1316.9</ele>
        <time>2024-07-02T10:17:06Z</time>
      </trkpt>
      <trkpt lat="44.88696" lon="5.27581">
        <ele>1317</ele>
        <time>2024-07-02T10:17:07Z</time>
      </trkpt>
      <trkpt lat="44.88697" lon="5.27583">
        <ele>1317</ele>
        <time>2024-07-02T10:17:08Z</time>
      </trkpt>
      <trkpt lat="44.88698" lon="5.27585">
        <ele>1317.1</ele>
        <time>2024-07-02T10:17:09Z</time>
      </trkpt>
      <trkpt lat="44.88698" lon="5.27586">
        <ele>1317.2</ele>
        <time>2024-07-02T10:17:10Z</time>
      </trkpt>
      <trkpt lat="44.88698" lon="5.27587">
        <ele>1317.2</ele>
        <time>2024-07-02T10:17:11Z</time>
      </trkpt>
      <trkpt lat="44.88699" lon="5.27589">
        <ele>1317.3</ele>
        <time>2024-07-02T10:17:12Z</time>
      </trkpt>
      <trkpt lat="44.88699" lon="5.27591">
        <ele>1317.4</ele>
        <time>2024-07-02T10:17:13Z</time>
      </trkpt>
      <trkpt lat="44.887" lon="5.27593">
        <ele>1317.5</ele>
        <time>2024-07-02T10:17:14Z</time>
      </trkpt>
      <trkpt lat="44.887" lon="5.27595">
        <ele>1317.5</ele>
        <time>2024-07-02T10:17:15Z</time>
      </trkpt>
      <trkpt lat="44.887" lon="5.27596">
        <ele>1317.6</ele>
        <time>2024-07-02T10:17:16Z</time>
      </trkpt>
      <trkpt lat="44.88701" lon="5.27597">
        <ele>1317.7</ele>
        <time>2024-07-02T10:17:17Z</time>
      </trkpt>
      <trkpt lat="44.88701" lon="5.27599">
        <ele>1317.7</ele>
        <time>2024-07-02T10:17:18Z</time>
      </trkpt>
      <trkpt lat="44.88702" lon="5.276">
        <ele>1317.8</ele>
        <time>2024-07-02T10:17:19Z</time>
      </trkpt>
      <trkpt lat="44.88702" lon="5.27601">
        <ele>1317.8</ele>
        <time>2024-07-02T10:17:20Z</time>
      </trkpt>
      <trkpt lat="44.88703" lon="5.27603">
        <ele>1317.9</ele>
        <time>2024-07-02T10:17:21Z</time>
      </trkpt>
      <trkpt lat="44.88703" lon="5.27604">
        <ele>1318</ele>
        <time>2024-07-02T10:17:22Z</time>
      </trkpt>
      <trkpt lat="44.88704" lon="5.27605">
        <ele>1318</ele>
        <time>2024-07-02T10:17:23Z</time>
      </trkpt>
      <trkpt lat="44.88705" lon="5.27606">
        <ele>1318.1</ele>
        <time>2024-07-02T10:17:24Z</time>
      </trkpt>
      <trkpt lat="44.88705" lon="5.27607">
        <ele>1318.1</ele>
        <time>2024-07-02T10:17:25Z</time>
      </trkpt>
      <trkpt lat="44.88706" lon="5.27608">
        <ele>1318.2</ele>
        <time>2024-07-02T10:17:26Z</time>
      </trkpt>
      <trkpt lat="44.88707" lon="5.27609">
        <ele>1318.3</ele>
        <time>2024-07-02T10:17:27Z</time>
      </trkpt>
      <trkpt lat="44.88708" lon="5.2761">
        <ele>1318.3</ele>
        <time>2024-07-02T10:17:28Z</time>
      </trkpt>
      <trkpt lat="44.88708" lon="5.27612">
        <ele>1318.4</ele>
        <time>2024-07-02T10:17:29Z</time>
      </trkpt>
      <trkpt lat="44.88709" lon="5.27612">
        <ele>1318.4</ele>
        <time>2024-07-02T10:17:30Z</time>
      </trkpt>
      <trkpt lat="44.8871" lon="5.27614">
        <ele>1318.5</ele>
        <time>2024-07-02T10:17:31Z</time>
      </trkpt>
      <trkpt lat="44.8871" lon="5.27615">
        <ele>1318.5</ele>
        <time>2024-07-02T10:17:32Z</time>
      </trkpt>
      <trkpt lat="44.88711" lon="5.27616">
        <ele>1318.6</ele>
        <time>2024-07-02T10:17:33Z</time>
      </trkpt>
      <trkpt lat="44.88711" lon="5.27618">
        <ele>1318.6</ele>
        <time>2024-07-02T10:17:34Z</time>
      </trkpt>
      <trkpt lat="44.88712" lon="5.27618">
        <ele>1318.7</ele>
        <time>2024-07-02T10:17:35Z</time>
      </trkpt>
      <trkpt lat="44.88713" lon="5.2762">
        <ele>1318.7</ele>
        <time>2024-07-02T10:17:36Z</time>
      </trkpt>
      <trkpt lat="44.88714" lon="5.27622">
        <ele>1318.8</ele>
        <time>2024-07-02T10:17:37Z</time>
      </trkpt>
      <trkpt lat="44.88715" lon="5.27623">
        <ele>1318.9</ele>
        <time>2024-07-02T10:17:38Z</time>
      </trkpt>
      <trkpt lat="44.88715" lon="5.27624">
        <ele>1318.9</ele>
        <time>2024-07-02T10:17:39Z</time>
      </trkpt>
      <trkpt lat="44.88716" lon="5.27625">
        <ele>1318.9</ele>
        <time>2024-07-02T10:17:40Z</time>
      </trkpt>
      <trkpt lat="44.88717" lon="5.27626">
        <ele>1319</ele>
        <time>2024-07-02T10:17:41Z</time>
      </trkpt>
      <trkpt lat="44.88718" lon="5.27627">
        <ele>1319</ele>
        <time>2024-07-02T10:17:42Z</time>
      </trkpt>
      <trkpt lat="44.88719" lon="5.27628">
        <ele>1319.1</ele>
        <time>2024-07-02T10:17:43Z</time>
      </trkpt>
      <trkpt lat="44.8872" lon="5.27629">
        <ele>1319.2</ele>
        <time>2024-07-02T10:17:44Z</time>
      </trkpt>
      <trkpt lat="44.8872" lon="5.2763">
        <ele>1319.2</ele>
        <time>2024-07-02T10:17:45Z</time>
      </trkpt>
      <trkpt lat="44.88721" lon="5.27631">
        <ele>1319.2</ele>
        <time>2024-07-02T10:17:46Z</time>
      </trkpt>
      <trkpt lat="44.88722" lon="5.27631">
        <ele>1319.3</ele>
        <time>2024-07-02T10:17:47Z</time>
      </trkpt>
      <trkpt lat="44.88723" lon="5.27632">
        <ele>1319.3</ele>
        <time>2024-07-02T10:17:48Z</time>
      </trkpt>
      <trkpt lat="44.88723" lon="5.27633">
        <ele>1319.4</ele>
        <time>2024-07-02T10:17:49Z</time>
      </trkpt>
      <trkpt lat="44.88724" lon="5.27634">
        <ele>1319.4</ele>
        <time>2024-07-02T10:17:50Z</time>
      </trkpt>
      <trkpt lat="44.88725" lon="5.27635">
        <ele>1319.5</ele>
        <time>2024-07-02T10:17:51Z</time>
      </trkpt>
      <trkpt lat="44.88726" lon="5.27636">
        <ele>1319.5</ele>
        <time>2024-07-02T10:17:52Z</time>
      </trkpt>
      <trkpt lat="44.88727" lon="5.27637">
        <ele>1319.6</ele>
        <time>2024-07-02T10:17:53Z</time>
      </trkpt>
      <trkpt lat="44.88727" lon="5.27638">
        <ele>1319.6</ele>
        <time>2024-07-02T10:17:54Z</time>
      </trkpt>
      <trkpt lat="44.88728" lon="5.27639">
        <ele>1319.6</ele>
        <time>2024-07-02T10:17:55Z</time>
      </trkpt>
      <trkpt lat="44.88729" lon="5.2764">
        <ele>1319.7</ele>
        <time>2024-07-02T10:17:56Z</time>
      </trkpt>
      <trkpt lat="44.8873" lon="5.27641">
        <ele>1319.7</ele>
        <time>2024-07-02T10:17:57Z</time>
      </trkpt>
      <trkpt lat="44.88731" lon="5.27642">
        <ele>1319.8</ele>
        <time>2024-07-02T10:17:58Z</time>
      </trkpt>
      <trkpt lat="44.88732" lon="5.27643">
        <ele>1319.8</ele>
        <time>2024-07-02T10:17:59Z</time>
      </trkpt>
      <trkpt lat="44.88732" lon="5.27644">
        <ele>1319.9</ele>
        <time>2024-07-02T10:18:00Z</time>
      </trkpt>
      <trkpt lat="44.88733" lon="5.27645">
        <ele>1319.9</ele>
        <time>2024-07-02T10:18:01Z</time>
      </trkpt>
      <trkpt lat="44.88734" lon="5.27646">
        <ele>1320</ele>
        <time>2024-07-02T10:18:02Z</time>
      </trkpt>
      <trkpt lat="44.88735" lon="5.27646">
        <ele>1320</ele>
        <time>2024-07-02T10:18:03Z</time>
      </trkpt>
      <trkpt lat="44.88736" lon="5.27647">
        <ele>1320.1</ele>
        <time>2024-07-02T10:18:04Z</time>
      </trkpt>
      <trkpt lat="44.88737" lon="5.27647">
        <ele>1320.1</ele>
        <time>2024-07-02T10:18:05Z</time>
      </trkpt>
      <trkpt lat="44.88738" lon="5.27648">
        <ele>1320.2</ele>
        <time>2024-07-02T10:18:06Z</time>
      </trkpt>
      <trkpt lat="44.88739" lon="5.27649">
        <ele>1320.2</ele>
        <time>2024-07-02T10:18:07Z</time>
      </trkpt>
      <trkpt lat="44.8874" lon="5.27649">
        <ele>1320.2</ele>
        <time>2024-07-02T10:18:08Z</time>
      </trkpt>
      <trkpt lat="44.88741" lon="5.2765">
        <ele>1320.3</ele>
        <time>2024-07-02T10:18:09Z</time>
      </trkpt>
      <trkpt lat="44.88741" lon="5.2765">
        <ele>1320.3</ele>
        <time>2024-07-02T10:18:10Z</time>
      </trkpt>
      <trkpt lat="44.88742" lon="5.2765">
        <ele>1320.4</ele>
        <time>2024-07-02T10:18:11Z</time>
      </trkpt>
      <trkpt lat="44.88743" lon="5.27651">
        <ele>1320.4</ele>
        <time>2024-07-02T10:18:12Z</time>
      </trkpt>
      <trkpt lat="44.88744" lon="5.27651">
        <ele>1320.5</ele>
        <time>2024-07-02T10:18:13Z</time>
      </trkpt>
      <trkpt lat="44.88744" lon="5.27652">
        <ele>1320.5</ele>
        <time>2024-07-02T10:18:14Z</time>
      </trkpt>
      <trkpt lat="44.88745" lon="5.27652">
        <ele>1320.5</ele>
        <time>2024-07-02T10:18:15Z</time>
      </trkpt>
      <trkpt lat="44.88746" lon="5.27653">
        <ele>1320.6</ele>
        <time>2024-07-02T10:18:16Z</time>
      </trkpt>
      <trkpt lat="44.88746" lon="5.27654">
        <ele>1320.6</ele>
        <time>2024-07-02T10:18:17Z</time>
      </trkpt>
      <trkpt lat="44.88747" lon="5.27654">
        <ele>1320.6</ele>
        <time>2024-07-02T10:18:18Z</time>
      </trkpt>
      <trkpt lat="44.88747" lon="5.27655">
        <ele>1320.7</ele>
        <time>2024-07-02T10:18:19Z</time>
      </trkpt>
      <trkpt lat="44.88748" lon="5.27655">
        <ele>1320.7</ele>
        <time>2024-07-02T10:18:20Z</time>
      </trkpt>
      <trkpt lat="44.88749" lon="5.27656">
        <ele>1320.8</ele>
        <time>2024-07-02T10:18:21Z</time>
      </trkpt>
      <trkpt lat="44.88749" lon="5.27658">
        <ele>1320.8</ele>
        <time>2024-07-02T10:18:22Z</time>
      </trkpt>
      <trkpt lat="44.88749" lon="5.27659">
        <ele>1320.9</ele>
        <time>2024-07-02T10:18:23Z</time>
      </trkpt>
      <trkpt lat="44.8875" lon="5.27661">
        <ele>1320.9</ele>
        <time>2024-07-02T10:18:24Z</time>
      </trkpt>
      <trkpt lat="44.88751" lon="5.27662">
        <ele>1321</ele>
        <time>2024-07-02T10:18:25Z</time>
      </trkpt>
      <trkpt lat="44.88752" lon="5.27663">
        <ele>1321.1</ele>
        <time>2024-07-02T10:18:26Z</time>
      </trkpt>
      <trkpt lat="44.88752" lon="5.27664">
        <ele>1321.1</ele>
        <time>2024-07-02T10:18:27Z</time>
      </trkpt>
      <trkpt lat="44.88753" lon="5.27665">
        <ele>1321.2</ele>
        <time>2024-07-02T10:18:28Z</time>
      </trkpt>
      <trkpt lat="44.88753" lon="5.27666">
        <ele>1321.2</ele>
        <time>2024-07-02T10:18:29Z</time>
      </trkpt>
      <trkpt lat="44.88754" lon="5.27667">
        <ele>1321.3</ele>
        <time>2024-07-02T10:18:30Z</time>
      </trkpt>
      <trkpt lat="44.88754" lon="5.27668">
        <ele>1321.3</ele>
        <time>2024-07-02T10:18:31Z</time>
      </trkpt>
      <trkpt lat="44.88755" lon="5.27669">
        <ele>1321.4</ele>
        <time>2024-07-02T10:18:32Z</time>
      </trkpt>
      <trkpt lat="44.88755" lon="5.27669">
        <ele>1321.5</ele>
        <time>2024-07-02T10:18:33Z</time>
      </trkpt>
      <trkpt lat="44.88755" lon="5.27671">
        <ele>1321.5</ele>
        <time>2024-07-02T10:18:34Z</time>
      </trkpt>
      <trkpt lat="44.88756" lon="5.27672">
        <ele>1321.6</ele>
        <time>2024-07-02T10:18:35Z</time>
      </trkpt>
      <trkpt lat="44.88756" lon="5.27672">
        <ele>1321.6</ele>
        <time>2024-07-02T10:18:36Z</time>
      </trkpt>
      <trkpt lat="44.88757" lon="5.27673">
        <ele>1321.7</ele>
        <time>2024-07-02T10:18:37Z</time>
      </trkpt>
      <trkpt lat="44.88757" lon="5.27674">
        <ele>1321.7</ele>
        <time>2024-07-02T10:18:38Z</time>
      </trkpt>
      <trkpt lat="44.88758" lon="5.27674">
        <ele>1321.8</ele>
        <time>2024-07-02T10:18:39Z</time>
      </trkpt>
      <trkpt lat="44.88759" lon="5.27675">
        <ele>1321.9</ele>
        <time>2024-07-02T10:18:40Z</time>
      </trkpt>
      <trkpt lat="44.88759" lon="5.27676">
        <ele>1322</ele>
        <time>2024-07-02T10:18:41Z</time>
      </trkpt>
      <trkpt lat="44.8876" lon="5.27676">
        <ele>1322</ele>
        <time>2024-07-02T10:18:42Z</time>
      </trkpt>
      <trkpt lat="44.8876" lon="5.27677">
        <ele>1322.1</ele>
        <time>2024-07-02T10:18:43Z</time>
      </trkpt>
      <trkpt lat="44.8876" lon="5.27677">
        <ele>1322.1</ele>
        <time>2024-07-02T10:18:44Z</time>
      </trkpt>
      <trkpt lat="44.88761" lon="5.27678">
        <ele>1322.2</ele>
        <time>2024-07-02T10:18:45Z</time>
      </trkpt>
      <trkpt lat="44.88761" lon="5.27678">
        <ele>1322.2</ele>
        <time>2024-07-02T10:18:46Z</time>
      </trkpt>
      <trkpt lat="44.88762" lon="5.27678">
        <ele>1322.3</ele>
        <time>2024-07-02T10:18:47Z</time>
      </trkpt>
      <trkpt lat="44.88762" lon="5.27679">
        <ele>1322.3</ele>
        <time>2024-07-02T10:18:48Z</time>
      </trkpt>
      <trkpt lat="44.88763" lon="5.27679">
        <ele>1322.4</ele>
        <time>2024-07-02T10:18:49Z</time>
      </trkpt>
      <trkpt lat="44.88764" lon="5.2768">
        <ele>1322.5</ele>
        <time>2024-07-02T10:18:50Z</time>
      </trkpt>
      <trkpt lat="44.88764" lon="5.2768">
        <ele>1322.6</ele>
        <time>2024-07-02T10:18:51Z</time>
      </trkpt>
      <trkpt lat="44.88765" lon="5.27681">
        <ele>1322.6</ele>
        <time>2024-07-02T10:18:52Z</time>
      </trkpt>
      <trkpt lat="44.88766" lon="5.27681">
        <ele>1322.7</ele>
        <time>2024-07-02T10:18:53Z</time>
      </trkpt>
      <trkpt lat="44.88766" lon="5.27682">
        <ele>1322.8</ele>
        <time>2024-07-02T10:18:54Z</time>
      </trkpt>
      <trkpt lat="44.88767" lon="5.27682">
        <ele>1322.9</ele>
        <time>2024-07-02T10:18:55Z</time>
      </trkpt>
      <trkpt lat="44.88768" lon="5.27683">
        <ele>1323.1</ele>
        <time>2024-07-02T10:18:56Z</time>
      </trkpt>
      <trkpt lat="44.88769" lon="5.27684">
        <ele>1323.2</ele>
        <time>2024-07-02T10:18:57Z</time>
      </trkpt>
      <trkpt lat="44.8877" lon="5.27685">
        <ele>1323.4</ele>
        <time>2024-07-02T10:18:58Z</time>
      </trkpt>
      <trkpt lat="44.88771" lon="5.27686">
        <ele>1323.5</ele>
        <time>2024-07-02T10:18:59Z</time>
      </trkpt>
      <trkpt lat="44.88771" lon="5.27687">
        <ele>1323.6</ele>
        <time>2024-07-02T10:19:00Z</time>
      </trkpt>
      <trkpt lat="44.88772" lon="5.27689">
        <ele>1323.8</ele>
        <time>2024-07-02T10:19:01Z</time>
      </trkpt>
      <trkpt lat="44.88772" lon="5.2769">
        <ele>1323.9</ele>
        <time>2024-07-02T10:19:02Z</time>
      </trkpt>
      <trkpt lat="44.88772" lon="5.27691">
        <ele>1324</ele>
        <time>2024-07-02T10:19:03Z</time>
      </trkpt>
      <trkpt lat="44.88772" lon="5.27693">
        <ele>1324.2</ele>
        <time>2024-07-02T10:19:04Z</time>
      </trkpt>
      <trkpt lat="44.88772" lon="5.27695">
        <ele>1324.3</ele>
        <time>2024-07-02T10:19:05Z</time>
      </trkpt>
      <trkpt lat="44.88772" lon="5.27698">
        <ele>1324.6</ele>
        <time>2024-07-02T10:19:06Z</time>
      </trkpt>
      <trkpt lat="44.88772" lon="5.27699">
        <ele>1324.7</ele>
        <time>2024-07-02T10:19:07Z</time>
      </trkpt>
      <trkpt lat="44.88772" lon="5.277">
        <ele>1324.8</ele>
        <time>2024-07-02T10:19:08Z</time>
      </trkpt>
      <trkpt lat="44.88773" lon="5.27701">
        <ele>1324.9</ele>
        <time>2024-07-02T10:19:09Z</time>
      </trkpt>
      <trkpt lat="44.88773" lon="5.27703">
        <ele>1325.1</ele>
        <time>2024-07-02T10:19:10Z</time>
      </trkpt>
      <trkpt lat="44.88773" lon="5.27704">
        <ele>1325.2</ele>
        <time>2024-07-02T10:19:11Z</time>
      </trkpt>
      <trkpt lat="44.88773" lon="5.27706">
        <ele>1325.4</ele>
        <time>2024-07-02T10:19:12Z</time>
      </trkpt>
      <trkpt lat="44.88773" lon="5.27707">
        <ele>1325.5</ele>
        <time>2024-07-02T10:19:13Z</time>
      </trkpt>
      <trkpt lat="44.88773" lon="5.27709">
        <ele>1325.6</ele>
        <time>2024-07-02T10:19:14Z</time>
      </trkpt>
      <trkpt lat="44.88773" lon="5.2771">
        <ele>1325.7</ele>
        <time>2024-07-02T10:19:15Z</time>
      </trkpt>
      <trkpt lat="44.88773" lon="5.27712">
        <ele>1325.8</ele>
        <time>2024-07-02T10:19:16Z</time>
      </trkpt>
      <trkpt lat="44.88774" lon="5.27713">
        <ele>1325.9</ele>
        <time>2024-07-02T10:19:17Z</time>
      </trkpt>
      <trkpt lat="44.88774" lon="5.27714">
        <ele>1326</ele>
        <time>2024-07-02T10:19:18Z</time>
      </trkpt>
      <trkpt lat="44.88774" lon="5.27715">
        <ele>1326.1</ele>
        <time>2024-07-02T10:19:19Z</time>
      </trkpt>
      <trkpt lat="44.88774" lon="5.27717">
        <ele>1326.2</ele>
        <time>2024-07-02T10:19:20Z</time>
      </trkpt>
      <trkpt lat="44.88774" lon="5.27718">
        <ele>1326.2</ele>
        <time>2024-07-02T10:19:21Z</time>
      </trkpt>
      <trkpt lat="44.88775" lon="5.27719">
        <ele>1326.2</ele>
        <time>2024-07-02T10:19:22Z</time>
      </trkpt>
      <trkpt lat="44.88775" lon="5.27721">
        <ele>1326.2</ele>
        <time>2024-07-02T10:19:23Z</time>
      </trkpt>
      <trkpt lat="44.88776" lon="5.27722">
        <ele>1326.2</ele>
        <time>2024-07-02T10:19:24Z</time>
      </trkpt>
      <trkpt lat="44.88776" lon="5.27723">
        <ele>1326.1</ele>
        <time>2024-07-02T10:19:25Z</time>
      </trkpt>
      <trkpt lat="44.88776" lon="5.27725">
        <ele>1326.1</ele>
        <time>2024-07-02T10:19:26Z</time>
      </trkpt>
      <trkpt lat="44.88776" lon="5.27726">
        <ele>1326.1</ele>
        <time>2024-07-02T10:19:27Z</time>
      </trkpt>
      <trkpt lat="44.88777" lon="5.27727">
        <ele>1326.1</ele>
        <time>2024-07-02T10:19:28Z</time>
      </trkpt>
      <trkpt lat="44.88777" lon="5.27728">
        <ele>1326.1</ele>
        <time>2024-07-02T10:19:29Z</time>
      </trkpt>
      <trkpt lat="44.88778" lon="5.27729">
        <ele>1326.1</ele>
        <time>2024-07-02T10:19:30Z</time>
      </trkpt>
      <trkpt lat="44.88779" lon="5.27729">
        <ele>1326.1</ele>
        <time>2024-07-02T10:19:31Z</time>
      </trkpt>
      <trkpt lat="44.8878" lon="5.27729">
        <ele>1326.1</ele>
        <time>2024-07-02T10:19:32Z</time>
      </trkpt>
      <trkpt lat="44.88781" lon="5.27728">
        <ele>1326</ele>
        <time>2024-07-02T10:19:33Z</time>
      </trkpt>
      <trkpt lat="44.88782" lon="5.27728">
        <ele>1326</ele>
        <time>2024-07-02T10:19:34Z</time>
      </trkpt>
      <trkpt lat="44.88783" lon="5.27728">
        <ele>1326</ele>
        <time>2024-07-02T10:19:35Z</time>
      </trkpt>
      <trkpt lat="44.88784" lon="5.27727">
        <ele>1326</ele>
        <time>2024-07-02T10:19:36Z</time>
      </trkpt>
      <trkpt lat="44.88783" lon="5.27728">
        <ele>1326</ele>
        <time>2024-07-02T10:19:37Z</time>
      </trkpt>
      <trkpt lat="44.88784" lon="5.27727">
        <ele>1326</ele>
        <time>2024-07-02T10:19:38Z</time>
      </trkpt>
      <trkpt lat="44.88784" lon="5.27727">
        <ele>1326</ele>
        <time>2024-07-02T10:19:39Z</time>
      </trkpt>
      <trkpt lat="44.88784" lon="5.27727">
        <ele>1326</ele>
        <time>2024-07-02T10:19:40Z</time>
      </trkpt>
      <trkpt lat="44.88785" lon="5.27727">
        <ele>1325.9</ele>
        <time>2024-07-02T10:19:41Z</time>
      </trkpt>
      <trkpt lat="44.88785" lon="5.27727">
        <ele>1325.9</ele>
        <time>2024-07-02T10:19:42Z</time>
      </trkpt>
      <trkpt lat="44.88786" lon="5.27726">
        <ele>1325.9</ele>
        <time>2024-07-02T10:19:43Z</time>
      </trkpt>
      <trkpt lat="44.88786" lon="5.27724">
        <ele>1325.9</ele>
        <time>2024-07-02T10:19:44Z</time>
      </trkpt>
      <trkpt lat="44.88786" lon="5.27723">
        <ele>1325.9</ele>
        <time>2024-07-02T10:19:45Z</time>
      </trkpt>
      <trkpt lat="44.88786" lon="5.27722">
        <ele>1325.9</ele>
        <time>2024-07-02T10:19:46Z</time>
      </trkpt>
      <trkpt lat="44.88786" lon="5.2772">
        <ele>1325.9</ele>
        <time>2024-07-02T10:19:47Z</time>
      </trkpt>
      <trkpt lat="44.88786" lon="5.27719">
        <ele>1325.9</ele>
        <time>2024-07-02T10:19:48Z</time>
      </trkpt>
      <trkpt lat="44.88786" lon="5.27718">
        <ele>1325.9</ele>
        <time>2024-07-02T10:19:49Z</time>
      </trkpt>
      <trkpt lat="44.88786" lon="5.27717">
        <ele>1325.8</ele>
        <time>2024-07-02T10:19:50Z</time>
      </trkpt>
      <trkpt lat="44.88787" lon="5.27716">
        <ele>1325.8</ele>
        <time>2024-07-02T10:19:51Z</time>
      </trkpt>
      <trkpt lat="44.88787" lon="5.27716">
        <ele>1325.8</ele>
        <time>2024-07-02T10:19:52Z</time>
      </trkpt>
      <trkpt lat="44.88787" lon="5.27715">
        <ele>1325.8</ele>
        <time>2024-07-02T10:19:53Z</time>
      </trkpt>
      <trkpt lat="44.88787" lon="5.27714">
        <ele>1325.8</ele>
        <time>2024-07-02T10:19:54Z</time>
      </trkpt>
      <trkpt lat="44.88787" lon="5.27714">
        <ele>1325.8</ele>
        <time>2024-07-02T10:19:55Z</time>
      </trkpt>
      <trkpt lat="44.88788" lon="5.27713">
        <ele>1325.8</ele>
        <time>2024-07-02T10:19:56Z</time>
      </trkpt>
      <trkpt lat="44.88788" lon="5.27712">
        <ele>1325.8</ele>
        <time>2024-07-02T10:19:57Z</time>
      </trkpt>
      <trkpt lat="44.88788" lon="5.27712">
        <ele>1325.8</ele>
        <time>2024-07-02T10:19:58Z</time>
      </trkpt>
      <trkpt lat="44.88789" lon="5.27712">
        <ele>1325.8</ele>
        <time>2024-07-02T10:19:59Z</time>
      </trkpt>
      <trkpt lat="44.88789" lon="5.27713">
        <ele>1325.8</ele>
        <time>2024-07-02T10:20:00Z</time>
      </trkpt>
      <trkpt lat="44.88789" lon="5.27714">
        <ele>1325.7</ele>
        <time>2024-07-02T10:20:01Z</time>
      </trkpt>
      <trkpt lat="44.88789" lon="5.27716">
        <ele>1325.7</ele>
        <time>2024-07-02T10:20:02Z</time>
      </trkpt>
      <trkpt lat="44.8879" lon="5.27715">
        <ele>1325.7</ele>
        <time>2024-07-02T10:20:03Z</time>
      </trkpt>
      <trkpt lat="44.88791" lon="5.27715">
        <ele>1325.7</ele>
        <time>2024-07-02T10:20:04Z</time>
      </trkpt>
      <trkpt lat="44.88791" lon="5.27715">
        <ele>1325.7</ele>
        <time>2024-07-02T10:20:05Z</time>
      </trkpt>
      <trkpt lat="44.88792" lon="5.27714">
        <ele>1325.7</ele>
        <time>2024-07-02T10:20:06Z</time>
      </trkpt>
      <trkpt lat="44.88792" lon="5.27714">
        <ele>1325.7</ele>
        <time>2024-07-02T10:20:07Z</time>
      </trkpt>
      <trkpt lat="44.88792" lon="5.27713">
        <ele>1325.7</ele>
        <time>2024-07-02T10:20:08Z</time>
      </trkpt>
      <trkpt lat="44.88793" lon="5.27712">
        <ele>1325.7</ele>
        <time>2024-07-02T10:20:09Z</time>
      </trkpt>
      <trkpt lat="44.88794" lon="5.27712">
        <ele>1325.7</ele>
        <time>2024-07-02T10:20:10Z</time>
      </trkpt>
      <trkpt lat="44.88795" lon="5.27711">
        <ele>1325.6</ele>
        <time>2024-07-02T10:20:11Z</time>
      </trkpt>
      <trkpt lat="44.88795" lon="5.27711">
        <ele>1325.6</ele>
        <time>2024-07-02T10:20:12Z</time>
      </trkpt>
      <trkpt lat="44.88796" lon="5.27711">
        <ele>1325.6</ele>
        <time>2024-07-02T10:20:13Z</time>
      </trkpt>
      <trkpt lat="44.88798" lon="5.27711">
        <ele>1325.6</ele>
        <time>2024-07-02T10:20:14Z</time>
      </trkpt>
      <trkpt lat="44.88799" lon="5.27711">
        <ele>1325.6</ele>
        <time>2024-07-02T10:20:15Z</time>
      </trkpt>
      <trkpt lat="44.888" lon="5.27711">
        <ele>1325.6</ele>
        <time>2024-07-02T10:20:16Z</time>
      </trkpt>
      <trkpt lat="44.88802" lon="5.2771">
        <ele>1325.6</ele>
        <time>2024-07-02T10:20:17Z</time>
      </trkpt>
      <trkpt lat="44.88803" lon="5.2771">
        <ele>1325.5</ele>
        <time>2024-07-02T10:20:18Z</time>
      </trkpt>
      <trkpt lat="44.88805" lon="5.27709">
        <ele>1325.5</ele>
        <time>2024-07-02T10:20:19Z</time>
      </trkpt>
      <trkpt lat="44.88806" lon="5.2771">
        <ele>1325.5</ele>
        <time>2024-07-02T10:20:20Z</time>
      </trkpt>
      <trkpt lat="44.88807" lon="5.2771">
        <ele>1325.5</ele>
        <time>2024-07-02T10:20:21Z</time>
      </trkpt>
      <trkpt lat="44.8881" lon="5.2771">
        <ele>1325.5</ele>
        <time>2024-07-02T10:20:22Z</time>
      </trkpt>
      <trkpt lat="44.88811" lon="5.2771">
        <ele>1325.5</ele>
        <time>2024-07-02T10:20:23Z</time>
      </trkpt>
      <trkpt lat="44.88811" lon="5.2771">
        <ele>1325.5</ele>
        <time>2024-07-02T10:20:24Z</time>
      </trkpt>
      <trkpt lat="44.88814" lon="5.27709">
        <ele>1325.5</ele>
        <time>2024-07-02T10:20:25Z</time>
      </trkpt>
      <trkpt lat="44.88815" lon="5.27709">
        <ele>1325.5</ele>
        <time>2024-07-02T10:20:26Z</time>
      </trkpt>
      <trkpt lat="44.88816" lon="5.27709">
        <ele>1325.5</ele>
        <time>2024-07-02T10:20:27Z</time>
      </trkpt>
      <trkpt lat="44.88816" lon="5.27709">
        <ele>1325.5</ele>
        <time>2024-07-02T10:20:28Z</time>
      </trkpt>
      <trkpt lat="44.88818" lon="5.27709">
        <ele>1325.5</ele>
        <time>2024-07-02T10:20:29Z</time>
      </trkpt>
      <trkpt lat="44.88819" lon="5.27709">
        <ele>1325.5</ele>
        <time>2024-07-02T10:20:30Z</time>
      </trkpt>
      <trkpt lat="44.8882" lon="5.27709">
        <ele>1325.5</ele>
        <time>2024-07-02T10:20:31Z</time>
      </trkpt>
      <trkpt lat="44.8882" lon="5.27709">
        <ele>1325.5</ele>
        <time>2024-07-02T10:20:32Z</time>
      </trkpt>
      <trkpt lat="44.88821" lon="5.27708">
        <ele>1325.5</ele>
        <time>2024-07-02T10:20:33Z</time>
      </trkpt>
      <trkpt lat="44.88821" lon="5.27708">
        <ele>1325.5</ele>
        <time>2024-07-02T10:20:34Z</time>
      </trkpt>
      <trkpt lat="44.88821" lon="5.27708">
        <ele>1325.5</ele>
        <time>2024-07-02T10:20:35Z</time>
      </trkpt>
      <trkpt lat="44.88822" lon="5.27707">
        <ele>1325.5</ele>
        <time>2024-07-02T10:20:36Z</time>
      </trkpt>
      <trkpt lat="44.88822" lon="5.27707">
        <ele>1325.6</ele>
        <time>2024-07-02T10:20:37Z</time>
      </trkpt>
      <trkpt lat="44.88823" lon="5.27707">
        <ele>1325.6</ele>
        <time>2024-07-02T10:20:38Z</time>
      </trkpt>
      <trkpt lat="44.88823" lon="5.27707">
        <ele>1325.6</ele>
        <time>2024-07-02T10:20:39Z</time>
      </trkpt>
      <trkpt lat="44.88824" lon="5.27707">
        <ele>1325.6</ele>
        <time>2024-07-02T10:20:40Z</time>
      </trkpt>
      <trkpt lat="44.88824" lon="5.27707">
        <ele>1325.6</ele>
        <time>2024-07-02T10:20:41Z</time>
      </trkpt>
      <trkpt lat="44.88825" lon="5.27706">
        <ele>1325.6</ele>
        <time>2024-07-02T10:20:42Z</time>
      </trkpt>
      <trkpt lat="44.88826" lon="5.27706">
        <ele>1325.6</ele>
        <time>2024-07-02T10:20:43Z</time>
      </trkpt>
      <trkpt lat="44.88827" lon="5.27706">
        <ele>1325.6</ele>
        <time>2024-07-02T10:20:44Z</time>
      </trkpt>
      <trkpt lat="44.88827" lon="5.27706">
        <ele>1325.6</ele>
        <time>2024-07-02T10:20:45Z</time>
      </trkpt>
      <trkpt lat="44.88828" lon="5.27706">
        <ele>1325.6</ele>
        <time>2024-07-02T10:20:46Z</time>
      </trkpt>
      <trkpt lat="44.88829" lon="5.27706">
        <ele>1325.6</ele>
        <time>2024-07-02T10:20:47Z</time>
      </trkpt>
      <trkpt lat="44.8883" lon="5.27706">
        <ele>1325.6</ele>
        <time>2024-07-02T10:20:48Z</time>
      </trkpt>
      <trkpt lat="44.88831" lon="5.27706">
        <ele>1325.6</ele>
        <time>2024-07-02T10:20:49Z</time>
      </trkpt>
      <trkpt lat="44.88833" lon="5.27707">
        <ele>1325.6</ele>
        <time>2024-07-02T10:20:50Z</time>
      </trkpt>
      <trkpt lat="44.88833" lon="5.27708">
        <ele>1325.6</ele>
        <time>2024-07-02T10:20:51Z</time>
      </trkpt>
      <trkpt lat="44.88834" lon="5.27709">
        <ele>1325.6</ele>
        <time>2024-07-02T10:20:52Z</time>
      </trkpt>
      <trkpt lat="44.88836" lon="5.2771">
        <ele>1325.6</ele>
        <time>2024-07-02T10:20:53Z</time>
      </trkpt>
      <trkpt lat="44.88837" lon="5.27711">
        <ele>1325.6</ele>
        <time>2024-07-02T10:20:54Z</time>
      </trkpt>
      <trkpt lat="44.88839" lon="5.27711">
        <ele>1325.6</ele>
        <time>2024-07-02T10:20:55Z</time>
      </trkpt>
      <trkpt lat="44.8884" lon="5.27711">
        <ele>1325.6</ele>
        <time>2024-07-02T10:20:56Z</time>
      </trkpt>
      <trkpt lat="44.8884" lon="5.2771">
        <ele>1325.6</ele>
        <time>2024-07-02T10:20:57Z</time>
      </trkpt>
      <trkpt lat="44.88841" lon="5.27709">
        <ele>1325.6</ele>
        <time>2024-07-02T10:20:58Z</time>
      </trkpt>
      <trkpt lat="44.88842" lon="5.27708">
        <ele>1325.6</ele>
        <time>2024-07-02T10:20:59Z</time>
      </trkpt>
      <trkpt lat="44.88842" lon="5.27707">
        <ele>1325.6</ele>
        <time>2024-07-02T10:21:00Z</time>
      </trkpt>
      <trkpt lat="44.88842" lon="5.27707">
        <ele>1325.6</ele>
        <time>2024-07-02T10:21:01Z</time>
      </trkpt>
      <trkpt lat="44.88841" lon="5.27707">
        <ele>1325.6</ele>
        <time>2024-07-02T10:21:02Z</time>
      </trkpt>
      <trkpt lat="44.88841" lon="5.27706">
        <ele>1325.6</ele>
        <time>2024-07-02T10:21:03Z</time>
      </trkpt>
      <trkpt lat="44.88842" lon="5.27706">
        <ele>1325.6</ele>
        <time>2024-07-02T10:21:04Z</time>
      </trkpt>
      <trkpt lat="44.88842" lon="5.27706">
        <ele>1325.6</ele>
        <time>2024-07-02T10:21:05Z</time>
      </trkpt>
      <trkpt lat="44.88843" lon="5.27705">
        <ele>1325.6</ele>
        <time>2024-07-02T10:21:06Z</time>
      </trkpt>
      <trkpt lat="44.88844" lon="5.27704">
        <ele>1325.6</ele>
        <time>2024-07-02T10:21:07Z</time>
      </trkpt>
      <trkpt lat="44.88844" lon="5.27702">
        <ele>1325.7</ele>
        <time>2024-07-02T10:21:08Z</time>
      </trkpt>
      <trkpt lat="44.88843" lon="5.27702">
        <ele>1325.7</ele>
        <time>2024-07-02T10:21:09Z</time>
      </trkpt>
      <trkpt lat="44.88843" lon="5.27702">
        <ele>1325.7</ele>
        <time>2024-07-02T10:21:10Z</time>
      </trkpt>
      <trkpt lat="44.88842" lon="5.27702">
        <ele>1325.7</ele>
        <time>2024-07-02T10:21:11Z</time>
      </trkpt>
      <trkpt lat="44.88842" lon="5.27702">
        <ele>1325.7</ele>
        <time>2024-07-02T10:21:12Z</time>
      </trkpt>
      <trkpt lat="44.88842" lon="5.27702">
        <ele>1325.7</ele>
        <time>2024-07-02T10:21:13Z</time>
      </trkpt>
      <trkpt lat="44.88842" lon="5.27702">
        <ele>1325.7</ele>
        <time>2024-07-02T10:21:14Z</time>
      </trkpt>
      <trkpt lat="44.88842" lon="5.27702">
        <ele>1325.7</ele>
        <time>2024-07-02T10:21:15Z</time>
      </trkpt>
      <trkpt lat="44.88842" lon="5.27702">
        <ele>1325.7</ele>
        <time>2024-07-02T10:21:16Z</time>
      </trkpt>
      <trkpt lat="44.88842" lon="5.27703">
        <ele>1325.7</ele>
        <time>2024-07-02T10:21:17Z</time>
      </trkpt>
      <trkpt lat="44.88842" lon="5.27702">
        <ele>1325.7</ele>
        <time>2024-07-02T10:21:18Z</time>
      </trkpt>
      <trkpt lat="44.88842" lon="5.27702">
        <ele>1325.7</ele>
        <time>2024-07-02T10:21:19Z</time>
      </trkpt>
      <trkpt lat="44.88843" lon="5.27702">
        <ele>1325.7</ele>
        <time>2024-07-02T10:21:20Z</time>
      </trkpt>
      <trkpt lat="44.88843" lon="5.27702">
        <ele>1325.7</ele>
        <time>2024-07-02T10:21:21Z</time>
      </trkpt>
      <trkpt lat="44.88843" lon="5.27702">
        <ele>1325.7</ele>
        <time>2024-07-02T10:21:22Z</time>
      </trkpt>
      <trkpt lat="44.88843" lon="5.27702">
        <ele>1325.7</ele>
        <time>2024-07-02T10:21:23Z</time>
      </trkpt>
      <trkpt lat="44.88847" lon="5.27712">
        <ele>1325.7</ele>
        <time>2024-07-02T10:21:35Z</time>
      </trkpt>
      <trkpt lat="44.88848" lon="5.27716">
        <ele>1325.7</ele>
        <time>2024-07-02T10:21:36Z</time>
      </trkpt>
      <trkpt lat="44.88848" lon="5.27719">
        <ele>1325.7</ele>
        <time>2024-07-02T10:21:37Z</time>
      </trkpt>
      <trkpt lat="44.88848" lon="5.27721">
        <ele>1325.7</ele>
        <time>2024-07-02T10:21:38Z</time>
      </trkpt>
      <trkpt lat="44.88849" lon="5.27722">
        <ele>1325.7</ele>
        <time>2024-07-02T10:21:39Z</time>
      </trkpt>
      <trkpt lat="44.88849" lon="5.27723">
        <ele>1325.7</ele>
        <time>2024-07-02T10:21:40Z</time>
      </trkpt>
      <trkpt lat="44.88849" lon="5.27723">
        <ele>1325.7</ele>
        <time>2024-07-02T10:21:41Z</time>
      </trkpt>
      <trkpt lat="44.88849" lon="5.27724">
        <ele>1325.7</ele>
        <time>2024-07-02T10:21:42Z</time>
      </trkpt>
      <trkpt lat="44.88849" lon="5.27723">
        <ele>1325.7</ele>
        <time>2024-07-02T10:21:43Z</time>
      </trkpt>
      <trkpt lat="44.88849" lon="5.27723">
        <ele>1325.7</ele>
        <time>2024-07-02T10:21:44Z</time>
      </trkpt>
      <trkpt lat="44.88849" lon="5.27723">
        <ele>1325.7</ele>
        <time>2024-07-02T10:21:45Z</time>
      </trkpt>
      <trkpt lat="44.88848" lon="5.2772">
        <ele>1325.7</ele>
        <time>2024-07-02T10:22:48Z</time>
      </trkpt>
      <trkpt lat="44.88848" lon="5.2772">
        <ele>1325.7</ele>
        <time>2024-07-02T10:22:49Z</time>
      </trkpt>
      <trkpt lat="44.88848" lon="5.2772">
        <ele>1325.7</ele>
        <time>2024-07-02T10:22:50Z</time>
      </trkpt>
      <trkpt lat="44.88848" lon="5.2772">
        <ele>1325.7</ele>
        <time>2024-07-02T10:22:51Z</time>
      </trkpt>
      <trkpt lat="44.88848" lon="5.2772">
        <ele>1325.7</ele>
        <time>2024-07-02T10:22:52Z</time>
      </trkpt>
      <trkpt lat="44.88848" lon="5.2772">
        <ele>1325.7</ele>
        <time>2024-07-02T10:22:53Z</time>
      </trkpt>
      <trkpt lat="44.88848" lon="5.2772">
        <ele>1325.7</ele>
        <time>2024-07-02T10:22:54Z</time>
      </trkpt>
      <trkpt lat="44.88848" lon="5.2772">
        <ele>1325.7</ele>
        <time>2024-07-02T10:22:55Z</time>
      </trkpt>
      <trkpt lat="44.88848" lon="5.2772">
        <ele>1325.7</ele>
        <time>2024-07-02T10:22:56Z</time>
      </trkpt>
      <trkpt lat="44.88848" lon="5.2772">
        <ele>1325.7</ele>
        <time>2024-07-02T10:22:57Z</time>
      </trkpt>
      <trkpt lat="44.88848" lon="5.2772">
        <ele>1325.7</ele>
        <time>2024-07-02T10:22:58Z</time>
      </trkpt>
      <trkpt lat="44.88848" lon="5.2772">
        <ele>1325.7</ele>
        <time>2024-07-02T10:22:59Z</time>
      </trkpt>
      <trkpt lat="44.88848" lon="5.2772">
        <ele>1325.7</ele>
        <time>2024-07-02T10:23:00Z</time>
      </trkpt>
      <trkpt lat="44.88847" lon="5.27719">
        <ele>1325.7</ele>
        <time>2024-07-02T10:23:01Z</time>
      </trkpt>
      <trkpt lat="44.88847" lon="5.27718">
        <ele>1325.7</ele>
        <time>2024-07-02T10:23:02Z</time>
      </trkpt>
      <trkpt lat="44.88847" lon="5.27718">
        <ele>1325.7</ele>
        <time>2024-07-02T10:23:03Z</time>
      </trkpt>
      <trkpt lat="44.88847" lon="5.27718">
        <ele>1325.7</ele>
        <time>2024-07-02T10:23:04Z</time>
      </trkpt>
      <trkpt lat="44.88847" lon="5.27718">
        <ele>1325.7</ele>
        <time>2024-07-02T10:23:05Z</time>
      </trkpt>
      <trkpt lat="44.88847" lon="5.27718">
        <ele>1325.7</ele>
        <time>2024-07-02T10:23:06Z</time>
      </trkpt>
      <trkpt lat="44.88847" lon="5.27719">
        <ele>1325.7</ele>
        <time>2024-07-02T10:23:07Z</time>
      </trkpt>
      <trkpt lat="44.88847" lon="5.27719">
        <ele>1325.7</ele>
        <time>2024-07-02T10:23:08Z</time>
      </trkpt>
      <trkpt lat="44.88847" lon="5.27719">
        <ele>1325.7</ele>
        <time>2024-07-02T10:23:09Z</time>
      </trkpt>
      <trkpt lat="44.88847" lon="5.27719">
        <ele>1325.7</ele>
        <time>2024-07-02T10:23:10Z</time>
      </trkpt>
      <trkpt lat="44.88848" lon="5.27718">
        <ele>1325.7</ele>
        <time>2024-07-02T10:23:11Z</time>
      </trkpt>
      <trkpt lat="44.88848" lon="5.27718">
        <ele>1325.7</ele>
        <time>2024-07-02T10:23:12Z</time>
      </trkpt>
      <trkpt lat="44.88848" lon="5.27717">
        <ele>1325.7</ele>
        <time>2024-07-02T10:23:13Z</time>
      </trkpt>
      <trkpt lat="44.88848" lon="5.27717">
        <ele>1325.7</ele>
        <time>2024-07-02T10:23:14Z</time>
      </trkpt>
      <trkpt lat="44.88848" lon="5.27717">
        <ele>1325.7</ele>
        <time>2024-07-02T10:23:15Z</time>
      </trkpt>
      <trkpt lat="44.88848" lon="5.27717">
        <ele>1325.7</ele>
        <time>2024-07-02T10:23:16Z</time>
      </trkpt>
      <trkpt lat="44.88848" lon="5.27717">
        <ele>1325.7</ele>
        <time>2024-07-02T10:23:17Z</time>
      </trkpt>
      <trkpt lat="44.88849" lon="5.27718">
        <ele>1325.7</ele>
        <time>2024-07-02T10:23:18Z</time>
      </trkpt>
      <trkpt lat="44.88849" lon="5.27718">
        <ele>1325.7</ele>
        <time>2024-07-02T10:23:19Z</time>
      </trkpt>
      <trkpt lat="44.88849" lon="5.27718">
        <ele>1325.7</ele>
        <time>2024-07-02T10:23:20Z</time>
      </trkpt>
      <trkpt lat="44.88828" lon="5.27712">
        <ele>1325.5</ele>
        <time>2024-07-02T10:49:29Z</time>
      </trkpt>
      <trkpt lat="44.8883" lon="5.27712">
        <ele>1325.5</ele>
        <time>2024-07-02T10:49:30Z</time>
      </trkpt>
      <trkpt lat="44.88828" lon="5.27712">
        <ele>1325.5</ele>
        <time>2024-07-02T10:49:31Z</time>
      </trkpt>
      <trkpt lat="44.88825" lon="5.27713">
        <ele>1325.5</ele>
        <time>2024-07-02T10:49:32Z</time>
      </trkpt>
      <trkpt lat="44.88824" lon="5.27713">
        <ele>1325.5</ele>
        <time>2024-07-02T10:49:33Z</time>
      </trkpt>
      <trkpt lat="44.88823" lon="5.27713">
        <ele>1325.5</ele>
        <time>2024-07-02T10:49:34Z</time>
      </trkpt>
      <trkpt lat="44.88823" lon="5.27714">
        <ele>1325.5</ele>
        <time>2024-07-02T10:49:35Z</time>
      </trkpt>
      <trkpt lat="44.88822" lon="5.27714">
        <ele>1325.5</ele>
        <time>2024-07-02T10:49:36Z</time>
      </trkpt>
      <trkpt lat="44.88822" lon="5.27714">
        <ele>1325.5</ele>
        <time>2024-07-02T10:49:37Z</time>
      </trkpt>
      <trkpt lat="44.88822" lon="5.27714">
        <ele>1325.5</ele>
        <time>2024-07-02T10:49:38Z</time>
      </trkpt>
      <trkpt lat="44.88822" lon="5.27714">
        <ele>1325.5</ele>
        <time>2024-07-02T10:49:39Z</time>
      </trkpt>
      <trkpt lat="44.88822" lon="5.27714">
        <ele>1325.5</ele>
        <time>2024-07-02T10:49:40Z</time>
      </trkpt>
      <trkpt lat="44.88823" lon="5.27715">
        <ele>1325.5</ele>
        <time>2024-07-02T10:49:41Z</time>
      </trkpt>
      <trkpt lat="44.88823" lon="5.27715">
        <ele>1325.5</ele>
        <time>2024-07-02T10:49:42Z</time>
      </trkpt>
      <trkpt lat="44.88822" lon="5.27716">
        <ele>1325.5</ele>
        <time>2024-07-02T10:49:43Z</time>
      </trkpt>
      <trkpt lat="44.88821" lon="5.27715">
        <ele>1325.5</ele>
        <time>2024-07-02T10:49:44Z</time>
      </trkpt>
      <trkpt lat="44.88821" lon="5.27715">
        <ele>1325.5</ele>
        <time>2024-07-02T10:49:45Z</time>
      </trkpt>
      <trkpt lat="44.8882" lon="5.27714">
        <ele>1325.5</ele>
        <time>2024-07-02T10:49:46Z</time>
      </trkpt>
      <trkpt lat="44.88819" lon="5.27713">
        <ele>1325.5</ele>
        <time>2024-07-02T10:49:47Z</time>
      </trkpt>
      <trkpt lat="44.88817" lon="5.27712">
        <ele>1325.5</ele>
        <time>2024-07-02T10:49:48Z</time>
      </trkpt>
      <trkpt lat="44.88816" lon="5.27711">
        <ele>1325.6</ele>
        <time>2024-07-02T10:49:49Z</time>
      </trkpt>
      <trkpt lat="44.88815" lon="5.27711">
        <ele>1325.6</ele>
        <time>2024-07-02T10:49:50Z</time>
      </trkpt>
      <trkpt lat="44.88814" lon="5.27711">
        <ele>1325.6</ele>
        <time>2024-07-02T10:49:51Z</time>
      </trkpt>
      <trkpt lat="44.88813" lon="5.27711">
        <ele>1325.6</ele>
        <time>2024-07-02T10:49:52Z</time>
      </trkpt>
      <trkpt lat="44.88812" lon="5.27711">
        <ele>1325.6</ele>
        <time>2024-07-02T10:49:53Z</time>
      </trkpt>
      <trkpt lat="44.88812" lon="5.27711">
        <ele>1325.6</ele>
        <time>2024-07-02T10:49:54Z</time>
      </trkpt>
      <trkpt lat="44.88811" lon="5.27712">
        <ele>1325.6</ele>
        <time>2024-07-02T10:49:55Z</time>
      </trkpt>
      <trkpt lat="44.8881" lon="5.27713">
        <ele>1325.6</ele>
        <time>2024-07-02T10:49:56Z</time>
      </trkpt>
      <trkpt lat="44.88809" lon="5.27713">
        <ele>1325.6</ele>
        <time>2024-07-02T10:49:57Z</time>
      </trkpt>
      <trkpt lat="44.88809" lon="5.27713">
        <ele>1325.6</ele>
        <time>2024-07-02T10:49:58Z</time>
      </trkpt>
      <trkpt lat="44.88809" lon="5.27712">
        <ele>1325.6</ele>
        <time>2024-07-02T10:49:59Z</time>
      </trkpt>
      <trkpt lat="44.88808" lon="5.27712">
        <ele>1325.6</ele>
        <time>2024-07-02T10:50:00Z</time>
      </trkpt>
      <trkpt lat="44.88807" lon="5.27713">
        <ele>1325.6</ele>
        <time>2024-07-02T10:50:01Z</time>
      </trkpt>
      <trkpt lat="44.88807" lon="5.27714">
        <ele>1325.7</ele>
        <time>2024-07-02T10:50:02Z</time>
      </trkpt>
      <trkpt lat="44.88807" lon="5.27714">
        <ele>1325.7</ele>
        <time>2024-07-02T10:50:03Z</time>
      </trkpt>
      <trkpt lat="44.88808" lon="5.27714">
        <ele>1325.7</ele>
        <time>2024-07-02T10:50:04Z</time>
      </trkpt>
      <trkpt lat="44.88808" lon="5.27714">
        <ele>1325.7</ele>
        <time>2024-07-02T10:50:05Z</time>
      </trkpt>
      <trkpt lat="44.88808" lon="5.27713">
        <ele>1325.7</ele>
        <time>2024-07-02T10:50:06Z</time>
      </trkpt>
      <trkpt lat="44.88808" lon="5.27713">
        <ele>1325.7</ele>
        <time>2024-07-02T10:50:07Z</time>
      </trkpt>
      <trkpt lat="44.88808" lon="5.27713">
        <ele>1325.7</ele>
        <time>2024-07-02T10:50:08Z</time>
      </trkpt>
      <trkpt lat="44.88807" lon="5.27714">
        <ele>1325.7</ele>
        <time>2024-07-02T10:50:09Z</time>
      </trkpt>
      <trkpt lat="44.88806" lon="5.27714">
        <ele>1325.7</ele>
        <time>2024-07-02T10:50:10Z</time>
      </trkpt>
      <trkpt lat="44.88805" lon="5.27715">
        <ele>1325.7</ele>
        <time>2024-07-02T10:50:11Z</time>
      </trkpt>
      <trkpt lat="44.88805" lon="5.27716">
        <ele>1325.7</ele>
        <time>2024-07-02T10:50:12Z</time>
      </trkpt>
      <trkpt lat="44.88804" lon="5.27717">
        <ele>1325.7</ele>
        <time>2024-07-02T10:50:13Z</time>
      </trkpt>
      <trkpt lat="44.88803" lon="5.27717">
        <ele>1325.7</ele>
        <time>2024-07-02T10:50:14Z</time>
      </trkpt>
      <trkpt lat="44.88802" lon="5.27718">
        <ele>1325.7</ele>
        <time>2024-07-02T10:50:15Z</time>
      </trkpt>
      <trkpt lat="44.88801" lon="5.27718">
        <ele>1325.8</ele>
        <time>2024-07-02T10:50:16Z</time>
      </trkpt>
      <trkpt lat="44.888" lon="5.27718">
        <ele>1325.8</ele>
        <time>2024-07-02T10:50:17Z</time>
      </trkpt>
      <trkpt lat="44.888" lon="5.27719">
        <ele>1325.8</ele>
        <time>2024-07-02T10:50:18Z</time>
      </trkpt>
      <trkpt lat="44.88799" lon="5.2772">
        <ele>1325.8</ele>
        <time>2024-07-02T10:50:19Z</time>
      </trkpt>
      <trkpt lat="44.88798" lon="5.27721">
        <ele>1325.8</ele>
        <time>2024-07-02T10:50:20Z</time>
      </trkpt>
      <trkpt lat="44.88797" lon="5.27722">
        <ele>1325.8</ele>
        <time>2024-07-02T10:50:21Z</time>
      </trkpt>
      <trkpt lat="44.88796" lon="5.27723">
        <ele>1325.8</ele>
        <time>2024-07-02T10:50:22Z</time>
      </trkpt>
      <trkpt lat="44.88795" lon="5.27724">
        <ele>1325.8</ele>
        <time>2024-07-02T10:50:23Z</time>
      </trkpt>
      <trkpt lat="44.88794" lon="5.27725">
        <ele>1325.9</ele>
        <time>2024-07-02T10:50:24Z</time>
      </trkpt>
      <trkpt lat="44.88793" lon="5.27726">
        <ele>1325.9</ele>
        <time>2024-07-02T10:50:25Z</time>
      </trkpt>
      <trkpt lat="44.88793" lon="5.27727">
        <ele>1325.9</ele>
        <time>2024-07-02T10:50:26Z</time>
      </trkpt>
      <trkpt lat="44.88794" lon="5.27728">
        <ele>1325.9</ele>
        <time>2024-07-02T10:50:27Z</time>
      </trkpt>
      <trkpt lat="44.88793" lon="5.27729">
        <ele>1325.9</ele>
        <time>2024-07-02T10:50:28Z</time>
      </trkpt>
      <trkpt lat="44.88791" lon="5.27729">
        <ele>1325.9</ele>
        <time>2024-07-02T10:50:29Z</time>
      </trkpt>
      <trkpt lat="44.8879" lon="5.27728">
        <ele>1325.9</ele>
        <time>2024-07-02T10:50:30Z</time>
      </trkpt>
      <trkpt lat="44.88788" lon="5.27728">
        <ele>1326</ele>
        <time>2024-07-02T10:50:31Z</time>
      </trkpt>
      <trkpt lat="44.88787" lon="5.27729">
        <ele>1326</ele>
        <time>2024-07-02T10:50:32Z</time>
      </trkpt>
      <trkpt lat="44.88787" lon="5.27729">
        <ele>1326</ele>
        <time>2024-07-02T10:50:33Z</time>
      </trkpt>
      <trkpt lat="44.88786" lon="5.2773">
        <ele>1326</ele>
        <time>2024-07-02T10:50:34Z</time>
      </trkpt>
      <trkpt lat="44.88785" lon="5.27731">
        <ele>1326</ele>
        <time>2024-07-02T10:50:35Z</time>
      </trkpt>
      <trkpt lat="44.88784" lon="5.27731">
        <ele>1326</ele>
        <time>2024-07-02T10:50:36Z</time>
      </trkpt>
      <trkpt lat="44.88783" lon="5.27731">
        <ele>1326</ele>
        <time>2024-07-02T10:50:37Z</time>
      </trkpt>
      <trkpt lat="44.88782" lon="5.27731">
        <ele>1326</ele>
        <time>2024-07-02T10:50:38Z</time>
      </trkpt>
      <trkpt lat="44.88781" lon="5.27731">
        <ele>1326.1</ele>
        <time>2024-07-02T10:50:39Z</time>
      </trkpt>
      <trkpt lat="44.88779" lon="5.2773">
        <ele>1326.1</ele>
        <time>2024-07-02T10:50:40Z</time>
      </trkpt>
      <trkpt lat="44.88778" lon="5.27731">
        <ele>1326.1</ele>
        <time>2024-07-02T10:50:41Z</time>
      </trkpt>
      <trkpt lat="44.88778" lon="5.27733">
        <ele>1326.1</ele>
        <time>2024-07-02T10:50:42Z</time>
      </trkpt>
      <trkpt lat="44.88777" lon="5.27733">
        <ele>1326.1</ele>
        <time>2024-07-02T10:50:43Z</time>
      </trkpt>
      <trkpt lat="44.88776" lon="5.27734">
        <ele>1326.1</ele>
        <time>2024-07-02T10:50:44Z</time>
      </trkpt>
      <trkpt lat="44.88775" lon="5.27735">
        <ele>1326.1</ele>
        <time>2024-07-02T10:50:45Z</time>
      </trkpt>
      <trkpt lat="44.88773" lon="5.27735">
        <ele>1326.2</ele>
        <time>2024-07-02T10:50:46Z</time>
      </trkpt>
      <trkpt lat="44.88772" lon="5.27735">
        <ele>1326.2</ele>
        <time>2024-07-02T10:50:47Z</time>
      </trkpt>
      <trkpt lat="44.88771" lon="5.27735">
        <ele>1326.2</ele>
        <time>2024-07-02T10:50:48Z</time>
      </trkpt>
      <trkpt lat="44.8877" lon="5.27734">
        <ele>1326.2</ele>
        <time>2024-07-02T10:50:49Z</time>
      </trkpt>
      <trkpt lat="44.88769" lon="5.27734">
        <ele>1326.2</ele>
        <time>2024-07-02T10:50:50Z</time>
      </trkpt>
      <trkpt lat="44.88768" lon="5.27734">
        <ele>1326.2</ele>
        <time>2024-07-02T10:50:51Z</time>
      </trkpt>
      <trkpt lat="44.88768" lon="5.27733">
        <ele>1326.2</ele>
        <time>2024-07-02T10:50:52Z</time>
      </trkpt>
      <trkpt lat="44.88768" lon="5.27733">
        <ele>1326.2</ele>
        <time>2024-07-02T10:50:53Z</time>
      </trkpt>
      <trkpt lat="44.88768" lon="5.27733">
        <ele>1326.3</ele>
        <time>2024-07-02T10:50:54Z</time>
      </trkpt>
      <trkpt lat="44.88768" lon="5.27733">
        <ele>1326.3</ele>
        <time>2024-07-02T10:50:55Z</time>
      </trkpt>
      <trkpt lat="44.88769" lon="5.27733">
        <ele>1326.3</ele>
        <time>2024-07-02T10:50:56Z</time>
      </trkpt>
      <trkpt lat="44.88769" lon="5.27734">
        <ele>1326.3</ele>
        <time>2024-07-02T10:50:57Z</time>
      </trkpt>
      <trkpt lat="44.88769" lon="5.27734">
        <ele>1326.3</ele>
        <time>2024-07-02T10:50:58Z</time>
      </trkpt>
      <trkpt lat="44.88769" lon="5.27734">
        <ele>1326.3</ele>
        <time>2024-07-02T10:50:59Z</time>
      </trkpt>
      <trkpt lat="44.88769" lon="5.27734">
        <ele>1326.3</ele>
        <time>2024-07-02T10:51:00Z</time>
      </trkpt>
      <trkpt lat="44.88769" lon="5.27734">
        <ele>1326.3</ele>
        <time>2024-07-02T10:51:01Z</time>
      </trkpt>
      <trkpt lat="44.88769" lon="5.27734">
        <ele>1326.3</ele>
        <time>2024-07-02T10:51:02Z</time>
      </trkpt>
      <trkpt lat="44.88769" lon="5.27734">
        <ele>1326.3</ele>
        <time>2024-07-02T10:51:03Z</time>
      </trkpt>
      <trkpt lat="44.88769" lon="5.27734">
        <ele>1326.3</ele>
        <time>2024-07-02T10:51:04Z</time>
      </trkpt>
      <trkpt lat="44.88768" lon="5.27735">
        <ele>1326.4</ele>
        <time>2024-07-02T10:51:05Z</time>
      </trkpt>
      <trkpt lat="44.88766" lon="5.27735">
        <ele>1326.5</ele>
        <time>2024-07-02T10:51:06Z</time>
      </trkpt>
      <trkpt lat="44.88764" lon="5.27736">
        <ele>1326.6</ele>
        <time>2024-07-02T10:51:07Z</time>
      </trkpt>
      <trkpt lat="44.88763" lon="5.27737">
        <ele>1326.7</ele>
        <time>2024-07-02T10:51:08Z</time>
      </trkpt>
      <trkpt lat="44.88762" lon="5.27737">
        <ele>1326.7</ele>
        <time>2024-07-02T10:51:09Z</time>
      </trkpt>
      <trkpt lat="44.88761" lon="5.27737">
        <ele>1326.7</ele>
        <time>2024-07-02T10:51:10Z</time>
      </trkpt>
      <trkpt lat="44.8876" lon="5.27738">
        <ele>1326.8</ele>
        <time>2024-07-02T10:51:11Z</time>
      </trkpt>
      <trkpt lat="44.88759" lon="5.27738">
        <ele>1326.9</ele>
        <time>2024-07-02T10:51:12Z</time>
      </trkpt>
      <trkpt lat="44.88758" lon="5.27738">
        <ele>1326.9</ele>
        <time>2024-07-02T10:51:13Z</time>
      </trkpt>
      <trkpt lat="44.88757" lon="5.27738">
        <ele>1327</ele>
        <time>2024-07-02T10:51:14Z</time>
      </trkpt>
      <trkpt lat="44.88755" lon="5.27738">
        <ele>1327</ele>
        <time>2024-07-02T10:51:15Z</time>
      </trkpt>
      <trkpt lat="44.88755" lon="5.27738">
        <ele>1327.1</ele>
        <time>2024-07-02T10:51:16Z</time>
      </trkpt>
      <trkpt lat="44.88754" lon="5.27738">
        <ele>1327.1</ele>
        <time>2024-07-02T10:51:17Z</time>
      </trkpt>
      <trkpt lat="44.88753" lon="5.27738">
        <ele>1327.1</ele>
        <time>2024-07-02T10:51:18Z</time>
      </trkpt>
      <trkpt lat="44.88753" lon="5.27738">
        <ele>1327.2</ele>
        <time>2024-07-02T10:51:19Z</time>
      </trkpt>
      <trkpt lat="44.88752" lon="5.27738">
        <ele>1327.2</ele>
        <time>2024-07-02T10:51:20Z</time>
      </trkpt>
      <trkpt lat="44.88751" lon="5.27739">
        <ele>1327.2</ele>
        <time>2024-07-02T10:51:21Z</time>
      </trkpt>
      <trkpt lat="44.8875" lon="5.27738">
        <ele>1327.3</ele>
        <time>2024-07-02T10:51:22Z</time>
      </trkpt>
      <trkpt lat="44.88749" lon="5.27739">
        <ele>1327.3</ele>
        <time>2024-07-02T10:51:23Z</time>
      </trkpt>
      <trkpt lat="44.88748" lon="5.27739">
        <ele>1327.3</ele>
        <time>2024-07-02T10:51:24Z</time>
      </trkpt>
      <trkpt lat="44.88748" lon="5.27738">
        <ele>1327.4</ele>
        <time>2024-07-02T10:51:25Z</time>
      </trkpt>
      <trkpt lat="44.88747" lon="5.27738">
        <ele>1327.4</ele>
        <time>2024-07-02T10:51:26Z</time>
      </trkpt>
      <trkpt lat="44.88747" lon="5.27738">
        <ele>1327.4</ele>
        <time>2024-07-02T10:51:27Z</time>
      </trkpt>
      <trkpt lat="44.88746" lon="5.27738">
        <ele>1327.5</ele>
        <time>2024-07-02T10:51:28Z</time>
      </trkpt>
      <trkpt lat="44.88745" lon="5.27738">
        <ele>1327.5</ele>
        <time>2024-07-02T10:51:29Z</time>
      </trkpt>
      <trkpt lat="44.88745" lon="5.27737">
        <ele>1327.5</ele>
        <time>2024-07-02T10:51:30Z</time>
      </trkpt>
      <trkpt lat="44.88744" lon="5.27736">
        <ele>1327.6</ele>
        <time>2024-07-02T10:51:31Z</time>
      </trkpt>
      <trkpt lat="44.88743" lon="5.27736">
        <ele>1327.6</ele>
        <time>2024-07-02T10:51:32Z</time>
      </trkpt>
      <trkpt lat="44.88743" lon="5.27737">
        <ele>1327.6</ele>
        <time>2024-07-02T10:51:33Z</time>
      </trkpt>
      <trkpt lat="44.88741" lon="5.27736">
        <ele>1327.7</ele>
        <time>2024-07-02T10:51:34Z</time>
      </trkpt>
      <trkpt lat="44.88741" lon="5.27737">
        <ele>1327.7</ele>
        <time>2024-07-02T10:51:35Z</time>
      </trkpt>
      <trkpt lat="44.8874" lon="5.27737">
        <ele>1327.8</ele>
        <time>2024-07-02T10:51:36Z</time>
      </trkpt>
      <trkpt lat="44.88739" lon="5.27737">
        <ele>1327.8</ele>
        <time>2024-07-02T10:51:37Z</time>
      </trkpt>
      <trkpt lat="44.88738" lon="5.27737">
        <ele>1327.8</ele>
        <time>2024-07-02T10:51:38Z</time>
      </trkpt>
      <trkpt lat="44.88737" lon="5.27737">
        <ele>1327.9</ele>
        <time>2024-07-02T10:51:39Z</time>
      </trkpt>
      <trkpt lat="44.88737" lon="5.27739">
        <ele>1327.9</ele>
        <time>2024-07-02T10:51:40Z</time>
      </trkpt>
      <trkpt lat="44.88736" lon="5.27739">
        <ele>1328</ele>
        <time>2024-07-02T10:51:41Z</time>
      </trkpt>
      <trkpt lat="44.88735" lon="5.27739">
        <ele>1328</ele>
        <time>2024-07-02T10:51:42Z</time>
      </trkpt>
      <trkpt lat="44.88734" lon="5.27738">
        <ele>1328.1</ele>
        <time>2024-07-02T10:51:43Z</time>
      </trkpt>
      <trkpt lat="44.88733" lon="5.27738">
        <ele>1328.2</ele>
        <time>2024-07-02T10:51:44Z</time>
      </trkpt>
      <trkpt lat="44.88732" lon="5.27738">
        <ele>1328.2</ele>
        <time>2024-07-02T10:51:45Z</time>
      </trkpt>
      <trkpt lat="44.8873" lon="5.27737">
        <ele>1328.3</ele>
        <time>2024-07-02T10:51:46Z</time>
      </trkpt>
      <trkpt lat="44.88729" lon="5.27737">
        <ele>1328.3</ele>
        <time>2024-07-02T10:51:47Z</time>
      </trkpt>
      <trkpt lat="44.88728" lon="5.27737">
        <ele>1328.4</ele>
        <time>2024-07-02T10:51:48Z</time>
      </trkpt>
      <trkpt lat="44.88727" lon="5.27737">
        <ele>1328.4</ele>
        <time>2024-07-02T10:51:49Z</time>
      </trkpt>
      <trkpt lat="44.88726" lon="5.27737">
        <ele>1328.5</ele>
        <time>2024-07-02T10:51:50Z</time>
      </trkpt>
      <trkpt lat="44.88725" lon="5.27736">
        <ele>1328.6</ele>
        <time>2024-07-02T10:51:51Z</time>
      </trkpt>
      <trkpt lat="44.88724" lon="5.27736">
        <ele>1328.6</ele>
        <time>2024-07-02T10:51:52Z</time>
      </trkpt>
      <trkpt lat="44.88723" lon="5.27736">
        <ele>1328.7</ele>
        <time>2024-07-02T10:51:53Z</time>
      </trkpt>
      <trkpt lat="44.88722" lon="5.27736">
        <ele>1328.7</ele>
        <time>2024-07-02T10:51:54Z</time>
      </trkpt>
      <trkpt lat="44.88722" lon="5.27737">
        <ele>1328.8</ele>
        <time>2024-07-02T10:51:55Z</time>
      </trkpt>
      <trkpt lat="44.88721" lon="5.27737">
        <ele>1328.8</ele>
        <time>2024-07-02T10:51:56Z</time>
      </trkpt>
      <trkpt lat="44.8872" lon="5.27738">
        <ele>1328.9</ele>
        <time>2024-07-02T10:51:57Z</time>
      </trkpt>
      <trkpt lat="44.8872" lon="5.27739">
        <ele>1328.9</ele>
        <time>2024-07-02T10:51:58Z</time>
      </trkpt>
      <trkpt lat="44.88719" lon="5.2774">
        <ele>1329</ele>
        <time>2024-07-02T10:51:59Z</time>
      </trkpt>
      <trkpt lat="44.88718" lon="5.2774">
        <ele>1329.1</ele>
        <time>2024-07-02T10:52:00Z</time>
      </trkpt>
      <trkpt lat="44.88716" lon="5.2774">
        <ele>1329.1</ele>
        <time>2024-07-02T10:52:01Z</time>
      </trkpt>
      <trkpt lat="44.88714" lon="5.27739">
        <ele>1329.2</ele>
        <time>2024-07-02T10:52:02Z</time>
      </trkpt>
      <trkpt lat="44.88714" lon="5.27739">
        <ele>1329.3</ele>
        <time>2024-07-02T10:52:03Z</time>
      </trkpt>
      <trkpt lat="44.88713" lon="5.27739">
        <ele>1329.3</ele>
        <time>2024-07-02T10:52:04Z</time>
      </trkpt>
      <trkpt lat="44.88712" lon="5.27739">
        <ele>1329.4</ele>
        <time>2024-07-02T10:52:05Z</time>
      </trkpt>
      <trkpt lat="44.88711" lon="5.27739">
        <ele>1329.4</ele>
        <time>2024-07-02T10:52:06Z</time>
      </trkpt>
      <trkpt lat="44.8871" lon="5.27739">
        <ele>1329.5</ele>
        <time>2024-07-02T10:52:07Z</time>
      </trkpt>
      <trkpt lat="44.88709" lon="5.2774">
        <ele>1329.6</ele>
        <time>2024-07-02T10:52:08Z</time>
      </trkpt>
      <trkpt lat="44.88709" lon="5.27741">
        <ele>1329.6</ele>
        <time>2024-07-02T10:52:09Z</time>
      </trkpt>
      <trkpt lat="44.88709" lon="5.27741">
        <ele>1329.6</ele>
        <time>2024-07-02T10:52:10Z</time>
      </trkpt>
      <trkpt lat="44.8871" lon="5.27742">
        <ele>1329.6</ele>
        <time>2024-07-02T10:52:11Z</time>
      </trkpt>
      <trkpt lat="44.8871" lon="5.27742">
        <ele>1329.6</ele>
        <time>2024-07-02T10:52:12Z</time>
      </trkpt>
      <trkpt lat="44.8871" lon="5.27741">
        <ele>1329.7</ele>
        <time>2024-07-02T10:52:13Z</time>
      </trkpt>
      <trkpt lat="44.8871" lon="5.27741">
        <ele>1329.7</ele>
        <time>2024-07-02T10:52:14Z</time>
      </trkpt>
      <trkpt lat="44.8871" lon="5.27741">
        <ele>1329.7</ele>
        <time>2024-07-02T10:52:15Z</time>
      </trkpt>
      <trkpt lat="44.88709" lon="5.27741">
        <ele>1329.7</ele>
        <time>2024-07-02T10:52:16Z</time>
      </trkpt>
      <trkpt lat="44.88709" lon="5.27741">
        <ele>1329.8</ele>
        <time>2024-07-02T10:52:17Z</time>
      </trkpt>
      <trkpt lat="44.88708" lon="5.27741">
        <ele>1329.8</ele>
        <time>2024-07-02T10:52:18Z</time>
      </trkpt>
      <trkpt lat="44.88706" lon="5.2774">
        <ele>1329.9</ele>
        <time>2024-07-02T10:52:19Z</time>
      </trkpt>
      <trkpt lat="44.88705" lon="5.2774">
        <ele>1330</ele>
        <time>2024-07-02T10:52:20Z</time>
      </trkpt>
      <trkpt lat="44.88704" lon="5.2774">
        <ele>1330</ele>
        <time>2024-07-02T10:52:21Z</time>
      </trkpt>
      <trkpt lat="44.88703" lon="5.27739">
        <ele>1330.1</ele>
        <time>2024-07-02T10:52:22Z</time>
      </trkpt>
      <trkpt lat="44.88702" lon="5.27739">
        <ele>1330.1</ele>
        <time>2024-07-02T10:52:23Z</time>
      </trkpt>
      <trkpt lat="44.88702" lon="5.27739">
        <ele>1330.1</ele>
        <time>2024-07-02T10:52:24Z</time>
      </trkpt>
      <trkpt lat="44.88701" lon="5.27738">
        <ele>1330.2</ele>
        <time>2024-07-02T10:52:25Z</time>
      </trkpt>
      <trkpt lat="44.887" lon="5.27738">
        <ele>1330.2</ele>
        <time>2024-07-02T10:52:26Z</time>
      </trkpt>
      <trkpt lat="44.88699" lon="5.27737">
        <ele>1330.3</ele>
        <time>2024-07-02T10:52:27Z</time>
      </trkpt>
      <trkpt lat="44.88698" lon="5.27738">
        <ele>1330.3</ele>
        <time>2024-07-02T10:52:28Z</time>
      </trkpt>
      <trkpt lat="44.88697" lon="5.27737">
        <ele>1330.4</ele>
        <time>2024-07-02T10:52:29Z</time>
      </trkpt>
      <trkpt lat="44.88696" lon="5.27737">
        <ele>1330.4</ele>
        <time>2024-07-02T10:52:30Z</time>
      </trkpt>
      <trkpt lat="44.88695" lon="5.27737">
        <ele>1330.5</ele>
        <time>2024-07-02T10:52:31Z</time>
      </trkpt>
      <trkpt lat="44.88694" lon="5.27737">
        <ele>1330.5</ele>
        <time>2024-07-02T10:52:32Z</time>
      </trkpt>
      <trkpt lat="44.88694" lon="5.27737">
        <ele>1330.6</ele>
        <time>2024-07-02T10:52:33Z</time>
      </trkpt>
      <trkpt lat="44.88693" lon="5.27737">
        <ele>1330.6</ele>
        <time>2024-07-02T10:52:34Z</time>
      </trkpt>
      <trkpt lat="44.88692" lon="5.27736">
        <ele>1330.7</ele>
        <time>2024-07-02T10:52:35Z</time>
      </trkpt>
      <trkpt lat="44.88691" lon="5.27736">
        <ele>1330.7</ele>
        <time>2024-07-02T10:52:36Z</time>
      </trkpt>
      <trkpt lat="44.8869" lon="5.27735">
        <ele>1330.8</ele>
        <time>2024-07-02T10:52:37Z</time>
      </trkpt>
      <trkpt lat="44.88689" lon="5.27735">
        <ele>1330.8</ele>
        <time>2024-07-02T10:52:38Z</time>
      </trkpt>
      <trkpt lat="44.88688" lon="5.27735">
        <ele>1330.9</ele>
        <time>2024-07-02T10:52:39Z</time>
      </trkpt>
      <trkpt lat="44.88688" lon="5.27734">
        <ele>1330.9</ele>
        <time>2024-07-02T10:52:40Z</time>
      </trkpt>
      <trkpt lat="44.88687" lon="5.27735">
        <ele>1330.9</ele>
        <time>2024-07-02T10:52:41Z</time>
      </trkpt>
      <trkpt lat="44.88686" lon="5.27735">
        <ele>1331</ele>
        <time>2024-07-02T10:52:42Z</time>
      </trkpt>
      <trkpt lat="44.88686" lon="5.27735">
        <ele>1331</ele>
        <time>2024-07-02T10:52:43Z</time>
      </trkpt>
      <trkpt lat="44.88685" lon="5.27734">
        <ele>1331.1</ele>
        <time>2024-07-02T10:52:44Z</time>
      </trkpt>
      <trkpt lat="44.88684" lon="5.27732">
        <ele>1331.1</ele>
        <time>2024-07-02T10:52:45Z</time>
      </trkpt>
      <trkpt lat="44.88683" lon="5.27733">
        <ele>1331.2</ele>
        <time>2024-07-02T10:52:46Z</time>
      </trkpt>
      <trkpt lat="44.88682" lon="5.27732">
        <ele>1331.2</ele>
        <time>2024-07-02T10:52:47Z</time>
      </trkpt>
      <trkpt lat="44.88681" lon="5.27732">
        <ele>1331.2</ele>
        <time>2024-07-02T10:52:48Z</time>
      </trkpt>
      <trkpt lat="44.8868" lon="5.27731">
        <ele>1331.3</ele>
        <time>2024-07-02T10:52:49Z</time>
      </trkpt>
      <trkpt lat="44.88679" lon="5.27731">
        <ele>1331.3</ele>
        <time>2024-07-02T10:52:50Z</time>
      </trkpt>
      <trkpt lat="44.88677" lon="5.27731">
        <ele>1331.4</ele>
        <time>2024-07-02T10:52:51Z</time>
      </trkpt>
      <trkpt lat="44.88676" lon="5.27731">
        <ele>1331.5</ele>
        <time>2024-07-02T10:52:52Z</time>
      </trkpt>
      <trkpt lat="44.88674" lon="5.2773">
        <ele>1331.5</ele>
        <time>2024-07-02T10:52:53Z</time>
      </trkpt>
      <trkpt lat="44.88672" lon="5.2773">
        <ele>1331.6</ele>
        <time>2024-07-02T10:52:54Z</time>
      </trkpt>
      <trkpt lat="44.88671" lon="5.2773">
        <ele>1331.7</ele>
        <time>2024-07-02T10:52:55Z</time>
      </trkpt>
      <trkpt lat="44.8867" lon="5.2773">
        <ele>1331.7</ele>
        <time>2024-07-02T10:52:56Z</time>
      </trkpt>
      <trkpt lat="44.88669" lon="5.2773">
        <ele>1331.8</ele>
        <time>2024-07-02T10:52:57Z</time>
      </trkpt>
      <trkpt lat="44.88667" lon="5.2773">
        <ele>1331.9</ele>
        <time>2024-07-02T10:52:58Z</time>
      </trkpt>
      <trkpt lat="44.88666" lon="5.2773">
        <ele>1331.9</ele>
        <time>2024-07-02T10:52:59Z</time>
      </trkpt>
      <trkpt lat="44.88665" lon="5.2773">
        <ele>1331.9</ele>
        <time>2024-07-02T10:53:00Z</time>
      </trkpt>
      <trkpt lat="44.88663" lon="5.2773">
        <ele>1332</ele>
        <time>2024-07-02T10:53:01Z</time>
      </trkpt>
      <trkpt lat="44.88662" lon="5.2773">
        <ele>1332.1</ele>
        <time>2024-07-02T10:53:02Z</time>
      </trkpt>
      <trkpt lat="44.88661" lon="5.2773">
        <ele>1332.1</ele>
        <time>2024-07-02T10:53:03Z</time>
      </trkpt>
      <trkpt lat="44.8866" lon="5.2773">
        <ele>1332.2</ele>
        <time>2024-07-02T10:53:04Z</time>
      </trkpt>
      <trkpt lat="44.88658" lon="5.2773">
        <ele>1332.3</ele>
        <time>2024-07-02T10:53:05Z</time>
      </trkpt>
      <trkpt lat="44.88657" lon="5.27731">
        <ele>1332.3</ele>
        <time>2024-07-02T10:53:06Z</time>
      </trkpt>
      <trkpt lat="44.88656" lon="5.27731">
        <ele>1332.4</ele>
        <time>2024-07-02T10:53:07Z</time>
      </trkpt>
      <trkpt lat="44.88654" lon="5.2773">
        <ele>1332.5</ele>
        <time>2024-07-02T10:53:08Z</time>
      </trkpt>
      <trkpt lat="44.88653" lon="5.2773">
        <ele>1332.6</ele>
        <time>2024-07-02T10:53:09Z</time>
      </trkpt>
      <trkpt lat="44.88651" lon="5.2773">
        <ele>1332.7</ele>
        <time>2024-07-02T10:53:10Z</time>
      </trkpt>
      <trkpt lat="44.8865" lon="5.27729">
        <ele>1332.7</ele>
        <time>2024-07-02T10:53:11Z</time>
      </trkpt>
      <trkpt lat="44.88649" lon="5.27729">
        <ele>1332.8</ele>
        <time>2024-07-02T10:53:12Z</time>
      </trkpt>
      <trkpt lat="44.88647" lon="5.27728">
        <ele>1332.9</ele>
        <time>2024-07-02T10:53:13Z</time>
      </trkpt>
      <trkpt lat="44.88645" lon="5.27728">
        <ele>1333</ele>
        <time>2024-07-02T10:53:14Z</time>
      </trkpt>
      <trkpt lat="44.88644" lon="5.27728">
        <ele>1333.1</ele>
        <time>2024-07-02T10:53:15Z</time>
      </trkpt>
      <trkpt lat="44.88643" lon="5.27727">
        <ele>1333.1</ele>
        <time>2024-07-02T10:53:16Z</time>
      </trkpt>
      <trkpt lat="44.88641" lon="5.27727">
        <ele>1333.3</ele>
        <time>2024-07-02T10:53:17Z</time>
      </trkpt>
      <trkpt lat="44.8864" lon="5.27727">
        <ele>1333.3</ele>
        <time>2024-07-02T10:53:18Z</time>
      </trkpt>
      <trkpt lat="44.88639" lon="5.27727">
        <ele>1333.4</ele>
        <time>2024-07-02T10:53:19Z</time>
      </trkpt>
      <trkpt lat="44.88637" lon="5.27727">
        <ele>1333.5</ele>
        <time>2024-07-02T10:53:20Z</time>
      </trkpt>
      <trkpt lat="44.88637" lon="5.27727">
        <ele>1333.5</ele>
        <time>2024-07-02T10:53:21Z</time>
      </trkpt>
      <trkpt lat="44.88636" lon="5.27727">
        <ele>1333.6</ele>
        <time>2024-07-02T10:53:22Z</time>
      </trkpt>
      <trkpt lat="44.88634" lon="5.27726">
        <ele>1333.6</ele>
        <time>2024-07-02T10:53:23Z</time>
      </trkpt>
      <trkpt lat="44.88633" lon="5.27726">
        <ele>1333.7</ele>
        <time>2024-07-02T10:53:24Z</time>
      </trkpt>
      <trkpt lat="44.88631" lon="5.27727">
        <ele>1333.9</ele>
        <time>2024-07-02T10:53:25Z</time>
      </trkpt>
      <trkpt lat="44.8863" lon="5.27726">
        <ele>1333.9</ele>
        <time>2024-07-02T10:53:26Z</time>
      </trkpt>
      <trkpt lat="44.88629" lon="5.27726">
        <ele>1334</ele>
        <time>2024-07-02T10:53:27Z</time>
      </trkpt>
      <trkpt lat="44.88628" lon="5.27726">
        <ele>1334</ele>
        <time>2024-07-02T10:53:28Z</time>
      </trkpt>
      <trkpt lat="44.88626" lon="5.27726">
        <ele>1334.1</ele>
        <time>2024-07-02T10:53:29Z</time>
      </trkpt>
      <trkpt lat="44.88624" lon="5.27725">
        <ele>1334.2</ele>
        <time>2024-07-02T10:53:30Z</time>
      </trkpt>
      <trkpt lat="44.88624" lon="5.27724">
        <ele>1334.3</ele>
        <time>2024-07-02T10:53:31Z</time>
      </trkpt>
      <trkpt lat="44.88623" lon="5.27724">
        <ele>1334.3</ele>
        <time>2024-07-02T10:53:32Z</time>
      </trkpt>
      <trkpt lat="44.88621" lon="5.27723">
        <ele>1334.5</ele>
        <time>2024-07-02T10:53:33Z</time>
      </trkpt>
      <trkpt lat="44.8862" lon="5.27723">
        <ele>1334.5</ele>
        <time>2024-07-02T10:53:34Z</time>
      </trkpt>
      <trkpt lat="44.88619" lon="5.27722">
        <ele>1334.6</ele>
        <time>2024-07-02T10:53:35Z</time>
      </trkpt>
      <trkpt lat="44.88617" lon="5.27721">
        <ele>1334.7</ele>
        <time>2024-07-02T10:53:36Z</time>
      </trkpt>
      <trkpt lat="44.88617" lon="5.27721">
        <ele>1334.8</ele>
        <time>2024-07-02T10:53:37Z</time>
      </trkpt>
      <trkpt lat="44.88616" lon="5.27721">
        <ele>1334.8</ele>
        <time>2024-07-02T10:53:38Z</time>
      </trkpt>
      <trkpt lat="44.88615" lon="5.27721">
        <ele>1334.9</ele>
        <time>2024-07-02T10:53:39Z</time>
      </trkpt>
      <trkpt lat="44.88613" lon="5.2772">
        <ele>1335</ele>
        <time>2024-07-02T10:53:40Z</time>
      </trkpt>
      <trkpt lat="44.88612" lon="5.27719">
        <ele>1335</ele>
        <time>2024-07-02T10:53:41Z</time>
      </trkpt>
      <trkpt lat="44.88612" lon="5.27718">
        <ele>1335.1</ele>
        <time>2024-07-02T10:53:42Z</time>
      </trkpt>
      <trkpt lat="44.88612" lon="5.27716">
        <ele>1335.2</ele>
        <time>2024-07-02T10:53:43Z</time>
      </trkpt>
      <trkpt lat="44.88611" lon="5.27715">
        <ele>1335.2</ele>
        <time>2024-07-02T10:53:44Z</time>
      </trkpt>
      <trkpt lat="44.8861" lon="5.27716">
        <ele>1335.3</ele>
        <time>2024-07-02T10:53:45Z</time>
      </trkpt>
      <trkpt lat="44.88609" lon="5.27716">
        <ele>1335.4</ele>
        <time>2024-07-02T10:53:46Z</time>
      </trkpt>
      <trkpt lat="44.88608" lon="5.27715">
        <ele>1335.5</ele>
        <time>2024-07-02T10:53:47Z</time>
      </trkpt>
      <trkpt lat="44.88607" lon="5.27715">
        <ele>1335.5</ele>
        <time>2024-07-02T10:53:48Z</time>
      </trkpt>
      <trkpt lat="44.88606" lon="5.27714">
        <ele>1335.6</ele>
        <time>2024-07-02T10:53:49Z</time>
      </trkpt>
      <trkpt lat="44.88605" lon="5.27714">
        <ele>1335.7</ele>
        <time>2024-07-02T10:53:50Z</time>
      </trkpt>
      <trkpt lat="44.88603" lon="5.27713">
        <ele>1335.8</ele>
        <time>2024-07-02T10:53:51Z</time>
      </trkpt>
      <trkpt lat="44.88602" lon="5.27713">
        <ele>1335.9</ele>
        <time>2024-07-02T10:53:52Z</time>
      </trkpt>
      <trkpt lat="44.88601" lon="5.27713">
        <ele>1335.9</ele>
        <time>2024-07-02T10:53:53Z</time>
      </trkpt>
      <trkpt lat="44.886" lon="5.27713">
        <ele>1336</ele>
        <time>2024-07-02T10:53:54Z</time>
      </trkpt>
      <trkpt lat="44.88599" lon="5.27712">
        <ele>1336.1</ele>
        <time>2024-07-02T10:53:55Z</time>
      </trkpt>
      <trkpt lat="44.88598" lon="5.27712">
        <ele>1336.2</ele>
        <time>2024-07-02T10:53:56Z</time>
      </trkpt>
      <trkpt lat="44.88597" lon="5.27711">
        <ele>1336.3</ele>
        <time>2024-07-02T10:53:57Z</time>
      </trkpt>
      <trkpt lat="44.88596" lon="5.27711">
        <ele>1336.3</ele>
        <time>2024-07-02T10:53:58Z</time>
      </trkpt>
      <trkpt lat="44.88594" lon="5.2771">
        <ele>1336.4</ele>
        <time>2024-07-02T10:53:59Z</time>
      </trkpt>
      <trkpt lat="44.88594" lon="5.27711">
        <ele>1336.5</ele>
        <time>2024-07-02T10:54:00Z</time>
      </trkpt>
      <trkpt lat="44.88593" lon="5.27711">
        <ele>1336.5</ele>
        <time>2024-07-02T10:54:01Z</time>
      </trkpt>
      <trkpt lat="44.88592" lon="5.27711">
        <ele>1336.6</ele>
        <time>2024-07-02T10:54:02Z</time>
      </trkpt>
      <trkpt lat="44.88591" lon="5.27711">
        <ele>1336.6</ele>
        <time>2024-07-02T10:54:03Z</time>
      </trkpt>
      <trkpt lat="44.8859" lon="5.27711">
        <ele>1336.7</ele>
        <time>2024-07-02T10:54:04Z</time>
      </trkpt>
      <trkpt lat="44.88589" lon="5.27712">
        <ele>1336.7</ele>
        <time>2024-07-02T10:54:05Z</time>
      </trkpt>
      <trkpt lat="44.88588" lon="5.27712">
        <ele>1336.7</ele>
        <time>2024-07-02T10:54:06Z</time>
      </trkpt>
      <trkpt lat="44.88587" lon="5.27712">
        <ele>1336.7</ele>
        <time>2024-07-02T10:54:07Z</time>
      </trkpt>
      <trkpt lat="44.88586" lon="5.27713">
        <ele>1336.8</ele>
        <time>2024-07-02T10:54:08Z</time>
      </trkpt>
      <trkpt lat="44.88585" lon="5.27713">
        <ele>1336.8</ele>
        <time>2024-07-02T10:54:09Z</time>
      </trkpt>
      <trkpt lat="44.88584" lon="5.27714">
        <ele>1336.8</ele>
        <time>2024-07-02T10:54:10Z</time>
      </trkpt>
      <trkpt lat="44.88583" lon="5.27714">
        <ele>1336.8</ele>
        <time>2024-07-02T10:54:11Z</time>
      </trkpt>
      <trkpt lat="44.88582" lon="5.27714">
        <ele>1336.8</ele>
        <time>2024-07-02T10:54:12Z</time>
      </trkpt>
      <trkpt lat="44.88581" lon="5.27715">
        <ele>1336.9</ele>
        <time>2024-07-02T10:54:13Z</time>
      </trkpt>
      <trkpt lat="44.8858" lon="5.27715">
        <ele>1336.9</ele>
        <time>2024-07-02T10:54:14Z</time>
      </trkpt>
      <trkpt lat="44.88579" lon="5.27716">
        <ele>1336.9</ele>
        <time>2024-07-02T10:54:15Z</time>
      </trkpt>
      <trkpt lat="44.88578" lon="5.27717">
        <ele>1336.9</ele>
        <time>2024-07-02T10:54:16Z</time>
      </trkpt>
      <trkpt lat="44.88577" lon="5.27717">
        <ele>1336.9</ele>
        <time>2024-07-02T10:54:17Z</time>
      </trkpt>
      <trkpt lat="44.88577" lon="5.27717">
        <ele>1336.9</ele>
        <time>2024-07-02T10:54:18Z</time>
      </trkpt>
      <trkpt lat="44.88576" lon="5.27717">
        <ele>1336.9</ele>
        <time>2024-07-02T10:54:19Z</time>
      </trkpt>
      <trkpt lat="44.88575" lon="5.27717">
        <ele>1336.9</ele>
        <time>2024-07-02T10:54:20Z</time>
      </trkpt>
      <trkpt lat="44.88575" lon="5.27719">
        <ele>1336.9</ele>
        <time>2024-07-02T10:54:21Z</time>
      </trkpt>
      <trkpt lat="44.88574" lon="5.2772">
        <ele>1336.9</ele>
        <time>2024-07-02T10:54:22Z</time>
      </trkpt>
      <trkpt lat="44.88574" lon="5.27722">
        <ele>1336.9</ele>
        <time>2024-07-02T10:54:23Z</time>
      </trkpt>
      <trkpt lat="44.88573" lon="5.27723">
        <ele>1336.9</ele>
        <time>2024-07-02T10:54:24Z</time>
      </trkpt>
      <trkpt lat="44.88572" lon="5.27723">
        <ele>1336.9</ele>
        <time>2024-07-02T10:54:25Z</time>
      </trkpt>
      <trkpt lat="44.88572" lon="5.27724">
        <ele>1336.9</ele>
        <time>2024-07-02T10:54:26Z</time>
      </trkpt>
      <trkpt lat="44.88571" lon="5.27724">
        <ele>1336.9</ele>
        <time>2024-07-02T10:54:27Z</time>
      </trkpt>
      <trkpt lat="44.8857" lon="5.27724">
        <ele>1336.9</ele>
        <time>2024-07-02T10:54:28Z</time>
      </trkpt>
      <trkpt lat="44.8857" lon="5.27724">
        <ele>1336.9</ele>
        <time>2024-07-02T10:54:29Z</time>
      </trkpt>
      <trkpt lat="44.88569" lon="5.27723">
        <ele>1336.9</ele>
        <time>2024-07-02T10:54:30Z</time>
      </trkpt>
      <trkpt lat="44.88569" lon="5.27722">
        <ele>1336.9</ele>
        <time>2024-07-02T10:54:31Z</time>
      </trkpt>
      <trkpt lat="44.88568" lon="5.27722">
        <ele>1336.9</ele>
        <time>2024-07-02T10:54:32Z</time>
      </trkpt>
      <trkpt lat="44.88568" lon="5.27721">
        <ele>1336.9</ele>
        <time>2024-07-02T10:54:33Z</time>
      </trkpt>
      <trkpt lat="44.88568" lon="5.2772">
        <ele>1336.9</ele>
        <time>2024-07-02T10:54:34Z</time>
      </trkpt>
      <trkpt lat="44.88567" lon="5.27719">
        <ele>1336.9</ele>
        <time>2024-07-02T10:54:35Z</time>
      </trkpt>
      <trkpt lat="44.88566" lon="5.27719">
        <ele>1337</ele>
        <time>2024-07-02T10:54:36Z</time>
      </trkpt>
      <trkpt lat="44.88565" lon="5.27719">
        <ele>1337</ele>
        <time>2024-07-02T10:54:37Z</time>
      </trkpt>
      <trkpt lat="44.88565" lon="5.27719">
        <ele>1337</ele>
        <time>2024-07-02T10:54:38Z</time>
      </trkpt>
      <trkpt lat="44.88565" lon="5.2772">
        <ele>1337</ele>
        <time>2024-07-02T10:54:39Z</time>
      </trkpt>
      <trkpt lat="44.88565" lon="5.2772">
        <ele>1337</ele>
        <time>2024-07-02T10:54:40Z</time>
      </trkpt>
      <trkpt lat="44.88565" lon="5.2772">
        <ele>1337</ele>
        <time>2024-07-02T10:54:41Z</time>
      </trkpt>
      <trkpt lat="44.88565" lon="5.27719">
        <ele>1337</ele>
        <time>2024-07-02T10:54:42Z</time>
      </trkpt>
      <trkpt lat="44.88565" lon="5.27719">
        <ele>1337</ele>
        <time>2024-07-02T10:54:43Z</time>
      </trkpt>
      <trkpt lat="44.88565" lon="5.27717">
        <ele>1337</ele>
        <time>2024-07-02T10:54:44Z</time>
      </trkpt>
      <trkpt lat="44.88565" lon="5.27715">
        <ele>1337.1</ele>
        <time>2024-07-02T10:54:45Z</time>
      </trkpt>
      <trkpt lat="44.88564" lon="5.27713">
        <ele>1337.1</ele>
        <time>2024-07-02T10:54:46Z</time>
      </trkpt>
      <trkpt lat="44.88563" lon="5.27712">
        <ele>1337.1</ele>
        <time>2024-07-02T10:54:47Z</time>
      </trkpt>
      <trkpt lat="44.88562" lon="5.2771">
        <ele>1337.2</ele>
        <time>2024-07-02T10:54:48Z</time>
      </trkpt>
      <trkpt lat="44.88561" lon="5.27709">
        <ele>1337.2</ele>
        <time>2024-07-02T10:54:49Z</time>
      </trkpt>
      <trkpt lat="44.8856" lon="5.27708">
        <ele>1337.3</ele>
        <time>2024-07-02T10:54:50Z</time>
      </trkpt>
      <trkpt lat="44.88559" lon="5.27707">
        <ele>1337.3</ele>
        <time>2024-07-02T10:54:51Z</time>
      </trkpt>
      <trkpt lat="44.88558" lon="5.27706">
        <ele>1337.4</ele>
        <time>2024-07-02T10:54:52Z</time>
      </trkpt>
      <trkpt lat="44.88557" lon="5.27705">
        <ele>1337.4</ele>
        <time>2024-07-02T10:54:53Z</time>
      </trkpt>
      <trkpt lat="44.88556" lon="5.27704">
        <ele>1337.4</ele>
        <time>2024-07-02T10:54:54Z</time>
      </trkpt>
      <trkpt lat="44.88556" lon="5.27704">
        <ele>1337.5</ele>
        <time>2024-07-02T10:54:55Z</time>
      </trkpt>
      <trkpt lat="44.88555" lon="5.27703">
        <ele>1337.5</ele>
        <time>2024-07-02T10:54:56Z</time>
      </trkpt>
      <trkpt lat="44.88554" lon="5.27702">
        <ele>1337.5</ele>
        <time>2024-07-02T10:54:57Z</time>
      </trkpt>
      <trkpt lat="44.88553" lon="5.27702">
        <ele>1337.6</ele>
        <time>2024-07-02T10:54:58Z</time>
      </trkpt>
      <trkpt lat="44.88552" lon="5.27701">
        <ele>1337.6</ele>
        <time>2024-07-02T10:54:59Z</time>
      </trkpt>
      <trkpt lat="44.88551" lon="5.277">
        <ele>1337.7</ele>
        <time>2024-07-02T10:55:00Z</time>
      </trkpt>
      <trkpt lat="44.8855" lon="5.277">
        <ele>1337.7</ele>
        <time>2024-07-02T10:55:01Z</time>
      </trkpt>
      <trkpt lat="44.88549" lon="5.27699">
        <ele>1337.7</ele>
        <time>2024-07-02T10:55:02Z</time>
      </trkpt>
      <trkpt lat="44.88548" lon="5.27698">
        <ele>1337.8</ele>
        <time>2024-07-02T10:55:03Z</time>
      </trkpt>
      <trkpt lat="44.88547" lon="5.27697">
        <ele>1337.8</ele>
        <time>2024-07-02T10:55:04Z</time>
      </trkpt>
      <trkpt lat="44.88546" lon="5.27696">
        <ele>1337.8</ele>
        <time>2024-07-02T10:55:05Z</time>
      </trkpt>
      <trkpt lat="44.88545" lon="5.27695">
        <ele>1337.9</ele>
        <time>2024-07-02T10:55:06Z</time>
      </trkpt>
      <trkpt lat="44.88544" lon="5.27695">
        <ele>1337.9</ele>
        <time>2024-07-02T10:55:07Z</time>
      </trkpt>
      <trkpt lat="44.88543" lon="5.27694">
        <ele>1337.9</ele>
        <time>2024-07-02T10:55:08Z</time>
      </trkpt>
      <trkpt lat="44.88542" lon="5.27693">
        <ele>1337.9</ele>
        <time>2024-07-02T10:55:09Z</time>
      </trkpt>
      <trkpt lat="44.88542" lon="5.27692">
        <ele>1338</ele>
        <time>2024-07-02T10:55:10Z</time>
      </trkpt>
      <trkpt lat="44.88541" lon="5.27691">
        <ele>1338</ele>
        <time>2024-07-02T10:55:11Z</time>
      </trkpt>
      <trkpt lat="44.8854" lon="5.2769">
        <ele>1338</ele>
        <time>2024-07-02T10:55:12Z</time>
      </trkpt>
      <trkpt lat="44.88539" lon="5.2769">
        <ele>1338</ele>
        <time>2024-07-02T10:55:13Z</time>
      </trkpt>
      <trkpt lat="44.88538" lon="5.27689">
        <ele>1338</ele>
        <time>2024-07-02T10:55:14Z</time>
      </trkpt>
      <trkpt lat="44.88537" lon="5.27689">
        <ele>1338</ele>
        <time>2024-07-02T10:55:15Z</time>
      </trkpt>
      <trkpt lat="44.88536" lon="5.27689">
        <ele>1338.1</ele>
        <time>2024-07-02T10:55:16Z</time>
      </trkpt>
      <trkpt lat="44.88535" lon="5.27689">
        <ele>1338.1</ele>
        <time>2024-07-02T10:55:17Z</time>
      </trkpt>
      <trkpt lat="44.88533" lon="5.27689">
        <ele>1338.1</ele>
        <time>2024-07-02T10:55:18Z</time>
      </trkpt>
      <trkpt lat="44.88532" lon="5.27688">
        <ele>1338.1</ele>
        <time>2024-07-02T10:55:19Z</time>
      </trkpt>
      <trkpt lat="44.88531" lon="5.27687">
        <ele>1338.1</ele>
        <time>2024-07-02T10:55:20Z</time>
      </trkpt>
      <trkpt lat="44.88531" lon="5.27686">
        <ele>1338.1</ele>
        <time>2024-07-02T10:55:21Z</time>
      </trkpt>
      <trkpt lat="44.8853" lon="5.27685">
        <ele>1338.1</ele>
        <time>2024-07-02T10:55:22Z</time>
      </trkpt>
      <trkpt lat="44.88529" lon="5.27683">
        <ele>1338.1</ele>
        <time>2024-07-02T10:55:23Z</time>
      </trkpt>
      <trkpt lat="44.88529" lon="5.27682">
        <ele>1338.1</ele>
        <time>2024-07-02T10:55:24Z</time>
      </trkpt>
      <trkpt lat="44.88528" lon="5.27682">
        <ele>1338.2</ele>
        <time>2024-07-02T10:55:25Z</time>
      </trkpt>
      <trkpt lat="44.88527" lon="5.27681">
        <ele>1338.2</ele>
        <time>2024-07-02T10:55:26Z</time>
      </trkpt>
      <trkpt lat="44.88526" lon="5.2768">
        <ele>1338.2</ele>
        <time>2024-07-02T10:55:27Z</time>
      </trkpt>
      <trkpt lat="44.88526" lon="5.27678">
        <ele>1338.2</ele>
        <time>2024-07-02T10:55:28Z</time>
      </trkpt>
      <trkpt lat="44.88525" lon="5.27677">
        <ele>1338.2</ele>
        <time>2024-07-02T10:55:29Z</time>
      </trkpt>
      <trkpt lat="44.88524" lon="5.27676">
        <ele>1338.2</ele>
        <time>2024-07-02T10:55:30Z</time>
      </trkpt>
      <trkpt lat="44.88524" lon="5.27675">
        <ele>1338.2</ele>
        <time>2024-07-02T10:55:31Z</time>
      </trkpt>
      <trkpt lat="44.88523" lon="5.27674">
        <ele>1338.2</ele>
        <time>2024-07-02T10:55:32Z</time>
      </trkpt>
      <trkpt lat="44.88521" lon="5.27671">
        <ele>1338.3</ele>
        <time>2024-07-02T10:55:33Z</time>
      </trkpt>
      <trkpt lat="44.88521" lon="5.27671">
        <ele>1338.3</ele>
        <time>2024-07-02T10:55:34Z</time>
      </trkpt>
      <trkpt lat="44.8852" lon="5.2767">
        <ele>1338.3</ele>
        <time>2024-07-02T10:55:35Z</time>
      </trkpt>
      <trkpt lat="44.88518" lon="5.27668">
        <ele>1338.3</ele>
        <time>2024-07-02T10:55:36Z</time>
      </trkpt>
      <trkpt lat="44.88517" lon="5.27667">
        <ele>1338.3</ele>
        <time>2024-07-02T10:55:37Z</time>
      </trkpt>
      <trkpt lat="44.88517" lon="5.27667">
        <ele>1338.4</ele>
        <time>2024-07-02T10:55:38Z</time>
      </trkpt>
      <trkpt lat="44.88515" lon="5.27666">
        <ele>1338.4</ele>
        <time>2024-07-02T10:55:39Z</time>
      </trkpt>
      <trkpt lat="44.88514" lon="5.27665">
        <ele>1338.4</ele>
        <time>2024-07-02T10:55:40Z</time>
      </trkpt>
      <trkpt lat="44.88513" lon="5.27664">
        <ele>1338.4</ele>
        <time>2024-07-02T10:55:41Z</time>
      </trkpt>
      <trkpt lat="44.88512" lon="5.27664">
        <ele>1338.5</ele>
        <time>2024-07-02T10:55:42Z</time>
      </trkpt>
      <trkpt lat="44.88511" lon="5.27663">
        <ele>1338.5</ele>
        <time>2024-07-02T10:55:43Z</time>
      </trkpt>
      <trkpt lat="44.8851" lon="5.27662">
        <ele>1338.5</ele>
        <time>2024-07-02T10:55:44Z</time>
      </trkpt>
      <trkpt lat="44.88509" lon="5.27661">
        <ele>1338.5</ele>
        <time>2024-07-02T10:55:45Z</time>
      </trkpt>
      <trkpt lat="44.88508" lon="5.27661">
        <ele>1338.6</ele>
        <time>2024-07-02T10:55:46Z</time>
      </trkpt>
      <trkpt lat="44.88508" lon="5.2766">
        <ele>1338.6</ele>
        <time>2024-07-02T10:55:47Z</time>
      </trkpt>
      <trkpt lat="44.88507" lon="5.27659">
        <ele>1338.6</ele>
        <time>2024-07-02T10:55:48Z</time>
      </trkpt>
      <trkpt lat="44.88506" lon="5.27658">
        <ele>1338.6</ele>
        <time>2024-07-02T10:55:49Z</time>
      </trkpt>
      <trkpt lat="44.88505" lon="5.27657">
        <ele>1338.7</ele>
        <time>2024-07-02T10:55:50Z</time>
      </trkpt>
      <trkpt lat="44.88504" lon="5.27656">
        <ele>1338.7</ele>
        <time>2024-07-02T10:55:51Z</time>
      </trkpt>
      <trkpt lat="44.88503" lon="5.27655">
        <ele>1338.7</ele>
        <time>2024-07-02T10:55:52Z</time>
      </trkpt>
      <trkpt lat="44.88503" lon="5.27654">
        <ele>1338.8</ele>
        <time>2024-07-02T10:55:53Z</time>
      </trkpt>
      <trkpt lat="44.88501" lon="5.27652">
        <ele>1338.8</ele>
        <time>2024-07-02T10:55:54Z</time>
      </trkpt>
      <trkpt lat="44.885" lon="5.27651">
        <ele>1338.8</ele>
        <time>2024-07-02T10:55:55Z</time>
      </trkpt>
      <trkpt lat="44.885" lon="5.27651">
        <ele>1338.9</ele>
        <time>2024-07-02T10:55:56Z</time>
      </trkpt>
      <trkpt lat="44.88498" lon="5.27649">
        <ele>1338.9</ele>
        <time>2024-07-02T10:55:57Z</time>
      </trkpt>
      <trkpt lat="44.88497" lon="5.27648">
        <ele>1338.9</ele>
        <time>2024-07-02T10:55:58Z</time>
      </trkpt>
      <trkpt lat="44.88497" lon="5.27648">
        <ele>1338.9</ele>
        <time>2024-07-02T10:55:59Z</time>
      </trkpt>
      <trkpt lat="44.88496" lon="5.27647">
        <ele>1339</ele>
        <time>2024-07-02T10:56:00Z</time>
      </trkpt>
      <trkpt lat="44.88495" lon="5.27645">
        <ele>1339</ele>
        <time>2024-07-02T10:56:01Z</time>
      </trkpt>
      <trkpt lat="44.88494" lon="5.27644">
        <ele>1339</ele>
        <time>2024-07-02T10:56:02Z</time>
      </trkpt>
      <trkpt lat="44.88493" lon="5.27643">
        <ele>1339.1</ele>
        <time>2024-07-02T10:56:03Z</time>
      </trkpt>
      <trkpt lat="44.88492" lon="5.27642">
        <ele>1339.1</ele>
        <time>2024-07-02T10:56:04Z</time>
      </trkpt>
      <trkpt lat="44.88491" lon="5.27641">
        <ele>1339.1</ele>
        <time>2024-07-02T10:56:05Z</time>
      </trkpt>
      <trkpt lat="44.88489" lon="5.27639">
        <ele>1339.1</ele>
        <time>2024-07-02T10:56:06Z</time>
      </trkpt>
      <trkpt lat="44.88489" lon="5.27639">
        <ele>1339.2</ele>
        <time>2024-07-02T10:56:07Z</time>
      </trkpt>
      <trkpt lat="44.88488" lon="5.27638">
        <ele>1339.2</ele>
        <time>2024-07-02T10:56:08Z</time>
      </trkpt>
      <trkpt lat="44.88487" lon="5.27637">
        <ele>1339.2</ele>
        <time>2024-07-02T10:56:09Z</time>
      </trkpt>
      <trkpt lat="44.88486" lon="5.27636">
        <ele>1339.2</ele>
        <time>2024-07-02T10:56:10Z</time>
      </trkpt>
      <trkpt lat="44.88486" lon="5.27636">
        <ele>1339.2</ele>
        <time>2024-07-02T10:56:11Z</time>
      </trkpt>
      <trkpt lat="44.88485" lon="5.27636">
        <ele>1339.2</ele>
        <time>2024-07-02T10:56:12Z</time>
      </trkpt>
      <trkpt lat="44.88484" lon="5.27638">
        <ele>1339.2</ele>
        <time>2024-07-02T10:56:13Z</time>
      </trkpt>
      <trkpt lat="44.88484" lon="5.27638">
        <ele>1339.2</ele>
        <time>2024-07-02T10:56:14Z</time>
      </trkpt>
      <trkpt lat="44.88484" lon="5.27639">
        <ele>1339.2</ele>
        <time>2024-07-02T10:56:15Z</time>
      </trkpt>
      <trkpt lat="44.88484" lon="5.27639">
        <ele>1339.2</ele>
        <time>2024-07-02T10:56:16Z</time>
      </trkpt>
      <trkpt lat="44.88484" lon="5.2764">
        <ele>1339.2</ele>
        <time>2024-07-02T10:56:17Z</time>
      </trkpt>
      <trkpt lat="44.88483" lon="5.2764">
        <ele>1339.3</ele>
        <time>2024-07-02T10:56:18Z</time>
      </trkpt>
      <trkpt lat="44.88482" lon="5.27639">
        <ele>1339.3</ele>
        <time>2024-07-02T10:56:19Z</time>
      </trkpt>
      <trkpt lat="44.88481" lon="5.2764">
        <ele>1339.3</ele>
        <time>2024-07-02T10:56:20Z</time>
      </trkpt>
      <trkpt lat="44.88479" lon="5.27641">
        <ele>1339.3</ele>
        <time>2024-07-02T10:56:21Z</time>
      </trkpt>
      <trkpt lat="44.88478" lon="5.27641">
        <ele>1339.3</ele>
        <time>2024-07-02T10:56:22Z</time>
      </trkpt>
      <trkpt lat="44.88477" lon="5.27641">
        <ele>1339.3</ele>
        <time>2024-07-02T10:56:23Z</time>
      </trkpt>
      <trkpt lat="44.88476" lon="5.27641">
        <ele>1339.3</ele>
        <time>2024-07-02T10:56:24Z</time>
      </trkpt>
      <trkpt lat="44.88475" lon="5.2764">
        <ele>1339.3</ele>
        <time>2024-07-02T10:56:25Z</time>
      </trkpt>
      <trkpt lat="44.88475" lon="5.27639">
        <ele>1339.3</ele>
        <time>2024-07-02T10:56:26Z</time>
      </trkpt>
      <trkpt lat="44.88474" lon="5.27639">
        <ele>1339.3</ele>
        <time>2024-07-02T10:56:27Z</time>
      </trkpt>
      <trkpt lat="44.88473" lon="5.27638">
        <ele>1339.3</ele>
        <time>2024-07-02T10:56:28Z</time>
      </trkpt>
      <trkpt lat="44.88472" lon="5.27637">
        <ele>1339.3</ele>
        <time>2024-07-02T10:56:29Z</time>
      </trkpt>
      <trkpt lat="44.88472" lon="5.27636">
        <ele>1339.3</ele>
        <time>2024-07-02T10:56:30Z</time>
      </trkpt>
      <trkpt lat="44.88471" lon="5.27635">
        <ele>1339.3</ele>
        <time>2024-07-02T10:56:31Z</time>
      </trkpt>
      <trkpt lat="44.8847" lon="5.27635">
        <ele>1339.3</ele>
        <time>2024-07-02T10:56:32Z</time>
      </trkpt>
      <trkpt lat="44.8847" lon="5.27633">
        <ele>1339.2</ele>
        <time>2024-07-02T10:56:33Z</time>
      </trkpt>
      <trkpt lat="44.8847" lon="5.27632">
        <ele>1339.2</ele>
        <time>2024-07-02T10:56:34Z</time>
      </trkpt>
      <trkpt lat="44.88469" lon="5.27631">
        <ele>1339.2</ele>
        <time>2024-07-02T10:56:35Z</time>
      </trkpt>
      <trkpt lat="44.88469" lon="5.2763">
        <ele>1339.2</ele>
        <time>2024-07-02T10:56:36Z</time>
      </trkpt>
      <trkpt lat="44.88468" lon="5.27628">
        <ele>1339.2</ele>
        <time>2024-07-02T10:56:37Z</time>
      </trkpt>
      <trkpt lat="44.88468" lon="5.27627">
        <ele>1339.2</ele>
        <time>2024-07-02T10:56:38Z</time>
      </trkpt>
      <trkpt lat="44.88467" lon="5.27626">
        <ele>1339.2</ele>
        <time>2024-07-02T10:56:39Z</time>
      </trkpt>
      <trkpt lat="44.88467" lon="5.27625">
        <ele>1339.2</ele>
        <time>2024-07-02T10:56:40Z</time>
      </trkpt>
      <trkpt lat="44.88466" lon="5.27624">
        <ele>1339.2</ele>
        <time>2024-07-02T10:56:41Z</time>
      </trkpt>
      <trkpt lat="44.88465" lon="5.27623">
        <ele>1339.2</ele>
        <time>2024-07-02T10:56:42Z</time>
      </trkpt>
      <trkpt lat="44.88463" lon="5.27621">
        <ele>1339.2</ele>
        <time>2024-07-02T10:56:43Z</time>
      </trkpt>
      <trkpt lat="44.88462" lon="5.2762">
        <ele>1339.2</ele>
        <time>2024-07-02T10:56:44Z</time>
      </trkpt>
      <trkpt lat="44.88462" lon="5.2762">
        <ele>1339.2</ele>
        <time>2024-07-02T10:56:45Z</time>
      </trkpt>
      <trkpt lat="44.8846" lon="5.27618">
        <ele>1339.1</ele>
        <time>2024-07-02T10:56:46Z</time>
      </trkpt>
      <trkpt lat="44.88459" lon="5.27617">
        <ele>1339.1</ele>
        <time>2024-07-02T10:56:47Z</time>
      </trkpt>
      <trkpt lat="44.88459" lon="5.27617">
        <ele>1339.1</ele>
        <time>2024-07-02T10:56:48Z</time>
      </trkpt>
      <trkpt lat="44.88457" lon="5.27615">
        <ele>1339.1</ele>
        <time>2024-07-02T10:56:49Z</time>
      </trkpt>
      <trkpt lat="44.88457" lon="5.27614">
        <ele>1339.1</ele>
        <time>2024-07-02T10:56:50Z</time>
      </trkpt>
      <trkpt lat="44.88456" lon="5.27613">
        <ele>1339.1</ele>
        <time>2024-07-02T10:56:51Z</time>
      </trkpt>
      <trkpt lat="44.88455" lon="5.27611">
        <ele>1339.1</ele>
        <time>2024-07-02T10:56:52Z</time>
      </trkpt>
      <trkpt lat="44.88454" lon="5.27609">
        <ele>1339.1</ele>
        <time>2024-07-02T10:56:53Z</time>
      </trkpt>
      <trkpt lat="44.88454" lon="5.27608">
        <ele>1339.1</ele>
        <time>2024-07-02T10:56:54Z</time>
      </trkpt>
      <trkpt lat="44.88453" lon="5.27607">
        <ele>1339.1</ele>
        <time>2024-07-02T10:56:55Z</time>
      </trkpt>
      <trkpt lat="44.88451" lon="5.27606">
        <ele>1339.1</ele>
        <time>2024-07-02T10:56:56Z</time>
      </trkpt>
      <trkpt lat="44.8845" lon="5.27605">
        <ele>1339.1</ele>
        <time>2024-07-02T10:56:57Z</time>
      </trkpt>
      <trkpt lat="44.88448" lon="5.27604">
        <ele>1339.1</ele>
        <time>2024-07-02T10:56:58Z</time>
      </trkpt>
      <trkpt lat="44.88447" lon="5.27604">
        <ele>1339.1</ele>
        <time>2024-07-02T10:56:59Z</time>
      </trkpt>
      <trkpt lat="44.88446" lon="5.27604">
        <ele>1339.1</ele>
        <time>2024-07-02T10:57:00Z</time>
      </trkpt>
      <trkpt lat="44.88444" lon="5.27603">
        <ele>1339.1</ele>
        <time>2024-07-02T10:57:01Z</time>
      </trkpt>
      <trkpt lat="44.88443" lon="5.27602">
        <ele>1339.1</ele>
        <time>2024-07-02T10:57:02Z</time>
      </trkpt>
      <trkpt lat="44.88442" lon="5.27602">
        <ele>1339.1</ele>
        <time>2024-07-02T10:57:03Z</time>
      </trkpt>
      <trkpt lat="44.88441" lon="5.27602">
        <ele>1339.1</ele>
        <time>2024-07-02T10:57:04Z</time>
      </trkpt>
      <trkpt lat="44.8844" lon="5.27602">
        <ele>1339.1</ele>
        <time>2024-07-02T10:57:05Z</time>
      </trkpt>
      <trkpt lat="44.88439" lon="5.27601">
        <ele>1339.1</ele>
        <time>2024-07-02T10:57:06Z</time>
      </trkpt>
      <trkpt lat="44.88438" lon="5.27601">
        <ele>1339.1</ele>
        <time>2024-07-02T10:57:07Z</time>
      </trkpt>
      <trkpt lat="44.88436" lon="5.27601">
        <ele>1339.1</ele>
        <time>2024-07-02T10:57:08Z</time>
      </trkpt>
      <trkpt lat="44.88435" lon="5.27601">
        <ele>1339.1</ele>
        <time>2024-07-02T10:57:09Z</time>
      </trkpt>
      <trkpt lat="44.88434" lon="5.276">
        <ele>1339.1</ele>
        <time>2024-07-02T10:57:10Z</time>
      </trkpt>
      <trkpt lat="44.88433" lon="5.276">
        <ele>1339.1</ele>
        <time>2024-07-02T10:57:11Z</time>
      </trkpt>
      <trkpt lat="44.88432" lon="5.27599">
        <ele>1339.1</ele>
        <time>2024-07-02T10:57:12Z</time>
      </trkpt>
      <trkpt lat="44.8843" lon="5.27597">
        <ele>1339.1</ele>
        <time>2024-07-02T10:57:13Z</time>
      </trkpt>
      <trkpt lat="44.8843" lon="5.27597">
        <ele>1339.1</ele>
        <time>2024-07-02T10:57:14Z</time>
      </trkpt>
      <trkpt lat="44.88429" lon="5.27597">
        <ele>1339.1</ele>
        <time>2024-07-02T10:57:15Z</time>
      </trkpt>
      <trkpt lat="44.88428" lon="5.27596">
        <ele>1339.1</ele>
        <time>2024-07-02T10:57:16Z</time>
      </trkpt>
      <trkpt lat="44.88427" lon="5.27596">
        <ele>1339.1</ele>
        <time>2024-07-02T10:57:17Z</time>
      </trkpt>
      <trkpt lat="44.88425" lon="5.27596">
        <ele>1339.1</ele>
        <time>2024-07-02T10:57:18Z</time>
      </trkpt>
      <trkpt lat="44.88424" lon="5.27595">
        <ele>1339.1</ele>
        <time>2024-07-02T10:57:19Z</time>
      </trkpt>
      <trkpt lat="44.88423" lon="5.27595">
        <ele>1339.1</ele>
        <time>2024-07-02T10:57:20Z</time>
      </trkpt>
      <trkpt lat="44.88422" lon="5.27595">
        <ele>1339.1</ele>
        <time>2024-07-02T10:57:21Z</time>
      </trkpt>
      <trkpt lat="44.88421" lon="5.27595">
        <ele>1339.1</ele>
        <time>2024-07-02T10:57:22Z</time>
      </trkpt>
      <trkpt lat="44.8842" lon="5.27594">
        <ele>1339.1</ele>
        <time>2024-07-02T10:57:23Z</time>
      </trkpt>
      <trkpt lat="44.88419" lon="5.27594">
        <ele>1339.1</ele>
        <time>2024-07-02T10:57:24Z</time>
      </trkpt>
      <trkpt lat="44.88418" lon="5.27594">
        <ele>1339.1</ele>
        <time>2024-07-02T10:57:25Z</time>
      </trkpt>
      <trkpt lat="44.88417" lon="5.27593">
        <ele>1339.1</ele>
        <time>2024-07-02T10:57:26Z</time>
      </trkpt>
      <trkpt lat="44.88416" lon="5.27592">
        <ele>1339.1</ele>
        <time>2024-07-02T10:57:27Z</time>
      </trkpt>
      <trkpt lat="44.88414" lon="5.27591">
        <ele>1339.1</ele>
        <time>2024-07-02T10:57:28Z</time>
      </trkpt>
      <trkpt lat="44.88413" lon="5.2759">
        <ele>1339.2</ele>
        <time>2024-07-02T10:57:29Z</time>
      </trkpt>
      <trkpt lat="44.88412" lon="5.2759">
        <ele>1339.2</ele>
        <time>2024-07-02T10:57:30Z</time>
      </trkpt>
      <trkpt lat="44.88412" lon="5.27589">
        <ele>1339.2</ele>
        <time>2024-07-02T10:57:31Z</time>
      </trkpt>
      <trkpt lat="44.8841" lon="5.27589">
        <ele>1339.2</ele>
        <time>2024-07-02T10:57:32Z</time>
      </trkpt>
      <trkpt lat="44.88409" lon="5.27588">
        <ele>1339.2</ele>
        <time>2024-07-02T10:57:33Z</time>
      </trkpt>
      <trkpt lat="44.88408" lon="5.27588">
        <ele>1339.2</ele>
        <time>2024-07-02T10:57:34Z</time>
      </trkpt>
      <trkpt lat="44.88407" lon="5.27588">
        <ele>1339.3</ele>
        <time>2024-07-02T10:57:35Z</time>
      </trkpt>
      <trkpt lat="44.88406" lon="5.27588">
        <ele>1339.3</ele>
        <time>2024-07-02T10:57:36Z</time>
      </trkpt>
      <trkpt lat="44.88406" lon="5.27587">
        <ele>1339.3</ele>
        <time>2024-07-02T10:57:37Z</time>
      </trkpt>
      <trkpt lat="44.88405" lon="5.27587">
        <ele>1339.3</ele>
        <time>2024-07-02T10:57:38Z</time>
      </trkpt>
      <trkpt lat="44.88404" lon="5.27587">
        <ele>1339.3</ele>
        <time>2024-07-02T10:57:39Z</time>
      </trkpt>
      <trkpt lat="44.88402" lon="5.27586">
        <ele>1339.4</ele>
        <time>2024-07-02T10:57:40Z</time>
      </trkpt>
      <trkpt lat="44.88401" lon="5.27586">
        <ele>1339.4</ele>
        <time>2024-07-02T10:57:41Z</time>
      </trkpt>
      <trkpt lat="44.884" lon="5.27585">
        <ele>1339.4</ele>
        <time>2024-07-02T10:57:42Z</time>
      </trkpt>
      <trkpt lat="44.88399" lon="5.27584">
        <ele>1339.5</ele>
        <time>2024-07-02T10:57:43Z</time>
      </trkpt>
      <trkpt lat="44.88398" lon="5.27583">
        <ele>1339.5</ele>
        <time>2024-07-02T10:57:44Z</time>
      </trkpt>
      <trkpt lat="44.88397" lon="5.27583">
        <ele>1339.5</ele>
        <time>2024-07-02T10:57:45Z</time>
      </trkpt>
      <trkpt lat="44.88396" lon="5.27583">
        <ele>1339.6</ele>
        <time>2024-07-02T10:57:46Z</time>
      </trkpt>
      <trkpt lat="44.88395" lon="5.27582">
        <ele>1339.6</ele>
        <time>2024-07-02T10:57:47Z</time>
      </trkpt>
      <trkpt lat="44.88394" lon="5.27581">
        <ele>1339.6</ele>
        <time>2024-07-02T10:57:48Z</time>
      </trkpt>
      <trkpt lat="44.88393" lon="5.27581">
        <ele>1339.7</ele>
        <time>2024-07-02T10:57:49Z</time>
      </trkpt>
      <trkpt lat="44.88392" lon="5.2758">
        <ele>1339.7</ele>
        <time>2024-07-02T10:57:50Z</time>
      </trkpt>
      <trkpt lat="44.88391" lon="5.27579">
        <ele>1339.7</ele>
        <time>2024-07-02T10:57:51Z</time>
      </trkpt>
      <trkpt lat="44.8839" lon="5.27579">
        <ele>1339.8</ele>
        <time>2024-07-02T10:57:52Z</time>
      </trkpt>
      <trkpt lat="44.88389" lon="5.27578">
        <ele>1339.8</ele>
        <time>2024-07-02T10:57:53Z</time>
      </trkpt>
      <trkpt lat="44.88388" lon="5.27578">
        <ele>1339.8</ele>
        <time>2024-07-02T10:57:54Z</time>
      </trkpt>
      <trkpt lat="44.88387" lon="5.27578">
        <ele>1339.9</ele>
        <time>2024-07-02T10:57:55Z</time>
      </trkpt>
      <trkpt lat="44.88385" lon="5.27577">
        <ele>1339.9</ele>
        <time>2024-07-02T10:57:56Z</time>
      </trkpt>
      <trkpt lat="44.88384" lon="5.27577">
        <ele>1339.9</ele>
        <time>2024-07-02T10:57:57Z</time>
      </trkpt>
      <trkpt lat="44.88383" lon="5.27577">
        <ele>1340</ele>
        <time>2024-07-02T10:57:58Z</time>
      </trkpt>
      <trkpt lat="44.88382" lon="5.27577">
        <ele>1340</ele>
        <time>2024-07-02T10:57:59Z</time>
      </trkpt>
      <trkpt lat="44.88381" lon="5.27577">
        <ele>1340</ele>
        <time>2024-07-02T10:58:00Z</time>
      </trkpt>
      <trkpt lat="44.8838" lon="5.27577">
        <ele>1340.1</ele>
        <time>2024-07-02T10:58:01Z</time>
      </trkpt>
      <trkpt lat="44.88379" lon="5.27577">
        <ele>1340.1</ele>
        <time>2024-07-02T10:58:02Z</time>
      </trkpt>
      <trkpt lat="44.88378" lon="5.27577">
        <ele>1340.2</ele>
        <time>2024-07-02T10:58:03Z</time>
      </trkpt>
      <trkpt lat="44.88377" lon="5.27576">
        <ele>1340.2</ele>
        <time>2024-07-02T10:58:04Z</time>
      </trkpt>
      <trkpt lat="44.88376" lon="5.27576">
        <ele>1340.2</ele>
        <time>2024-07-02T10:58:05Z</time>
      </trkpt>
      <trkpt lat="44.88375" lon="5.27576">
        <ele>1340.2</ele>
        <time>2024-07-02T10:58:06Z</time>
      </trkpt>
      <trkpt lat="44.88373" lon="5.27576">
        <ele>1340.3</ele>
        <time>2024-07-02T10:58:07Z</time>
      </trkpt>
      <trkpt lat="44.88373" lon="5.27576">
        <ele>1340.3</ele>
        <time>2024-07-02T10:58:08Z</time>
      </trkpt>
      <trkpt lat="44.88371" lon="5.27577">
        <ele>1340.3</ele>
        <time>2024-07-02T10:58:09Z</time>
      </trkpt>
      <trkpt lat="44.8837" lon="5.27577">
        <ele>1340.4</ele>
        <time>2024-07-02T10:58:10Z</time>
      </trkpt>
      <trkpt lat="44.88369" lon="5.27577">
        <ele>1340.4</ele>
        <time>2024-07-02T10:58:11Z</time>
      </trkpt>
      <trkpt lat="44.88368" lon="5.27577">
        <ele>1340.4</ele>
        <time>2024-07-02T10:58:12Z</time>
      </trkpt>
      <trkpt lat="44.88367" lon="5.27577">
        <ele>1340.5</ele>
        <time>2024-07-02T10:58:13Z</time>
      </trkpt>
      <trkpt lat="44.88366" lon="5.27576">
        <ele>1340.5</ele>
        <time>2024-07-02T10:58:14Z</time>
      </trkpt>
      <trkpt lat="44.88365" lon="5.27576">
        <ele>1340.5</ele>
        <time>2024-07-02T10:58:15Z</time>
      </trkpt>
      <trkpt lat="44.88364" lon="5.27575">
        <ele>1340.5</ele>
        <time>2024-07-02T10:58:16Z</time>
      </trkpt>
      <trkpt lat="44.88363" lon="5.27574">
        <ele>1340.6</ele>
        <time>2024-07-02T10:58:17Z</time>
      </trkpt>
      <trkpt lat="44.88362" lon="5.27574">
        <ele>1340.6</ele>
        <time>2024-07-02T10:58:18Z</time>
      </trkpt>
      <trkpt lat="44.8836" lon="5.27573">
        <ele>1340.6</ele>
        <time>2024-07-02T10:58:19Z</time>
      </trkpt>
      <trkpt lat="44.88359" lon="5.27573">
        <ele>1340.7</ele>
        <time>2024-07-02T10:58:20Z</time>
      </trkpt>
      <trkpt lat="44.88358" lon="5.27573">
        <ele>1340.7</ele>
        <time>2024-07-02T10:58:21Z</time>
      </trkpt>
      <trkpt lat="44.88357" lon="5.27572">
        <ele>1340.7</ele>
        <time>2024-07-02T10:58:22Z</time>
      </trkpt>
      <trkpt lat="44.88356" lon="5.27572">
        <ele>1340.7</ele>
        <time>2024-07-02T10:58:23Z</time>
      </trkpt>
      <trkpt lat="44.88355" lon="5.27572">
        <ele>1340.8</ele>
        <time>2024-07-02T10:58:24Z</time>
      </trkpt>
      <trkpt lat="44.88353" lon="5.27571">
        <ele>1340.8</ele>
        <time>2024-07-02T10:58:25Z</time>
      </trkpt>
      <trkpt lat="44.88352" lon="5.27571">
        <ele>1340.8</ele>
        <time>2024-07-02T10:58:26Z</time>
      </trkpt>
      <trkpt lat="44.88351" lon="5.27571">
        <ele>1340.8</ele>
        <time>2024-07-02T10:58:27Z</time>
      </trkpt>
      <trkpt lat="44.8835" lon="5.2757">
        <ele>1340.9</ele>
        <time>2024-07-02T10:58:28Z</time>
      </trkpt>
      <trkpt lat="44.88349" lon="5.27569">
        <ele>1340.9</ele>
        <time>2024-07-02T10:58:29Z</time>
      </trkpt>
      <trkpt lat="44.88348" lon="5.27568">
        <ele>1340.9</ele>
        <time>2024-07-02T10:58:30Z</time>
      </trkpt>
      <trkpt lat="44.88347" lon="5.27567">
        <ele>1340.9</ele>
        <time>2024-07-02T10:58:31Z</time>
      </trkpt>
      <trkpt lat="44.88346" lon="5.27567">
        <ele>1341</ele>
        <time>2024-07-02T10:58:32Z</time>
      </trkpt>
      <trkpt lat="44.88345" lon="5.27566">
        <ele>1341</ele>
        <time>2024-07-02T10:58:33Z</time>
      </trkpt>
      <trkpt lat="44.88344" lon="5.27566">
        <ele>1341</ele>
        <time>2024-07-02T10:58:34Z</time>
      </trkpt>
      <trkpt lat="44.88343" lon="5.27565">
        <ele>1341</ele>
        <time>2024-07-02T10:58:35Z</time>
      </trkpt>
      <trkpt lat="44.88342" lon="5.27565">
        <ele>1341</ele>
        <time>2024-07-02T10:58:36Z</time>
      </trkpt>
      <trkpt lat="44.88341" lon="5.27566">
        <ele>1341.1</ele>
        <time>2024-07-02T10:58:37Z</time>
      </trkpt>
      <trkpt lat="44.8834" lon="5.27567">
        <ele>1341.1</ele>
        <time>2024-07-02T10:58:38Z</time>
      </trkpt>
      <trkpt lat="44.88339" lon="5.27568">
        <ele>1341.1</ele>
        <time>2024-07-02T10:58:39Z</time>
      </trkpt>
      <trkpt lat="44.88337" lon="5.27568">
        <ele>1341.1</ele>
        <time>2024-07-02T10:58:40Z</time>
      </trkpt>
      <trkpt lat="44.88336" lon="5.27569">
        <ele>1341.2</ele>
        <time>2024-07-02T10:58:41Z</time>
      </trkpt>
      <trkpt lat="44.88335" lon="5.27569">
        <ele>1341.2</ele>
        <time>2024-07-02T10:58:42Z</time>
      </trkpt>
      <trkpt lat="44.88334" lon="5.27569">
        <ele>1341.2</ele>
        <time>2024-07-02T10:58:43Z</time>
      </trkpt>
      <trkpt lat="44.88333" lon="5.27569">
        <ele>1341.2</ele>
        <time>2024-07-02T10:58:44Z</time>
      </trkpt>
      <trkpt lat="44.88331" lon="5.27568">
        <ele>1341.2</ele>
        <time>2024-07-02T10:58:45Z</time>
      </trkpt>
      <trkpt lat="44.88329" lon="5.27568">
        <ele>1341.2</ele>
        <time>2024-07-02T10:58:46Z</time>
      </trkpt>
      <trkpt lat="44.88327" lon="5.27568">
        <ele>1341.2</ele>
        <time>2024-07-02T10:58:47Z</time>
      </trkpt>
      <trkpt lat="44.88326" lon="5.27568">
        <ele>1341.2</ele>
        <time>2024-07-02T10:58:48Z</time>
      </trkpt>
      <trkpt lat="44.88326" lon="5.27568">
        <ele>1341.2</ele>
        <time>2024-07-02T10:58:49Z</time>
      </trkpt>
      <trkpt lat="44.88325" lon="5.27568">
        <ele>1341.2</ele>
        <time>2024-07-02T10:58:50Z</time>
      </trkpt>
      <trkpt lat="44.88324" lon="5.27568">
        <ele>1341.2</ele>
        <time>2024-07-02T10:58:51Z</time>
      </trkpt>
      <trkpt lat="44.88323" lon="5.27568">
        <ele>1341.2</ele>
        <time>2024-07-02T10:58:52Z</time>
      </trkpt>
      <trkpt lat="44.88321" lon="5.27567">
        <ele>1341.2</ele>
        <time>2024-07-02T10:58:53Z</time>
      </trkpt>
      <trkpt lat="44.88319" lon="5.27566">
        <ele>1341.1</ele>
        <time>2024-07-02T10:58:54Z</time>
      </trkpt>
      <trkpt lat="44.88318" lon="5.27564">
        <ele>1341.1</ele>
        <time>2024-07-02T10:58:55Z</time>
      </trkpt>
      <trkpt lat="44.88317" lon="5.27564">
        <ele>1341.1</ele>
        <time>2024-07-02T10:58:56Z</time>
      </trkpt>
      <trkpt lat="44.88315" lon="5.27563">
        <ele>1341.1</ele>
        <time>2024-07-02T10:58:57Z</time>
      </trkpt>
      <trkpt lat="44.88314" lon="5.27562">
        <ele>1341</ele>
        <time>2024-07-02T10:58:58Z</time>
      </trkpt>
      <trkpt lat="44.88313" lon="5.27561">
        <ele>1341</ele>
        <time>2024-07-02T10:58:59Z</time>
      </trkpt>
      <trkpt lat="44.88312" lon="5.2756">
        <ele>1341</ele>
        <time>2024-07-02T10:59:00Z</time>
      </trkpt>
      <trkpt lat="44.88311" lon="5.2756">
        <ele>1340.9</ele>
        <time>2024-07-02T10:59:01Z</time>
      </trkpt>
      <trkpt lat="44.8831" lon="5.27559">
        <ele>1340.9</ele>
        <time>2024-07-02T10:59:02Z</time>
      </trkpt>
      <trkpt lat="44.88309" lon="5.27559">
        <ele>1340.9</ele>
        <time>2024-07-02T10:59:03Z</time>
      </trkpt>
      <trkpt lat="44.88308" lon="5.27559">
        <ele>1340.8</ele>
        <time>2024-07-02T10:59:04Z</time>
      </trkpt>
      <trkpt lat="44.88307" lon="5.27559">
        <ele>1340.8</ele>
        <time>2024-07-02T10:59:05Z</time>
      </trkpt>
      <trkpt lat="44.88306" lon="5.27558">
        <ele>1340.7</ele>
        <time>2024-07-02T10:59:06Z</time>
      </trkpt>
      <trkpt lat="44.88305" lon="5.27558">
        <ele>1340.7</ele>
        <time>2024-07-02T10:59:07Z</time>
      </trkpt>
      <trkpt lat="44.88303" lon="5.27557">
        <ele>1340.6</ele>
        <time>2024-07-02T10:59:08Z</time>
      </trkpt>
      <trkpt lat="44.88302" lon="5.27557">
        <ele>1340.6</ele>
        <time>2024-07-02T10:59:09Z</time>
      </trkpt>
      <trkpt lat="44.88301" lon="5.27557">
        <ele>1340.5</ele>
        <time>2024-07-02T10:59:10Z</time>
      </trkpt>
      <trkpt lat="44.883" lon="5.27556">
        <ele>1340.5</ele>
        <time>2024-07-02T10:59:11Z</time>
      </trkpt>
      <trkpt lat="44.88299" lon="5.27555">
        <ele>1340.4</ele>
        <time>2024-07-02T10:59:12Z</time>
      </trkpt>
      <trkpt lat="44.88298" lon="5.27555">
        <ele>1340.3</ele>
        <time>2024-07-02T10:59:13Z</time>
      </trkpt>
      <trkpt lat="44.88297" lon="5.27555">
        <ele>1340.3</ele>
        <time>2024-07-02T10:59:14Z</time>
      </trkpt>
      <trkpt lat="44.88296" lon="5.27555">
        <ele>1340.2</ele>
        <time>2024-07-02T10:59:15Z</time>
      </trkpt>
      <trkpt lat="44.88294" lon="5.27555">
        <ele>1340.1</ele>
        <time>2024-07-02T10:59:16Z</time>
      </trkpt>
      <trkpt lat="44.88293" lon="5.27556">
        <ele>1340</ele>
        <time>2024-07-02T10:59:17Z</time>
      </trkpt>
      <trkpt lat="44.88292" lon="5.27556">
        <ele>1340</ele>
        <time>2024-07-02T10:59:18Z</time>
      </trkpt>
      <trkpt lat="44.88291" lon="5.27556">
        <ele>1339.9</ele>
        <time>2024-07-02T10:59:19Z</time>
      </trkpt>
      <trkpt lat="44.8829" lon="5.27555">
        <ele>1339.8</ele>
        <time>2024-07-02T10:59:20Z</time>
      </trkpt>
      <trkpt lat="44.88289" lon="5.27555">
        <ele>1339.7</ele>
        <time>2024-07-02T10:59:21Z</time>
      </trkpt>
      <trkpt lat="44.88288" lon="5.27555">
        <ele>1339.6</ele>
        <time>2024-07-02T10:59:22Z</time>
      </trkpt>
      <trkpt lat="44.88287" lon="5.27555">
        <ele>1339.5</ele>
        <time>2024-07-02T10:59:23Z</time>
      </trkpt>
      <trkpt lat="44.88286" lon="5.27555">
        <ele>1339.5</ele>
        <time>2024-07-02T10:59:24Z</time>
      </trkpt>
      <trkpt lat="44.88285" lon="5.27555">
        <ele>1339.4</ele>
        <time>2024-07-02T10:59:25Z</time>
      </trkpt>
      <trkpt lat="44.88284" lon="5.27554">
        <ele>1339.3</ele>
        <time>2024-07-02T10:59:26Z</time>
      </trkpt>
      <trkpt lat="44.88282" lon="5.27554">
        <ele>1339.2</ele>
        <time>2024-07-02T10:59:27Z</time>
      </trkpt>
      <trkpt lat="44.88281" lon="5.27553">
        <ele>1339.1</ele>
        <time>2024-07-02T10:59:28Z</time>
      </trkpt>
      <trkpt lat="44.8828" lon="5.27553">
        <ele>1339</ele>
        <time>2024-07-02T10:59:29Z</time>
      </trkpt>
      <trkpt lat="44.88278" lon="5.27552">
        <ele>1338.8</ele>
        <time>2024-07-02T10:59:30Z</time>
      </trkpt>
      <trkpt lat="44.88278" lon="5.27552">
        <ele>1338.7</ele>
        <time>2024-07-02T10:59:31Z</time>
      </trkpt>
      <trkpt lat="44.88277" lon="5.27551">
        <ele>1338.6</ele>
        <time>2024-07-02T10:59:32Z</time>
      </trkpt>
      <trkpt lat="44.88275" lon="5.2755">
        <ele>1338.4</ele>
        <time>2024-07-02T10:59:33Z</time>
      </trkpt>
      <trkpt lat="44.88274" lon="5.2755">
        <ele>1338.3</ele>
        <time>2024-07-02T10:59:34Z</time>
      </trkpt>
      <trkpt lat="44.88273" lon="5.27549">
        <ele>1338.2</ele>
        <time>2024-07-02T10:59:35Z</time>
      </trkpt>
      <trkpt lat="44.88272" lon="5.27549">
        <ele>1338.1</ele>
        <time>2024-07-02T10:59:36Z</time>
      </trkpt>
      <trkpt lat="44.88271" lon="5.27548">
        <ele>1338</ele>
        <time>2024-07-02T10:59:37Z</time>
      </trkpt>
      <trkpt lat="44.8827" lon="5.27547">
        <ele>1337.9</ele>
        <time>2024-07-02T10:59:38Z</time>
      </trkpt>
      <trkpt lat="44.88269" lon="5.27547">
        <ele>1337.8</ele>
        <time>2024-07-02T10:59:39Z</time>
      </trkpt>
      <trkpt lat="44.88268" lon="5.27546">
        <ele>1337.7</ele>
        <time>2024-07-02T10:59:40Z</time>
      </trkpt>
      <trkpt lat="44.88268" lon="5.27544">
        <ele>1337.6</ele>
        <time>2024-07-02T10:59:41Z</time>
      </trkpt>
      <trkpt lat="44.88268" lon="5.27542">
        <ele>1337.5</ele>
        <time>2024-07-02T10:59:42Z</time>
      </trkpt>
      <trkpt lat="44.88268" lon="5.27541">
        <ele>1337.4</ele>
        <time>2024-07-02T10:59:43Z</time>
      </trkpt>
      <trkpt lat="44.88268" lon="5.27541">
        <ele>1337.4</ele>
        <time>2024-07-02T10:59:44Z</time>
      </trkpt>
      <trkpt lat="44.88268" lon="5.27541">
        <ele>1337.4</ele>
        <time>2024-07-02T10:59:45Z</time>
      </trkpt>
      <trkpt lat="44.88269" lon="5.27541">
        <ele>1337.3</ele>
        <time>2024-07-02T10:59:46Z</time>
      </trkpt>
      <trkpt lat="44.88269" lon="5.27542">
        <ele>1337.3</ele>
        <time>2024-07-02T10:59:47Z</time>
      </trkpt>
      <trkpt lat="44.88269" lon="5.27542">
        <ele>1337.3</ele>
        <time>2024-07-02T10:59:48Z</time>
      </trkpt>
      <trkpt lat="44.88269" lon="5.27542">
        <ele>1337.3</ele>
        <time>2024-07-02T10:59:49Z</time>
      </trkpt>
      <trkpt lat="44.88269" lon="5.27542">
        <ele>1337.3</ele>
        <time>2024-07-02T10:59:50Z</time>
      </trkpt>
      <trkpt lat="44.88268" lon="5.27542">
        <ele>1337.2</ele>
        <time>2024-07-02T10:59:51Z</time>
      </trkpt>
      <trkpt lat="44.88268" lon="5.27542">
        <ele>1337.2</ele>
        <time>2024-07-02T10:59:52Z</time>
      </trkpt>
      <trkpt lat="44.88268" lon="5.27542">
        <ele>1337.2</ele>
        <time>2024-07-02T10:59:53Z</time>
      </trkpt>
      <trkpt lat="44.88268" lon="5.27542">
        <ele>1337.2</ele>
        <time>2024-07-02T10:59:54Z</time>
      </trkpt>
      <trkpt lat="44.88268" lon="5.27542">
        <ele>1337.2</ele>
        <time>2024-07-02T10:59:55Z</time>
      </trkpt>
      <trkpt lat="44.88268" lon="5.27542">
        <ele>1337.2</ele>
        <time>2024-07-02T10:59:56Z</time>
      </trkpt>
      <trkpt lat="44.88267" lon="5.27542">
        <ele>1337.1</ele>
        <time>2024-07-02T10:59:57Z</time>
      </trkpt>
      <trkpt lat="44.88267" lon="5.27542">
        <ele>1337.1</ele>
        <time>2024-07-02T10:59:58Z</time>
      </trkpt>
      <trkpt lat="44.88267" lon="5.27542">
        <ele>1337.1</ele>
        <time>2024-07-02T10:59:59Z</time>
      </trkpt>
      <trkpt lat="44.88267" lon="5.27542">
        <ele>1337.1</ele>
        <time>2024-07-02T11:00:00Z</time>
      </trkpt>
      <trkpt lat="44.88267" lon="5.27542">
        <ele>1337.1</ele>
        <time>2024-07-02T11:00:01Z</time>
      </trkpt>
      <trkpt lat="44.88266" lon="5.27541">
        <ele>1337</ele>
        <time>2024-07-02T11:00:02Z</time>
      </trkpt>
      <trkpt lat="44.88265" lon="5.27541">
        <ele>1336.9</ele>
        <time>2024-07-02T11:00:03Z</time>
      </trkpt>
      <trkpt lat="44.88265" lon="5.2754">
        <ele>1336.9</ele>
        <time>2024-07-02T11:00:04Z</time>
      </trkpt>
      <trkpt lat="44.88264" lon="5.2754">
        <ele>1336.8</ele>
        <time>2024-07-02T11:00:05Z</time>
      </trkpt>
      <trkpt lat="44.88263" lon="5.2754">
        <ele>1336.7</ele>
        <time>2024-07-02T11:00:06Z</time>
      </trkpt>
      <trkpt lat="44.88262" lon="5.27539">
        <ele>1336.7</ele>
        <time>2024-07-02T11:00:07Z</time>
      </trkpt>
      <trkpt lat="44.88262" lon="5.27539">
        <ele>1336.6</ele>
        <time>2024-07-02T11:00:08Z</time>
      </trkpt>
      <trkpt lat="44.88261" lon="5.27539">
        <ele>1336.5</ele>
        <time>2024-07-02T11:00:09Z</time>
      </trkpt>
      <trkpt lat="44.88261" lon="5.27539">
        <ele>1336.5</ele>
        <time>2024-07-02T11:00:10Z</time>
      </trkpt>
      <trkpt lat="44.8826" lon="5.27538">
        <ele>1336.4</ele>
        <time>2024-07-02T11:00:11Z</time>
      </trkpt>
      <trkpt lat="44.88259" lon="5.27538">
        <ele>1336.4</ele>
        <time>2024-07-02T11:00:12Z</time>
      </trkpt>
      <trkpt lat="44.88258" lon="5.27537">
        <ele>1336.3</ele>
        <time>2024-07-02T11:00:13Z</time>
      </trkpt>
      <trkpt lat="44.88258" lon="5.27537">
        <ele>1336.2</ele>
        <time>2024-07-02T11:00:14Z</time>
      </trkpt>
      <trkpt lat="44.88257" lon="5.27537">
        <ele>1336.2</ele>
        <time>2024-07-02T11:00:15Z</time>
      </trkpt>
      <trkpt lat="44.88256" lon="5.27536">
        <ele>1336.1</ele>
        <time>2024-07-02T11:00:16Z</time>
      </trkpt>
      <trkpt lat="44.88255" lon="5.27535">
        <ele>1336</ele>
        <time>2024-07-02T11:00:17Z</time>
      </trkpt>
      <trkpt lat="44.88255" lon="5.27535">
        <ele>1335.9</ele>
        <time>2024-07-02T11:00:18Z</time>
      </trkpt>
      <trkpt lat="44.88254" lon="5.27534">
        <ele>1335.8</ele>
        <time>2024-07-02T11:00:19Z</time>
      </trkpt>
      <trkpt lat="44.88253" lon="5.27533">
        <ele>1335.8</ele>
        <time>2024-07-02T11:00:20Z</time>
      </trkpt>
      <trkpt lat="44.88252" lon="5.27532">
        <ele>1335.7</ele>
        <time>2024-07-02T11:00:21Z</time>
      </trkpt>
      <trkpt lat="44.88252" lon="5.27531">
        <ele>1335.6</ele>
        <time>2024-07-02T11:00:22Z</time>
      </trkpt>
      <trkpt lat="44.88251" lon="5.2753">
        <ele>1335.5</ele>
        <time>2024-07-02T11:00:23Z</time>
      </trkpt>
      <trkpt lat="44.8825" lon="5.27529">
        <ele>1335.4</ele>
        <time>2024-07-02T11:00:24Z</time>
      </trkpt>
      <trkpt lat="44.8825" lon="5.27528">
        <ele>1335.4</ele>
        <time>2024-07-02T11:00:25Z</time>
      </trkpt>
      <trkpt lat="44.88249" lon="5.27527">
        <ele>1335.3</ele>
        <time>2024-07-02T11:00:26Z</time>
      </trkpt>
      <trkpt lat="44.88248" lon="5.27527">
        <ele>1335.2</ele>
        <time>2024-07-02T11:00:27Z</time>
      </trkpt>
      <trkpt lat="44.88248" lon="5.27526">
        <ele>1335.1</ele>
        <time>2024-07-02T11:00:28Z</time>
      </trkpt>
      <trkpt lat="44.88247" lon="5.27525">
        <ele>1335</ele>
        <time>2024-07-02T11:00:29Z</time>
      </trkpt>
      <trkpt lat="44.88246" lon="5.27524">
        <ele>1334.9</ele>
        <time>2024-07-02T11:00:30Z</time>
      </trkpt>
      <trkpt lat="44.88245" lon="5.27523">
        <ele>1334.8</ele>
        <time>2024-07-02T11:00:31Z</time>
      </trkpt>
      <trkpt lat="44.88244" lon="5.27523">
        <ele>1334.7</ele>
        <time>2024-07-02T11:00:32Z</time>
      </trkpt>
      <trkpt lat="44.88243" lon="5.27522">
        <ele>1334.6</ele>
        <time>2024-07-02T11:00:33Z</time>
      </trkpt>
      <trkpt lat="44.88242" lon="5.27522">
        <ele>1334.4</ele>
        <time>2024-07-02T11:00:34Z</time>
      </trkpt>
      <trkpt lat="44.88241" lon="5.27521">
        <ele>1334.3</ele>
        <time>2024-07-02T11:00:35Z</time>
      </trkpt>
      <trkpt lat="44.8824" lon="5.2752">
        <ele>1334.2</ele>
        <time>2024-07-02T11:00:36Z</time>
      </trkpt>
      <trkpt lat="44.88239" lon="5.27519">
        <ele>1334.1</ele>
        <time>2024-07-02T11:00:37Z</time>
      </trkpt>
      <trkpt lat="44.88238" lon="5.27518">
        <ele>1334</ele>
        <time>2024-07-02T11:00:38Z</time>
      </trkpt>
      <trkpt lat="44.88237" lon="5.27518">
        <ele>1333.9</ele>
        <time>2024-07-02T11:00:39Z</time>
      </trkpt>
      <trkpt lat="44.88236" lon="5.27517">
        <ele>1333.8</ele>
        <time>2024-07-02T11:00:40Z</time>
      </trkpt>
      <trkpt lat="44.88235" lon="5.27516">
        <ele>1333.7</ele>
        <time>2024-07-02T11:00:41Z</time>
      </trkpt>
      <trkpt lat="44.88234" lon="5.27516">
        <ele>1333.6</ele>
        <time>2024-07-02T11:00:42Z</time>
      </trkpt>
      <trkpt lat="44.88233" lon="5.27515">
        <ele>1333.5</ele>
        <time>2024-07-02T11:00:43Z</time>
      </trkpt>
      <trkpt lat="44.88232" lon="5.27514">
        <ele>1333.4</ele>
        <time>2024-07-02T11:00:44Z</time>
      </trkpt>
      <trkpt lat="44.88231" lon="5.27514">
        <ele>1333.3</ele>
        <time>2024-07-02T11:00:45Z</time>
      </trkpt>
      <trkpt lat="44.8823" lon="5.27513">
        <ele>1333.2</ele>
        <time>2024-07-02T11:00:46Z</time>
      </trkpt>
      <trkpt lat="44.88229" lon="5.27513">
        <ele>1333.1</ele>
        <time>2024-07-02T11:00:47Z</time>
      </trkpt>
      <trkpt lat="44.88228" lon="5.27512">
        <ele>1333.1</ele>
        <time>2024-07-02T11:00:48Z</time>
      </trkpt>
      <trkpt lat="44.88227" lon="5.27512">
        <ele>1333</ele>
        <time>2024-07-02T11:00:49Z</time>
      </trkpt>
      <trkpt lat="44.88227" lon="5.27511">
        <ele>1332.9</ele>
        <time>2024-07-02T11:00:50Z</time>
      </trkpt>
      <trkpt lat="44.88225" lon="5.27511">
        <ele>1332.9</ele>
        <time>2024-07-02T11:00:51Z</time>
      </trkpt>
      <trkpt lat="44.88224" lon="5.27511">
        <ele>1332.8</ele>
        <time>2024-07-02T11:00:52Z</time>
      </trkpt>
      <trkpt lat="44.88224" lon="5.27512">
        <ele>1332.7</ele>
        <time>2024-07-02T11:00:53Z</time>
      </trkpt>
      <trkpt lat="44.88223" lon="5.27511">
        <ele>1332.7</ele>
        <time>2024-07-02T11:00:54Z</time>
      </trkpt>
      <trkpt lat="44.88222" lon="5.2751">
        <ele>1332.7</ele>
        <time>2024-07-02T11:00:55Z</time>
      </trkpt>
      <trkpt lat="44.88222" lon="5.2751">
        <ele>1332.6</ele>
        <time>2024-07-02T11:00:56Z</time>
      </trkpt>
      <trkpt lat="44.88221" lon="5.27509">
        <ele>1332.6</ele>
        <time>2024-07-02T11:00:57Z</time>
      </trkpt>
      <trkpt lat="44.88219" lon="5.27508">
        <ele>1332.5</ele>
        <time>2024-07-02T11:00:58Z</time>
      </trkpt>
      <trkpt lat="44.88218" lon="5.27507">
        <ele>1332.5</ele>
        <time>2024-07-02T11:00:59Z</time>
      </trkpt>
      <trkpt lat="44.88217" lon="5.27507">
        <ele>1332.4</ele>
        <time>2024-07-02T11:01:00Z</time>
      </trkpt>
      <trkpt lat="44.88216" lon="5.27507">
        <ele>1332.4</ele>
        <time>2024-07-02T11:01:01Z</time>
      </trkpt>
      <trkpt lat="44.88215" lon="5.27507">
        <ele>1332.3</ele>
        <time>2024-07-02T11:01:02Z</time>
      </trkpt>
      <trkpt lat="44.88214" lon="5.27506">
        <ele>1332.3</ele>
        <time>2024-07-02T11:01:03Z</time>
      </trkpt>
      <trkpt lat="44.88213" lon="5.27506">
        <ele>1332.3</ele>
        <time>2024-07-02T11:01:04Z</time>
      </trkpt>
      <trkpt lat="44.88212" lon="5.27506">
        <ele>1332.2</ele>
        <time>2024-07-02T11:01:05Z</time>
      </trkpt>
      <trkpt lat="44.88211" lon="5.27505">
        <ele>1332.2</ele>
        <time>2024-07-02T11:01:06Z</time>
      </trkpt>
      <trkpt lat="44.8821" lon="5.27505">
        <ele>1332.2</ele>
        <time>2024-07-02T11:01:07Z</time>
      </trkpt>
      <trkpt lat="44.88209" lon="5.27505">
        <ele>1332.1</ele>
        <time>2024-07-02T11:01:08Z</time>
      </trkpt>
      <trkpt lat="44.88208" lon="5.27505">
        <ele>1332.1</ele>
        <time>2024-07-02T11:01:09Z</time>
      </trkpt>
      <trkpt lat="44.88207" lon="5.27505">
        <ele>1332.1</ele>
        <time>2024-07-02T11:01:10Z</time>
      </trkpt>
      <trkpt lat="44.88205" lon="5.27505">
        <ele>1332</ele>
        <time>2024-07-02T11:01:11Z</time>
      </trkpt>
      <trkpt lat="44.88204" lon="5.27505">
        <ele>1332</ele>
        <time>2024-07-02T11:01:12Z</time>
      </trkpt>
      <trkpt lat="44.88203" lon="5.27505">
        <ele>1332</ele>
        <time>2024-07-02T11:01:13Z</time>
      </trkpt>
      <trkpt lat="44.88202" lon="5.27504">
        <ele>1331.9</ele>
        <time>2024-07-02T11:01:14Z</time>
      </trkpt>
      <trkpt lat="44.88201" lon="5.27504">
        <ele>1331.9</ele>
        <time>2024-07-02T11:01:15Z</time>
      </trkpt>
      <trkpt lat="44.882" lon="5.27504">
        <ele>1331.9</ele>
        <time>2024-07-02T11:01:16Z</time>
      </trkpt>
      <trkpt lat="44.88199" lon="5.27504">
        <ele>1331.9</ele>
        <time>2024-07-02T11:01:17Z</time>
      </trkpt>
      <trkpt lat="44.88197" lon="5.27505">
        <ele>1331.8</ele>
        <time>2024-07-02T11:01:18Z</time>
      </trkpt>
      <trkpt lat="44.88196" lon="5.27505">
        <ele>1331.8</ele>
        <time>2024-07-02T11:01:19Z</time>
      </trkpt>
      <trkpt lat="44.88196" lon="5.27505">
        <ele>1331.8</ele>
        <time>2024-07-02T11:01:20Z</time>
      </trkpt>
      <trkpt lat="44.88194" lon="5.27506">
        <ele>1331.7</ele>
        <time>2024-07-02T11:01:21Z</time>
      </trkpt>
      <trkpt lat="44.88193" lon="5.27506">
        <ele>1331.7</ele>
        <time>2024-07-02T11:01:22Z</time>
      </trkpt>
      <trkpt lat="44.88192" lon="5.27506">
        <ele>1331.7</ele>
        <time>2024-07-02T11:01:23Z</time>
      </trkpt>
      <trkpt lat="44.88191" lon="5.27507">
        <ele>1331.7</ele>
        <time>2024-07-02T11:01:24Z</time>
      </trkpt>
      <trkpt lat="44.8819" lon="5.27507">
        <ele>1331.7</ele>
        <time>2024-07-02T11:01:25Z</time>
      </trkpt>
      <trkpt lat="44.88189" lon="5.27507">
        <ele>1331.6</ele>
        <time>2024-07-02T11:01:26Z</time>
      </trkpt>
      <trkpt lat="44.88188" lon="5.27507">
        <ele>1331.6</ele>
        <time>2024-07-02T11:01:27Z</time>
      </trkpt>
      <trkpt lat="44.88187" lon="5.27507">
        <ele>1331.6</ele>
        <time>2024-07-02T11:01:28Z</time>
      </trkpt>
      <trkpt lat="44.88185" lon="5.27507">
        <ele>1331.6</ele>
        <time>2024-07-02T11:01:29Z</time>
      </trkpt>
      <trkpt lat="44.88183" lon="5.27507">
        <ele>1331.5</ele>
        <time>2024-07-02T11:01:30Z</time>
      </trkpt>
      <trkpt lat="44.88183" lon="5.27507">
        <ele>1331.5</ele>
        <time>2024-07-02T11:01:31Z</time>
      </trkpt>
      <trkpt lat="44.88182" lon="5.27507">
        <ele>1331.5</ele>
        <time>2024-07-02T11:01:32Z</time>
      </trkpt>
      <trkpt lat="44.88181" lon="5.27507">
        <ele>1331.5</ele>
        <time>2024-07-02T11:01:33Z</time>
      </trkpt>
      <trkpt lat="44.8818" lon="5.27506">
        <ele>1331.5</ele>
        <time>2024-07-02T11:01:34Z</time>
      </trkpt>
      <trkpt lat="44.88178" lon="5.27506">
        <ele>1331.5</ele>
        <time>2024-07-02T11:01:35Z</time>
      </trkpt>
      <trkpt lat="44.88177" lon="5.27506">
        <ele>1331.5</ele>
        <time>2024-07-02T11:01:36Z</time>
      </trkpt>
      <trkpt lat="44.88176" lon="5.27506">
        <ele>1331.5</ele>
        <time>2024-07-02T11:01:37Z</time>
      </trkpt>
      <trkpt lat="44.88175" lon="5.27506">
        <ele>1331.4</ele>
        <time>2024-07-02T11:01:38Z</time>
      </trkpt>
      <trkpt lat="44.88174" lon="5.27506">
        <ele>1331.4</ele>
        <time>2024-07-02T11:01:39Z</time>
      </trkpt>
      <trkpt lat="44.88173" lon="5.27506">
        <ele>1331.4</ele>
        <time>2024-07-02T11:01:40Z</time>
      </trkpt>
      <trkpt lat="44.88172" lon="5.27506">
        <ele>1331.4</ele>
        <time>2024-07-02T11:01:41Z</time>
      </trkpt>
      <trkpt lat="44.8817" lon="5.27506">
        <ele>1331.4</ele>
        <time>2024-07-02T11:01:42Z</time>
      </trkpt>
      <trkpt lat="44.88169" lon="5.27506">
        <ele>1331.4</ele>
        <time>2024-07-02T11:01:43Z</time>
      </trkpt>
      <trkpt lat="44.88168" lon="5.27506">
        <ele>1331.3</ele>
        <time>2024-07-02T11:01:44Z</time>
      </trkpt>
      <trkpt lat="44.88166" lon="5.27506">
        <ele>1331.3</ele>
        <time>2024-07-02T11:01:45Z</time>
      </trkpt>
      <trkpt lat="44.88165" lon="5.27506">
        <ele>1331.3</ele>
        <time>2024-07-02T11:01:46Z</time>
      </trkpt>
      <trkpt lat="44.88164" lon="5.27506">
        <ele>1331.3</ele>
        <time>2024-07-02T11:01:47Z</time>
      </trkpt>
      <trkpt lat="44.88163" lon="5.27506">
        <ele>1331.3</ele>
        <time>2024-07-02T11:01:48Z</time>
      </trkpt>
      <trkpt lat="44.88162" lon="5.27506">
        <ele>1331.3</ele>
        <time>2024-07-02T11:01:49Z</time>
      </trkpt>
      <trkpt lat="44.88161" lon="5.27506">
        <ele>1331.3</ele>
        <time>2024-07-02T11:01:50Z</time>
      </trkpt>
      <trkpt lat="44.8816" lon="5.27506">
        <ele>1331.2</ele>
        <time>2024-07-02T11:01:51Z</time>
      </trkpt>
      <trkpt lat="44.88159" lon="5.27506">
        <ele>1331.2</ele>
        <time>2024-07-02T11:01:52Z</time>
      </trkpt>
      <trkpt lat="44.88158" lon="5.27505">
        <ele>1331.2</ele>
        <time>2024-07-02T11:01:53Z</time>
      </trkpt>
      <trkpt lat="44.88157" lon="5.27505">
        <ele>1331.2</ele>
        <time>2024-07-02T11:01:54Z</time>
      </trkpt>
      <trkpt lat="44.88156" lon="5.27504">
        <ele>1331.2</ele>
        <time>2024-07-02T11:01:55Z</time>
      </trkpt>
      <trkpt lat="44.88155" lon="5.27504">
        <ele>1331.2</ele>
        <time>2024-07-02T11:01:56Z</time>
      </trkpt>
      <trkpt lat="44.88154" lon="5.27504">
        <ele>1331.2</ele>
        <time>2024-07-02T11:01:57Z</time>
      </trkpt>
      <trkpt lat="44.88153" lon="5.27504">
        <ele>1331.1</ele>
        <time>2024-07-02T11:01:58Z</time>
      </trkpt>
      <trkpt lat="44.88153" lon="5.27504">
        <ele>1331.1</ele>
        <time>2024-07-02T11:01:59Z</time>
      </trkpt>
      <trkpt lat="44.88152" lon="5.27503">
        <ele>1331.1</ele>
        <time>2024-07-02T11:02:00Z</time>
      </trkpt>
      <trkpt lat="44.88151" lon="5.27503">
        <ele>1331.1</ele>
        <time>2024-07-02T11:02:01Z</time>
      </trkpt>
      <trkpt lat="44.8815" lon="5.27502">
        <ele>1331</ele>
        <time>2024-07-02T11:02:02Z</time>
      </trkpt>
      <trkpt lat="44.88149" lon="5.27502">
        <ele>1331</ele>
        <time>2024-07-02T11:02:03Z</time>
      </trkpt>
      <trkpt lat="44.88149" lon="5.27501">
        <ele>1331</ele>
        <time>2024-07-02T11:02:04Z</time>
      </trkpt>
      <trkpt lat="44.88148" lon="5.27501">
        <ele>1331</ele>
        <time>2024-07-02T11:02:05Z</time>
      </trkpt>
      <trkpt lat="44.88146" lon="5.275">
        <ele>1330.9</ele>
        <time>2024-07-02T11:02:06Z</time>
      </trkpt>
      <trkpt lat="44.88144" lon="5.275">
        <ele>1330.9</ele>
        <time>2024-07-02T11:02:07Z</time>
      </trkpt>
      <trkpt lat="44.88143" lon="5.275">
        <ele>1330.8</ele>
        <time>2024-07-02T11:02:08Z</time>
      </trkpt>
      <trkpt lat="44.88142" lon="5.275">
        <ele>1330.8</ele>
        <time>2024-07-02T11:02:09Z</time>
      </trkpt>
      <trkpt lat="44.88141" lon="5.27499">
        <ele>1330.8</ele>
        <time>2024-07-02T11:02:10Z</time>
      </trkpt>
      <trkpt lat="44.88139" lon="5.27499">
        <ele>1330.7</ele>
        <time>2024-07-02T11:02:11Z</time>
      </trkpt>
      <trkpt lat="44.88137" lon="5.27498">
        <ele>1330.6</ele>
        <time>2024-07-02T11:02:12Z</time>
      </trkpt>
      <trkpt lat="44.88136" lon="5.27498">
        <ele>1330.6</ele>
        <time>2024-07-02T11:02:13Z</time>
      </trkpt>
      <trkpt lat="44.88136" lon="5.27497">
        <ele>1330.6</ele>
        <time>2024-07-02T11:02:14Z</time>
      </trkpt>
      <trkpt lat="44.88133" lon="5.27497">
        <ele>1330.5</ele>
        <time>2024-07-02T11:02:15Z</time>
      </trkpt>
      <trkpt lat="44.88132" lon="5.27497">
        <ele>1330.4</ele>
        <time>2024-07-02T11:02:16Z</time>
      </trkpt>
      <trkpt lat="44.88132" lon="5.27498">
        <ele>1330.4</ele>
        <time>2024-07-02T11:02:17Z</time>
      </trkpt>
      <trkpt lat="44.88129" lon="5.27498">
        <ele>1330.3</ele>
        <time>2024-07-02T11:02:18Z</time>
      </trkpt>
      <trkpt lat="44.88129" lon="5.27498">
        <ele>1330.2</ele>
        <time>2024-07-02T11:02:19Z</time>
      </trkpt>
      <trkpt lat="44.88128" lon="5.27498">
        <ele>1330.2</ele>
        <time>2024-07-02T11:02:20Z</time>
      </trkpt>
      <trkpt lat="44.88127" lon="5.27499">
        <ele>1330.1</ele>
        <time>2024-07-02T11:02:21Z</time>
      </trkpt>
      <trkpt lat="44.88125" lon="5.27499">
        <ele>1330</ele>
        <time>2024-07-02T11:02:22Z</time>
      </trkpt>
      <trkpt lat="44.88124" lon="5.27499">
        <ele>1330</ele>
        <time>2024-07-02T11:02:23Z</time>
      </trkpt>
      <trkpt lat="44.88123" lon="5.27499">
        <ele>1329.9</ele>
        <time>2024-07-02T11:02:24Z</time>
      </trkpt>
      <trkpt lat="44.88122" lon="5.27499">
        <ele>1329.8</ele>
        <time>2024-07-02T11:02:25Z</time>
      </trkpt>
      <trkpt lat="44.88121" lon="5.27499">
        <ele>1329.8</ele>
        <time>2024-07-02T11:02:26Z</time>
      </trkpt>
      <trkpt lat="44.8812" lon="5.27498">
        <ele>1329.7</ele>
        <time>2024-07-02T11:02:27Z</time>
      </trkpt>
      <trkpt lat="44.88119" lon="5.27498">
        <ele>1329.6</ele>
        <time>2024-07-02T11:02:28Z</time>
      </trkpt>
      <trkpt lat="44.88118" lon="5.27498">
        <ele>1329.6</ele>
        <time>2024-07-02T11:02:29Z</time>
      </trkpt>
      <trkpt lat="44.88116" lon="5.27498">
        <ele>1329.5</ele>
        <time>2024-07-02T11:02:30Z</time>
      </trkpt>
      <trkpt lat="44.88115" lon="5.27498">
        <ele>1329.4</ele>
        <time>2024-07-02T11:02:31Z</time>
      </trkpt>
      <trkpt lat="44.88114" lon="5.27498">
        <ele>1329.4</ele>
        <time>2024-07-02T11:02:32Z</time>
      </trkpt>
      <trkpt lat="44.88113" lon="5.27497">
        <ele>1329.3</ele>
        <time>2024-07-02T11:02:33Z</time>
      </trkpt>
      <trkpt lat="44.88112" lon="5.27497">
        <ele>1329.2</ele>
        <time>2024-07-02T11:02:34Z</time>
      </trkpt>
      <trkpt lat="44.88111" lon="5.27498">
        <ele>1329.1</ele>
        <time>2024-07-02T11:02:35Z</time>
      </trkpt>
      <trkpt lat="44.88109" lon="5.27498">
        <ele>1329</ele>
        <time>2024-07-02T11:02:36Z</time>
      </trkpt>
      <trkpt lat="44.88108" lon="5.27498">
        <ele>1329</ele>
        <time>2024-07-02T11:02:37Z</time>
      </trkpt>
      <trkpt lat="44.88107" lon="5.27498">
        <ele>1328.9</ele>
        <time>2024-07-02T11:02:38Z</time>
      </trkpt>
      <trkpt lat="44.88105" lon="5.27499">
        <ele>1328.8</ele>
        <time>2024-07-02T11:02:39Z</time>
      </trkpt>
      <trkpt lat="44.88105" lon="5.27499">
        <ele>1328.8</ele>
        <time>2024-07-02T11:02:40Z</time>
      </trkpt>
      <trkpt lat="44.88104" lon="5.27499">
        <ele>1328.7</ele>
        <time>2024-07-02T11:02:41Z</time>
      </trkpt>
      <trkpt lat="44.88103" lon="5.275">
        <ele>1328.6</ele>
        <time>2024-07-02T11:02:42Z</time>
      </trkpt>
      <trkpt lat="44.88101" lon="5.275">
        <ele>1328.6</ele>
        <time>2024-07-02T11:02:43Z</time>
      </trkpt>
      <trkpt lat="44.881" lon="5.275">
        <ele>1328.5</ele>
        <time>2024-07-02T11:02:44Z</time>
      </trkpt>
      <trkpt lat="44.88099" lon="5.27501">
        <ele>1328.4</ele>
        <time>2024-07-02T11:02:45Z</time>
      </trkpt>
      <trkpt lat="44.88098" lon="5.27501">
        <ele>1328.4</ele>
        <time>2024-07-02T11:02:46Z</time>
      </trkpt>
      <trkpt lat="44.88097" lon="5.27501">
        <ele>1328.3</ele>
        <time>2024-07-02T11:02:47Z</time>
      </trkpt>
      <trkpt lat="44.88095" lon="5.27502">
        <ele>1328.3</ele>
        <time>2024-07-02T11:02:48Z</time>
      </trkpt>
      <trkpt lat="44.88094" lon="5.27502">
        <ele>1328.2</ele>
        <time>2024-07-02T11:02:49Z</time>
      </trkpt>
      <trkpt lat="44.88093" lon="5.27502">
        <ele>1328.1</ele>
        <time>2024-07-02T11:02:50Z</time>
      </trkpt>
      <trkpt lat="44.88092" lon="5.27502">
        <ele>1328.1</ele>
        <time>2024-07-02T11:02:51Z</time>
      </trkpt>
      <trkpt lat="44.88091" lon="5.27502">
        <ele>1328.1</ele>
        <time>2024-07-02T11:02:52Z</time>
      </trkpt>
      <trkpt lat="44.8809" lon="5.27502">
        <ele>1328</ele>
        <time>2024-07-02T11:02:53Z</time>
      </trkpt>
      <trkpt lat="44.88089" lon="5.27503">
        <ele>1328</ele>
        <time>2024-07-02T11:02:54Z</time>
      </trkpt>
      <trkpt lat="44.88088" lon="5.27503">
        <ele>1327.9</ele>
        <time>2024-07-02T11:02:55Z</time>
      </trkpt>
      <trkpt lat="44.88087" lon="5.27503">
        <ele>1327.9</ele>
        <time>2024-07-02T11:02:56Z</time>
      </trkpt>
      <trkpt lat="44.88086" lon="5.27504">
        <ele>1327.8</ele>
        <time>2024-07-02T11:02:57Z</time>
      </trkpt>
      <trkpt lat="44.88085" lon="5.27504">
        <ele>1327.8</ele>
        <time>2024-07-02T11:02:58Z</time>
      </trkpt>
      <trkpt lat="44.88084" lon="5.27505">
        <ele>1327.7</ele>
        <time>2024-07-02T11:02:59Z</time>
      </trkpt>
      <trkpt lat="44.88083" lon="5.27505">
        <ele>1327.7</ele>
        <time>2024-07-02T11:03:00Z</time>
      </trkpt>
      <trkpt lat="44.88082" lon="5.27506">
        <ele>1327.6</ele>
        <time>2024-07-02T11:03:01Z</time>
      </trkpt>
      <trkpt lat="44.88081" lon="5.27506">
        <ele>1327.6</ele>
        <time>2024-07-02T11:03:02Z</time>
      </trkpt>
      <trkpt lat="44.8808" lon="5.27506">
        <ele>1327.5</ele>
        <time>2024-07-02T11:03:03Z</time>
      </trkpt>
      <trkpt lat="44.88079" lon="5.27506">
        <ele>1327.5</ele>
        <time>2024-07-02T11:03:04Z</time>
      </trkpt>
      <trkpt lat="44.88078" lon="5.27507">
        <ele>1327.4</ele>
        <time>2024-07-02T11:03:05Z</time>
      </trkpt>
      <trkpt lat="44.88076" lon="5.27507">
        <ele>1327.4</ele>
        <time>2024-07-02T11:03:06Z</time>
      </trkpt>
      <trkpt lat="44.88075" lon="5.27507">
        <ele>1327.4</ele>
        <time>2024-07-02T11:03:07Z</time>
      </trkpt>
      <trkpt lat="44.88074" lon="5.27507">
        <ele>1327.3</ele>
        <time>2024-07-02T11:03:08Z</time>
      </trkpt>
      <trkpt lat="44.88073" lon="5.27507">
        <ele>1327.3</ele>
        <time>2024-07-02T11:03:09Z</time>
      </trkpt>
      <trkpt lat="44.88072" lon="5.27508">
        <ele>1327.3</ele>
        <time>2024-07-02T11:03:10Z</time>
      </trkpt>
      <trkpt lat="44.88071" lon="5.27508">
        <ele>1327.2</ele>
        <time>2024-07-02T11:03:11Z</time>
      </trkpt>
      <trkpt lat="44.8807" lon="5.27508">
        <ele>1327.2</ele>
        <time>2024-07-02T11:03:12Z</time>
      </trkpt>
      <trkpt lat="44.88068" lon="5.27508">
        <ele>1327.2</ele>
        <time>2024-07-02T11:03:13Z</time>
      </trkpt>
      <trkpt lat="44.88067" lon="5.27508">
        <ele>1327.1</ele>
        <time>2024-07-02T11:03:14Z</time>
      </trkpt>
      <trkpt lat="44.88066" lon="5.27508">
        <ele>1327.1</ele>
        <time>2024-07-02T11:03:15Z</time>
      </trkpt>
      <trkpt lat="44.88065" lon="5.27509">
        <ele>1327.1</ele>
        <time>2024-07-02T11:03:16Z</time>
      </trkpt>
      <trkpt lat="44.88064" lon="5.27509">
        <ele>1327</ele>
        <time>2024-07-02T11:03:17Z</time>
      </trkpt>
      <trkpt lat="44.88063" lon="5.27509">
        <ele>1327</ele>
        <time>2024-07-02T11:03:18Z</time>
      </trkpt>
      <trkpt lat="44.88061" lon="5.27509">
        <ele>1327</ele>
        <time>2024-07-02T11:03:19Z</time>
      </trkpt>
      <trkpt lat="44.8806" lon="5.27509">
        <ele>1327</ele>
        <time>2024-07-02T11:03:20Z</time>
      </trkpt>
      <trkpt lat="44.88059" lon="5.27509">
        <ele>1326.9</ele>
        <time>2024-07-02T11:03:21Z</time>
      </trkpt>
      <trkpt lat="44.88058" lon="5.27509">
        <ele>1326.9</ele>
        <time>2024-07-02T11:03:22Z</time>
      </trkpt>
      <trkpt lat="44.88057" lon="5.27509">
        <ele>1326.9</ele>
        <time>2024-07-02T11:03:23Z</time>
      </trkpt>
      <trkpt lat="44.88056" lon="5.27509">
        <ele>1326.9</ele>
        <time>2024-07-02T11:03:24Z</time>
      </trkpt>
      <trkpt lat="44.88054" lon="5.27509">
        <ele>1326.9</ele>
        <time>2024-07-02T11:03:25Z</time>
      </trkpt>
      <trkpt lat="44.88053" lon="5.27509">
        <ele>1326.8</ele>
        <time>2024-07-02T11:03:26Z</time>
      </trkpt>
      <trkpt lat="44.88051" lon="5.27508">
        <ele>1326.8</ele>
        <time>2024-07-02T11:03:27Z</time>
      </trkpt>
      <trkpt lat="44.8805" lon="5.27508">
        <ele>1326.8</ele>
        <time>2024-07-02T11:03:28Z</time>
      </trkpt>
      <trkpt lat="44.8805" lon="5.27508">
        <ele>1326.8</ele>
        <time>2024-07-02T11:03:29Z</time>
      </trkpt>
      <trkpt lat="44.88049" lon="5.27507">
        <ele>1326.8</ele>
        <time>2024-07-02T11:03:30Z</time>
      </trkpt>
      <trkpt lat="44.88047" lon="5.27507">
        <ele>1326.8</ele>
        <time>2024-07-02T11:03:31Z</time>
      </trkpt>
      <trkpt lat="44.88046" lon="5.27507">
        <ele>1326.7</ele>
        <time>2024-07-02T11:03:32Z</time>
      </trkpt>
      <trkpt lat="44.88045" lon="5.27506">
        <ele>1326.7</ele>
        <time>2024-07-02T11:03:33Z</time>
      </trkpt>
      <trkpt lat="44.88044" lon="5.27506">
        <ele>1326.7</ele>
        <time>2024-07-02T11:03:34Z</time>
      </trkpt>
      <trkpt lat="44.88043" lon="5.27506">
        <ele>1326.7</ele>
        <time>2024-07-02T11:03:35Z</time>
      </trkpt>
      <trkpt lat="44.88042" lon="5.27505">
        <ele>1326.7</ele>
        <time>2024-07-02T11:03:36Z</time>
      </trkpt>
      <trkpt lat="44.88041" lon="5.27504">
        <ele>1326.6</ele>
        <time>2024-07-02T11:03:37Z</time>
      </trkpt>
      <trkpt lat="44.8804" lon="5.27503">
        <ele>1326.6</ele>
        <time>2024-07-02T11:03:38Z</time>
      </trkpt>
      <trkpt lat="44.88038" lon="5.27502">
        <ele>1326.6</ele>
        <time>2024-07-02T11:03:39Z</time>
      </trkpt>
      <trkpt lat="44.88037" lon="5.27501">
        <ele>1326.5</ele>
        <time>2024-07-02T11:03:40Z</time>
      </trkpt>
      <trkpt lat="44.88037" lon="5.275">
        <ele>1326.5</ele>
        <time>2024-07-02T11:03:41Z</time>
      </trkpt>
      <trkpt lat="44.88036" lon="5.27499">
        <ele>1326.5</ele>
        <time>2024-07-02T11:03:42Z</time>
      </trkpt>
      <trkpt lat="44.88035" lon="5.27499">
        <ele>1326.5</ele>
        <time>2024-07-02T11:03:43Z</time>
      </trkpt>
      <trkpt lat="44.88034" lon="5.27498">
        <ele>1326.4</ele>
        <time>2024-07-02T11:03:44Z</time>
      </trkpt>
      <trkpt lat="44.88033" lon="5.27497">
        <ele>1326.4</ele>
        <time>2024-07-02T11:03:45Z</time>
      </trkpt>
      <trkpt lat="44.88032" lon="5.27496">
        <ele>1326.4</ele>
        <time>2024-07-02T11:03:46Z</time>
      </trkpt>
      <trkpt lat="44.88031" lon="5.27495">
        <ele>1326.4</ele>
        <time>2024-07-02T11:03:47Z</time>
      </trkpt>
      <trkpt lat="44.8803" lon="5.27495">
        <ele>1326.3</ele>
        <time>2024-07-02T11:03:48Z</time>
      </trkpt>
      <trkpt lat="44.88029" lon="5.27494">
        <ele>1326.3</ele>
        <time>2024-07-02T11:03:49Z</time>
      </trkpt>
      <trkpt lat="44.88028" lon="5.27493">
        <ele>1326.3</ele>
        <time>2024-07-02T11:03:50Z</time>
      </trkpt>
      <trkpt lat="44.88026" lon="5.27491">
        <ele>1326.2</ele>
        <time>2024-07-02T11:03:51Z</time>
      </trkpt>
      <trkpt lat="44.88026" lon="5.2749">
        <ele>1326.2</ele>
        <time>2024-07-02T11:03:52Z</time>
      </trkpt>
      <trkpt lat="44.88025" lon="5.2749">
        <ele>1326.2</ele>
        <time>2024-07-02T11:03:53Z</time>
      </trkpt>
      <trkpt lat="44.88024" lon="5.27489">
        <ele>1326.1</ele>
        <time>2024-07-02T11:03:54Z</time>
      </trkpt>
      <trkpt lat="44.88023" lon="5.27487">
        <ele>1326.1</ele>
        <time>2024-07-02T11:03:55Z</time>
      </trkpt>
      <trkpt lat="44.88023" lon="5.27486">
        <ele>1326.1</ele>
        <time>2024-07-02T11:03:56Z</time>
      </trkpt>
      <trkpt lat="44.88022" lon="5.27485">
        <ele>1326.1</ele>
        <time>2024-07-02T11:03:57Z</time>
      </trkpt>
      <trkpt lat="44.88021" lon="5.27484">
        <ele>1326</ele>
        <time>2024-07-02T11:03:58Z</time>
      </trkpt>
      <trkpt lat="44.8802" lon="5.27483">
        <ele>1326</ele>
        <time>2024-07-02T11:03:59Z</time>
      </trkpt>
      <trkpt lat="44.88019" lon="5.27482">
        <ele>1326</ele>
        <time>2024-07-02T11:04:00Z</time>
      </trkpt>
      <trkpt lat="44.88018" lon="5.27481">
        <ele>1325.9</ele>
        <time>2024-07-02T11:04:01Z</time>
      </trkpt>
      <trkpt lat="44.88017" lon="5.2748">
        <ele>1325.9</ele>
        <time>2024-07-02T11:04:02Z</time>
      </trkpt>
      <trkpt lat="44.88017" lon="5.27479">
        <ele>1325.9</ele>
        <time>2024-07-02T11:04:03Z</time>
      </trkpt>
      <trkpt lat="44.88015" lon="5.27478">
        <ele>1325.8</ele>
        <time>2024-07-02T11:04:04Z</time>
      </trkpt>
      <trkpt lat="44.88014" lon="5.27477">
        <ele>1325.8</ele>
        <time>2024-07-02T11:04:05Z</time>
      </trkpt>
      <trkpt lat="44.88014" lon="5.27477">
        <ele>1325.8</ele>
        <time>2024-07-02T11:04:06Z</time>
      </trkpt>
      <trkpt lat="44.88013" lon="5.27476">
        <ele>1325.7</ele>
        <time>2024-07-02T11:04:07Z</time>
      </trkpt>
      <trkpt lat="44.88012" lon="5.27475">
        <ele>1325.7</ele>
        <time>2024-07-02T11:04:08Z</time>
      </trkpt>
      <trkpt lat="44.88011" lon="5.27474">
        <ele>1325.7</ele>
        <time>2024-07-02T11:04:09Z</time>
      </trkpt>
      <trkpt lat="44.8801" lon="5.27473">
        <ele>1325.6</ele>
        <time>2024-07-02T11:04:10Z</time>
      </trkpt>
      <trkpt lat="44.88009" lon="5.27472">
        <ele>1325.6</ele>
        <time>2024-07-02T11:04:11Z</time>
      </trkpt>
      <trkpt lat="44.88008" lon="5.27471">
        <ele>1325.6</ele>
        <time>2024-07-02T11:04:12Z</time>
      </trkpt>
      <trkpt lat="44.88007" lon="5.2747">
        <ele>1325.5</ele>
        <time>2024-07-02T11:04:13Z</time>
      </trkpt>
      <trkpt lat="44.88006" lon="5.27469">
        <ele>1325.5</ele>
        <time>2024-07-02T11:04:14Z</time>
      </trkpt>
      <trkpt lat="44.88005" lon="5.27467">
        <ele>1325.4</ele>
        <time>2024-07-02T11:04:15Z</time>
      </trkpt>
      <trkpt lat="44.88004" lon="5.27467">
        <ele>1325.4</ele>
        <time>2024-07-02T11:04:16Z</time>
      </trkpt>
      <trkpt lat="44.88003" lon="5.27466">
        <ele>1325.4</ele>
        <time>2024-07-02T11:04:17Z</time>
      </trkpt>
      <trkpt lat="44.88003" lon="5.27465">
        <ele>1325.4</ele>
        <time>2024-07-02T11:04:18Z</time>
      </trkpt>
      <trkpt lat="44.88002" lon="5.27464">
        <ele>1325.3</ele>
        <time>2024-07-02T11:04:19Z</time>
      </trkpt>
      <trkpt lat="44.88001" lon="5.27463">
        <ele>1325.3</ele>
        <time>2024-07-02T11:04:20Z</time>
      </trkpt>
      <trkpt lat="44.88" lon="5.27462">
        <ele>1325.3</ele>
        <time>2024-07-02T11:04:21Z</time>
      </trkpt>
      <trkpt lat="44.87999" lon="5.27462">
        <ele>1325.2</ele>
        <time>2024-07-02T11:04:22Z</time>
      </trkpt>
      <trkpt lat="44.87998" lon="5.27461">
        <ele>1325.2</ele>
        <time>2024-07-02T11:04:23Z</time>
      </trkpt>
      <trkpt lat="44.87997" lon="5.2746">
        <ele>1325.2</ele>
        <time>2024-07-02T11:04:24Z</time>
      </trkpt>
      <trkpt lat="44.87996" lon="5.27459">
        <ele>1325.1</ele>
        <time>2024-07-02T11:04:25Z</time>
      </trkpt>
      <trkpt lat="44.87995" lon="5.27459">
        <ele>1325.1</ele>
        <time>2024-07-02T11:04:26Z</time>
      </trkpt>
      <trkpt lat="44.87994" lon="5.27458">
        <ele>1325.1</ele>
        <time>2024-07-02T11:04:27Z</time>
      </trkpt>
      <trkpt lat="44.87993" lon="5.27457">
        <ele>1325.1</ele>
        <time>2024-07-02T11:04:28Z</time>
      </trkpt>
      <trkpt lat="44.87992" lon="5.27457">
        <ele>1325</ele>
        <time>2024-07-02T11:04:29Z</time>
      </trkpt>
      <trkpt lat="44.87991" lon="5.27456">
        <ele>1325</ele>
        <time>2024-07-02T11:04:30Z</time>
      </trkpt>
      <trkpt lat="44.87989" lon="5.27456">
        <ele>1325</ele>
        <time>2024-07-02T11:04:31Z</time>
      </trkpt>
      <trkpt lat="44.87988" lon="5.27455">
        <ele>1324.9</ele>
        <time>2024-07-02T11:04:32Z</time>
      </trkpt>
      <trkpt lat="44.87986" lon="5.27454">
        <ele>1324.9</ele>
        <time>2024-07-02T11:04:33Z</time>
      </trkpt>
      <trkpt lat="44.87986" lon="5.27453">
        <ele>1324.9</ele>
        <time>2024-07-02T11:04:34Z</time>
      </trkpt>
      <trkpt lat="44.87985" lon="5.27453">
        <ele>1324.8</ele>
        <time>2024-07-02T11:04:35Z</time>
      </trkpt>
      <trkpt lat="44.87984" lon="5.27453">
        <ele>1324.8</ele>
        <time>2024-07-02T11:04:36Z</time>
      </trkpt>
      <trkpt lat="44.87983" lon="5.27452">
        <ele>1324.8</ele>
        <time>2024-07-02T11:04:37Z</time>
      </trkpt>
      <trkpt lat="44.87982" lon="5.27452">
        <ele>1324.7</ele>
        <time>2024-07-02T11:04:38Z</time>
      </trkpt>
      <trkpt lat="44.87981" lon="5.27451">
        <ele>1324.7</ele>
        <time>2024-07-02T11:04:39Z</time>
      </trkpt>
      <trkpt lat="44.87979" lon="5.2745">
        <ele>1324.7</ele>
        <time>2024-07-02T11:04:40Z</time>
      </trkpt>
      <trkpt lat="44.87978" lon="5.2745">
        <ele>1324.6</ele>
        <time>2024-07-02T11:04:41Z</time>
      </trkpt>
      <trkpt lat="44.87977" lon="5.27449">
        <ele>1324.6</ele>
        <time>2024-07-02T11:04:42Z</time>
      </trkpt>
      <trkpt lat="44.87976" lon="5.27449">
        <ele>1324.5</ele>
        <time>2024-07-02T11:04:43Z</time>
      </trkpt>
      <trkpt lat="44.87975" lon="5.27449">
        <ele>1324.5</ele>
        <time>2024-07-02T11:04:44Z</time>
      </trkpt>
      <trkpt lat="44.87974" lon="5.27448">
        <ele>1324.5</ele>
        <time>2024-07-02T11:04:45Z</time>
      </trkpt>
      <trkpt lat="44.87973" lon="5.27448">
        <ele>1324.4</ele>
        <time>2024-07-02T11:04:46Z</time>
      </trkpt>
      <trkpt lat="44.87972" lon="5.27447">
        <ele>1324.4</ele>
        <time>2024-07-02T11:04:47Z</time>
      </trkpt>
      <trkpt lat="44.87971" lon="5.27447">
        <ele>1324.3</ele>
        <time>2024-07-02T11:04:48Z</time>
      </trkpt>
      <trkpt lat="44.8797" lon="5.27447">
        <ele>1324.3</ele>
        <time>2024-07-02T11:04:49Z</time>
      </trkpt>
      <trkpt lat="44.87969" lon="5.27447">
        <ele>1324.3</ele>
        <time>2024-07-02T11:04:50Z</time>
      </trkpt>
      <trkpt lat="44.87967" lon="5.27446">
        <ele>1324.2</ele>
        <time>2024-07-02T11:04:51Z</time>
      </trkpt>
      <trkpt lat="44.87966" lon="5.27446">
        <ele>1324.1</ele>
        <time>2024-07-02T11:04:52Z</time>
      </trkpt>
      <trkpt lat="44.87965" lon="5.27446">
        <ele>1324.1</ele>
        <time>2024-07-02T11:04:53Z</time>
      </trkpt>
      <trkpt lat="44.87964" lon="5.27446">
        <ele>1324.1</ele>
        <time>2024-07-02T11:04:54Z</time>
      </trkpt>
      <trkpt lat="44.87963" lon="5.27445">
        <ele>1324</ele>
        <time>2024-07-02T11:04:55Z</time>
      </trkpt>
      <trkpt lat="44.87962" lon="5.27445">
        <ele>1324</ele>
        <time>2024-07-02T11:04:56Z</time>
      </trkpt>
      <trkpt lat="44.87961" lon="5.27445">
        <ele>1323.9</ele>
        <time>2024-07-02T11:04:57Z</time>
      </trkpt>
      <trkpt lat="44.8796" lon="5.27445">
        <ele>1323.9</ele>
        <time>2024-07-02T11:04:58Z</time>
      </trkpt>
      <trkpt lat="44.87959" lon="5.27444">
        <ele>1323.8</ele>
        <time>2024-07-02T11:04:59Z</time>
      </trkpt>
      <trkpt lat="44.87958" lon="5.27444">
        <ele>1323.8</ele>
        <time>2024-07-02T11:05:00Z</time>
      </trkpt>
      <trkpt lat="44.87957" lon="5.27444">
        <ele>1323.7</ele>
        <time>2024-07-02T11:05:01Z</time>
      </trkpt>
      <trkpt lat="44.87956" lon="5.27445">
        <ele>1323.7</ele>
        <time>2024-07-02T11:05:02Z</time>
      </trkpt>
      <trkpt lat="44.87956" lon="5.27446">
        <ele>1323.7</ele>
        <time>2024-07-02T11:05:03Z</time>
      </trkpt>
      <trkpt lat="44.87954" lon="5.27445">
        <ele>1323.6</ele>
        <time>2024-07-02T11:05:04Z</time>
      </trkpt>
      <trkpt lat="44.87953" lon="5.27444">
        <ele>1323.6</ele>
        <time>2024-07-02T11:05:05Z</time>
      </trkpt>
      <trkpt lat="44.87951" lon="5.27443">
        <ele>1323.5</ele>
        <time>2024-07-02T11:05:06Z</time>
      </trkpt>
      <trkpt lat="44.8795" lon="5.27443">
        <ele>1323.5</ele>
        <time>2024-07-02T11:05:07Z</time>
      </trkpt>
      <trkpt lat="44.87949" lon="5.27443">
        <ele>1323.4</ele>
        <time>2024-07-02T11:05:08Z</time>
      </trkpt>
      <trkpt lat="44.87948" lon="5.27444">
        <ele>1323.4</ele>
        <time>2024-07-02T11:05:09Z</time>
      </trkpt>
      <trkpt lat="44.87947" lon="5.27443">
        <ele>1323.4</ele>
        <time>2024-07-02T11:05:10Z</time>
      </trkpt>
      <trkpt lat="44.87946" lon="5.27443">
        <ele>1323.3</ele>
        <time>2024-07-02T11:05:11Z</time>
      </trkpt>
      <trkpt lat="44.87945" lon="5.27442">
        <ele>1323.3</ele>
        <time>2024-07-02T11:05:12Z</time>
      </trkpt>
      <trkpt lat="44.87944" lon="5.27441">
        <ele>1323.3</ele>
        <time>2024-07-02T11:05:13Z</time>
      </trkpt>
      <trkpt lat="44.87943" lon="5.27441">
        <ele>1323.3</ele>
        <time>2024-07-02T11:05:14Z</time>
      </trkpt>
      <trkpt lat="44.87942" lon="5.27441">
        <ele>1323.3</ele>
        <time>2024-07-02T11:05:15Z</time>
      </trkpt>
      <trkpt lat="44.87941" lon="5.27441">
        <ele>1323.3</ele>
        <time>2024-07-02T11:05:16Z</time>
      </trkpt>
      <trkpt lat="44.8794" lon="5.27441">
        <ele>1323.3</ele>
        <time>2024-07-02T11:05:17Z</time>
      </trkpt>
      <trkpt lat="44.8794" lon="5.27442">
        <ele>1323.3</ele>
        <time>2024-07-02T11:05:18Z</time>
      </trkpt>
      <trkpt lat="44.87939" lon="5.27443">
        <ele>1323.3</ele>
        <time>2024-07-02T11:05:19Z</time>
      </trkpt>
      <trkpt lat="44.87938" lon="5.27443">
        <ele>1323.3</ele>
        <time>2024-07-02T11:05:20Z</time>
      </trkpt>
      <trkpt lat="44.87938" lon="5.27445">
        <ele>1323.3</ele>
        <time>2024-07-02T11:05:21Z</time>
      </trkpt>
      <trkpt lat="44.87937" lon="5.27446">
        <ele>1323.3</ele>
        <time>2024-07-02T11:05:22Z</time>
      </trkpt>
      <trkpt lat="44.87935" lon="5.27445">
        <ele>1323.3</ele>
        <time>2024-07-02T11:05:23Z</time>
      </trkpt>
      <trkpt lat="44.87935" lon="5.27445">
        <ele>1323.3</ele>
        <time>2024-07-02T11:05:24Z</time>
      </trkpt>
      <trkpt lat="44.87934" lon="5.27444">
        <ele>1323.3</ele>
        <time>2024-07-02T11:05:25Z</time>
      </trkpt>
      <trkpt lat="44.87934" lon="5.27444">
        <ele>1323.3</ele>
        <time>2024-07-02T11:05:26Z</time>
      </trkpt>
      <trkpt lat="44.87933" lon="5.27443">
        <ele>1323.3</ele>
        <time>2024-07-02T11:05:27Z</time>
      </trkpt>
      <trkpt lat="44.87932" lon="5.27442">
        <ele>1323.3</ele>
        <time>2024-07-02T11:05:28Z</time>
      </trkpt>
      <trkpt lat="44.87932" lon="5.27441">
        <ele>1323.4</ele>
        <time>2024-07-02T11:05:29Z</time>
      </trkpt>
      <trkpt lat="44.8793" lon="5.27439">
        <ele>1323.4</ele>
        <time>2024-07-02T11:05:30Z</time>
      </trkpt>
      <trkpt lat="44.87929" lon="5.27438">
        <ele>1323.4</ele>
        <time>2024-07-02T11:05:31Z</time>
      </trkpt>
      <trkpt lat="44.87928" lon="5.27438">
        <ele>1323.5</ele>
        <time>2024-07-02T11:05:32Z</time>
      </trkpt>
      <trkpt lat="44.87928" lon="5.27437">
        <ele>1323.5</ele>
        <time>2024-07-02T11:05:33Z</time>
      </trkpt>
      <trkpt lat="44.87927" lon="5.27435">
        <ele>1323.5</ele>
        <time>2024-07-02T11:05:34Z</time>
      </trkpt>
      <trkpt lat="44.87926" lon="5.27434">
        <ele>1323.6</ele>
        <time>2024-07-02T11:05:35Z</time>
      </trkpt>
      <trkpt lat="44.87925" lon="5.27433">
        <ele>1323.6</ele>
        <time>2024-07-02T11:05:36Z</time>
      </trkpt>
      <trkpt lat="44.87924" lon="5.27433">
        <ele>1323.6</ele>
        <time>2024-07-02T11:05:37Z</time>
      </trkpt>
      <trkpt lat="44.87923" lon="5.27432">
        <ele>1323.7</ele>
        <time>2024-07-02T11:05:38Z</time>
      </trkpt>
      <trkpt lat="44.87921" lon="5.27431">
        <ele>1323.7</ele>
        <time>2024-07-02T11:05:39Z</time>
      </trkpt>
      <trkpt lat="44.8792" lon="5.2743">
        <ele>1323.8</ele>
        <time>2024-07-02T11:05:40Z</time>
      </trkpt>
      <trkpt lat="44.87919" lon="5.2743">
        <ele>1323.8</ele>
        <time>2024-07-02T11:05:41Z</time>
      </trkpt>
      <trkpt lat="44.87918" lon="5.27429">
        <ele>1323.8</ele>
        <time>2024-07-02T11:05:42Z</time>
      </trkpt>
      <trkpt lat="44.87917" lon="5.27428">
        <ele>1323.9</ele>
        <time>2024-07-02T11:05:43Z</time>
      </trkpt>
      <trkpt lat="44.87917" lon="5.27427">
        <ele>1323.9</ele>
        <time>2024-07-02T11:05:44Z</time>
      </trkpt>
      <trkpt lat="44.87916" lon="5.27426">
        <ele>1323.9</ele>
        <time>2024-07-02T11:05:45Z</time>
      </trkpt>
      <trkpt lat="44.87915" lon="5.27425">
        <ele>1324</ele>
        <time>2024-07-02T11:05:46Z</time>
      </trkpt>
      <trkpt lat="44.87914" lon="5.27425">
        <ele>1324</ele>
        <time>2024-07-02T11:05:47Z</time>
      </trkpt>
      <trkpt lat="44.87913" lon="5.27424">
        <ele>1324</ele>
        <time>2024-07-02T11:05:48Z</time>
      </trkpt>
      <trkpt lat="44.87912" lon="5.27423">
        <ele>1324</ele>
        <time>2024-07-02T11:05:49Z</time>
      </trkpt>
      <trkpt lat="44.87911" lon="5.27422">
        <ele>1324</ele>
        <time>2024-07-02T11:05:50Z</time>
      </trkpt>
      <trkpt lat="44.8791" lon="5.27422">
        <ele>1324.1</ele>
        <time>2024-07-02T11:05:51Z</time>
      </trkpt>
      <trkpt lat="44.87909" lon="5.27421">
        <ele>1324.1</ele>
        <time>2024-07-02T11:05:52Z</time>
      </trkpt>
      <trkpt lat="44.87908" lon="5.2742">
        <ele>1324.1</ele>
        <time>2024-07-02T11:05:53Z</time>
      </trkpt>
      <trkpt lat="44.87906" lon="5.27419">
        <ele>1324.1</ele>
        <time>2024-07-02T11:05:54Z</time>
      </trkpt>
      <trkpt lat="44.87905" lon="5.27418">
        <ele>1324.1</ele>
        <time>2024-07-02T11:05:55Z</time>
      </trkpt>
      <trkpt lat="44.87904" lon="5.27417">
        <ele>1324.1</ele>
        <time>2024-07-02T11:05:56Z</time>
      </trkpt>
      <trkpt lat="44.87902" lon="5.27416">
        <ele>1324.2</ele>
        <time>2024-07-02T11:05:57Z</time>
      </trkpt>
      <trkpt lat="44.87901" lon="5.27415">
        <ele>1324.2</ele>
        <time>2024-07-02T11:05:58Z</time>
      </trkpt>
      <trkpt lat="44.87901" lon="5.27415">
        <ele>1324.2</ele>
        <time>2024-07-02T11:05:59Z</time>
      </trkpt>
      <trkpt lat="44.879" lon="5.27414">
        <ele>1324.2</ele>
        <time>2024-07-02T11:06:00Z</time>
      </trkpt>
      <trkpt lat="44.87899" lon="5.27413">
        <ele>1324.2</ele>
        <time>2024-07-02T11:06:01Z</time>
      </trkpt>
      <trkpt lat="44.87898" lon="5.27413">
        <ele>1324.2</ele>
        <time>2024-07-02T11:06:02Z</time>
      </trkpt>
      <trkpt lat="44.87896" lon="5.2741">
        <ele>1324.2</ele>
        <time>2024-07-02T11:06:03Z</time>
      </trkpt>
      <trkpt lat="44.87896" lon="5.27409">
        <ele>1324.2</ele>
        <time>2024-07-02T11:06:04Z</time>
      </trkpt>
      <trkpt lat="44.87895" lon="5.27408">
        <ele>1324.2</ele>
        <time>2024-07-02T11:06:05Z</time>
      </trkpt>
      <trkpt lat="44.87894" lon="5.27407">
        <ele>1324.2</ele>
        <time>2024-07-02T11:06:06Z</time>
      </trkpt>
      <trkpt lat="44.87894" lon="5.27406">
        <ele>1324.2</ele>
        <time>2024-07-02T11:06:07Z</time>
      </trkpt>
      <trkpt lat="44.87893" lon="5.27405">
        <ele>1324.3</ele>
        <time>2024-07-02T11:06:08Z</time>
      </trkpt>
      <trkpt lat="44.87892" lon="5.27404">
        <ele>1324.3</ele>
        <time>2024-07-02T11:06:09Z</time>
      </trkpt>
      <trkpt lat="44.87892" lon="5.27402">
        <ele>1324.3</ele>
        <time>2024-07-02T11:06:10Z</time>
      </trkpt>
      <trkpt lat="44.87891" lon="5.27401">
        <ele>1324.3</ele>
        <time>2024-07-02T11:06:11Z</time>
      </trkpt>
      <trkpt lat="44.8789" lon="5.274">
        <ele>1324.3</ele>
        <time>2024-07-02T11:06:12Z</time>
      </trkpt>
      <trkpt lat="44.87889" lon="5.27399">
        <ele>1324.3</ele>
        <time>2024-07-02T11:06:13Z</time>
      </trkpt>
      <trkpt lat="44.87889" lon="5.27397">
        <ele>1324.4</ele>
        <time>2024-07-02T11:06:14Z</time>
      </trkpt>
      <trkpt lat="44.87888" lon="5.27396">
        <ele>1324.4</ele>
        <time>2024-07-02T11:06:15Z</time>
      </trkpt>
      <trkpt lat="44.87887" lon="5.27395">
        <ele>1324.4</ele>
        <time>2024-07-02T11:06:16Z</time>
      </trkpt>
      <trkpt lat="44.87886" lon="5.27394">
        <ele>1324.4</ele>
        <time>2024-07-02T11:06:17Z</time>
      </trkpt>
      <trkpt lat="44.87885" lon="5.27394">
        <ele>1324.4</ele>
        <time>2024-07-02T11:06:18Z</time>
      </trkpt>
      <trkpt lat="44.87884" lon="5.27392">
        <ele>1324.5</ele>
        <time>2024-07-02T11:06:19Z</time>
      </trkpt>
      <trkpt lat="44.87883" lon="5.27392">
        <ele>1324.5</ele>
        <time>2024-07-02T11:06:20Z</time>
      </trkpt>
      <trkpt lat="44.87881" lon="5.2739">
        <ele>1324.5</ele>
        <time>2024-07-02T11:06:21Z</time>
      </trkpt>
      <trkpt lat="44.87881" lon="5.2739">
        <ele>1324.5</ele>
        <time>2024-07-02T11:06:22Z</time>
      </trkpt>
      <trkpt lat="44.8788" lon="5.27389">
        <ele>1324.5</ele>
        <time>2024-07-02T11:06:23Z</time>
      </trkpt>
      <trkpt lat="44.87879" lon="5.27388">
        <ele>1324.6</ele>
        <time>2024-07-02T11:06:24Z</time>
      </trkpt>
      <trkpt lat="44.87878" lon="5.27387">
        <ele>1324.6</ele>
        <time>2024-07-02T11:06:25Z</time>
      </trkpt>
      <trkpt lat="44.87878" lon="5.27386">
        <ele>1324.6</ele>
        <time>2024-07-02T11:06:26Z</time>
      </trkpt>
      <trkpt lat="44.87877" lon="5.27384">
        <ele>1324.6</ele>
        <time>2024-07-02T11:06:27Z</time>
      </trkpt>
      <trkpt lat="44.87876" lon="5.27383">
        <ele>1324.6</ele>
        <time>2024-07-02T11:06:28Z</time>
      </trkpt>
      <trkpt lat="44.87875" lon="5.27382">
        <ele>1324.6</ele>
        <time>2024-07-02T11:06:29Z</time>
      </trkpt>
      <trkpt lat="44.87873" lon="5.27381">
        <ele>1324.6</ele>
        <time>2024-07-02T11:06:30Z</time>
      </trkpt>
      <trkpt lat="44.87872" lon="5.2738">
        <ele>1324.6</ele>
        <time>2024-07-02T11:06:31Z</time>
      </trkpt>
      <trkpt lat="44.87872" lon="5.27379">
        <ele>1324.6</ele>
        <time>2024-07-02T11:06:32Z</time>
      </trkpt>
      <trkpt lat="44.8787" lon="5.27377">
        <ele>1324.6</ele>
        <time>2024-07-02T11:06:33Z</time>
      </trkpt>
      <trkpt lat="44.87869" lon="5.27377">
        <ele>1324.6</ele>
        <time>2024-07-02T11:06:34Z</time>
      </trkpt>
      <trkpt lat="44.87869" lon="5.27376">
        <ele>1324.6</ele>
        <time>2024-07-02T11:06:35Z</time>
      </trkpt>
      <trkpt lat="44.87868" lon="5.27375">
        <ele>1324.6</ele>
        <time>2024-07-02T11:06:36Z</time>
      </trkpt>
      <trkpt lat="44.87867" lon="5.27374">
        <ele>1324.5</ele>
        <time>2024-07-02T11:06:37Z</time>
      </trkpt>
      <trkpt lat="44.87866" lon="5.27373">
        <ele>1324.5</ele>
        <time>2024-07-02T11:06:38Z</time>
      </trkpt>
      <trkpt lat="44.87865" lon="5.27372">
        <ele>1324.5</ele>
        <time>2024-07-02T11:06:39Z</time>
      </trkpt>
      <trkpt lat="44.87864" lon="5.27371">
        <ele>1324.5</ele>
        <time>2024-07-02T11:06:40Z</time>
      </trkpt>
      <trkpt lat="44.87863" lon="5.2737">
        <ele>1324.5</ele>
        <time>2024-07-02T11:06:41Z</time>
      </trkpt>
      <trkpt lat="44.87863" lon="5.27369">
        <ele>1324.5</ele>
        <time>2024-07-02T11:06:42Z</time>
      </trkpt>
      <trkpt lat="44.87862" lon="5.27368">
        <ele>1324.5</ele>
        <time>2024-07-02T11:06:43Z</time>
      </trkpt>
      <trkpt lat="44.87861" lon="5.27367">
        <ele>1324.5</ele>
        <time>2024-07-02T11:06:44Z</time>
      </trkpt>
      <trkpt lat="44.8786" lon="5.27366">
        <ele>1324.5</ele>
        <time>2024-07-02T11:06:45Z</time>
      </trkpt>
      <trkpt lat="44.87859" lon="5.27365">
        <ele>1324.5</ele>
        <time>2024-07-02T11:06:46Z</time>
      </trkpt>
      <trkpt lat="44.87858" lon="5.27365">
        <ele>1324.5</ele>
        <time>2024-07-02T11:06:47Z</time>
      </trkpt>
      <trkpt lat="44.87856" lon="5.27364">
        <ele>1324.4</ele>
        <time>2024-07-02T11:06:48Z</time>
      </trkpt>
      <trkpt lat="44.87855" lon="5.27364">
        <ele>1324.4</ele>
        <time>2024-07-02T11:06:49Z</time>
      </trkpt>
      <trkpt lat="44.87854" lon="5.27363">
        <ele>1324.4</ele>
        <time>2024-07-02T11:06:50Z</time>
      </trkpt>
      <trkpt lat="44.87853" lon="5.27363">
        <ele>1324.4</ele>
        <time>2024-07-02T11:06:51Z</time>
      </trkpt>
      <trkpt lat="44.87852" lon="5.27361">
        <ele>1324.4</ele>
        <time>2024-07-02T11:06:52Z</time>
      </trkpt>
      <trkpt lat="44.87851" lon="5.2736">
        <ele>1324.4</ele>
        <time>2024-07-02T11:06:53Z</time>
      </trkpt>
      <trkpt lat="44.87851" lon="5.27359">
        <ele>1324.4</ele>
        <time>2024-07-02T11:06:54Z</time>
      </trkpt>
      <trkpt lat="44.8785" lon="5.27358">
        <ele>1324.4</ele>
        <time>2024-07-02T11:06:55Z</time>
      </trkpt>
      <trkpt lat="44.87849" lon="5.27357">
        <ele>1324.4</ele>
        <time>2024-07-02T11:06:56Z</time>
      </trkpt>
      <trkpt lat="44.87848" lon="5.27356">
        <ele>1324.4</ele>
        <time>2024-07-02T11:06:57Z</time>
      </trkpt>
      <trkpt lat="44.87847" lon="5.27355">
        <ele>1324.4</ele>
        <time>2024-07-02T11:06:58Z</time>
      </trkpt>
      <trkpt lat="44.87847" lon="5.27354">
        <ele>1324.4</ele>
        <time>2024-07-02T11:06:59Z</time>
      </trkpt>
      <trkpt lat="44.87845" lon="5.27353">
        <ele>1324.4</ele>
        <time>2024-07-02T11:07:00Z</time>
      </trkpt>
      <trkpt lat="44.87844" lon="5.27352">
        <ele>1324.4</ele>
        <time>2024-07-02T11:07:01Z</time>
      </trkpt>
      <trkpt lat="44.87843" lon="5.27352">
        <ele>1324.4</ele>
        <time>2024-07-02T11:07:02Z</time>
      </trkpt>
      <trkpt lat="44.87842" lon="5.2735">
        <ele>1324.4</ele>
        <time>2024-07-02T11:07:03Z</time>
      </trkpt>
      <trkpt lat="44.87841" lon="5.2735">
        <ele>1324.4</ele>
        <time>2024-07-02T11:07:04Z</time>
      </trkpt>
      <trkpt lat="44.8784" lon="5.27349">
        <ele>1324.4</ele>
        <time>2024-07-02T11:07:05Z</time>
      </trkpt>
      <trkpt lat="44.87838" lon="5.27347">
        <ele>1324.3</ele>
        <time>2024-07-02T11:07:06Z</time>
      </trkpt>
      <trkpt lat="44.87838" lon="5.27347">
        <ele>1324.3</ele>
        <time>2024-07-02T11:07:07Z</time>
      </trkpt>
      <trkpt lat="44.87837" lon="5.27346">
        <ele>1324.3</ele>
        <time>2024-07-02T11:07:08Z</time>
      </trkpt>
      <trkpt lat="44.87835" lon="5.27345">
        <ele>1324.3</ele>
        <time>2024-07-02T11:07:09Z</time>
      </trkpt>
      <trkpt lat="44.87834" lon="5.27345">
        <ele>1324.2</ele>
        <time>2024-07-02T11:07:10Z</time>
      </trkpt>
      <trkpt lat="44.87833" lon="5.27344">
        <ele>1324.2</ele>
        <time>2024-07-02T11:07:11Z</time>
      </trkpt>
      <trkpt lat="44.87832" lon="5.27343">
        <ele>1324.2</ele>
        <time>2024-07-02T11:07:12Z</time>
      </trkpt>
      <trkpt lat="44.87831" lon="5.27343">
        <ele>1324.1</ele>
        <time>2024-07-02T11:07:13Z</time>
      </trkpt>
      <trkpt lat="44.8783" lon="5.27342">
        <ele>1324.1</ele>
        <time>2024-07-02T11:07:14Z</time>
      </trkpt>
      <trkpt lat="44.87828" lon="5.27341">
        <ele>1324</ele>
        <time>2024-07-02T11:07:15Z</time>
      </trkpt>
      <trkpt lat="44.87827" lon="5.27341">
        <ele>1324</ele>
        <time>2024-07-02T11:07:16Z</time>
      </trkpt>
      <trkpt lat="44.87827" lon="5.27341">
        <ele>1324</ele>
        <time>2024-07-02T11:07:17Z</time>
      </trkpt>
      <trkpt lat="44.87825" lon="5.2734">
        <ele>1323.9</ele>
        <time>2024-07-02T11:07:18Z</time>
      </trkpt>
      <trkpt lat="44.87824" lon="5.2734">
        <ele>1323.9</ele>
        <time>2024-07-02T11:07:19Z</time>
      </trkpt>
      <trkpt lat="44.87823" lon="5.2734">
        <ele>1323.8</ele>
        <time>2024-07-02T11:07:20Z</time>
      </trkpt>
      <trkpt lat="44.87822" lon="5.2734">
        <ele>1323.8</ele>
        <time>2024-07-02T11:07:21Z</time>
      </trkpt>
      <trkpt lat="44.87821" lon="5.27339">
        <ele>1323.8</ele>
        <time>2024-07-02T11:07:22Z</time>
      </trkpt>
      <trkpt lat="44.8782" lon="5.27338">
        <ele>1323.7</ele>
        <time>2024-07-02T11:07:23Z</time>
      </trkpt>
      <trkpt lat="44.87818" lon="5.27338">
        <ele>1323.7</ele>
        <time>2024-07-02T11:07:24Z</time>
      </trkpt>
      <trkpt lat="44.87817" lon="5.27337">
        <ele>1323.6</ele>
        <time>2024-07-02T11:07:25Z</time>
      </trkpt>
      <trkpt lat="44.87816" lon="5.27337">
        <ele>1323.6</ele>
        <time>2024-07-02T11:07:26Z</time>
      </trkpt>
      <trkpt lat="44.87815" lon="5.27337">
        <ele>1323.6</ele>
        <time>2024-07-02T11:07:27Z</time>
      </trkpt>
      <trkpt lat="44.87814" lon="5.27336">
        <ele>1323.6</ele>
        <time>2024-07-02T11:07:28Z</time>
      </trkpt>
      <trkpt lat="44.87813" lon="5.27336">
        <ele>1323.5</ele>
        <time>2024-07-02T11:07:29Z</time>
      </trkpt>
      <trkpt lat="44.87812" lon="5.27335">
        <ele>1323.5</ele>
        <time>2024-07-02T11:07:30Z</time>
      </trkpt>
      <trkpt lat="44.87812" lon="5.27334">
        <ele>1323.5</ele>
        <time>2024-07-02T11:07:31Z</time>
      </trkpt>
      <trkpt lat="44.87811" lon="5.27333">
        <ele>1323.5</ele>
        <time>2024-07-02T11:07:32Z</time>
      </trkpt>
      <trkpt lat="44.8781" lon="5.27332">
        <ele>1323.5</ele>
        <time>2024-07-02T11:07:33Z</time>
      </trkpt>
      <trkpt lat="44.8781" lon="5.27331">
        <ele>1323.5</ele>
        <time>2024-07-02T11:07:34Z</time>
      </trkpt>
      <trkpt lat="44.87809" lon="5.2733">
        <ele>1323.5</ele>
        <time>2024-07-02T11:07:35Z</time>
      </trkpt>
      <trkpt lat="44.87807" lon="5.27328">
        <ele>1323.5</ele>
        <time>2024-07-02T11:07:36Z</time>
      </trkpt>
      <trkpt lat="44.87807" lon="5.27328">
        <ele>1323.5</ele>
        <time>2024-07-02T11:07:37Z</time>
      </trkpt>
      <trkpt lat="44.87806" lon="5.27327">
        <ele>1323.5</ele>
        <time>2024-07-02T11:07:38Z</time>
      </trkpt>
      <trkpt lat="44.87804" lon="5.27326">
        <ele>1323.5</ele>
        <time>2024-07-02T11:07:39Z</time>
      </trkpt>
      <trkpt lat="44.87803" lon="5.27326">
        <ele>1323.5</ele>
        <time>2024-07-02T11:07:40Z</time>
      </trkpt>
      <trkpt lat="44.87802" lon="5.27325">
        <ele>1323.5</ele>
        <time>2024-07-02T11:07:41Z</time>
      </trkpt>
      <trkpt lat="44.87802" lon="5.27324">
        <ele>1323.5</ele>
        <time>2024-07-02T11:07:42Z</time>
      </trkpt>
      <trkpt lat="44.87801" lon="5.27323">
        <ele>1323.5</ele>
        <time>2024-07-02T11:07:43Z</time>
      </trkpt>
      <trkpt lat="44.878" lon="5.27323">
        <ele>1323.5</ele>
        <time>2024-07-02T11:07:44Z</time>
      </trkpt>
      <trkpt lat="44.87798" lon="5.27322">
        <ele>1323.5</ele>
        <time>2024-07-02T11:07:45Z</time>
      </trkpt>
      <trkpt lat="44.87798" lon="5.27321">
        <ele>1323.5</ele>
        <time>2024-07-02T11:07:46Z</time>
      </trkpt>
      <trkpt lat="44.87797" lon="5.27321">
        <ele>1323.5</ele>
        <time>2024-07-02T11:07:47Z</time>
      </trkpt>
      <trkpt lat="44.87796" lon="5.27322">
        <ele>1323.6</ele>
        <time>2024-07-02T11:07:48Z</time>
      </trkpt>
      <trkpt lat="44.87796" lon="5.27321">
        <ele>1323.6</ele>
        <time>2024-07-02T11:07:49Z</time>
      </trkpt>
      <trkpt lat="44.87795" lon="5.2732">
        <ele>1323.6</ele>
        <time>2024-07-02T11:07:50Z</time>
      </trkpt>
      <trkpt lat="44.87794" lon="5.27319">
        <ele>1323.6</ele>
        <time>2024-07-02T11:07:51Z</time>
      </trkpt>
      <trkpt lat="44.87794" lon="5.27317">
        <ele>1323.6</ele>
        <time>2024-07-02T11:07:52Z</time>
      </trkpt>
      <trkpt lat="44.87793" lon="5.27316">
        <ele>1323.6</ele>
        <time>2024-07-02T11:07:53Z</time>
      </trkpt>
      <trkpt lat="44.87792" lon="5.27314">
        <ele>1323.6</ele>
        <time>2024-07-02T11:07:54Z</time>
      </trkpt>
      <trkpt lat="44.87791" lon="5.27314">
        <ele>1323.6</ele>
        <time>2024-07-02T11:07:55Z</time>
      </trkpt>
      <trkpt lat="44.8779" lon="5.27313">
        <ele>1323.6</ele>
        <time>2024-07-02T11:07:56Z</time>
      </trkpt>
      <trkpt lat="44.87789" lon="5.27312">
        <ele>1323.6</ele>
        <time>2024-07-02T11:07:57Z</time>
      </trkpt>
      <trkpt lat="44.87788" lon="5.27311">
        <ele>1323.6</ele>
        <time>2024-07-02T11:07:58Z</time>
      </trkpt>
      <trkpt lat="44.87787" lon="5.2731">
        <ele>1323.6</ele>
        <time>2024-07-02T11:07:59Z</time>
      </trkpt>
      <trkpt lat="44.87786" lon="5.2731">
        <ele>1323.6</ele>
        <time>2024-07-02T11:08:00Z</time>
      </trkpt>
      <trkpt lat="44.87785" lon="5.27309">
        <ele>1323.6</ele>
        <time>2024-07-02T11:08:01Z</time>
      </trkpt>
      <trkpt lat="44.87784" lon="5.27308">
        <ele>1323.6</ele>
        <time>2024-07-02T11:08:02Z</time>
      </trkpt>
      <trkpt lat="44.87783" lon="5.27307">
        <ele>1323.6</ele>
        <time>2024-07-02T11:08:03Z</time>
      </trkpt>
      <trkpt lat="44.87783" lon="5.27307">
        <ele>1323.6</ele>
        <time>2024-07-02T11:08:04Z</time>
      </trkpt>
      <trkpt lat="44.87783" lon="5.27307">
        <ele>1323.6</ele>
        <time>2024-07-02T11:08:05Z</time>
      </trkpt>
      <trkpt lat="44.87782" lon="5.27307">
        <ele>1323.6</ele>
        <time>2024-07-02T11:08:06Z</time>
      </trkpt>
      <trkpt lat="44.87782" lon="5.27307">
        <ele>1323.6</ele>
        <time>2024-07-02T11:08:07Z</time>
      </trkpt>
      <trkpt lat="44.87782" lon="5.27307">
        <ele>1323.6</ele>
        <time>2024-07-02T11:08:08Z</time>
      </trkpt>
      <trkpt lat="44.87782" lon="5.27307">
        <ele>1323.6</ele>
        <time>2024-07-02T11:08:09Z</time>
      </trkpt>
      <trkpt lat="44.87782" lon="5.27307">
        <ele>1323.6</ele>
        <time>2024-07-02T11:08:10Z</time>
      </trkpt>
      <trkpt lat="44.87782" lon="5.27307">
        <ele>1323.6</ele>
        <time>2024-07-02T11:08:11Z</time>
      </trkpt>
      <trkpt lat="44.87781" lon="5.27306">
        <ele>1323.6</ele>
        <time>2024-07-02T11:08:12Z</time>
      </trkpt>
      <trkpt lat="44.8778" lon="5.27305">
        <ele>1323.6</ele>
        <time>2024-07-02T11:08:13Z</time>
      </trkpt>
      <trkpt lat="44.87778" lon="5.27303">
        <ele>1323.6</ele>
        <time>2024-07-02T11:08:14Z</time>
      </trkpt>
      <trkpt lat="44.87777" lon="5.27302">
        <ele>1323.6</ele>
        <time>2024-07-02T11:08:15Z</time>
      </trkpt>
      <trkpt lat="44.87776" lon="5.273">
        <ele>1323.5</ele>
        <time>2024-07-02T11:08:16Z</time>
      </trkpt>
      <trkpt lat="44.87774" lon="5.27299">
        <ele>1323.5</ele>
        <time>2024-07-02T11:08:17Z</time>
      </trkpt>
      <trkpt lat="44.87773" lon="5.27298">
        <ele>1323.5</ele>
        <time>2024-07-02T11:08:18Z</time>
      </trkpt>
      <trkpt lat="44.8777" lon="5.27298">
        <ele>1323.5</ele>
        <time>2024-07-02T11:08:19Z</time>
      </trkpt>
      <trkpt lat="44.87767" lon="5.27298">
        <ele>1323.4</ele>
        <time>2024-07-02T11:08:20Z</time>
      </trkpt>
      <trkpt lat="44.87766" lon="5.27298">
        <ele>1323.4</ele>
        <time>2024-07-02T11:08:21Z</time>
      </trkpt>
      <trkpt lat="44.87764" lon="5.27298">
        <ele>1323.4</ele>
        <time>2024-07-02T11:08:22Z</time>
      </trkpt>
      <trkpt lat="44.87763" lon="5.27297">
        <ele>1323.4</ele>
        <time>2024-07-02T11:08:23Z</time>
      </trkpt>
      <trkpt lat="44.87761" lon="5.27297">
        <ele>1323.3</ele>
        <time>2024-07-02T11:08:24Z</time>
      </trkpt>
      <trkpt lat="44.8776" lon="5.27296">
        <ele>1323.3</ele>
        <time>2024-07-02T11:08:25Z</time>
      </trkpt>
      <trkpt lat="44.87759" lon="5.27296">
        <ele>1323.3</ele>
        <time>2024-07-02T11:08:26Z</time>
      </trkpt>
      <trkpt lat="44.87758" lon="5.27297">
        <ele>1323.3</ele>
        <time>2024-07-02T11:08:27Z</time>
      </trkpt>
      <trkpt lat="44.87757" lon="5.27296">
        <ele>1323.3</ele>
        <time>2024-07-02T11:08:28Z</time>
      </trkpt>
      <trkpt lat="44.87757" lon="5.27296">
        <ele>1323.3</ele>
        <time>2024-07-02T11:08:29Z</time>
      </trkpt>
      <trkpt lat="44.87756" lon="5.27296">
        <ele>1323.3</ele>
        <time>2024-07-02T11:08:30Z</time>
      </trkpt>
      <trkpt lat="44.87754" lon="5.27294">
        <ele>1323.3</ele>
        <time>2024-07-02T11:08:31Z</time>
      </trkpt>
      <trkpt lat="44.87753" lon="5.27294">
        <ele>1323.3</ele>
        <time>2024-07-02T11:08:32Z</time>
      </trkpt>
      <trkpt lat="44.87752" lon="5.27294">
        <ele>1323.3</ele>
        <time>2024-07-02T11:08:33Z</time>
      </trkpt>
      <trkpt lat="44.8775" lon="5.27293">
        <ele>1323.3</ele>
        <time>2024-07-02T11:08:34Z</time>
      </trkpt>
      <trkpt lat="44.8775" lon="5.27292">
        <ele>1323.3</ele>
        <time>2024-07-02T11:08:35Z</time>
      </trkpt>
      <trkpt lat="44.87749" lon="5.27291">
        <ele>1323.3</ele>
        <time>2024-07-02T11:08:36Z</time>
      </trkpt>
      <trkpt lat="44.87748" lon="5.27291">
        <ele>1323.3</ele>
        <time>2024-07-02T11:08:37Z</time>
      </trkpt>
      <trkpt lat="44.87748" lon="5.2729">
        <ele>1323.3</ele>
        <time>2024-07-02T11:08:38Z</time>
      </trkpt>
      <trkpt lat="44.87747" lon="5.27289">
        <ele>1323.3</ele>
        <time>2024-07-02T11:08:39Z</time>
      </trkpt>
      <trkpt lat="44.87746" lon="5.27288">
        <ele>1323.3</ele>
        <time>2024-07-02T11:08:40Z</time>
      </trkpt>
      <trkpt lat="44.87745" lon="5.27287">
        <ele>1323.3</ele>
        <time>2024-07-02T11:08:41Z</time>
      </trkpt>
      <trkpt lat="44.87744" lon="5.27286">
        <ele>1323.3</ele>
        <time>2024-07-02T11:08:42Z</time>
      </trkpt>
      <trkpt lat="44.87743" lon="5.27286">
        <ele>1323.3</ele>
        <time>2024-07-02T11:08:43Z</time>
      </trkpt>
      <trkpt lat="44.87741" lon="5.27285">
        <ele>1323.3</ele>
        <time>2024-07-02T11:08:44Z</time>
      </trkpt>
      <trkpt lat="44.8774" lon="5.27285">
        <ele>1323.3</ele>
        <time>2024-07-02T11:08:45Z</time>
      </trkpt>
      <trkpt lat="44.87739" lon="5.27283">
        <ele>1323.3</ele>
        <time>2024-07-02T11:08:46Z</time>
      </trkpt>
      <trkpt lat="44.87738" lon="5.27282">
        <ele>1323.4</ele>
        <time>2024-07-02T11:08:47Z</time>
      </trkpt>
      <trkpt lat="44.87738" lon="5.27282">
        <ele>1323.4</ele>
        <time>2024-07-02T11:08:48Z</time>
      </trkpt>
      <trkpt lat="44.87736" lon="5.2728">
        <ele>1323.4</ele>
        <time>2024-07-02T11:08:49Z</time>
      </trkpt>
      <trkpt lat="44.87735" lon="5.27279">
        <ele>1323.4</ele>
        <time>2024-07-02T11:08:50Z</time>
      </trkpt>
      <trkpt lat="44.87735" lon="5.27278">
        <ele>1323.4</ele>
        <time>2024-07-02T11:08:51Z</time>
      </trkpt>
      <trkpt lat="44.87733" lon="5.27277">
        <ele>1323.4</ele>
        <time>2024-07-02T11:08:52Z</time>
      </trkpt>
      <trkpt lat="44.87732" lon="5.27276">
        <ele>1323.4</ele>
        <time>2024-07-02T11:08:53Z</time>
      </trkpt>
      <trkpt lat="44.87732" lon="5.27275">
        <ele>1323.4</ele>
        <time>2024-07-02T11:08:54Z</time>
      </trkpt>
      <trkpt lat="44.87731" lon="5.27275">
        <ele>1323.5</ele>
        <time>2024-07-02T11:08:55Z</time>
      </trkpt>
      <trkpt lat="44.8773" lon="5.27274">
        <ele>1323.5</ele>
        <time>2024-07-02T11:08:56Z</time>
      </trkpt>
      <trkpt lat="44.87729" lon="5.27273">
        <ele>1323.5</ele>
        <time>2024-07-02T11:08:57Z</time>
      </trkpt>
      <trkpt lat="44.87727" lon="5.27272">
        <ele>1323.6</ele>
        <time>2024-07-02T11:08:58Z</time>
      </trkpt>
      <trkpt lat="44.87726" lon="5.27272">
        <ele>1323.6</ele>
        <time>2024-07-02T11:08:59Z</time>
      </trkpt>
      <trkpt lat="44.87725" lon="5.27271">
        <ele>1323.7</ele>
        <time>2024-07-02T11:09:00Z</time>
      </trkpt>
      <trkpt lat="44.87723" lon="5.2727">
        <ele>1323.7</ele>
        <time>2024-07-02T11:09:01Z</time>
      </trkpt>
      <trkpt lat="44.87723" lon="5.27269">
        <ele>1323.8</ele>
        <time>2024-07-02T11:09:02Z</time>
      </trkpt>
      <trkpt lat="44.87722" lon="5.27269">
        <ele>1323.8</ele>
        <time>2024-07-02T11:09:03Z</time>
      </trkpt>
      <trkpt lat="44.8772" lon="5.27267">
        <ele>1323.9</ele>
        <time>2024-07-02T11:09:04Z</time>
      </trkpt>
      <trkpt lat="44.87719" lon="5.27267">
        <ele>1323.9</ele>
        <time>2024-07-02T11:09:05Z</time>
      </trkpt>
      <trkpt lat="44.87719" lon="5.27266">
        <ele>1324</ele>
        <time>2024-07-02T11:09:06Z</time>
      </trkpt>
      <trkpt lat="44.87717" lon="5.27264">
        <ele>1324.1</ele>
        <time>2024-07-02T11:09:07Z</time>
      </trkpt>
      <trkpt lat="44.87716" lon="5.27264">
        <ele>1324.1</ele>
        <time>2024-07-02T11:09:08Z</time>
      </trkpt>
      <trkpt lat="44.87715" lon="5.27263">
        <ele>1324.1</ele>
        <time>2024-07-02T11:09:09Z</time>
      </trkpt>
      <trkpt lat="44.87714" lon="5.27262">
        <ele>1324.2</ele>
        <time>2024-07-02T11:09:10Z</time>
      </trkpt>
      <trkpt lat="44.87713" lon="5.27261">
        <ele>1324.3</ele>
        <time>2024-07-02T11:09:11Z</time>
      </trkpt>
      <trkpt lat="44.87712" lon="5.2726">
        <ele>1324.3</ele>
        <time>2024-07-02T11:09:12Z</time>
      </trkpt>
      <trkpt lat="44.8771" lon="5.27259">
        <ele>1324.4</ele>
        <time>2024-07-02T11:09:13Z</time>
      </trkpt>
      <trkpt lat="44.87709" lon="5.27259">
        <ele>1324.5</ele>
        <time>2024-07-02T11:09:14Z</time>
      </trkpt>
      <trkpt lat="44.87708" lon="5.27258">
        <ele>1324.6</ele>
        <time>2024-07-02T11:09:15Z</time>
      </trkpt>
      <trkpt lat="44.87707" lon="5.27257">
        <ele>1324.7</ele>
        <time>2024-07-02T11:09:16Z</time>
      </trkpt>
      <trkpt lat="44.87705" lon="5.27256">
        <ele>1324.8</ele>
        <time>2024-07-02T11:09:17Z</time>
      </trkpt>
      <trkpt lat="44.87704" lon="5.27255">
        <ele>1324.8</ele>
        <time>2024-07-02T11:09:18Z</time>
      </trkpt>
      <trkpt lat="44.87703" lon="5.27254">
        <ele>1324.9</ele>
        <time>2024-07-02T11:09:19Z</time>
      </trkpt>
      <trkpt lat="44.87701" lon="5.27253">
        <ele>1325.1</ele>
        <time>2024-07-02T11:09:20Z</time>
      </trkpt>
      <trkpt lat="44.877" lon="5.27252">
        <ele>1325.2</ele>
        <time>2024-07-02T11:09:21Z</time>
      </trkpt>
      <trkpt lat="44.87699" lon="5.27252">
        <ele>1325.2</ele>
        <time>2024-07-02T11:09:22Z</time>
      </trkpt>
      <trkpt lat="44.87697" lon="5.27251">
        <ele>1325.4</ele>
        <time>2024-07-02T11:09:23Z</time>
      </trkpt>
      <trkpt lat="44.87697" lon="5.2725">
        <ele>1325.4</ele>
        <time>2024-07-02T11:09:24Z</time>
      </trkpt>
      <trkpt lat="44.87696" lon="5.2725">
        <ele>1325.5</ele>
        <time>2024-07-02T11:09:25Z</time>
      </trkpt>
      <trkpt lat="44.87695" lon="5.27249">
        <ele>1325.6</ele>
        <time>2024-07-02T11:09:26Z</time>
      </trkpt>
      <trkpt lat="44.87694" lon="5.27248">
        <ele>1325.7</ele>
        <time>2024-07-02T11:09:27Z</time>
      </trkpt>
      <trkpt lat="44.87693" lon="5.27247">
        <ele>1325.7</ele>
        <time>2024-07-02T11:09:28Z</time>
      </trkpt>
      <trkpt lat="44.87692" lon="5.27246">
        <ele>1325.8</ele>
        <time>2024-07-02T11:09:29Z</time>
      </trkpt>
      <trkpt lat="44.87691" lon="5.27246">
        <ele>1325.9</ele>
        <time>2024-07-02T11:09:30Z</time>
      </trkpt>
      <trkpt lat="44.8769" lon="5.27245">
        <ele>1326</ele>
        <time>2024-07-02T11:09:31Z</time>
      </trkpt>
      <trkpt lat="44.87689" lon="5.27244">
        <ele>1326.1</ele>
        <time>2024-07-02T11:09:32Z</time>
      </trkpt>
      <trkpt lat="44.87688" lon="5.27243">
        <ele>1326.2</ele>
        <time>2024-07-02T11:09:33Z</time>
      </trkpt>
      <trkpt lat="44.87687" lon="5.27242">
        <ele>1326.3</ele>
        <time>2024-07-02T11:09:34Z</time>
      </trkpt>
      <trkpt lat="44.87686" lon="5.27242">
        <ele>1326.4</ele>
        <time>2024-07-02T11:09:35Z</time>
      </trkpt>
      <trkpt lat="44.87685" lon="5.27241">
        <ele>1326.4</ele>
        <time>2024-07-02T11:09:36Z</time>
      </trkpt>
      <trkpt lat="44.87684" lon="5.2724">
        <ele>1326.5</ele>
        <time>2024-07-02T11:09:37Z</time>
      </trkpt>
      <trkpt lat="44.87683" lon="5.27239">
        <ele>1326.6</ele>
        <time>2024-07-02T11:09:38Z</time>
      </trkpt>
      <trkpt lat="44.87682" lon="5.27239">
        <ele>1326.7</ele>
        <time>2024-07-02T11:09:39Z</time>
      </trkpt>
      <trkpt lat="44.87681" lon="5.27238">
        <ele>1326.8</ele>
        <time>2024-07-02T11:09:40Z</time>
      </trkpt>
      <trkpt lat="44.87679" lon="5.27238">
        <ele>1326.9</ele>
        <time>2024-07-02T11:09:41Z</time>
      </trkpt>
      <trkpt lat="44.87678" lon="5.27239">
        <ele>1327</ele>
        <time>2024-07-02T11:09:42Z</time>
      </trkpt>
      <trkpt lat="44.87677" lon="5.27239">
        <ele>1327</ele>
        <time>2024-07-02T11:09:43Z</time>
      </trkpt>
      <trkpt lat="44.87676" lon="5.27236">
        <ele>1327.2</ele>
        <time>2024-07-02T11:09:44Z</time>
      </trkpt>
      <trkpt lat="44.87676" lon="5.27235">
        <ele>1327.2</ele>
        <time>2024-07-02T11:09:45Z</time>
      </trkpt>
      <trkpt lat="44.87676" lon="5.27234">
        <ele>1327.3</ele>
        <time>2024-07-02T11:09:46Z</time>
      </trkpt>
      <trkpt lat="44.87675" lon="5.27233">
        <ele>1327.3</ele>
        <time>2024-07-02T11:09:47Z</time>
      </trkpt>
      <trkpt lat="44.87674" lon="5.27231">
        <ele>1327.4</ele>
        <time>2024-07-02T11:09:48Z</time>
      </trkpt>
      <trkpt lat="44.87673" lon="5.2723">
        <ele>1327.5</ele>
        <time>2024-07-02T11:09:49Z</time>
      </trkpt>
      <trkpt lat="44.87672" lon="5.27229">
        <ele>1327.6</ele>
        <time>2024-07-02T11:09:50Z</time>
      </trkpt>
      <trkpt lat="44.87671" lon="5.27228">
        <ele>1327.6</ele>
        <time>2024-07-02T11:09:51Z</time>
      </trkpt>
      <trkpt lat="44.8767" lon="5.27228">
        <ele>1327.7</ele>
        <time>2024-07-02T11:09:52Z</time>
      </trkpt>
      <trkpt lat="44.87669" lon="5.27227">
        <ele>1327.8</ele>
        <time>2024-07-02T11:09:53Z</time>
      </trkpt>
      <trkpt lat="44.87668" lon="5.27227">
        <ele>1327.8</ele>
        <time>2024-07-02T11:09:54Z</time>
      </trkpt>
      <trkpt lat="44.87667" lon="5.27226">
        <ele>1327.9</ele>
        <time>2024-07-02T11:09:55Z</time>
      </trkpt>
      <trkpt lat="44.87666" lon="5.27225">
        <ele>1327.9</ele>
        <time>2024-07-02T11:09:56Z</time>
      </trkpt>
      <trkpt lat="44.87665" lon="5.27224">
        <ele>1328</ele>
        <time>2024-07-02T11:09:57Z</time>
      </trkpt>
      <trkpt lat="44.87664" lon="5.27224">
        <ele>1328.1</ele>
        <time>2024-07-02T11:09:58Z</time>
      </trkpt>
      <trkpt lat="44.87663" lon="5.27223">
        <ele>1328.1</ele>
        <time>2024-07-02T11:09:59Z</time>
      </trkpt>
      <trkpt lat="44.87662" lon="5.27223">
        <ele>1328.2</ele>
        <time>2024-07-02T11:10:00Z</time>
      </trkpt>
      <trkpt lat="44.8766" lon="5.27222">
        <ele>1328.2</ele>
        <time>2024-07-02T11:10:01Z</time>
      </trkpt>
      <trkpt lat="44.87659" lon="5.27221">
        <ele>1328.3</ele>
        <time>2024-07-02T11:10:02Z</time>
      </trkpt>
      <trkpt lat="44.87658" lon="5.2722">
        <ele>1328.4</ele>
        <time>2024-07-02T11:10:03Z</time>
      </trkpt>
      <trkpt lat="44.87657" lon="5.2722">
        <ele>1328.4</ele>
        <time>2024-07-02T11:10:04Z</time>
      </trkpt>
      <trkpt lat="44.87655" lon="5.27218">
        <ele>1328.5</ele>
        <time>2024-07-02T11:10:05Z</time>
      </trkpt>
      <trkpt lat="44.87655" lon="5.27218">
        <ele>1328.6</ele>
        <time>2024-07-02T11:10:06Z</time>
      </trkpt>
      <trkpt lat="44.87654" lon="5.27217">
        <ele>1328.6</ele>
        <time>2024-07-02T11:10:07Z</time>
      </trkpt>
      <trkpt lat="44.87652" lon="5.27215">
        <ele>1328.7</ele>
        <time>2024-07-02T11:10:08Z</time>
      </trkpt>
      <trkpt lat="44.87651" lon="5.27215">
        <ele>1328.7</ele>
        <time>2024-07-02T11:10:09Z</time>
      </trkpt>
      <trkpt lat="44.87651" lon="5.27214">
        <ele>1328.8</ele>
        <time>2024-07-02T11:10:10Z</time>
      </trkpt>
      <trkpt lat="44.87649" lon="5.27213">
        <ele>1328.9</ele>
        <time>2024-07-02T11:10:11Z</time>
      </trkpt>
      <trkpt lat="44.87648" lon="5.27212">
        <ele>1328.9</ele>
        <time>2024-07-02T11:10:12Z</time>
      </trkpt>
      <trkpt lat="44.87647" lon="5.27212">
        <ele>1329</ele>
        <time>2024-07-02T11:10:13Z</time>
      </trkpt>
      <trkpt lat="44.87646" lon="5.2721">
        <ele>1329</ele>
        <time>2024-07-02T11:10:14Z</time>
      </trkpt>
      <trkpt lat="44.87645" lon="5.27209">
        <ele>1329.1</ele>
        <time>2024-07-02T11:10:15Z</time>
      </trkpt>
      <trkpt lat="44.87645" lon="5.27208">
        <ele>1329.1</ele>
        <time>2024-07-02T11:10:16Z</time>
      </trkpt>
      <trkpt lat="44.87644" lon="5.27207">
        <ele>1329.1</ele>
        <time>2024-07-02T11:10:17Z</time>
      </trkpt>
      <trkpt lat="44.87643" lon="5.27206">
        <ele>1329.2</ele>
        <time>2024-07-02T11:10:18Z</time>
      </trkpt>
      <trkpt lat="44.87642" lon="5.27206">
        <ele>1329.2</ele>
        <time>2024-07-02T11:10:19Z</time>
      </trkpt>
      <trkpt lat="44.87641" lon="5.27205">
        <ele>1329.3</ele>
        <time>2024-07-02T11:10:20Z</time>
      </trkpt>
      <trkpt lat="44.8764" lon="5.27204">
        <ele>1329.3</ele>
        <time>2024-07-02T11:10:21Z</time>
      </trkpt>
      <trkpt lat="44.87639" lon="5.27204">
        <ele>1329.3</ele>
        <time>2024-07-02T11:10:22Z</time>
      </trkpt>
      <trkpt lat="44.87637" lon="5.27202">
        <ele>1329.4</ele>
        <time>2024-07-02T11:10:23Z</time>
      </trkpt>
      <trkpt lat="44.87637" lon="5.27201">
        <ele>1329.4</ele>
        <time>2024-07-02T11:10:24Z</time>
      </trkpt>
      <trkpt lat="44.87636" lon="5.27201">
        <ele>1329.4</ele>
        <time>2024-07-02T11:10:25Z</time>
      </trkpt>
      <trkpt lat="44.87635" lon="5.272">
        <ele>1329.4</ele>
        <time>2024-07-02T11:10:26Z</time>
      </trkpt>
      <trkpt lat="44.87634" lon="5.27199">
        <ele>1329.4</ele>
        <time>2024-07-02T11:10:27Z</time>
      </trkpt>
      <trkpt lat="44.87633" lon="5.27198">
        <ele>1329.4</ele>
        <time>2024-07-02T11:10:28Z</time>
      </trkpt>
      <trkpt lat="44.87632" lon="5.27197">
        <ele>1329.4</ele>
        <time>2024-07-02T11:10:29Z</time>
      </trkpt>
      <trkpt lat="44.87631" lon="5.27197">
        <ele>1329.4</ele>
        <time>2024-07-02T11:10:30Z</time>
      </trkpt>
      <trkpt lat="44.8763" lon="5.27196">
        <ele>1329.4</ele>
        <time>2024-07-02T11:10:31Z</time>
      </trkpt>
      <trkpt lat="44.87629" lon="5.27195">
        <ele>1329.4</ele>
        <time>2024-07-02T11:10:32Z</time>
      </trkpt>
      <trkpt lat="44.87628" lon="5.27195">
        <ele>1329.4</ele>
        <time>2024-07-02T11:10:33Z</time>
      </trkpt>
      <trkpt lat="44.87627" lon="5.27194">
        <ele>1329.4</ele>
        <time>2024-07-02T11:10:34Z</time>
      </trkpt>
      <trkpt lat="44.87626" lon="5.27194">
        <ele>1329.4</ele>
        <time>2024-07-02T11:10:35Z</time>
      </trkpt>
      <trkpt lat="44.87625" lon="5.27193">
        <ele>1329.3</ele>
        <time>2024-07-02T11:10:36Z</time>
      </trkpt>
      <trkpt lat="44.87625" lon="5.27192">
        <ele>1329.3</ele>
        <time>2024-07-02T11:10:37Z</time>
      </trkpt>
      <trkpt lat="44.87624" lon="5.27191">
        <ele>1329.3</ele>
        <time>2024-07-02T11:10:38Z</time>
      </trkpt>
      <trkpt lat="44.87623" lon="5.27191">
        <ele>1329.3</ele>
        <time>2024-07-02T11:10:39Z</time>
      </trkpt>
      <trkpt lat="44.87622" lon="5.2719">
        <ele>1329.2</ele>
        <time>2024-07-02T11:10:40Z</time>
      </trkpt>
      <trkpt lat="44.8762" lon="5.27188">
        <ele>1329.2</ele>
        <time>2024-07-02T11:10:41Z</time>
      </trkpt>
      <trkpt lat="44.87619" lon="5.27188">
        <ele>1329.1</ele>
        <time>2024-07-02T11:10:42Z</time>
      </trkpt>
      <trkpt lat="44.87619" lon="5.27187">
        <ele>1329.1</ele>
        <time>2024-07-02T11:10:43Z</time>
      </trkpt>
      <trkpt lat="44.87617" lon="5.27186">
        <ele>1329</ele>
        <time>2024-07-02T11:10:44Z</time>
      </trkpt>
      <trkpt lat="44.87616" lon="5.27185">
        <ele>1329</ele>
        <time>2024-07-02T11:10:45Z</time>
      </trkpt>
      <trkpt lat="44.87615" lon="5.27185">
        <ele>1328.9</ele>
        <time>2024-07-02T11:10:46Z</time>
      </trkpt>
      <trkpt lat="44.87613" lon="5.27183">
        <ele>1328.9</ele>
        <time>2024-07-02T11:10:47Z</time>
      </trkpt>
      <trkpt lat="44.87612" lon="5.27183">
        <ele>1328.8</ele>
        <time>2024-07-02T11:10:48Z</time>
      </trkpt>
      <trkpt lat="44.87612" lon="5.27183">
        <ele>1328.8</ele>
        <time>2024-07-02T11:10:49Z</time>
      </trkpt>
      <trkpt lat="44.8761" lon="5.27182">
        <ele>1328.7</ele>
        <time>2024-07-02T11:10:50Z</time>
      </trkpt>
      <trkpt lat="44.87609" lon="5.27182">
        <ele>1328.7</ele>
        <time>2024-07-02T11:10:51Z</time>
      </trkpt>
      <trkpt lat="44.87608" lon="5.27181">
        <ele>1328.7</ele>
        <time>2024-07-02T11:10:52Z</time>
      </trkpt>
      <trkpt lat="44.87606" lon="5.2718">
        <ele>1328.6</ele>
        <time>2024-07-02T11:10:53Z</time>
      </trkpt>
      <trkpt lat="44.87605" lon="5.2718">
        <ele>1328.5</ele>
        <time>2024-07-02T11:10:54Z</time>
      </trkpt>
      <trkpt lat="44.87605" lon="5.27179">
        <ele>1328.5</ele>
        <time>2024-07-02T11:10:55Z</time>
      </trkpt>
      <trkpt lat="44.87603" lon="5.27178">
        <ele>1328.4</ele>
        <time>2024-07-02T11:10:56Z</time>
      </trkpt>
      <trkpt lat="44.87602" lon="5.27178">
        <ele>1328.4</ele>
        <time>2024-07-02T11:10:57Z</time>
      </trkpt>
      <trkpt lat="44.87601" lon="5.27177">
        <ele>1328.4</ele>
        <time>2024-07-02T11:10:58Z</time>
      </trkpt>
      <trkpt lat="44.876" lon="5.27176">
        <ele>1328.3</ele>
        <time>2024-07-02T11:10:59Z</time>
      </trkpt>
      <trkpt lat="44.87599" lon="5.27176">
        <ele>1328.3</ele>
        <time>2024-07-02T11:11:00Z</time>
      </trkpt>
      <trkpt lat="44.87598" lon="5.27175">
        <ele>1328.2</ele>
        <time>2024-07-02T11:11:01Z</time>
      </trkpt>
      <trkpt lat="44.87597" lon="5.27175">
        <ele>1328.2</ele>
        <time>2024-07-02T11:11:02Z</time>
      </trkpt>
      <trkpt lat="44.87596" lon="5.27175">
        <ele>1328.2</ele>
        <time>2024-07-02T11:11:03Z</time>
      </trkpt>
      <trkpt lat="44.87595" lon="5.27174">
        <ele>1328.1</ele>
        <time>2024-07-02T11:11:04Z</time>
      </trkpt>
      <trkpt lat="44.87594" lon="5.27174">
        <ele>1328.1</ele>
        <time>2024-07-02T11:11:05Z</time>
      </trkpt>
      <trkpt lat="44.87592" lon="5.27174">
        <ele>1328.1</ele>
        <time>2024-07-02T11:11:06Z</time>
      </trkpt>
      <trkpt lat="44.8759" lon="5.27173">
        <ele>1328</ele>
        <time>2024-07-02T11:11:07Z</time>
      </trkpt>
      <trkpt lat="44.8759" lon="5.27172">
        <ele>1328</ele>
        <time>2024-07-02T11:11:08Z</time>
      </trkpt>
      <trkpt lat="44.87589" lon="5.27172">
        <ele>1328</ele>
        <time>2024-07-02T11:11:09Z</time>
      </trkpt>
      <trkpt lat="44.87588" lon="5.27171">
        <ele>1327.9</ele>
        <time>2024-07-02T11:11:10Z</time>
      </trkpt>
      <trkpt lat="44.87587" lon="5.27171">
        <ele>1327.9</ele>
        <time>2024-07-02T11:11:11Z</time>
      </trkpt>
      <trkpt lat="44.87586" lon="5.2717">
        <ele>1327.9</ele>
        <time>2024-07-02T11:11:12Z</time>
      </trkpt>
      <trkpt lat="44.87585" lon="5.2717">
        <ele>1327.8</ele>
        <time>2024-07-02T11:11:13Z</time>
      </trkpt>
      <trkpt lat="44.87584" lon="5.27169">
        <ele>1327.8</ele>
        <time>2024-07-02T11:11:14Z</time>
      </trkpt>
      <trkpt lat="44.87583" lon="5.27168">
        <ele>1327.8</ele>
        <time>2024-07-02T11:11:15Z</time>
      </trkpt>
      <trkpt lat="44.87582" lon="5.27167">
        <ele>1327.8</ele>
        <time>2024-07-02T11:11:16Z</time>
      </trkpt>
      <trkpt lat="44.87581" lon="5.27166">
        <ele>1327.7</ele>
        <time>2024-07-02T11:11:17Z</time>
      </trkpt>
      <trkpt lat="44.8758" lon="5.27166">
        <ele>1327.7</ele>
        <time>2024-07-02T11:11:18Z</time>
      </trkpt>
      <trkpt lat="44.87579" lon="5.27165">
        <ele>1327.7</ele>
        <time>2024-07-02T11:11:19Z</time>
      </trkpt>
      <trkpt lat="44.87578" lon="5.27164">
        <ele>1327.7</ele>
        <time>2024-07-02T11:11:20Z</time>
      </trkpt>
      <trkpt lat="44.87577" lon="5.27164">
        <ele>1327.6</ele>
        <time>2024-07-02T11:11:21Z</time>
      </trkpt>
      <trkpt lat="44.87575" lon="5.27163">
        <ele>1327.6</ele>
        <time>2024-07-02T11:11:22Z</time>
      </trkpt>
      <trkpt lat="44.87575" lon="5.27162">
        <ele>1327.6</ele>
        <time>2024-07-02T11:11:23Z</time>
      </trkpt>
      <trkpt lat="44.87574" lon="5.27161">
        <ele>1327.6</ele>
        <time>2024-07-02T11:11:24Z</time>
      </trkpt>
      <trkpt lat="44.87573" lon="5.2716">
        <ele>1327.6</ele>
        <time>2024-07-02T11:11:25Z</time>
      </trkpt>
      <trkpt lat="44.87572" lon="5.2716">
        <ele>1327.5</ele>
        <time>2024-07-02T11:11:26Z</time>
      </trkpt>
      <trkpt lat="44.87571" lon="5.27159">
        <ele>1327.5</ele>
        <time>2024-07-02T11:11:27Z</time>
      </trkpt>
      <trkpt lat="44.87569" lon="5.27158">
        <ele>1327.5</ele>
        <time>2024-07-02T11:11:28Z</time>
      </trkpt>
      <trkpt lat="44.87568" lon="5.27157">
        <ele>1327.5</ele>
        <time>2024-07-02T11:11:29Z</time>
      </trkpt>
      <trkpt lat="44.87567" lon="5.27157">
        <ele>1327.5</ele>
        <time>2024-07-02T11:11:30Z</time>
      </trkpt>
      <trkpt lat="44.87566" lon="5.27156">
        <ele>1327.5</ele>
        <time>2024-07-02T11:11:31Z</time>
      </trkpt>
      <trkpt lat="44.87565" lon="5.27155">
        <ele>1327.4</ele>
        <time>2024-07-02T11:11:32Z</time>
      </trkpt>
      <trkpt lat="44.87564" lon="5.27154">
        <ele>1327.4</ele>
        <time>2024-07-02T11:11:33Z</time>
      </trkpt>
      <trkpt lat="44.87563" lon="5.27154">
        <ele>1327.4</ele>
        <time>2024-07-02T11:11:34Z</time>
      </trkpt>
      <trkpt lat="44.87562" lon="5.27153">
        <ele>1327.4</ele>
        <time>2024-07-02T11:11:35Z</time>
      </trkpt>
      <trkpt lat="44.87561" lon="5.27152">
        <ele>1327.4</ele>
        <time>2024-07-02T11:11:36Z</time>
      </trkpt>
      <trkpt lat="44.8756" lon="5.27152">
        <ele>1327.4</ele>
        <time>2024-07-02T11:11:37Z</time>
      </trkpt>
      <trkpt lat="44.87559" lon="5.27151">
        <ele>1327.4</ele>
        <time>2024-07-02T11:11:38Z</time>
      </trkpt>
      <trkpt lat="44.87558" lon="5.2715">
        <ele>1327.4</ele>
        <time>2024-07-02T11:11:39Z</time>
      </trkpt>
      <trkpt lat="44.87557" lon="5.2715">
        <ele>1327.4</ele>
        <time>2024-07-02T11:11:40Z</time>
      </trkpt>
      <trkpt lat="44.87556" lon="5.27149">
        <ele>1327.4</ele>
        <time>2024-07-02T11:11:41Z</time>
      </trkpt>
      <trkpt lat="44.87555" lon="5.27148">
        <ele>1327.4</ele>
        <time>2024-07-02T11:11:42Z</time>
      </trkpt>
      <trkpt lat="44.87553" lon="5.27147">
        <ele>1327.4</ele>
        <time>2024-07-02T11:11:43Z</time>
      </trkpt>
      <trkpt lat="44.87552" lon="5.27147">
        <ele>1327.4</ele>
        <time>2024-07-02T11:11:44Z</time>
      </trkpt>
      <trkpt lat="44.87551" lon="5.27146">
        <ele>1327.4</ele>
        <time>2024-07-02T11:11:45Z</time>
      </trkpt>
      <trkpt lat="44.8755" lon="5.27146">
        <ele>1327.3</ele>
        <time>2024-07-02T11:11:46Z</time>
      </trkpt>
      <trkpt lat="44.87548" lon="5.27144">
        <ele>1327.3</ele>
        <time>2024-07-02T11:11:48Z</time>
      </trkpt>
      <trkpt lat="44.87547" lon="5.27144">
        <ele>1327.3</ele>
        <time>2024-07-02T11:11:49Z</time>
      </trkpt>
      <trkpt lat="44.87546" lon="5.27143">
        <ele>1327.3</ele>
        <time>2024-07-02T11:11:50Z</time>
      </trkpt>
      <trkpt lat="44.87545" lon="5.27142">
        <ele>1327.3</ele>
        <time>2024-07-02T11:11:51Z</time>
      </trkpt>
      <trkpt lat="44.87544" lon="5.27142">
        <ele>1327.3</ele>
        <time>2024-07-02T11:11:52Z</time>
      </trkpt>
      <trkpt lat="44.87543" lon="5.27141">
        <ele>1327.3</ele>
        <time>2024-07-02T11:11:53Z</time>
      </trkpt>
      <trkpt lat="44.87542" lon="5.27141">
        <ele>1327.3</ele>
        <time>2024-07-02T11:11:54Z</time>
      </trkpt>
      <trkpt lat="44.87541" lon="5.2714">
        <ele>1327.3</ele>
        <time>2024-07-02T11:11:55Z</time>
      </trkpt>
      <trkpt lat="44.8754" lon="5.2714">
        <ele>1327.3</ele>
        <time>2024-07-02T11:11:56Z</time>
      </trkpt>
      <trkpt lat="44.87539" lon="5.27139">
        <ele>1327.3</ele>
        <time>2024-07-02T11:11:57Z</time>
      </trkpt>
      <trkpt lat="44.87538" lon="5.27138">
        <ele>1327.2</ele>
        <time>2024-07-02T11:11:58Z</time>
      </trkpt>
      <trkpt lat="44.87537" lon="5.27138">
        <ele>1327.2</ele>
        <time>2024-07-02T11:11:59Z</time>
      </trkpt>
      <trkpt lat="44.87536" lon="5.27137">
        <ele>1327.2</ele>
        <time>2024-07-02T11:12:00Z</time>
      </trkpt>
      <trkpt lat="44.87535" lon="5.27136">
        <ele>1327.2</ele>
        <time>2024-07-02T11:12:01Z</time>
      </trkpt>
      <trkpt lat="44.87534" lon="5.27136">
        <ele>1327.2</ele>
        <time>2024-07-02T11:12:02Z</time>
      </trkpt>
      <trkpt lat="44.87533" lon="5.27135">
        <ele>1327.2</ele>
        <time>2024-07-02T11:12:03Z</time>
      </trkpt>
      <trkpt lat="44.87532" lon="5.27134">
        <ele>1327.1</ele>
        <time>2024-07-02T11:12:04Z</time>
      </trkpt>
      <trkpt lat="44.87531" lon="5.27133">
        <ele>1327.1</ele>
        <time>2024-07-02T11:12:05Z</time>
      </trkpt>
      <trkpt lat="44.8753" lon="5.27133">
        <ele>1327.1</ele>
        <time>2024-07-02T11:12:06Z</time>
      </trkpt>
      <trkpt lat="44.87529" lon="5.27132">
        <ele>1327.1</ele>
        <time>2024-07-02T11:12:07Z</time>
      </trkpt>
      <trkpt lat="44.87528" lon="5.27132">
        <ele>1327.1</ele>
        <time>2024-07-02T11:12:08Z</time>
      </trkpt>
      <trkpt lat="44.87527" lon="5.27131">
        <ele>1327</ele>
        <time>2024-07-02T11:12:09Z</time>
      </trkpt>
      <trkpt lat="44.87525" lon="5.2713">
        <ele>1327</ele>
        <time>2024-07-02T11:12:10Z</time>
      </trkpt>
      <trkpt lat="44.87524" lon="5.27129">
        <ele>1327</ele>
        <time>2024-07-02T11:12:11Z</time>
      </trkpt>
      <trkpt lat="44.87523" lon="5.27129">
        <ele>1326.9</ele>
        <time>2024-07-02T11:12:12Z</time>
      </trkpt>
      <trkpt lat="44.87521" lon="5.27128">
        <ele>1326.9</ele>
        <time>2024-07-02T11:12:13Z</time>
      </trkpt>
      <trkpt lat="44.87521" lon="5.27127">
        <ele>1326.9</ele>
        <time>2024-07-02T11:12:14Z</time>
      </trkpt>
      <trkpt lat="44.8752" lon="5.27126">
        <ele>1326.8</ele>
        <time>2024-07-02T11:12:15Z</time>
      </trkpt>
      <trkpt lat="44.87519" lon="5.27126">
        <ele>1326.8</ele>
        <time>2024-07-02T11:12:16Z</time>
      </trkpt>
      <trkpt lat="44.87518" lon="5.27125">
        <ele>1326.8</ele>
        <time>2024-07-02T11:12:17Z</time>
      </trkpt>
      <trkpt lat="44.87517" lon="5.27125">
        <ele>1326.8</ele>
        <time>2024-07-02T11:12:18Z</time>
      </trkpt>
      <trkpt lat="44.87515" lon="5.27124">
        <ele>1326.7</ele>
        <time>2024-07-02T11:12:19Z</time>
      </trkpt>
      <trkpt lat="44.87514" lon="5.27124">
        <ele>1326.7</ele>
        <time>2024-07-02T11:12:20Z</time>
      </trkpt>
      <trkpt lat="44.87513" lon="5.27124">
        <ele>1326.6</ele>
        <time>2024-07-02T11:12:21Z</time>
      </trkpt>
      <trkpt lat="44.87511" lon="5.27123">
        <ele>1326.6</ele>
        <time>2024-07-02T11:12:22Z</time>
      </trkpt>
      <trkpt lat="44.8751" lon="5.27123">
        <ele>1326.6</ele>
        <time>2024-07-02T11:12:23Z</time>
      </trkpt>
      <trkpt lat="44.8751" lon="5.27122">
        <ele>1326.5</ele>
        <time>2024-07-02T11:12:24Z</time>
      </trkpt>
      <trkpt lat="44.87508" lon="5.27122">
        <ele>1326.5</ele>
        <time>2024-07-02T11:12:25Z</time>
      </trkpt>
      <trkpt lat="44.87507" lon="5.27121">
        <ele>1326.4</ele>
        <time>2024-07-02T11:12:26Z</time>
      </trkpt>
      <trkpt lat="44.87506" lon="5.27121">
        <ele>1326.4</ele>
        <time>2024-07-02T11:12:27Z</time>
      </trkpt>
      <trkpt lat="44.87505" lon="5.27121">
        <ele>1326.4</ele>
        <time>2024-07-02T11:12:28Z</time>
      </trkpt>
      <trkpt lat="44.87504" lon="5.2712">
        <ele>1326.3</ele>
        <time>2024-07-02T11:12:29Z</time>
      </trkpt>
      <trkpt lat="44.87503" lon="5.2712">
        <ele>1326.3</ele>
        <time>2024-07-02T11:12:30Z</time>
      </trkpt>
      <trkpt lat="44.87501" lon="5.2712">
        <ele>1326.2</ele>
        <time>2024-07-02T11:12:31Z</time>
      </trkpt>
      <trkpt lat="44.875" lon="5.27119">
        <ele>1326.2</ele>
        <time>2024-07-02T11:12:32Z</time>
      </trkpt>
      <trkpt lat="44.87499" lon="5.27119">
        <ele>1326.1</ele>
        <time>2024-07-02T11:12:33Z</time>
      </trkpt>
      <trkpt lat="44.87497" lon="5.27119">
        <ele>1326.1</ele>
        <time>2024-07-02T11:12:34Z</time>
      </trkpt>
      <trkpt lat="44.87496" lon="5.27118">
        <ele>1326</ele>
        <time>2024-07-02T11:12:35Z</time>
      </trkpt>
      <trkpt lat="44.87496" lon="5.27118">
        <ele>1326</ele>
        <time>2024-07-02T11:12:36Z</time>
      </trkpt>
      <trkpt lat="44.87494" lon="5.27117">
        <ele>1325.9</ele>
        <time>2024-07-02T11:12:37Z</time>
      </trkpt>
      <trkpt lat="44.87493" lon="5.27117">
        <ele>1325.9</ele>
        <time>2024-07-02T11:12:38Z</time>
      </trkpt>
      <trkpt lat="44.87492" lon="5.27117">
        <ele>1325.8</ele>
        <time>2024-07-02T11:12:39Z</time>
      </trkpt>
      <trkpt lat="44.8749" lon="5.27116">
        <ele>1325.7</ele>
        <time>2024-07-02T11:12:40Z</time>
      </trkpt>
      <trkpt lat="44.87489" lon="5.27116">
        <ele>1325.7</ele>
        <time>2024-07-02T11:12:41Z</time>
      </trkpt>
      <trkpt lat="44.87488" lon="5.27115">
        <ele>1325.6</ele>
        <time>2024-07-02T11:12:42Z</time>
      </trkpt>
      <trkpt lat="44.87486" lon="5.27115">
        <ele>1325.5</ele>
        <time>2024-07-02T11:12:43Z</time>
      </trkpt>
      <trkpt lat="44.87486" lon="5.27114">
        <ele>1325.4</ele>
        <time>2024-07-02T11:12:44Z</time>
      </trkpt>
      <trkpt lat="44.87485" lon="5.27114">
        <ele>1325.4</ele>
        <time>2024-07-02T11:12:45Z</time>
      </trkpt>
      <trkpt lat="44.87483" lon="5.27113">
        <ele>1325.2</ele>
        <time>2024-07-02T11:12:46Z</time>
      </trkpt>
      <trkpt lat="44.87482" lon="5.27113">
        <ele>1325.2</ele>
        <time>2024-07-02T11:12:47Z</time>
      </trkpt>
      <trkpt lat="44.87481" lon="5.27112">
        <ele>1325.1</ele>
        <time>2024-07-02T11:12:48Z</time>
      </trkpt>
      <trkpt lat="44.87479" lon="5.27112">
        <ele>1325</ele>
        <time>2024-07-02T11:12:49Z</time>
      </trkpt>
      <trkpt lat="44.87478" lon="5.27111">
        <ele>1324.9</ele>
        <time>2024-07-02T11:12:50Z</time>
      </trkpt>
      <trkpt lat="44.87477" lon="5.27111">
        <ele>1324.9</ele>
        <time>2024-07-02T11:12:51Z</time>
      </trkpt>
      <trkpt lat="44.87476" lon="5.2711">
        <ele>1324.7</ele>
        <time>2024-07-02T11:12:52Z</time>
      </trkpt>
      <trkpt lat="44.87475" lon="5.2711">
        <ele>1324.7</ele>
        <time>2024-07-02T11:12:53Z</time>
      </trkpt>
      <trkpt lat="44.87474" lon="5.27109">
        <ele>1324.6</ele>
        <time>2024-07-02T11:12:54Z</time>
      </trkpt>
      <trkpt lat="44.87472" lon="5.27108">
        <ele>1324.5</ele>
        <time>2024-07-02T11:12:55Z</time>
      </trkpt>
      <trkpt lat="44.87471" lon="5.27108">
        <ele>1324.4</ele>
        <time>2024-07-02T11:12:56Z</time>
      </trkpt>
      <trkpt lat="44.87471" lon="5.27107">
        <ele>1324.4</ele>
        <time>2024-07-02T11:12:57Z</time>
      </trkpt>
      <trkpt lat="44.87469" lon="5.27107">
        <ele>1324.2</ele>
        <time>2024-07-02T11:12:58Z</time>
      </trkpt>
      <trkpt lat="44.87468" lon="5.27106">
        <ele>1324.2</ele>
        <time>2024-07-02T11:12:59Z</time>
      </trkpt>
      <trkpt lat="44.87467" lon="5.27106">
        <ele>1324.1</ele>
        <time>2024-07-02T11:13:00Z</time>
      </trkpt>
      <trkpt lat="44.87465" lon="5.27105">
        <ele>1324</ele>
        <time>2024-07-02T11:13:01Z</time>
      </trkpt>
      <trkpt lat="44.87464" lon="5.27104">
        <ele>1323.9</ele>
        <time>2024-07-02T11:13:02Z</time>
      </trkpt>
      <trkpt lat="44.87464" lon="5.27103">
        <ele>1323.9</ele>
        <time>2024-07-02T11:13:03Z</time>
      </trkpt>
      <trkpt lat="44.87463" lon="5.27103">
        <ele>1323.8</ele>
        <time>2024-07-02T11:13:04Z</time>
      </trkpt>
      <trkpt lat="44.87462" lon="5.27102">
        <ele>1323.7</ele>
        <time>2024-07-02T11:13:05Z</time>
      </trkpt>
      <trkpt lat="44.87461" lon="5.27102">
        <ele>1323.6</ele>
        <time>2024-07-02T11:13:06Z</time>
      </trkpt>
      <trkpt lat="44.87459" lon="5.271">
        <ele>1323.5</ele>
        <time>2024-07-02T11:13:07Z</time>
      </trkpt>
      <trkpt lat="44.87458" lon="5.271">
        <ele>1323.5</ele>
        <time>2024-07-02T11:13:08Z</time>
      </trkpt>
      <trkpt lat="44.87457" lon="5.27099">
        <ele>1323.4</ele>
        <time>2024-07-02T11:13:09Z</time>
      </trkpt>
      <trkpt lat="44.87455" lon="5.27099">
        <ele>1323.3</ele>
        <time>2024-07-02T11:13:10Z</time>
      </trkpt>
      <trkpt lat="44.87454" lon="5.27098">
        <ele>1323.3</ele>
        <time>2024-07-02T11:13:11Z</time>
      </trkpt>
      <trkpt lat="44.87454" lon="5.27098">
        <ele>1323.2</ele>
        <time>2024-07-02T11:13:12Z</time>
      </trkpt>
      <trkpt lat="44.87452" lon="5.27097">
        <ele>1323.1</ele>
        <time>2024-07-02T11:13:13Z</time>
      </trkpt>
      <trkpt lat="44.87451" lon="5.27097">
        <ele>1323.1</ele>
        <time>2024-07-02T11:13:14Z</time>
      </trkpt>
      <trkpt lat="44.8745" lon="5.27096">
        <ele>1323</ele>
        <time>2024-07-02T11:13:15Z</time>
      </trkpt>
      <trkpt lat="44.87448" lon="5.27096">
        <ele>1323</ele>
        <time>2024-07-02T11:13:16Z</time>
      </trkpt>
      <trkpt lat="44.87447" lon="5.27096">
        <ele>1322.9</ele>
        <time>2024-07-02T11:13:17Z</time>
      </trkpt>
      <trkpt lat="44.87445" lon="5.27095">
        <ele>1322.8</ele>
        <time>2024-07-02T11:13:18Z</time>
      </trkpt>
      <trkpt lat="44.87444" lon="5.27094">
        <ele>1322.8</ele>
        <time>2024-07-02T11:13:19Z</time>
      </trkpt>
      <trkpt lat="44.87444" lon="5.27093">
        <ele>1322.8</ele>
        <time>2024-07-02T11:13:20Z</time>
      </trkpt>
      <trkpt lat="44.87442" lon="5.27092">
        <ele>1322.7</ele>
        <time>2024-07-02T11:13:21Z</time>
      </trkpt>
      <trkpt lat="44.87441" lon="5.27091">
        <ele>1322.7</ele>
        <time>2024-07-02T11:13:22Z</time>
      </trkpt>
      <trkpt lat="44.8744" lon="5.27091">
        <ele>1322.6</ele>
        <time>2024-07-02T11:13:23Z</time>
      </trkpt>
      <trkpt lat="44.87439" lon="5.27088">
        <ele>1322.6</ele>
        <time>2024-07-02T11:13:24Z</time>
      </trkpt>
      <trkpt lat="44.87439" lon="5.27087">
        <ele>1322.6</ele>
        <time>2024-07-02T11:13:25Z</time>
      </trkpt>
      <trkpt lat="44.87438" lon="5.27086">
        <ele>1322.5</ele>
        <time>2024-07-02T11:13:26Z</time>
      </trkpt>
      <trkpt lat="44.87438" lon="5.27085">
        <ele>1322.5</ele>
        <time>2024-07-02T11:13:27Z</time>
      </trkpt>
      <trkpt lat="44.87438" lon="5.27084">
        <ele>1322.5</ele>
        <time>2024-07-02T11:13:28Z</time>
      </trkpt>
      <trkpt lat="44.87437" lon="5.27082">
        <ele>1322.5</ele>
        <time>2024-07-02T11:13:29Z</time>
      </trkpt>
      <trkpt lat="44.87437" lon="5.27081">
        <ele>1322.5</ele>
        <time>2024-07-02T11:13:30Z</time>
      </trkpt>
      <trkpt lat="44.87437" lon="5.27079">
        <ele>1322.4</ele>
        <time>2024-07-02T11:13:31Z</time>
      </trkpt>
      <trkpt lat="44.87437" lon="5.27077">
        <ele>1322.4</ele>
        <time>2024-07-02T11:13:32Z</time>
      </trkpt>
      <trkpt lat="44.87436" lon="5.27076">
        <ele>1322.4</ele>
        <time>2024-07-02T11:13:33Z</time>
      </trkpt>
      <trkpt lat="44.87436" lon="5.27074">
        <ele>1322.4</ele>
        <time>2024-07-02T11:13:34Z</time>
      </trkpt>
      <trkpt lat="44.87435" lon="5.27073">
        <ele>1322.4</ele>
        <time>2024-07-02T11:13:35Z</time>
      </trkpt>
      <trkpt lat="44.87434" lon="5.27071">
        <ele>1322.3</ele>
        <time>2024-07-02T11:13:36Z</time>
      </trkpt>
      <trkpt lat="44.87433" lon="5.2707">
        <ele>1322.3</ele>
        <time>2024-07-02T11:13:37Z</time>
      </trkpt>
      <trkpt lat="44.87432" lon="5.27069">
        <ele>1322.3</ele>
        <time>2024-07-02T11:13:38Z</time>
      </trkpt>
      <trkpt lat="44.87431" lon="5.27067">
        <ele>1322.3</ele>
        <time>2024-07-02T11:13:39Z</time>
      </trkpt>
      <trkpt lat="44.8743" lon="5.27066">
        <ele>1322.3</ele>
        <time>2024-07-02T11:13:40Z</time>
      </trkpt>
      <trkpt lat="44.8743" lon="5.27066">
        <ele>1322.3</ele>
        <time>2024-07-02T11:13:41Z</time>
      </trkpt>
      <trkpt lat="44.87428" lon="5.27064">
        <ele>1322.3</ele>
        <time>2024-07-02T11:13:42Z</time>
      </trkpt>
      <trkpt lat="44.87428" lon="5.27063">
        <ele>1322.3</ele>
        <time>2024-07-02T11:13:43Z</time>
      </trkpt>
      <trkpt lat="44.87427" lon="5.27062">
        <ele>1322.3</ele>
        <time>2024-07-02T11:13:44Z</time>
      </trkpt>
      <trkpt lat="44.87426" lon="5.2706">
        <ele>1322.3</ele>
        <time>2024-07-02T11:13:45Z</time>
      </trkpt>
      <trkpt lat="44.87425" lon="5.27059">
        <ele>1322.3</ele>
        <time>2024-07-02T11:13:46Z</time>
      </trkpt>
      <trkpt lat="44.87425" lon="5.27058">
        <ele>1322.3</ele>
        <time>2024-07-02T11:13:47Z</time>
      </trkpt>
      <trkpt lat="44.87423" lon="5.27056">
        <ele>1322.3</ele>
        <time>2024-07-02T11:13:48Z</time>
      </trkpt>
      <trkpt lat="44.87423" lon="5.27055">
        <ele>1322.3</ele>
        <time>2024-07-02T11:13:49Z</time>
      </trkpt>
      <trkpt lat="44.87422" lon="5.27054">
        <ele>1322.3</ele>
        <time>2024-07-02T11:13:50Z</time>
      </trkpt>
      <trkpt lat="44.87421" lon="5.27052">
        <ele>1322.3</ele>
        <time>2024-07-02T11:13:51Z</time>
      </trkpt>
      <trkpt lat="44.8742" lon="5.27051">
        <ele>1322.3</ele>
        <time>2024-07-02T11:13:52Z</time>
      </trkpt>
      <trkpt lat="44.87419" lon="5.2705">
        <ele>1322.3</ele>
        <time>2024-07-02T11:13:53Z</time>
      </trkpt>
      <trkpt lat="44.87419" lon="5.27049">
        <ele>1322.3</ele>
        <time>2024-07-02T11:13:54Z</time>
      </trkpt>
      <trkpt lat="44.87418" lon="5.27048">
        <ele>1322.3</ele>
        <time>2024-07-02T11:13:55Z</time>
      </trkpt>
      <trkpt lat="44.87417" lon="5.27046">
        <ele>1322.3</ele>
        <time>2024-07-02T11:13:56Z</time>
      </trkpt>
      <trkpt lat="44.87417" lon="5.27044">
        <ele>1322.3</ele>
        <time>2024-07-02T11:13:57Z</time>
      </trkpt>
      <trkpt lat="44.87416" lon="5.27043">
        <ele>1322.3</ele>
        <time>2024-07-02T11:13:58Z</time>
      </trkpt>
      <trkpt lat="44.87416" lon="5.27042">
        <ele>1322.3</ele>
        <time>2024-07-02T11:13:59Z</time>
      </trkpt>
      <trkpt lat="44.87415" lon="5.27039">
        <ele>1322.3</ele>
        <time>2024-07-02T11:14:00Z</time>
      </trkpt>
      <trkpt lat="44.87415" lon="5.27038">
        <ele>1322.3</ele>
        <time>2024-07-02T11:14:01Z</time>
      </trkpt>
      <trkpt lat="44.87414" lon="5.27037">
        <ele>1322.3</ele>
        <time>2024-07-02T11:14:02Z</time>
      </trkpt>
      <trkpt lat="44.87413" lon="5.27036">
        <ele>1322.2</ele>
        <time>2024-07-02T11:14:03Z</time>
      </trkpt>
      <trkpt lat="44.87413" lon="5.27035">
        <ele>1322.2</ele>
        <time>2024-07-02T11:14:04Z</time>
      </trkpt>
      <trkpt lat="44.87412" lon="5.27033">
        <ele>1322.2</ele>
        <time>2024-07-02T11:14:05Z</time>
      </trkpt>
      <trkpt lat="44.87411" lon="5.27032">
        <ele>1322.2</ele>
        <time>2024-07-02T11:14:06Z</time>
      </trkpt>
      <trkpt lat="44.87411" lon="5.27031">
        <ele>1322.2</ele>
        <time>2024-07-02T11:14:07Z</time>
      </trkpt>
      <trkpt lat="44.8741" lon="5.27029">
        <ele>1322.2</ele>
        <time>2024-07-02T11:14:08Z</time>
      </trkpt>
      <trkpt lat="44.8741" lon="5.27028">
        <ele>1322.2</ele>
        <time>2024-07-02T11:14:09Z</time>
      </trkpt>
      <trkpt lat="44.87409" lon="5.27027">
        <ele>1322.2</ele>
        <time>2024-07-02T11:14:10Z</time>
      </trkpt>
      <trkpt lat="44.87408" lon="5.27026">
        <ele>1322.2</ele>
        <time>2024-07-02T11:14:11Z</time>
      </trkpt>
      <trkpt lat="44.87407" lon="5.27025">
        <ele>1322.2</ele>
        <time>2024-07-02T11:14:12Z</time>
      </trkpt>
      <trkpt lat="44.87406" lon="5.27024">
        <ele>1322.2</ele>
        <time>2024-07-02T11:14:13Z</time>
      </trkpt>
      <trkpt lat="44.87406" lon="5.27022">
        <ele>1322.2</ele>
        <time>2024-07-02T11:14:14Z</time>
      </trkpt>
      <trkpt lat="44.87405" lon="5.27021">
        <ele>1322.2</ele>
        <time>2024-07-02T11:14:15Z</time>
      </trkpt>
      <trkpt lat="44.87405" lon="5.2702">
        <ele>1322.2</ele>
        <time>2024-07-02T11:14:16Z</time>
      </trkpt>
      <trkpt lat="44.87404" lon="5.27019">
        <ele>1322.2</ele>
        <time>2024-07-02T11:14:17Z</time>
      </trkpt>
      <trkpt lat="44.87403" lon="5.27016">
        <ele>1322.2</ele>
        <time>2024-07-02T11:14:18Z</time>
      </trkpt>
      <trkpt lat="44.87402" lon="5.27015">
        <ele>1322.2</ele>
        <time>2024-07-02T11:14:19Z</time>
      </trkpt>
      <trkpt lat="44.87402" lon="5.27014">
        <ele>1322.3</ele>
        <time>2024-07-02T11:14:20Z</time>
      </trkpt>
      <trkpt lat="44.874" lon="5.27012">
        <ele>1322.3</ele>
        <time>2024-07-02T11:14:21Z</time>
      </trkpt>
      <trkpt lat="44.874" lon="5.27011">
        <ele>1322.3</ele>
        <time>2024-07-02T11:14:22Z</time>
      </trkpt>
      <trkpt lat="44.87399" lon="5.2701">
        <ele>1322.3</ele>
        <time>2024-07-02T11:14:23Z</time>
      </trkpt>
      <trkpt lat="44.87398" lon="5.27008">
        <ele>1322.4</ele>
        <time>2024-07-02T11:14:24Z</time>
      </trkpt>
      <trkpt lat="44.87397" lon="5.27007">
        <ele>1322.4</ele>
        <time>2024-07-02T11:14:25Z</time>
      </trkpt>
      <trkpt lat="44.87397" lon="5.27006">
        <ele>1322.3</ele>
        <time>2024-07-02T11:14:26Z</time>
      </trkpt>
      <trkpt lat="44.87395" lon="5.27004">
        <ele>1322.3</ele>
        <time>2024-07-02T11:14:27Z</time>
      </trkpt>
      <trkpt lat="44.87395" lon="5.27003">
        <ele>1322.3</ele>
        <time>2024-07-02T11:14:28Z</time>
      </trkpt>
      <trkpt lat="44.87394" lon="5.27002">
        <ele>1322.4</ele>
        <time>2024-07-02T11:14:29Z</time>
      </trkpt>
      <trkpt lat="44.87393" lon="5.27">
        <ele>1322.4</ele>
        <time>2024-07-02T11:14:30Z</time>
      </trkpt>
      <trkpt lat="44.87392" lon="5.26999">
        <ele>1322.4</ele>
        <time>2024-07-02T11:14:31Z</time>
      </trkpt>
      <trkpt lat="44.87391" lon="5.26999">
        <ele>1322.4</ele>
        <time>2024-07-02T11:14:32Z</time>
      </trkpt>
      <trkpt lat="44.8739" lon="5.26996">
        <ele>1322.4</ele>
        <time>2024-07-02T11:14:33Z</time>
      </trkpt>
      <trkpt lat="44.8739" lon="5.26996">
        <ele>1322.4</ele>
        <time>2024-07-02T11:14:34Z</time>
      </trkpt>
      <trkpt lat="44.87389" lon="5.26995">
        <ele>1322.3</ele>
        <time>2024-07-02T11:14:35Z</time>
      </trkpt>
      <trkpt lat="44.87387" lon="5.26993">
        <ele>1322.3</ele>
        <time>2024-07-02T11:14:36Z</time>
      </trkpt>
      <trkpt lat="44.87387" lon="5.26992">
        <ele>1322.3</ele>
        <time>2024-07-02T11:14:37Z</time>
      </trkpt>
      <trkpt lat="44.87386" lon="5.26991">
        <ele>1322.3</ele>
        <time>2024-07-02T11:14:38Z</time>
      </trkpt>
      <trkpt lat="44.87385" lon="5.2699">
        <ele>1322.3</ele>
        <time>2024-07-02T11:14:39Z</time>
      </trkpt>
      <trkpt lat="44.87384" lon="5.26989">
        <ele>1322.3</ele>
        <time>2024-07-02T11:14:40Z</time>
      </trkpt>
      <trkpt lat="44.87383" lon="5.26988">
        <ele>1322.2</ele>
        <time>2024-07-02T11:14:41Z</time>
      </trkpt>
      <trkpt lat="44.87382" lon="5.26986">
        <ele>1322.1</ele>
        <time>2024-07-02T11:14:42Z</time>
      </trkpt>
      <trkpt lat="44.87381" lon="5.26985">
        <ele>1322.1</ele>
        <time>2024-07-02T11:14:43Z</time>
      </trkpt>
      <trkpt lat="44.87381" lon="5.26984">
        <ele>1322.1</ele>
        <time>2024-07-02T11:14:44Z</time>
      </trkpt>
      <trkpt lat="44.8738" lon="5.26983">
        <ele>1322.1</ele>
        <time>2024-07-02T11:14:45Z</time>
      </trkpt>
      <trkpt lat="44.87379" lon="5.26982">
        <ele>1322</ele>
        <time>2024-07-02T11:14:46Z</time>
      </trkpt>
      <trkpt lat="44.87378" lon="5.26982">
        <ele>1322</ele>
        <time>2024-07-02T11:14:47Z</time>
      </trkpt>
      <trkpt lat="44.87377" lon="5.2698">
        <ele>1322</ele>
        <time>2024-07-02T11:14:48Z</time>
      </trkpt>
      <trkpt lat="44.87377" lon="5.26979">
        <ele>1321.9</ele>
        <time>2024-07-02T11:14:49Z</time>
      </trkpt>
      <trkpt lat="44.87376" lon="5.26978">
        <ele>1321.9</ele>
        <time>2024-07-02T11:14:50Z</time>
      </trkpt>
      <trkpt lat="44.87375" lon="5.26977">
        <ele>1321.8</ele>
        <time>2024-07-02T11:14:51Z</time>
      </trkpt>
      <trkpt lat="44.87374" lon="5.26976">
        <ele>1321.8</ele>
        <time>2024-07-02T11:14:52Z</time>
      </trkpt>
      <trkpt lat="44.87373" lon="5.26974">
        <ele>1321.7</ele>
        <time>2024-07-02T11:14:53Z</time>
      </trkpt>
      <trkpt lat="44.87372" lon="5.26972">
        <ele>1321.6</ele>
        <time>2024-07-02T11:14:54Z</time>
      </trkpt>
      <trkpt lat="44.87371" lon="5.26972">
        <ele>1321.6</ele>
        <time>2024-07-02T11:14:55Z</time>
      </trkpt>
      <trkpt lat="44.8737" lon="5.26971">
        <ele>1321.5</ele>
        <time>2024-07-02T11:14:56Z</time>
      </trkpt>
      <trkpt lat="44.87369" lon="5.2697">
        <ele>1321.4</ele>
        <time>2024-07-02T11:14:57Z</time>
      </trkpt>
      <trkpt lat="44.87368" lon="5.26969">
        <ele>1321.4</ele>
        <time>2024-07-02T11:14:58Z</time>
      </trkpt>
      <trkpt lat="44.87366" lon="5.26967">
        <ele>1321.2</ele>
        <time>2024-07-02T11:14:59Z</time>
      </trkpt>
      <trkpt lat="44.87366" lon="5.26966">
        <ele>1321.2</ele>
        <time>2024-07-02T11:15:00Z</time>
      </trkpt>
      <trkpt lat="44.87365" lon="5.26966">
        <ele>1321.2</ele>
        <time>2024-07-02T11:15:01Z</time>
      </trkpt>
      <trkpt lat="44.87363" lon="5.26964">
        <ele>1321</ele>
        <time>2024-07-02T11:15:02Z</time>
      </trkpt>
      <trkpt lat="44.87363" lon="5.26963">
        <ele>1321</ele>
        <time>2024-07-02T11:15:03Z</time>
      </trkpt>
      <trkpt lat="44.87362" lon="5.26963">
        <ele>1320.9</ele>
        <time>2024-07-02T11:15:04Z</time>
      </trkpt>
      <trkpt lat="44.8736" lon="5.26962">
        <ele>1320.8</ele>
        <time>2024-07-02T11:15:05Z</time>
      </trkpt>
      <trkpt lat="44.87359" lon="5.26961">
        <ele>1320.7</ele>
        <time>2024-07-02T11:15:06Z</time>
      </trkpt>
      <trkpt lat="44.87359" lon="5.26961">
        <ele>1320.6</ele>
        <time>2024-07-02T11:15:07Z</time>
      </trkpt>
      <trkpt lat="44.87357" lon="5.2696">
        <ele>1320.6</ele>
        <time>2024-07-02T11:15:08Z</time>
      </trkpt>
      <trkpt lat="44.87356" lon="5.2696">
        <ele>1320.5</ele>
        <time>2024-07-02T11:15:09Z</time>
      </trkpt>
      <trkpt lat="44.87354" lon="5.26959">
        <ele>1320.3</ele>
        <time>2024-07-02T11:15:10Z</time>
      </trkpt>
      <trkpt lat="44.87353" lon="5.26959">
        <ele>1320.3</ele>
        <time>2024-07-02T11:15:11Z</time>
      </trkpt>
      <trkpt lat="44.87352" lon="5.26958">
        <ele>1320.2</ele>
        <time>2024-07-02T11:15:12Z</time>
      </trkpt>
      <trkpt lat="44.87351" lon="5.26957">
        <ele>1320.1</ele>
        <time>2024-07-02T11:15:13Z</time>
      </trkpt>
      <trkpt lat="44.8735" lon="5.26958">
        <ele>1320</ele>
        <time>2024-07-02T11:15:14Z</time>
      </trkpt>
      <trkpt lat="44.87349" lon="5.26957">
        <ele>1320</ele>
        <time>2024-07-02T11:15:15Z</time>
      </trkpt>
      <trkpt lat="44.87347" lon="5.26955">
        <ele>1319.9</ele>
        <time>2024-07-02T11:15:16Z</time>
      </trkpt>
      <trkpt lat="44.87346" lon="5.26955">
        <ele>1319.9</ele>
        <time>2024-07-02T11:15:17Z</time>
      </trkpt>
      <trkpt lat="44.87346" lon="5.26954">
        <ele>1319.8</ele>
        <time>2024-07-02T11:15:18Z</time>
      </trkpt>
      <trkpt lat="44.87344" lon="5.26952">
        <ele>1319.9</ele>
        <time>2024-07-02T11:15:19Z</time>
      </trkpt>
      <trkpt lat="44.87343" lon="5.26951">
        <ele>1319.9</ele>
        <time>2024-07-02T11:15:20Z</time>
      </trkpt>
      <trkpt lat="44.87343" lon="5.2695">
        <ele>1319.8</ele>
        <time>2024-07-02T11:15:21Z</time>
      </trkpt>
      <trkpt lat="44.87341" lon="5.26948">
        <ele>1319.8</ele>
        <time>2024-07-02T11:15:22Z</time>
      </trkpt>
      <trkpt lat="44.87341" lon="5.26947">
        <ele>1319.8</ele>
        <time>2024-07-02T11:15:23Z</time>
      </trkpt>
      <trkpt lat="44.8734" lon="5.26947">
        <ele>1319.8</ele>
        <time>2024-07-02T11:15:24Z</time>
      </trkpt>
      <trkpt lat="44.87339" lon="5.26945">
        <ele>1319.7</ele>
        <time>2024-07-02T11:15:25Z</time>
      </trkpt>
      <trkpt lat="44.87338" lon="5.26944">
        <ele>1319.7</ele>
        <time>2024-07-02T11:15:26Z</time>
      </trkpt>
      <trkpt lat="44.87338" lon="5.26944">
        <ele>1319.7</ele>
        <time>2024-07-02T11:15:27Z</time>
      </trkpt>
      <trkpt lat="44.87337" lon="5.26944">
        <ele>1319.7</ele>
        <time>2024-07-02T11:15:28Z</time>
      </trkpt>
      <trkpt lat="44.87337" lon="5.26944">
        <ele>1319.7</ele>
        <time>2024-07-02T11:15:29Z</time>
      </trkpt>
      <trkpt lat="44.87337" lon="5.26944">
        <ele>1319.8</ele>
        <time>2024-07-02T11:15:30Z</time>
      </trkpt>
      <trkpt lat="44.87338" lon="5.26944">
        <ele>1319.7</ele>
        <time>2024-07-02T11:15:31Z</time>
      </trkpt>
      <trkpt lat="44.87338" lon="5.26944">
        <ele>1319.7</ele>
        <time>2024-07-02T11:15:32Z</time>
      </trkpt>
      <trkpt lat="44.87338" lon="5.26944">
        <ele>1319.7</ele>
        <time>2024-07-02T11:15:33Z</time>
      </trkpt>
      <trkpt lat="44.87338" lon="5.26944">
        <ele>1319.7</ele>
        <time>2024-07-02T11:15:34Z</time>
      </trkpt>
      <trkpt lat="44.87337" lon="5.26945">
        <ele>1319.7</ele>
        <time>2024-07-02T11:15:35Z</time>
      </trkpt>
      <trkpt lat="44.87337" lon="5.26945">
        <ele>1319.7</ele>
        <time>2024-07-02T11:15:36Z</time>
      </trkpt>
      <trkpt lat="44.87337" lon="5.26946">
        <ele>1319.7</ele>
        <time>2024-07-02T11:15:37Z</time>
      </trkpt>
      <trkpt lat="44.87337" lon="5.26946">
        <ele>1319.7</ele>
        <time>2024-07-02T11:15:38Z</time>
      </trkpt>
      <trkpt lat="44.87337" lon="5.26946">
        <ele>1319.7</ele>
        <time>2024-07-02T11:15:39Z</time>
      </trkpt>
      <trkpt lat="44.87337" lon="5.26946">
        <ele>1319.7</ele>
        <time>2024-07-02T11:15:40Z</time>
      </trkpt>
      <trkpt lat="44.87337" lon="5.26946">
        <ele>1319.7</ele>
        <time>2024-07-02T11:15:41Z</time>
      </trkpt>
      <trkpt lat="44.87337" lon="5.26947">
        <ele>1319.7</ele>
        <time>2024-07-02T11:15:42Z</time>
      </trkpt>
      <trkpt lat="44.87337" lon="5.26947">
        <ele>1319.7</ele>
        <time>2024-07-02T11:15:43Z</time>
      </trkpt>
      <trkpt lat="44.87337" lon="5.26947">
        <ele>1319.7</ele>
        <time>2024-07-02T11:15:44Z</time>
      </trkpt>
      <trkpt lat="44.87337" lon="5.26947">
        <ele>1319.6</ele>
        <time>2024-07-02T11:15:45Z</time>
      </trkpt>
      <trkpt lat="44.87337" lon="5.26947">
        <ele>1319.6</ele>
        <time>2024-07-02T11:15:46Z</time>
      </trkpt>
      <trkpt lat="44.87338" lon="5.26947">
        <ele>1319.6</ele>
        <time>2024-07-02T11:15:47Z</time>
      </trkpt>
      <trkpt lat="44.87338" lon="5.26947">
        <ele>1319.6</ele>
        <time>2024-07-02T11:15:48Z</time>
      </trkpt>
      <trkpt lat="44.87338" lon="5.26947">
        <ele>1319.6</ele>
        <time>2024-07-02T11:15:49Z</time>
      </trkpt>
      <trkpt lat="44.87338" lon="5.26947">
        <ele>1319.6</ele>
        <time>2024-07-02T11:15:50Z</time>
      </trkpt>
      <trkpt lat="44.87338" lon="5.26947">
        <ele>1319.6</ele>
        <time>2024-07-02T11:15:51Z</time>
      </trkpt>
      <trkpt lat="44.87338" lon="5.26947">
        <ele>1319.6</ele>
        <time>2024-07-02T11:15:52Z</time>
      </trkpt>
      <trkpt lat="44.87338" lon="5.26947">
        <ele>1319.6</ele>
        <time>2024-07-02T11:15:53Z</time>
      </trkpt>
      <trkpt lat="44.87338" lon="5.26947">
        <ele>1319.6</ele>
        <time>2024-07-02T11:15:54Z</time>
      </trkpt>
      <trkpt lat="44.87338" lon="5.26947">
        <ele>1319.6</ele>
        <time>2024-07-02T11:15:55Z</time>
      </trkpt>
      <trkpt lat="44.87338" lon="5.26947">
        <ele>1319.6</ele>
        <time>2024-07-02T11:15:56Z</time>
      </trkpt>
      <trkpt lat="44.87338" lon="5.26947">
        <ele>1319.6</ele>
        <time>2024-07-02T11:15:57Z</time>
      </trkpt>
      <trkpt lat="44.87338" lon="5.26947">
        <ele>1319.6</ele>
        <time>2024-07-02T11:15:58Z</time>
      </trkpt>
      <trkpt lat="44.87338" lon="5.26947">
        <ele>1319.6</ele>
        <time>2024-07-02T11:15:59Z</time>
      </trkpt>
      <trkpt lat="44.87338" lon="5.26947">
        <ele>1319.6</ele>
        <time>2024-07-02T11:16:00Z</time>
      </trkpt>
      <trkpt lat="44.87338" lon="5.26947">
        <ele>1319.6</ele>
        <time>2024-07-02T11:16:01Z</time>
      </trkpt>
      <trkpt lat="44.87338" lon="5.26947">
        <ele>1319.6</ele>
        <time>2024-07-02T11:16:02Z</time>
      </trkpt>
      <trkpt lat="44.87338" lon="5.26947">
        <ele>1319.6</ele>
        <time>2024-07-02T11:16:03Z</time>
      </trkpt>
      <trkpt lat="44.87338" lon="5.26947">
        <ele>1319.6</ele>
        <time>2024-07-02T11:16:04Z</time>
      </trkpt>
      <trkpt lat="44.87338" lon="5.26947">
        <ele>1319.6</ele>
        <time>2024-07-02T11:16:05Z</time>
      </trkpt>
      <trkpt lat="44.87338" lon="5.26947">
        <ele>1319.6</ele>
        <time>2024-07-02T11:16:06Z</time>
      </trkpt>
      <trkpt lat="44.87338" lon="5.26947">
        <ele>1319.6</ele>
        <time>2024-07-02T11:16:07Z</time>
      </trkpt>
      <trkpt lat="44.87338" lon="5.26947">
        <ele>1319.6</ele>
        <time>2024-07-02T11:16:08Z</time>
      </trkpt>
      <trkpt lat="44.87338" lon="5.26947">
        <ele>1319.6</ele>
        <time>2024-07-02T11:16:09Z</time>
      </trkpt>
      <trkpt lat="44.87338" lon="5.26947">
        <ele>1319.6</ele>
        <time>2024-07-02T11:16:10Z</time>
      </trkpt>
      <trkpt lat="44.87338" lon="5.26947">
        <ele>1319.6</ele>
        <time>2024-07-02T11:16:11Z</time>
      </trkpt>
      <trkpt lat="44.87338" lon="5.26947">
        <ele>1319.6</ele>
        <time>2024-07-02T11:16:12Z</time>
      </trkpt>
      <trkpt lat="44.87338" lon="5.26947">
        <ele>1319.6</ele>
        <time>2024-07-02T11:16:13Z</time>
      </trkpt>
      <trkpt lat="44.87338" lon="5.26947">
        <ele>1319.6</ele>
        <time>2024-07-02T11:16:14Z</time>
      </trkpt>
      <trkpt lat="44.87338" lon="5.26947">
        <ele>1319.6</ele>
        <time>2024-07-02T11:16:15Z</time>
      </trkpt>
      <trkpt lat="44.87338" lon="5.26947">
        <ele>1319.6</ele>
        <time>2024-07-02T11:16:16Z</time>
      </trkpt>
      <trkpt lat="44.87337" lon="5.26948">
        <ele>1319.6</ele>
        <time>2024-07-02T11:16:17Z</time>
      </trkpt>
      <trkpt lat="44.87336" lon="5.26949">
        <ele>1319.7</ele>
        <time>2024-07-02T11:16:18Z</time>
      </trkpt>
      <trkpt lat="44.87335" lon="5.2695">
        <ele>1319.7</ele>
        <time>2024-07-02T11:16:19Z</time>
      </trkpt>
      <trkpt lat="44.87335" lon="5.2695">
        <ele>1319.7</ele>
        <time>2024-07-02T11:16:20Z</time>
      </trkpt>
      <trkpt lat="44.87335" lon="5.2695">
        <ele>1319.7</ele>
        <time>2024-07-02T11:16:21Z</time>
      </trkpt>
      <trkpt lat="44.87334" lon="5.26951">
        <ele>1319.7</ele>
        <time>2024-07-02T11:16:22Z</time>
      </trkpt>
      <trkpt lat="44.87334" lon="5.26952">
        <ele>1319.7</ele>
        <time>2024-07-02T11:16:23Z</time>
      </trkpt>
      <trkpt lat="44.87335" lon="5.26952">
        <ele>1319.7</ele>
        <time>2024-07-02T11:16:24Z</time>
      </trkpt>
      <trkpt lat="44.87335" lon="5.26953">
        <ele>1319.7</ele>
        <time>2024-07-02T11:16:25Z</time>
      </trkpt>
      <trkpt lat="44.87335" lon="5.26953">
        <ele>1319.8</ele>
        <time>2024-07-02T11:16:26Z</time>
      </trkpt>
      <trkpt lat="44.87335" lon="5.26954">
        <ele>1319.8</ele>
        <time>2024-07-02T11:16:27Z</time>
      </trkpt>
      <trkpt lat="44.87335" lon="5.26954">
        <ele>1319.8</ele>
        <time>2024-07-02T11:16:28Z</time>
      </trkpt>
      <trkpt lat="44.87335" lon="5.26955">
        <ele>1319.8</ele>
        <time>2024-07-02T11:16:29Z</time>
      </trkpt>
      <trkpt lat="44.87335" lon="5.26955">
        <ele>1319.8</ele>
        <time>2024-07-02T11:16:30Z</time>
      </trkpt>
      <trkpt lat="44.87335" lon="5.26955">
        <ele>1319.8</ele>
        <time>2024-07-02T11:16:31Z</time>
      </trkpt>
      <trkpt lat="44.87335" lon="5.26956">
        <ele>1319.8</ele>
        <time>2024-07-02T11:16:32Z</time>
      </trkpt>
      <trkpt lat="44.87335" lon="5.26956">
        <ele>1319.8</ele>
        <time>2024-07-02T11:16:33Z</time>
      </trkpt>
      <trkpt lat="44.87335" lon="5.26958">
        <ele>1319.8</ele>
        <time>2024-07-02T11:16:34Z</time>
      </trkpt>
      <trkpt lat="44.87335" lon="5.2696">
        <ele>1319.8</ele>
        <time>2024-07-02T11:16:35Z</time>
      </trkpt>
      <trkpt lat="44.87335" lon="5.26961">
        <ele>1319.9</ele>
        <time>2024-07-02T11:16:36Z</time>
      </trkpt>
      <trkpt lat="44.87334" lon="5.26962">
        <ele>1319.9</ele>
        <time>2024-07-02T11:16:37Z</time>
      </trkpt>
      <trkpt lat="44.87334" lon="5.26963">
        <ele>1319.9</ele>
        <time>2024-07-02T11:16:38Z</time>
      </trkpt>
      <trkpt lat="44.87333" lon="5.26963">
        <ele>1319.9</ele>
        <time>2024-07-02T11:16:39Z</time>
      </trkpt>
      <trkpt lat="44.87332" lon="5.26964">
        <ele>1319.9</ele>
        <time>2024-07-02T11:16:40Z</time>
      </trkpt>
      <trkpt lat="44.87332" lon="5.26964">
        <ele>1319.9</ele>
        <time>2024-07-02T11:16:41Z</time>
      </trkpt>
      <trkpt lat="44.87331" lon="5.26965">
        <ele>1320</ele>
        <time>2024-07-02T11:16:42Z</time>
      </trkpt>
      <trkpt lat="44.8733" lon="5.26965">
        <ele>1320</ele>
        <time>2024-07-02T11:16:43Z</time>
      </trkpt>
      <trkpt lat="44.8733" lon="5.26965">
        <ele>1320</ele>
        <time>2024-07-02T11:16:44Z</time>
      </trkpt>
      <trkpt lat="44.87331" lon="5.26964">
        <ele>1320</ele>
        <time>2024-07-02T11:16:45Z</time>
      </trkpt>
      <trkpt lat="44.87331" lon="5.26964">
        <ele>1320</ele>
        <time>2024-07-02T11:16:46Z</time>
      </trkpt>
      <trkpt lat="44.87331" lon="5.26964">
        <ele>1320</ele>
        <time>2024-07-02T11:16:47Z</time>
      </trkpt>
      <trkpt lat="44.87332" lon="5.26963">
        <ele>1320</ele>
        <time>2024-07-02T11:16:48Z</time>
      </trkpt>
      <trkpt lat="44.87332" lon="5.26963">
        <ele>1320</ele>
        <time>2024-07-02T11:16:49Z</time>
      </trkpt>
      <trkpt lat="44.87332" lon="5.26963">
        <ele>1320</ele>
        <time>2024-07-02T11:16:50Z</time>
      </trkpt>
      <trkpt lat="44.87332" lon="5.26963">
        <ele>1320</ele>
        <time>2024-07-02T11:16:51Z</time>
      </trkpt>
      <trkpt lat="44.87332" lon="5.26963">
        <ele>1320</ele>
        <time>2024-07-02T11:16:52Z</time>
      </trkpt>
      <trkpt lat="44.87332" lon="5.26964">
        <ele>1320.1</ele>
        <time>2024-07-02T11:16:53Z</time>
      </trkpt>
      <trkpt lat="44.87331" lon="5.26965">
        <ele>1320.1</ele>
        <time>2024-07-02T11:16:54Z</time>
      </trkpt>
      <trkpt lat="44.8733" lon="5.26965">
        <ele>1320.1</ele>
        <time>2024-07-02T11:16:55Z</time>
      </trkpt>
      <trkpt lat="44.87329" lon="5.26965">
        <ele>1320.1</ele>
        <time>2024-07-02T11:16:56Z</time>
      </trkpt>
      <trkpt lat="44.87328" lon="5.26964">
        <ele>1320.1</ele>
        <time>2024-07-02T11:16:57Z</time>
      </trkpt>
      <trkpt lat="44.87327" lon="5.26963">
        <ele>1320.1</ele>
        <time>2024-07-02T11:16:58Z</time>
      </trkpt>
      <trkpt lat="44.87326" lon="5.26963">
        <ele>1320.2</ele>
        <time>2024-07-02T11:16:59Z</time>
      </trkpt>
      <trkpt lat="44.87325" lon="5.26962">
        <ele>1320.2</ele>
        <time>2024-07-02T11:17:00Z</time>
      </trkpt>
      <trkpt lat="44.87324" lon="5.26961">
        <ele>1320.2</ele>
        <time>2024-07-02T11:17:01Z</time>
      </trkpt>
      <trkpt lat="44.87322" lon="5.2696">
        <ele>1320.2</ele>
        <time>2024-07-02T11:17:02Z</time>
      </trkpt>
      <trkpt lat="44.87321" lon="5.2696">
        <ele>1320.2</ele>
        <time>2024-07-02T11:17:03Z</time>
      </trkpt>
      <trkpt lat="44.8732" lon="5.2696">
        <ele>1320.2</ele>
        <time>2024-07-02T11:17:04Z</time>
      </trkpt>
      <trkpt lat="44.87318" lon="5.2696">
        <ele>1320.3</ele>
        <time>2024-07-02T11:17:05Z</time>
      </trkpt>
      <trkpt lat="44.87317" lon="5.26959">
        <ele>1320.3</ele>
        <time>2024-07-02T11:17:06Z</time>
      </trkpt>
      <trkpt lat="44.87316" lon="5.26959">
        <ele>1320.3</ele>
        <time>2024-07-02T11:17:07Z</time>
      </trkpt>
      <trkpt lat="44.87314" lon="5.26959">
        <ele>1320.3</ele>
        <time>2024-07-02T11:17:08Z</time>
      </trkpt>
      <trkpt lat="44.87313" lon="5.26958">
        <ele>1320.3</ele>
        <time>2024-07-02T11:17:09Z</time>
      </trkpt>
      <trkpt lat="44.87312" lon="5.26958">
        <ele>1320.3</ele>
        <time>2024-07-02T11:17:10Z</time>
      </trkpt>
      <trkpt lat="44.87311" lon="5.26958">
        <ele>1320.3</ele>
        <time>2024-07-02T11:17:11Z</time>
      </trkpt>
      <trkpt lat="44.8731" lon="5.26957">
        <ele>1320.4</ele>
        <time>2024-07-02T11:17:12Z</time>
      </trkpt>
      <trkpt lat="44.87308" lon="5.26957">
        <ele>1320.4</ele>
        <time>2024-07-02T11:17:13Z</time>
      </trkpt>
      <trkpt lat="44.87307" lon="5.26956">
        <ele>1320.4</ele>
        <time>2024-07-02T11:17:14Z</time>
      </trkpt>
      <trkpt lat="44.87306" lon="5.26956">
        <ele>1320.4</ele>
        <time>2024-07-02T11:17:15Z</time>
      </trkpt>
      <trkpt lat="44.87304" lon="5.26956">
        <ele>1320.4</ele>
        <time>2024-07-02T11:17:16Z</time>
      </trkpt>
      <trkpt lat="44.87303" lon="5.26956">
        <ele>1320.5</ele>
        <time>2024-07-02T11:17:17Z</time>
      </trkpt>
      <trkpt lat="44.87302" lon="5.26956">
        <ele>1320.5</ele>
        <time>2024-07-02T11:17:18Z</time>
      </trkpt>
      <trkpt lat="44.87301" lon="5.26956">
        <ele>1320.5</ele>
        <time>2024-07-02T11:17:19Z</time>
      </trkpt>
      <trkpt lat="44.873" lon="5.26956">
        <ele>1320.5</ele>
        <time>2024-07-02T11:17:20Z</time>
      </trkpt>
      <trkpt lat="44.87298" lon="5.26956">
        <ele>1320.6</ele>
        <time>2024-07-02T11:17:21Z</time>
      </trkpt>
      <trkpt lat="44.87297" lon="5.26955">
        <ele>1320.6</ele>
        <time>2024-07-02T11:17:22Z</time>
      </trkpt>
      <trkpt lat="44.87296" lon="5.26956">
        <ele>1320.6</ele>
        <time>2024-07-02T11:17:23Z</time>
      </trkpt>
      <trkpt lat="44.87295" lon="5.26956">
        <ele>1320.7</ele>
        <time>2024-07-02T11:17:24Z</time>
      </trkpt>
      <trkpt lat="44.87294" lon="5.26956">
        <ele>1320.7</ele>
        <time>2024-07-02T11:17:25Z</time>
      </trkpt>
      <trkpt lat="44.87293" lon="5.26956">
        <ele>1320.7</ele>
        <time>2024-07-02T11:17:26Z</time>
      </trkpt>
      <trkpt lat="44.87292" lon="5.26956">
        <ele>1320.8</ele>
        <time>2024-07-02T11:17:27Z</time>
      </trkpt>
      <trkpt lat="44.87291" lon="5.26956">
        <ele>1320.8</ele>
        <time>2024-07-02T11:17:28Z</time>
      </trkpt>
      <trkpt lat="44.8729" lon="5.26957">
        <ele>1320.8</ele>
        <time>2024-07-02T11:17:29Z</time>
      </trkpt>
      <trkpt lat="44.87289" lon="5.26957">
        <ele>1320.9</ele>
        <time>2024-07-02T11:17:30Z</time>
      </trkpt>
      <trkpt lat="44.87287" lon="5.26957">
        <ele>1320.9</ele>
        <time>2024-07-02T11:17:31Z</time>
      </trkpt>
      <trkpt lat="44.87286" lon="5.26957">
        <ele>1321</ele>
        <time>2024-07-02T11:17:32Z</time>
      </trkpt>
      <trkpt lat="44.87286" lon="5.26957">
        <ele>1321</ele>
        <time>2024-07-02T11:17:33Z</time>
      </trkpt>
      <trkpt lat="44.87285" lon="5.26957">
        <ele>1321</ele>
        <time>2024-07-02T11:17:34Z</time>
      </trkpt>
      <trkpt lat="44.87284" lon="5.26957">
        <ele>1321.1</ele>
        <time>2024-07-02T11:17:35Z</time>
      </trkpt>
      <trkpt lat="44.87283" lon="5.26957">
        <ele>1321.1</ele>
        <time>2024-07-02T11:17:36Z</time>
      </trkpt>
      <trkpt lat="44.87282" lon="5.26957">
        <ele>1321.2</ele>
        <time>2024-07-02T11:17:37Z</time>
      </trkpt>
      <trkpt lat="44.87281" lon="5.26957">
        <ele>1321.2</ele>
        <time>2024-07-02T11:17:38Z</time>
      </trkpt>
      <trkpt lat="44.8728" lon="5.26957">
        <ele>1321.3</ele>
        <time>2024-07-02T11:17:39Z</time>
      </trkpt>
      <trkpt lat="44.87279" lon="5.26957">
        <ele>1321.3</ele>
        <time>2024-07-02T11:17:40Z</time>
      </trkpt>
      <trkpt lat="44.87278" lon="5.26958">
        <ele>1321.4</ele>
        <time>2024-07-02T11:17:41Z</time>
      </trkpt>
      <trkpt lat="44.87277" lon="5.26958">
        <ele>1321.4</ele>
        <time>2024-07-02T11:17:42Z</time>
      </trkpt>
      <trkpt lat="44.87276" lon="5.26959">
        <ele>1321.5</ele>
        <time>2024-07-02T11:17:43Z</time>
      </trkpt>
      <trkpt lat="44.87275" lon="5.26959">
        <ele>1321.5</ele>
        <time>2024-07-02T11:17:44Z</time>
      </trkpt>
      <trkpt lat="44.87274" lon="5.26959">
        <ele>1321.6</ele>
        <time>2024-07-02T11:17:45Z</time>
      </trkpt>
      <trkpt lat="44.87273" lon="5.26959">
        <ele>1321.7</ele>
        <time>2024-07-02T11:17:46Z</time>
      </trkpt>
      <trkpt lat="44.87271" lon="5.2696">
        <ele>1321.7</ele>
        <time>2024-07-02T11:17:47Z</time>
      </trkpt>
      <trkpt lat="44.8727" lon="5.2696">
        <ele>1321.8</ele>
        <time>2024-07-02T11:17:48Z</time>
      </trkpt>
      <trkpt lat="44.87269" lon="5.2696">
        <ele>1321.9</ele>
        <time>2024-07-02T11:17:49Z</time>
      </trkpt>
      <trkpt lat="44.87268" lon="5.2696">
        <ele>1321.9</ele>
        <time>2024-07-02T11:17:50Z</time>
      </trkpt>
      <trkpt lat="44.87267" lon="5.26961">
        <ele>1322</ele>
        <time>2024-07-02T11:17:51Z</time>
      </trkpt>
      <trkpt lat="44.87266" lon="5.26961">
        <ele>1322.1</ele>
        <time>2024-07-02T11:17:52Z</time>
      </trkpt>
      <trkpt lat="44.87265" lon="5.26961">
        <ele>1322.1</ele>
        <time>2024-07-02T11:17:53Z</time>
      </trkpt>
      <trkpt lat="44.87264" lon="5.26961">
        <ele>1322.2</ele>
        <time>2024-07-02T11:17:54Z</time>
      </trkpt>
      <trkpt lat="44.87262" lon="5.26961">
        <ele>1322.3</ele>
        <time>2024-07-02T11:17:55Z</time>
      </trkpt>
      <trkpt lat="44.87261" lon="5.26961">
        <ele>1322.3</ele>
        <time>2024-07-02T11:17:56Z</time>
      </trkpt>
      <trkpt lat="44.8726" lon="5.26961">
        <ele>1322.4</ele>
        <time>2024-07-02T11:17:57Z</time>
      </trkpt>
      <trkpt lat="44.87259" lon="5.26962">
        <ele>1322.5</ele>
        <time>2024-07-02T11:17:58Z</time>
      </trkpt>
      <trkpt lat="44.87258" lon="5.26962">
        <ele>1322.5</ele>
        <time>2024-07-02T11:17:59Z</time>
      </trkpt>
      <trkpt lat="44.87257" lon="5.26962">
        <ele>1322.6</ele>
        <time>2024-07-02T11:18:00Z</time>
      </trkpt>
      <trkpt lat="44.87256" lon="5.26963">
        <ele>1322.7</ele>
        <time>2024-07-02T11:18:01Z</time>
      </trkpt>
      <trkpt lat="44.87255" lon="5.26963">
        <ele>1322.7</ele>
        <time>2024-07-02T11:18:02Z</time>
      </trkpt>
      <trkpt lat="44.87253" lon="5.26963">
        <ele>1322.8</ele>
        <time>2024-07-02T11:18:03Z</time>
      </trkpt>
      <trkpt lat="44.87252" lon="5.26963">
        <ele>1322.9</ele>
        <time>2024-07-02T11:18:04Z</time>
      </trkpt>
      <trkpt lat="44.87251" lon="5.26963">
        <ele>1323</ele>
        <time>2024-07-02T11:18:05Z</time>
      </trkpt>
      <trkpt lat="44.8725" lon="5.26963">
        <ele>1323</ele>
        <time>2024-07-02T11:18:06Z</time>
      </trkpt>
      <trkpt lat="44.87249" lon="5.26963">
        <ele>1323.1</ele>
        <time>2024-07-02T11:18:07Z</time>
      </trkpt>
      <trkpt lat="44.87248" lon="5.26963">
        <ele>1323.2</ele>
        <time>2024-07-02T11:18:08Z</time>
      </trkpt>
      <trkpt lat="44.87247" lon="5.26963">
        <ele>1323.2</ele>
        <time>2024-07-02T11:18:09Z</time>
      </trkpt>
      <trkpt lat="44.87246" lon="5.26963">
        <ele>1323.3</ele>
        <time>2024-07-02T11:18:10Z</time>
      </trkpt>
      <trkpt lat="44.87245" lon="5.26963">
        <ele>1323.4</ele>
        <time>2024-07-02T11:18:11Z</time>
      </trkpt>
      <trkpt lat="44.87244" lon="5.26964">
        <ele>1323.5</ele>
        <time>2024-07-02T11:18:12Z</time>
      </trkpt>
      <trkpt lat="44.87242" lon="5.26964">
        <ele>1323.6</ele>
        <time>2024-07-02T11:18:13Z</time>
      </trkpt>
      <trkpt lat="44.87241" lon="5.26964">
        <ele>1323.7</ele>
        <time>2024-07-02T11:18:14Z</time>
      </trkpt>
      <trkpt lat="44.8724" lon="5.26964">
        <ele>1323.7</ele>
        <time>2024-07-02T11:18:15Z</time>
      </trkpt>
      <trkpt lat="44.87239" lon="5.26964">
        <ele>1323.8</ele>
        <time>2024-07-02T11:18:16Z</time>
      </trkpt>
      <trkpt lat="44.87238" lon="5.26964">
        <ele>1323.9</ele>
        <time>2024-07-02T11:18:17Z</time>
      </trkpt>
      <trkpt lat="44.87237" lon="5.26964">
        <ele>1324</ele>
        <time>2024-07-02T11:18:18Z</time>
      </trkpt>
      <trkpt lat="44.87236" lon="5.26964">
        <ele>1324.1</ele>
        <time>2024-07-02T11:18:19Z</time>
      </trkpt>
      <trkpt lat="44.87235" lon="5.26964">
        <ele>1324.2</ele>
        <time>2024-07-02T11:18:20Z</time>
      </trkpt>
      <trkpt lat="44.87234" lon="5.26964">
        <ele>1324.3</ele>
        <time>2024-07-02T11:18:21Z</time>
      </trkpt>
      <trkpt lat="44.87233" lon="5.26965">
        <ele>1324.3</ele>
        <time>2024-07-02T11:18:22Z</time>
      </trkpt>
      <trkpt lat="44.87232" lon="5.26965">
        <ele>1324.4</ele>
        <time>2024-07-02T11:18:23Z</time>
      </trkpt>
      <trkpt lat="44.87231" lon="5.26965">
        <ele>1324.5</ele>
        <time>2024-07-02T11:18:24Z</time>
      </trkpt>
      <trkpt lat="44.87229" lon="5.26965">
        <ele>1324.6</ele>
        <time>2024-07-02T11:18:25Z</time>
      </trkpt>
      <trkpt lat="44.87228" lon="5.26965">
        <ele>1324.7</ele>
        <time>2024-07-02T11:18:26Z</time>
      </trkpt>
      <trkpt lat="44.87227" lon="5.26965">
        <ele>1324.8</ele>
        <time>2024-07-02T11:18:27Z</time>
      </trkpt>
      <trkpt lat="44.87226" lon="5.26966">
        <ele>1324.9</ele>
        <time>2024-07-02T11:18:28Z</time>
      </trkpt>
      <trkpt lat="44.87225" lon="5.26966">
        <ele>1325</ele>
        <time>2024-07-02T11:18:29Z</time>
      </trkpt>
      <trkpt lat="44.87224" lon="5.26966">
        <ele>1325.1</ele>
        <time>2024-07-02T11:18:30Z</time>
      </trkpt>
      <trkpt lat="44.87222" lon="5.26966">
        <ele>1325.2</ele>
        <time>2024-07-02T11:18:31Z</time>
      </trkpt>
      <trkpt lat="44.87222" lon="5.26966">
        <ele>1325.3</ele>
        <time>2024-07-02T11:18:32Z</time>
      </trkpt>
      <trkpt lat="44.8722" lon="5.26966">
        <ele>1325.4</ele>
        <time>2024-07-02T11:18:33Z</time>
      </trkpt>
      <trkpt lat="44.87219" lon="5.26966">
        <ele>1325.5</ele>
        <time>2024-07-02T11:18:34Z</time>
      </trkpt>
      <trkpt lat="44.87218" lon="5.26966">
        <ele>1325.6</ele>
        <time>2024-07-02T11:18:35Z</time>
      </trkpt>
      <trkpt lat="44.87217" lon="5.26966">
        <ele>1325.7</ele>
        <time>2024-07-02T11:18:36Z</time>
      </trkpt>
      <trkpt lat="44.87216" lon="5.26966">
        <ele>1325.7</ele>
        <time>2024-07-02T11:18:37Z</time>
      </trkpt>
      <trkpt lat="44.87215" lon="5.26966">
        <ele>1325.9</ele>
        <time>2024-07-02T11:18:38Z</time>
      </trkpt>
      <trkpt lat="44.87214" lon="5.26966">
        <ele>1325.9</ele>
        <time>2024-07-02T11:18:39Z</time>
      </trkpt>
      <trkpt lat="44.87213" lon="5.26965">
        <ele>1326</ele>
        <time>2024-07-02T11:18:40Z</time>
      </trkpt>
      <trkpt lat="44.87212" lon="5.26965">
        <ele>1326.1</ele>
        <time>2024-07-02T11:18:41Z</time>
      </trkpt>
      <trkpt lat="44.87212" lon="5.26964">
        <ele>1326.2</ele>
        <time>2024-07-02T11:18:42Z</time>
      </trkpt>
      <trkpt lat="44.87211" lon="5.26963">
        <ele>1326.3</ele>
        <time>2024-07-02T11:18:43Z</time>
      </trkpt>
      <trkpt lat="44.8721" lon="5.26962">
        <ele>1326.4</ele>
        <time>2024-07-02T11:18:44Z</time>
      </trkpt>
      <trkpt lat="44.87209" lon="5.26961">
        <ele>1326.5</ele>
        <time>2024-07-02T11:18:45Z</time>
      </trkpt>
      <trkpt lat="44.87208" lon="5.26961">
        <ele>1326.6</ele>
        <time>2024-07-02T11:18:46Z</time>
      </trkpt>
      <trkpt lat="44.87207" lon="5.26961">
        <ele>1326.7</ele>
        <time>2024-07-02T11:18:47Z</time>
      </trkpt>
      <trkpt lat="44.87206" lon="5.26961">
        <ele>1326.8</ele>
        <time>2024-07-02T11:18:48Z</time>
      </trkpt>
      <trkpt lat="44.87205" lon="5.26961">
        <ele>1326.9</ele>
        <time>2024-07-02T11:18:49Z</time>
      </trkpt>
      <trkpt lat="44.87204" lon="5.26961">
        <ele>1327</ele>
        <time>2024-07-02T11:18:50Z</time>
      </trkpt>
      <trkpt lat="44.87203" lon="5.26962">
        <ele>1327.1</ele>
        <time>2024-07-02T11:18:51Z</time>
      </trkpt>
      <trkpt lat="44.87202" lon="5.26962">
        <ele>1327.2</ele>
        <time>2024-07-02T11:18:52Z</time>
      </trkpt>
      <trkpt lat="44.87201" lon="5.26962">
        <ele>1327.3</ele>
        <time>2024-07-02T11:18:53Z</time>
      </trkpt>
      <trkpt lat="44.87199" lon="5.26962">
        <ele>1327.4</ele>
        <time>2024-07-02T11:18:54Z</time>
      </trkpt>
      <trkpt lat="44.87198" lon="5.26962">
        <ele>1327.5</ele>
        <time>2024-07-02T11:18:55Z</time>
      </trkpt>
      <trkpt lat="44.87197" lon="5.26962">
        <ele>1327.6</ele>
        <time>2024-07-02T11:18:56Z</time>
      </trkpt>
      <trkpt lat="44.87196" lon="5.26962">
        <ele>1327.7</ele>
        <time>2024-07-02T11:18:57Z</time>
      </trkpt>
      <trkpt lat="44.87195" lon="5.26962">
        <ele>1327.8</ele>
        <time>2024-07-02T11:18:58Z</time>
      </trkpt>
      <trkpt lat="44.87194" lon="5.26962">
        <ele>1327.9</ele>
        <time>2024-07-02T11:18:59Z</time>
      </trkpt>
      <trkpt lat="44.87192" lon="5.26962">
        <ele>1328</ele>
        <time>2024-07-02T11:19:00Z</time>
      </trkpt>
      <trkpt lat="44.87191" lon="5.26962">
        <ele>1328.1</ele>
        <time>2024-07-02T11:19:01Z</time>
      </trkpt>
      <trkpt lat="44.8719" lon="5.26963">
        <ele>1328.2</ele>
        <time>2024-07-02T11:19:02Z</time>
      </trkpt>
      <trkpt lat="44.87189" lon="5.26963">
        <ele>1328.3</ele>
        <time>2024-07-02T11:19:03Z</time>
      </trkpt>
      <trkpt lat="44.87188" lon="5.26963">
        <ele>1328.4</ele>
        <time>2024-07-02T11:19:04Z</time>
      </trkpt>
      <trkpt lat="44.87187" lon="5.26963">
        <ele>1328.5</ele>
        <time>2024-07-02T11:19:05Z</time>
      </trkpt>
      <trkpt lat="44.87185" lon="5.26963">
        <ele>1328.7</ele>
        <time>2024-07-02T11:19:06Z</time>
      </trkpt>
      <trkpt lat="44.87184" lon="5.26963">
        <ele>1328.7</ele>
        <time>2024-07-02T11:19:07Z</time>
      </trkpt>
      <trkpt lat="44.87183" lon="5.26963">
        <ele>1328.8</ele>
        <time>2024-07-02T11:19:08Z</time>
      </trkpt>
      <trkpt lat="44.87182" lon="5.26963">
        <ele>1328.9</ele>
        <time>2024-07-02T11:19:09Z</time>
      </trkpt>
      <trkpt lat="44.87181" lon="5.26964">
        <ele>1329</ele>
        <time>2024-07-02T11:19:10Z</time>
      </trkpt>
      <trkpt lat="44.8718" lon="5.26964">
        <ele>1329.1</ele>
        <time>2024-07-02T11:19:11Z</time>
      </trkpt>
      <trkpt lat="44.87179" lon="5.26964">
        <ele>1329.2</ele>
        <time>2024-07-02T11:19:12Z</time>
      </trkpt>
      <trkpt lat="44.87178" lon="5.26964">
        <ele>1329.3</ele>
        <time>2024-07-02T11:19:13Z</time>
      </trkpt>
      <trkpt lat="44.87177" lon="5.26964">
        <ele>1329.4</ele>
        <time>2024-07-02T11:19:14Z</time>
      </trkpt>
      <trkpt lat="44.87176" lon="5.26964">
        <ele>1329.5</ele>
        <time>2024-07-02T11:19:15Z</time>
      </trkpt>
      <trkpt lat="44.87175" lon="5.26964">
        <ele>1329.5</ele>
        <time>2024-07-02T11:19:16Z</time>
      </trkpt>
      <trkpt lat="44.87174" lon="5.26964">
        <ele>1329.6</ele>
        <time>2024-07-02T11:19:17Z</time>
      </trkpt>
      <trkpt lat="44.87173" lon="5.26965">
        <ele>1329.7</ele>
        <time>2024-07-02T11:19:18Z</time>
      </trkpt>
      <trkpt lat="44.87172" lon="5.26965">
        <ele>1329.8</ele>
        <time>2024-07-02T11:19:19Z</time>
      </trkpt>
      <trkpt lat="44.87171" lon="5.26965">
        <ele>1329.9</ele>
        <time>2024-07-02T11:19:20Z</time>
      </trkpt>
      <trkpt lat="44.8717" lon="5.26965">
        <ele>1330</ele>
        <time>2024-07-02T11:19:21Z</time>
      </trkpt>
      <trkpt lat="44.87169" lon="5.26965">
        <ele>1330.1</ele>
        <time>2024-07-02T11:19:22Z</time>
      </trkpt>
      <trkpt lat="44.87167" lon="5.26965">
        <ele>1330.1</ele>
        <time>2024-07-02T11:19:23Z</time>
      </trkpt>
      <trkpt lat="44.87166" lon="5.26965">
        <ele>1330.2</ele>
        <time>2024-07-02T11:19:24Z</time>
      </trkpt>
      <trkpt lat="44.87165" lon="5.26965">
        <ele>1330.3</ele>
        <time>2024-07-02T11:19:25Z</time>
      </trkpt>
      <trkpt lat="44.87164" lon="5.26965">
        <ele>1330.4</ele>
        <time>2024-07-02T11:19:26Z</time>
      </trkpt>
      <trkpt lat="44.87163" lon="5.26964">
        <ele>1330.5</ele>
        <time>2024-07-02T11:19:27Z</time>
      </trkpt>
      <trkpt lat="44.87162" lon="5.26964">
        <ele>1330.6</ele>
        <time>2024-07-02T11:19:28Z</time>
      </trkpt>
      <trkpt lat="44.87161" lon="5.26964">
        <ele>1330.6</ele>
        <time>2024-07-02T11:19:29Z</time>
      </trkpt>
      <trkpt lat="44.8716" lon="5.26964">
        <ele>1330.7</ele>
        <time>2024-07-02T11:19:30Z</time>
      </trkpt>
      <trkpt lat="44.8716" lon="5.26964">
        <ele>1330.8</ele>
        <time>2024-07-02T11:19:31Z</time>
      </trkpt>
      <trkpt lat="44.87159" lon="5.26964">
        <ele>1330.8</ele>
        <time>2024-07-02T11:19:32Z</time>
      </trkpt>
      <trkpt lat="44.87158" lon="5.26965">
        <ele>1330.9</ele>
        <time>2024-07-02T11:19:33Z</time>
      </trkpt>
      <trkpt lat="44.87157" lon="5.26965">
        <ele>1331</ele>
        <time>2024-07-02T11:19:34Z</time>
      </trkpt>
      <trkpt lat="44.87156" lon="5.26965">
        <ele>1331</ele>
        <time>2024-07-02T11:19:35Z</time>
      </trkpt>
      <trkpt lat="44.87155" lon="5.26965">
        <ele>1331.1</ele>
        <time>2024-07-02T11:19:36Z</time>
      </trkpt>
      <trkpt lat="44.87154" lon="5.26965">
        <ele>1331.2</ele>
        <time>2024-07-02T11:19:37Z</time>
      </trkpt>
      <trkpt lat="44.87153" lon="5.26965">
        <ele>1331.2</ele>
        <time>2024-07-02T11:19:38Z</time>
      </trkpt>
      <trkpt lat="44.87152" lon="5.26965">
        <ele>1331.3</ele>
        <time>2024-07-02T11:19:39Z</time>
      </trkpt>
      <trkpt lat="44.87151" lon="5.26965">
        <ele>1331.4</ele>
        <time>2024-07-02T11:19:40Z</time>
      </trkpt>
      <trkpt lat="44.8715" lon="5.26965">
        <ele>1331.5</ele>
        <time>2024-07-02T11:19:41Z</time>
      </trkpt>
      <trkpt lat="44.87149" lon="5.26965">
        <ele>1331.6</ele>
        <time>2024-07-02T11:19:42Z</time>
      </trkpt>
      <trkpt lat="44.87148" lon="5.26965">
        <ele>1331.7</ele>
        <time>2024-07-02T11:19:43Z</time>
      </trkpt>
      <trkpt lat="44.87147" lon="5.26965">
        <ele>1331.7</ele>
        <time>2024-07-02T11:19:44Z</time>
      </trkpt>
      <trkpt lat="44.87146" lon="5.26965">
        <ele>1331.8</ele>
        <time>2024-07-02T11:19:45Z</time>
      </trkpt>
      <trkpt lat="44.87146" lon="5.26966">
        <ele>1331.8</ele>
        <time>2024-07-02T11:19:46Z</time>
      </trkpt>
      <trkpt lat="44.87145" lon="5.26966">
        <ele>1331.9</ele>
        <time>2024-07-02T11:19:47Z</time>
      </trkpt>
      <trkpt lat="44.87144" lon="5.26966">
        <ele>1332</ele>
        <time>2024-07-02T11:19:48Z</time>
      </trkpt>
      <trkpt lat="44.87143" lon="5.26966">
        <ele>1332</ele>
        <time>2024-07-02T11:19:49Z</time>
      </trkpt>
      <trkpt lat="44.87142" lon="5.26966">
        <ele>1332.1</ele>
        <time>2024-07-02T11:19:50Z</time>
      </trkpt>
      <trkpt lat="44.87141" lon="5.26966">
        <ele>1332.2</ele>
        <time>2024-07-02T11:19:51Z</time>
      </trkpt>
      <trkpt lat="44.8714" lon="5.26966">
        <ele>1332.2</ele>
        <time>2024-07-02T11:19:52Z</time>
      </trkpt>
      <trkpt lat="44.87139" lon="5.26966">
        <ele>1332.3</ele>
        <time>2024-07-02T11:19:53Z</time>
      </trkpt>
      <trkpt lat="44.87138" lon="5.26967">
        <ele>1332.4</ele>
        <time>2024-07-02T11:19:54Z</time>
      </trkpt>
      <trkpt lat="44.87137" lon="5.26967">
        <ele>1332.5</ele>
        <time>2024-07-02T11:19:55Z</time>
      </trkpt>
      <trkpt lat="44.87136" lon="5.26967">
        <ele>1332.5</ele>
        <time>2024-07-02T11:19:56Z</time>
      </trkpt>
      <trkpt lat="44.87135" lon="5.26967">
        <ele>1332.6</ele>
        <time>2024-07-02T11:19:57Z</time>
      </trkpt>
      <trkpt lat="44.87134" lon="5.26967">
        <ele>1332.7</ele>
        <time>2024-07-02T11:19:58Z</time>
      </trkpt>
      <trkpt lat="44.87133" lon="5.26967">
        <ele>1332.8</ele>
        <time>2024-07-02T11:19:59Z</time>
      </trkpt>
      <trkpt lat="44.87132" lon="5.26968">
        <ele>1332.8</ele>
        <time>2024-07-02T11:20:00Z</time>
      </trkpt>
      <trkpt lat="44.87131" lon="5.26968">
        <ele>1332.9</ele>
        <time>2024-07-02T11:20:01Z</time>
      </trkpt>
      <trkpt lat="44.8713" lon="5.26969">
        <ele>1333</ele>
        <time>2024-07-02T11:20:02Z</time>
      </trkpt>
      <trkpt lat="44.87129" lon="5.26969">
        <ele>1333.1</ele>
        <time>2024-07-02T11:20:03Z</time>
      </trkpt>
      <trkpt lat="44.87128" lon="5.26969">
        <ele>1333.2</ele>
        <time>2024-07-02T11:20:04Z</time>
      </trkpt>
      <trkpt lat="44.87126" lon="5.2697">
        <ele>1333.3</ele>
        <time>2024-07-02T11:20:05Z</time>
      </trkpt>
      <trkpt lat="44.87125" lon="5.2697">
        <ele>1333.4</ele>
        <time>2024-07-02T11:20:06Z</time>
      </trkpt>
      <trkpt lat="44.87125" lon="5.2697">
        <ele>1333.4</ele>
        <time>2024-07-02T11:20:07Z</time>
      </trkpt>
      <trkpt lat="44.87124" lon="5.2697">
        <ele>1333.5</ele>
        <time>2024-07-02T11:20:08Z</time>
      </trkpt>
      <trkpt lat="44.87123" lon="5.2697">
        <ele>1333.6</ele>
        <time>2024-07-02T11:20:09Z</time>
      </trkpt>
      <trkpt lat="44.87122" lon="5.2697">
        <ele>1333.7</ele>
        <time>2024-07-02T11:20:10Z</time>
      </trkpt>
      <trkpt lat="44.87121" lon="5.2697">
        <ele>1333.7</ele>
        <time>2024-07-02T11:20:11Z</time>
      </trkpt>
      <trkpt lat="44.8712" lon="5.26971">
        <ele>1333.8</ele>
        <time>2024-07-02T11:20:12Z</time>
      </trkpt>
      <trkpt lat="44.87119" lon="5.26971">
        <ele>1333.9</ele>
        <time>2024-07-02T11:20:13Z</time>
      </trkpt>
      <trkpt lat="44.87118" lon="5.26971">
        <ele>1334</ele>
        <time>2024-07-02T11:20:14Z</time>
      </trkpt>
      <trkpt lat="44.87117" lon="5.26971">
        <ele>1334.1</ele>
        <time>2024-07-02T11:20:15Z</time>
      </trkpt>
      <trkpt lat="44.87116" lon="5.26971">
        <ele>1334.1</ele>
        <time>2024-07-02T11:20:16Z</time>
      </trkpt>
      <trkpt lat="44.87115" lon="5.26971">
        <ele>1334.2</ele>
        <time>2024-07-02T11:20:17Z</time>
      </trkpt>
      <trkpt lat="44.87114" lon="5.2697">
        <ele>1334.3</ele>
        <time>2024-07-02T11:20:18Z</time>
      </trkpt>
      <trkpt lat="44.87113" lon="5.2697">
        <ele>1334.4</ele>
        <time>2024-07-02T11:20:19Z</time>
      </trkpt>
      <trkpt lat="44.87112" lon="5.2697">
        <ele>1334.5</ele>
        <time>2024-07-02T11:20:20Z</time>
      </trkpt>
      <trkpt lat="44.87111" lon="5.2697">
        <ele>1334.5</ele>
        <time>2024-07-02T11:20:21Z</time>
      </trkpt>
      <trkpt lat="44.8711" lon="5.26971">
        <ele>1334.6</ele>
        <time>2024-07-02T11:20:22Z</time>
      </trkpt>
      <trkpt lat="44.87109" lon="5.26971">
        <ele>1334.7</ele>
        <time>2024-07-02T11:20:23Z</time>
      </trkpt>
      <trkpt lat="44.87108" lon="5.26971">
        <ele>1334.8</ele>
        <time>2024-07-02T11:20:24Z</time>
      </trkpt>
      <trkpt lat="44.87107" lon="5.26971">
        <ele>1334.9</ele>
        <time>2024-07-02T11:20:25Z</time>
      </trkpt>
      <trkpt lat="44.87106" lon="5.26972">
        <ele>1334.9</ele>
        <time>2024-07-02T11:20:26Z</time>
      </trkpt>
      <trkpt lat="44.87105" lon="5.26972">
        <ele>1335</ele>
        <time>2024-07-02T11:20:27Z</time>
      </trkpt>
      <trkpt lat="44.87104" lon="5.26972">
        <ele>1335.1</ele>
        <time>2024-07-02T11:20:28Z</time>
      </trkpt>
      <trkpt lat="44.87102" lon="5.26972">
        <ele>1335.2</ele>
        <time>2024-07-02T11:20:29Z</time>
      </trkpt>
      <trkpt lat="44.87101" lon="5.26973">
        <ele>1335.3</ele>
        <time>2024-07-02T11:20:30Z</time>
      </trkpt>
      <trkpt lat="44.871" lon="5.26972">
        <ele>1335.4</ele>
        <time>2024-07-02T11:20:31Z</time>
      </trkpt>
      <trkpt lat="44.87099" lon="5.26973">
        <ele>1335.5</ele>
        <time>2024-07-02T11:20:32Z</time>
      </trkpt>
      <trkpt lat="44.87098" lon="5.26972">
        <ele>1335.6</ele>
        <time>2024-07-02T11:20:33Z</time>
      </trkpt>
      <trkpt lat="44.87097" lon="5.26972">
        <ele>1335.7</ele>
        <time>2024-07-02T11:20:34Z</time>
      </trkpt>
      <trkpt lat="44.87095" lon="5.26972">
        <ele>1335.7</ele>
        <time>2024-07-02T11:20:35Z</time>
      </trkpt>
      <trkpt lat="44.87095" lon="5.26972">
        <ele>1335.8</ele>
        <time>2024-07-02T11:20:36Z</time>
      </trkpt>
      <trkpt lat="44.87094" lon="5.26973">
        <ele>1335.9</ele>
        <time>2024-07-02T11:20:37Z</time>
      </trkpt>
      <trkpt lat="44.87092" lon="5.26973">
        <ele>1336</ele>
        <time>2024-07-02T11:20:38Z</time>
      </trkpt>
      <trkpt lat="44.87091" lon="5.26973">
        <ele>1336.1</ele>
        <time>2024-07-02T11:20:39Z</time>
      </trkpt>
      <trkpt lat="44.8709" lon="5.26973">
        <ele>1336.1</ele>
        <time>2024-07-02T11:20:40Z</time>
      </trkpt>
      <trkpt lat="44.8709" lon="5.26973">
        <ele>1336.2</ele>
        <time>2024-07-02T11:20:41Z</time>
      </trkpt>
      <trkpt lat="44.87089" lon="5.26974">
        <ele>1336.3</ele>
        <time>2024-07-02T11:20:42Z</time>
      </trkpt>
      <trkpt lat="44.87088" lon="5.26974">
        <ele>1336.4</ele>
        <time>2024-07-02T11:20:43Z</time>
      </trkpt>
      <trkpt lat="44.87087" lon="5.26974">
        <ele>1336.4</ele>
        <time>2024-07-02T11:20:44Z</time>
      </trkpt>
      <trkpt lat="44.87086" lon="5.26974">
        <ele>1336.5</ele>
        <time>2024-07-02T11:20:45Z</time>
      </trkpt>
      <trkpt lat="44.87085" lon="5.26974">
        <ele>1336.6</ele>
        <time>2024-07-02T11:20:46Z</time>
      </trkpt>
      <trkpt lat="44.87084" lon="5.26974">
        <ele>1336.6</ele>
        <time>2024-07-02T11:20:47Z</time>
      </trkpt>
      <trkpt lat="44.87083" lon="5.26974">
        <ele>1336.7</ele>
        <time>2024-07-02T11:20:48Z</time>
      </trkpt>
      <trkpt lat="44.87082" lon="5.26975">
        <ele>1336.8</ele>
        <time>2024-07-02T11:20:49Z</time>
      </trkpt>
      <trkpt lat="44.87081" lon="5.26975">
        <ele>1336.8</ele>
        <time>2024-07-02T11:20:50Z</time>
      </trkpt>
      <trkpt lat="44.8708" lon="5.26975">
        <ele>1336.9</ele>
        <time>2024-07-02T11:20:51Z</time>
      </trkpt>
      <trkpt lat="44.87079" lon="5.26975">
        <ele>1337</ele>
        <time>2024-07-02T11:20:52Z</time>
      </trkpt>
      <trkpt lat="44.87078" lon="5.26975">
        <ele>1337.1</ele>
        <time>2024-07-02T11:20:53Z</time>
      </trkpt>
      <trkpt lat="44.87077" lon="5.26975">
        <ele>1337.1</ele>
        <time>2024-07-02T11:20:54Z</time>
      </trkpt>
      <trkpt lat="44.87076" lon="5.26975">
        <ele>1337.2</ele>
        <time>2024-07-02T11:20:55Z</time>
      </trkpt>
      <trkpt lat="44.87075" lon="5.26975">
        <ele>1337.3</ele>
        <time>2024-07-02T11:20:56Z</time>
      </trkpt>
      <trkpt lat="44.87073" lon="5.26975">
        <ele>1337.4</ele>
        <time>2024-07-02T11:20:57Z</time>
      </trkpt>
      <trkpt lat="44.87072" lon="5.26975">
        <ele>1337.4</ele>
        <time>2024-07-02T11:20:58Z</time>
      </trkpt>
      <trkpt lat="44.87072" lon="5.26975">
        <ele>1337.5</ele>
        <time>2024-07-02T11:20:59Z</time>
      </trkpt>
      <trkpt lat="44.87071" lon="5.26975">
        <ele>1337.6</ele>
        <time>2024-07-02T11:21:00Z</time>
      </trkpt>
      <trkpt lat="44.8707" lon="5.26975">
        <ele>1337.6</ele>
        <time>2024-07-02T11:21:01Z</time>
      </trkpt>
      <trkpt lat="44.87069" lon="5.26976">
        <ele>1337.7</ele>
        <time>2024-07-02T11:21:02Z</time>
      </trkpt>
      <trkpt lat="44.87068" lon="5.26976">
        <ele>1337.8</ele>
        <time>2024-07-02T11:21:03Z</time>
      </trkpt>
      <trkpt lat="44.87067" lon="5.26976">
        <ele>1337.8</ele>
        <time>2024-07-02T11:21:04Z</time>
      </trkpt>
      <trkpt lat="44.87065" lon="5.26976">
        <ele>1338</ele>
        <time>2024-07-02T11:21:05Z</time>
      </trkpt>
      <trkpt lat="44.87065" lon="5.26976">
        <ele>1338</ele>
        <time>2024-07-02T11:21:06Z</time>
      </trkpt>
      <trkpt lat="44.87064" lon="5.26976">
        <ele>1338.1</ele>
        <time>2024-07-02T11:21:07Z</time>
      </trkpt>
      <trkpt lat="44.87063" lon="5.26976">
        <ele>1338.1</ele>
        <time>2024-07-02T11:21:08Z</time>
      </trkpt>
      <trkpt lat="44.87062" lon="5.26976">
        <ele>1338.2</ele>
        <time>2024-07-02T11:21:09Z</time>
      </trkpt>
      <trkpt lat="44.87061" lon="5.26976">
        <ele>1338.3</ele>
        <time>2024-07-02T11:21:10Z</time>
      </trkpt>
      <trkpt lat="44.8706" lon="5.26976">
        <ele>1338.3</ele>
        <time>2024-07-02T11:21:11Z</time>
      </trkpt>
      <trkpt lat="44.87059" lon="5.26976">
        <ele>1338.4</ele>
        <time>2024-07-02T11:21:12Z</time>
      </trkpt>
      <trkpt lat="44.87058" lon="5.26976">
        <ele>1338.5</ele>
        <time>2024-07-02T11:21:13Z</time>
      </trkpt>
      <trkpt lat="44.87057" lon="5.26976">
        <ele>1338.5</ele>
        <time>2024-07-02T11:21:14Z</time>
      </trkpt>
      <trkpt lat="44.87056" lon="5.26976">
        <ele>1338.6</ele>
        <time>2024-07-02T11:21:15Z</time>
      </trkpt>
      <trkpt lat="44.87055" lon="5.26976">
        <ele>1338.7</ele>
        <time>2024-07-02T11:21:16Z</time>
      </trkpt>
      <trkpt lat="44.87054" lon="5.26976">
        <ele>1338.8</ele>
        <time>2024-07-02T11:21:17Z</time>
      </trkpt>
      <trkpt lat="44.87053" lon="5.26976">
        <ele>1338.8</ele>
        <time>2024-07-02T11:21:18Z</time>
      </trkpt>
      <trkpt lat="44.87052" lon="5.26976">
        <ele>1338.9</ele>
        <time>2024-07-02T11:21:19Z</time>
      </trkpt>
      <trkpt lat="44.87051" lon="5.26976">
        <ele>1339</ele>
        <time>2024-07-02T11:21:20Z</time>
      </trkpt>
      <trkpt lat="44.8705" lon="5.26976">
        <ele>1339</ele>
        <time>2024-07-02T11:21:21Z</time>
      </trkpt>
      <trkpt lat="44.87049" lon="5.26976">
        <ele>1339.1</ele>
        <time>2024-07-02T11:21:22Z</time>
      </trkpt>
      <trkpt lat="44.87048" lon="5.26976">
        <ele>1339.2</ele>
        <time>2024-07-02T11:21:23Z</time>
      </trkpt>
      <trkpt lat="44.87047" lon="5.26975">
        <ele>1339.2</ele>
        <time>2024-07-02T11:21:24Z</time>
      </trkpt>
      <trkpt lat="44.87046" lon="5.26975">
        <ele>1339.3</ele>
        <time>2024-07-02T11:21:25Z</time>
      </trkpt>
      <trkpt lat="44.87045" lon="5.26975">
        <ele>1339.4</ele>
        <time>2024-07-02T11:21:26Z</time>
      </trkpt>
      <trkpt lat="44.87044" lon="5.26975">
        <ele>1339.4</ele>
        <time>2024-07-02T11:21:27Z</time>
      </trkpt>
      <trkpt lat="44.87043" lon="5.26975">
        <ele>1339.5</ele>
        <time>2024-07-02T11:21:28Z</time>
      </trkpt>
      <trkpt lat="44.87042" lon="5.26975">
        <ele>1339.6</ele>
        <time>2024-07-02T11:21:29Z</time>
      </trkpt>
      <trkpt lat="44.87041" lon="5.26975">
        <ele>1339.6</ele>
        <time>2024-07-02T11:21:30Z</time>
      </trkpt>
      <trkpt lat="44.8704" lon="5.26975">
        <ele>1339.7</ele>
        <time>2024-07-02T11:21:31Z</time>
      </trkpt>
      <trkpt lat="44.87039" lon="5.26974">
        <ele>1339.8</ele>
        <time>2024-07-02T11:21:32Z</time>
      </trkpt>
      <trkpt lat="44.87038" lon="5.26974">
        <ele>1339.8</ele>
        <time>2024-07-02T11:21:33Z</time>
      </trkpt>
      <trkpt lat="44.87037" lon="5.26974">
        <ele>1339.9</ele>
        <time>2024-07-02T11:21:34Z</time>
      </trkpt>
      <trkpt lat="44.87036" lon="5.26974">
        <ele>1340</ele>
        <time>2024-07-02T11:21:35Z</time>
      </trkpt>
      <trkpt lat="44.87035" lon="5.26974">
        <ele>1340</ele>
        <time>2024-07-02T11:21:36Z</time>
      </trkpt>
      <trkpt lat="44.87034" lon="5.26974">
        <ele>1340.1</ele>
        <time>2024-07-02T11:21:37Z</time>
      </trkpt>
      <trkpt lat="44.87033" lon="5.26974">
        <ele>1340.2</ele>
        <time>2024-07-02T11:21:38Z</time>
      </trkpt>
      <trkpt lat="44.87032" lon="5.26974">
        <ele>1340.3</ele>
        <time>2024-07-02T11:21:39Z</time>
      </trkpt>
      <trkpt lat="44.87031" lon="5.26975">
        <ele>1340.3</ele>
        <time>2024-07-02T11:21:40Z</time>
      </trkpt>
      <trkpt lat="44.8703" lon="5.26975">
        <ele>1340.4</ele>
        <time>2024-07-02T11:21:41Z</time>
      </trkpt>
      <trkpt lat="44.87028" lon="5.26975">
        <ele>1340.6</ele>
        <time>2024-07-02T11:21:42Z</time>
      </trkpt>
      <trkpt lat="44.87027" lon="5.26975">
        <ele>1340.6</ele>
        <time>2024-07-02T11:21:43Z</time>
      </trkpt>
      <trkpt lat="44.87026" lon="5.26975">
        <ele>1340.7</ele>
        <time>2024-07-02T11:21:44Z</time>
      </trkpt>
      <trkpt lat="44.87026" lon="5.26975">
        <ele>1340.7</ele>
        <time>2024-07-02T11:21:45Z</time>
      </trkpt>
      <trkpt lat="44.87025" lon="5.26975">
        <ele>1340.8</ele>
        <time>2024-07-02T11:21:46Z</time>
      </trkpt>
      <trkpt lat="44.87024" lon="5.26976">
        <ele>1340.9</ele>
        <time>2024-07-02T11:21:47Z</time>
      </trkpt>
      <trkpt lat="44.87023" lon="5.26976">
        <ele>1340.9</ele>
        <time>2024-07-02T11:21:48Z</time>
      </trkpt>
      <trkpt lat="44.87022" lon="5.26976">
        <ele>1341</ele>
        <time>2024-07-02T11:21:49Z</time>
      </trkpt>
      <trkpt lat="44.87022" lon="5.26976">
        <ele>1341.1</ele>
        <time>2024-07-02T11:21:50Z</time>
      </trkpt>
      <trkpt lat="44.87021" lon="5.26976">
        <ele>1341.2</ele>
        <time>2024-07-02T11:21:51Z</time>
      </trkpt>
      <trkpt lat="44.8702" lon="5.26977">
        <ele>1341.2</ele>
        <time>2024-07-02T11:21:52Z</time>
      </trkpt>
      <trkpt lat="44.87019" lon="5.26977">
        <ele>1341.3</ele>
        <time>2024-07-02T11:21:53Z</time>
      </trkpt>
      <trkpt lat="44.87018" lon="5.26977">
        <ele>1341.4</ele>
        <time>2024-07-02T11:21:54Z</time>
      </trkpt>
      <trkpt lat="44.87017" lon="5.26977">
        <ele>1341.5</ele>
        <time>2024-07-02T11:21:55Z</time>
      </trkpt>
      <trkpt lat="44.87016" lon="5.26977">
        <ele>1341.5</ele>
        <time>2024-07-02T11:21:56Z</time>
      </trkpt>
      <trkpt lat="44.87015" lon="5.26977">
        <ele>1341.6</ele>
        <time>2024-07-02T11:21:57Z</time>
      </trkpt>
      <trkpt lat="44.87014" lon="5.26978">
        <ele>1341.7</ele>
        <time>2024-07-02T11:21:58Z</time>
      </trkpt>
      <trkpt lat="44.87013" lon="5.26978">
        <ele>1341.8</ele>
        <time>2024-07-02T11:21:59Z</time>
      </trkpt>
      <trkpt lat="44.87012" lon="5.26978">
        <ele>1341.8</ele>
        <time>2024-07-02T11:22:00Z</time>
      </trkpt>
      <trkpt lat="44.87011" lon="5.26978">
        <ele>1341.9</ele>
        <time>2024-07-02T11:22:01Z</time>
      </trkpt>
      <trkpt lat="44.8701" lon="5.26979">
        <ele>1342</ele>
        <time>2024-07-02T11:22:02Z</time>
      </trkpt>
      <trkpt lat="44.8701" lon="5.26979">
        <ele>1342</ele>
        <time>2024-07-02T11:22:03Z</time>
      </trkpt>
      <trkpt lat="44.87008" lon="5.26979">
        <ele>1342.1</ele>
        <time>2024-07-02T11:22:04Z</time>
      </trkpt>
      <trkpt lat="44.87007" lon="5.26979">
        <ele>1342.2</ele>
        <time>2024-07-02T11:22:05Z</time>
      </trkpt>
      <trkpt lat="44.87007" lon="5.26979">
        <ele>1342.3</ele>
        <time>2024-07-02T11:22:06Z</time>
      </trkpt>
      <trkpt lat="44.87006" lon="5.26979">
        <ele>1342.3</ele>
        <time>2024-07-02T11:22:07Z</time>
      </trkpt>
      <trkpt lat="44.87005" lon="5.26979">
        <ele>1342.4</ele>
        <time>2024-07-02T11:22:08Z</time>
      </trkpt>
      <trkpt lat="44.87003" lon="5.26979">
        <ele>1342.5</ele>
        <time>2024-07-02T11:22:09Z</time>
      </trkpt>
      <trkpt lat="44.87002" lon="5.26979">
        <ele>1342.6</ele>
        <time>2024-07-02T11:22:10Z</time>
      </trkpt>
      <trkpt lat="44.87001" lon="5.26979">
        <ele>1342.7</ele>
        <time>2024-07-02T11:22:11Z</time>
      </trkpt>
      <trkpt lat="44.87" lon="5.26979">
        <ele>1342.7</ele>
        <time>2024-07-02T11:22:12Z</time>
      </trkpt>
      <trkpt lat="44.86999" lon="5.26979">
        <ele>1342.8</ele>
        <time>2024-07-02T11:22:13Z</time>
      </trkpt>
      <trkpt lat="44.86998" lon="5.26979">
        <ele>1342.9</ele>
        <time>2024-07-02T11:22:14Z</time>
      </trkpt>
      <trkpt lat="44.86997" lon="5.26979">
        <ele>1343</ele>
        <time>2024-07-02T11:22:15Z</time>
      </trkpt>
      <trkpt lat="44.86996" lon="5.26978">
        <ele>1343.1</ele>
        <time>2024-07-02T11:22:16Z</time>
      </trkpt>
      <trkpt lat="44.86995" lon="5.26978">
        <ele>1343.1</ele>
        <time>2024-07-02T11:22:17Z</time>
      </trkpt>
      <trkpt lat="44.86994" lon="5.26978">
        <ele>1343.2</ele>
        <time>2024-07-02T11:22:18Z</time>
      </trkpt>
      <trkpt lat="44.86992" lon="5.26978">
        <ele>1343.3</ele>
        <time>2024-07-02T11:22:19Z</time>
      </trkpt>
      <trkpt lat="44.86992" lon="5.26978">
        <ele>1343.4</ele>
        <time>2024-07-02T11:22:20Z</time>
      </trkpt>
      <trkpt lat="44.86991" lon="5.26978">
        <ele>1343.4</ele>
        <time>2024-07-02T11:22:21Z</time>
      </trkpt>
      <trkpt lat="44.86989" lon="5.26978">
        <ele>1343.5</ele>
        <time>2024-07-02T11:22:22Z</time>
      </trkpt>
      <trkpt lat="44.86988" lon="5.26978">
        <ele>1343.6</ele>
        <time>2024-07-02T11:22:23Z</time>
      </trkpt>
      <trkpt lat="44.86987" lon="5.26978">
        <ele>1343.7</ele>
        <time>2024-07-02T11:22:24Z</time>
      </trkpt>
      <trkpt lat="44.86986" lon="5.26978">
        <ele>1343.7</ele>
        <time>2024-07-02T11:22:25Z</time>
      </trkpt>
      <trkpt lat="44.86986" lon="5.26978">
        <ele>1343.8</ele>
        <time>2024-07-02T11:22:26Z</time>
      </trkpt>
      <trkpt lat="44.86984" lon="5.26978">
        <ele>1343.9</ele>
        <time>2024-07-02T11:22:27Z</time>
      </trkpt>
      <trkpt lat="44.86984" lon="5.26978">
        <ele>1343.9</ele>
        <time>2024-07-02T11:22:28Z</time>
      </trkpt>
      <trkpt lat="44.86983" lon="5.26978">
        <ele>1344</ele>
        <time>2024-07-02T11:22:29Z</time>
      </trkpt>
      <trkpt lat="44.86981" lon="5.26978">
        <ele>1344.1</ele>
        <time>2024-07-02T11:22:30Z</time>
      </trkpt>
      <trkpt lat="44.86981" lon="5.26978">
        <ele>1344.1</ele>
        <time>2024-07-02T11:22:31Z</time>
      </trkpt>
      <trkpt lat="44.8698" lon="5.26978">
        <ele>1344.2</ele>
        <time>2024-07-02T11:22:32Z</time>
      </trkpt>
      <trkpt lat="44.86979" lon="5.26978">
        <ele>1344.3</ele>
        <time>2024-07-02T11:22:33Z</time>
      </trkpt>
      <trkpt lat="44.86977" lon="5.26978">
        <ele>1344.4</ele>
        <time>2024-07-02T11:22:34Z</time>
      </trkpt>
      <trkpt lat="44.86976" lon="5.26978">
        <ele>1344.4</ele>
        <time>2024-07-02T11:22:35Z</time>
      </trkpt>
      <trkpt lat="44.86975" lon="5.26978">
        <ele>1344.5</ele>
        <time>2024-07-02T11:22:36Z</time>
      </trkpt>
      <trkpt lat="44.86973" lon="5.26978">
        <ele>1344.7</ele>
        <time>2024-07-02T11:22:37Z</time>
      </trkpt>
      <trkpt lat="44.86972" lon="5.26978">
        <ele>1344.7</ele>
        <time>2024-07-02T11:22:38Z</time>
      </trkpt>
      <trkpt lat="44.86972" lon="5.26978">
        <ele>1344.8</ele>
        <time>2024-07-02T11:22:39Z</time>
      </trkpt>
      <trkpt lat="44.86971" lon="5.26979">
        <ele>1344.9</ele>
        <time>2024-07-02T11:22:40Z</time>
      </trkpt>
      <trkpt lat="44.8697" lon="5.26979">
        <ele>1344.9</ele>
        <time>2024-07-02T11:22:41Z</time>
      </trkpt>
      <trkpt lat="44.86969" lon="5.26979">
        <ele>1345</ele>
        <time>2024-07-02T11:22:42Z</time>
      </trkpt>
      <trkpt lat="44.86968" lon="5.26979">
        <ele>1345.1</ele>
        <time>2024-07-02T11:22:43Z</time>
      </trkpt>
      <trkpt lat="44.86967" lon="5.26979">
        <ele>1345.2</ele>
        <time>2024-07-02T11:22:44Z</time>
      </trkpt>
      <trkpt lat="44.86966" lon="5.26979">
        <ele>1345.2</ele>
        <time>2024-07-02T11:22:45Z</time>
      </trkpt>
      <trkpt lat="44.86965" lon="5.26979">
        <ele>1345.3</ele>
        <time>2024-07-02T11:22:46Z</time>
      </trkpt>
      <trkpt lat="44.86964" lon="5.26979">
        <ele>1345.4</ele>
        <time>2024-07-02T11:22:47Z</time>
      </trkpt>
      <trkpt lat="44.86963" lon="5.2698">
        <ele>1345.5</ele>
        <time>2024-07-02T11:22:48Z</time>
      </trkpt>
      <trkpt lat="44.86961" lon="5.2698">
        <ele>1345.6</ele>
        <time>2024-07-02T11:22:49Z</time>
      </trkpt>
      <trkpt lat="44.86961" lon="5.2698">
        <ele>1345.6</ele>
        <time>2024-07-02T11:22:50Z</time>
      </trkpt>
      <trkpt lat="44.8696" lon="5.2698">
        <ele>1345.7</ele>
        <time>2024-07-02T11:22:51Z</time>
      </trkpt>
      <trkpt lat="44.86959" lon="5.2698">
        <ele>1345.8</ele>
        <time>2024-07-02T11:22:52Z</time>
      </trkpt>
      <trkpt lat="44.86958" lon="5.26979">
        <ele>1345.9</ele>
        <time>2024-07-02T11:22:53Z</time>
      </trkpt>
      <trkpt lat="44.86957" lon="5.26979">
        <ele>1345.9</ele>
        <time>2024-07-02T11:22:54Z</time>
      </trkpt>
      <trkpt lat="44.86956" lon="5.26979">
        <ele>1346</ele>
        <time>2024-07-02T11:22:55Z</time>
      </trkpt>
      <trkpt lat="44.86955" lon="5.26979">
        <ele>1346.1</ele>
        <time>2024-07-02T11:22:56Z</time>
      </trkpt>
      <trkpt lat="44.86954" lon="5.26979">
        <ele>1346.2</ele>
        <time>2024-07-02T11:22:57Z</time>
      </trkpt>
      <trkpt lat="44.86953" lon="5.26979">
        <ele>1346.3</ele>
        <time>2024-07-02T11:22:58Z</time>
      </trkpt>
      <trkpt lat="44.86952" lon="5.26979">
        <ele>1346.4</ele>
        <time>2024-07-02T11:22:59Z</time>
      </trkpt>
      <trkpt lat="44.86951" lon="5.26979">
        <ele>1346.5</ele>
        <time>2024-07-02T11:23:00Z</time>
      </trkpt>
      <trkpt lat="44.8695" lon="5.26979">
        <ele>1346.5</ele>
        <time>2024-07-02T11:23:01Z</time>
      </trkpt>
      <trkpt lat="44.86948" lon="5.26979">
        <ele>1346.6</ele>
        <time>2024-07-02T11:23:02Z</time>
      </trkpt>
      <trkpt lat="44.86947" lon="5.26979">
        <ele>1346.7</ele>
        <time>2024-07-02T11:23:03Z</time>
      </trkpt>
      <trkpt lat="44.86946" lon="5.26979">
        <ele>1346.9</ele>
        <time>2024-07-02T11:23:04Z</time>
      </trkpt>
      <trkpt lat="44.86945" lon="5.26979">
        <ele>1346.9</ele>
        <time>2024-07-02T11:23:05Z</time>
      </trkpt>
      <trkpt lat="44.86944" lon="5.26979">
        <ele>1347</ele>
        <time>2024-07-02T11:23:06Z</time>
      </trkpt>
      <trkpt lat="44.86942" lon="5.26979">
        <ele>1347.2</ele>
        <time>2024-07-02T11:23:07Z</time>
      </trkpt>
      <trkpt lat="44.86941" lon="5.26979">
        <ele>1347.3</ele>
        <time>2024-07-02T11:23:08Z</time>
      </trkpt>
      <trkpt lat="44.8694" lon="5.26979">
        <ele>1347.4</ele>
        <time>2024-07-02T11:23:09Z</time>
      </trkpt>
      <trkpt lat="44.86939" lon="5.26979">
        <ele>1347.5</ele>
        <time>2024-07-02T11:23:10Z</time>
      </trkpt>
      <trkpt lat="44.86938" lon="5.26979">
        <ele>1347.6</ele>
        <time>2024-07-02T11:23:11Z</time>
      </trkpt>
      <trkpt lat="44.86937" lon="5.26979">
        <ele>1347.6</ele>
        <time>2024-07-02T11:23:12Z</time>
      </trkpt>
      <trkpt lat="44.86936" lon="5.26978">
        <ele>1347.8</ele>
        <time>2024-07-02T11:23:13Z</time>
      </trkpt>
      <trkpt lat="44.86935" lon="5.26978">
        <ele>1347.8</ele>
        <time>2024-07-02T11:23:14Z</time>
      </trkpt>
      <trkpt lat="44.86934" lon="5.26978">
        <ele>1348</ele>
        <time>2024-07-02T11:23:15Z</time>
      </trkpt>
      <trkpt lat="44.86933" lon="5.26978">
        <ele>1348</ele>
        <time>2024-07-02T11:23:16Z</time>
      </trkpt>
      <trkpt lat="44.86932" lon="5.26978">
        <ele>1348.1</ele>
        <time>2024-07-02T11:23:17Z</time>
      </trkpt>
      <trkpt lat="44.86931" lon="5.26978">
        <ele>1348.2</ele>
        <time>2024-07-02T11:23:18Z</time>
      </trkpt>
      <trkpt lat="44.86929" lon="5.26978">
        <ele>1348.3</ele>
        <time>2024-07-02T11:23:19Z</time>
      </trkpt>
      <trkpt lat="44.86928" lon="5.26978">
        <ele>1348.4</ele>
        <time>2024-07-02T11:23:20Z</time>
      </trkpt>
      <trkpt lat="44.86927" lon="5.26978">
        <ele>1348.5</ele>
        <time>2024-07-02T11:23:21Z</time>
      </trkpt>
      <trkpt lat="44.86925" lon="5.26978">
        <ele>1348.7</ele>
        <time>2024-07-02T11:23:22Z</time>
      </trkpt>
      <trkpt lat="44.86924" lon="5.26978">
        <ele>1348.8</ele>
        <time>2024-07-02T11:23:23Z</time>
      </trkpt>
      <trkpt lat="44.86923" lon="5.26978">
        <ele>1348.9</ele>
        <time>2024-07-02T11:23:24Z</time>
      </trkpt>
      <trkpt lat="44.86923" lon="5.26978">
        <ele>1348.9</ele>
        <time>2024-07-02T11:23:25Z</time>
      </trkpt>
      <trkpt lat="44.86922" lon="5.26979">
        <ele>1349</ele>
        <time>2024-07-02T11:23:26Z</time>
      </trkpt>
      <trkpt lat="44.86921" lon="5.26979">
        <ele>1349.1</ele>
        <time>2024-07-02T11:23:27Z</time>
      </trkpt>
      <trkpt lat="44.8692" lon="5.26979">
        <ele>1349.2</ele>
        <time>2024-07-02T11:23:28Z</time>
      </trkpt>
      <trkpt lat="44.86919" lon="5.26979">
        <ele>1349.3</ele>
        <time>2024-07-02T11:23:29Z</time>
      </trkpt>
      <trkpt lat="44.86918" lon="5.26979">
        <ele>1349.4</ele>
        <time>2024-07-02T11:23:30Z</time>
      </trkpt>
      <trkpt lat="44.86917" lon="5.26979">
        <ele>1349.4</ele>
        <time>2024-07-02T11:23:31Z</time>
      </trkpt>
      <trkpt lat="44.86916" lon="5.26978">
        <ele>1349.5</ele>
        <time>2024-07-02T11:23:32Z</time>
      </trkpt>
      <trkpt lat="44.86915" lon="5.26978">
        <ele>1349.6</ele>
        <time>2024-07-02T11:23:33Z</time>
      </trkpt>
      <trkpt lat="44.86914" lon="5.26978">
        <ele>1349.7</ele>
        <time>2024-07-02T11:23:34Z</time>
      </trkpt>
      <trkpt lat="44.86913" lon="5.26978">
        <ele>1349.8</ele>
        <time>2024-07-02T11:23:35Z</time>
      </trkpt>
      <trkpt lat="44.86912" lon="5.26978">
        <ele>1349.9</ele>
        <time>2024-07-02T11:23:36Z</time>
      </trkpt>
      <trkpt lat="44.86911" lon="5.26978">
        <ele>1350</ele>
        <time>2024-07-02T11:23:37Z</time>
      </trkpt>
      <trkpt lat="44.8691" lon="5.26978">
        <ele>1350.1</ele>
        <time>2024-07-02T11:23:38Z</time>
      </trkpt>
      <trkpt lat="44.86909" lon="5.26978">
        <ele>1350.2</ele>
        <time>2024-07-02T11:23:39Z</time>
      </trkpt>
      <trkpt lat="44.86908" lon="5.26978">
        <ele>1350.3</ele>
        <time>2024-07-02T11:23:40Z</time>
      </trkpt>
      <trkpt lat="44.86907" lon="5.26978">
        <ele>1350.4</ele>
        <time>2024-07-02T11:23:41Z</time>
      </trkpt>
      <trkpt lat="44.86906" lon="5.26978">
        <ele>1350.5</ele>
        <time>2024-07-02T11:23:42Z</time>
      </trkpt>
      <trkpt lat="44.86905" lon="5.26978">
        <ele>1350.6</ele>
        <time>2024-07-02T11:23:43Z</time>
      </trkpt>
      <trkpt lat="44.86903" lon="5.26979">
        <ele>1350.7</ele>
        <time>2024-07-02T11:23:44Z</time>
      </trkpt>
      <trkpt lat="44.86903" lon="5.26979">
        <ele>1350.7</ele>
        <time>2024-07-02T11:23:45Z</time>
      </trkpt>
      <trkpt lat="44.86902" lon="5.26979">
        <ele>1350.8</ele>
        <time>2024-07-02T11:23:46Z</time>
      </trkpt>
      <trkpt lat="44.86901" lon="5.2698">
        <ele>1350.9</ele>
        <time>2024-07-02T11:23:47Z</time>
      </trkpt>
      <trkpt lat="44.869" lon="5.2698">
        <ele>1351</ele>
        <time>2024-07-02T11:23:48Z</time>
      </trkpt>
      <trkpt lat="44.86899" lon="5.26981">
        <ele>1351.1</ele>
        <time>2024-07-02T11:23:49Z</time>
      </trkpt>
      <trkpt lat="44.86898" lon="5.26981">
        <ele>1351.2</ele>
        <time>2024-07-02T11:23:50Z</time>
      </trkpt>
      <trkpt lat="44.86897" lon="5.26981">
        <ele>1351.3</ele>
        <time>2024-07-02T11:23:51Z</time>
      </trkpt>
      <trkpt lat="44.86897" lon="5.26981">
        <ele>1351.3</ele>
        <time>2024-07-02T11:23:52Z</time>
      </trkpt>
      <trkpt lat="44.86896" lon="5.26982">
        <ele>1351.4</ele>
        <time>2024-07-02T11:23:53Z</time>
      </trkpt>
      <trkpt lat="44.86894" lon="5.26982">
        <ele>1351.6</ele>
        <time>2024-07-02T11:23:54Z</time>
      </trkpt>
      <trkpt lat="44.86893" lon="5.26982">
        <ele>1351.7</ele>
        <time>2024-07-02T11:23:55Z</time>
      </trkpt>
      <trkpt lat="44.86892" lon="5.26982">
        <ele>1351.8</ele>
        <time>2024-07-02T11:23:56Z</time>
      </trkpt>
      <trkpt lat="44.86891" lon="5.26982">
        <ele>1351.8</ele>
        <time>2024-07-02T11:23:57Z</time>
      </trkpt>
      <trkpt lat="44.8689" lon="5.26982">
        <ele>1351.9</ele>
        <time>2024-07-02T11:23:58Z</time>
      </trkpt>
      <trkpt lat="44.86889" lon="5.26982">
        <ele>1352</ele>
        <time>2024-07-02T11:23:59Z</time>
      </trkpt>
      <trkpt lat="44.86888" lon="5.26982">
        <ele>1352.1</ele>
        <time>2024-07-02T11:24:00Z</time>
      </trkpt>
      <trkpt lat="44.86888" lon="5.26982">
        <ele>1352.2</ele>
        <time>2024-07-02T11:24:01Z</time>
      </trkpt>
      <trkpt lat="44.86887" lon="5.26982">
        <ele>1352.2</ele>
        <time>2024-07-02T11:24:02Z</time>
      </trkpt>
      <trkpt lat="44.86886" lon="5.26983">
        <ele>1352.3</ele>
        <time>2024-07-02T11:24:03Z</time>
      </trkpt>
      <trkpt lat="44.86885" lon="5.26983">
        <ele>1352.4</ele>
        <time>2024-07-02T11:24:04Z</time>
      </trkpt>
      <trkpt lat="44.86884" lon="5.26983">
        <ele>1352.5</ele>
        <time>2024-07-02T11:24:05Z</time>
      </trkpt>
      <trkpt lat="44.86883" lon="5.26984">
        <ele>1352.6</ele>
        <time>2024-07-02T11:24:06Z</time>
      </trkpt>
      <trkpt lat="44.86882" lon="5.26984">
        <ele>1352.7</ele>
        <time>2024-07-02T11:24:07Z</time>
      </trkpt>
      <trkpt lat="44.86881" lon="5.26984">
        <ele>1352.7</ele>
        <time>2024-07-02T11:24:08Z</time>
      </trkpt>
      <trkpt lat="44.8688" lon="5.26984">
        <ele>1352.9</ele>
        <time>2024-07-02T11:24:09Z</time>
      </trkpt>
      <trkpt lat="44.8688" lon="5.26984">
        <ele>1352.9</ele>
        <time>2024-07-02T11:24:10Z</time>
      </trkpt>
      <trkpt lat="44.86879" lon="5.26984">
        <ele>1353</ele>
        <time>2024-07-02T11:24:11Z</time>
      </trkpt>
      <trkpt lat="44.86878" lon="5.26984">
        <ele>1353.1</ele>
        <time>2024-07-02T11:24:12Z</time>
      </trkpt>
      <trkpt lat="44.86877" lon="5.26984">
        <ele>1353.2</ele>
        <time>2024-07-02T11:24:13Z</time>
      </trkpt>
      <trkpt lat="44.86875" lon="5.26985">
        <ele>1353.3</ele>
        <time>2024-07-02T11:24:14Z</time>
      </trkpt>
      <trkpt lat="44.86875" lon="5.26985">
        <ele>1353.3</ele>
        <time>2024-07-02T11:24:15Z</time>
      </trkpt>
      <trkpt lat="44.86873" lon="5.26985">
        <ele>1353.5</ele>
        <time>2024-07-02T11:24:16Z</time>
      </trkpt>
      <trkpt lat="44.86873" lon="5.26985">
        <ele>1353.5</ele>
        <time>2024-07-02T11:24:17Z</time>
      </trkpt>
      <trkpt lat="44.86872" lon="5.26985">
        <ele>1353.6</ele>
        <time>2024-07-02T11:24:18Z</time>
      </trkpt>
      <trkpt lat="44.8687" lon="5.26985">
        <ele>1353.8</ele>
        <time>2024-07-02T11:24:19Z</time>
      </trkpt>
      <trkpt lat="44.86869" lon="5.26985">
        <ele>1353.8</ele>
        <time>2024-07-02T11:24:20Z</time>
      </trkpt>
      <trkpt lat="44.86869" lon="5.26985">
        <ele>1353.9</ele>
        <time>2024-07-02T11:24:21Z</time>
      </trkpt>
      <trkpt lat="44.86868" lon="5.26985">
        <ele>1354</ele>
        <time>2024-07-02T11:24:22Z</time>
      </trkpt>
      <trkpt lat="44.86867" lon="5.26985">
        <ele>1354.1</ele>
        <time>2024-07-02T11:24:23Z</time>
      </trkpt>
      <trkpt lat="44.86866" lon="5.26986">
        <ele>1354.2</ele>
        <time>2024-07-02T11:24:24Z</time>
      </trkpt>
      <trkpt lat="44.86864" lon="5.26986">
        <ele>1354.3</ele>
        <time>2024-07-02T11:24:25Z</time>
      </trkpt>
      <trkpt lat="44.86864" lon="5.26986">
        <ele>1354.3</ele>
        <time>2024-07-02T11:24:26Z</time>
      </trkpt>
      <trkpt lat="44.86862" lon="5.26986">
        <ele>1354.5</ele>
        <time>2024-07-02T11:24:27Z</time>
      </trkpt>
      <trkpt lat="44.86861" lon="5.26986">
        <ele>1354.6</ele>
        <time>2024-07-02T11:24:28Z</time>
      </trkpt>
      <trkpt lat="44.8686" lon="5.26986">
        <ele>1354.6</ele>
        <time>2024-07-02T11:24:29Z</time>
      </trkpt>
      <trkpt lat="44.86859" lon="5.26986">
        <ele>1354.7</ele>
        <time>2024-07-02T11:24:30Z</time>
      </trkpt>
      <trkpt lat="44.86858" lon="5.26986">
        <ele>1354.8</ele>
        <time>2024-07-02T11:24:31Z</time>
      </trkpt>
      <trkpt lat="44.86858" lon="5.26986">
        <ele>1354.8</ele>
        <time>2024-07-02T11:24:32Z</time>
      </trkpt>
      <trkpt lat="44.86856" lon="5.26987">
        <ele>1354.9</ele>
        <time>2024-07-02T11:24:33Z</time>
      </trkpt>
      <trkpt lat="44.86855" lon="5.26987">
        <ele>1355.1</ele>
        <time>2024-07-02T11:24:34Z</time>
      </trkpt>
      <trkpt lat="44.86854" lon="5.26987">
        <ele>1355.1</ele>
        <time>2024-07-02T11:24:35Z</time>
      </trkpt>
      <trkpt lat="44.86854" lon="5.26987">
        <ele>1355.2</ele>
        <time>2024-07-02T11:24:36Z</time>
      </trkpt>
      <trkpt lat="44.86852" lon="5.26987">
        <ele>1355.3</ele>
        <time>2024-07-02T11:24:37Z</time>
      </trkpt>
      <trkpt lat="44.86851" lon="5.26987">
        <ele>1355.4</ele>
        <time>2024-07-02T11:24:38Z</time>
      </trkpt>
      <trkpt lat="44.8685" lon="5.26987">
        <ele>1355.5</ele>
        <time>2024-07-02T11:24:39Z</time>
      </trkpt>
      <trkpt lat="44.8685" lon="5.26987">
        <ele>1355.5</ele>
        <time>2024-07-02T11:24:40Z</time>
      </trkpt>
      <trkpt lat="44.86849" lon="5.26987">
        <ele>1355.6</ele>
        <time>2024-07-02T11:24:41Z</time>
      </trkpt>
      <trkpt lat="44.86848" lon="5.26987">
        <ele>1355.7</ele>
        <time>2024-07-02T11:24:42Z</time>
      </trkpt>
      <trkpt lat="44.86846" lon="5.26987">
        <ele>1355.7</ele>
        <time>2024-07-02T11:24:43Z</time>
      </trkpt>
      <trkpt lat="44.86845" lon="5.26987">
        <ele>1355.9</ele>
        <time>2024-07-02T11:24:44Z</time>
      </trkpt>
      <trkpt lat="44.86844" lon="5.26987">
        <ele>1355.9</ele>
        <time>2024-07-02T11:24:45Z</time>
      </trkpt>
      <trkpt lat="44.86843" lon="5.26987">
        <ele>1356</ele>
        <time>2024-07-02T11:24:46Z</time>
      </trkpt>
      <trkpt lat="44.86842" lon="5.26986">
        <ele>1356.1</ele>
        <time>2024-07-02T11:24:47Z</time>
      </trkpt>
      <trkpt lat="44.86841" lon="5.26986">
        <ele>1356.2</ele>
        <time>2024-07-02T11:24:48Z</time>
      </trkpt>
      <trkpt lat="44.8684" lon="5.26986">
        <ele>1356.3</ele>
        <time>2024-07-02T11:24:49Z</time>
      </trkpt>
      <trkpt lat="44.86839" lon="5.26986">
        <ele>1356.3</ele>
        <time>2024-07-02T11:24:50Z</time>
      </trkpt>
      <trkpt lat="44.86838" lon="5.26985">
        <ele>1356.4</ele>
        <time>2024-07-02T11:24:51Z</time>
      </trkpt>
      <trkpt lat="44.86837" lon="5.26985">
        <ele>1356.5</ele>
        <time>2024-07-02T11:24:52Z</time>
      </trkpt>
      <trkpt lat="44.86837" lon="5.26985">
        <ele>1356.6</ele>
        <time>2024-07-02T11:24:53Z</time>
      </trkpt>
      <trkpt lat="44.86835" lon="5.26985">
        <ele>1356.7</ele>
        <time>2024-07-02T11:24:54Z</time>
      </trkpt>
      <trkpt lat="44.86834" lon="5.26984">
        <ele>1356.8</ele>
        <time>2024-07-02T11:24:55Z</time>
      </trkpt>
      <trkpt lat="44.86834" lon="5.26984">
        <ele>1356.9</ele>
        <time>2024-07-02T11:24:56Z</time>
      </trkpt>
      <trkpt lat="44.86833" lon="5.26983">
        <ele>1357</ele>
        <time>2024-07-02T11:24:57Z</time>
      </trkpt>
      <trkpt lat="44.86832" lon="5.26982">
        <ele>1357.1</ele>
        <time>2024-07-02T11:24:58Z</time>
      </trkpt>
      <trkpt lat="44.8683" lon="5.26982">
        <ele>1357.2</ele>
        <time>2024-07-02T11:24:59Z</time>
      </trkpt>
      <trkpt lat="44.86829" lon="5.26982">
        <ele>1357.3</ele>
        <time>2024-07-02T11:25:00Z</time>
      </trkpt>
      <trkpt lat="44.86828" lon="5.26982">
        <ele>1357.4</ele>
        <time>2024-07-02T11:25:01Z</time>
      </trkpt>
      <trkpt lat="44.86827" lon="5.26981">
        <ele>1357.5</ele>
        <time>2024-07-02T11:25:02Z</time>
      </trkpt>
      <trkpt lat="44.86826" lon="5.26981">
        <ele>1357.5</ele>
        <time>2024-07-02T11:25:03Z</time>
      </trkpt>
      <trkpt lat="44.86825" lon="5.26981">
        <ele>1357.6</ele>
        <time>2024-07-02T11:25:04Z</time>
      </trkpt>
      <trkpt lat="44.86824" lon="5.26981">
        <ele>1357.7</ele>
        <time>2024-07-02T11:25:05Z</time>
      </trkpt>
      <trkpt lat="44.86823" lon="5.26981">
        <ele>1357.8</ele>
        <time>2024-07-02T11:25:06Z</time>
      </trkpt>
      <trkpt lat="44.86822" lon="5.26981">
        <ele>1357.9</ele>
        <time>2024-07-02T11:25:07Z</time>
      </trkpt>
      <trkpt lat="44.86821" lon="5.26981">
        <ele>1357.9</ele>
        <time>2024-07-02T11:25:08Z</time>
      </trkpt>
      <trkpt lat="44.8682" lon="5.26981">
        <ele>1358</ele>
        <time>2024-07-02T11:25:09Z</time>
      </trkpt>
      <trkpt lat="44.86819" lon="5.26981">
        <ele>1358.1</ele>
        <time>2024-07-02T11:25:10Z</time>
      </trkpt>
      <trkpt lat="44.86818" lon="5.26981">
        <ele>1358.2</ele>
        <time>2024-07-02T11:25:11Z</time>
      </trkpt>
      <trkpt lat="44.86817" lon="5.26981">
        <ele>1358.3</ele>
        <time>2024-07-02T11:25:12Z</time>
      </trkpt>
      <trkpt lat="44.86816" lon="5.26981">
        <ele>1358.4</ele>
        <time>2024-07-02T11:25:13Z</time>
      </trkpt>
      <trkpt lat="44.86815" lon="5.26981">
        <ele>1358.4</ele>
        <time>2024-07-02T11:25:14Z</time>
      </trkpt>
      <trkpt lat="44.86814" lon="5.26981">
        <ele>1358.5</ele>
        <time>2024-07-02T11:25:15Z</time>
      </trkpt>
      <trkpt lat="44.86813" lon="5.26981">
        <ele>1358.6</ele>
        <time>2024-07-02T11:25:16Z</time>
      </trkpt>
      <trkpt lat="44.86811" lon="5.26981">
        <ele>1358.7</ele>
        <time>2024-07-02T11:25:17Z</time>
      </trkpt>
      <trkpt lat="44.86811" lon="5.26981">
        <ele>1358.7</ele>
        <time>2024-07-02T11:25:18Z</time>
      </trkpt>
      <trkpt lat="44.86809" lon="5.26981">
        <ele>1358.8</ele>
        <time>2024-07-02T11:25:19Z</time>
      </trkpt>
      <trkpt lat="44.86808" lon="5.26981">
        <ele>1358.9</ele>
        <time>2024-07-02T11:25:20Z</time>
      </trkpt>
      <trkpt lat="44.86807" lon="5.26982">
        <ele>1359</ele>
        <time>2024-07-02T11:25:21Z</time>
      </trkpt>
      <trkpt lat="44.86806" lon="5.26982">
        <ele>1359</ele>
        <time>2024-07-02T11:25:22Z</time>
      </trkpt>
      <trkpt lat="44.86804" lon="5.26982">
        <ele>1359.2</ele>
        <time>2024-07-02T11:25:23Z</time>
      </trkpt>
      <trkpt lat="44.86803" lon="5.26982">
        <ele>1359.2</ele>
        <time>2024-07-02T11:25:24Z</time>
      </trkpt>
      <trkpt lat="44.86803" lon="5.26982">
        <ele>1359.3</ele>
        <time>2024-07-02T11:25:25Z</time>
      </trkpt>
      <trkpt lat="44.86802" lon="5.26982">
        <ele>1359.3</ele>
        <time>2024-07-02T11:25:26Z</time>
      </trkpt>
      <trkpt lat="44.868" lon="5.26982">
        <ele>1359.4</ele>
        <time>2024-07-02T11:25:27Z</time>
      </trkpt>
      <trkpt lat="44.86799" lon="5.26982">
        <ele>1359.5</ele>
        <time>2024-07-02T11:25:28Z</time>
      </trkpt>
      <trkpt lat="44.86798" lon="5.26982">
        <ele>1359.6</ele>
        <time>2024-07-02T11:25:29Z</time>
      </trkpt>
      <trkpt lat="44.86797" lon="5.26982">
        <ele>1359.7</ele>
        <time>2024-07-02T11:25:30Z</time>
      </trkpt>
      <trkpt lat="44.86796" lon="5.26982">
        <ele>1359.7</ele>
        <time>2024-07-02T11:25:31Z</time>
      </trkpt>
      <trkpt lat="44.86795" lon="5.26981">
        <ele>1359.8</ele>
        <time>2024-07-02T11:25:32Z</time>
      </trkpt>
      <trkpt lat="44.86794" lon="5.26981">
        <ele>1359.9</ele>
        <time>2024-07-02T11:25:33Z</time>
      </trkpt>
      <trkpt lat="44.86792" lon="5.26981">
        <ele>1360</ele>
        <time>2024-07-02T11:25:34Z</time>
      </trkpt>
      <trkpt lat="44.86791" lon="5.26981">
        <ele>1360</ele>
        <time>2024-07-02T11:25:35Z</time>
      </trkpt>
      <trkpt lat="44.86791" lon="5.26981">
        <ele>1360.1</ele>
        <time>2024-07-02T11:25:36Z</time>
      </trkpt>
      <trkpt lat="44.8679" lon="5.2698">
        <ele>1360.1</ele>
        <time>2024-07-02T11:25:37Z</time>
      </trkpt>
      <trkpt lat="44.86788" lon="5.2698">
        <ele>1360.2</ele>
        <time>2024-07-02T11:25:38Z</time>
      </trkpt>
      <trkpt lat="44.86788" lon="5.2698">
        <ele>1360.3</ele>
        <time>2024-07-02T11:25:39Z</time>
      </trkpt>
      <trkpt lat="44.86786" lon="5.2698">
        <ele>1360.4</ele>
        <time>2024-07-02T11:25:40Z</time>
      </trkpt>
      <trkpt lat="44.86785" lon="5.26979">
        <ele>1360.4</ele>
        <time>2024-07-02T11:25:41Z</time>
      </trkpt>
      <trkpt lat="44.86784" lon="5.26979">
        <ele>1360.5</ele>
        <time>2024-07-02T11:25:42Z</time>
      </trkpt>
      <trkpt lat="44.86783" lon="5.26979">
        <ele>1360.6</ele>
        <time>2024-07-02T11:25:43Z</time>
      </trkpt>
      <trkpt lat="44.86782" lon="5.26978">
        <ele>1360.6</ele>
        <time>2024-07-02T11:25:44Z</time>
      </trkpt>
      <trkpt lat="44.86781" lon="5.26978">
        <ele>1360.7</ele>
        <time>2024-07-02T11:25:45Z</time>
      </trkpt>
      <trkpt lat="44.8678" lon="5.26978">
        <ele>1360.8</ele>
        <time>2024-07-02T11:25:46Z</time>
      </trkpt>
      <trkpt lat="44.86779" lon="5.26978">
        <ele>1360.9</ele>
        <time>2024-07-02T11:25:47Z</time>
      </trkpt>
      <trkpt lat="44.86778" lon="5.26978">
        <ele>1361</ele>
        <time>2024-07-02T11:25:48Z</time>
      </trkpt>
      <trkpt lat="44.86776" lon="5.26978">
        <ele>1361</ele>
        <time>2024-07-02T11:25:49Z</time>
      </trkpt>
      <trkpt lat="44.86775" lon="5.26978">
        <ele>1361.1</ele>
        <time>2024-07-02T11:25:50Z</time>
      </trkpt>
      <trkpt lat="44.86774" lon="5.26978">
        <ele>1361.2</ele>
        <time>2024-07-02T11:25:51Z</time>
      </trkpt>
      <trkpt lat="44.86773" lon="5.26978">
        <ele>1361.2</ele>
        <time>2024-07-02T11:25:52Z</time>
      </trkpt>
      <trkpt lat="44.86772" lon="5.26978">
        <ele>1361.3</ele>
        <time>2024-07-02T11:25:53Z</time>
      </trkpt>
      <trkpt lat="44.86771" lon="5.26978">
        <ele>1361.4</ele>
        <time>2024-07-02T11:25:54Z</time>
      </trkpt>
      <trkpt lat="44.8677" lon="5.26978">
        <ele>1361.5</ele>
        <time>2024-07-02T11:25:55Z</time>
      </trkpt>
      <trkpt lat="44.86769" lon="5.26978">
        <ele>1361.6</ele>
        <time>2024-07-02T11:25:56Z</time>
      </trkpt>
      <trkpt lat="44.86768" lon="5.26979">
        <ele>1361.6</ele>
        <time>2024-07-02T11:25:57Z</time>
      </trkpt>
      <trkpt lat="44.86767" lon="5.26979">
        <ele>1361.7</ele>
        <time>2024-07-02T11:25:58Z</time>
      </trkpt>
      <trkpt lat="44.86766" lon="5.26979">
        <ele>1361.8</ele>
        <time>2024-07-02T11:25:59Z</time>
      </trkpt>
      <trkpt lat="44.86764" lon="5.26979">
        <ele>1361.9</ele>
        <time>2024-07-02T11:26:00Z</time>
      </trkpt>
      <trkpt lat="44.86763" lon="5.26979">
        <ele>1361.9</ele>
        <time>2024-07-02T11:26:01Z</time>
      </trkpt>
      <trkpt lat="44.86762" lon="5.26979">
        <ele>1362</ele>
        <time>2024-07-02T11:26:02Z</time>
      </trkpt>
      <trkpt lat="44.86761" lon="5.26979">
        <ele>1362.1</ele>
        <time>2024-07-02T11:26:03Z</time>
      </trkpt>
      <trkpt lat="44.8676" lon="5.26979">
        <ele>1362.2</ele>
        <time>2024-07-02T11:26:04Z</time>
      </trkpt>
      <trkpt lat="44.86758" lon="5.26979">
        <ele>1362.3</ele>
        <time>2024-07-02T11:26:05Z</time>
      </trkpt>
      <trkpt lat="44.86757" lon="5.26979">
        <ele>1362.4</ele>
        <time>2024-07-02T11:26:06Z</time>
      </trkpt>
      <trkpt lat="44.86756" lon="5.26979">
        <ele>1362.5</ele>
        <time>2024-07-02T11:26:07Z</time>
      </trkpt>
      <trkpt lat="44.86755" lon="5.26979">
        <ele>1362.5</ele>
        <time>2024-07-02T11:26:08Z</time>
      </trkpt>
      <trkpt lat="44.86754" lon="5.26979">
        <ele>1362.6</ele>
        <time>2024-07-02T11:26:09Z</time>
      </trkpt>
      <trkpt lat="44.86753" lon="5.26979">
        <ele>1362.7</ele>
        <time>2024-07-02T11:26:10Z</time>
      </trkpt>
      <trkpt lat="44.86752" lon="5.26979">
        <ele>1362.7</ele>
        <time>2024-07-02T11:26:11Z</time>
      </trkpt>
      <trkpt lat="44.86751" lon="5.26979">
        <ele>1362.8</ele>
        <time>2024-07-02T11:26:12Z</time>
      </trkpt>
      <trkpt lat="44.8675" lon="5.26979">
        <ele>1362.9</ele>
        <time>2024-07-02T11:26:13Z</time>
      </trkpt>
      <trkpt lat="44.86749" lon="5.26979">
        <ele>1363</ele>
        <time>2024-07-02T11:26:14Z</time>
      </trkpt>
      <trkpt lat="44.86748" lon="5.26979">
        <ele>1363</ele>
        <time>2024-07-02T11:26:15Z</time>
      </trkpt>
      <trkpt lat="44.86747" lon="5.26979">
        <ele>1363.1</ele>
        <time>2024-07-02T11:26:16Z</time>
      </trkpt>
      <trkpt lat="44.86746" lon="5.26979">
        <ele>1363.2</ele>
        <time>2024-07-02T11:26:17Z</time>
      </trkpt>
      <trkpt lat="44.86745" lon="5.26979">
        <ele>1363.3</ele>
        <time>2024-07-02T11:26:18Z</time>
      </trkpt>
      <trkpt lat="44.86744" lon="5.26979">
        <ele>1363.4</ele>
        <time>2024-07-02T11:26:19Z</time>
      </trkpt>
      <trkpt lat="44.86743" lon="5.26979">
        <ele>1363.5</ele>
        <time>2024-07-02T11:26:20Z</time>
      </trkpt>
      <trkpt lat="44.86742" lon="5.26979">
        <ele>1363.5</ele>
        <time>2024-07-02T11:26:21Z</time>
      </trkpt>
      <trkpt lat="44.86741" lon="5.26979">
        <ele>1363.6</ele>
        <time>2024-07-02T11:26:22Z</time>
      </trkpt>
      <trkpt lat="44.8674" lon="5.26978">
        <ele>1363.7</ele>
        <time>2024-07-02T11:26:23Z</time>
      </trkpt>
      <trkpt lat="44.86739" lon="5.26978">
        <ele>1363.8</ele>
        <time>2024-07-02T11:26:24Z</time>
      </trkpt>
      <trkpt lat="44.86738" lon="5.26978">
        <ele>1363.9</ele>
        <time>2024-07-02T11:26:25Z</time>
      </trkpt>
      <trkpt lat="44.86736" lon="5.26978">
        <ele>1364.1</ele>
        <time>2024-07-02T11:26:26Z</time>
      </trkpt>
      <trkpt lat="44.86735" lon="5.26978">
        <ele>1364.2</ele>
        <time>2024-07-02T11:26:27Z</time>
      </trkpt>
      <trkpt lat="44.86734" lon="5.26978">
        <ele>1364.3</ele>
        <time>2024-07-02T11:26:28Z</time>
      </trkpt>
      <trkpt lat="44.86733" lon="5.26978">
        <ele>1364.3</ele>
        <time>2024-07-02T11:26:29Z</time>
      </trkpt>
      <trkpt lat="44.86732" lon="5.26978">
        <ele>1364.4</ele>
        <time>2024-07-02T11:26:30Z</time>
      </trkpt>
      <trkpt lat="44.86731" lon="5.26978">
        <ele>1364.5</ele>
        <time>2024-07-02T11:26:31Z</time>
      </trkpt>
      <trkpt lat="44.8673" lon="5.26978">
        <ele>1364.6</ele>
        <time>2024-07-02T11:26:32Z</time>
      </trkpt>
      <trkpt lat="44.86729" lon="5.26978">
        <ele>1364.8</ele>
        <time>2024-07-02T11:26:33Z</time>
      </trkpt>
      <trkpt lat="44.86728" lon="5.26978">
        <ele>1364.9</ele>
        <time>2024-07-02T11:26:34Z</time>
      </trkpt>
      <trkpt lat="44.86727" lon="5.26978">
        <ele>1365</ele>
        <time>2024-07-02T11:26:35Z</time>
      </trkpt>
      <trkpt lat="44.86725" lon="5.26978">
        <ele>1365.1</ele>
        <time>2024-07-02T11:26:36Z</time>
      </trkpt>
      <trkpt lat="44.86724" lon="5.26978">
        <ele>1365.2</ele>
        <time>2024-07-02T11:26:37Z</time>
      </trkpt>
      <trkpt lat="44.86723" lon="5.26978">
        <ele>1365.3</ele>
        <time>2024-07-02T11:26:38Z</time>
      </trkpt>
      <trkpt lat="44.86722" lon="5.26978">
        <ele>1365.4</ele>
        <time>2024-07-02T11:26:39Z</time>
      </trkpt>
      <trkpt lat="44.86721" lon="5.26978">
        <ele>1365.5</ele>
        <time>2024-07-02T11:26:40Z</time>
      </trkpt>
      <trkpt lat="44.8672" lon="5.26978">
        <ele>1365.6</ele>
        <time>2024-07-02T11:26:41Z</time>
      </trkpt>
      <trkpt lat="44.86719" lon="5.26978">
        <ele>1365.7</ele>
        <time>2024-07-02T11:26:42Z</time>
      </trkpt>
      <trkpt lat="44.86718" lon="5.26978">
        <ele>1365.8</ele>
        <time>2024-07-02T11:26:43Z</time>
      </trkpt>
      <trkpt lat="44.86717" lon="5.26979">
        <ele>1365.9</ele>
        <time>2024-07-02T11:26:44Z</time>
      </trkpt>
      <trkpt lat="44.86716" lon="5.26979">
        <ele>1366</ele>
        <time>2024-07-02T11:26:45Z</time>
      </trkpt>
      <trkpt lat="44.86714" lon="5.26979">
        <ele>1366.1</ele>
        <time>2024-07-02T11:26:46Z</time>
      </trkpt>
      <trkpt lat="44.86713" lon="5.26979">
        <ele>1366.2</ele>
        <time>2024-07-02T11:26:47Z</time>
      </trkpt>
      <trkpt lat="44.86712" lon="5.26979">
        <ele>1366.3</ele>
        <time>2024-07-02T11:26:48Z</time>
      </trkpt>
      <trkpt lat="44.86711" lon="5.26979">
        <ele>1366.4</ele>
        <time>2024-07-02T11:26:49Z</time>
      </trkpt>
      <trkpt lat="44.8671" lon="5.2698">
        <ele>1366.5</ele>
        <time>2024-07-02T11:26:50Z</time>
      </trkpt>
      <trkpt lat="44.86709" lon="5.2698">
        <ele>1366.6</ele>
        <time>2024-07-02T11:26:51Z</time>
      </trkpt>
      <trkpt lat="44.86709" lon="5.2698">
        <ele>1366.6</ele>
        <time>2024-07-02T11:26:52Z</time>
      </trkpt>
      <trkpt lat="44.86707" lon="5.26981">
        <ele>1366.8</ele>
        <time>2024-07-02T11:26:53Z</time>
      </trkpt>
      <trkpt lat="44.86706" lon="5.26981">
        <ele>1366.8</ele>
        <time>2024-07-02T11:26:54Z</time>
      </trkpt>
      <trkpt lat="44.86706" lon="5.26981">
        <ele>1366.9</ele>
        <time>2024-07-02T11:26:55Z</time>
      </trkpt>
      <trkpt lat="44.86704" lon="5.26982">
        <ele>1367</ele>
        <time>2024-07-02T11:26:56Z</time>
      </trkpt>
      <trkpt lat="44.86704" lon="5.26982">
        <ele>1367.1</ele>
        <time>2024-07-02T11:26:57Z</time>
      </trkpt>
      <trkpt lat="44.86702" lon="5.26982">
        <ele>1367.2</ele>
        <time>2024-07-02T11:26:58Z</time>
      </trkpt>
      <trkpt lat="44.86701" lon="5.26983">
        <ele>1367.3</ele>
        <time>2024-07-02T11:26:59Z</time>
      </trkpt>
      <trkpt lat="44.867" lon="5.26983">
        <ele>1367.4</ele>
        <time>2024-07-02T11:27:00Z</time>
      </trkpt>
      <trkpt lat="44.86699" lon="5.26983">
        <ele>1367.5</ele>
        <time>2024-07-02T11:27:01Z</time>
      </trkpt>
      <trkpt lat="44.86698" lon="5.26984">
        <ele>1367.6</ele>
        <time>2024-07-02T11:27:02Z</time>
      </trkpt>
      <trkpt lat="44.86697" lon="5.26984">
        <ele>1367.7</ele>
        <time>2024-07-02T11:27:03Z</time>
      </trkpt>
      <trkpt lat="44.86696" lon="5.26984">
        <ele>1367.8</ele>
        <time>2024-07-02T11:27:04Z</time>
      </trkpt>
      <trkpt lat="44.86695" lon="5.26985">
        <ele>1367.8</ele>
        <time>2024-07-02T11:27:05Z</time>
      </trkpt>
      <trkpt lat="44.86694" lon="5.26985">
        <ele>1367.9</ele>
        <time>2024-07-02T11:27:06Z</time>
      </trkpt>
      <trkpt lat="44.86693" lon="5.26985">
        <ele>1368</ele>
        <time>2024-07-02T11:27:07Z</time>
      </trkpt>
      <trkpt lat="44.86692" lon="5.26985">
        <ele>1368.1</ele>
        <time>2024-07-02T11:27:08Z</time>
      </trkpt>
      <trkpt lat="44.86691" lon="5.26986">
        <ele>1368.2</ele>
        <time>2024-07-02T11:27:09Z</time>
      </trkpt>
      <trkpt lat="44.8669" lon="5.26986">
        <ele>1368.3</ele>
        <time>2024-07-02T11:27:10Z</time>
      </trkpt>
      <trkpt lat="44.86689" lon="5.26986">
        <ele>1368.4</ele>
        <time>2024-07-02T11:27:11Z</time>
      </trkpt>
      <trkpt lat="44.86688" lon="5.26987">
        <ele>1368.5</ele>
        <time>2024-07-02T11:27:12Z</time>
      </trkpt>
      <trkpt lat="44.86687" lon="5.26987">
        <ele>1368.5</ele>
        <time>2024-07-02T11:27:13Z</time>
      </trkpt>
      <trkpt lat="44.86686" lon="5.26987">
        <ele>1368.6</ele>
        <time>2024-07-02T11:27:14Z</time>
      </trkpt>
      <trkpt lat="44.86685" lon="5.26988">
        <ele>1368.7</ele>
        <time>2024-07-02T11:27:15Z</time>
      </trkpt>
      <trkpt lat="44.86684" lon="5.26988">
        <ele>1368.8</ele>
        <time>2024-07-02T11:27:16Z</time>
      </trkpt>
      <trkpt lat="44.86683" lon="5.26988">
        <ele>1368.9</ele>
        <time>2024-07-02T11:27:17Z</time>
      </trkpt>
      <trkpt lat="44.86682" lon="5.26988">
        <ele>1369</ele>
        <time>2024-07-02T11:27:18Z</time>
      </trkpt>
      <trkpt lat="44.86681" lon="5.26989">
        <ele>1369.2</ele>
        <time>2024-07-02T11:27:19Z</time>
      </trkpt>
      <trkpt lat="44.8668" lon="5.26989">
        <ele>1369.3</ele>
        <time>2024-07-02T11:27:20Z</time>
      </trkpt>
      <trkpt lat="44.86679" lon="5.26989">
        <ele>1369.4</ele>
        <time>2024-07-02T11:27:21Z</time>
      </trkpt>
      <trkpt lat="44.86678" lon="5.2699">
        <ele>1369.5</ele>
        <time>2024-07-02T11:27:22Z</time>
      </trkpt>
      <trkpt lat="44.86676" lon="5.2699">
        <ele>1369.6</ele>
        <time>2024-07-02T11:27:23Z</time>
      </trkpt>
      <trkpt lat="44.86675" lon="5.2699">
        <ele>1369.8</ele>
        <time>2024-07-02T11:27:24Z</time>
      </trkpt>
      <trkpt lat="44.86674" lon="5.2699">
        <ele>1369.9</ele>
        <time>2024-07-02T11:27:25Z</time>
      </trkpt>
      <trkpt lat="44.86673" lon="5.2699">
        <ele>1370</ele>
        <time>2024-07-02T11:27:26Z</time>
      </trkpt>
      <trkpt lat="44.86672" lon="5.2699">
        <ele>1370.1</ele>
        <time>2024-07-02T11:27:27Z</time>
      </trkpt>
      <trkpt lat="44.86671" lon="5.2699">
        <ele>1370.2</ele>
        <time>2024-07-02T11:27:28Z</time>
      </trkpt>
      <trkpt lat="44.8667" lon="5.2699">
        <ele>1370.3</ele>
        <time>2024-07-02T11:27:29Z</time>
      </trkpt>
      <trkpt lat="44.86669" lon="5.2699">
        <ele>1370.4</ele>
        <time>2024-07-02T11:27:30Z</time>
      </trkpt>
      <trkpt lat="44.86668" lon="5.2699">
        <ele>1370.6</ele>
        <time>2024-07-02T11:27:31Z</time>
      </trkpt>
      <trkpt lat="44.86666" lon="5.26991">
        <ele>1370.7</ele>
        <time>2024-07-02T11:27:32Z</time>
      </trkpt>
      <trkpt lat="44.86665" lon="5.26992">
        <ele>1370.8</ele>
        <time>2024-07-02T11:27:33Z</time>
      </trkpt>
      <trkpt lat="44.86664" lon="5.26992">
        <ele>1370.9</ele>
        <time>2024-07-02T11:27:34Z</time>
      </trkpt>
      <trkpt lat="44.86663" lon="5.26992">
        <ele>1371</ele>
        <time>2024-07-02T11:27:35Z</time>
      </trkpt>
      <trkpt lat="44.86662" lon="5.26993">
        <ele>1371.2</ele>
        <time>2024-07-02T11:27:36Z</time>
      </trkpt>
      <trkpt lat="44.86661" lon="5.26993">
        <ele>1371.3</ele>
        <time>2024-07-02T11:27:37Z</time>
      </trkpt>
      <trkpt lat="44.8666" lon="5.26993">
        <ele>1371.4</ele>
        <time>2024-07-02T11:27:38Z</time>
      </trkpt>
      <trkpt lat="44.86659" lon="5.26993">
        <ele>1371.6</ele>
        <time>2024-07-02T11:27:39Z</time>
      </trkpt>
      <trkpt lat="44.86658" lon="5.26993">
        <ele>1371.6</ele>
        <time>2024-07-02T11:27:40Z</time>
      </trkpt>
      <trkpt lat="44.86656" lon="5.26994">
        <ele>1371.9</ele>
        <time>2024-07-02T11:27:41Z</time>
      </trkpt>
      <trkpt lat="44.86655" lon="5.26994">
        <ele>1372</ele>
        <time>2024-07-02T11:27:42Z</time>
      </trkpt>
      <trkpt lat="44.86654" lon="5.26994">
        <ele>1372.1</ele>
        <time>2024-07-02T11:27:43Z</time>
      </trkpt>
      <trkpt lat="44.86653" lon="5.26994">
        <ele>1372.2</ele>
        <time>2024-07-02T11:27:44Z</time>
      </trkpt>
      <trkpt lat="44.86652" lon="5.26994">
        <ele>1372.3</ele>
        <time>2024-07-02T11:27:45Z</time>
      </trkpt>
      <trkpt lat="44.86651" lon="5.26994">
        <ele>1372.4</ele>
        <time>2024-07-02T11:27:46Z</time>
      </trkpt>
      <trkpt lat="44.8665" lon="5.26994">
        <ele>1372.5</ele>
        <time>2024-07-02T11:27:47Z</time>
      </trkpt>
      <trkpt lat="44.86649" lon="5.26994">
        <ele>1372.6</ele>
        <time>2024-07-02T11:27:48Z</time>
      </trkpt>
      <trkpt lat="44.86648" lon="5.26994">
        <ele>1372.7</ele>
        <time>2024-07-02T11:27:49Z</time>
      </trkpt>
      <trkpt lat="44.86647" lon="5.26994">
        <ele>1372.9</ele>
        <time>2024-07-02T11:27:50Z</time>
      </trkpt>
      <trkpt lat="44.86645" lon="5.26995">
        <ele>1373.1</ele>
        <time>2024-07-02T11:27:51Z</time>
      </trkpt>
      <trkpt lat="44.86644" lon="5.26995">
        <ele>1373.2</ele>
        <time>2024-07-02T11:27:52Z</time>
      </trkpt>
      <trkpt lat="44.86644" lon="5.26995">
        <ele>1373.3</ele>
        <time>2024-07-02T11:27:53Z</time>
      </trkpt>
      <trkpt lat="44.86643" lon="5.26996">
        <ele>1373.3</ele>
        <time>2024-07-02T11:27:54Z</time>
      </trkpt>
      <trkpt lat="44.86642" lon="5.26996">
        <ele>1373.5</ele>
        <time>2024-07-02T11:27:55Z</time>
      </trkpt>
      <trkpt lat="44.86641" lon="5.26997">
        <ele>1373.6</ele>
        <time>2024-07-02T11:27:56Z</time>
      </trkpt>
      <trkpt lat="44.8664" lon="5.26997">
        <ele>1373.7</ele>
        <time>2024-07-02T11:27:57Z</time>
      </trkpt>
      <trkpt lat="44.86639" lon="5.26997">
        <ele>1373.8</ele>
        <time>2024-07-02T11:27:58Z</time>
      </trkpt>
      <trkpt lat="44.86637" lon="5.26997">
        <ele>1374</ele>
        <time>2024-07-02T11:27:59Z</time>
      </trkpt>
      <trkpt lat="44.86636" lon="5.26998">
        <ele>1374.1</ele>
        <time>2024-07-02T11:28:00Z</time>
      </trkpt>
      <trkpt lat="44.86636" lon="5.26998">
        <ele>1374.2</ele>
        <time>2024-07-02T11:28:01Z</time>
      </trkpt>
      <trkpt lat="44.86634" lon="5.26998">
        <ele>1374.3</ele>
        <time>2024-07-02T11:28:02Z</time>
      </trkpt>
      <trkpt lat="44.86633" lon="5.26998">
        <ele>1374.4</ele>
        <time>2024-07-02T11:28:03Z</time>
      </trkpt>
      <trkpt lat="44.86632" lon="5.26998">
        <ele>1374.5</ele>
        <time>2024-07-02T11:28:04Z</time>
      </trkpt>
      <trkpt lat="44.86631" lon="5.26999">
        <ele>1374.7</ele>
        <time>2024-07-02T11:28:05Z</time>
      </trkpt>
      <trkpt lat="44.8663" lon="5.26999">
        <ele>1374.8</ele>
        <time>2024-07-02T11:28:06Z</time>
      </trkpt>
      <trkpt lat="44.86629" lon="5.26999">
        <ele>1374.9</ele>
        <time>2024-07-02T11:28:07Z</time>
      </trkpt>
      <trkpt lat="44.86628" lon="5.26999">
        <ele>1374.9</ele>
        <time>2024-07-02T11:28:08Z</time>
      </trkpt>
      <trkpt lat="44.86628" lon="5.26999">
        <ele>1375</ele>
        <time>2024-07-02T11:28:09Z</time>
      </trkpt>
      <trkpt lat="44.86626" lon="5.27">
        <ele>1375.2</ele>
        <time>2024-07-02T11:28:10Z</time>
      </trkpt>
      <trkpt lat="44.86625" lon="5.27">
        <ele>1375.3</ele>
        <time>2024-07-02T11:28:11Z</time>
      </trkpt>
      <trkpt lat="44.86624" lon="5.27001">
        <ele>1375.4</ele>
        <time>2024-07-02T11:28:12Z</time>
      </trkpt>
      <trkpt lat="44.86624" lon="5.27001">
        <ele>1375.5</ele>
        <time>2024-07-02T11:28:13Z</time>
      </trkpt>
      <trkpt lat="44.86623" lon="5.27002">
        <ele>1375.6</ele>
        <time>2024-07-02T11:28:14Z</time>
      </trkpt>
      <trkpt lat="44.86622" lon="5.27002">
        <ele>1375.7</ele>
        <time>2024-07-02T11:28:15Z</time>
      </trkpt>
      <trkpt lat="44.8662" lon="5.27001">
        <ele>1375.9</ele>
        <time>2024-07-02T11:28:16Z</time>
      </trkpt>
      <trkpt lat="44.86619" lon="5.27002">
        <ele>1376</ele>
        <time>2024-07-02T11:28:17Z</time>
      </trkpt>
      <trkpt lat="44.86618" lon="5.27002">
        <ele>1376.1</ele>
        <time>2024-07-02T11:28:18Z</time>
      </trkpt>
      <trkpt lat="44.86618" lon="5.27003">
        <ele>1376.2</ele>
        <time>2024-07-02T11:28:19Z</time>
      </trkpt>
      <trkpt lat="44.86616" lon="5.27004">
        <ele>1376.4</ele>
        <time>2024-07-02T11:28:20Z</time>
      </trkpt>
      <trkpt lat="44.86615" lon="5.27004">
        <ele>1376.5</ele>
        <time>2024-07-02T11:28:21Z</time>
      </trkpt>
      <trkpt lat="44.86614" lon="5.27004">
        <ele>1376.6</ele>
        <time>2024-07-02T11:28:22Z</time>
      </trkpt>
      <trkpt lat="44.86613" lon="5.27004">
        <ele>1376.7</ele>
        <time>2024-07-02T11:28:23Z</time>
      </trkpt>
      <trkpt lat="44.86612" lon="5.27005">
        <ele>1376.8</ele>
        <time>2024-07-02T11:28:24Z</time>
      </trkpt>
      <trkpt lat="44.86611" lon="5.27005">
        <ele>1376.9</ele>
        <time>2024-07-02T11:28:25Z</time>
      </trkpt>
      <trkpt lat="44.8661" lon="5.27005">
        <ele>1377</ele>
        <time>2024-07-02T11:28:26Z</time>
      </trkpt>
      <trkpt lat="44.8661" lon="5.27006">
        <ele>1377.1</ele>
        <time>2024-07-02T11:28:27Z</time>
      </trkpt>
      <trkpt lat="44.86608" lon="5.27006">
        <ele>1377.2</ele>
        <time>2024-07-02T11:28:28Z</time>
      </trkpt>
      <trkpt lat="44.86608" lon="5.27006">
        <ele>1377.3</ele>
        <time>2024-07-02T11:28:29Z</time>
      </trkpt>
      <trkpt lat="44.86607" lon="5.27006">
        <ele>1377.4</ele>
        <time>2024-07-02T11:28:30Z</time>
      </trkpt>
      <trkpt lat="44.86606" lon="5.27007">
        <ele>1377.5</ele>
        <time>2024-07-02T11:28:31Z</time>
      </trkpt>
      <trkpt lat="44.86605" lon="5.27007">
        <ele>1377.6</ele>
        <time>2024-07-02T11:28:32Z</time>
      </trkpt>
      <trkpt lat="44.86604" lon="5.27007">
        <ele>1377.7</ele>
        <time>2024-07-02T11:28:33Z</time>
      </trkpt>
      <trkpt lat="44.86603" lon="5.27008">
        <ele>1377.8</ele>
        <time>2024-07-02T11:28:34Z</time>
      </trkpt>
      <trkpt lat="44.86602" lon="5.27008">
        <ele>1378</ele>
        <time>2024-07-02T11:28:35Z</time>
      </trkpt>
      <trkpt lat="44.86601" lon="5.27009">
        <ele>1378.1</ele>
        <time>2024-07-02T11:28:36Z</time>
      </trkpt>
      <trkpt lat="44.86599" lon="5.27009">
        <ele>1378.2</ele>
        <time>2024-07-02T11:28:37Z</time>
      </trkpt>
      <trkpt lat="44.86598" lon="5.27009">
        <ele>1378.3</ele>
        <time>2024-07-02T11:28:38Z</time>
      </trkpt>
      <trkpt lat="44.86598" lon="5.2701">
        <ele>1378.4</ele>
        <time>2024-07-02T11:28:39Z</time>
      </trkpt>
      <trkpt lat="44.86597" lon="5.2701">
        <ele>1378.5</ele>
        <time>2024-07-02T11:28:40Z</time>
      </trkpt>
      <trkpt lat="44.86596" lon="5.2701">
        <ele>1378.6</ele>
        <time>2024-07-02T11:28:41Z</time>
      </trkpt>
      <trkpt lat="44.86595" lon="5.2701">
        <ele>1378.7</ele>
        <time>2024-07-02T11:28:42Z</time>
      </trkpt>
      <trkpt lat="44.86594" lon="5.2701">
        <ele>1378.8</ele>
        <time>2024-07-02T11:28:43Z</time>
      </trkpt>
      <trkpt lat="44.86593" lon="5.27011">
        <ele>1378.9</ele>
        <time>2024-07-02T11:28:44Z</time>
      </trkpt>
      <trkpt lat="44.86592" lon="5.27011">
        <ele>1379</ele>
        <time>2024-07-02T11:28:45Z</time>
      </trkpt>
      <trkpt lat="44.86591" lon="5.27011">
        <ele>1379.1</ele>
        <time>2024-07-02T11:28:46Z</time>
      </trkpt>
      <trkpt lat="44.86589" lon="5.27011">
        <ele>1379.3</ele>
        <time>2024-07-02T11:28:47Z</time>
      </trkpt>
      <trkpt lat="44.86589" lon="5.27012">
        <ele>1379.3</ele>
        <time>2024-07-02T11:28:48Z</time>
      </trkpt>
      <trkpt lat="44.86588" lon="5.27012">
        <ele>1379.4</ele>
        <time>2024-07-02T11:28:49Z</time>
      </trkpt>
      <trkpt lat="44.86587" lon="5.27012">
        <ele>1379.5</ele>
        <time>2024-07-02T11:28:50Z</time>
      </trkpt>
      <trkpt lat="44.86586" lon="5.27013">
        <ele>1379.7</ele>
        <time>2024-07-02T11:28:51Z</time>
      </trkpt>
      <trkpt lat="44.86585" lon="5.27013">
        <ele>1379.7</ele>
        <time>2024-07-02T11:28:52Z</time>
      </trkpt>
      <trkpt lat="44.86584" lon="5.27013">
        <ele>1379.8</ele>
        <time>2024-07-02T11:28:53Z</time>
      </trkpt>
      <trkpt lat="44.86583" lon="5.27014">
        <ele>1379.9</ele>
        <time>2024-07-02T11:28:54Z</time>
      </trkpt>
      <trkpt lat="44.86582" lon="5.27014">
        <ele>1380</ele>
        <time>2024-07-02T11:28:55Z</time>
      </trkpt>
      <trkpt lat="44.86581" lon="5.27015">
        <ele>1380.1</ele>
        <time>2024-07-02T11:28:56Z</time>
      </trkpt>
      <trkpt lat="44.8658" lon="5.27015">
        <ele>1380.2</ele>
        <time>2024-07-02T11:28:57Z</time>
      </trkpt>
      <trkpt lat="44.86579" lon="5.27015">
        <ele>1380.4</ele>
        <time>2024-07-02T11:28:58Z</time>
      </trkpt>
      <trkpt lat="44.86578" lon="5.27016">
        <ele>1380.4</ele>
        <time>2024-07-02T11:28:59Z</time>
      </trkpt>
      <trkpt lat="44.86577" lon="5.27016">
        <ele>1380.5</ele>
        <time>2024-07-02T11:29:00Z</time>
      </trkpt>
      <trkpt lat="44.86576" lon="5.27016">
        <ele>1380.7</ele>
        <time>2024-07-02T11:29:01Z</time>
      </trkpt>
      <trkpt lat="44.86575" lon="5.27017">
        <ele>1380.8</ele>
        <time>2024-07-02T11:29:02Z</time>
      </trkpt>
      <trkpt lat="44.86574" lon="5.27017">
        <ele>1380.9</ele>
        <time>2024-07-02T11:29:03Z</time>
      </trkpt>
      <trkpt lat="44.86573" lon="5.27017">
        <ele>1381</ele>
        <time>2024-07-02T11:29:04Z</time>
      </trkpt>
      <trkpt lat="44.86572" lon="5.27017">
        <ele>1381.1</ele>
        <time>2024-07-02T11:29:05Z</time>
      </trkpt>
      <trkpt lat="44.86571" lon="5.27018">
        <ele>1381.2</ele>
        <time>2024-07-02T11:29:06Z</time>
      </trkpt>
      <trkpt lat="44.8657" lon="5.27018">
        <ele>1381.3</ele>
        <time>2024-07-02T11:29:07Z</time>
      </trkpt>
      <trkpt lat="44.86569" lon="5.27019">
        <ele>1381.4</ele>
        <time>2024-07-02T11:29:08Z</time>
      </trkpt>
      <trkpt lat="44.86568" lon="5.27019">
        <ele>1381.5</ele>
        <time>2024-07-02T11:29:09Z</time>
      </trkpt>
      <trkpt lat="44.86567" lon="5.2702">
        <ele>1381.6</ele>
        <time>2024-07-02T11:29:10Z</time>
      </trkpt>
      <trkpt lat="44.86566" lon="5.2702">
        <ele>1381.7</ele>
        <time>2024-07-02T11:29:11Z</time>
      </trkpt>
      <trkpt lat="44.86565" lon="5.2702">
        <ele>1381.8</ele>
        <time>2024-07-02T11:29:12Z</time>
      </trkpt>
      <trkpt lat="44.86564" lon="5.2702">
        <ele>1381.9</ele>
        <time>2024-07-02T11:29:13Z</time>
      </trkpt>
      <trkpt lat="44.86563" lon="5.27019">
        <ele>1381.9</ele>
        <time>2024-07-02T11:29:14Z</time>
      </trkpt>
      <trkpt lat="44.86562" lon="5.27019">
        <ele>1382</ele>
        <time>2024-07-02T11:29:15Z</time>
      </trkpt>
      <trkpt lat="44.86561" lon="5.27019">
        <ele>1382.1</ele>
        <time>2024-07-02T11:29:16Z</time>
      </trkpt>
      <trkpt lat="44.8656" lon="5.27019">
        <ele>1382.2</ele>
        <time>2024-07-02T11:29:17Z</time>
      </trkpt>
      <trkpt lat="44.86559" lon="5.27019">
        <ele>1382.3</ele>
        <time>2024-07-02T11:29:18Z</time>
      </trkpt>
      <trkpt lat="44.86558" lon="5.27019">
        <ele>1382.4</ele>
        <time>2024-07-02T11:29:19Z</time>
      </trkpt>
      <trkpt lat="44.86557" lon="5.27019">
        <ele>1382.5</ele>
        <time>2024-07-02T11:29:20Z</time>
      </trkpt>
      <trkpt lat="44.86556" lon="5.2702">
        <ele>1382.6</ele>
        <time>2024-07-02T11:29:21Z</time>
      </trkpt>
      <trkpt lat="44.86555" lon="5.2702">
        <ele>1382.7</ele>
        <time>2024-07-02T11:29:22Z</time>
      </trkpt>
      <trkpt lat="44.86554" lon="5.2702">
        <ele>1382.8</ele>
        <time>2024-07-02T11:29:23Z</time>
      </trkpt>
      <trkpt lat="44.86553" lon="5.2702">
        <ele>1382.9</ele>
        <time>2024-07-02T11:29:24Z</time>
      </trkpt>
      <trkpt lat="44.86552" lon="5.27021">
        <ele>1383</ele>
        <time>2024-07-02T11:29:25Z</time>
      </trkpt>
      <trkpt lat="44.86551" lon="5.27021">
        <ele>1383.1</ele>
        <time>2024-07-02T11:29:26Z</time>
      </trkpt>
      <trkpt lat="44.8655" lon="5.27021">
        <ele>1383.2</ele>
        <time>2024-07-02T11:29:27Z</time>
      </trkpt>
      <trkpt lat="44.86549" lon="5.27021">
        <ele>1383.3</ele>
        <time>2024-07-02T11:29:28Z</time>
      </trkpt>
      <trkpt lat="44.86548" lon="5.27021">
        <ele>1383.4</ele>
        <time>2024-07-02T11:29:29Z</time>
      </trkpt>
      <trkpt lat="44.86547" lon="5.27022">
        <ele>1383.5</ele>
        <time>2024-07-02T11:29:30Z</time>
      </trkpt>
      <trkpt lat="44.86546" lon="5.27022">
        <ele>1383.6</ele>
        <time>2024-07-02T11:29:31Z</time>
      </trkpt>
      <trkpt lat="44.86545" lon="5.27022">
        <ele>1383.7</ele>
        <time>2024-07-02T11:29:32Z</time>
      </trkpt>
      <trkpt lat="44.86544" lon="5.27022">
        <ele>1383.8</ele>
        <time>2024-07-02T11:29:33Z</time>
      </trkpt>
      <trkpt lat="44.86543" lon="5.27023">
        <ele>1383.9</ele>
        <time>2024-07-02T11:29:34Z</time>
      </trkpt>
      <trkpt lat="44.86542" lon="5.27023">
        <ele>1384</ele>
        <time>2024-07-02T11:29:35Z</time>
      </trkpt>
      <trkpt lat="44.86541" lon="5.27023">
        <ele>1384.1</ele>
        <time>2024-07-02T11:29:36Z</time>
      </trkpt>
      <trkpt lat="44.86539" lon="5.27023">
        <ele>1384.2</ele>
        <time>2024-07-02T11:29:37Z</time>
      </trkpt>
      <trkpt lat="44.86539" lon="5.27023">
        <ele>1384.3</ele>
        <time>2024-07-02T11:29:38Z</time>
      </trkpt>
      <trkpt lat="44.86537" lon="5.27023">
        <ele>1384.4</ele>
        <time>2024-07-02T11:29:39Z</time>
      </trkpt>
      <trkpt lat="44.86536" lon="5.27023">
        <ele>1384.5</ele>
        <time>2024-07-02T11:29:40Z</time>
      </trkpt>
      <trkpt lat="44.86535" lon="5.27023">
        <ele>1384.7</ele>
        <time>2024-07-02T11:29:41Z</time>
      </trkpt>
      <trkpt lat="44.86535" lon="5.27023">
        <ele>1384.7</ele>
        <time>2024-07-02T11:29:42Z</time>
      </trkpt>
      <trkpt lat="44.86534" lon="5.27024">
        <ele>1384.8</ele>
        <time>2024-07-02T11:29:43Z</time>
      </trkpt>
      <trkpt lat="44.86532" lon="5.27024">
        <ele>1385</ele>
        <time>2024-07-02T11:29:44Z</time>
      </trkpt>
      <trkpt lat="44.86532" lon="5.27024">
        <ele>1385</ele>
        <time>2024-07-02T11:29:45Z</time>
      </trkpt>
      <trkpt lat="44.86531" lon="5.27025">
        <ele>1385.1</ele>
        <time>2024-07-02T11:29:46Z</time>
      </trkpt>
      <trkpt lat="44.8653" lon="5.27025">
        <ele>1385.3</ele>
        <time>2024-07-02T11:29:47Z</time>
      </trkpt>
      <trkpt lat="44.86528" lon="5.27025">
        <ele>1385.4</ele>
        <time>2024-07-02T11:29:48Z</time>
      </trkpt>
      <trkpt lat="44.86527" lon="5.27025">
        <ele>1385.5</ele>
        <time>2024-07-02T11:29:49Z</time>
      </trkpt>
      <trkpt lat="44.86527" lon="5.27025">
        <ele>1385.5</ele>
        <time>2024-07-02T11:29:50Z</time>
      </trkpt>
      <trkpt lat="44.86525" lon="5.27025">
        <ele>1385.7</ele>
        <time>2024-07-02T11:29:51Z</time>
      </trkpt>
      <trkpt lat="44.86524" lon="5.27025">
        <ele>1385.8</ele>
        <time>2024-07-02T11:29:52Z</time>
      </trkpt>
      <trkpt lat="44.86523" lon="5.27024">
        <ele>1385.9</ele>
        <time>2024-07-02T11:29:53Z</time>
      </trkpt>
      <trkpt lat="44.86522" lon="5.27024">
        <ele>1386</ele>
        <time>2024-07-02T11:29:54Z</time>
      </trkpt>
      <trkpt lat="44.86522" lon="5.27024">
        <ele>1386.1</ele>
        <time>2024-07-02T11:29:55Z</time>
      </trkpt>
      <trkpt lat="44.86521" lon="5.27024">
        <ele>1386.2</ele>
        <time>2024-07-02T11:29:56Z</time>
      </trkpt>
      <trkpt lat="44.86519" lon="5.27025">
        <ele>1386.3</ele>
        <time>2024-07-02T11:29:57Z</time>
      </trkpt>
      <trkpt lat="44.86518" lon="5.27025">
        <ele>1386.4</ele>
        <time>2024-07-02T11:29:58Z</time>
      </trkpt>
      <trkpt lat="44.86517" lon="5.27024">
        <ele>1386.5</ele>
        <time>2024-07-02T11:29:59Z</time>
      </trkpt>
      <trkpt lat="44.86516" lon="5.27025">
        <ele>1386.6</ele>
        <time>2024-07-02T11:30:00Z</time>
      </trkpt>
      <trkpt lat="44.86515" lon="5.27025">
        <ele>1386.7</ele>
        <time>2024-07-02T11:30:01Z</time>
      </trkpt>
      <trkpt lat="44.86514" lon="5.27025">
        <ele>1386.8</ele>
        <time>2024-07-02T11:30:02Z</time>
      </trkpt>
      <trkpt lat="44.86513" lon="5.27024">
        <ele>1386.9</ele>
        <time>2024-07-02T11:30:03Z</time>
      </trkpt>
      <trkpt lat="44.86512" lon="5.27024">
        <ele>1387</ele>
        <time>2024-07-02T11:30:04Z</time>
      </trkpt>
      <trkpt lat="44.86511" lon="5.27024">
        <ele>1387.1</ele>
        <time>2024-07-02T11:30:05Z</time>
      </trkpt>
      <trkpt lat="44.8651" lon="5.27023">
        <ele>1387.2</ele>
        <time>2024-07-02T11:30:06Z</time>
      </trkpt>
      <trkpt lat="44.86509" lon="5.27023">
        <ele>1387.4</ele>
        <time>2024-07-02T11:30:07Z</time>
      </trkpt>
      <trkpt lat="44.86508" lon="5.27023">
        <ele>1387.5</ele>
        <time>2024-07-02T11:30:08Z</time>
      </trkpt>
      <trkpt lat="44.86507" lon="5.27023">
        <ele>1387.6</ele>
        <time>2024-07-02T11:30:09Z</time>
      </trkpt>
      <trkpt lat="44.86506" lon="5.27023">
        <ele>1387.7</ele>
        <time>2024-07-02T11:30:10Z</time>
      </trkpt>
      <trkpt lat="44.86505" lon="5.27023">
        <ele>1387.8</ele>
        <time>2024-07-02T11:30:11Z</time>
      </trkpt>
      <trkpt lat="44.86503" lon="5.27023">
        <ele>1387.9</ele>
        <time>2024-07-02T11:30:12Z</time>
      </trkpt>
      <trkpt lat="44.86503" lon="5.27023">
        <ele>1388</ele>
        <time>2024-07-02T11:30:13Z</time>
      </trkpt>
      <trkpt lat="44.86502" lon="5.27023">
        <ele>1388.1</ele>
        <time>2024-07-02T11:30:14Z</time>
      </trkpt>
      <trkpt lat="44.86501" lon="5.27024">
        <ele>1388.2</ele>
        <time>2024-07-02T11:30:15Z</time>
      </trkpt>
      <trkpt lat="44.865" lon="5.27024">
        <ele>1388.3</ele>
        <time>2024-07-02T11:30:16Z</time>
      </trkpt>
      <trkpt lat="44.86499" lon="5.27024">
        <ele>1388.5</ele>
        <time>2024-07-02T11:30:17Z</time>
      </trkpt>
      <trkpt lat="44.86498" lon="5.27024">
        <ele>1388.5</ele>
        <time>2024-07-02T11:30:18Z</time>
      </trkpt>
      <trkpt lat="44.86496" lon="5.27024">
        <ele>1388.7</ele>
        <time>2024-07-02T11:30:19Z</time>
      </trkpt>
      <trkpt lat="44.86496" lon="5.27024">
        <ele>1388.8</ele>
        <time>2024-07-02T11:30:20Z</time>
      </trkpt>
      <trkpt lat="44.86495" lon="5.27024">
        <ele>1388.9</ele>
        <time>2024-07-02T11:30:21Z</time>
      </trkpt>
      <trkpt lat="44.86493" lon="5.27024">
        <ele>1389</ele>
        <time>2024-07-02T11:30:22Z</time>
      </trkpt>
      <trkpt lat="44.86493" lon="5.27025">
        <ele>1389.1</ele>
        <time>2024-07-02T11:30:23Z</time>
      </trkpt>
      <trkpt lat="44.86491" lon="5.27025">
        <ele>1389.2</ele>
        <time>2024-07-02T11:30:24Z</time>
      </trkpt>
      <trkpt lat="44.86491" lon="5.27025">
        <ele>1389.3</ele>
        <time>2024-07-02T11:30:25Z</time>
      </trkpt>
      <trkpt lat="44.8649" lon="5.27026">
        <ele>1389.4</ele>
        <time>2024-07-02T11:30:26Z</time>
      </trkpt>
      <trkpt lat="44.86488" lon="5.27026">
        <ele>1389.6</ele>
        <time>2024-07-02T11:30:27Z</time>
      </trkpt>
      <trkpt lat="44.86488" lon="5.27026">
        <ele>1389.6</ele>
        <time>2024-07-02T11:30:28Z</time>
      </trkpt>
      <trkpt lat="44.86487" lon="5.27027">
        <ele>1389.7</ele>
        <time>2024-07-02T11:30:29Z</time>
      </trkpt>
      <trkpt lat="44.86485" lon="5.27027">
        <ele>1389.9</ele>
        <time>2024-07-02T11:30:30Z</time>
      </trkpt>
      <trkpt lat="44.86484" lon="5.27027">
        <ele>1390</ele>
        <time>2024-07-02T11:30:31Z</time>
      </trkpt>
      <trkpt lat="44.86483" lon="5.27028">
        <ele>1390.1</ele>
        <time>2024-07-02T11:30:32Z</time>
      </trkpt>
      <trkpt lat="44.86482" lon="5.27028">
        <ele>1390.2</ele>
        <time>2024-07-02T11:30:33Z</time>
      </trkpt>
      <trkpt lat="44.86481" lon="5.27028">
        <ele>1390.3</ele>
        <time>2024-07-02T11:30:34Z</time>
      </trkpt>
      <trkpt lat="44.8648" lon="5.27028">
        <ele>1390.4</ele>
        <time>2024-07-02T11:30:35Z</time>
      </trkpt>
      <trkpt lat="44.86479" lon="5.27029">
        <ele>1390.5</ele>
        <time>2024-07-02T11:30:36Z</time>
      </trkpt>
      <trkpt lat="44.86478" lon="5.27029">
        <ele>1390.7</ele>
        <time>2024-07-02T11:30:37Z</time>
      </trkpt>
      <trkpt lat="44.86477" lon="5.27029">
        <ele>1390.8</ele>
        <time>2024-07-02T11:30:38Z</time>
      </trkpt>
      <trkpt lat="44.86476" lon="5.2703">
        <ele>1390.9</ele>
        <time>2024-07-02T11:30:39Z</time>
      </trkpt>
      <trkpt lat="44.86475" lon="5.27031">
        <ele>1391</ele>
        <time>2024-07-02T11:30:40Z</time>
      </trkpt>
      <trkpt lat="44.86474" lon="5.27031">
        <ele>1391.1</ele>
        <time>2024-07-02T11:30:41Z</time>
      </trkpt>
      <trkpt lat="44.86472" lon="5.27032">
        <ele>1391.3</ele>
        <time>2024-07-02T11:30:42Z</time>
      </trkpt>
      <trkpt lat="44.86471" lon="5.27032">
        <ele>1391.4</ele>
        <time>2024-07-02T11:30:43Z</time>
      </trkpt>
      <trkpt lat="44.86471" lon="5.27032">
        <ele>1391.4</ele>
        <time>2024-07-02T11:30:44Z</time>
      </trkpt>
      <trkpt lat="44.86469" lon="5.27033">
        <ele>1391.6</ele>
        <time>2024-07-02T11:30:45Z</time>
      </trkpt>
      <trkpt lat="44.86469" lon="5.27033">
        <ele>1391.7</ele>
        <time>2024-07-02T11:30:46Z</time>
      </trkpt>
      <trkpt lat="44.86467" lon="5.27033">
        <ele>1391.8</ele>
        <time>2024-07-02T11:30:47Z</time>
      </trkpt>
      <trkpt lat="44.86467" lon="5.27034">
        <ele>1391.8</ele>
        <time>2024-07-02T11:30:48Z</time>
      </trkpt>
      <trkpt lat="44.86466" lon="5.27034">
        <ele>1391.9</ele>
        <time>2024-07-02T11:30:49Z</time>
      </trkpt>
      <trkpt lat="44.86465" lon="5.27035">
        <ele>1392.1</ele>
        <time>2024-07-02T11:30:50Z</time>
      </trkpt>
      <trkpt lat="44.86464" lon="5.27035">
        <ele>1392.2</ele>
        <time>2024-07-02T11:30:51Z</time>
      </trkpt>
      <trkpt lat="44.86462" lon="5.27036">
        <ele>1392.3</ele>
        <time>2024-07-02T11:30:52Z</time>
      </trkpt>
      <trkpt lat="44.86462" lon="5.27036">
        <ele>1392.4</ele>
        <time>2024-07-02T11:30:53Z</time>
      </trkpt>
      <trkpt lat="44.86461" lon="5.27036">
        <ele>1392.5</ele>
        <time>2024-07-02T11:30:54Z</time>
      </trkpt>
      <trkpt lat="44.8646" lon="5.27037">
        <ele>1392.6</ele>
        <time>2024-07-02T11:30:55Z</time>
      </trkpt>
      <trkpt lat="44.86459" lon="5.27037">
        <ele>1392.7</ele>
        <time>2024-07-02T11:30:56Z</time>
      </trkpt>
      <trkpt lat="44.86457" lon="5.27037">
        <ele>1392.9</ele>
        <time>2024-07-02T11:30:57Z</time>
      </trkpt>
      <trkpt lat="44.86457" lon="5.27037">
        <ele>1392.9</ele>
        <time>2024-07-02T11:30:58Z</time>
      </trkpt>
      <trkpt lat="44.86456" lon="5.27037">
        <ele>1393</ele>
        <time>2024-07-02T11:30:59Z</time>
      </trkpt>
      <trkpt lat="44.86454" lon="5.27037">
        <ele>1393.2</ele>
        <time>2024-07-02T11:31:00Z</time>
      </trkpt>
      <trkpt lat="44.86453" lon="5.27037">
        <ele>1393.3</ele>
        <time>2024-07-02T11:31:01Z</time>
      </trkpt>
      <trkpt lat="44.86452" lon="5.27037">
        <ele>1393.4</ele>
        <time>2024-07-02T11:31:02Z</time>
      </trkpt>
      <trkpt lat="44.86451" lon="5.27037">
        <ele>1393.5</ele>
        <time>2024-07-02T11:31:03Z</time>
      </trkpt>
      <trkpt lat="44.8645" lon="5.27037">
        <ele>1393.6</ele>
        <time>2024-07-02T11:31:04Z</time>
      </trkpt>
      <trkpt lat="44.86449" lon="5.27037">
        <ele>1393.7</ele>
        <time>2024-07-02T11:31:05Z</time>
      </trkpt>
      <trkpt lat="44.86448" lon="5.27037">
        <ele>1393.8</ele>
        <time>2024-07-02T11:31:06Z</time>
      </trkpt>
      <trkpt lat="44.86447" lon="5.27038">
        <ele>1393.9</ele>
        <time>2024-07-02T11:31:07Z</time>
      </trkpt>
      <trkpt lat="44.86446" lon="5.27038">
        <ele>1394.1</ele>
        <time>2024-07-02T11:31:08Z</time>
      </trkpt>
      <trkpt lat="44.86445" lon="5.27038">
        <ele>1394.2</ele>
        <time>2024-07-02T11:31:09Z</time>
      </trkpt>
      <trkpt lat="44.86444" lon="5.27039">
        <ele>1394.3</ele>
        <time>2024-07-02T11:31:10Z</time>
      </trkpt>
      <trkpt lat="44.86443" lon="5.27039">
        <ele>1394.4</ele>
        <time>2024-07-02T11:31:11Z</time>
      </trkpt>
      <trkpt lat="44.86441" lon="5.27039">
        <ele>1394.5</ele>
        <time>2024-07-02T11:31:12Z</time>
      </trkpt>
      <trkpt lat="44.86441" lon="5.2704">
        <ele>1394.6</ele>
        <time>2024-07-02T11:31:13Z</time>
      </trkpt>
      <trkpt lat="44.8644" lon="5.2704">
        <ele>1394.7</ele>
        <time>2024-07-02T11:31:14Z</time>
      </trkpt>
      <trkpt lat="44.86438" lon="5.27041">
        <ele>1394.9</ele>
        <time>2024-07-02T11:31:15Z</time>
      </trkpt>
      <trkpt lat="44.86437" lon="5.27041">
        <ele>1395</ele>
        <time>2024-07-02T11:31:16Z</time>
      </trkpt>
      <trkpt lat="44.86436" lon="5.27041">
        <ele>1395.1</ele>
        <time>2024-07-02T11:31:17Z</time>
      </trkpt>
      <trkpt lat="44.86435" lon="5.27041">
        <ele>1395.2</ele>
        <time>2024-07-02T11:31:18Z</time>
      </trkpt>
      <trkpt lat="44.86434" lon="5.27042">
        <ele>1395.3</ele>
        <time>2024-07-02T11:31:19Z</time>
      </trkpt>
      <trkpt lat="44.86433" lon="5.27043">
        <ele>1395.5</ele>
        <time>2024-07-02T11:31:20Z</time>
      </trkpt>
      <trkpt lat="44.86433" lon="5.27046">
        <ele>1395.7</ele>
        <time>2024-07-02T11:31:21Z</time>
      </trkpt>
      <trkpt lat="44.86433" lon="5.27047">
        <ele>1395.8</ele>
        <time>2024-07-02T11:31:22Z</time>
      </trkpt>
      <trkpt lat="44.86433" lon="5.27048">
        <ele>1395.9</ele>
        <time>2024-07-02T11:31:23Z</time>
      </trkpt>
      <trkpt lat="44.86433" lon="5.2705">
        <ele>1396</ele>
        <time>2024-07-02T11:31:24Z</time>
      </trkpt>
      <trkpt lat="44.86432" lon="5.27051">
        <ele>1396.1</ele>
        <time>2024-07-02T11:31:25Z</time>
      </trkpt>
      <trkpt lat="44.86432" lon="5.27053">
        <ele>1396.2</ele>
        <time>2024-07-02T11:31:26Z</time>
      </trkpt>
      <trkpt lat="44.86431" lon="5.27054">
        <ele>1396.4</ele>
        <time>2024-07-02T11:31:27Z</time>
      </trkpt>
      <trkpt lat="44.8643" lon="5.27055">
        <ele>1396.5</ele>
        <time>2024-07-02T11:31:28Z</time>
      </trkpt>
      <trkpt lat="44.86429" lon="5.27056">
        <ele>1396.6</ele>
        <time>2024-07-02T11:31:29Z</time>
      </trkpt>
      <trkpt lat="44.86427" lon="5.27058">
        <ele>1396.9</ele>
        <time>2024-07-02T11:31:30Z</time>
      </trkpt>
      <trkpt lat="44.86427" lon="5.27058">
        <ele>1397</ele>
        <time>2024-07-02T11:31:31Z</time>
      </trkpt>
      <trkpt lat="44.86426" lon="5.27059">
        <ele>1397.1</ele>
        <time>2024-07-02T11:31:32Z</time>
      </trkpt>
      <trkpt lat="44.86425" lon="5.27059">
        <ele>1397.1</ele>
        <time>2024-07-02T11:31:33Z</time>
      </trkpt>
      <trkpt lat="44.86425" lon="5.2706">
        <ele>1397.2</ele>
        <time>2024-07-02T11:31:34Z</time>
      </trkpt>
      <trkpt lat="44.86424" lon="5.27061">
        <ele>1397.3</ele>
        <time>2024-07-02T11:31:35Z</time>
      </trkpt>
      <trkpt lat="44.86423" lon="5.27062">
        <ele>1397.5</ele>
        <time>2024-07-02T11:31:36Z</time>
      </trkpt>
      <trkpt lat="44.86422" lon="5.27062">
        <ele>1397.6</ele>
        <time>2024-07-02T11:31:37Z</time>
      </trkpt>
      <trkpt lat="44.86421" lon="5.27063">
        <ele>1397.7</ele>
        <time>2024-07-02T11:31:38Z</time>
      </trkpt>
      <trkpt lat="44.8642" lon="5.27063">
        <ele>1397.8</ele>
        <time>2024-07-02T11:31:39Z</time>
      </trkpt>
      <trkpt lat="44.86419" lon="5.27064">
        <ele>1397.9</ele>
        <time>2024-07-02T11:31:40Z</time>
      </trkpt>
      <trkpt lat="44.86418" lon="5.27064">
        <ele>1398.1</ele>
        <time>2024-07-02T11:31:41Z</time>
      </trkpt>
      <trkpt lat="44.86417" lon="5.27064">
        <ele>1398.2</ele>
        <time>2024-07-02T11:31:42Z</time>
      </trkpt>
      <trkpt lat="44.86416" lon="5.27065">
        <ele>1398.3</ele>
        <time>2024-07-02T11:31:43Z</time>
      </trkpt>
      <trkpt lat="44.86415" lon="5.27065">
        <ele>1398.4</ele>
        <time>2024-07-02T11:31:44Z</time>
      </trkpt>
      <trkpt lat="44.86414" lon="5.27066">
        <ele>1398.5</ele>
        <time>2024-07-02T11:31:45Z</time>
      </trkpt>
      <trkpt lat="44.86413" lon="5.27066">
        <ele>1398.7</ele>
        <time>2024-07-02T11:31:46Z</time>
      </trkpt>
      <trkpt lat="44.86411" lon="5.27067">
        <ele>1398.8</ele>
        <time>2024-07-02T11:31:47Z</time>
      </trkpt>
      <trkpt lat="44.8641" lon="5.27068">
        <ele>1399</ele>
        <time>2024-07-02T11:31:48Z</time>
      </trkpt>
      <trkpt lat="44.86409" lon="5.27068">
        <ele>1399.1</ele>
        <time>2024-07-02T11:31:49Z</time>
      </trkpt>
      <trkpt lat="44.86409" lon="5.27069">
        <ele>1399.2</ele>
        <time>2024-07-02T11:31:50Z</time>
      </trkpt>
      <trkpt lat="44.86408" lon="5.27069">
        <ele>1399.2</ele>
        <time>2024-07-02T11:31:51Z</time>
      </trkpt>
      <trkpt lat="44.86407" lon="5.2707">
        <ele>1399.2</ele>
        <time>2024-07-02T11:31:52Z</time>
      </trkpt>
      <trkpt lat="44.86406" lon="5.27071">
        <ele>1399.2</ele>
        <time>2024-07-02T11:31:53Z</time>
      </trkpt>
      <trkpt lat="44.86405" lon="5.27071">
        <ele>1399.2</ele>
        <time>2024-07-02T11:31:54Z</time>
      </trkpt>
      <trkpt lat="44.86404" lon="5.27072">
        <ele>1399.2</ele>
        <time>2024-07-02T11:31:55Z</time>
      </trkpt>
      <trkpt lat="44.86403" lon="5.27072">
        <ele>1399.2</ele>
        <time>2024-07-02T11:31:56Z</time>
      </trkpt>
      <trkpt lat="44.86402" lon="5.27073">
        <ele>1399.4</ele>
        <time>2024-07-02T11:31:57Z</time>
      </trkpt>
      <trkpt lat="44.86401" lon="5.27073">
        <ele>1399.5</ele>
        <time>2024-07-02T11:31:58Z</time>
      </trkpt>
      <trkpt lat="44.864" lon="5.27073">
        <ele>1399.6</ele>
        <time>2024-07-02T11:31:59Z</time>
      </trkpt>
      <trkpt lat="44.86399" lon="5.27074">
        <ele>1399.7</ele>
        <time>2024-07-02T11:32:00Z</time>
      </trkpt>
      <trkpt lat="44.86398" lon="5.27074">
        <ele>1399.8</ele>
        <time>2024-07-02T11:32:01Z</time>
      </trkpt>
      <trkpt lat="44.86397" lon="5.27074">
        <ele>1399.9</ele>
        <time>2024-07-02T11:32:02Z</time>
      </trkpt>
      <trkpt lat="44.86396" lon="5.27074">
        <ele>1400</ele>
        <time>2024-07-02T11:32:03Z</time>
      </trkpt>
      <trkpt lat="44.86395" lon="5.27075">
        <ele>1400.1</ele>
        <time>2024-07-02T11:32:04Z</time>
      </trkpt>
      <trkpt lat="44.86394" lon="5.27075">
        <ele>1400.2</ele>
        <time>2024-07-02T11:32:05Z</time>
      </trkpt>
      <trkpt lat="44.86393" lon="5.27076">
        <ele>1400.3</ele>
        <time>2024-07-02T11:32:06Z</time>
      </trkpt>
      <trkpt lat="44.86392" lon="5.27076">
        <ele>1400.5</ele>
        <time>2024-07-02T11:32:07Z</time>
      </trkpt>
      <trkpt lat="44.86391" lon="5.27077">
        <ele>1400.6</ele>
        <time>2024-07-02T11:32:08Z</time>
      </trkpt>
      <trkpt lat="44.8639" lon="5.27077">
        <ele>1400.7</ele>
        <time>2024-07-02T11:32:09Z</time>
      </trkpt>
      <trkpt lat="44.8639" lon="5.27078">
        <ele>1400.8</ele>
        <time>2024-07-02T11:32:10Z</time>
      </trkpt>
      <trkpt lat="44.86389" lon="5.27079">
        <ele>1400.9</ele>
        <time>2024-07-02T11:32:11Z</time>
      </trkpt>
      <trkpt lat="44.86388" lon="5.2708">
        <ele>1401</ele>
        <time>2024-07-02T11:32:12Z</time>
      </trkpt>
      <trkpt lat="44.86387" lon="5.2708">
        <ele>1401.1</ele>
        <time>2024-07-02T11:32:13Z</time>
      </trkpt>
      <trkpt lat="44.86386" lon="5.27081">
        <ele>1401.2</ele>
        <time>2024-07-02T11:32:14Z</time>
      </trkpt>
      <trkpt lat="44.86385" lon="5.27081">
        <ele>1401.3</ele>
        <time>2024-07-02T11:32:15Z</time>
      </trkpt>
      <trkpt lat="44.86384" lon="5.27082">
        <ele>1401.4</ele>
        <time>2024-07-02T11:32:16Z</time>
      </trkpt>
      <trkpt lat="44.86383" lon="5.27083">
        <ele>1401.5</ele>
        <time>2024-07-02T11:32:17Z</time>
      </trkpt>
      <trkpt lat="44.86382" lon="5.27084">
        <ele>1401.6</ele>
        <time>2024-07-02T11:32:18Z</time>
      </trkpt>
      <trkpt lat="44.86381" lon="5.27084">
        <ele>1401.7</ele>
        <time>2024-07-02T11:32:19Z</time>
      </trkpt>
      <trkpt lat="44.86381" lon="5.27085">
        <ele>1401.8</ele>
        <time>2024-07-02T11:32:20Z</time>
      </trkpt>
      <trkpt lat="44.8638" lon="5.27086">
        <ele>1401.9</ele>
        <time>2024-07-02T11:32:21Z</time>
      </trkpt>
      <trkpt lat="44.86378" lon="5.27087">
        <ele>1402</ele>
        <time>2024-07-02T11:32:22Z</time>
      </trkpt>
      <trkpt lat="44.86378" lon="5.27087">
        <ele>1402.1</ele>
        <time>2024-07-02T11:32:23Z</time>
      </trkpt>
      <trkpt lat="44.86377" lon="5.27088">
        <ele>1402.2</ele>
        <time>2024-07-02T11:32:24Z</time>
      </trkpt>
      <trkpt lat="44.86376" lon="5.27088">
        <ele>1402.3</ele>
        <time>2024-07-02T11:32:25Z</time>
      </trkpt>
      <trkpt lat="44.86375" lon="5.27089">
        <ele>1402.4</ele>
        <time>2024-07-02T11:32:26Z</time>
      </trkpt>
      <trkpt lat="44.86374" lon="5.27089">
        <ele>1402.5</ele>
        <time>2024-07-02T11:32:27Z</time>
      </trkpt>
      <trkpt lat="44.86373" lon="5.27089">
        <ele>1402.6</ele>
        <time>2024-07-02T11:32:28Z</time>
      </trkpt>
      <trkpt lat="44.86372" lon="5.2709">
        <ele>1402.7</ele>
        <time>2024-07-02T11:32:29Z</time>
      </trkpt>
      <trkpt lat="44.86371" lon="5.27091">
        <ele>1402.8</ele>
        <time>2024-07-02T11:32:30Z</time>
      </trkpt>
      <trkpt lat="44.8637" lon="5.27092">
        <ele>1402.9</ele>
        <time>2024-07-02T11:32:31Z</time>
      </trkpt>
      <trkpt lat="44.86369" lon="5.27093">
        <ele>1403</ele>
        <time>2024-07-02T11:32:32Z</time>
      </trkpt>
      <trkpt lat="44.86368" lon="5.27093">
        <ele>1403.1</ele>
        <time>2024-07-02T11:32:33Z</time>
      </trkpt>
      <trkpt lat="44.86367" lon="5.27094">
        <ele>1403.2</ele>
        <time>2024-07-02T11:32:34Z</time>
      </trkpt>
      <trkpt lat="44.86366" lon="5.27094">
        <ele>1403.3</ele>
        <time>2024-07-02T11:32:35Z</time>
      </trkpt>
      <trkpt lat="44.86365" lon="5.27095">
        <ele>1403.4</ele>
        <time>2024-07-02T11:32:36Z</time>
      </trkpt>
      <trkpt lat="44.86364" lon="5.27095">
        <ele>1403.5</ele>
        <time>2024-07-02T11:32:37Z</time>
      </trkpt>
      <trkpt lat="44.86363" lon="5.27096">
        <ele>1403.6</ele>
        <time>2024-07-02T11:32:38Z</time>
      </trkpt>
      <trkpt lat="44.86362" lon="5.27097">
        <ele>1403.7</ele>
        <time>2024-07-02T11:32:39Z</time>
      </trkpt>
      <trkpt lat="44.86361" lon="5.27097">
        <ele>1403.8</ele>
        <time>2024-07-02T11:32:40Z</time>
      </trkpt>
      <trkpt lat="44.8636" lon="5.27098">
        <ele>1403.9</ele>
        <time>2024-07-02T11:32:41Z</time>
      </trkpt>
      <trkpt lat="44.86359" lon="5.27098">
        <ele>1404</ele>
        <time>2024-07-02T11:32:42Z</time>
      </trkpt>
      <trkpt lat="44.86358" lon="5.27099">
        <ele>1404.1</ele>
        <time>2024-07-02T11:32:43Z</time>
      </trkpt>
      <trkpt lat="44.86356" lon="5.271">
        <ele>1404.3</ele>
        <time>2024-07-02T11:32:44Z</time>
      </trkpt>
      <trkpt lat="44.86355" lon="5.271">
        <ele>1404.4</ele>
        <time>2024-07-02T11:32:45Z</time>
      </trkpt>
      <trkpt lat="44.86354" lon="5.271">
        <ele>1404.4</ele>
        <time>2024-07-02T11:32:46Z</time>
      </trkpt>
      <trkpt lat="44.86353" lon="5.27101">
        <ele>1404.6</ele>
        <time>2024-07-02T11:32:47Z</time>
      </trkpt>
      <trkpt lat="44.86352" lon="5.27102">
        <ele>1404.7</ele>
        <time>2024-07-02T11:32:48Z</time>
      </trkpt>
      <trkpt lat="44.86351" lon="5.27102">
        <ele>1404.8</ele>
        <time>2024-07-02T11:32:49Z</time>
      </trkpt>
      <trkpt lat="44.86349" lon="5.27103">
        <ele>1404.9</ele>
        <time>2024-07-02T11:32:50Z</time>
      </trkpt>
      <trkpt lat="44.86349" lon="5.27104">
        <ele>1405</ele>
        <time>2024-07-02T11:32:51Z</time>
      </trkpt>
      <trkpt lat="44.86348" lon="5.27104">
        <ele>1405.1</ele>
        <time>2024-07-02T11:32:52Z</time>
      </trkpt>
      <trkpt lat="44.86347" lon="5.27105">
        <ele>1405.2</ele>
        <time>2024-07-02T11:32:53Z</time>
      </trkpt>
      <trkpt lat="44.86346" lon="5.27106">
        <ele>1405.3</ele>
        <time>2024-07-02T11:32:54Z</time>
      </trkpt>
      <trkpt lat="44.86345" lon="5.27106">
        <ele>1405.4</ele>
        <time>2024-07-02T11:32:55Z</time>
      </trkpt>
      <trkpt lat="44.86344" lon="5.27107">
        <ele>1405.5</ele>
        <time>2024-07-02T11:32:56Z</time>
      </trkpt>
      <trkpt lat="44.86342" lon="5.27108">
        <ele>1405.7</ele>
        <time>2024-07-02T11:32:57Z</time>
      </trkpt>
      <trkpt lat="44.86341" lon="5.27109">
        <ele>1405.8</ele>
        <time>2024-07-02T11:32:58Z</time>
      </trkpt>
      <trkpt lat="44.86341" lon="5.27109">
        <ele>1405.9</ele>
        <time>2024-07-02T11:32:59Z</time>
      </trkpt>
      <trkpt lat="44.8634" lon="5.2711">
        <ele>1405.9</ele>
        <time>2024-07-02T11:33:00Z</time>
      </trkpt>
      <trkpt lat="44.86339" lon="5.2711">
        <ele>1406</ele>
        <time>2024-07-02T11:33:01Z</time>
      </trkpt>
      <trkpt lat="44.86337" lon="5.27111">
        <ele>1406.2</ele>
        <time>2024-07-02T11:33:02Z</time>
      </trkpt>
      <trkpt lat="44.86336" lon="5.27112">
        <ele>1406.3</ele>
        <time>2024-07-02T11:33:03Z</time>
      </trkpt>
      <trkpt lat="44.86336" lon="5.27112">
        <ele>1406.4</ele>
        <time>2024-07-02T11:33:04Z</time>
      </trkpt>
      <trkpt lat="44.86334" lon="5.27113">
        <ele>1406.6</ele>
        <time>2024-07-02T11:33:05Z</time>
      </trkpt>
      <trkpt lat="44.86333" lon="5.27114">
        <ele>1406.6</ele>
        <time>2024-07-02T11:33:06Z</time>
      </trkpt>
      <trkpt lat="44.86332" lon="5.27114">
        <ele>1406.7</ele>
        <time>2024-07-02T11:33:07Z</time>
      </trkpt>
      <trkpt lat="44.86331" lon="5.27114">
        <ele>1406.8</ele>
        <time>2024-07-02T11:33:08Z</time>
      </trkpt>
      <trkpt lat="44.8633" lon="5.27115">
        <ele>1406.9</ele>
        <time>2024-07-02T11:33:09Z</time>
      </trkpt>
      <trkpt lat="44.86329" lon="5.27116">
        <ele>1407</ele>
        <time>2024-07-02T11:33:10Z</time>
      </trkpt>
      <trkpt lat="44.86328" lon="5.27117">
        <ele>1407.1</ele>
        <time>2024-07-02T11:33:11Z</time>
      </trkpt>
      <trkpt lat="44.86327" lon="5.27117">
        <ele>1407.2</ele>
        <time>2024-07-02T11:33:12Z</time>
      </trkpt>
      <trkpt lat="44.86326" lon="5.27118">
        <ele>1407.3</ele>
        <time>2024-07-02T11:33:13Z</time>
      </trkpt>
      <trkpt lat="44.86325" lon="5.27118">
        <ele>1407.4</ele>
        <time>2024-07-02T11:33:14Z</time>
      </trkpt>
      <trkpt lat="44.86324" lon="5.27119">
        <ele>1407.5</ele>
        <time>2024-07-02T11:33:15Z</time>
      </trkpt>
      <trkpt lat="44.86323" lon="5.2712">
        <ele>1407.6</ele>
        <time>2024-07-02T11:33:16Z</time>
      </trkpt>
      <trkpt lat="44.86322" lon="5.2712">
        <ele>1407.7</ele>
        <time>2024-07-02T11:33:17Z</time>
      </trkpt>
      <trkpt lat="44.86321" lon="5.27121">
        <ele>1407.8</ele>
        <time>2024-07-02T11:33:18Z</time>
      </trkpt>
      <trkpt lat="44.8632" lon="5.27122">
        <ele>1407.9</ele>
        <time>2024-07-02T11:33:19Z</time>
      </trkpt>
      <trkpt lat="44.86319" lon="5.27122">
        <ele>1408</ele>
        <time>2024-07-02T11:33:20Z</time>
      </trkpt>
      <trkpt lat="44.86318" lon="5.27123">
        <ele>1408.1</ele>
        <time>2024-07-02T11:33:21Z</time>
      </trkpt>
      <trkpt lat="44.86317" lon="5.27124">
        <ele>1408.2</ele>
        <time>2024-07-02T11:33:22Z</time>
      </trkpt>
      <trkpt lat="44.86316" lon="5.27125">
        <ele>1408.3</ele>
        <time>2024-07-02T11:33:23Z</time>
      </trkpt>
      <trkpt lat="44.86316" lon="5.27126">
        <ele>1408.4</ele>
        <time>2024-07-02T11:33:24Z</time>
      </trkpt>
      <trkpt lat="44.86315" lon="5.27127">
        <ele>1408.5</ele>
        <time>2024-07-02T11:33:25Z</time>
      </trkpt>
      <trkpt lat="44.86314" lon="5.27128">
        <ele>1408.6</ele>
        <time>2024-07-02T11:33:26Z</time>
      </trkpt>
      <trkpt lat="44.86314" lon="5.27129">
        <ele>1408.6</ele>
        <time>2024-07-02T11:33:27Z</time>
      </trkpt>
      <trkpt lat="44.86314" lon="5.2713">
        <ele>1408.7</ele>
        <time>2024-07-02T11:33:28Z</time>
      </trkpt>
      <trkpt lat="44.86314" lon="5.27132">
        <ele>1408.8</ele>
        <time>2024-07-02T11:33:29Z</time>
      </trkpt>
      <trkpt lat="44.86314" lon="5.27132">
        <ele>1408.9</ele>
        <time>2024-07-02T11:33:30Z</time>
      </trkpt>
      <trkpt lat="44.86315" lon="5.27133">
        <ele>1408.9</ele>
        <time>2024-07-02T11:33:31Z</time>
      </trkpt>
      <trkpt lat="44.86315" lon="5.27133">
        <ele>1409</ele>
        <time>2024-07-02T11:33:32Z</time>
      </trkpt>
      <trkpt lat="44.86315" lon="5.27134">
        <ele>1409</ele>
        <time>2024-07-02T11:33:33Z</time>
      </trkpt>
      <trkpt lat="44.86315" lon="5.27135">
        <ele>1409.1</ele>
        <time>2024-07-02T11:33:34Z</time>
      </trkpt>
      <trkpt lat="44.86315" lon="5.27136">
        <ele>1409.1</ele>
        <time>2024-07-02T11:33:35Z</time>
      </trkpt>
      <trkpt lat="44.86314" lon="5.27137">
        <ele>1409.2</ele>
        <time>2024-07-02T11:33:36Z</time>
      </trkpt>
      <trkpt lat="44.86314" lon="5.27137">
        <ele>1409.2</ele>
        <time>2024-07-02T11:33:37Z</time>
      </trkpt>
      <trkpt lat="44.86314" lon="5.27137">
        <ele>1409.2</ele>
        <time>2024-07-02T11:33:38Z</time>
      </trkpt>
      <trkpt lat="44.86314" lon="5.27137">
        <ele>1409.3</ele>
        <time>2024-07-02T11:33:39Z</time>
      </trkpt>
      <trkpt lat="44.86314" lon="5.27137">
        <ele>1409.3</ele>
        <time>2024-07-02T11:33:40Z</time>
      </trkpt>
      <trkpt lat="44.86315" lon="5.27137">
        <ele>1409.3</ele>
        <time>2024-07-02T11:33:41Z</time>
      </trkpt>
      <trkpt lat="44.86315" lon="5.27136">
        <ele>1409.3</ele>
        <time>2024-07-02T11:33:42Z</time>
      </trkpt>
      <trkpt lat="44.86315" lon="5.27136">
        <ele>1409.3</ele>
        <time>2024-07-02T11:33:43Z</time>
      </trkpt>
      <trkpt lat="44.86315" lon="5.27136">
        <ele>1409.3</ele>
        <time>2024-07-02T11:33:44Z</time>
      </trkpt>
      <trkpt lat="44.86315" lon="5.27136">
        <ele>1409.3</ele>
        <time>2024-07-02T11:33:45Z</time>
      </trkpt>
      <trkpt lat="44.86315" lon="5.27136">
        <ele>1409.4</ele>
        <time>2024-07-02T11:33:46Z</time>
      </trkpt>
      <trkpt lat="44.86315" lon="5.27136">
        <ele>1409.4</ele>
        <time>2024-07-02T11:33:47Z</time>
      </trkpt>
      <trkpt lat="44.86315" lon="5.27136">
        <ele>1409.4</ele>
        <time>2024-07-02T11:33:48Z</time>
      </trkpt>
      <trkpt lat="44.86315" lon="5.27136">
        <ele>1409.4</ele>
        <time>2024-07-02T11:33:49Z</time>
      </trkpt>
      <trkpt lat="44.86315" lon="5.27136">
        <ele>1409.4</ele>
        <time>2024-07-02T11:33:50Z</time>
      </trkpt>
      <trkpt lat="44.86315" lon="5.27136">
        <ele>1409.4</ele>
        <time>2024-07-02T11:33:51Z</time>
      </trkpt>
      <trkpt lat="44.86315" lon="5.27135">
        <ele>1409.4</ele>
        <time>2024-07-02T11:33:52Z</time>
      </trkpt>
      <trkpt lat="44.86315" lon="5.27136">
        <ele>1409.4</ele>
        <time>2024-07-02T11:33:53Z</time>
      </trkpt>
      <trkpt lat="44.86314" lon="5.27136">
        <ele>1409.4</ele>
        <time>2024-07-02T11:33:54Z</time>
      </trkpt>
      <trkpt lat="44.86313" lon="5.27136">
        <ele>1409.5</ele>
        <time>2024-07-02T11:33:55Z</time>
      </trkpt>
      <trkpt lat="44.86313" lon="5.27136">
        <ele>1409.6</ele>
        <time>2024-07-02T11:33:56Z</time>
      </trkpt>
      <trkpt lat="44.86312" lon="5.27137">
        <ele>1409.6</ele>
        <time>2024-07-02T11:33:57Z</time>
      </trkpt>
      <trkpt lat="44.86312" lon="5.27137">
        <ele>1409.6</ele>
        <time>2024-07-02T11:33:58Z</time>
      </trkpt>
      <trkpt lat="44.86312" lon="5.27137">
        <ele>1409.6</ele>
        <time>2024-07-02T11:33:59Z</time>
      </trkpt>
      <trkpt lat="44.86312" lon="5.27137">
        <ele>1409.6</ele>
        <time>2024-07-02T11:34:00Z</time>
      </trkpt>
      <trkpt lat="44.86312" lon="5.27137">
        <ele>1409.6</ele>
        <time>2024-07-02T11:34:01Z</time>
      </trkpt>
      <trkpt lat="44.86312" lon="5.27137">
        <ele>1409.6</ele>
        <time>2024-07-02T11:34:02Z</time>
      </trkpt>
      <trkpt lat="44.86312" lon="5.27137">
        <ele>1409.7</ele>
        <time>2024-07-02T11:34:03Z</time>
      </trkpt>
      <trkpt lat="44.86312" lon="5.27137">
        <ele>1409.7</ele>
        <time>2024-07-02T11:34:04Z</time>
      </trkpt>
      <trkpt lat="44.86312" lon="5.27137">
        <ele>1409.7</ele>
        <time>2024-07-02T11:34:05Z</time>
      </trkpt>
      <trkpt lat="44.86312" lon="5.27137">
        <ele>1409.7</ele>
        <time>2024-07-02T11:34:06Z</time>
      </trkpt>
      <trkpt lat="44.86312" lon="5.27137">
        <ele>1409.7</ele>
        <time>2024-07-02T11:34:07Z</time>
      </trkpt>
      <trkpt lat="44.86312" lon="5.27137">
        <ele>1409.7</ele>
        <time>2024-07-02T11:34:08Z</time>
      </trkpt>
      <trkpt lat="44.86312" lon="5.27137">
        <ele>1409.7</ele>
        <time>2024-07-02T11:34:09Z</time>
      </trkpt>
      <trkpt lat="44.86312" lon="5.27137">
        <ele>1409.7</ele>
        <time>2024-07-02T11:34:10Z</time>
      </trkpt>
      <trkpt lat="44.86312" lon="5.27137">
        <ele>1409.7</ele>
        <time>2024-07-02T11:34:11Z</time>
      </trkpt>
      <trkpt lat="44.86312" lon="5.27137">
        <ele>1409.7</ele>
        <time>2024-07-02T11:34:12Z</time>
      </trkpt>
      <trkpt lat="44.86312" lon="5.27137">
        <ele>1409.7</ele>
        <time>2024-07-02T11:34:13Z</time>
      </trkpt>
      <trkpt lat="44.86312" lon="5.27136">
        <ele>1409.7</ele>
        <time>2024-07-02T11:34:14Z</time>
      </trkpt>
      <trkpt lat="44.86312" lon="5.27136">
        <ele>1409.7</ele>
        <time>2024-07-02T11:34:15Z</time>
      </trkpt>
      <trkpt lat="44.86312" lon="5.27136">
        <ele>1409.7</ele>
        <time>2024-07-02T11:34:16Z</time>
      </trkpt>
      <trkpt lat="44.86312" lon="5.27136">
        <ele>1409.7</ele>
        <time>2024-07-02T11:34:17Z</time>
      </trkpt>
      <trkpt lat="44.86312" lon="5.27136">
        <ele>1409.7</ele>
        <time>2024-07-02T11:34:18Z</time>
      </trkpt>
      <trkpt lat="44.86312" lon="5.27136">
        <ele>1409.7</ele>
        <time>2024-07-02T11:34:19Z</time>
      </trkpt>
      <trkpt lat="44.86312" lon="5.27136">
        <ele>1409.7</ele>
        <time>2024-07-02T11:34:20Z</time>
      </trkpt>
      <trkpt lat="44.86312" lon="5.27136">
        <ele>1409.7</ele>
        <time>2024-07-02T11:34:21Z</time>
      </trkpt>
      <trkpt lat="44.86312" lon="5.27136">
        <ele>1409.7</ele>
        <time>2024-07-02T11:34:22Z</time>
      </trkpt>
      <trkpt lat="44.86312" lon="5.27136">
        <ele>1409.8</ele>
        <time>2024-07-02T11:34:23Z</time>
      </trkpt>
      <trkpt lat="44.86312" lon="5.27136">
        <ele>1409.8</ele>
        <time>2024-07-02T11:34:24Z</time>
      </trkpt>
      <trkpt lat="44.86312" lon="5.27136">
        <ele>1409.8</ele>
        <time>2024-07-02T11:34:25Z</time>
      </trkpt>
      <trkpt lat="44.86312" lon="5.27136">
        <ele>1409.8</ele>
        <time>2024-07-02T11:34:26Z</time>
      </trkpt>
      <trkpt lat="44.86312" lon="5.27136">
        <ele>1409.8</ele>
        <time>2024-07-02T11:34:27Z</time>
      </trkpt>
      <trkpt lat="44.86312" lon="5.27136">
        <ele>1409.8</ele>
        <time>2024-07-02T11:34:28Z</time>
      </trkpt>
      <trkpt lat="44.86312" lon="5.27136">
        <ele>1409.8</ele>
        <time>2024-07-02T11:34:29Z</time>
      </trkpt>
      <trkpt lat="44.86311" lon="5.27136">
        <ele>1409.8</ele>
        <time>2024-07-02T11:34:30Z</time>
      </trkpt>
      <trkpt lat="44.86311" lon="5.27136">
        <ele>1409.8</ele>
        <time>2024-07-02T11:34:31Z</time>
      </trkpt>
      <trkpt lat="44.86311" lon="5.27135">
        <ele>1409.8</ele>
        <time>2024-07-02T11:34:32Z</time>
      </trkpt>
      <trkpt lat="44.86311" lon="5.27135">
        <ele>1409.8</ele>
        <time>2024-07-02T11:34:33Z</time>
      </trkpt>
      <trkpt lat="44.86311" lon="5.27135">
        <ele>1409.8</ele>
        <time>2024-07-02T11:34:34Z</time>
      </trkpt>
      <trkpt lat="44.86311" lon="5.27135">
        <ele>1409.8</ele>
        <time>2024-07-02T11:34:35Z</time>
      </trkpt>
      <trkpt lat="44.86311" lon="5.27135">
        <ele>1409.8</ele>
        <time>2024-07-02T11:34:36Z</time>
      </trkpt>
      <trkpt lat="44.86311" lon="5.27135">
        <ele>1409.8</ele>
        <time>2024-07-02T11:34:37Z</time>
      </trkpt>
      <trkpt lat="44.86311" lon="5.27135">
        <ele>1409.8</ele>
        <time>2024-07-02T11:34:38Z</time>
      </trkpt>
      <trkpt lat="44.86311" lon="5.27135">
        <ele>1409.8</ele>
        <time>2024-07-02T11:34:39Z</time>
      </trkpt>
      <trkpt lat="44.86311" lon="5.27135">
        <ele>1409.8</ele>
        <time>2024-07-02T11:34:40Z</time>
      </trkpt>
      <trkpt lat="44.86311" lon="5.27135">
        <ele>1409.8</ele>
        <time>2024-07-02T11:34:41Z</time>
      </trkpt>
      <trkpt lat="44.86311" lon="5.27135">
        <ele>1409.8</ele>
        <time>2024-07-02T11:34:42Z</time>
      </trkpt>
      <trkpt lat="44.86311" lon="5.27135">
        <ele>1409.8</ele>
        <time>2024-07-02T11:34:43Z</time>
      </trkpt>
      <trkpt lat="44.86311" lon="5.27135">
        <ele>1409.9</ele>
        <time>2024-07-02T11:34:44Z</time>
      </trkpt>
      <trkpt lat="44.86311" lon="5.27135">
        <ele>1409.9</ele>
        <time>2024-07-02T11:34:45Z</time>
      </trkpt>
      <trkpt lat="44.86311" lon="5.27135">
        <ele>1409.9</ele>
        <time>2024-07-02T11:34:46Z</time>
      </trkpt>
      <trkpt lat="44.86311" lon="5.27135">
        <ele>1409.9</ele>
        <time>2024-07-02T11:34:47Z</time>
      </trkpt>
      <trkpt lat="44.86311" lon="5.27135">
        <ele>1409.9</ele>
        <time>2024-07-02T11:34:48Z</time>
      </trkpt>
      <trkpt lat="44.86311" lon="5.27135">
        <ele>1409.9</ele>
        <time>2024-07-02T11:34:49Z</time>
      </trkpt>
      <trkpt lat="44.86311" lon="5.27134">
        <ele>1409.9</ele>
        <time>2024-07-02T11:34:50Z</time>
      </trkpt>
      <trkpt lat="44.86311" lon="5.27134">
        <ele>1409.9</ele>
        <time>2024-07-02T11:34:51Z</time>
      </trkpt>
      <trkpt lat="44.86311" lon="5.27134">
        <ele>1409.9</ele>
        <time>2024-07-02T11:34:52Z</time>
      </trkpt>
      <trkpt lat="44.86311" lon="5.27134">
        <ele>1409.9</ele>
        <time>2024-07-02T11:34:53Z</time>
      </trkpt>
      <trkpt lat="44.86311" lon="5.27134">
        <ele>1409.9</ele>
        <time>2024-07-02T11:34:54Z</time>
      </trkpt>
      <trkpt lat="44.86311" lon="5.27134">
        <ele>1409.9</ele>
        <time>2024-07-02T11:34:55Z</time>
      </trkpt>
      <trkpt lat="44.86311" lon="5.27134">
        <ele>1409.9</ele>
        <time>2024-07-02T11:34:56Z</time>
      </trkpt>
      <trkpt lat="44.86311" lon="5.27134">
        <ele>1409.9</ele>
        <time>2024-07-02T11:34:57Z</time>
      </trkpt>
      <trkpt lat="44.86311" lon="5.27134">
        <ele>1409.9</ele>
        <time>2024-07-02T11:34:58Z</time>
      </trkpt>
      <trkpt lat="44.86311" lon="5.27134">
        <ele>1409.9</ele>
        <time>2024-07-02T11:34:59Z</time>
      </trkpt>
      <trkpt lat="44.86311" lon="5.27134">
        <ele>1409.9</ele>
        <time>2024-07-02T11:35:00Z</time>
      </trkpt>
      <trkpt lat="44.86311" lon="5.27134">
        <ele>1409.9</ele>
        <time>2024-07-02T11:35:01Z</time>
      </trkpt>
      <trkpt lat="44.86311" lon="5.27134">
        <ele>1409.9</ele>
        <time>2024-07-02T11:35:02Z</time>
      </trkpt>
      <trkpt lat="44.86311" lon="5.27134">
        <ele>1410</ele>
        <time>2024-07-02T11:35:03Z</time>
      </trkpt>
      <trkpt lat="44.86311" lon="5.27134">
        <ele>1410</ele>
        <time>2024-07-02T11:35:04Z</time>
      </trkpt>
      <trkpt lat="44.8631" lon="5.27134">
        <ele>1410</ele>
        <time>2024-07-02T11:35:05Z</time>
      </trkpt>
      <trkpt lat="44.8631" lon="5.27134">
        <ele>1410</ele>
        <time>2024-07-02T11:35:06Z</time>
      </trkpt>
      <trkpt lat="44.8631" lon="5.27134">
        <ele>1410</ele>
        <time>2024-07-02T11:35:07Z</time>
      </trkpt>
      <trkpt lat="44.8631" lon="5.27133">
        <ele>1410</ele>
        <time>2024-07-02T11:35:08Z</time>
      </trkpt>
      <trkpt lat="44.8631" lon="5.27133">
        <ele>1410</ele>
        <time>2024-07-02T11:35:09Z</time>
      </trkpt>
      <trkpt lat="44.8631" lon="5.27133">
        <ele>1410</ele>
        <time>2024-07-02T11:35:10Z</time>
      </trkpt>
      <trkpt lat="44.8631" lon="5.27133">
        <ele>1410</ele>
        <time>2024-07-02T11:35:11Z</time>
      </trkpt>
      <trkpt lat="44.8631" lon="5.27133">
        <ele>1410</ele>
        <time>2024-07-02T11:35:12Z</time>
      </trkpt>
      <trkpt lat="44.8631" lon="5.27133">
        <ele>1410</ele>
        <time>2024-07-02T11:35:13Z</time>
      </trkpt>
      <trkpt lat="44.8631" lon="5.27133">
        <ele>1410</ele>
        <time>2024-07-02T11:35:14Z</time>
      </trkpt>
      <trkpt lat="44.8631" lon="5.27133">
        <ele>1410</ele>
        <time>2024-07-02T11:35:15Z</time>
      </trkpt>
      <trkpt lat="44.8631" lon="5.27133">
        <ele>1410</ele>
        <time>2024-07-02T11:35:16Z</time>
      </trkpt>
      <trkpt lat="44.8631" lon="5.27133">
        <ele>1410</ele>
        <time>2024-07-02T11:35:17Z</time>
      </trkpt>
      <trkpt lat="44.8631" lon="5.27133">
        <ele>1410</ele>
        <time>2024-07-02T11:35:18Z</time>
      </trkpt>
      <trkpt lat="44.8631" lon="5.27133">
        <ele>1410</ele>
        <time>2024-07-02T11:35:19Z</time>
      </trkpt>
      <trkpt lat="44.8631" lon="5.27133">
        <ele>1410</ele>
        <time>2024-07-02T11:35:20Z</time>
      </trkpt>
      <trkpt lat="44.8631" lon="5.27133">
        <ele>1410</ele>
        <time>2024-07-02T11:35:22Z</time>
      </trkpt>
      <trkpt lat="44.8631" lon="5.27133">
        <ele>1410</ele>
        <time>2024-07-02T11:35:23Z</time>
      </trkpt>
      <trkpt lat="44.8631" lon="5.27133">
        <ele>1410.1</ele>
        <time>2024-07-02T11:35:41Z</time>
      </trkpt>
      <trkpt lat="44.8631" lon="5.27133">
        <ele>1410.1</ele>
        <time>2024-07-02T11:35:42Z</time>
      </trkpt>
      <trkpt lat="44.8631" lon="5.27133">
        <ele>1410.1</ele>
        <time>2024-07-02T11:35:43Z</time>
      </trkpt>
      <trkpt lat="44.8631" lon="5.27132">
        <ele>1410.1</ele>
        <time>2024-07-02T11:35:44Z</time>
      </trkpt>
      <trkpt lat="44.8631" lon="5.27132">
        <ele>1410.1</ele>
        <time>2024-07-02T11:35:45Z</time>
      </trkpt>
      <trkpt lat="44.8631" lon="5.27132">
        <ele>1410.1</ele>
        <time>2024-07-02T11:35:46Z</time>
      </trkpt>
      <trkpt lat="44.86309" lon="5.27132">
        <ele>1410.2</ele>
        <time>2024-07-02T11:35:47Z</time>
      </trkpt>
      <trkpt lat="44.86308" lon="5.27132">
        <ele>1410.3</ele>
        <time>2024-07-02T11:35:48Z</time>
      </trkpt>
      <trkpt lat="44.86307" lon="5.27131">
        <ele>1410.3</ele>
        <time>2024-07-02T11:35:49Z</time>
      </trkpt>
      <trkpt lat="44.86305" lon="5.27131">
        <ele>1410.5</ele>
        <time>2024-07-02T11:35:50Z</time>
      </trkpt>
      <trkpt lat="44.86305" lon="5.27131">
        <ele>1410.5</ele>
        <time>2024-07-02T11:35:51Z</time>
      </trkpt>
      <trkpt lat="44.86304" lon="5.2713">
        <ele>1410.6</ele>
        <time>2024-07-02T11:35:52Z</time>
      </trkpt>
      <trkpt lat="44.86303" lon="5.2713">
        <ele>1410.6</ele>
        <time>2024-07-02T11:35:53Z</time>
      </trkpt>
      <trkpt lat="44.86303" lon="5.2713">
        <ele>1410.7</ele>
        <time>2024-07-02T11:35:54Z</time>
      </trkpt>
      <trkpt lat="44.86303" lon="5.27131">
        <ele>1410.7</ele>
        <time>2024-07-02T11:35:55Z</time>
      </trkpt>
      <trkpt lat="44.86302" lon="5.27131">
        <ele>1410.7</ele>
        <time>2024-07-02T11:35:56Z</time>
      </trkpt>
      <trkpt lat="44.86302" lon="5.27131">
        <ele>1410.7</ele>
        <time>2024-07-02T11:35:57Z</time>
      </trkpt>
      <trkpt lat="44.86302" lon="5.27131">
        <ele>1410.8</ele>
        <time>2024-07-02T11:35:58Z</time>
      </trkpt>
      <trkpt lat="44.86302" lon="5.27131">
        <ele>1410.8</ele>
        <time>2024-07-02T11:35:59Z</time>
      </trkpt>
      <trkpt lat="44.86302" lon="5.27131">
        <ele>1410.8</ele>
        <time>2024-07-02T11:36:00Z</time>
      </trkpt>
      <trkpt lat="44.86302" lon="5.27131">
        <ele>1410.8</ele>
        <time>2024-07-02T11:36:01Z</time>
      </trkpt>
      <trkpt lat="44.86302" lon="5.27131">
        <ele>1410.8</ele>
        <time>2024-07-02T11:36:02Z</time>
      </trkpt>
      <trkpt lat="44.86302" lon="5.27131">
        <ele>1410.8</ele>
        <time>2024-07-02T11:36:03Z</time>
      </trkpt>
      <trkpt lat="44.86301" lon="5.27131">
        <ele>1410.9</ele>
        <time>2024-07-02T11:36:04Z</time>
      </trkpt>
      <trkpt lat="44.863" lon="5.27131">
        <ele>1411</ele>
        <time>2024-07-02T11:36:05Z</time>
      </trkpt>
      <trkpt lat="44.86298" lon="5.2713">
        <ele>1411.1</ele>
        <time>2024-07-02T11:36:06Z</time>
      </trkpt>
      <trkpt lat="44.86297" lon="5.27129">
        <ele>1411.2</ele>
        <time>2024-07-02T11:36:07Z</time>
      </trkpt>
      <trkpt lat="44.86296" lon="5.27128">
        <ele>1411.3</ele>
        <time>2024-07-02T11:36:08Z</time>
      </trkpt>
      <trkpt lat="44.86296" lon="5.27128">
        <ele>1411.4</ele>
        <time>2024-07-02T11:36:09Z</time>
      </trkpt>
      <trkpt lat="44.86295" lon="5.27127">
        <ele>1411.4</ele>
        <time>2024-07-02T11:36:10Z</time>
      </trkpt>
      <trkpt lat="44.86294" lon="5.27127">
        <ele>1411.5</ele>
        <time>2024-07-02T11:36:11Z</time>
      </trkpt>
      <trkpt lat="44.86293" lon="5.27127">
        <ele>1411.6</ele>
        <time>2024-07-02T11:36:12Z</time>
      </trkpt>
      <trkpt lat="44.86292" lon="5.27128">
        <ele>1411.7</ele>
        <time>2024-07-02T11:36:13Z</time>
      </trkpt>
      <trkpt lat="44.86292" lon="5.27128">
        <ele>1411.7</ele>
        <time>2024-07-02T11:36:14Z</time>
      </trkpt>
      <trkpt lat="44.86291" lon="5.27128">
        <ele>1411.7</ele>
        <time>2024-07-02T11:36:15Z</time>
      </trkpt>
      <trkpt lat="44.86291" lon="5.27129">
        <ele>1411.8</ele>
        <time>2024-07-02T11:36:16Z</time>
      </trkpt>
      <trkpt lat="44.86291" lon="5.27129">
        <ele>1411.8</ele>
        <time>2024-07-02T11:36:17Z</time>
      </trkpt>
      <trkpt lat="44.86291" lon="5.27129">
        <ele>1411.8</ele>
        <time>2024-07-02T11:36:18Z</time>
      </trkpt>
      <trkpt lat="44.86291" lon="5.27129">
        <ele>1411.8</ele>
        <time>2024-07-02T11:36:19Z</time>
      </trkpt>
      <trkpt lat="44.86291" lon="5.27129">
        <ele>1411.8</ele>
        <time>2024-07-02T11:36:20Z</time>
      </trkpt>
      <trkpt lat="44.86291" lon="5.27129">
        <ele>1411.8</ele>
        <time>2024-07-02T11:36:21Z</time>
      </trkpt>
      <trkpt lat="44.8629" lon="5.27129">
        <ele>1411.9</ele>
        <time>2024-07-02T11:36:22Z</time>
      </trkpt>
      <trkpt lat="44.8629" lon="5.2713">
        <ele>1411.9</ele>
        <time>2024-07-02T11:36:23Z</time>
      </trkpt>
      <trkpt lat="44.8629" lon="5.2713">
        <ele>1411.9</ele>
        <time>2024-07-02T11:36:24Z</time>
      </trkpt>
      <trkpt lat="44.8629" lon="5.2713">
        <ele>1411.9</ele>
        <time>2024-07-02T11:36:25Z</time>
      </trkpt>
      <trkpt lat="44.8629" lon="5.2713">
        <ele>1411.9</ele>
        <time>2024-07-02T11:36:26Z</time>
      </trkpt>
      <trkpt lat="44.8629" lon="5.2713">
        <ele>1411.9</ele>
        <time>2024-07-02T11:36:27Z</time>
      </trkpt>
      <trkpt lat="44.8629" lon="5.2713">
        <ele>1411.9</ele>
        <time>2024-07-02T11:36:28Z</time>
      </trkpt>
      <trkpt lat="44.8629" lon="5.27131">
        <ele>1411.9</ele>
        <time>2024-07-02T11:36:29Z</time>
      </trkpt>
      <trkpt lat="44.8629" lon="5.27131">
        <ele>1411.9</ele>
        <time>2024-07-02T11:36:30Z</time>
      </trkpt>
      <trkpt lat="44.8629" lon="5.27131">
        <ele>1412</ele>
        <time>2024-07-02T11:36:31Z</time>
      </trkpt>
      <trkpt lat="44.8629" lon="5.27131">
        <ele>1412</ele>
        <time>2024-07-02T11:36:32Z</time>
      </trkpt>
      <trkpt lat="44.8629" lon="5.27131">
        <ele>1412</ele>
        <time>2024-07-02T11:36:33Z</time>
      </trkpt>
      <trkpt lat="44.86289" lon="5.27131">
        <ele>1412</ele>
        <time>2024-07-02T11:36:34Z</time>
      </trkpt>
      <trkpt lat="44.86289" lon="5.27131">
        <ele>1412</ele>
        <time>2024-07-02T11:36:35Z</time>
      </trkpt>
      <trkpt lat="44.86289" lon="5.27132">
        <ele>1412</ele>
        <time>2024-07-02T11:36:36Z</time>
      </trkpt>
      <trkpt lat="44.86289" lon="5.27132">
        <ele>1412</ele>
        <time>2024-07-02T11:36:37Z</time>
      </trkpt>
      <trkpt lat="44.86289" lon="5.27132">
        <ele>1412</ele>
        <time>2024-07-02T11:36:38Z</time>
      </trkpt>
      <trkpt lat="44.86289" lon="5.27132">
        <ele>1412</ele>
        <time>2024-07-02T11:36:39Z</time>
      </trkpt>
      <trkpt lat="44.86289" lon="5.27132">
        <ele>1412.1</ele>
        <time>2024-07-02T11:36:40Z</time>
      </trkpt>
      <trkpt lat="44.86289" lon="5.27132">
        <ele>1412.1</ele>
        <time>2024-07-02T11:36:41Z</time>
      </trkpt>
      <trkpt lat="44.86289" lon="5.27132">
        <ele>1412.1</ele>
        <time>2024-07-02T11:36:42Z</time>
      </trkpt>
      <trkpt lat="44.86289" lon="5.27133">
        <ele>1412.1</ele>
        <time>2024-07-02T11:36:43Z</time>
      </trkpt>
      <trkpt lat="44.86289" lon="5.27133">
        <ele>1412.1</ele>
        <time>2024-07-02T11:36:44Z</time>
      </trkpt>
      <trkpt lat="44.86289" lon="5.27133">
        <ele>1412.1</ele>
        <time>2024-07-02T11:36:45Z</time>
      </trkpt>
      <trkpt lat="44.86289" lon="5.27133">
        <ele>1412.1</ele>
        <time>2024-07-02T11:36:46Z</time>
      </trkpt>
      <trkpt lat="44.86288" lon="5.27133">
        <ele>1412.1</ele>
        <time>2024-07-02T11:36:47Z</time>
      </trkpt>
      <trkpt lat="44.86288" lon="5.27133">
        <ele>1412.1</ele>
        <time>2024-07-02T11:36:48Z</time>
      </trkpt>
      <trkpt lat="44.86288" lon="5.27134">
        <ele>1412.2</ele>
        <time>2024-07-02T11:36:49Z</time>
      </trkpt>
      <trkpt lat="44.86288" lon="5.27134">
        <ele>1412.2</ele>
        <time>2024-07-02T11:36:50Z</time>
      </trkpt>
      <trkpt lat="44.86288" lon="5.27134">
        <ele>1412.2</ele>
        <time>2024-07-02T11:38:01Z</time>
      </trkpt>
      <trkpt lat="44.86288" lon="5.27134">
        <ele>1412.2</ele>
        <time>2024-07-02T11:38:02Z</time>
      </trkpt>
      <trkpt lat="44.86286" lon="5.27133">
        <ele>1412.3</ele>
        <time>2024-07-02T11:38:03Z</time>
      </trkpt>
      <trkpt lat="44.86285" lon="5.27132">
        <ele>1412.5</ele>
        <time>2024-07-02T11:38:04Z</time>
      </trkpt>
      <trkpt lat="44.86283" lon="5.27131">
        <ele>1412.6</ele>
        <time>2024-07-02T11:38:05Z</time>
      </trkpt>
      <trkpt lat="44.86282" lon="5.2713">
        <ele>1412.7</ele>
        <time>2024-07-02T11:38:06Z</time>
      </trkpt>
      <trkpt lat="44.86282" lon="5.2713">
        <ele>1412.8</ele>
        <time>2024-07-02T11:38:07Z</time>
      </trkpt>
      <trkpt lat="44.8628" lon="5.27129">
        <ele>1412.9</ele>
        <time>2024-07-02T11:38:08Z</time>
      </trkpt>
      <trkpt lat="44.86279" lon="5.27128">
        <ele>1413</ele>
        <time>2024-07-02T11:38:09Z</time>
      </trkpt>
      <trkpt lat="44.86279" lon="5.27127">
        <ele>1413</ele>
        <time>2024-07-02T11:38:10Z</time>
      </trkpt>
      <trkpt lat="44.86278" lon="5.27127">
        <ele>1413.1</ele>
        <time>2024-07-02T11:38:11Z</time>
      </trkpt>
      <trkpt lat="44.86277" lon="5.27126">
        <ele>1413.2</ele>
        <time>2024-07-02T11:38:12Z</time>
      </trkpt>
      <trkpt lat="44.86275" lon="5.27124">
        <ele>1413.4</ele>
        <time>2024-07-02T11:38:13Z</time>
      </trkpt>
      <trkpt lat="44.86275" lon="5.27122">
        <ele>1413.5</ele>
        <time>2024-07-02T11:38:14Z</time>
      </trkpt>
      <trkpt lat="44.86274" lon="5.27121">
        <ele>1413.6</ele>
        <time>2024-07-02T11:38:15Z</time>
      </trkpt>
      <trkpt lat="44.86272" lon="5.27119">
        <ele>1413.8</ele>
        <time>2024-07-02T11:38:16Z</time>
      </trkpt>
      <trkpt lat="44.86271" lon="5.27119">
        <ele>1413.9</ele>
        <time>2024-07-02T11:38:17Z</time>
      </trkpt>
      <trkpt lat="44.8627" lon="5.27118">
        <ele>1413.9</ele>
        <time>2024-07-02T11:38:18Z</time>
      </trkpt>
      <trkpt lat="44.86269" lon="5.27117">
        <ele>1414</ele>
        <time>2024-07-02T11:38:19Z</time>
      </trkpt>
      <trkpt lat="44.86268" lon="5.27116">
        <ele>1414.1</ele>
        <time>2024-07-02T11:38:20Z</time>
      </trkpt>
      <trkpt lat="44.86267" lon="5.27116">
        <ele>1414.2</ele>
        <time>2024-07-02T11:38:21Z</time>
      </trkpt>
      <trkpt lat="44.86266" lon="5.27115">
        <ele>1414.3</ele>
        <time>2024-07-02T11:38:22Z</time>
      </trkpt>
      <trkpt lat="44.86265" lon="5.27114">
        <ele>1414.4</ele>
        <time>2024-07-02T11:38:23Z</time>
      </trkpt>
      <trkpt lat="44.86264" lon="5.27114">
        <ele>1414.5</ele>
        <time>2024-07-02T11:38:24Z</time>
      </trkpt>
      <trkpt lat="44.86263" lon="5.27113">
        <ele>1414.6</ele>
        <time>2024-07-02T11:38:25Z</time>
      </trkpt>
      <trkpt lat="44.86262" lon="5.27113">
        <ele>1414.7</ele>
        <time>2024-07-02T11:38:26Z</time>
      </trkpt>
      <trkpt lat="44.86261" lon="5.27112">
        <ele>1414.7</ele>
        <time>2024-07-02T11:38:27Z</time>
      </trkpt>
      <trkpt lat="44.86259" lon="5.27112">
        <ele>1414.8</ele>
        <time>2024-07-02T11:38:28Z</time>
      </trkpt>
      <trkpt lat="44.86259" lon="5.27112">
        <ele>1414.9</ele>
        <time>2024-07-02T11:38:29Z</time>
      </trkpt>
      <trkpt lat="44.86258" lon="5.27112">
        <ele>1415</ele>
        <time>2024-07-02T11:38:30Z</time>
      </trkpt>
      <trkpt lat="44.86257" lon="5.27111">
        <ele>1415</ele>
        <time>2024-07-02T11:38:31Z</time>
      </trkpt>
      <trkpt lat="44.86256" lon="5.2711">
        <ele>1415.1</ele>
        <time>2024-07-02T11:38:32Z</time>
      </trkpt>
      <trkpt lat="44.86256" lon="5.27108">
        <ele>1415.2</ele>
        <time>2024-07-02T11:38:33Z</time>
      </trkpt>
      <trkpt lat="44.86255" lon="5.27108">
        <ele>1415.3</ele>
        <time>2024-07-02T11:38:34Z</time>
      </trkpt>
      <trkpt lat="44.86255" lon="5.27107">
        <ele>1415.3</ele>
        <time>2024-07-02T11:38:35Z</time>
      </trkpt>
      <trkpt lat="44.86254" lon="5.27106">
        <ele>1415.4</ele>
        <time>2024-07-02T11:38:36Z</time>
      </trkpt>
      <trkpt lat="44.86254" lon="5.27106">
        <ele>1415.4</ele>
        <time>2024-07-02T11:38:37Z</time>
      </trkpt>
      <trkpt lat="44.86253" lon="5.27105">
        <ele>1415.5</ele>
        <time>2024-07-02T11:38:38Z</time>
      </trkpt>
      <trkpt lat="44.86252" lon="5.27105">
        <ele>1415.5</ele>
        <time>2024-07-02T11:38:39Z</time>
      </trkpt>
      <trkpt lat="44.86252" lon="5.27106">
        <ele>1415.6</ele>
        <time>2024-07-02T11:38:40Z</time>
      </trkpt>
      <trkpt lat="44.86251" lon="5.27106">
        <ele>1415.7</ele>
        <time>2024-07-02T11:38:41Z</time>
      </trkpt>
      <trkpt lat="44.8625" lon="5.27106">
        <ele>1415.8</ele>
        <time>2024-07-02T11:38:42Z</time>
      </trkpt>
      <trkpt lat="44.86249" lon="5.27106">
        <ele>1415.8</ele>
        <time>2024-07-02T11:38:43Z</time>
      </trkpt>
      <trkpt lat="44.86249" lon="5.27105">
        <ele>1415.9</ele>
        <time>2024-07-02T11:38:44Z</time>
      </trkpt>
      <trkpt lat="44.86248" lon="5.27105">
        <ele>1415.9</ele>
        <time>2024-07-02T11:38:45Z</time>
      </trkpt>
      <trkpt lat="44.86247" lon="5.27104">
        <ele>1416</ele>
        <time>2024-07-02T11:38:46Z</time>
      </trkpt>
      <trkpt lat="44.86247" lon="5.27103">
        <ele>1416</ele>
        <time>2024-07-02T11:38:47Z</time>
      </trkpt>
      <trkpt lat="44.86246" lon="5.27102">
        <ele>1416.1</ele>
        <time>2024-07-02T11:38:48Z</time>
      </trkpt>
      <trkpt lat="44.86246" lon="5.27102">
        <ele>1416.2</ele>
        <time>2024-07-02T11:38:49Z</time>
      </trkpt>
      <trkpt lat="44.86245" lon="5.27101">
        <ele>1416.2</ele>
        <time>2024-07-02T11:38:50Z</time>
      </trkpt>
      <trkpt lat="44.86244" lon="5.271">
        <ele>1416.3</ele>
        <time>2024-07-02T11:38:51Z</time>
      </trkpt>
      <trkpt lat="44.86244" lon="5.27099">
        <ele>1416.4</ele>
        <time>2024-07-02T11:38:52Z</time>
      </trkpt>
      <trkpt lat="44.86243" lon="5.27099">
        <ele>1416.5</ele>
        <time>2024-07-02T11:38:53Z</time>
      </trkpt>
      <trkpt lat="44.86242" lon="5.27098">
        <ele>1416.5</ele>
        <time>2024-07-02T11:38:54Z</time>
      </trkpt>
      <trkpt lat="44.86242" lon="5.27097">
        <ele>1416.6</ele>
        <time>2024-07-02T11:38:55Z</time>
      </trkpt>
      <trkpt lat="44.86242" lon="5.27096">
        <ele>1416.7</ele>
        <time>2024-07-02T11:38:56Z</time>
      </trkpt>
      <trkpt lat="44.86242" lon="5.27095">
        <ele>1416.7</ele>
        <time>2024-07-02T11:38:57Z</time>
      </trkpt>
      <trkpt lat="44.86242" lon="5.27094">
        <ele>1416.8</ele>
        <time>2024-07-02T11:38:58Z</time>
      </trkpt>
      <trkpt lat="44.86241" lon="5.27093">
        <ele>1416.9</ele>
        <time>2024-07-02T11:38:59Z</time>
      </trkpt>
      <trkpt lat="44.8624" lon="5.27093">
        <ele>1417</ele>
        <time>2024-07-02T11:39:00Z</time>
      </trkpt>
      <trkpt lat="44.86239" lon="5.27093">
        <ele>1417.1</ele>
        <time>2024-07-02T11:39:01Z</time>
      </trkpt>
      <trkpt lat="44.86238" lon="5.27093">
        <ele>1417.1</ele>
        <time>2024-07-02T11:39:02Z</time>
      </trkpt>
      <trkpt lat="44.86237" lon="5.27092">
        <ele>1417.2</ele>
        <time>2024-07-02T11:39:03Z</time>
      </trkpt>
      <trkpt lat="44.86236" lon="5.27092">
        <ele>1417.3</ele>
        <time>2024-07-02T11:39:04Z</time>
      </trkpt>
      <trkpt lat="44.86235" lon="5.27091">
        <ele>1417.4</ele>
        <time>2024-07-02T11:39:05Z</time>
      </trkpt>
      <trkpt lat="44.86235" lon="5.27091">
        <ele>1417.4</ele>
        <time>2024-07-02T11:39:06Z</time>
      </trkpt>
      <trkpt lat="44.86234" lon="5.2709">
        <ele>1417.5</ele>
        <time>2024-07-02T11:39:07Z</time>
      </trkpt>
      <trkpt lat="44.86233" lon="5.2709">
        <ele>1417.6</ele>
        <time>2024-07-02T11:39:08Z</time>
      </trkpt>
      <trkpt lat="44.86233" lon="5.27088">
        <ele>1417.7</ele>
        <time>2024-07-02T11:39:09Z</time>
      </trkpt>
      <trkpt lat="44.86233" lon="5.27088">
        <ele>1417.7</ele>
        <time>2024-07-02T11:39:10Z</time>
      </trkpt>
      <trkpt lat="44.86233" lon="5.27088">
        <ele>1417.8</ele>
        <time>2024-07-02T11:39:11Z</time>
      </trkpt>
      <trkpt lat="44.86233" lon="5.27087">
        <ele>1417.8</ele>
        <time>2024-07-02T11:39:12Z</time>
      </trkpt>
      <trkpt lat="44.86234" lon="5.27087">
        <ele>1417.8</ele>
        <time>2024-07-02T11:39:13Z</time>
      </trkpt>
      <trkpt lat="44.86234" lon="5.27087">
        <ele>1417.9</ele>
        <time>2024-07-02T11:39:14Z</time>
      </trkpt>
      <trkpt lat="44.86234" lon="5.27088">
        <ele>1417.9</ele>
        <time>2024-07-02T11:39:15Z</time>
      </trkpt>
      <trkpt lat="44.86234" lon="5.27088">
        <ele>1417.9</ele>
        <time>2024-07-02T11:39:16Z</time>
      </trkpt>
      <trkpt lat="44.86233" lon="5.27089">
        <ele>1418</ele>
        <time>2024-07-02T11:39:17Z</time>
      </trkpt>
      <trkpt lat="44.86233" lon="5.27088">
        <ele>1418</ele>
        <time>2024-07-02T11:39:18Z</time>
      </trkpt>
      <trkpt lat="44.86232" lon="5.27087">
        <ele>1418.1</ele>
        <time>2024-07-02T11:39:19Z</time>
      </trkpt>
      <trkpt lat="44.86232" lon="5.27086">
        <ele>1418.2</ele>
        <time>2024-07-02T11:39:20Z</time>
      </trkpt>
      <trkpt lat="44.86231" lon="5.27085">
        <ele>1418.2</ele>
        <time>2024-07-02T11:39:21Z</time>
      </trkpt>
      <trkpt lat="44.86231" lon="5.27084">
        <ele>1418.3</ele>
        <time>2024-07-02T11:39:22Z</time>
      </trkpt>
      <trkpt lat="44.86231" lon="5.27085">
        <ele>1418.3</ele>
        <time>2024-07-02T11:39:23Z</time>
      </trkpt>
      <trkpt lat="44.86231" lon="5.27086">
        <ele>1418.4</ele>
        <time>2024-07-02T11:39:24Z</time>
      </trkpt>
      <trkpt lat="44.86231" lon="5.27087">
        <ele>1418.5</ele>
        <time>2024-07-02T11:39:25Z</time>
      </trkpt>
      <trkpt lat="44.8623" lon="5.27088">
        <ele>1418.6</ele>
        <time>2024-07-02T11:39:26Z</time>
      </trkpt>
      <trkpt lat="44.8623" lon="5.2709">
        <ele>1418.6</ele>
        <time>2024-07-02T11:39:27Z</time>
      </trkpt>
      <trkpt lat="44.8623" lon="5.27091">
        <ele>1418.7</ele>
        <time>2024-07-02T11:39:28Z</time>
      </trkpt>
      <trkpt lat="44.86228" lon="5.27093">
        <ele>1418.9</ele>
        <time>2024-07-02T11:39:29Z</time>
      </trkpt>
      <trkpt lat="44.86228" lon="5.27094">
        <ele>1419</ele>
        <time>2024-07-02T11:39:30Z</time>
      </trkpt>
      <trkpt lat="44.86226" lon="5.27094">
        <ele>1419.1</ele>
        <time>2024-07-02T11:39:31Z</time>
      </trkpt>
      <trkpt lat="44.86225" lon="5.27095">
        <ele>1419.2</ele>
        <time>2024-07-02T11:39:32Z</time>
      </trkpt>
      <trkpt lat="44.86224" lon="5.27095">
        <ele>1419.3</ele>
        <time>2024-07-02T11:39:33Z</time>
      </trkpt>
      <trkpt lat="44.86223" lon="5.27095">
        <ele>1419.4</ele>
        <time>2024-07-02T11:39:34Z</time>
      </trkpt>
      <trkpt lat="44.86221" lon="5.27095">
        <ele>1419.5</ele>
        <time>2024-07-02T11:39:35Z</time>
      </trkpt>
      <trkpt lat="44.8622" lon="5.27094">
        <ele>1419.6</ele>
        <time>2024-07-02T11:39:36Z</time>
      </trkpt>
      <trkpt lat="44.86218" lon="5.27094">
        <ele>1419.8</ele>
        <time>2024-07-02T11:39:37Z</time>
      </trkpt>
      <trkpt lat="44.86217" lon="5.27093">
        <ele>1419.9</ele>
        <time>2024-07-02T11:39:38Z</time>
      </trkpt>
      <trkpt lat="44.86215" lon="5.27093">
        <ele>1420</ele>
        <time>2024-07-02T11:39:39Z</time>
      </trkpt>
      <trkpt lat="44.86214" lon="5.27092">
        <ele>1420.1</ele>
        <time>2024-07-02T11:39:40Z</time>
      </trkpt>
      <trkpt lat="44.86213" lon="5.27092">
        <ele>1420.2</ele>
        <time>2024-07-02T11:39:41Z</time>
      </trkpt>
      <trkpt lat="44.86212" lon="5.27092">
        <ele>1420.3</ele>
        <time>2024-07-02T11:39:42Z</time>
      </trkpt>
      <trkpt lat="44.8621" lon="5.27091">
        <ele>1420.4</ele>
        <time>2024-07-02T11:39:43Z</time>
      </trkpt>
      <trkpt lat="44.86209" lon="5.2709">
        <ele>1420.5</ele>
        <time>2024-07-02T11:39:44Z</time>
      </trkpt>
      <trkpt lat="44.86208" lon="5.2709">
        <ele>1420.6</ele>
        <time>2024-07-02T11:39:45Z</time>
      </trkpt>
      <trkpt lat="44.86206" lon="5.27089">
        <ele>1420.8</ele>
        <time>2024-07-02T11:39:46Z</time>
      </trkpt>
      <trkpt lat="44.86205" lon="5.27089">
        <ele>1420.8</ele>
        <time>2024-07-02T11:39:47Z</time>
      </trkpt>
      <trkpt lat="44.86204" lon="5.27089">
        <ele>1420.9</ele>
        <time>2024-07-02T11:39:48Z</time>
      </trkpt>
      <trkpt lat="44.86202" lon="5.27088">
        <ele>1421</ele>
        <time>2024-07-02T11:39:49Z</time>
      </trkpt>
      <trkpt lat="44.86201" lon="5.27088">
        <ele>1421.1</ele>
        <time>2024-07-02T11:39:50Z</time>
      </trkpt>
      <trkpt lat="44.862" lon="5.27088">
        <ele>1421.1</ele>
        <time>2024-07-02T11:39:51Z</time>
      </trkpt>
      <trkpt lat="44.86199" lon="5.27088">
        <ele>1421.3</ele>
        <time>2024-07-02T11:39:52Z</time>
      </trkpt>
      <trkpt lat="44.86198" lon="5.27087">
        <ele>1421.3</ele>
        <time>2024-07-02T11:39:53Z</time>
      </trkpt>
      <trkpt lat="44.86197" lon="5.27087">
        <ele>1421.4</ele>
        <time>2024-07-02T11:39:54Z</time>
      </trkpt>
      <trkpt lat="44.86195" lon="5.27086">
        <ele>1421.5</ele>
        <time>2024-07-02T11:39:55Z</time>
      </trkpt>
      <trkpt lat="44.86194" lon="5.27086">
        <ele>1421.6</ele>
        <time>2024-07-02T11:39:56Z</time>
      </trkpt>
      <trkpt lat="44.86193" lon="5.27086">
        <ele>1421.7</ele>
        <time>2024-07-02T11:39:57Z</time>
      </trkpt>
      <trkpt lat="44.86192" lon="5.27086">
        <ele>1421.7</ele>
        <time>2024-07-02T11:39:58Z</time>
      </trkpt>
      <trkpt lat="44.86192" lon="5.27085">
        <ele>1421.8</ele>
        <time>2024-07-02T11:39:59Z</time>
      </trkpt>
      <trkpt lat="44.8619" lon="5.27085">
        <ele>1421.9</ele>
        <time>2024-07-02T11:40:00Z</time>
      </trkpt>
      <trkpt lat="44.86189" lon="5.27085">
        <ele>1422</ele>
        <time>2024-07-02T11:40:01Z</time>
      </trkpt>
      <trkpt lat="44.86188" lon="5.27084">
        <ele>1422</ele>
        <time>2024-07-02T11:40:02Z</time>
      </trkpt>
      <trkpt lat="44.86187" lon="5.27084">
        <ele>1422.1</ele>
        <time>2024-07-02T11:40:03Z</time>
      </trkpt>
      <trkpt lat="44.86186" lon="5.27083">
        <ele>1422.2</ele>
        <time>2024-07-02T11:40:04Z</time>
      </trkpt>
      <trkpt lat="44.86185" lon="5.27083">
        <ele>1422.3</ele>
        <time>2024-07-02T11:40:05Z</time>
      </trkpt>
      <trkpt lat="44.86184" lon="5.27083">
        <ele>1422.3</ele>
        <time>2024-07-02T11:40:06Z</time>
      </trkpt>
      <trkpt lat="44.86182" lon="5.27083">
        <ele>1422.5</ele>
        <time>2024-07-02T11:40:07Z</time>
      </trkpt>
      <trkpt lat="44.86182" lon="5.27083">
        <ele>1422.5</ele>
        <time>2024-07-02T11:40:08Z</time>
      </trkpt>
      <trkpt lat="44.86181" lon="5.27085">
        <ele>1422.6</ele>
        <time>2024-07-02T11:40:09Z</time>
      </trkpt>
      <trkpt lat="44.86181" lon="5.27086">
        <ele>1422.6</ele>
        <time>2024-07-02T11:40:10Z</time>
      </trkpt>
      <trkpt lat="44.8618" lon="5.27085">
        <ele>1422.7</ele>
        <time>2024-07-02T11:40:11Z</time>
      </trkpt>
      <trkpt lat="44.86178" lon="5.27084">
        <ele>1422.9</ele>
        <time>2024-07-02T11:40:12Z</time>
      </trkpt>
      <trkpt lat="44.86177" lon="5.27083">
        <ele>1423</ele>
        <time>2024-07-02T11:40:13Z</time>
      </trkpt>
      <trkpt lat="44.86176" lon="5.27082">
        <ele>1423.1</ele>
        <time>2024-07-02T11:40:14Z</time>
      </trkpt>
      <trkpt lat="44.86176" lon="5.2708">
        <ele>1423.1</ele>
        <time>2024-07-02T11:40:15Z</time>
      </trkpt>
      <trkpt lat="44.86175" lon="5.27079">
        <ele>1423.2</ele>
        <time>2024-07-02T11:40:16Z</time>
      </trkpt>
      <trkpt lat="44.86174" lon="5.27077">
        <ele>1423.4</ele>
        <time>2024-07-02T11:40:17Z</time>
      </trkpt>
      <trkpt lat="44.86172" lon="5.27076">
        <ele>1423.5</ele>
        <time>2024-07-02T11:40:18Z</time>
      </trkpt>
      <trkpt lat="44.86171" lon="5.27076">
        <ele>1423.6</ele>
        <time>2024-07-02T11:40:19Z</time>
      </trkpt>
      <trkpt lat="44.8617" lon="5.27076">
        <ele>1423.7</ele>
        <time>2024-07-02T11:40:20Z</time>
      </trkpt>
      <trkpt lat="44.86168" lon="5.27075">
        <ele>1423.7</ele>
        <time>2024-07-02T11:40:21Z</time>
      </trkpt>
      <trkpt lat="44.86167" lon="5.27075">
        <ele>1423.8</ele>
        <time>2024-07-02T11:40:22Z</time>
      </trkpt>
      <trkpt lat="44.86166" lon="5.27075">
        <ele>1423.9</ele>
        <time>2024-07-02T11:40:23Z</time>
      </trkpt>
      <trkpt lat="44.86165" lon="5.27075">
        <ele>1424</ele>
        <time>2024-07-02T11:40:24Z</time>
      </trkpt>
      <trkpt lat="44.86164" lon="5.27074">
        <ele>1424.1</ele>
        <time>2024-07-02T11:40:25Z</time>
      </trkpt>
      <trkpt lat="44.86163" lon="5.27074">
        <ele>1424.1</ele>
        <time>2024-07-02T11:40:26Z</time>
      </trkpt>
      <trkpt lat="44.86161" lon="5.27074">
        <ele>1424.2</ele>
        <time>2024-07-02T11:40:27Z</time>
      </trkpt>
      <trkpt lat="44.8616" lon="5.27074">
        <ele>1424.3</ele>
        <time>2024-07-02T11:40:28Z</time>
      </trkpt>
      <trkpt lat="44.86159" lon="5.27074">
        <ele>1424.3</ele>
        <time>2024-07-02T11:40:29Z</time>
      </trkpt>
      <trkpt lat="44.86158" lon="5.27073">
        <ele>1424.4</ele>
        <time>2024-07-02T11:40:30Z</time>
      </trkpt>
      <trkpt lat="44.86157" lon="5.27073">
        <ele>1424.5</ele>
        <time>2024-07-02T11:40:31Z</time>
      </trkpt>
      <trkpt lat="44.86157" lon="5.27072">
        <ele>1424.5</ele>
        <time>2024-07-02T11:40:32Z</time>
      </trkpt>
      <trkpt lat="44.86156" lon="5.27071">
        <ele>1424.6</ele>
        <time>2024-07-02T11:40:33Z</time>
      </trkpt>
      <trkpt lat="44.86155" lon="5.27071">
        <ele>1424.6</ele>
        <time>2024-07-02T11:40:34Z</time>
      </trkpt>
      <trkpt lat="44.86154" lon="5.27071">
        <ele>1424.7</ele>
        <time>2024-07-02T11:40:35Z</time>
      </trkpt>
      <trkpt lat="44.86154" lon="5.2707">
        <ele>1424.8</ele>
        <time>2024-07-02T11:40:36Z</time>
      </trkpt>
      <trkpt lat="44.86152" lon="5.2707">
        <ele>1424.8</ele>
        <time>2024-07-02T11:40:37Z</time>
      </trkpt>
      <trkpt lat="44.86151" lon="5.2707">
        <ele>1424.9</ele>
        <time>2024-07-02T11:40:38Z</time>
      </trkpt>
      <trkpt lat="44.8615" lon="5.2707">
        <ele>1425</ele>
        <time>2024-07-02T11:40:39Z</time>
      </trkpt>
      <trkpt lat="44.86149" lon="5.27069">
        <ele>1425.1</ele>
        <time>2024-07-02T11:40:40Z</time>
      </trkpt>
      <trkpt lat="44.86148" lon="5.27069">
        <ele>1425.2</ele>
        <time>2024-07-02T11:40:41Z</time>
      </trkpt>
      <trkpt lat="44.86147" lon="5.27068">
        <ele>1425.2</ele>
        <time>2024-07-02T11:40:42Z</time>
      </trkpt>
      <trkpt lat="44.86146" lon="5.27068">
        <ele>1425.3</ele>
        <time>2024-07-02T11:40:43Z</time>
      </trkpt>
      <trkpt lat="44.86145" lon="5.27068">
        <ele>1425.4</ele>
        <time>2024-07-02T11:40:44Z</time>
      </trkpt>
      <trkpt lat="44.86144" lon="5.27068">
        <ele>1425.4</ele>
        <time>2024-07-02T11:40:45Z</time>
      </trkpt>
      <trkpt lat="44.86143" lon="5.27067">
        <ele>1425.5</ele>
        <time>2024-07-02T11:40:46Z</time>
      </trkpt>
      <trkpt lat="44.86142" lon="5.27067">
        <ele>1425.6</ele>
        <time>2024-07-02T11:40:47Z</time>
      </trkpt>
      <trkpt lat="44.86141" lon="5.27067">
        <ele>1425.7</ele>
        <time>2024-07-02T11:40:48Z</time>
      </trkpt>
      <trkpt lat="44.8614" lon="5.27066">
        <ele>1425.8</ele>
        <time>2024-07-02T11:40:49Z</time>
      </trkpt>
      <trkpt lat="44.86139" lon="5.27066">
        <ele>1425.8</ele>
        <time>2024-07-02T11:40:50Z</time>
      </trkpt>
      <trkpt lat="44.86138" lon="5.27065">
        <ele>1425.9</ele>
        <time>2024-07-02T11:40:51Z</time>
      </trkpt>
      <trkpt lat="44.86137" lon="5.27065">
        <ele>1426</ele>
        <time>2024-07-02T11:40:52Z</time>
      </trkpt>
      <trkpt lat="44.86136" lon="5.27064">
        <ele>1426.1</ele>
        <time>2024-07-02T11:40:53Z</time>
      </trkpt>
      <trkpt lat="44.86135" lon="5.27064">
        <ele>1426.2</ele>
        <time>2024-07-02T11:40:54Z</time>
      </trkpt>
      <trkpt lat="44.86134" lon="5.27064">
        <ele>1426.3</ele>
        <time>2024-07-02T11:40:55Z</time>
      </trkpt>
      <trkpt lat="44.86133" lon="5.27063">
        <ele>1426.4</ele>
        <time>2024-07-02T11:40:56Z</time>
      </trkpt>
      <trkpt lat="44.86132" lon="5.27063">
        <ele>1426.5</ele>
        <time>2024-07-02T11:40:57Z</time>
      </trkpt>
      <trkpt lat="44.86131" lon="5.27062">
        <ele>1426.6</ele>
        <time>2024-07-02T11:40:58Z</time>
      </trkpt>
      <trkpt lat="44.8613" lon="5.27062">
        <ele>1426.6</ele>
        <time>2024-07-02T11:40:59Z</time>
      </trkpt>
      <trkpt lat="44.86129" lon="5.27061">
        <ele>1426.7</ele>
        <time>2024-07-02T11:41:00Z</time>
      </trkpt>
      <trkpt lat="44.86127" lon="5.27061">
        <ele>1426.9</ele>
        <time>2024-07-02T11:41:01Z</time>
      </trkpt>
      <trkpt lat="44.86126" lon="5.27061">
        <ele>1426.9</ele>
        <time>2024-07-02T11:41:02Z</time>
      </trkpt>
      <trkpt lat="44.86125" lon="5.2706">
        <ele>1427</ele>
        <time>2024-07-02T11:41:03Z</time>
      </trkpt>
      <trkpt lat="44.86124" lon="5.2706">
        <ele>1427.1</ele>
        <time>2024-07-02T11:41:04Z</time>
      </trkpt>
      <trkpt lat="44.86123" lon="5.2706">
        <ele>1427.2</ele>
        <time>2024-07-02T11:41:05Z</time>
      </trkpt>
      <trkpt lat="44.86122" lon="5.27059">
        <ele>1427.3</ele>
        <time>2024-07-02T11:41:06Z</time>
      </trkpt>
      <trkpt lat="44.86121" lon="5.27059">
        <ele>1427.4</ele>
        <time>2024-07-02T11:41:07Z</time>
      </trkpt>
      <trkpt lat="44.8612" lon="5.27059">
        <ele>1427.5</ele>
        <time>2024-07-02T11:41:08Z</time>
      </trkpt>
      <trkpt lat="44.86119" lon="5.27058">
        <ele>1427.6</ele>
        <time>2024-07-02T11:41:09Z</time>
      </trkpt>
      <trkpt lat="44.86118" lon="5.27058">
        <ele>1427.7</ele>
        <time>2024-07-02T11:41:10Z</time>
      </trkpt>
      <trkpt lat="44.86117" lon="5.27058">
        <ele>1427.8</ele>
        <time>2024-07-02T11:41:11Z</time>
      </trkpt>
      <trkpt lat="44.86116" lon="5.27057">
        <ele>1427.9</ele>
        <time>2024-07-02T11:41:12Z</time>
      </trkpt>
      <trkpt lat="44.86115" lon="5.27056">
        <ele>1428</ele>
        <time>2024-07-02T11:41:13Z</time>
      </trkpt>
      <trkpt lat="44.86114" lon="5.27056">
        <ele>1428.1</ele>
        <time>2024-07-02T11:41:14Z</time>
      </trkpt>
      <trkpt lat="44.86113" lon="5.27056">
        <ele>1428.2</ele>
        <time>2024-07-02T11:41:15Z</time>
      </trkpt>
      <trkpt lat="44.86112" lon="5.27055">
        <ele>1428.3</ele>
        <time>2024-07-02T11:41:16Z</time>
      </trkpt>
      <trkpt lat="44.86111" lon="5.27055">
        <ele>1428.4</ele>
        <time>2024-07-02T11:41:17Z</time>
      </trkpt>
      <trkpt lat="44.8611" lon="5.27054">
        <ele>1428.6</ele>
        <time>2024-07-02T11:41:18Z</time>
      </trkpt>
      <trkpt lat="44.86109" lon="5.27054">
        <ele>1428.7</ele>
        <time>2024-07-02T11:41:19Z</time>
      </trkpt>
      <trkpt lat="44.86108" lon="5.27053">
        <ele>1428.8</ele>
        <time>2024-07-02T11:41:20Z</time>
      </trkpt>
      <trkpt lat="44.86107" lon="5.27052">
        <ele>1428.9</ele>
        <time>2024-07-02T11:41:21Z</time>
      </trkpt>
      <trkpt lat="44.86107" lon="5.27051">
        <ele>1429</ele>
        <time>2024-07-02T11:41:22Z</time>
      </trkpt>
      <trkpt lat="44.86107" lon="5.27049">
        <ele>1429.1</ele>
        <time>2024-07-02T11:41:23Z</time>
      </trkpt>
      <trkpt lat="44.86106" lon="5.27048">
        <ele>1429.2</ele>
        <time>2024-07-02T11:41:24Z</time>
      </trkpt>
      <trkpt lat="44.86105" lon="5.27049">
        <ele>1429.3</ele>
        <time>2024-07-02T11:41:25Z</time>
      </trkpt>
      <trkpt lat="44.86103" lon="5.27049">
        <ele>1429.5</ele>
        <time>2024-07-02T11:41:26Z</time>
      </trkpt>
      <trkpt lat="44.86102" lon="5.27049">
        <ele>1429.6</ele>
        <time>2024-07-02T11:41:27Z</time>
      </trkpt>
      <trkpt lat="44.861" lon="5.27049">
        <ele>1429.8</ele>
        <time>2024-07-02T11:41:28Z</time>
      </trkpt>
      <trkpt lat="44.861" lon="5.27049">
        <ele>1429.9</ele>
        <time>2024-07-02T11:41:29Z</time>
      </trkpt>
      <trkpt lat="44.86099" lon="5.27048">
        <ele>1430</ele>
        <time>2024-07-02T11:41:30Z</time>
      </trkpt>
      <trkpt lat="44.86098" lon="5.27048">
        <ele>1430.1</ele>
        <time>2024-07-02T11:41:31Z</time>
      </trkpt>
      <trkpt lat="44.86097" lon="5.27048">
        <ele>1430.2</ele>
        <time>2024-07-02T11:41:32Z</time>
      </trkpt>
      <trkpt lat="44.86095" lon="5.27048">
        <ele>1430.3</ele>
        <time>2024-07-02T11:41:33Z</time>
      </trkpt>
      <trkpt lat="44.86094" lon="5.27048">
        <ele>1430.5</ele>
        <time>2024-07-02T11:41:34Z</time>
      </trkpt>
      <trkpt lat="44.86093" lon="5.27048">
        <ele>1430.6</ele>
        <time>2024-07-02T11:41:35Z</time>
      </trkpt>
      <trkpt lat="44.86092" lon="5.27047">
        <ele>1430.7</ele>
        <time>2024-07-02T11:41:36Z</time>
      </trkpt>
      <trkpt lat="44.86091" lon="5.27047">
        <ele>1430.8</ele>
        <time>2024-07-02T11:41:37Z</time>
      </trkpt>
      <trkpt lat="44.8609" lon="5.27047">
        <ele>1430.9</ele>
        <time>2024-07-02T11:41:38Z</time>
      </trkpt>
      <trkpt lat="44.8609" lon="5.27046">
        <ele>1431</ele>
        <time>2024-07-02T11:41:39Z</time>
      </trkpt>
      <trkpt lat="44.86089" lon="5.27046">
        <ele>1431</ele>
        <time>2024-07-02T11:41:40Z</time>
      </trkpt>
      <trkpt lat="44.86089" lon="5.27045">
        <ele>1431.1</ele>
        <time>2024-07-02T11:41:41Z</time>
      </trkpt>
      <trkpt lat="44.86089" lon="5.27045">
        <ele>1431.1</ele>
        <time>2024-07-02T11:41:42Z</time>
      </trkpt>
      <trkpt lat="44.86088" lon="5.27045">
        <ele>1431.2</ele>
        <time>2024-07-02T11:41:43Z</time>
      </trkpt>
      <trkpt lat="44.86087" lon="5.27045">
        <ele>1431.4</ele>
        <time>2024-07-02T11:41:44Z</time>
      </trkpt>
      <trkpt lat="44.86086" lon="5.27045">
        <ele>1431.5</ele>
        <time>2024-07-02T11:41:45Z</time>
      </trkpt>
      <trkpt lat="44.86085" lon="5.27045">
        <ele>1431.6</ele>
        <time>2024-07-02T11:41:46Z</time>
      </trkpt>
      <trkpt lat="44.86083" lon="5.27045">
        <ele>1431.7</ele>
        <time>2024-07-02T11:41:47Z</time>
      </trkpt>
      <trkpt lat="44.86083" lon="5.27045">
        <ele>1431.8</ele>
        <time>2024-07-02T11:41:48Z</time>
      </trkpt>
      <trkpt lat="44.86082" lon="5.27045">
        <ele>1431.9</ele>
        <time>2024-07-02T11:41:49Z</time>
      </trkpt>
      <trkpt lat="44.86081" lon="5.27046">
        <ele>1432</ele>
        <time>2024-07-02T11:41:50Z</time>
      </trkpt>
      <trkpt lat="44.8608" lon="5.27046">
        <ele>1432.1</ele>
        <time>2024-07-02T11:41:51Z</time>
      </trkpt>
      <trkpt lat="44.8608" lon="5.27047">
        <ele>1432.2</ele>
        <time>2024-07-02T11:41:52Z</time>
      </trkpt>
      <trkpt lat="44.86078" lon="5.27046">
        <ele>1432.3</ele>
        <time>2024-07-02T11:41:53Z</time>
      </trkpt>
      <trkpt lat="44.86077" lon="5.27046">
        <ele>1432.4</ele>
        <time>2024-07-02T11:41:54Z</time>
      </trkpt>
      <trkpt lat="44.86077" lon="5.27045">
        <ele>1432.5</ele>
        <time>2024-07-02T11:41:55Z</time>
      </trkpt>
      <trkpt lat="44.86076" lon="5.27044">
        <ele>1432.7</ele>
        <time>2024-07-02T11:41:56Z</time>
      </trkpt>
      <trkpt lat="44.86075" lon="5.27044">
        <ele>1432.8</ele>
        <time>2024-07-02T11:41:57Z</time>
      </trkpt>
      <trkpt lat="44.86073" lon="5.27044">
        <ele>1432.9</ele>
        <time>2024-07-02T11:41:58Z</time>
      </trkpt>
      <trkpt lat="44.86073" lon="5.27045">
        <ele>1433</ele>
        <time>2024-07-02T11:41:59Z</time>
      </trkpt>
      <trkpt lat="44.86072" lon="5.27044">
        <ele>1433.1</ele>
        <time>2024-07-02T11:42:00Z</time>
      </trkpt>
      <trkpt lat="44.86071" lon="5.27043">
        <ele>1433.3</ele>
        <time>2024-07-02T11:42:01Z</time>
      </trkpt>
      <trkpt lat="44.8607" lon="5.27043">
        <ele>1433.4</ele>
        <time>2024-07-02T11:42:02Z</time>
      </trkpt>
      <trkpt lat="44.86069" lon="5.27042">
        <ele>1433.5</ele>
        <time>2024-07-02T11:42:03Z</time>
      </trkpt>
      <trkpt lat="44.86068" lon="5.27041">
        <ele>1433.7</ele>
        <time>2024-07-02T11:42:04Z</time>
      </trkpt>
      <trkpt lat="44.86067" lon="5.2704">
        <ele>1433.8</ele>
        <time>2024-07-02T11:42:05Z</time>
      </trkpt>
      <trkpt lat="44.86066" lon="5.2704">
        <ele>1433.9</ele>
        <time>2024-07-02T11:42:06Z</time>
      </trkpt>
      <trkpt lat="44.86065" lon="5.27039">
        <ele>1434</ele>
        <time>2024-07-02T11:42:07Z</time>
      </trkpt>
      <trkpt lat="44.86064" lon="5.27039">
        <ele>1434.2</ele>
        <time>2024-07-02T11:42:08Z</time>
      </trkpt>
      <trkpt lat="44.86063" lon="5.27038">
        <ele>1434.3</ele>
        <time>2024-07-02T11:42:10Z</time>
      </trkpt>
      <trkpt lat="44.86062" lon="5.27037">
        <ele>1434.4</ele>
        <time>2024-07-02T11:42:11Z</time>
      </trkpt>
      <trkpt lat="44.86062" lon="5.27037">
        <ele>1434.4</ele>
        <time>2024-07-02T11:42:12Z</time>
      </trkpt>
      <trkpt lat="44.86062" lon="5.27039">
        <ele>1434.5</ele>
        <time>2024-07-02T11:42:13Z</time>
      </trkpt>
      <trkpt lat="44.86061" lon="5.27038">
        <ele>1434.6</ele>
        <time>2024-07-02T11:42:14Z</time>
      </trkpt>
      <trkpt lat="44.86061" lon="5.27037">
        <ele>1434.7</ele>
        <time>2024-07-02T11:42:15Z</time>
      </trkpt>
      <trkpt lat="44.8606" lon="5.27035">
        <ele>1434.9</ele>
        <time>2024-07-02T11:42:16Z</time>
      </trkpt>
      <trkpt lat="44.86059" lon="5.27034">
        <ele>1435.1</ele>
        <time>2024-07-02T11:42:17Z</time>
      </trkpt>
      <trkpt lat="44.86058" lon="5.27033">
        <ele>1435.3</ele>
        <time>2024-07-02T11:42:18Z</time>
      </trkpt>
      <trkpt lat="44.86055" lon="5.27031">
        <ele>1435.7</ele>
        <time>2024-07-02T11:42:20Z</time>
      </trkpt>
      <trkpt lat="44.86054" lon="5.27031">
        <ele>1435.8</ele>
        <time>2024-07-02T11:42:21Z</time>
      </trkpt>
      <trkpt lat="44.86053" lon="5.27031">
        <ele>1435.9</ele>
        <time>2024-07-02T11:42:22Z</time>
      </trkpt>
      <trkpt lat="44.86052" lon="5.2703">
        <ele>1436.1</ele>
        <time>2024-07-02T11:42:23Z</time>
      </trkpt>
      <trkpt lat="44.86051" lon="5.2703">
        <ele>1436.2</ele>
        <time>2024-07-02T11:42:24Z</time>
      </trkpt>
      <trkpt lat="44.86051" lon="5.27029">
        <ele>1436.3</ele>
        <time>2024-07-02T11:42:25Z</time>
      </trkpt>
      <trkpt lat="44.8605" lon="5.27029">
        <ele>1436.4</ele>
        <time>2024-07-02T11:42:26Z</time>
      </trkpt>
      <trkpt lat="44.86048" lon="5.27029">
        <ele>1436.6</ele>
        <time>2024-07-02T11:42:27Z</time>
      </trkpt>
      <trkpt lat="44.86048" lon="5.27029">
        <ele>1436.7</ele>
        <time>2024-07-02T11:42:28Z</time>
      </trkpt>
      <trkpt lat="44.86047" lon="5.2703">
        <ele>1436.8</ele>
        <time>2024-07-02T11:42:29Z</time>
      </trkpt>
      <trkpt lat="44.86046" lon="5.27029">
        <ele>1437</ele>
        <time>2024-07-02T11:42:30Z</time>
      </trkpt>
      <trkpt lat="44.86045" lon="5.27029">
        <ele>1437.1</ele>
        <time>2024-07-02T11:42:31Z</time>
      </trkpt>
      <trkpt lat="44.86044" lon="5.27029">
        <ele>1437.2</ele>
        <time>2024-07-02T11:42:32Z</time>
      </trkpt>
      <trkpt lat="44.86042" lon="5.27029">
        <ele>1437.4</ele>
        <time>2024-07-02T11:42:33Z</time>
      </trkpt>
      <trkpt lat="44.86042" lon="5.27029">
        <ele>1437.5</ele>
        <time>2024-07-02T11:42:34Z</time>
      </trkpt>
      <trkpt lat="44.8604" lon="5.27029">
        <ele>1437.6</ele>
        <time>2024-07-02T11:42:35Z</time>
      </trkpt>
      <trkpt lat="44.8604" lon="5.27028">
        <ele>1437.7</ele>
        <time>2024-07-02T11:42:36Z</time>
      </trkpt>
      <trkpt lat="44.86039" lon="5.27028">
        <ele>1437.9</ele>
        <time>2024-07-02T11:42:37Z</time>
      </trkpt>
      <trkpt lat="44.86038" lon="5.27028">
        <ele>1438</ele>
        <time>2024-07-02T11:42:38Z</time>
      </trkpt>
      <trkpt lat="44.86037" lon="5.27027">
        <ele>1438.1</ele>
        <time>2024-07-02T11:42:39Z</time>
      </trkpt>
      <trkpt lat="44.86036" lon="5.27027">
        <ele>1438.2</ele>
        <time>2024-07-02T11:42:40Z</time>
      </trkpt>
      <trkpt lat="44.86035" lon="5.27027">
        <ele>1438.3</ele>
        <time>2024-07-02T11:42:41Z</time>
      </trkpt>
      <trkpt lat="44.86034" lon="5.27026">
        <ele>1438.5</ele>
        <time>2024-07-02T11:42:42Z</time>
      </trkpt>
      <trkpt lat="44.86032" lon="5.27026">
        <ele>1438.7</ele>
        <time>2024-07-02T11:42:43Z</time>
      </trkpt>
      <trkpt lat="44.86032" lon="5.27026">
        <ele>1438.7</ele>
        <time>2024-07-02T11:42:44Z</time>
      </trkpt>
      <trkpt lat="44.86031" lon="5.27026">
        <ele>1438.9</ele>
        <time>2024-07-02T11:42:45Z</time>
      </trkpt>
      <trkpt lat="44.8603" lon="5.27026">
        <ele>1439</ele>
        <time>2024-07-02T11:42:46Z</time>
      </trkpt>
      <trkpt lat="44.86029" lon="5.27026">
        <ele>1439.1</ele>
        <time>2024-07-02T11:42:47Z</time>
      </trkpt>
      <trkpt lat="44.86028" lon="5.27025">
        <ele>1439.2</ele>
        <time>2024-07-02T11:42:48Z</time>
      </trkpt>
      <trkpt lat="44.86026" lon="5.27025">
        <ele>1439.4</ele>
        <time>2024-07-02T11:42:49Z</time>
      </trkpt>
      <trkpt lat="44.86026" lon="5.27025">
        <ele>1439.5</ele>
        <time>2024-07-02T11:42:50Z</time>
      </trkpt>
      <trkpt lat="44.86025" lon="5.27025">
        <ele>1439.6</ele>
        <time>2024-07-02T11:42:51Z</time>
      </trkpt>
      <trkpt lat="44.86024" lon="5.27024">
        <ele>1439.7</ele>
        <time>2024-07-02T11:42:52Z</time>
      </trkpt>
      <trkpt lat="44.86023" lon="5.27024">
        <ele>1439.8</ele>
        <time>2024-07-02T11:42:53Z</time>
      </trkpt>
      <trkpt lat="44.86023" lon="5.27023">
        <ele>1439.9</ele>
        <time>2024-07-02T11:42:54Z</time>
      </trkpt>
      <trkpt lat="44.86022" lon="5.27023">
        <ele>1440</ele>
        <time>2024-07-02T11:42:55Z</time>
      </trkpt>
      <trkpt lat="44.86021" lon="5.27023">
        <ele>1440.1</ele>
        <time>2024-07-02T11:42:56Z</time>
      </trkpt>
      <trkpt lat="44.8602" lon="5.27022">
        <ele>1440.2</ele>
        <time>2024-07-02T11:42:57Z</time>
      </trkpt>
      <trkpt lat="44.86018" lon="5.27021">
        <ele>1440.4</ele>
        <time>2024-07-02T11:42:58Z</time>
      </trkpt>
      <trkpt lat="44.86018" lon="5.27021">
        <ele>1440.4</ele>
        <time>2024-07-02T11:42:59Z</time>
      </trkpt>
      <trkpt lat="44.86017" lon="5.27021">
        <ele>1440.5</ele>
        <time>2024-07-02T11:43:00Z</time>
      </trkpt>
      <trkpt lat="44.86016" lon="5.2702">
        <ele>1440.6</ele>
        <time>2024-07-02T11:43:01Z</time>
      </trkpt>
      <trkpt lat="44.86015" lon="5.2702">
        <ele>1440.7</ele>
        <time>2024-07-02T11:43:02Z</time>
      </trkpt>
      <trkpt lat="44.86014" lon="5.27018">
        <ele>1440.9</ele>
        <time>2024-07-02T11:43:03Z</time>
      </trkpt>
      <trkpt lat="44.86014" lon="5.27018">
        <ele>1440.9</ele>
        <time>2024-07-02T11:43:04Z</time>
      </trkpt>
      <trkpt lat="44.86013" lon="5.27016">
        <ele>1441</ele>
        <time>2024-07-02T11:43:05Z</time>
      </trkpt>
      <trkpt lat="44.86013" lon="5.27015">
        <ele>1441</ele>
        <time>2024-07-02T11:43:06Z</time>
      </trkpt>
      <trkpt lat="44.86012" lon="5.27014">
        <ele>1441</ele>
        <time>2024-07-02T11:43:07Z</time>
      </trkpt>
      <trkpt lat="44.86012" lon="5.27012">
        <ele>1441</ele>
        <time>2024-07-02T11:43:08Z</time>
      </trkpt>
      <trkpt lat="44.86011" lon="5.27011">
        <ele>1441</ele>
        <time>2024-07-02T11:43:09Z</time>
      </trkpt>
      <trkpt lat="44.86011" lon="5.2701">
        <ele>1441</ele>
        <time>2024-07-02T11:43:10Z</time>
      </trkpt>
      <trkpt lat="44.8601" lon="5.27008">
        <ele>1441</ele>
        <time>2024-07-02T11:43:11Z</time>
      </trkpt>
      <trkpt lat="44.86009" lon="5.27007">
        <ele>1441.1</ele>
        <time>2024-07-02T11:43:12Z</time>
      </trkpt>
      <trkpt lat="44.86008" lon="5.27006">
        <ele>1441.1</ele>
        <time>2024-07-02T11:43:13Z</time>
      </trkpt>
      <trkpt lat="44.86009" lon="5.27005">
        <ele>1441.1</ele>
        <time>2024-07-02T11:43:14Z</time>
      </trkpt>
      <trkpt lat="44.86009" lon="5.27003">
        <ele>1441.1</ele>
        <time>2024-07-02T11:43:15Z</time>
      </trkpt>
      <trkpt lat="44.8601" lon="5.27002">
        <ele>1441.1</ele>
        <time>2024-07-02T11:43:16Z</time>
      </trkpt>
      <trkpt lat="44.8601" lon="5.27001">
        <ele>1441.1</ele>
        <time>2024-07-02T11:43:17Z</time>
      </trkpt>
      <trkpt lat="44.86009" lon="5.26999">
        <ele>1441.1</ele>
        <time>2024-07-02T11:43:18Z</time>
      </trkpt>
      <trkpt lat="44.86008" lon="5.26998">
        <ele>1441.1</ele>
        <time>2024-07-02T11:43:19Z</time>
      </trkpt>
      <trkpt lat="44.86006" lon="5.26996">
        <ele>1441</ele>
        <time>2024-07-02T11:43:20Z</time>
      </trkpt>
      <trkpt lat="44.86006" lon="5.26995">
        <ele>1441</ele>
        <time>2024-07-02T11:43:21Z</time>
      </trkpt>
      <trkpt lat="44.86005" lon="5.26994">
        <ele>1441</ele>
        <time>2024-07-02T11:43:22Z</time>
      </trkpt>
      <trkpt lat="44.86003" lon="5.26993">
        <ele>1441</ele>
        <time>2024-07-02T11:43:23Z</time>
      </trkpt>
      <trkpt lat="44.86002" lon="5.26991">
        <ele>1441</ele>
        <time>2024-07-02T11:43:24Z</time>
      </trkpt>
      <trkpt lat="44.86002" lon="5.26991">
        <ele>1441</ele>
        <time>2024-07-02T11:43:25Z</time>
      </trkpt>
      <trkpt lat="44.86001" lon="5.26989">
        <ele>1440.9</ele>
        <time>2024-07-02T11:43:26Z</time>
      </trkpt>
      <trkpt lat="44.86" lon="5.26988">
        <ele>1440.9</ele>
        <time>2024-07-02T11:43:27Z</time>
      </trkpt>
      <trkpt lat="44.85998" lon="5.26986">
        <ele>1440.9</ele>
        <time>2024-07-02T11:43:28Z</time>
      </trkpt>
      <trkpt lat="44.85998" lon="5.26985">
        <ele>1440.9</ele>
        <time>2024-07-02T11:43:29Z</time>
      </trkpt>
      <trkpt lat="44.85997" lon="5.26984">
        <ele>1440.8</ele>
        <time>2024-07-02T11:43:30Z</time>
      </trkpt>
      <trkpt lat="44.85997" lon="5.26983">
        <ele>1440.8</ele>
        <time>2024-07-02T11:43:31Z</time>
      </trkpt>
      <trkpt lat="44.85996" lon="5.26982">
        <ele>1440.8</ele>
        <time>2024-07-02T11:43:32Z</time>
      </trkpt>
      <trkpt lat="44.85995" lon="5.26981">
        <ele>1440.8</ele>
        <time>2024-07-02T11:43:33Z</time>
      </trkpt>
      <trkpt lat="44.85995" lon="5.26979">
        <ele>1440.7</ele>
        <time>2024-07-02T11:43:34Z</time>
      </trkpt>
      <trkpt lat="44.85994" lon="5.26978">
        <ele>1440.7</ele>
        <time>2024-07-02T11:43:35Z</time>
      </trkpt>
      <trkpt lat="44.85993" lon="5.26977">
        <ele>1440.7</ele>
        <time>2024-07-02T11:43:36Z</time>
      </trkpt>
      <trkpt lat="44.85993" lon="5.26976">
        <ele>1440.7</ele>
        <time>2024-07-02T11:43:37Z</time>
      </trkpt>
      <trkpt lat="44.85992" lon="5.26974">
        <ele>1440.6</ele>
        <time>2024-07-02T11:43:38Z</time>
      </trkpt>
      <trkpt lat="44.85991" lon="5.26973">
        <ele>1440.6</ele>
        <time>2024-07-02T11:43:39Z</time>
      </trkpt>
      <trkpt lat="44.8599" lon="5.26971">
        <ele>1440.6</ele>
        <time>2024-07-02T11:43:40Z</time>
      </trkpt>
      <trkpt lat="44.8599" lon="5.2697">
        <ele>1440.5</ele>
        <time>2024-07-02T11:43:41Z</time>
      </trkpt>
      <trkpt lat="44.8599" lon="5.26969">
        <ele>1440.5</ele>
        <time>2024-07-02T11:43:42Z</time>
      </trkpt>
      <trkpt lat="44.85989" lon="5.26968">
        <ele>1440.5</ele>
        <time>2024-07-02T11:43:43Z</time>
      </trkpt>
      <trkpt lat="44.85988" lon="5.26966">
        <ele>1440.5</ele>
        <time>2024-07-02T11:43:44Z</time>
      </trkpt>
      <trkpt lat="44.85988" lon="5.26965">
        <ele>1440.4</ele>
        <time>2024-07-02T11:43:45Z</time>
      </trkpt>
      <trkpt lat="44.85987" lon="5.26964">
        <ele>1440.4</ele>
        <time>2024-07-02T11:43:46Z</time>
      </trkpt>
      <trkpt lat="44.85986" lon="5.26963">
        <ele>1440.3</ele>
        <time>2024-07-02T11:43:47Z</time>
      </trkpt>
      <trkpt lat="44.85985" lon="5.26962">
        <ele>1440.3</ele>
        <time>2024-07-02T11:43:48Z</time>
      </trkpt>
      <trkpt lat="44.85985" lon="5.26961">
        <ele>1440.3</ele>
        <time>2024-07-02T11:43:49Z</time>
      </trkpt>
      <trkpt lat="44.85984" lon="5.2696">
        <ele>1440.2</ele>
        <time>2024-07-02T11:43:50Z</time>
      </trkpt>
      <trkpt lat="44.85983" lon="5.26959">
        <ele>1440.2</ele>
        <time>2024-07-02T11:43:51Z</time>
      </trkpt>
      <trkpt lat="44.85983" lon="5.26957">
        <ele>1440.2</ele>
        <time>2024-07-02T11:43:52Z</time>
      </trkpt>
      <trkpt lat="44.85982" lon="5.26956">
        <ele>1440.1</ele>
        <time>2024-07-02T11:43:53Z</time>
      </trkpt>
      <trkpt lat="44.85981" lon="5.26955">
        <ele>1440.1</ele>
        <time>2024-07-02T11:43:54Z</time>
      </trkpt>
      <trkpt lat="44.8598" lon="5.26953">
        <ele>1440.1</ele>
        <time>2024-07-02T11:43:55Z</time>
      </trkpt>
      <trkpt lat="44.8598" lon="5.26952">
        <ele>1440</ele>
        <time>2024-07-02T11:43:56Z</time>
      </trkpt>
      <trkpt lat="44.85979" lon="5.26951">
        <ele>1440</ele>
        <time>2024-07-02T11:43:57Z</time>
      </trkpt>
      <trkpt lat="44.85979" lon="5.2695">
        <ele>1440</ele>
        <time>2024-07-02T11:43:58Z</time>
      </trkpt>
      <trkpt lat="44.85978" lon="5.26948">
        <ele>1439.9</ele>
        <time>2024-07-02T11:43:59Z</time>
      </trkpt>
      <trkpt lat="44.85977" lon="5.26947">
        <ele>1439.9</ele>
        <time>2024-07-02T11:44:00Z</time>
      </trkpt>
      <trkpt lat="44.85977" lon="5.26946">
        <ele>1439.9</ele>
        <time>2024-07-02T11:44:01Z</time>
      </trkpt>
      <trkpt lat="44.85976" lon="5.26944">
        <ele>1439.8</ele>
        <time>2024-07-02T11:44:02Z</time>
      </trkpt>
      <trkpt lat="44.85975" lon="5.26943">
        <ele>1439.8</ele>
        <time>2024-07-02T11:44:03Z</time>
      </trkpt>
      <trkpt lat="44.85975" lon="5.26942">
        <ele>1439.8</ele>
        <time>2024-07-02T11:44:04Z</time>
      </trkpt>
      <trkpt lat="44.85974" lon="5.2694">
        <ele>1439.7</ele>
        <time>2024-07-02T11:44:05Z</time>
      </trkpt>
      <trkpt lat="44.85974" lon="5.26939">
        <ele>1439.7</ele>
        <time>2024-07-02T11:44:06Z</time>
      </trkpt>
      <trkpt lat="44.85974" lon="5.26937">
        <ele>1439.7</ele>
        <time>2024-07-02T11:44:07Z</time>
      </trkpt>
      <trkpt lat="44.85973" lon="5.26936">
        <ele>1439.6</ele>
        <time>2024-07-02T11:44:08Z</time>
      </trkpt>
      <trkpt lat="44.85972" lon="5.26935">
        <ele>1439.6</ele>
        <time>2024-07-02T11:44:09Z</time>
      </trkpt>
      <trkpt lat="44.85972" lon="5.26933">
        <ele>1439.5</ele>
        <time>2024-07-02T11:44:10Z</time>
      </trkpt>
      <trkpt lat="44.85971" lon="5.26932">
        <ele>1439.5</ele>
        <time>2024-07-02T11:44:11Z</time>
      </trkpt>
      <trkpt lat="44.8597" lon="5.2693">
        <ele>1439.5</ele>
        <time>2024-07-02T11:44:12Z</time>
      </trkpt>
      <trkpt lat="44.85969" lon="5.26928">
        <ele>1439.4</ele>
        <time>2024-07-02T11:44:13Z</time>
      </trkpt>
      <trkpt lat="44.85968" lon="5.26927">
        <ele>1439.3</ele>
        <time>2024-07-02T11:44:14Z</time>
      </trkpt>
      <trkpt lat="44.85968" lon="5.26926">
        <ele>1439.3</ele>
        <time>2024-07-02T11:44:15Z</time>
      </trkpt>
      <trkpt lat="44.85967" lon="5.26926">
        <ele>1439.3</ele>
        <time>2024-07-02T11:44:16Z</time>
      </trkpt>
      <trkpt lat="44.85966" lon="5.26925">
        <ele>1439.2</ele>
        <time>2024-07-02T11:44:17Z</time>
      </trkpt>
      <trkpt lat="44.85966" lon="5.26924">
        <ele>1439.2</ele>
        <time>2024-07-02T11:44:18Z</time>
      </trkpt>
      <trkpt lat="44.85965" lon="5.26922">
        <ele>1439.1</ele>
        <time>2024-07-02T11:44:19Z</time>
      </trkpt>
      <trkpt lat="44.85964" lon="5.26921">
        <ele>1439.1</ele>
        <time>2024-07-02T11:44:20Z</time>
      </trkpt>
      <trkpt lat="44.85963" lon="5.2692">
        <ele>1439</ele>
        <time>2024-07-02T11:44:21Z</time>
      </trkpt>
      <trkpt lat="44.85963" lon="5.26919">
        <ele>1438.9</ele>
        <time>2024-07-02T11:44:22Z</time>
      </trkpt>
      <trkpt lat="44.85962" lon="5.26917">
        <ele>1438.9</ele>
        <time>2024-07-02T11:44:23Z</time>
      </trkpt>
      <trkpt lat="44.85962" lon="5.26916">
        <ele>1438.8</ele>
        <time>2024-07-02T11:44:24Z</time>
      </trkpt>
      <trkpt lat="44.85961" lon="5.26914">
        <ele>1438.8</ele>
        <time>2024-07-02T11:44:25Z</time>
      </trkpt>
      <trkpt lat="44.8596" lon="5.26913">
        <ele>1438.7</ele>
        <time>2024-07-02T11:44:26Z</time>
      </trkpt>
      <trkpt lat="44.8596" lon="5.26912">
        <ele>1438.7</ele>
        <time>2024-07-02T11:44:27Z</time>
      </trkpt>
      <trkpt lat="44.85959" lon="5.2691">
        <ele>1438.6</ele>
        <time>2024-07-02T11:44:28Z</time>
      </trkpt>
      <trkpt lat="44.85958" lon="5.26909">
        <ele>1438.5</ele>
        <time>2024-07-02T11:44:29Z</time>
      </trkpt>
      <trkpt lat="44.85957" lon="5.26908">
        <ele>1438.5</ele>
        <time>2024-07-02T11:44:30Z</time>
      </trkpt>
      <trkpt lat="44.85956" lon="5.26906">
        <ele>1438.4</ele>
        <time>2024-07-02T11:44:31Z</time>
      </trkpt>
      <trkpt lat="44.85955" lon="5.26904">
        <ele>1438.4</ele>
        <time>2024-07-02T11:44:32Z</time>
      </trkpt>
      <trkpt lat="44.85955" lon="5.26903">
        <ele>1438.3</ele>
        <time>2024-07-02T11:44:33Z</time>
      </trkpt>
      <trkpt lat="44.85954" lon="5.26902">
        <ele>1438.3</ele>
        <time>2024-07-02T11:44:34Z</time>
      </trkpt>
      <trkpt lat="44.85954" lon="5.26901">
        <ele>1438.2</ele>
        <time>2024-07-02T11:44:35Z</time>
      </trkpt>
      <trkpt lat="44.85953" lon="5.26899">
        <ele>1438.2</ele>
        <time>2024-07-02T11:44:36Z</time>
      </trkpt>
      <trkpt lat="44.85953" lon="5.26898">
        <ele>1438.2</ele>
        <time>2024-07-02T11:44:37Z</time>
      </trkpt>
      <trkpt lat="44.85952" lon="5.26896">
        <ele>1438.1</ele>
        <time>2024-07-02T11:44:38Z</time>
      </trkpt>
      <trkpt lat="44.85951" lon="5.26895">
        <ele>1438.1</ele>
        <time>2024-07-02T11:44:39Z</time>
      </trkpt>
      <trkpt lat="44.85951" lon="5.26893">
        <ele>1438.1</ele>
        <time>2024-07-02T11:44:40Z</time>
      </trkpt>
      <trkpt lat="44.8595" lon="5.26892">
        <ele>1438.1</ele>
        <time>2024-07-02T11:44:41Z</time>
      </trkpt>
      <trkpt lat="44.85949" lon="5.2689">
        <ele>1438</ele>
        <time>2024-07-02T11:44:42Z</time>
      </trkpt>
      <trkpt lat="44.85948" lon="5.26889">
        <ele>1438</ele>
        <time>2024-07-02T11:44:43Z</time>
      </trkpt>
      <trkpt lat="44.85948" lon="5.26888">
        <ele>1438</ele>
        <time>2024-07-02T11:44:44Z</time>
      </trkpt>
      <trkpt lat="44.85947" lon="5.26885">
        <ele>1438</ele>
        <time>2024-07-02T11:44:45Z</time>
      </trkpt>
      <trkpt lat="44.85946" lon="5.26884">
        <ele>1438</ele>
        <time>2024-07-02T11:44:46Z</time>
      </trkpt>
      <trkpt lat="44.85946" lon="5.26883">
        <ele>1438</ele>
        <time>2024-07-02T11:44:47Z</time>
      </trkpt>
      <trkpt lat="44.85945" lon="5.26881">
        <ele>1438</ele>
        <time>2024-07-02T11:44:48Z</time>
      </trkpt>
      <trkpt lat="44.85944" lon="5.2688">
        <ele>1438</ele>
        <time>2024-07-02T11:44:49Z</time>
      </trkpt>
      <trkpt lat="44.85944" lon="5.26879">
        <ele>1438</ele>
        <time>2024-07-02T11:44:50Z</time>
      </trkpt>
      <trkpt lat="44.85942" lon="5.26877">
        <ele>1438.1</ele>
        <time>2024-07-02T11:44:51Z</time>
      </trkpt>
      <trkpt lat="44.85942" lon="5.26876">
        <ele>1438.1</ele>
        <time>2024-07-02T11:44:52Z</time>
      </trkpt>
      <trkpt lat="44.85941" lon="5.26875">
        <ele>1438.1</ele>
        <time>2024-07-02T11:44:53Z</time>
      </trkpt>
      <trkpt lat="44.85941" lon="5.26874">
        <ele>1438.1</ele>
        <time>2024-07-02T11:44:54Z</time>
      </trkpt>
      <trkpt lat="44.8594" lon="5.26873">
        <ele>1438.1</ele>
        <time>2024-07-02T11:44:55Z</time>
      </trkpt>
      <trkpt lat="44.85939" lon="5.26872">
        <ele>1438.1</ele>
        <time>2024-07-02T11:44:56Z</time>
      </trkpt>
      <trkpt lat="44.85939" lon="5.2687">
        <ele>1438.1</ele>
        <time>2024-07-02T11:44:57Z</time>
      </trkpt>
      <trkpt lat="44.85938" lon="5.26869">
        <ele>1438.1</ele>
        <time>2024-07-02T11:44:58Z</time>
      </trkpt>
      <trkpt lat="44.85938" lon="5.26868">
        <ele>1438.1</ele>
        <time>2024-07-02T11:44:59Z</time>
      </trkpt>
      <trkpt lat="44.85937" lon="5.26866">
        <ele>1438.1</ele>
        <time>2024-07-02T11:45:00Z</time>
      </trkpt>
      <trkpt lat="44.85936" lon="5.26865">
        <ele>1438.1</ele>
        <time>2024-07-02T11:45:01Z</time>
      </trkpt>
      <trkpt lat="44.85935" lon="5.26864">
        <ele>1438.1</ele>
        <time>2024-07-02T11:45:02Z</time>
      </trkpt>
      <trkpt lat="44.85934" lon="5.26863">
        <ele>1438.1</ele>
        <time>2024-07-02T11:45:03Z</time>
      </trkpt>
      <trkpt lat="44.85934" lon="5.26862">
        <ele>1438.1</ele>
        <time>2024-07-02T11:45:04Z</time>
      </trkpt>
      <trkpt lat="44.85933" lon="5.26861">
        <ele>1438.1</ele>
        <time>2024-07-02T11:45:05Z</time>
      </trkpt>
      <trkpt lat="44.85932" lon="5.26859">
        <ele>1438.1</ele>
        <time>2024-07-02T11:45:06Z</time>
      </trkpt>
      <trkpt lat="44.85931" lon="5.26858">
        <ele>1438.1</ele>
        <time>2024-07-02T11:45:07Z</time>
      </trkpt>
      <trkpt lat="44.8593" lon="5.26857">
        <ele>1438</ele>
        <time>2024-07-02T11:45:08Z</time>
      </trkpt>
      <trkpt lat="44.8593" lon="5.26858">
        <ele>1438</ele>
        <time>2024-07-02T11:45:09Z</time>
      </trkpt>
      <trkpt lat="44.85929" lon="5.26858">
        <ele>1438</ele>
        <time>2024-07-02T11:45:10Z</time>
      </trkpt>
      <trkpt lat="44.85928" lon="5.26857">
        <ele>1438</ele>
        <time>2024-07-02T11:45:11Z</time>
      </trkpt>
      <trkpt lat="44.85927" lon="5.26857">
        <ele>1438</ele>
        <time>2024-07-02T11:45:12Z</time>
      </trkpt>
      <trkpt lat="44.85926" lon="5.26856">
        <ele>1437.9</ele>
        <time>2024-07-02T11:45:13Z</time>
      </trkpt>
      <trkpt lat="44.85925" lon="5.26855">
        <ele>1437.9</ele>
        <time>2024-07-02T11:45:14Z</time>
      </trkpt>
      <trkpt lat="44.85925" lon="5.26854">
        <ele>1437.9</ele>
        <time>2024-07-02T11:45:15Z</time>
      </trkpt>
      <trkpt lat="44.85925" lon="5.26852">
        <ele>1437.8</ele>
        <time>2024-07-02T11:45:16Z</time>
      </trkpt>
      <trkpt lat="44.85924" lon="5.2685">
        <ele>1437.8</ele>
        <time>2024-07-02T11:45:17Z</time>
      </trkpt>
      <trkpt lat="44.85924" lon="5.26847">
        <ele>1437.7</ele>
        <time>2024-07-02T11:45:18Z</time>
      </trkpt>
      <trkpt lat="44.85924" lon="5.26846">
        <ele>1437.7</ele>
        <time>2024-07-02T11:45:19Z</time>
      </trkpt>
      <trkpt lat="44.85923" lon="5.26843">
        <ele>1437.6</ele>
        <time>2024-07-02T11:45:20Z</time>
      </trkpt>
      <trkpt lat="44.85923" lon="5.26842">
        <ele>1437.6</ele>
        <time>2024-07-02T11:45:21Z</time>
      </trkpt>
      <trkpt lat="44.85922" lon="5.26841">
        <ele>1437.5</ele>
        <time>2024-07-02T11:45:22Z</time>
      </trkpt>
      <trkpt lat="44.85921" lon="5.26839">
        <ele>1437.5</ele>
        <time>2024-07-02T11:45:23Z</time>
      </trkpt>
      <trkpt lat="44.85921" lon="5.26838">
        <ele>1437.4</ele>
        <time>2024-07-02T11:45:24Z</time>
      </trkpt>
      <trkpt lat="44.85921" lon="5.26837">
        <ele>1437.4</ele>
        <time>2024-07-02T11:45:25Z</time>
      </trkpt>
      <trkpt lat="44.8592" lon="5.26834">
        <ele>1437.3</ele>
        <time>2024-07-02T11:45:26Z</time>
      </trkpt>
      <trkpt lat="44.85919" lon="5.26833">
        <ele>1437.3</ele>
        <time>2024-07-02T11:45:27Z</time>
      </trkpt>
      <trkpt lat="44.85918" lon="5.26832">
        <ele>1437.3</ele>
        <time>2024-07-02T11:45:28Z</time>
      </trkpt>
      <trkpt lat="44.85918" lon="5.26831">
        <ele>1437.2</ele>
        <time>2024-07-02T11:45:29Z</time>
      </trkpt>
      <trkpt lat="44.85918" lon="5.2683">
        <ele>1437.2</ele>
        <time>2024-07-02T11:45:30Z</time>
      </trkpt>
      <trkpt lat="44.85917" lon="5.26828">
        <ele>1437.2</ele>
        <time>2024-07-02T11:45:31Z</time>
      </trkpt>
      <trkpt lat="44.85917" lon="5.26827">
        <ele>1437.1</ele>
        <time>2024-07-02T11:45:32Z</time>
      </trkpt>
      <trkpt lat="44.85916" lon="5.26824">
        <ele>1437.1</ele>
        <time>2024-07-02T11:45:33Z</time>
      </trkpt>
      <trkpt lat="44.85915" lon="5.26824">
        <ele>1437.1</ele>
        <time>2024-07-02T11:45:34Z</time>
      </trkpt>
      <trkpt lat="44.85914" lon="5.26823">
        <ele>1437</ele>
        <time>2024-07-02T11:45:35Z</time>
      </trkpt>
      <trkpt lat="44.85913" lon="5.26821">
        <ele>1437</ele>
        <time>2024-07-02T11:45:36Z</time>
      </trkpt>
      <trkpt lat="44.85912" lon="5.26819">
        <ele>1437</ele>
        <time>2024-07-02T11:45:37Z</time>
      </trkpt>
      <trkpt lat="44.85911" lon="5.26818">
        <ele>1436.9</ele>
        <time>2024-07-02T11:45:38Z</time>
      </trkpt>
      <trkpt lat="44.85911" lon="5.26818">
        <ele>1436.9</ele>
        <time>2024-07-02T11:45:39Z</time>
      </trkpt>
      <trkpt lat="44.8591" lon="5.26817">
        <ele>1436.9</ele>
        <time>2024-07-02T11:45:40Z</time>
      </trkpt>
      <trkpt lat="44.85909" lon="5.26816">
        <ele>1436.9</ele>
        <time>2024-07-02T11:45:41Z</time>
      </trkpt>
      <trkpt lat="44.85908" lon="5.26815">
        <ele>1436.9</ele>
        <time>2024-07-02T11:45:42Z</time>
      </trkpt>
      <trkpt lat="44.85908" lon="5.26813">
        <ele>1436.9</ele>
        <time>2024-07-02T11:45:43Z</time>
      </trkpt>
      <trkpt lat="44.85907" lon="5.26812">
        <ele>1436.9</ele>
        <time>2024-07-02T11:45:44Z</time>
      </trkpt>
      <trkpt lat="44.85907" lon="5.2681">
        <ele>1436.9</ele>
        <time>2024-07-02T11:45:45Z</time>
      </trkpt>
      <trkpt lat="44.85906" lon="5.26809">
        <ele>1436.9</ele>
        <time>2024-07-02T11:45:46Z</time>
      </trkpt>
      <trkpt lat="44.85906" lon="5.26808">
        <ele>1436.9</ele>
        <time>2024-07-02T11:45:47Z</time>
      </trkpt>
      <trkpt lat="44.85905" lon="5.26806">
        <ele>1436.9</ele>
        <time>2024-07-02T11:45:48Z</time>
      </trkpt>
      <trkpt lat="44.85904" lon="5.26804">
        <ele>1436.9</ele>
        <time>2024-07-02T11:45:49Z</time>
      </trkpt>
      <trkpt lat="44.85903" lon="5.26803">
        <ele>1436.9</ele>
        <time>2024-07-02T11:45:50Z</time>
      </trkpt>
      <trkpt lat="44.85903" lon="5.26802">
        <ele>1436.9</ele>
        <time>2024-07-02T11:45:51Z</time>
      </trkpt>
      <trkpt lat="44.85902" lon="5.26801">
        <ele>1436.9</ele>
        <time>2024-07-02T11:45:52Z</time>
      </trkpt>
      <trkpt lat="44.85902" lon="5.268">
        <ele>1436.9</ele>
        <time>2024-07-02T11:45:53Z</time>
      </trkpt>
      <trkpt lat="44.85901" lon="5.26798">
        <ele>1436.9</ele>
        <time>2024-07-02T11:45:54Z</time>
      </trkpt>
      <trkpt lat="44.859" lon="5.26797">
        <ele>1436.9</ele>
        <time>2024-07-02T11:45:55Z</time>
      </trkpt>
      <trkpt lat="44.859" lon="5.26796">
        <ele>1437</ele>
        <time>2024-07-02T11:45:56Z</time>
      </trkpt>
      <trkpt lat="44.85899" lon="5.26794">
        <ele>1437</ele>
        <time>2024-07-02T11:45:57Z</time>
      </trkpt>
      <trkpt lat="44.85899" lon="5.26793">
        <ele>1437</ele>
        <time>2024-07-02T11:45:58Z</time>
      </trkpt>
      <trkpt lat="44.85898" lon="5.26792">
        <ele>1437.1</ele>
        <time>2024-07-02T11:45:59Z</time>
      </trkpt>
      <trkpt lat="44.85897" lon="5.26791">
        <ele>1437.1</ele>
        <time>2024-07-02T11:46:00Z</time>
      </trkpt>
      <trkpt lat="44.85897" lon="5.26789">
        <ele>1437.1</ele>
        <time>2024-07-02T11:46:01Z</time>
      </trkpt>
      <trkpt lat="44.85896" lon="5.26788">
        <ele>1437.2</ele>
        <time>2024-07-02T11:46:02Z</time>
      </trkpt>
      <trkpt lat="44.85895" lon="5.26787">
        <ele>1437.2</ele>
        <time>2024-07-02T11:46:03Z</time>
      </trkpt>
      <trkpt lat="44.85895" lon="5.26785">
        <ele>1437.3</ele>
        <time>2024-07-02T11:46:04Z</time>
      </trkpt>
      <trkpt lat="44.85894" lon="5.26784">
        <ele>1437.3</ele>
        <time>2024-07-02T11:46:05Z</time>
      </trkpt>
      <trkpt lat="44.85893" lon="5.26782">
        <ele>1437.4</ele>
        <time>2024-07-02T11:46:06Z</time>
      </trkpt>
      <trkpt lat="44.85892" lon="5.2678">
        <ele>1437.5</ele>
        <time>2024-07-02T11:46:07Z</time>
      </trkpt>
      <trkpt lat="44.85892" lon="5.26779">
        <ele>1437.5</ele>
        <time>2024-07-02T11:46:08Z</time>
      </trkpt>
      <trkpt lat="44.85891" lon="5.26778">
        <ele>1437.5</ele>
        <time>2024-07-02T11:46:09Z</time>
      </trkpt>
      <trkpt lat="44.8589" lon="5.26777">
        <ele>1437.6</ele>
        <time>2024-07-02T11:46:10Z</time>
      </trkpt>
      <trkpt lat="44.8589" lon="5.26776">
        <ele>1437.7</ele>
        <time>2024-07-02T11:46:11Z</time>
      </trkpt>
      <trkpt lat="44.85889" lon="5.26774">
        <ele>1437.7</ele>
        <time>2024-07-02T11:46:12Z</time>
      </trkpt>
      <trkpt lat="44.85888" lon="5.26773">
        <ele>1437.8</ele>
        <time>2024-07-02T11:46:13Z</time>
      </trkpt>
      <trkpt lat="44.85888" lon="5.26772">
        <ele>1437.8</ele>
        <time>2024-07-02T11:46:14Z</time>
      </trkpt>
      <trkpt lat="44.85887" lon="5.2677">
        <ele>1437.9</ele>
        <time>2024-07-02T11:46:15Z</time>
      </trkpt>
      <trkpt lat="44.85886" lon="5.26768">
        <ele>1438</ele>
        <time>2024-07-02T11:46:16Z</time>
      </trkpt>
      <trkpt lat="44.85886" lon="5.26767">
        <ele>1438.1</ele>
        <time>2024-07-02T11:46:17Z</time>
      </trkpt>
      <trkpt lat="44.85885" lon="5.26766">
        <ele>1438.1</ele>
        <time>2024-07-02T11:46:18Z</time>
      </trkpt>
      <trkpt lat="44.85884" lon="5.26764">
        <ele>1438.2</ele>
        <time>2024-07-02T11:46:19Z</time>
      </trkpt>
      <trkpt lat="44.85884" lon="5.26764">
        <ele>1438.2</ele>
        <time>2024-07-02T11:46:20Z</time>
      </trkpt>
      <trkpt lat="44.85883" lon="5.26762">
        <ele>1438.3</ele>
        <time>2024-07-02T11:46:21Z</time>
      </trkpt>
      <trkpt lat="44.85883" lon="5.26761">
        <ele>1438.3</ele>
        <time>2024-07-02T11:46:22Z</time>
      </trkpt>
      <trkpt lat="44.85882" lon="5.2676">
        <ele>1438.4</ele>
        <time>2024-07-02T11:46:23Z</time>
      </trkpt>
      <trkpt lat="44.85881" lon="5.26758">
        <ele>1438.5</ele>
        <time>2024-07-02T11:46:24Z</time>
      </trkpt>
      <trkpt lat="44.85881" lon="5.26757">
        <ele>1438.5</ele>
        <time>2024-07-02T11:46:25Z</time>
      </trkpt>
      <trkpt lat="44.8588" lon="5.26756">
        <ele>1438.6</ele>
        <time>2024-07-02T11:46:26Z</time>
      </trkpt>
      <trkpt lat="44.85879" lon="5.26755">
        <ele>1438.6</ele>
        <time>2024-07-02T11:46:27Z</time>
      </trkpt>
      <trkpt lat="44.85879" lon="5.26753">
        <ele>1438.7</ele>
        <time>2024-07-02T11:46:28Z</time>
      </trkpt>
      <trkpt lat="44.85878" lon="5.26752">
        <ele>1438.8</ele>
        <time>2024-07-02T11:46:29Z</time>
      </trkpt>
      <trkpt lat="44.85877" lon="5.26751">
        <ele>1438.8</ele>
        <time>2024-07-02T11:46:30Z</time>
      </trkpt>
      <trkpt lat="44.85877" lon="5.26749">
        <ele>1438.9</ele>
        <time>2024-07-02T11:46:31Z</time>
      </trkpt>
      <trkpt lat="44.85876" lon="5.26748">
        <ele>1438.9</ele>
        <time>2024-07-02T11:46:32Z</time>
      </trkpt>
      <trkpt lat="44.85875" lon="5.26747">
        <ele>1439</ele>
        <time>2024-07-02T11:46:33Z</time>
      </trkpt>
      <trkpt lat="44.85875" lon="5.26745">
        <ele>1439.1</ele>
        <time>2024-07-02T11:46:34Z</time>
      </trkpt>
      <trkpt lat="44.85874" lon="5.26744">
        <ele>1439.1</ele>
        <time>2024-07-02T11:46:35Z</time>
      </trkpt>
      <trkpt lat="44.85873" lon="5.26742">
        <ele>1439.2</ele>
        <time>2024-07-02T11:46:36Z</time>
      </trkpt>
      <trkpt lat="44.85873" lon="5.26741">
        <ele>1439.3</ele>
        <time>2024-07-02T11:46:37Z</time>
      </trkpt>
      <trkpt lat="44.85872" lon="5.2674">
        <ele>1439.3</ele>
        <time>2024-07-02T11:46:38Z</time>
      </trkpt>
      <trkpt lat="44.85872" lon="5.26738">
        <ele>1439.4</ele>
        <time>2024-07-02T11:46:39Z</time>
      </trkpt>
      <trkpt lat="44.85871" lon="5.26736">
        <ele>1439.5</ele>
        <time>2024-07-02T11:46:40Z</time>
      </trkpt>
      <trkpt lat="44.85871" lon="5.26735">
        <ele>1439.5</ele>
        <time>2024-07-02T11:46:41Z</time>
      </trkpt>
      <trkpt lat="44.8587" lon="5.26734">
        <ele>1439.6</ele>
        <time>2024-07-02T11:46:42Z</time>
      </trkpt>
      <trkpt lat="44.85869" lon="5.26733">
        <ele>1439.6</ele>
        <time>2024-07-02T11:46:43Z</time>
      </trkpt>
      <trkpt lat="44.85868" lon="5.26732">
        <ele>1439.7</ele>
        <time>2024-07-02T11:46:44Z</time>
      </trkpt>
      <trkpt lat="44.85868" lon="5.26731">
        <ele>1439.7</ele>
        <time>2024-07-02T11:46:45Z</time>
      </trkpt>
      <trkpt lat="44.85867" lon="5.2673">
        <ele>1439.8</ele>
        <time>2024-07-02T11:46:46Z</time>
      </trkpt>
      <trkpt lat="44.85867" lon="5.26728">
        <ele>1439.8</ele>
        <time>2024-07-02T11:46:47Z</time>
      </trkpt>
      <trkpt lat="44.85866" lon="5.26727">
        <ele>1439.9</ele>
        <time>2024-07-02T11:46:48Z</time>
      </trkpt>
      <trkpt lat="44.85866" lon="5.26725">
        <ele>1439.9</ele>
        <time>2024-07-02T11:46:49Z</time>
      </trkpt>
      <trkpt lat="44.85865" lon="5.26724">
        <ele>1440</ele>
        <time>2024-07-02T11:46:50Z</time>
      </trkpt>
      <trkpt lat="44.85865" lon="5.26723">
        <ele>1440</ele>
        <time>2024-07-02T11:46:51Z</time>
      </trkpt>
      <trkpt lat="44.85863" lon="5.26721">
        <ele>1440.1</ele>
        <time>2024-07-02T11:46:52Z</time>
      </trkpt>
      <trkpt lat="44.85863" lon="5.2672">
        <ele>1440.1</ele>
        <time>2024-07-02T11:46:53Z</time>
      </trkpt>
      <trkpt lat="44.85862" lon="5.26719">
        <ele>1440.1</ele>
        <time>2024-07-02T11:46:54Z</time>
      </trkpt>
      <trkpt lat="44.85862" lon="5.26718">
        <ele>1440.2</ele>
        <time>2024-07-02T11:46:55Z</time>
      </trkpt>
      <trkpt lat="44.85861" lon="5.26717">
        <ele>1440.2</ele>
        <time>2024-07-02T11:46:56Z</time>
      </trkpt>
      <trkpt lat="44.8586" lon="5.26716">
        <ele>1440.2</ele>
        <time>2024-07-02T11:46:57Z</time>
      </trkpt>
      <trkpt lat="44.8586" lon="5.26715">
        <ele>1440.3</ele>
        <time>2024-07-02T11:46:58Z</time>
      </trkpt>
      <trkpt lat="44.85859" lon="5.26714">
        <ele>1440.3</ele>
        <time>2024-07-02T11:46:59Z</time>
      </trkpt>
      <trkpt lat="44.85858" lon="5.26712">
        <ele>1440.3</ele>
        <time>2024-07-02T11:47:00Z</time>
      </trkpt>
      <trkpt lat="44.85858" lon="5.2671">
        <ele>1440.4</ele>
        <time>2024-07-02T11:47:01Z</time>
      </trkpt>
      <trkpt lat="44.85857" lon="5.26708">
        <ele>1440.4</ele>
        <time>2024-07-02T11:47:02Z</time>
      </trkpt>
      <trkpt lat="44.85857" lon="5.26707">
        <ele>1440.4</ele>
        <time>2024-07-02T11:47:03Z</time>
      </trkpt>
      <trkpt lat="44.85856" lon="5.26705">
        <ele>1440.5</ele>
        <time>2024-07-02T11:47:04Z</time>
      </trkpt>
      <trkpt lat="44.85856" lon="5.26704">
        <ele>1440.5</ele>
        <time>2024-07-02T11:47:05Z</time>
      </trkpt>
      <trkpt lat="44.85856" lon="5.26703">
        <ele>1440.5</ele>
        <time>2024-07-02T11:47:06Z</time>
      </trkpt>
      <trkpt lat="44.85855" lon="5.267">
        <ele>1440.6</ele>
        <time>2024-07-02T11:47:07Z</time>
      </trkpt>
      <trkpt lat="44.85854" lon="5.26699">
        <ele>1440.6</ele>
        <time>2024-07-02T11:47:08Z</time>
      </trkpt>
      <trkpt lat="44.85854" lon="5.26698">
        <ele>1440.6</ele>
        <time>2024-07-02T11:47:09Z</time>
      </trkpt>
      <trkpt lat="44.85854" lon="5.26697">
        <ele>1440.6</ele>
        <time>2024-07-02T11:47:10Z</time>
      </trkpt>
      <trkpt lat="44.85853" lon="5.26695">
        <ele>1440.6</ele>
        <time>2024-07-02T11:47:11Z</time>
      </trkpt>
      <trkpt lat="44.85852" lon="5.26694">
        <ele>1440.6</ele>
        <time>2024-07-02T11:47:12Z</time>
      </trkpt>
      <trkpt lat="44.85852" lon="5.26692">
        <ele>1440.6</ele>
        <time>2024-07-02T11:47:13Z</time>
      </trkpt>
      <trkpt lat="44.85851" lon="5.26691">
        <ele>1440.6</ele>
        <time>2024-07-02T11:47:14Z</time>
      </trkpt>
      <trkpt lat="44.8585" lon="5.2669">
        <ele>1440.7</ele>
        <time>2024-07-02T11:47:15Z</time>
      </trkpt>
      <trkpt lat="44.85849" lon="5.26689">
        <ele>1440.7</ele>
        <time>2024-07-02T11:47:16Z</time>
      </trkpt>
      <trkpt lat="44.85849" lon="5.26687">
        <ele>1440.7</ele>
        <time>2024-07-02T11:47:17Z</time>
      </trkpt>
      <trkpt lat="44.85848" lon="5.26686">
        <ele>1440.7</ele>
        <time>2024-07-02T11:47:18Z</time>
      </trkpt>
      <trkpt lat="44.85847" lon="5.26685">
        <ele>1440.6</ele>
        <time>2024-07-02T11:47:19Z</time>
      </trkpt>
      <trkpt lat="44.85847" lon="5.26684">
        <ele>1440.6</ele>
        <time>2024-07-02T11:47:20Z</time>
      </trkpt>
      <trkpt lat="44.85846" lon="5.26683">
        <ele>1440.6</ele>
        <time>2024-07-02T11:47:21Z</time>
      </trkpt>
      <trkpt lat="44.85845" lon="5.26681">
        <ele>1440.6</ele>
        <time>2024-07-02T11:47:22Z</time>
      </trkpt>
      <trkpt lat="44.85844" lon="5.26681">
        <ele>1440.6</ele>
        <time>2024-07-02T11:47:23Z</time>
      </trkpt>
      <trkpt lat="44.85843" lon="5.26683">
        <ele>1440.5</ele>
        <time>2024-07-02T11:47:24Z</time>
      </trkpt>
      <trkpt lat="44.85843" lon="5.26682">
        <ele>1440.5</ele>
        <time>2024-07-02T11:47:25Z</time>
      </trkpt>
      <trkpt lat="44.85842" lon="5.26681">
        <ele>1440.5</ele>
        <time>2024-07-02T11:47:26Z</time>
      </trkpt>
      <trkpt lat="44.85841" lon="5.26679">
        <ele>1440.5</ele>
        <time>2024-07-02T11:47:27Z</time>
      </trkpt>
      <trkpt lat="44.85841" lon="5.26678">
        <ele>1440.4</ele>
        <time>2024-07-02T11:47:28Z</time>
      </trkpt>
      <trkpt lat="44.8584" lon="5.26677">
        <ele>1440.4</ele>
        <time>2024-07-02T11:47:29Z</time>
      </trkpt>
      <trkpt lat="44.8584" lon="5.26675">
        <ele>1440.3</ele>
        <time>2024-07-02T11:47:30Z</time>
      </trkpt>
      <trkpt lat="44.85839" lon="5.26674">
        <ele>1440.3</ele>
        <time>2024-07-02T11:47:31Z</time>
      </trkpt>
      <trkpt lat="44.85839" lon="5.26671">
        <ele>1440.2</ele>
        <time>2024-07-02T11:47:32Z</time>
      </trkpt>
      <trkpt lat="44.85838" lon="5.2667">
        <ele>1440.1</ele>
        <time>2024-07-02T11:47:33Z</time>
      </trkpt>
      <trkpt lat="44.85838" lon="5.26669">
        <ele>1440.1</ele>
        <time>2024-07-02T11:47:34Z</time>
      </trkpt>
      <trkpt lat="44.85838" lon="5.26669">
        <ele>1440.1</ele>
        <time>2024-07-02T11:47:35Z</time>
      </trkpt>
      <trkpt lat="44.85837" lon="5.26667">
        <ele>1440</ele>
        <time>2024-07-02T11:47:36Z</time>
      </trkpt>
      <trkpt lat="44.85837" lon="5.26666">
        <ele>1440</ele>
        <time>2024-07-02T11:47:37Z</time>
      </trkpt>
      <trkpt lat="44.85837" lon="5.26666">
        <ele>1439.9</ele>
        <time>2024-07-02T11:47:38Z</time>
      </trkpt>
      <trkpt lat="44.85837" lon="5.26665">
        <ele>1439.9</ele>
        <time>2024-07-02T11:47:39Z</time>
      </trkpt>
      <trkpt lat="44.85837" lon="5.26665">
        <ele>1439.9</ele>
        <time>2024-07-02T11:47:40Z</time>
      </trkpt>
      <trkpt lat="44.85837" lon="5.26666">
        <ele>1439.9</ele>
        <time>2024-07-02T11:47:41Z</time>
      </trkpt>
      <trkpt lat="44.85837" lon="5.26666">
        <ele>1439.9</ele>
        <time>2024-07-02T11:47:42Z</time>
      </trkpt>
      <trkpt lat="44.85837" lon="5.26666">
        <ele>1439.8</ele>
        <time>2024-07-02T11:47:43Z</time>
      </trkpt>
      <trkpt lat="44.85837" lon="5.26666">
        <ele>1439.8</ele>
        <time>2024-07-02T11:47:44Z</time>
      </trkpt>
      <trkpt lat="44.85837" lon="5.26666">
        <ele>1439.8</ele>
        <time>2024-07-02T11:47:45Z</time>
      </trkpt>
      <trkpt lat="44.85837" lon="5.26665">
        <ele>1439.8</ele>
        <time>2024-07-02T11:47:46Z</time>
      </trkpt>
      <trkpt lat="44.85837" lon="5.26665">
        <ele>1439.8</ele>
        <time>2024-07-02T11:47:47Z</time>
      </trkpt>
      <trkpt lat="44.85836" lon="5.26663">
        <ele>1439.7</ele>
        <time>2024-07-02T11:47:48Z</time>
      </trkpt>
      <trkpt lat="44.85835" lon="5.26662">
        <ele>1439.6</ele>
        <time>2024-07-02T11:47:49Z</time>
      </trkpt>
      <trkpt lat="44.85835" lon="5.26661">
        <ele>1439.6</ele>
        <time>2024-07-02T11:47:50Z</time>
      </trkpt>
      <trkpt lat="44.85835" lon="5.26661">
        <ele>1439.6</ele>
        <time>2024-07-02T11:47:51Z</time>
      </trkpt>
      <trkpt lat="44.85835" lon="5.26661">
        <ele>1439.5</ele>
        <time>2024-07-02T11:47:52Z</time>
      </trkpt>
      <trkpt lat="44.85835" lon="5.26661">
        <ele>1439.5</ele>
        <time>2024-07-02T11:47:53Z</time>
      </trkpt>
      <trkpt lat="44.85835" lon="5.26661">
        <ele>1439.5</ele>
        <time>2024-07-02T11:47:54Z</time>
      </trkpt>
      <trkpt lat="44.85835" lon="5.2666">
        <ele>1439.5</ele>
        <time>2024-07-02T11:47:55Z</time>
      </trkpt>
      <trkpt lat="44.85835" lon="5.2666">
        <ele>1439.5</ele>
        <time>2024-07-02T11:47:56Z</time>
      </trkpt>
      <trkpt lat="44.85835" lon="5.2666">
        <ele>1439.5</ele>
        <time>2024-07-02T11:47:57Z</time>
      </trkpt>
      <trkpt lat="44.85834" lon="5.2666">
        <ele>1439.5</ele>
        <time>2024-07-02T11:47:58Z</time>
      </trkpt>
      <trkpt lat="44.85834" lon="5.26659">
        <ele>1439.5</ele>
        <time>2024-07-02T11:47:59Z</time>
      </trkpt>
      <trkpt lat="44.85834" lon="5.26659">
        <ele>1439.4</ele>
        <time>2024-07-02T11:48:00Z</time>
      </trkpt>
      <trkpt lat="44.85834" lon="5.26659">
        <ele>1439.4</ele>
        <time>2024-07-02T11:48:01Z</time>
      </trkpt>
      <trkpt lat="44.85834" lon="5.26659">
        <ele>1439.4</ele>
        <time>2024-07-02T11:48:02Z</time>
      </trkpt>
      <trkpt lat="44.85834" lon="5.26659">
        <ele>1439.4</ele>
        <time>2024-07-02T11:48:03Z</time>
      </trkpt>
      <trkpt lat="44.85834" lon="5.26658">
        <ele>1439.4</ele>
        <time>2024-07-02T11:48:04Z</time>
      </trkpt>
      <trkpt lat="44.85834" lon="5.26658">
        <ele>1439.4</ele>
        <time>2024-07-02T11:48:05Z</time>
      </trkpt>
      <trkpt lat="44.85834" lon="5.26658">
        <ele>1439.4</ele>
        <time>2024-07-02T11:48:06Z</time>
      </trkpt>
      <trkpt lat="44.85834" lon="5.26658">
        <ele>1439.4</ele>
        <time>2024-07-02T11:48:07Z</time>
      </trkpt>
      <trkpt lat="44.85834" lon="5.26657">
        <ele>1439.3</ele>
        <time>2024-07-02T11:48:08Z</time>
      </trkpt>
      <trkpt lat="44.85834" lon="5.26657">
        <ele>1439.3</ele>
        <time>2024-07-02T11:48:09Z</time>
      </trkpt>
      <trkpt lat="44.85833" lon="5.26656">
        <ele>1439.3</ele>
        <time>2024-07-02T11:48:10Z</time>
      </trkpt>
      <trkpt lat="44.85833" lon="5.26655">
        <ele>1439.2</ele>
        <time>2024-07-02T11:48:11Z</time>
      </trkpt>
      <trkpt lat="44.85833" lon="5.26654">
        <ele>1439.2</ele>
        <time>2024-07-02T11:48:12Z</time>
      </trkpt>
      <trkpt lat="44.85833" lon="5.26653">
        <ele>1439.1</ele>
        <time>2024-07-02T11:48:13Z</time>
      </trkpt>
      <trkpt lat="44.85834" lon="5.26653">
        <ele>1439.1</ele>
        <time>2024-07-02T11:48:14Z</time>
      </trkpt>
      <trkpt lat="44.85834" lon="5.26654">
        <ele>1439.1</ele>
        <time>2024-07-02T11:48:15Z</time>
      </trkpt>
      <trkpt lat="44.85834" lon="5.26654">
        <ele>1439.1</ele>
        <time>2024-07-02T11:48:16Z</time>
      </trkpt>
      <trkpt lat="44.85834" lon="5.26654">
        <ele>1439</ele>
        <time>2024-07-02T11:48:17Z</time>
      </trkpt>
      <trkpt lat="44.85834" lon="5.26654">
        <ele>1439</ele>
        <time>2024-07-02T11:48:18Z</time>
      </trkpt>
      <trkpt lat="44.85835" lon="5.26654">
        <ele>1439</ele>
        <time>2024-07-02T11:48:19Z</time>
      </trkpt>
      <trkpt lat="44.85835" lon="5.26654">
        <ele>1439</ele>
        <time>2024-07-02T11:48:20Z</time>
      </trkpt>
      <trkpt lat="44.85835" lon="5.26654">
        <ele>1439</ele>
        <time>2024-07-02T11:48:21Z</time>
      </trkpt>
      <trkpt lat="44.85835" lon="5.26654">
        <ele>1439</ele>
        <time>2024-07-02T11:48:22Z</time>
      </trkpt>
      <trkpt lat="44.85835" lon="5.26654">
        <ele>1439</ele>
        <time>2024-07-02T11:48:23Z</time>
      </trkpt>
      <trkpt lat="44.85835" lon="5.26654">
        <ele>1439</ele>
        <time>2024-07-02T11:48:24Z</time>
      </trkpt>
      <trkpt lat="44.85835" lon="5.26654">
        <ele>1439</ele>
        <time>2024-07-02T11:48:25Z</time>
      </trkpt>
      <trkpt lat="44.85835" lon="5.26654">
        <ele>1439</ele>
        <time>2024-07-02T11:48:26Z</time>
      </trkpt>
      <trkpt lat="44.85835" lon="5.26654">
        <ele>1439</ele>
        <time>2024-07-02T11:48:27Z</time>
      </trkpt>
      <trkpt lat="44.85835" lon="5.26654">
        <ele>1439</ele>
        <time>2024-07-02T11:48:28Z</time>
      </trkpt>
      <trkpt lat="44.85835" lon="5.26654">
        <ele>1439</ele>
        <time>2024-07-02T11:48:29Z</time>
      </trkpt>
      <trkpt lat="44.85835" lon="5.26654">
        <ele>1438.9</ele>
        <time>2024-07-02T11:48:30Z</time>
      </trkpt>
      <trkpt lat="44.85835" lon="5.26654">
        <ele>1438.9</ele>
        <time>2024-07-02T11:48:31Z</time>
      </trkpt>
      <trkpt lat="44.85834" lon="5.26654">
        <ele>1438.8</ele>
        <time>2024-07-02T11:48:32Z</time>
      </trkpt>
      <trkpt lat="44.85833" lon="5.26655">
        <ele>1438.8</ele>
        <time>2024-07-02T11:48:33Z</time>
      </trkpt>
      <trkpt lat="44.85833" lon="5.26655">
        <ele>1438.8</ele>
        <time>2024-07-02T11:48:34Z</time>
      </trkpt>
      <trkpt lat="44.85833" lon="5.26655">
        <ele>1438.7</ele>
        <time>2024-07-02T11:48:35Z</time>
      </trkpt>
      <trkpt lat="44.85833" lon="5.26655">
        <ele>1438.7</ele>
        <time>2024-07-02T11:48:36Z</time>
      </trkpt>
      <trkpt lat="44.85833" lon="5.26655">
        <ele>1438.7</ele>
        <time>2024-07-02T11:48:37Z</time>
      </trkpt>
      <trkpt lat="44.85833" lon="5.26655">
        <ele>1438.7</ele>
        <time>2024-07-02T11:48:38Z</time>
      </trkpt>
      <trkpt lat="44.85833" lon="5.26655">
        <ele>1438.7</ele>
        <time>2024-07-02T11:48:39Z</time>
      </trkpt>
      <trkpt lat="44.85833" lon="5.26655">
        <ele>1438.7</ele>
        <time>2024-07-02T11:48:40Z</time>
      </trkpt>
      <trkpt lat="44.85833" lon="5.26655">
        <ele>1438.7</ele>
        <time>2024-07-02T11:48:41Z</time>
      </trkpt>
      <trkpt lat="44.85833" lon="5.26655">
        <ele>1438.7</ele>
        <time>2024-07-02T11:48:42Z</time>
      </trkpt>
      <trkpt lat="44.85833" lon="5.26655">
        <ele>1438.7</ele>
        <time>2024-07-02T11:48:43Z</time>
      </trkpt>
      <trkpt lat="44.85833" lon="5.26655">
        <ele>1438.7</ele>
        <time>2024-07-02T11:48:44Z</time>
      </trkpt>
      <trkpt lat="44.85833" lon="5.26655">
        <ele>1438.7</ele>
        <time>2024-07-02T11:48:45Z</time>
      </trkpt>
      <trkpt lat="44.85833" lon="5.26655">
        <ele>1438.7</ele>
        <time>2024-07-02T11:48:46Z</time>
      </trkpt>
      <trkpt lat="44.85833" lon="5.26655">
        <ele>1438.7</ele>
        <time>2024-07-02T11:48:47Z</time>
      </trkpt>
      <trkpt lat="44.85833" lon="5.26655">
        <ele>1438.7</ele>
        <time>2024-07-02T11:48:48Z</time>
      </trkpt>
      <trkpt lat="44.85833" lon="5.26655">
        <ele>1438.7</ele>
        <time>2024-07-02T11:48:49Z</time>
      </trkpt>
      <trkpt lat="44.85833" lon="5.26655">
        <ele>1438.7</ele>
        <time>2024-07-02T11:48:50Z</time>
      </trkpt>
      <trkpt lat="44.85833" lon="5.26655">
        <ele>1438.7</ele>
        <time>2024-07-02T11:48:51Z</time>
      </trkpt>
      <trkpt lat="44.85833" lon="5.26655">
        <ele>1438.7</ele>
        <time>2024-07-02T11:48:52Z</time>
      </trkpt>
      <trkpt lat="44.85833" lon="5.26655">
        <ele>1438.7</ele>
        <time>2024-07-02T11:48:53Z</time>
      </trkpt>
      <trkpt lat="44.85833" lon="5.26655">
        <ele>1438.7</ele>
        <time>2024-07-02T11:48:54Z</time>
      </trkpt>
      <trkpt lat="44.85833" lon="5.26655">
        <ele>1438.7</ele>
        <time>2024-07-02T11:48:55Z</time>
      </trkpt>
      <trkpt lat="44.85833" lon="5.26655">
        <ele>1438.7</ele>
        <time>2024-07-02T11:48:56Z</time>
      </trkpt>
      <trkpt lat="44.85833" lon="5.26655">
        <ele>1438.7</ele>
        <time>2024-07-02T11:48:57Z</time>
      </trkpt>
      <trkpt lat="44.85833" lon="5.26655">
        <ele>1438.6</ele>
        <time>2024-07-02T11:48:58Z</time>
      </trkpt>
      <trkpt lat="44.85834" lon="5.26655">
        <ele>1438.6</ele>
        <time>2024-07-02T11:48:59Z</time>
      </trkpt>
      <trkpt lat="44.85834" lon="5.26655">
        <ele>1438.6</ele>
        <time>2024-07-02T11:49:00Z</time>
      </trkpt>
      <trkpt lat="44.85834" lon="5.26655">
        <ele>1438.6</ele>
        <time>2024-07-02T11:49:01Z</time>
      </trkpt>
      <trkpt lat="44.85834" lon="5.26655">
        <ele>1438.6</ele>
        <time>2024-07-02T11:49:02Z</time>
      </trkpt>
      <trkpt lat="44.85834" lon="5.26655">
        <ele>1438.6</ele>
        <time>2024-07-02T11:49:03Z</time>
      </trkpt>
      <trkpt lat="44.85834" lon="5.26655">
        <ele>1438.6</ele>
        <time>2024-07-02T11:49:04Z</time>
      </trkpt>
      <trkpt lat="44.85834" lon="5.26655">
        <ele>1438.6</ele>
        <time>2024-07-02T11:49:05Z</time>
      </trkpt>
      <trkpt lat="44.85834" lon="5.26655">
        <ele>1438.6</ele>
        <time>2024-07-02T11:49:06Z</time>
      </trkpt>
      <trkpt lat="44.85834" lon="5.26655">
        <ele>1438.6</ele>
        <time>2024-07-02T11:49:07Z</time>
      </trkpt>
      <trkpt lat="44.85834" lon="5.26655">
        <ele>1438.6</ele>
        <time>2024-07-02T11:49:09Z</time>
      </trkpt>
      <trkpt lat="44.8585" lon="5.26651">
        <ele>1437.1</ele>
        <time>2024-07-02T11:49:55Z</time>
      </trkpt>
      <trkpt lat="44.85851" lon="5.2665">
        <ele>1437</ele>
        <time>2024-07-02T11:49:56Z</time>
      </trkpt>
      <trkpt lat="44.85851" lon="5.26649">
        <ele>1436.9</ele>
        <time>2024-07-02T11:49:57Z</time>
      </trkpt>
      <trkpt lat="44.85851" lon="5.26648">
        <ele>1436.9</ele>
        <time>2024-07-02T11:49:58Z</time>
      </trkpt>
      <trkpt lat="44.85851" lon="5.26648">
        <ele>1436.8</ele>
        <time>2024-07-02T11:49:59Z</time>
      </trkpt>
      <trkpt lat="44.85853" lon="5.26648">
        <ele>1436.6</ele>
        <time>2024-07-02T11:50:00Z</time>
      </trkpt>
      <trkpt lat="44.85853" lon="5.26648">
        <ele>1436.5</ele>
        <time>2024-07-02T11:50:01Z</time>
      </trkpt>
      <trkpt lat="44.85854" lon="5.26648">
        <ele>1436.5</ele>
        <time>2024-07-02T11:50:02Z</time>
      </trkpt>
      <trkpt lat="44.85855" lon="5.26648">
        <ele>1436.4</ele>
        <time>2024-07-02T11:50:03Z</time>
      </trkpt>
      <trkpt lat="44.85856" lon="5.26646">
        <ele>1436.1</ele>
        <time>2024-07-02T11:50:04Z</time>
      </trkpt>
      <trkpt lat="44.85857" lon="5.26646">
        <ele>1436</ele>
        <time>2024-07-02T11:50:05Z</time>
      </trkpt>
      <trkpt lat="44.85857" lon="5.26645">
        <ele>1435.9</ele>
        <time>2024-07-02T11:50:06Z</time>
      </trkpt>
      <trkpt lat="44.85858" lon="5.26644">
        <ele>1435.8</ele>
        <time>2024-07-02T11:50:07Z</time>
      </trkpt>
      <trkpt lat="44.85859" lon="5.26642">
        <ele>1435.6</ele>
        <time>2024-07-02T11:50:08Z</time>
      </trkpt>
      <trkpt lat="44.8586" lon="5.26641">
        <ele>1435.5</ele>
        <time>2024-07-02T11:50:09Z</time>
      </trkpt>
      <trkpt lat="44.8586" lon="5.26639">
        <ele>1435.3</ele>
        <time>2024-07-02T11:50:10Z</time>
      </trkpt>
      <trkpt lat="44.8586" lon="5.26638">
        <ele>1435.2</ele>
        <time>2024-07-02T11:50:11Z</time>
      </trkpt>
      <trkpt lat="44.85861" lon="5.26636">
        <ele>1435</ele>
        <time>2024-07-02T11:50:12Z</time>
      </trkpt>
      <trkpt lat="44.85862" lon="5.26635">
        <ele>1434.8</ele>
        <time>2024-07-02T11:50:13Z</time>
      </trkpt>
      <trkpt lat="44.85862" lon="5.26635">
        <ele>1434.7</ele>
        <time>2024-07-02T11:50:14Z</time>
      </trkpt>
      <trkpt lat="44.85863" lon="5.26634">
        <ele>1434.6</ele>
        <time>2024-07-02T11:50:15Z</time>
      </trkpt>
      <trkpt lat="44.85864" lon="5.26632">
        <ele>1434.5</ele>
        <time>2024-07-02T11:50:16Z</time>
      </trkpt>
      <trkpt lat="44.85864" lon="5.26631">
        <ele>1434.3</ele>
        <time>2024-07-02T11:50:17Z</time>
      </trkpt>
      <trkpt lat="44.85865" lon="5.2663">
        <ele>1434.2</ele>
        <time>2024-07-02T11:50:18Z</time>
      </trkpt>
      <trkpt lat="44.85866" lon="5.26629">
        <ele>1434</ele>
        <time>2024-07-02T11:50:19Z</time>
      </trkpt>
      <trkpt lat="44.85866" lon="5.26627">
        <ele>1433.8</ele>
        <time>2024-07-02T11:50:20Z</time>
      </trkpt>
      <trkpt lat="44.85867" lon="5.26626">
        <ele>1433.7</ele>
        <time>2024-07-02T11:50:21Z</time>
      </trkpt>
      <trkpt lat="44.85868" lon="5.26625">
        <ele>1433.5</ele>
        <time>2024-07-02T11:50:22Z</time>
      </trkpt>
      <trkpt lat="44.85869" lon="5.26624">
        <ele>1433.4</ele>
        <time>2024-07-02T11:50:23Z</time>
      </trkpt>
      <trkpt lat="44.85869" lon="5.26623">
        <ele>1433.2</ele>
        <time>2024-07-02T11:50:24Z</time>
      </trkpt>
      <trkpt lat="44.8587" lon="5.26622">
        <ele>1433.1</ele>
        <time>2024-07-02T11:50:25Z</time>
      </trkpt>
      <trkpt lat="44.8587" lon="5.26621">
        <ele>1432.9</ele>
        <time>2024-07-02T11:50:26Z</time>
      </trkpt>
      <trkpt lat="44.8587" lon="5.26619">
        <ele>1432.8</ele>
        <time>2024-07-02T11:50:27Z</time>
      </trkpt>
      <trkpt lat="44.85869" lon="5.26618">
        <ele>1432.6</ele>
        <time>2024-07-02T11:50:28Z</time>
      </trkpt>
      <trkpt lat="44.85869" lon="5.26617">
        <ele>1432.5</ele>
        <time>2024-07-02T11:50:29Z</time>
      </trkpt>
      <trkpt lat="44.85869" lon="5.26615">
        <ele>1432.4</ele>
        <time>2024-07-02T11:50:30Z</time>
      </trkpt>
      <trkpt lat="44.85869" lon="5.26614">
        <ele>1432.2</ele>
        <time>2024-07-02T11:50:31Z</time>
      </trkpt>
      <trkpt lat="44.85869" lon="5.26612">
        <ele>1432</ele>
        <time>2024-07-02T11:50:32Z</time>
      </trkpt>
      <trkpt lat="44.85869" lon="5.26611">
        <ele>1431.9</ele>
        <time>2024-07-02T11:50:33Z</time>
      </trkpt>
      <trkpt lat="44.85869" lon="5.2661">
        <ele>1431.8</ele>
        <time>2024-07-02T11:50:34Z</time>
      </trkpt>
      <trkpt lat="44.85869" lon="5.26609">
        <ele>1431.7</ele>
        <time>2024-07-02T11:50:35Z</time>
      </trkpt>
      <trkpt lat="44.85869" lon="5.26608">
        <ele>1431.6</ele>
        <time>2024-07-02T11:50:36Z</time>
      </trkpt>
      <trkpt lat="44.85869" lon="5.26607">
        <ele>1431.5</ele>
        <time>2024-07-02T11:50:37Z</time>
      </trkpt>
      <trkpt lat="44.85869" lon="5.26605">
        <ele>1431.3</ele>
        <time>2024-07-02T11:50:38Z</time>
      </trkpt>
      <trkpt lat="44.85869" lon="5.26604">
        <ele>1431.2</ele>
        <time>2024-07-02T11:50:39Z</time>
      </trkpt>
      <trkpt lat="44.8587" lon="5.26603">
        <ele>1431</ele>
        <time>2024-07-02T11:50:40Z</time>
      </trkpt>
      <trkpt lat="44.85871" lon="5.26602">
        <ele>1430.9</ele>
        <time>2024-07-02T11:50:41Z</time>
      </trkpt>
      <trkpt lat="44.85871" lon="5.26601">
        <ele>1430.8</ele>
        <time>2024-07-02T11:50:42Z</time>
      </trkpt>
      <trkpt lat="44.85872" lon="5.26598">
        <ele>1430.5</ele>
        <time>2024-07-02T11:50:43Z</time>
      </trkpt>
      <trkpt lat="44.85871" lon="5.26598">
        <ele>1430.4</ele>
        <time>2024-07-02T11:50:44Z</time>
      </trkpt>
      <trkpt lat="44.85872" lon="5.26596">
        <ele>1430.3</ele>
        <time>2024-07-02T11:50:45Z</time>
      </trkpt>
      <trkpt lat="44.85872" lon="5.26595">
        <ele>1430.2</ele>
        <time>2024-07-02T11:50:46Z</time>
      </trkpt>
      <trkpt lat="44.85871" lon="5.26594">
        <ele>1430</ele>
        <time>2024-07-02T11:50:47Z</time>
      </trkpt>
      <trkpt lat="44.8587" lon="5.26593">
        <ele>1429.8</ele>
        <time>2024-07-02T11:50:48Z</time>
      </trkpt>
      <trkpt lat="44.8587" lon="5.26591">
        <ele>1429.7</ele>
        <time>2024-07-02T11:50:49Z</time>
      </trkpt>
      <trkpt lat="44.8587" lon="5.2659">
        <ele>1429.5</ele>
        <time>2024-07-02T11:50:50Z</time>
      </trkpt>
      <trkpt lat="44.85869" lon="5.26588">
        <ele>1429.4</ele>
        <time>2024-07-02T11:50:51Z</time>
      </trkpt>
      <trkpt lat="44.85869" lon="5.26587">
        <ele>1429.2</ele>
        <time>2024-07-02T11:50:52Z</time>
      </trkpt>
      <trkpt lat="44.85869" lon="5.26585">
        <ele>1429</ele>
        <time>2024-07-02T11:50:53Z</time>
      </trkpt>
      <trkpt lat="44.85868" lon="5.26584">
        <ele>1428.8</ele>
        <time>2024-07-02T11:50:54Z</time>
      </trkpt>
      <trkpt lat="44.85868" lon="5.26582">
        <ele>1428.7</ele>
        <time>2024-07-02T11:50:55Z</time>
      </trkpt>
      <trkpt lat="44.85867" lon="5.26581">
        <ele>1428.5</ele>
        <time>2024-07-02T11:50:56Z</time>
      </trkpt>
      <trkpt lat="44.85867" lon="5.2658">
        <ele>1428.4</ele>
        <time>2024-07-02T11:50:57Z</time>
      </trkpt>
      <trkpt lat="44.85866" lon="5.26578">
        <ele>1428.2</ele>
        <time>2024-07-02T11:50:58Z</time>
      </trkpt>
      <trkpt lat="44.85866" lon="5.26577">
        <ele>1428.1</ele>
        <time>2024-07-02T11:50:59Z</time>
      </trkpt>
      <trkpt lat="44.85865" lon="5.26576">
        <ele>1427.9</ele>
        <time>2024-07-02T11:51:00Z</time>
      </trkpt>
      <trkpt lat="44.85865" lon="5.26575">
        <ele>1427.8</ele>
        <time>2024-07-02T11:51:01Z</time>
      </trkpt>
      <trkpt lat="44.85865" lon="5.26574">
        <ele>1427.7</ele>
        <time>2024-07-02T11:51:02Z</time>
      </trkpt>
      <trkpt lat="44.85864" lon="5.26572">
        <ele>1427.5</ele>
        <time>2024-07-02T11:51:03Z</time>
      </trkpt>
      <trkpt lat="44.85863" lon="5.26571">
        <ele>1427.4</ele>
        <time>2024-07-02T11:51:04Z</time>
      </trkpt>
      <trkpt lat="44.85863" lon="5.2657">
        <ele>1427.2</ele>
        <time>2024-07-02T11:51:05Z</time>
      </trkpt>
      <trkpt lat="44.85863" lon="5.26568">
        <ele>1427</ele>
        <time>2024-07-02T11:51:06Z</time>
      </trkpt>
      <trkpt lat="44.85863" lon="5.26567">
        <ele>1426.9</ele>
        <time>2024-07-02T11:51:07Z</time>
      </trkpt>
      <trkpt lat="44.85862" lon="5.26565">
        <ele>1426.7</ele>
        <time>2024-07-02T11:51:08Z</time>
      </trkpt>
      <trkpt lat="44.85861" lon="5.26564">
        <ele>1426.6</ele>
        <time>2024-07-02T11:51:09Z</time>
      </trkpt>
      <trkpt lat="44.85861" lon="5.26563">
        <ele>1426.4</ele>
        <time>2024-07-02T11:51:10Z</time>
      </trkpt>
      <trkpt lat="44.8586" lon="5.26562">
        <ele>1426.3</ele>
        <time>2024-07-02T11:51:11Z</time>
      </trkpt>
      <trkpt lat="44.8586" lon="5.2656">
        <ele>1426.1</ele>
        <time>2024-07-02T11:51:12Z</time>
      </trkpt>
      <trkpt lat="44.8586" lon="5.26559">
        <ele>1426</ele>
        <time>2024-07-02T11:51:13Z</time>
      </trkpt>
      <trkpt lat="44.85859" lon="5.26558">
        <ele>1425.9</ele>
        <time>2024-07-02T11:51:14Z</time>
      </trkpt>
      <trkpt lat="44.85859" lon="5.26556">
        <ele>1425.7</ele>
        <time>2024-07-02T11:51:15Z</time>
      </trkpt>
      <trkpt lat="44.85858" lon="5.26555">
        <ele>1425.5</ele>
        <time>2024-07-02T11:51:16Z</time>
      </trkpt>
      <trkpt lat="44.85857" lon="5.26554">
        <ele>1425.4</ele>
        <time>2024-07-02T11:51:17Z</time>
      </trkpt>
      <trkpt lat="44.85857" lon="5.26552">
        <ele>1425.2</ele>
        <time>2024-07-02T11:51:18Z</time>
      </trkpt>
      <trkpt lat="44.85856" lon="5.26551">
        <ele>1425.1</ele>
        <time>2024-07-02T11:51:19Z</time>
      </trkpt>
      <trkpt lat="44.85855" lon="5.2655">
        <ele>1424.9</ele>
        <time>2024-07-02T11:51:20Z</time>
      </trkpt>
      <trkpt lat="44.85854" lon="5.26549">
        <ele>1424.7</ele>
        <time>2024-07-02T11:51:21Z</time>
      </trkpt>
      <trkpt lat="44.85853" lon="5.26548">
        <ele>1424.6</ele>
        <time>2024-07-02T11:51:22Z</time>
      </trkpt>
      <trkpt lat="44.85852" lon="5.26547">
        <ele>1424.4</ele>
        <time>2024-07-02T11:51:23Z</time>
      </trkpt>
      <trkpt lat="44.85851" lon="5.26547">
        <ele>1424.3</ele>
        <time>2024-07-02T11:51:24Z</time>
      </trkpt>
      <trkpt lat="44.8585" lon="5.26546">
        <ele>1424.1</ele>
        <time>2024-07-02T11:51:25Z</time>
      </trkpt>
      <trkpt lat="44.85849" lon="5.26545">
        <ele>1424</ele>
        <time>2024-07-02T11:51:26Z</time>
      </trkpt>
      <trkpt lat="44.85848" lon="5.26544">
        <ele>1423.8</ele>
        <time>2024-07-02T11:51:27Z</time>
      </trkpt>
      <trkpt lat="44.85847" lon="5.26543">
        <ele>1423.7</ele>
        <time>2024-07-02T11:51:28Z</time>
      </trkpt>
      <trkpt lat="44.85847" lon="5.26542">
        <ele>1423.5</ele>
        <time>2024-07-02T11:51:29Z</time>
      </trkpt>
      <trkpt lat="44.85846" lon="5.2654">
        <ele>1423.4</ele>
        <time>2024-07-02T11:51:30Z</time>
      </trkpt>
      <trkpt lat="44.85845" lon="5.26538">
        <ele>1423.1</ele>
        <time>2024-07-02T11:51:31Z</time>
      </trkpt>
      <trkpt lat="44.85845" lon="5.26537">
        <ele>1423</ele>
        <time>2024-07-02T11:51:32Z</time>
      </trkpt>
      <trkpt lat="44.85844" lon="5.26536">
        <ele>1422.9</ele>
        <time>2024-07-02T11:51:33Z</time>
      </trkpt>
      <trkpt lat="44.85842" lon="5.26534">
        <ele>1422.6</ele>
        <time>2024-07-02T11:51:34Z</time>
      </trkpt>
      <trkpt lat="44.85842" lon="5.26534">
        <ele>1422.6</ele>
        <time>2024-07-02T11:51:35Z</time>
      </trkpt>
      <trkpt lat="44.85841" lon="5.26534">
        <ele>1422.5</ele>
        <time>2024-07-02T11:51:36Z</time>
      </trkpt>
      <trkpt lat="44.85839" lon="5.26532">
        <ele>1422.2</ele>
        <time>2024-07-02T11:51:37Z</time>
      </trkpt>
      <trkpt lat="44.85839" lon="5.26531">
        <ele>1422.1</ele>
        <time>2024-07-02T11:51:38Z</time>
      </trkpt>
      <trkpt lat="44.85838" lon="5.2653">
        <ele>1422</ele>
        <time>2024-07-02T11:51:39Z</time>
      </trkpt>
      <trkpt lat="44.85837" lon="5.26529">
        <ele>1421.9</ele>
        <time>2024-07-02T11:51:40Z</time>
      </trkpt>
      <trkpt lat="44.85837" lon="5.26528">
        <ele>1421.7</ele>
        <time>2024-07-02T11:51:41Z</time>
      </trkpt>
      <trkpt lat="44.85836" lon="5.26527">
        <ele>1421.6</ele>
        <time>2024-07-02T11:51:42Z</time>
      </trkpt>
      <trkpt lat="44.85835" lon="5.26526">
        <ele>1421.5</ele>
        <time>2024-07-02T11:51:43Z</time>
      </trkpt>
      <trkpt lat="44.85834" lon="5.26525">
        <ele>1421.4</ele>
        <time>2024-07-02T11:51:44Z</time>
      </trkpt>
      <trkpt lat="44.85834" lon="5.26524">
        <ele>1421.3</ele>
        <time>2024-07-02T11:51:45Z</time>
      </trkpt>
      <trkpt lat="44.85833" lon="5.26523">
        <ele>1421.2</ele>
        <time>2024-07-02T11:51:46Z</time>
      </trkpt>
      <trkpt lat="44.85832" lon="5.26521">
        <ele>1421</ele>
        <time>2024-07-02T11:51:47Z</time>
      </trkpt>
      <trkpt lat="44.85831" lon="5.2652">
        <ele>1420.9</ele>
        <time>2024-07-02T11:51:48Z</time>
      </trkpt>
      <trkpt lat="44.8583" lon="5.26519">
        <ele>1420.8</ele>
        <time>2024-07-02T11:51:49Z</time>
      </trkpt>
      <trkpt lat="44.8583" lon="5.26518">
        <ele>1420.6</ele>
        <time>2024-07-02T11:51:50Z</time>
      </trkpt>
      <trkpt lat="44.85829" lon="5.26517">
        <ele>1420.5</ele>
        <time>2024-07-02T11:51:51Z</time>
      </trkpt>
      <trkpt lat="44.85828" lon="5.26516">
        <ele>1420.4</ele>
        <time>2024-07-02T11:51:52Z</time>
      </trkpt>
      <trkpt lat="44.85827" lon="5.26516">
        <ele>1420.3</ele>
        <time>2024-07-02T11:51:53Z</time>
      </trkpt>
      <trkpt lat="44.85825" lon="5.26516">
        <ele>1420.1</ele>
        <time>2024-07-02T11:51:54Z</time>
      </trkpt>
      <trkpt lat="44.85825" lon="5.26515">
        <ele>1420.1</ele>
        <time>2024-07-02T11:51:55Z</time>
      </trkpt>
      <trkpt lat="44.85824" lon="5.26514">
        <ele>1419.9</ele>
        <time>2024-07-02T11:51:56Z</time>
      </trkpt>
      <trkpt lat="44.85823" lon="5.26513">
        <ele>1419.8</ele>
        <time>2024-07-02T11:51:57Z</time>
      </trkpt>
      <trkpt lat="44.85822" lon="5.26512">
        <ele>1419.7</ele>
        <time>2024-07-02T11:51:58Z</time>
      </trkpt>
      <trkpt lat="44.85822" lon="5.26509">
        <ele>1419.5</ele>
        <time>2024-07-02T11:51:59Z</time>
      </trkpt>
      <trkpt lat="44.85821" lon="5.26509">
        <ele>1419.4</ele>
        <time>2024-07-02T11:52:00Z</time>
      </trkpt>
      <trkpt lat="44.8582" lon="5.26508">
        <ele>1419.3</ele>
        <time>2024-07-02T11:52:01Z</time>
      </trkpt>
      <trkpt lat="44.85819" lon="5.26507">
        <ele>1419.2</ele>
        <time>2024-07-02T11:52:02Z</time>
      </trkpt>
      <trkpt lat="44.85818" lon="5.26507">
        <ele>1419.1</ele>
        <time>2024-07-02T11:52:03Z</time>
      </trkpt>
      <trkpt lat="44.85817" lon="5.26505">
        <ele>1419</ele>
        <time>2024-07-02T11:52:04Z</time>
      </trkpt>
      <trkpt lat="44.85817" lon="5.26504">
        <ele>1418.9</ele>
        <time>2024-07-02T11:52:05Z</time>
      </trkpt>
      <trkpt lat="44.85816" lon="5.26504">
        <ele>1418.8</ele>
        <time>2024-07-02T11:52:06Z</time>
      </trkpt>
      <trkpt lat="44.85815" lon="5.26505">
        <ele>1418.7</ele>
        <time>2024-07-02T11:52:07Z</time>
      </trkpt>
      <trkpt lat="44.85814" lon="5.26505">
        <ele>1418.5</ele>
        <time>2024-07-02T11:52:08Z</time>
      </trkpt>
      <trkpt lat="44.85813" lon="5.26505">
        <ele>1418.4</ele>
        <time>2024-07-02T11:52:09Z</time>
      </trkpt>
      <trkpt lat="44.85811" lon="5.26504">
        <ele>1418.3</ele>
        <time>2024-07-02T11:52:10Z</time>
      </trkpt>
      <trkpt lat="44.85809" lon="5.26502">
        <ele>1418</ele>
        <time>2024-07-02T11:52:11Z</time>
      </trkpt>
      <trkpt lat="44.85809" lon="5.26501">
        <ele>1417.9</ele>
        <time>2024-07-02T11:52:12Z</time>
      </trkpt>
      <trkpt lat="44.85809" lon="5.265">
        <ele>1417.8</ele>
        <time>2024-07-02T11:52:13Z</time>
      </trkpt>
      <trkpt lat="44.85808" lon="5.26499">
        <ele>1417.7</ele>
        <time>2024-07-02T11:52:14Z</time>
      </trkpt>
      <trkpt lat="44.85808" lon="5.26498">
        <ele>1417.6</ele>
        <time>2024-07-02T11:52:15Z</time>
      </trkpt>
      <trkpt lat="44.85807" lon="5.26497">
        <ele>1417.5</ele>
        <time>2024-07-02T11:52:16Z</time>
      </trkpt>
      <trkpt lat="44.85805" lon="5.26496">
        <ele>1417.2</ele>
        <time>2024-07-02T11:52:17Z</time>
      </trkpt>
      <trkpt lat="44.85804" lon="5.26495">
        <ele>1417.1</ele>
        <time>2024-07-02T11:52:18Z</time>
      </trkpt>
      <trkpt lat="44.85803" lon="5.26494">
        <ele>1417</ele>
        <time>2024-07-02T11:52:19Z</time>
      </trkpt>
      <trkpt lat="44.85803" lon="5.26491">
        <ele>1416.8</ele>
        <time>2024-07-02T11:52:20Z</time>
      </trkpt>
      <trkpt lat="44.85802" lon="5.2649">
        <ele>1416.6</ele>
        <time>2024-07-02T11:52:21Z</time>
      </trkpt>
      <trkpt lat="44.85802" lon="5.26488">
        <ele>1416.5</ele>
        <time>2024-07-02T11:52:22Z</time>
      </trkpt>
      <trkpt lat="44.85802" lon="5.26487">
        <ele>1416.4</ele>
        <time>2024-07-02T11:52:23Z</time>
      </trkpt>
      <trkpt lat="44.858" lon="5.26487">
        <ele>1416.2</ele>
        <time>2024-07-02T11:52:24Z</time>
      </trkpt>
      <trkpt lat="44.85799" lon="5.26486">
        <ele>1416.1</ele>
        <time>2024-07-02T11:52:25Z</time>
      </trkpt>
      <trkpt lat="44.85799" lon="5.26485">
        <ele>1416</ele>
        <time>2024-07-02T11:52:26Z</time>
      </trkpt>
      <trkpt lat="44.85798" lon="5.26483">
        <ele>1415.8</ele>
        <time>2024-07-02T11:52:27Z</time>
      </trkpt>
      <trkpt lat="44.85797" lon="5.26482">
        <ele>1415.7</ele>
        <time>2024-07-02T11:52:28Z</time>
      </trkpt>
      <trkpt lat="44.85797" lon="5.26481">
        <ele>1415.6</ele>
        <time>2024-07-02T11:52:29Z</time>
      </trkpt>
      <trkpt lat="44.85796" lon="5.2648">
        <ele>1415.4</ele>
        <time>2024-07-02T11:52:30Z</time>
      </trkpt>
      <trkpt lat="44.85795" lon="5.26479">
        <ele>1415.3</ele>
        <time>2024-07-02T11:52:31Z</time>
      </trkpt>
      <trkpt lat="44.85794" lon="5.26476">
        <ele>1415</ele>
        <time>2024-07-02T11:52:32Z</time>
      </trkpt>
      <trkpt lat="44.85793" lon="5.26475">
        <ele>1414.9</ele>
        <time>2024-07-02T11:52:33Z</time>
      </trkpt>
      <trkpt lat="44.85793" lon="5.26475">
        <ele>1414.8</ele>
        <time>2024-07-02T11:52:34Z</time>
      </trkpt>
      <trkpt lat="44.85791" lon="5.26473">
        <ele>1414.5</ele>
        <time>2024-07-02T11:52:35Z</time>
      </trkpt>
      <trkpt lat="44.85791" lon="5.26472">
        <ele>1414.4</ele>
        <time>2024-07-02T11:52:36Z</time>
      </trkpt>
      <trkpt lat="44.8579" lon="5.26471">
        <ele>1414.3</ele>
        <time>2024-07-02T11:52:37Z</time>
      </trkpt>
      <trkpt lat="44.8579" lon="5.2647">
        <ele>1414.2</ele>
        <time>2024-07-02T11:52:38Z</time>
      </trkpt>
      <trkpt lat="44.85789" lon="5.26469">
        <ele>1414.1</ele>
        <time>2024-07-02T11:52:39Z</time>
      </trkpt>
      <trkpt lat="44.85788" lon="5.26468">
        <ele>1413.9</ele>
        <time>2024-07-02T11:52:40Z</time>
      </trkpt>
      <trkpt lat="44.85787" lon="5.26467">
        <ele>1413.8</ele>
        <time>2024-07-02T11:52:41Z</time>
      </trkpt>
      <trkpt lat="44.85786" lon="5.26467">
        <ele>1413.6</ele>
        <time>2024-07-02T11:52:42Z</time>
      </trkpt>
      <trkpt lat="44.85785" lon="5.26466">
        <ele>1413.5</ele>
        <time>2024-07-02T11:52:43Z</time>
      </trkpt>
      <trkpt lat="44.85785" lon="5.26464">
        <ele>1413.3</ele>
        <time>2024-07-02T11:52:44Z</time>
      </trkpt>
      <trkpt lat="44.85784" lon="5.26462">
        <ele>1413.2</ele>
        <time>2024-07-02T11:52:45Z</time>
      </trkpt>
      <trkpt lat="44.85783" lon="5.26462">
        <ele>1413</ele>
        <time>2024-07-02T11:52:46Z</time>
      </trkpt>
      <trkpt lat="44.85782" lon="5.2646">
        <ele>1412.8</ele>
        <time>2024-07-02T11:52:47Z</time>
      </trkpt>
      <trkpt lat="44.85781" lon="5.26459">
        <ele>1412.7</ele>
        <time>2024-07-02T11:52:48Z</time>
      </trkpt>
      <trkpt lat="44.8578" lon="5.26458">
        <ele>1412.5</ele>
        <time>2024-07-02T11:52:49Z</time>
      </trkpt>
      <trkpt lat="44.85779" lon="5.26456">
        <ele>1412.3</ele>
        <time>2024-07-02T11:52:50Z</time>
      </trkpt>
      <trkpt lat="44.85778" lon="5.26455">
        <ele>1412.1</ele>
        <time>2024-07-02T11:52:51Z</time>
      </trkpt>
      <trkpt lat="44.85777" lon="5.26454">
        <ele>1412</ele>
        <time>2024-07-02T11:52:52Z</time>
      </trkpt>
      <trkpt lat="44.85777" lon="5.26454">
        <ele>1411.9</ele>
        <time>2024-07-02T11:52:53Z</time>
      </trkpt>
      <trkpt lat="44.85775" lon="5.26453">
        <ele>1411.7</ele>
        <time>2024-07-02T11:52:54Z</time>
      </trkpt>
      <trkpt lat="44.85774" lon="5.26452">
        <ele>1411.6</ele>
        <time>2024-07-02T11:52:55Z</time>
      </trkpt>
      <trkpt lat="44.85773" lon="5.2645">
        <ele>1411.4</ele>
        <time>2024-07-02T11:52:56Z</time>
      </trkpt>
      <trkpt lat="44.85772" lon="5.26449">
        <ele>1411.2</ele>
        <time>2024-07-02T11:52:57Z</time>
      </trkpt>
      <trkpt lat="44.85771" lon="5.26448">
        <ele>1411</ele>
        <time>2024-07-02T11:52:58Z</time>
      </trkpt>
      <trkpt lat="44.85771" lon="5.26446">
        <ele>1410.9</ele>
        <time>2024-07-02T11:52:59Z</time>
      </trkpt>
      <trkpt lat="44.8577" lon="5.26445">
        <ele>1410.7</ele>
        <time>2024-07-02T11:53:00Z</time>
      </trkpt>
      <trkpt lat="44.85769" lon="5.26444">
        <ele>1410.6</ele>
        <time>2024-07-02T11:53:01Z</time>
      </trkpt>
      <trkpt lat="44.85767" lon="5.26443">
        <ele>1410.3</ele>
        <time>2024-07-02T11:53:02Z</time>
      </trkpt>
      <trkpt lat="44.85767" lon="5.26442">
        <ele>1410.2</ele>
        <time>2024-07-02T11:53:03Z</time>
      </trkpt>
      <trkpt lat="44.85766" lon="5.26441">
        <ele>1410.1</ele>
        <time>2024-07-02T11:53:04Z</time>
      </trkpt>
      <trkpt lat="44.85765" lon="5.2644">
        <ele>1409.9</ele>
        <time>2024-07-02T11:53:05Z</time>
      </trkpt>
      <trkpt lat="44.85763" lon="5.26438">
        <ele>1409.7</ele>
        <time>2024-07-02T11:53:06Z</time>
      </trkpt>
      <trkpt lat="44.85763" lon="5.26437">
        <ele>1409.6</ele>
        <time>2024-07-02T11:53:07Z</time>
      </trkpt>
      <trkpt lat="44.85762" lon="5.26436">
        <ele>1409.5</ele>
        <time>2024-07-02T11:53:08Z</time>
      </trkpt>
      <trkpt lat="44.85761" lon="5.26435">
        <ele>1409.3</ele>
        <time>2024-07-02T11:53:09Z</time>
      </trkpt>
      <trkpt lat="44.8576" lon="5.26435">
        <ele>1409.2</ele>
        <time>2024-07-02T11:53:10Z</time>
      </trkpt>
      <trkpt lat="44.85759" lon="5.26435">
        <ele>1409</ele>
        <time>2024-07-02T11:53:11Z</time>
      </trkpt>
      <trkpt lat="44.85757" lon="5.26435">
        <ele>1408.8</ele>
        <time>2024-07-02T11:53:12Z</time>
      </trkpt>
      <trkpt lat="44.85756" lon="5.26434">
        <ele>1408.7</ele>
        <time>2024-07-02T11:53:13Z</time>
      </trkpt>
      <trkpt lat="44.85755" lon="5.26433">
        <ele>1408.6</ele>
        <time>2024-07-02T11:53:14Z</time>
      </trkpt>
      <trkpt lat="44.85754" lon="5.26433">
        <ele>1408.4</ele>
        <time>2024-07-02T11:53:15Z</time>
      </trkpt>
      <trkpt lat="44.85754" lon="5.26432">
        <ele>1408.3</ele>
        <time>2024-07-02T11:53:16Z</time>
      </trkpt>
      <trkpt lat="44.85755" lon="5.26429">
        <ele>1408.1</ele>
        <time>2024-07-02T11:53:17Z</time>
      </trkpt>
      <trkpt lat="44.85755" lon="5.26429">
        <ele>1408</ele>
        <time>2024-07-02T11:53:18Z</time>
      </trkpt>
      <trkpt lat="44.85754" lon="5.26427">
        <ele>1407.8</ele>
        <time>2024-07-02T11:53:19Z</time>
      </trkpt>
      <trkpt lat="44.85753" lon="5.26425">
        <ele>1407.6</ele>
        <time>2024-07-02T11:53:20Z</time>
      </trkpt>
      <trkpt lat="44.85753" lon="5.26422">
        <ele>1407.4</ele>
        <time>2024-07-02T11:53:21Z</time>
      </trkpt>
      <trkpt lat="44.85752" lon="5.26421">
        <ele>1407.2</ele>
        <time>2024-07-02T11:53:22Z</time>
      </trkpt>
      <trkpt lat="44.85751" lon="5.26419">
        <ele>1407.1</ele>
        <time>2024-07-02T11:53:23Z</time>
      </trkpt>
      <trkpt lat="44.85751" lon="5.26418">
        <ele>1407</ele>
        <time>2024-07-02T11:53:24Z</time>
      </trkpt>
      <trkpt lat="44.8575" lon="5.26417">
        <ele>1406.8</ele>
        <time>2024-07-02T11:53:25Z</time>
      </trkpt>
      <trkpt lat="44.85749" lon="5.26417">
        <ele>1406.7</ele>
        <time>2024-07-02T11:53:26Z</time>
      </trkpt>
      <trkpt lat="44.85748" lon="5.26416">
        <ele>1406.6</ele>
        <time>2024-07-02T11:53:27Z</time>
      </trkpt>
      <trkpt lat="44.85747" lon="5.26416">
        <ele>1406.4</ele>
        <time>2024-07-02T11:53:28Z</time>
      </trkpt>
      <trkpt lat="44.85746" lon="5.26417">
        <ele>1406.3</ele>
        <time>2024-07-02T11:53:29Z</time>
      </trkpt>
      <trkpt lat="44.85745" lon="5.26417">
        <ele>1406.2</ele>
        <time>2024-07-02T11:53:30Z</time>
      </trkpt>
      <trkpt lat="44.85744" lon="5.26418">
        <ele>1406.1</ele>
        <time>2024-07-02T11:53:31Z</time>
      </trkpt>
      <trkpt lat="44.85742" lon="5.26417">
        <ele>1405.9</ele>
        <time>2024-07-02T11:53:32Z</time>
      </trkpt>
      <trkpt lat="44.85742" lon="5.26416">
        <ele>1405.8</ele>
        <time>2024-07-02T11:53:33Z</time>
      </trkpt>
      <trkpt lat="44.85741" lon="5.26416">
        <ele>1405.7</ele>
        <time>2024-07-02T11:53:34Z</time>
      </trkpt>
      <trkpt lat="44.8574" lon="5.26415">
        <ele>1405.6</ele>
        <time>2024-07-02T11:53:35Z</time>
      </trkpt>
      <trkpt lat="44.85739" lon="5.26415">
        <ele>1405.5</ele>
        <time>2024-07-02T11:53:36Z</time>
      </trkpt>
      <trkpt lat="44.85738" lon="5.26415">
        <ele>1405.4</ele>
        <time>2024-07-02T11:53:37Z</time>
      </trkpt>
      <trkpt lat="44.85737" lon="5.26415">
        <ele>1405.3</ele>
        <time>2024-07-02T11:53:38Z</time>
      </trkpt>
      <trkpt lat="44.85736" lon="5.26415">
        <ele>1405.2</ele>
        <time>2024-07-02T11:53:39Z</time>
      </trkpt>
      <trkpt lat="44.85736" lon="5.26415">
        <ele>1405.1</ele>
        <time>2024-07-02T11:53:40Z</time>
      </trkpt>
      <trkpt lat="44.85735" lon="5.26414">
        <ele>1405</ele>
        <time>2024-07-02T11:53:41Z</time>
      </trkpt>
      <trkpt lat="44.85735" lon="5.26413">
        <ele>1405</ele>
        <time>2024-07-02T11:53:42Z</time>
      </trkpt>
      <trkpt lat="44.85735" lon="5.26413">
        <ele>1404.9</ele>
        <time>2024-07-02T11:53:43Z</time>
      </trkpt>
      <trkpt lat="44.85735" lon="5.26412">
        <ele>1404.8</ele>
        <time>2024-07-02T11:53:44Z</time>
      </trkpt>
      <trkpt lat="44.85734" lon="5.26411">
        <ele>1404.7</ele>
        <time>2024-07-02T11:53:45Z</time>
      </trkpt>
      <trkpt lat="44.85734" lon="5.26411">
        <ele>1404.7</ele>
        <time>2024-07-02T11:53:46Z</time>
      </trkpt>
      <trkpt lat="44.85734" lon="5.2641">
        <ele>1404.6</ele>
        <time>2024-07-02T11:53:47Z</time>
      </trkpt>
      <trkpt lat="44.85733" lon="5.26409">
        <ele>1404.6</ele>
        <time>2024-07-02T11:53:48Z</time>
      </trkpt>
      <trkpt lat="44.85733" lon="5.26407">
        <ele>1404.4</ele>
        <time>2024-07-02T11:53:49Z</time>
      </trkpt>
      <trkpt lat="44.85732" lon="5.26406">
        <ele>1404.3</ele>
        <time>2024-07-02T11:53:50Z</time>
      </trkpt>
      <trkpt lat="44.8573" lon="5.26405">
        <ele>1404.2</ele>
        <time>2024-07-02T11:53:51Z</time>
      </trkpt>
      <trkpt lat="44.85729" lon="5.26404">
        <ele>1404</ele>
        <time>2024-07-02T11:53:52Z</time>
      </trkpt>
      <trkpt lat="44.85729" lon="5.26403">
        <ele>1403.9</ele>
        <time>2024-07-02T11:53:53Z</time>
      </trkpt>
      <trkpt lat="44.85729" lon="5.26402">
        <ele>1403.8</ele>
        <time>2024-07-02T11:53:54Z</time>
      </trkpt>
      <trkpt lat="44.85729" lon="5.264">
        <ele>1403.7</ele>
        <time>2024-07-02T11:53:55Z</time>
      </trkpt>
      <trkpt lat="44.85728" lon="5.26399">
        <ele>1403.6</ele>
        <time>2024-07-02T11:53:56Z</time>
      </trkpt>
      <trkpt lat="44.85728" lon="5.26396">
        <ele>1403.5</ele>
        <time>2024-07-02T11:53:57Z</time>
      </trkpt>
      <trkpt lat="44.85728" lon="5.26395">
        <ele>1403.4</ele>
        <time>2024-07-02T11:53:58Z</time>
      </trkpt>
      <trkpt lat="44.85728" lon="5.26393">
        <ele>1403.3</ele>
        <time>2024-07-02T11:53:59Z</time>
      </trkpt>
      <trkpt lat="44.85728" lon="5.26392">
        <ele>1403.2</ele>
        <time>2024-07-02T11:54:00Z</time>
      </trkpt>
      <trkpt lat="44.85728" lon="5.2639">
        <ele>1403.1</ele>
        <time>2024-07-02T11:54:01Z</time>
      </trkpt>
      <trkpt lat="44.85729" lon="5.26388">
        <ele>1402.9</ele>
        <time>2024-07-02T11:54:02Z</time>
      </trkpt>
      <trkpt lat="44.8573" lon="5.26386">
        <ele>1402.8</ele>
        <time>2024-07-02T11:54:03Z</time>
      </trkpt>
      <trkpt lat="44.85729" lon="5.26385">
        <ele>1402.7</ele>
        <time>2024-07-02T11:54:04Z</time>
      </trkpt>
      <trkpt lat="44.85729" lon="5.26383">
        <ele>1402.6</ele>
        <time>2024-07-02T11:54:05Z</time>
      </trkpt>
      <trkpt lat="44.85728" lon="5.26381">
        <ele>1402.4</ele>
        <time>2024-07-02T11:54:06Z</time>
      </trkpt>
      <trkpt lat="44.85728" lon="5.26379">
        <ele>1402.3</ele>
        <time>2024-07-02T11:54:07Z</time>
      </trkpt>
      <trkpt lat="44.85727" lon="5.26378">
        <ele>1402.2</ele>
        <time>2024-07-02T11:54:08Z</time>
      </trkpt>
      <trkpt lat="44.85727" lon="5.26376">
        <ele>1402.1</ele>
        <time>2024-07-02T11:54:09Z</time>
      </trkpt>
      <trkpt lat="44.85727" lon="5.26375">
        <ele>1402</ele>
        <time>2024-07-02T11:54:10Z</time>
      </trkpt>
      <trkpt lat="44.85726" lon="5.26373">
        <ele>1401.9</ele>
        <time>2024-07-02T11:54:11Z</time>
      </trkpt>
      <trkpt lat="44.85726" lon="5.26371">
        <ele>1401.8</ele>
        <time>2024-07-02T11:54:12Z</time>
      </trkpt>
      <trkpt lat="44.85726" lon="5.2637">
        <ele>1401.7</ele>
        <time>2024-07-02T11:54:13Z</time>
      </trkpt>
      <trkpt lat="44.85725" lon="5.26369">
        <ele>1401.6</ele>
        <time>2024-07-02T11:54:14Z</time>
      </trkpt>
      <trkpt lat="44.85725" lon="5.26367">
        <ele>1401.5</ele>
        <time>2024-07-02T11:54:15Z</time>
      </trkpt>
      <trkpt lat="44.85724" lon="5.26365">
        <ele>1401.4</ele>
        <time>2024-07-02T11:54:16Z</time>
      </trkpt>
      <trkpt lat="44.85724" lon="5.26363">
        <ele>1401.2</ele>
        <time>2024-07-02T11:54:17Z</time>
      </trkpt>
      <trkpt lat="44.85723" lon="5.26362">
        <ele>1401.1</ele>
        <time>2024-07-02T11:54:18Z</time>
      </trkpt>
      <trkpt lat="44.85723" lon="5.26361">
        <ele>1401.1</ele>
        <time>2024-07-02T11:54:19Z</time>
      </trkpt>
      <trkpt lat="44.85722" lon="5.2636">
        <ele>1401</ele>
        <time>2024-07-02T11:54:20Z</time>
      </trkpt>
      <trkpt lat="44.85722" lon="5.26359">
        <ele>1400.9</ele>
        <time>2024-07-02T11:54:21Z</time>
      </trkpt>
      <trkpt lat="44.85721" lon="5.26358">
        <ele>1400.8</ele>
        <time>2024-07-02T11:54:22Z</time>
      </trkpt>
      <trkpt lat="44.85721" lon="5.26357">
        <ele>1400.8</ele>
        <time>2024-07-02T11:54:23Z</time>
      </trkpt>
      <trkpt lat="44.8572" lon="5.26356">
        <ele>1400.7</ele>
        <time>2024-07-02T11:54:24Z</time>
      </trkpt>
      <trkpt lat="44.85719" lon="5.26356">
        <ele>1400.6</ele>
        <time>2024-07-02T11:54:25Z</time>
      </trkpt>
      <trkpt lat="44.85717" lon="5.26356">
        <ele>1400.5</ele>
        <time>2024-07-02T11:54:26Z</time>
      </trkpt>
      <trkpt lat="44.85717" lon="5.26358">
        <ele>1400.4</ele>
        <time>2024-07-02T11:54:27Z</time>
      </trkpt>
      <trkpt lat="44.85717" lon="5.26359">
        <ele>1400.3</ele>
        <time>2024-07-02T11:54:28Z</time>
      </trkpt>
      <trkpt lat="44.85717" lon="5.2636">
        <ele>1400.3</ele>
        <time>2024-07-02T11:54:29Z</time>
      </trkpt>
      <trkpt lat="44.85717" lon="5.26359">
        <ele>1400.2</ele>
        <time>2024-07-02T11:54:30Z</time>
      </trkpt>
      <trkpt lat="44.85718" lon="5.26358">
        <ele>1400.2</ele>
        <time>2024-07-02T11:54:31Z</time>
      </trkpt>
      <trkpt lat="44.85719" lon="5.26357">
        <ele>1400.1</ele>
        <time>2024-07-02T11:54:32Z</time>
      </trkpt>
      <trkpt lat="44.85718" lon="5.26356">
        <ele>1400.1</ele>
        <time>2024-07-02T11:54:33Z</time>
      </trkpt>
      <trkpt lat="44.85718" lon="5.26356">
        <ele>1400</ele>
        <time>2024-07-02T11:54:34Z</time>
      </trkpt>
      <trkpt lat="44.85717" lon="5.26355">
        <ele>1400</ele>
        <time>2024-07-02T11:54:35Z</time>
      </trkpt>
      <trkpt lat="44.85716" lon="5.26354">
        <ele>1399.9</ele>
        <time>2024-07-02T11:54:36Z</time>
      </trkpt>
      <trkpt lat="44.85716" lon="5.26352">
        <ele>1399.8</ele>
        <time>2024-07-02T11:54:37Z</time>
      </trkpt>
      <trkpt lat="44.85716" lon="5.26351">
        <ele>1399.8</ele>
        <time>2024-07-02T11:54:38Z</time>
      </trkpt>
      <trkpt lat="44.85716" lon="5.2635">
        <ele>1399.7</ele>
        <time>2024-07-02T11:54:39Z</time>
      </trkpt>
      <trkpt lat="44.85714" lon="5.26348">
        <ele>1399.6</ele>
        <time>2024-07-02T11:54:40Z</time>
      </trkpt>
      <trkpt lat="44.85713" lon="5.26347">
        <ele>1399.5</ele>
        <time>2024-07-02T11:54:41Z</time>
      </trkpt>
      <trkpt lat="44.85712" lon="5.26346">
        <ele>1399.4</ele>
        <time>2024-07-02T11:54:42Z</time>
      </trkpt>
      <trkpt lat="44.85711" lon="5.26345">
        <ele>1399.4</ele>
        <time>2024-07-02T11:54:43Z</time>
      </trkpt>
      <trkpt lat="44.85711" lon="5.26343">
        <ele>1399.3</ele>
        <time>2024-07-02T11:54:44Z</time>
      </trkpt>
      <trkpt lat="44.85711" lon="5.26342">
        <ele>1399.3</ele>
        <time>2024-07-02T11:54:45Z</time>
      </trkpt>
      <trkpt lat="44.8571" lon="5.2634">
        <ele>1399.2</ele>
        <time>2024-07-02T11:54:46Z</time>
      </trkpt>
      <trkpt lat="44.85709" lon="5.26338">
        <ele>1399.2</ele>
        <time>2024-07-02T11:54:47Z</time>
      </trkpt>
      <trkpt lat="44.85709" lon="5.26336">
        <ele>1399.1</ele>
        <time>2024-07-02T11:54:48Z</time>
      </trkpt>
      <trkpt lat="44.85709" lon="5.26334">
        <ele>1399</ele>
        <time>2024-07-02T11:54:49Z</time>
      </trkpt>
      <trkpt lat="44.85708" lon="5.26333">
        <ele>1399</ele>
        <time>2024-07-02T11:54:50Z</time>
      </trkpt>
      <trkpt lat="44.85708" lon="5.26335">
        <ele>1399</ele>
        <time>2024-07-02T11:54:51Z</time>
      </trkpt>
      <trkpt lat="44.85708" lon="5.26336">
        <ele>1399</ele>
        <time>2024-07-02T11:54:52Z</time>
      </trkpt>
      <trkpt lat="44.85708" lon="5.26337">
        <ele>1399</ele>
        <time>2024-07-02T11:54:53Z</time>
      </trkpt>
      <trkpt lat="44.85708" lon="5.26337">
        <ele>1399</ele>
        <time>2024-07-02T11:54:54Z</time>
      </trkpt>
      <trkpt lat="44.85708" lon="5.26337">
        <ele>1399</ele>
        <time>2024-07-02T11:54:55Z</time>
      </trkpt>
      <trkpt lat="44.85708" lon="5.26337">
        <ele>1399</ele>
        <time>2024-07-02T11:54:56Z</time>
      </trkpt>
      <trkpt lat="44.85707" lon="5.26337">
        <ele>1398.9</ele>
        <time>2024-07-02T11:54:57Z</time>
      </trkpt>
      <trkpt lat="44.85706" lon="5.26336">
        <ele>1398.9</ele>
        <time>2024-07-02T11:54:58Z</time>
      </trkpt>
      <trkpt lat="44.85705" lon="5.26336">
        <ele>1398.9</ele>
        <time>2024-07-02T11:54:59Z</time>
      </trkpt>
      <trkpt lat="44.85704" lon="5.26333">
        <ele>1398.9</ele>
        <time>2024-07-02T11:55:00Z</time>
      </trkpt>
      <trkpt lat="44.85704" lon="5.26331">
        <ele>1398.9</ele>
        <time>2024-07-02T11:55:01Z</time>
      </trkpt>
      <trkpt lat="44.85704" lon="5.26329">
        <ele>1398.9</ele>
        <time>2024-07-02T11:55:02Z</time>
      </trkpt>
      <trkpt lat="44.85703" lon="5.26327">
        <ele>1398.9</ele>
        <time>2024-07-02T11:55:03Z</time>
      </trkpt>
      <trkpt lat="44.85703" lon="5.26325">
        <ele>1398.9</ele>
        <time>2024-07-02T11:55:04Z</time>
      </trkpt>
      <trkpt lat="44.85702" lon="5.26323">
        <ele>1398.9</ele>
        <time>2024-07-02T11:55:05Z</time>
      </trkpt>
      <trkpt lat="44.85702" lon="5.26321">
        <ele>1399</ele>
        <time>2024-07-02T11:55:06Z</time>
      </trkpt>
      <trkpt lat="44.85702" lon="5.26318">
        <ele>1399</ele>
        <time>2024-07-02T11:55:07Z</time>
      </trkpt>
      <trkpt lat="44.85702" lon="5.26317">
        <ele>1399</ele>
        <time>2024-07-02T11:55:08Z</time>
      </trkpt>
      <trkpt lat="44.85702" lon="5.26316">
        <ele>1399</ele>
        <time>2024-07-02T11:55:09Z</time>
      </trkpt>
      <trkpt lat="44.85701" lon="5.26313">
        <ele>1399.1</ele>
        <time>2024-07-02T11:55:10Z</time>
      </trkpt>
      <trkpt lat="44.85701" lon="5.26312">
        <ele>1399.2</ele>
        <time>2024-07-02T11:55:11Z</time>
      </trkpt>
      <trkpt lat="44.857" lon="5.26311">
        <ele>1399.2</ele>
        <time>2024-07-02T11:55:12Z</time>
      </trkpt>
      <trkpt lat="44.857" lon="5.26308">
        <ele>1399.3</ele>
        <time>2024-07-02T11:55:13Z</time>
      </trkpt>
      <trkpt lat="44.857" lon="5.26307">
        <ele>1399.3</ele>
        <time>2024-07-02T11:55:14Z</time>
      </trkpt>
      <trkpt lat="44.857" lon="5.26305">
        <ele>1399.4</ele>
        <time>2024-07-02T11:55:15Z</time>
      </trkpt>
      <trkpt lat="44.85699" lon="5.26302">
        <ele>1399.5</ele>
        <time>2024-07-02T11:55:16Z</time>
      </trkpt>
      <trkpt lat="44.85699" lon="5.26301">
        <ele>1399.5</ele>
        <time>2024-07-02T11:55:17Z</time>
      </trkpt>
      <trkpt lat="44.85699" lon="5.263">
        <ele>1399.5</ele>
        <time>2024-07-02T11:55:18Z</time>
      </trkpt>
      <trkpt lat="44.85699" lon="5.26298">
        <ele>1399.6</ele>
        <time>2024-07-02T11:55:19Z</time>
      </trkpt>
      <trkpt lat="44.85698" lon="5.26297">
        <ele>1399.7</ele>
        <time>2024-07-02T11:55:20Z</time>
      </trkpt>
      <trkpt lat="44.85697" lon="5.26296">
        <ele>1399.7</ele>
        <time>2024-07-02T11:55:21Z</time>
      </trkpt>
      <trkpt lat="44.85697" lon="5.26296">
        <ele>1399.8</ele>
        <time>2024-07-02T11:55:22Z</time>
      </trkpt>
      <trkpt lat="44.85697" lon="5.26295">
        <ele>1399.8</ele>
        <time>2024-07-02T11:55:23Z</time>
      </trkpt>
      <trkpt lat="44.85697" lon="5.26294">
        <ele>1399.8</ele>
        <time>2024-07-02T11:55:24Z</time>
      </trkpt>
      <trkpt lat="44.85696" lon="5.26294">
        <ele>1399.8</ele>
        <time>2024-07-02T11:55:25Z</time>
      </trkpt>
      <trkpt lat="44.85695" lon="5.26294">
        <ele>1399.9</ele>
        <time>2024-07-02T11:55:26Z</time>
      </trkpt>
      <trkpt lat="44.85694" lon="5.26295">
        <ele>1399.9</ele>
        <time>2024-07-02T11:55:27Z</time>
      </trkpt>
      <trkpt lat="44.85695" lon="5.26294">
        <ele>1400</ele>
        <time>2024-07-02T11:55:28Z</time>
      </trkpt>
      <trkpt lat="44.85695" lon="5.26294">
        <ele>1400</ele>
        <time>2024-07-02T11:55:29Z</time>
      </trkpt>
      <trkpt lat="44.85695" lon="5.26294">
        <ele>1400</ele>
        <time>2024-07-02T11:55:30Z</time>
      </trkpt>
      <trkpt lat="44.85695" lon="5.26293">
        <ele>1400</ele>
        <time>2024-07-02T11:55:31Z</time>
      </trkpt>
      <trkpt lat="44.85695" lon="5.26293">
        <ele>1400</ele>
        <time>2024-07-02T11:55:32Z</time>
      </trkpt>
      <trkpt lat="44.85695" lon="5.26292">
        <ele>1400</ele>
        <time>2024-07-02T11:55:33Z</time>
      </trkpt>
      <trkpt lat="44.85695" lon="5.26292">
        <ele>1400.1</ele>
        <time>2024-07-02T11:55:34Z</time>
      </trkpt>
      <trkpt lat="44.85695" lon="5.26291">
        <ele>1400.1</ele>
        <time>2024-07-02T11:55:35Z</time>
      </trkpt>
      <trkpt lat="44.85695" lon="5.26291">
        <ele>1400.1</ele>
        <time>2024-07-02T11:55:36Z</time>
      </trkpt>
      <trkpt lat="44.85695" lon="5.2629">
        <ele>1400.1</ele>
        <time>2024-07-02T11:55:37Z</time>
      </trkpt>
      <trkpt lat="44.85695" lon="5.2629">
        <ele>1400.1</ele>
        <time>2024-07-02T11:55:38Z</time>
      </trkpt>
      <trkpt lat="44.85695" lon="5.26289">
        <ele>1400.1</ele>
        <time>2024-07-02T11:55:39Z</time>
      </trkpt>
      <trkpt lat="44.85695" lon="5.26289">
        <ele>1400.2</ele>
        <time>2024-07-02T11:55:40Z</time>
      </trkpt>
      <trkpt lat="44.85695" lon="5.26287">
        <ele>1400.3</ele>
        <time>2024-07-02T11:55:41Z</time>
      </trkpt>
      <trkpt lat="44.85694" lon="5.26285">
        <ele>1400.3</ele>
        <time>2024-07-02T11:55:42Z</time>
      </trkpt>
      <trkpt lat="44.85694" lon="5.26283">
        <ele>1400.4</ele>
        <time>2024-07-02T11:55:43Z</time>
      </trkpt>
      <trkpt lat="44.85693" lon="5.26281">
        <ele>1400.5</ele>
        <time>2024-07-02T11:55:44Z</time>
      </trkpt>
      <trkpt lat="44.85692" lon="5.26279">
        <ele>1400.6</ele>
        <time>2024-07-02T11:55:45Z</time>
      </trkpt>
      <trkpt lat="44.85692" lon="5.26278">
        <ele>1400.6</ele>
        <time>2024-07-02T11:55:46Z</time>
      </trkpt>
      <trkpt lat="44.85691" lon="5.26276">
        <ele>1400.6</ele>
        <time>2024-07-02T11:55:47Z</time>
      </trkpt>
      <trkpt lat="44.85691" lon="5.26275">
        <ele>1400.7</ele>
        <time>2024-07-02T11:55:48Z</time>
      </trkpt>
      <trkpt lat="44.8569" lon="5.26273">
        <ele>1400.7</ele>
        <time>2024-07-02T11:55:49Z</time>
      </trkpt>
      <trkpt lat="44.8569" lon="5.26271">
        <ele>1400.8</ele>
        <time>2024-07-02T11:55:50Z</time>
      </trkpt>
      <trkpt lat="44.85689" lon="5.26269">
        <ele>1400.8</ele>
        <time>2024-07-02T11:55:51Z</time>
      </trkpt>
      <trkpt lat="44.85689" lon="5.26268">
        <ele>1400.8</ele>
        <time>2024-07-02T11:55:52Z</time>
      </trkpt>
      <trkpt lat="44.85689" lon="5.26266">
        <ele>1400.9</ele>
        <time>2024-07-02T11:55:53Z</time>
      </trkpt>
      <trkpt lat="44.85688" lon="5.26264">
        <ele>1400.9</ele>
        <time>2024-07-02T11:55:54Z</time>
      </trkpt>
      <trkpt lat="44.85688" lon="5.26263">
        <ele>1400.9</ele>
        <time>2024-07-02T11:55:55Z</time>
      </trkpt>
      <trkpt lat="44.85687" lon="5.26261">
        <ele>1400.9</ele>
        <time>2024-07-02T11:55:56Z</time>
      </trkpt>
      <trkpt lat="44.85687" lon="5.2626">
        <ele>1400.9</ele>
        <time>2024-07-02T11:55:57Z</time>
      </trkpt>
      <trkpt lat="44.85687" lon="5.26259">
        <ele>1400.9</ele>
        <time>2024-07-02T11:55:58Z</time>
      </trkpt>
      <trkpt lat="44.85686" lon="5.26258">
        <ele>1400.9</ele>
        <time>2024-07-02T11:55:59Z</time>
      </trkpt>
      <trkpt lat="44.85686" lon="5.26256">
        <ele>1400.9</ele>
        <time>2024-07-02T11:56:00Z</time>
      </trkpt>
      <trkpt lat="44.85686" lon="5.26254">
        <ele>1400.9</ele>
        <time>2024-07-02T11:56:01Z</time>
      </trkpt>
      <trkpt lat="44.85685" lon="5.26253">
        <ele>1400.9</ele>
        <time>2024-07-02T11:56:02Z</time>
      </trkpt>
      <trkpt lat="44.85685" lon="5.26251">
        <ele>1400.9</ele>
        <time>2024-07-02T11:56:03Z</time>
      </trkpt>
      <trkpt lat="44.85685" lon="5.2625">
        <ele>1400.9</ele>
        <time>2024-07-02T11:56:04Z</time>
      </trkpt>
      <trkpt lat="44.85684" lon="5.26248">
        <ele>1400.8</ele>
        <time>2024-07-02T11:56:05Z</time>
      </trkpt>
      <trkpt lat="44.85683" lon="5.26247">
        <ele>1400.8</ele>
        <time>2024-07-02T11:56:06Z</time>
      </trkpt>
      <trkpt lat="44.85683" lon="5.26246">
        <ele>1400.8</ele>
        <time>2024-07-02T11:56:07Z</time>
      </trkpt>
      <trkpt lat="44.85683" lon="5.26244">
        <ele>1400.7</ele>
        <time>2024-07-02T11:56:08Z</time>
      </trkpt>
      <trkpt lat="44.85682" lon="5.26243">
        <ele>1400.7</ele>
        <time>2024-07-02T11:56:09Z</time>
      </trkpt>
      <trkpt lat="44.85682" lon="5.26241">
        <ele>1400.6</ele>
        <time>2024-07-02T11:56:10Z</time>
      </trkpt>
      <trkpt lat="44.85682" lon="5.26239">
        <ele>1400.5</ele>
        <time>2024-07-02T11:56:11Z</time>
      </trkpt>
      <trkpt lat="44.85681" lon="5.26237">
        <ele>1400.4</ele>
        <time>2024-07-02T11:56:12Z</time>
      </trkpt>
      <trkpt lat="44.8568" lon="5.26235">
        <ele>1400.4</ele>
        <time>2024-07-02T11:56:13Z</time>
      </trkpt>
      <trkpt lat="44.8568" lon="5.26234">
        <ele>1400.3</ele>
        <time>2024-07-02T11:56:14Z</time>
      </trkpt>
      <trkpt lat="44.85679" lon="5.26233">
        <ele>1400.2</ele>
        <time>2024-07-02T11:56:15Z</time>
      </trkpt>
      <trkpt lat="44.85678" lon="5.2623">
        <ele>1400</ele>
        <time>2024-07-02T11:56:16Z</time>
      </trkpt>
      <trkpt lat="44.85678" lon="5.2623">
        <ele>1400</ele>
        <time>2024-07-02T11:56:17Z</time>
      </trkpt>
      <trkpt lat="44.85677" lon="5.26228">
        <ele>1399.9</ele>
        <time>2024-07-02T11:56:18Z</time>
      </trkpt>
      <trkpt lat="44.85677" lon="5.26227">
        <ele>1399.7</ele>
        <time>2024-07-02T11:56:19Z</time>
      </trkpt>
      <trkpt lat="44.85676" lon="5.26225">
        <ele>1399.6</ele>
        <time>2024-07-02T11:56:20Z</time>
      </trkpt>
      <trkpt lat="44.85675" lon="5.26223">
        <ele>1399.4</ele>
        <time>2024-07-02T11:56:21Z</time>
      </trkpt>
      <trkpt lat="44.85675" lon="5.26222">
        <ele>1399.4</ele>
        <time>2024-07-02T11:56:22Z</time>
      </trkpt>
      <trkpt lat="44.85675" lon="5.2622">
        <ele>1399.2</ele>
        <time>2024-07-02T11:56:23Z</time>
      </trkpt>
      <trkpt lat="44.85674" lon="5.26219">
        <ele>1399.1</ele>
        <time>2024-07-02T11:56:24Z</time>
      </trkpt>
      <trkpt lat="44.85674" lon="5.26219">
        <ele>1399</ele>
        <time>2024-07-02T11:56:25Z</time>
      </trkpt>
      <trkpt lat="44.85673" lon="5.26219">
        <ele>1398.8</ele>
        <time>2024-07-02T11:56:26Z</time>
      </trkpt>
      <trkpt lat="44.85672" lon="5.2622">
        <ele>1398.8</ele>
        <time>2024-07-02T11:56:27Z</time>
      </trkpt>
      <trkpt lat="44.85672" lon="5.26218">
        <ele>1398.7</ele>
        <time>2024-07-02T11:56:28Z</time>
      </trkpt>
      <trkpt lat="44.85672" lon="5.26217">
        <ele>1398.5</ele>
        <time>2024-07-02T11:56:29Z</time>
      </trkpt>
      <trkpt lat="44.85672" lon="5.26215">
        <ele>1398.3</ele>
        <time>2024-07-02T11:56:30Z</time>
      </trkpt>
      <trkpt lat="44.85671" lon="5.26213">
        <ele>1398.1</ele>
        <time>2024-07-02T11:56:31Z</time>
      </trkpt>
      <trkpt lat="44.8567" lon="5.26212">
        <ele>1397.9</ele>
        <time>2024-07-02T11:56:32Z</time>
      </trkpt>
      <trkpt lat="44.8567" lon="5.26211">
        <ele>1397.7</ele>
        <time>2024-07-02T11:56:33Z</time>
      </trkpt>
      <trkpt lat="44.85669" lon="5.26209">
        <ele>1397.5</ele>
        <time>2024-07-02T11:56:34Z</time>
      </trkpt>
      <trkpt lat="44.85669" lon="5.26208">
        <ele>1397.3</ele>
        <time>2024-07-02T11:56:35Z</time>
      </trkpt>
      <trkpt lat="44.85669" lon="5.26206">
        <ele>1397.1</ele>
        <time>2024-07-02T11:56:36Z</time>
      </trkpt>
      <trkpt lat="44.85669" lon="5.26204">
        <ele>1396.9</ele>
        <time>2024-07-02T11:56:37Z</time>
      </trkpt>
      <trkpt lat="44.8567" lon="5.26202">
        <ele>1396.6</ele>
        <time>2024-07-02T11:56:38Z</time>
      </trkpt>
      <trkpt lat="44.8567" lon="5.26201">
        <ele>1396.4</ele>
        <time>2024-07-02T11:56:39Z</time>
      </trkpt>
      <trkpt lat="44.8567" lon="5.26199">
        <ele>1396.3</ele>
        <time>2024-07-02T11:56:40Z</time>
      </trkpt>
      <trkpt lat="44.8567" lon="5.26197">
        <ele>1396</ele>
        <time>2024-07-02T11:56:41Z</time>
      </trkpt>
      <trkpt lat="44.8567" lon="5.26197">
        <ele>1395.9</ele>
        <time>2024-07-02T11:56:42Z</time>
      </trkpt>
      <trkpt lat="44.8567" lon="5.26195">
        <ele>1395.8</ele>
        <time>2024-07-02T11:56:43Z</time>
      </trkpt>
      <trkpt lat="44.85669" lon="5.26192">
        <ele>1395.3</ele>
        <time>2024-07-02T11:56:44Z</time>
      </trkpt>
      <trkpt lat="44.85669" lon="5.26191">
        <ele>1395.2</ele>
        <time>2024-07-02T11:56:45Z</time>
      </trkpt>
      <trkpt lat="44.85669" lon="5.2619">
        <ele>1395.1</ele>
        <time>2024-07-02T11:56:46Z</time>
      </trkpt>
      <trkpt lat="44.85668" lon="5.26188">
        <ele>1394.8</ele>
        <time>2024-07-02T11:56:47Z</time>
      </trkpt>
      <trkpt lat="44.85668" lon="5.26187">
        <ele>1394.6</ele>
        <time>2024-07-02T11:56:48Z</time>
      </trkpt>
      <trkpt lat="44.85667" lon="5.26185">
        <ele>1394.5</ele>
        <time>2024-07-02T11:56:49Z</time>
      </trkpt>
      <trkpt lat="44.85667" lon="5.26184">
        <ele>1394.3</ele>
        <time>2024-07-02T11:56:50Z</time>
      </trkpt>
      <trkpt lat="44.85666" lon="5.26182">
        <ele>1394</ele>
        <time>2024-07-02T11:56:51Z</time>
      </trkpt>
      <trkpt lat="44.85665" lon="5.26181">
        <ele>1393.9</ele>
        <time>2024-07-02T11:56:52Z</time>
      </trkpt>
      <trkpt lat="44.85665" lon="5.2618">
        <ele>1393.8</ele>
        <time>2024-07-02T11:56:53Z</time>
      </trkpt>
      <trkpt lat="44.85664" lon="5.26179">
        <ele>1393.7</ele>
        <time>2024-07-02T11:56:54Z</time>
      </trkpt>
      <trkpt lat="44.85664" lon="5.26179">
        <ele>1393.6</ele>
        <time>2024-07-02T11:56:55Z</time>
      </trkpt>
      <trkpt lat="44.85663" lon="5.26178">
        <ele>1393.5</ele>
        <time>2024-07-02T11:56:56Z</time>
      </trkpt>
      <trkpt lat="44.85663" lon="5.26177">
        <ele>1393.4</ele>
        <time>2024-07-02T11:56:57Z</time>
      </trkpt>
      <trkpt lat="44.85663" lon="5.26176">
        <ele>1393.3</ele>
        <time>2024-07-02T11:56:58Z</time>
      </trkpt>
      <trkpt lat="44.85663" lon="5.26174">
        <ele>1393.1</ele>
        <time>2024-07-02T11:56:59Z</time>
      </trkpt>
      <trkpt lat="44.85663" lon="5.26173">
        <ele>1393</ele>
        <time>2024-07-02T11:57:00Z</time>
      </trkpt>
      <trkpt lat="44.85663" lon="5.26171">
        <ele>1392.9</ele>
        <time>2024-07-02T11:57:01Z</time>
      </trkpt>
      <trkpt lat="44.85662" lon="5.26171">
        <ele>1392.8</ele>
        <time>2024-07-02T11:57:02Z</time>
      </trkpt>
      <trkpt lat="44.85662" lon="5.26169">
        <ele>1392.6</ele>
        <time>2024-07-02T11:57:03Z</time>
      </trkpt>
      <trkpt lat="44.85661" lon="5.26167">
        <ele>1392.5</ele>
        <time>2024-07-02T11:57:04Z</time>
      </trkpt>
      <trkpt lat="44.85661" lon="5.26166">
        <ele>1392.4</ele>
        <time>2024-07-02T11:57:05Z</time>
      </trkpt>
      <trkpt lat="44.8566" lon="5.26165">
        <ele>1392.3</ele>
        <time>2024-07-02T11:57:06Z</time>
      </trkpt>
      <trkpt lat="44.85659" lon="5.26164">
        <ele>1392.2</ele>
        <time>2024-07-02T11:57:07Z</time>
      </trkpt>
      <trkpt lat="44.85658" lon="5.26163">
        <ele>1392.1</ele>
        <time>2024-07-02T11:57:08Z</time>
      </trkpt>
      <trkpt lat="44.85657" lon="5.2616">
        <ele>1391.9</ele>
        <time>2024-07-02T11:57:09Z</time>
      </trkpt>
      <trkpt lat="44.85656" lon="5.26159">
        <ele>1391.8</ele>
        <time>2024-07-02T11:57:10Z</time>
      </trkpt>
      <trkpt lat="44.85656" lon="5.26158">
        <ele>1391.8</ele>
        <time>2024-07-02T11:57:11Z</time>
      </trkpt>
      <trkpt lat="44.85655" lon="5.26157">
        <ele>1391.7</ele>
        <time>2024-07-02T11:57:12Z</time>
      </trkpt>
      <trkpt lat="44.85655" lon="5.26156">
        <ele>1391.6</ele>
        <time>2024-07-02T11:57:13Z</time>
      </trkpt>
      <trkpt lat="44.85655" lon="5.26155">
        <ele>1391.6</ele>
        <time>2024-07-02T11:57:14Z</time>
      </trkpt>
      <trkpt lat="44.85654" lon="5.26153">
        <ele>1391.5</ele>
        <time>2024-07-02T11:57:15Z</time>
      </trkpt>
      <trkpt lat="44.85652" lon="5.26152">
        <ele>1391.4</ele>
        <time>2024-07-02T11:57:16Z</time>
      </trkpt>
      <trkpt lat="44.85652" lon="5.26152">
        <ele>1391.4</ele>
        <time>2024-07-02T11:57:17Z</time>
      </trkpt>
      <trkpt lat="44.85651" lon="5.26151">
        <ele>1391.3</ele>
        <time>2024-07-02T11:57:18Z</time>
      </trkpt>
      <trkpt lat="44.8565" lon="5.2615">
        <ele>1391.3</ele>
        <time>2024-07-02T11:57:19Z</time>
      </trkpt>
      <trkpt lat="44.8565" lon="5.26148">
        <ele>1391.2</ele>
        <time>2024-07-02T11:57:20Z</time>
      </trkpt>
      <trkpt lat="44.85649" lon="5.26146">
        <ele>1391.2</ele>
        <time>2024-07-02T11:57:21Z</time>
      </trkpt>
      <trkpt lat="44.85649" lon="5.26143">
        <ele>1391.1</ele>
        <time>2024-07-02T11:57:22Z</time>
      </trkpt>
      <trkpt lat="44.85649" lon="5.26142">
        <ele>1391.1</ele>
        <time>2024-07-02T11:57:23Z</time>
      </trkpt>
      <trkpt lat="44.85649" lon="5.26141">
        <ele>1391.1</ele>
        <time>2024-07-02T11:57:24Z</time>
      </trkpt>
      <trkpt lat="44.85649" lon="5.2614">
        <ele>1391</ele>
        <time>2024-07-02T11:57:25Z</time>
      </trkpt>
      <trkpt lat="44.85649" lon="5.26138">
        <ele>1391</ele>
        <time>2024-07-02T11:57:26Z</time>
      </trkpt>
      <trkpt lat="44.85649" lon="5.26137">
        <ele>1391</ele>
        <time>2024-07-02T11:57:27Z</time>
      </trkpt>
      <trkpt lat="44.85648" lon="5.26136">
        <ele>1391</ele>
        <time>2024-07-02T11:57:28Z</time>
      </trkpt>
      <trkpt lat="44.85647" lon="5.26137">
        <ele>1391</ele>
        <time>2024-07-02T11:57:29Z</time>
      </trkpt>
      <trkpt lat="44.85647" lon="5.26138">
        <ele>1391</ele>
        <time>2024-07-02T11:57:30Z</time>
      </trkpt>
      <trkpt lat="44.85647" lon="5.26138">
        <ele>1391</ele>
        <time>2024-07-02T11:57:31Z</time>
      </trkpt>
      <trkpt lat="44.85647" lon="5.26138">
        <ele>1391</ele>
        <time>2024-07-02T11:57:32Z</time>
      </trkpt>
      <trkpt lat="44.85647" lon="5.26137">
        <ele>1391</ele>
        <time>2024-07-02T11:57:33Z</time>
      </trkpt>
      <trkpt lat="44.85647" lon="5.26137">
        <ele>1391</ele>
        <time>2024-07-02T11:57:34Z</time>
      </trkpt>
      <trkpt lat="44.85647" lon="5.26137">
        <ele>1391</ele>
        <time>2024-07-02T11:57:35Z</time>
      </trkpt>
      <trkpt lat="44.85647" lon="5.26137">
        <ele>1391</ele>
        <time>2024-07-02T11:57:36Z</time>
      </trkpt>
      <trkpt lat="44.85647" lon="5.26136">
        <ele>1391</ele>
        <time>2024-07-02T11:57:37Z</time>
      </trkpt>
      <trkpt lat="44.85647" lon="5.26136">
        <ele>1391</ele>
        <time>2024-07-02T11:57:38Z</time>
      </trkpt>
      <trkpt lat="44.85647" lon="5.26136">
        <ele>1391</ele>
        <time>2024-07-02T11:57:39Z</time>
      </trkpt>
      <trkpt lat="44.85647" lon="5.26136">
        <ele>1391</ele>
        <time>2024-07-02T11:57:40Z</time>
      </trkpt>
      <trkpt lat="44.85647" lon="5.26135">
        <ele>1391</ele>
        <time>2024-07-02T11:57:41Z</time>
      </trkpt>
      <trkpt lat="44.85647" lon="5.26135">
        <ele>1390.9</ele>
        <time>2024-07-02T11:57:42Z</time>
      </trkpt>
      <trkpt lat="44.85647" lon="5.26135">
        <ele>1390.9</ele>
        <time>2024-07-02T11:57:43Z</time>
      </trkpt>
      <trkpt lat="44.85647" lon="5.26135">
        <ele>1390.9</ele>
        <time>2024-07-02T11:57:44Z</time>
      </trkpt>
      <trkpt lat="44.85647" lon="5.26134">
        <ele>1390.9</ele>
        <time>2024-07-02T11:57:45Z</time>
      </trkpt>
      <trkpt lat="44.85646" lon="5.26134">
        <ele>1390.9</ele>
        <time>2024-07-02T11:57:46Z</time>
      </trkpt>
      <trkpt lat="44.85646" lon="5.26134">
        <ele>1390.9</ele>
        <time>2024-07-02T11:57:47Z</time>
      </trkpt>
      <trkpt lat="44.85646" lon="5.26134">
        <ele>1390.9</ele>
        <time>2024-07-02T11:57:48Z</time>
      </trkpt>
      <trkpt lat="44.85646" lon="5.26134">
        <ele>1390.9</ele>
        <time>2024-07-02T11:57:49Z</time>
      </trkpt>
      <trkpt lat="44.85646" lon="5.26133">
        <ele>1390.9</ele>
        <time>2024-07-02T11:57:50Z</time>
      </trkpt>
      <trkpt lat="44.85646" lon="5.26133">
        <ele>1390.9</ele>
        <time>2024-07-02T11:57:51Z</time>
      </trkpt>
      <trkpt lat="44.85646" lon="5.26133">
        <ele>1390.9</ele>
        <time>2024-07-02T11:57:52Z</time>
      </trkpt>
      <trkpt lat="44.85646" lon="5.26133">
        <ele>1390.9</ele>
        <time>2024-07-02T11:57:53Z</time>
      </trkpt>
      <trkpt lat="44.85646" lon="5.26132">
        <ele>1390.9</ele>
        <time>2024-07-02T11:57:54Z</time>
      </trkpt>
      <trkpt lat="44.85646" lon="5.26132">
        <ele>1390.9</ele>
        <time>2024-07-02T11:57:55Z</time>
      </trkpt>
      <trkpt lat="44.85646" lon="5.26132">
        <ele>1390.9</ele>
        <time>2024-07-02T11:57:56Z</time>
      </trkpt>
      <trkpt lat="44.85646" lon="5.26131">
        <ele>1390.9</ele>
        <time>2024-07-02T11:57:57Z</time>
      </trkpt>
      <trkpt lat="44.85645" lon="5.26129">
        <ele>1391</ele>
        <time>2024-07-02T11:57:58Z</time>
      </trkpt>
      <trkpt lat="44.85645" lon="5.26127">
        <ele>1391</ele>
        <time>2024-07-02T11:57:59Z</time>
      </trkpt>
      <trkpt lat="44.85644" lon="5.26124">
        <ele>1391</ele>
        <time>2024-07-02T11:58:00Z</time>
      </trkpt>
      <trkpt lat="44.85644" lon="5.26123">
        <ele>1391</ele>
        <time>2024-07-02T11:58:01Z</time>
      </trkpt>
      <trkpt lat="44.85644" lon="5.26122">
        <ele>1391</ele>
        <time>2024-07-02T11:58:02Z</time>
      </trkpt>
      <trkpt lat="44.85644" lon="5.26119">
        <ele>1391.1</ele>
        <time>2024-07-02T11:58:03Z</time>
      </trkpt>
      <trkpt lat="44.85643" lon="5.26118">
        <ele>1391.1</ele>
        <time>2024-07-02T11:58:04Z</time>
      </trkpt>
      <trkpt lat="44.85643" lon="5.26117">
        <ele>1391.1</ele>
        <time>2024-07-02T11:58:05Z</time>
      </trkpt>
      <trkpt lat="44.85643" lon="5.26115">
        <ele>1391.2</ele>
        <time>2024-07-02T11:58:06Z</time>
      </trkpt>
      <trkpt lat="44.85642" lon="5.26114">
        <ele>1391.2</ele>
        <time>2024-07-02T11:58:07Z</time>
      </trkpt>
      <trkpt lat="44.85642" lon="5.26112">
        <ele>1391.3</ele>
        <time>2024-07-02T11:58:08Z</time>
      </trkpt>
      <trkpt lat="44.8564" lon="5.2611">
        <ele>1391.4</ele>
        <time>2024-07-02T11:58:09Z</time>
      </trkpt>
      <trkpt lat="44.8564" lon="5.26109">
        <ele>1391.4</ele>
        <time>2024-07-02T11:58:10Z</time>
      </trkpt>
      <trkpt lat="44.85639" lon="5.26108">
        <ele>1391.4</ele>
        <time>2024-07-02T11:58:11Z</time>
      </trkpt>
      <trkpt lat="44.85639" lon="5.26107">
        <ele>1391.5</ele>
        <time>2024-07-02T11:58:12Z</time>
      </trkpt>
      <trkpt lat="44.85638" lon="5.26105">
        <ele>1391.6</ele>
        <time>2024-07-02T11:58:13Z</time>
      </trkpt>
      <trkpt lat="44.85637" lon="5.26104">
        <ele>1391.6</ele>
        <time>2024-07-02T11:58:14Z</time>
      </trkpt>
      <trkpt lat="44.85636" lon="5.26103">
        <ele>1391.7</ele>
        <time>2024-07-02T11:58:15Z</time>
      </trkpt>
      <trkpt lat="44.85635" lon="5.26102">
        <ele>1391.8</ele>
        <time>2024-07-02T11:58:16Z</time>
      </trkpt>
      <trkpt lat="44.85635" lon="5.261">
        <ele>1391.9</ele>
        <time>2024-07-02T11:58:17Z</time>
      </trkpt>
      <trkpt lat="44.85634" lon="5.26099">
        <ele>1392</ele>
        <time>2024-07-02T11:58:18Z</time>
      </trkpt>
      <trkpt lat="44.85634" lon="5.26098">
        <ele>1392</ele>
        <time>2024-07-02T11:58:19Z</time>
      </trkpt>
      <trkpt lat="44.85633" lon="5.26096">
        <ele>1392.1</ele>
        <time>2024-07-02T11:58:20Z</time>
      </trkpt>
      <trkpt lat="44.85633" lon="5.26095">
        <ele>1392.2</ele>
        <time>2024-07-02T11:58:21Z</time>
      </trkpt>
      <trkpt lat="44.85632" lon="5.26093">
        <ele>1392.3</ele>
        <time>2024-07-02T11:58:22Z</time>
      </trkpt>
      <trkpt lat="44.85632" lon="5.26091">
        <ele>1392.4</ele>
        <time>2024-07-02T11:58:23Z</time>
      </trkpt>
      <trkpt lat="44.85632" lon="5.2609">
        <ele>1392.5</ele>
        <time>2024-07-02T11:58:24Z</time>
      </trkpt>
      <trkpt lat="44.85632" lon="5.26088">
        <ele>1392.7</ele>
        <time>2024-07-02T11:58:25Z</time>
      </trkpt>
      <trkpt lat="44.85631" lon="5.26087">
        <ele>1392.7</ele>
        <time>2024-07-02T11:58:26Z</time>
      </trkpt>
      <trkpt lat="44.85631" lon="5.26086">
        <ele>1392.8</ele>
        <time>2024-07-02T11:58:27Z</time>
      </trkpt>
      <trkpt lat="44.8563" lon="5.26085">
        <ele>1392.9</ele>
        <time>2024-07-02T11:58:28Z</time>
      </trkpt>
      <trkpt lat="44.8563" lon="5.26084">
        <ele>1393</ele>
        <time>2024-07-02T11:58:29Z</time>
      </trkpt>
      <trkpt lat="44.85629" lon="5.26083">
        <ele>1393.1</ele>
        <time>2024-07-02T11:58:30Z</time>
      </trkpt>
      <trkpt lat="44.85629" lon="5.26081">
        <ele>1393.2</ele>
        <time>2024-07-02T11:58:31Z</time>
      </trkpt>
      <trkpt lat="44.85629" lon="5.26079">
        <ele>1393.4</ele>
        <time>2024-07-02T11:58:32Z</time>
      </trkpt>
      <trkpt lat="44.85629" lon="5.26078">
        <ele>1393.4</ele>
        <time>2024-07-02T11:58:33Z</time>
      </trkpt>
      <trkpt lat="44.85629" lon="5.26076">
        <ele>1393.6</ele>
        <time>2024-07-02T11:58:34Z</time>
      </trkpt>
      <trkpt lat="44.85629" lon="5.26075">
        <ele>1393.7</ele>
        <time>2024-07-02T11:58:35Z</time>
      </trkpt>
      <trkpt lat="44.85628" lon="5.26074">
        <ele>1393.8</ele>
        <time>2024-07-02T11:58:36Z</time>
      </trkpt>
      <trkpt lat="44.85627" lon="5.26073">
        <ele>1393.9</ele>
        <time>2024-07-02T11:58:37Z</time>
      </trkpt>
      <trkpt lat="44.85626" lon="5.26072">
        <ele>1394</ele>
        <time>2024-07-02T11:58:38Z</time>
      </trkpt>
      <trkpt lat="44.85625" lon="5.26071">
        <ele>1394.2</ele>
        <time>2024-07-02T11:58:39Z</time>
      </trkpt>
      <trkpt lat="44.85624" lon="5.2607">
        <ele>1394.3</ele>
        <time>2024-07-02T11:58:40Z</time>
      </trkpt>
      <trkpt lat="44.85623" lon="5.26069">
        <ele>1394.4</ele>
        <time>2024-07-02T11:58:41Z</time>
      </trkpt>
      <trkpt lat="44.85623" lon="5.26069">
        <ele>1394.5</ele>
        <time>2024-07-02T11:58:42Z</time>
      </trkpt>
      <trkpt lat="44.85622" lon="5.26068">
        <ele>1394.6</ele>
        <time>2024-07-02T11:58:43Z</time>
      </trkpt>
      <trkpt lat="44.85621" lon="5.26068">
        <ele>1394.7</ele>
        <time>2024-07-02T11:58:44Z</time>
      </trkpt>
      <trkpt lat="44.8562" lon="5.26067">
        <ele>1394.8</ele>
        <time>2024-07-02T11:58:45Z</time>
      </trkpt>
      <trkpt lat="44.85619" lon="5.26066">
        <ele>1394.9</ele>
        <time>2024-07-02T11:58:46Z</time>
      </trkpt>
      <trkpt lat="44.85618" lon="5.26066">
        <ele>1395</ele>
        <time>2024-07-02T11:58:47Z</time>
      </trkpt>
      <trkpt lat="44.85618" lon="5.26065">
        <ele>1395.2</ele>
        <time>2024-07-02T11:58:48Z</time>
      </trkpt>
      <trkpt lat="44.85617" lon="5.26064">
        <ele>1395.3</ele>
        <time>2024-07-02T11:58:49Z</time>
      </trkpt>
      <trkpt lat="44.85617" lon="5.26063">
        <ele>1395.4</ele>
        <time>2024-07-02T11:58:50Z</time>
      </trkpt>
      <trkpt lat="44.85617" lon="5.26062">
        <ele>1395.5</ele>
        <time>2024-07-02T11:58:51Z</time>
      </trkpt>
      <trkpt lat="44.85618" lon="5.26062">
        <ele>1395.5</ele>
        <time>2024-07-02T11:58:52Z</time>
      </trkpt>
      <trkpt lat="44.85618" lon="5.26062">
        <ele>1395.5</ele>
        <time>2024-07-02T11:58:53Z</time>
      </trkpt>
      <trkpt lat="44.85618" lon="5.26062">
        <ele>1395.6</ele>
        <time>2024-07-02T11:58:54Z</time>
      </trkpt>
      <trkpt lat="44.85618" lon="5.26062">
        <ele>1395.6</ele>
        <time>2024-07-02T11:58:55Z</time>
      </trkpt>
      <trkpt lat="44.85618" lon="5.26062">
        <ele>1395.6</ele>
        <time>2024-07-02T11:58:56Z</time>
      </trkpt>
      <trkpt lat="44.85618" lon="5.26062">
        <ele>1395.6</ele>
        <time>2024-07-02T11:58:57Z</time>
      </trkpt>
      <trkpt lat="44.85618" lon="5.26062">
        <ele>1395.6</ele>
        <time>2024-07-02T11:58:58Z</time>
      </trkpt>
      <trkpt lat="44.85617" lon="5.26062">
        <ele>1395.6</ele>
        <time>2024-07-02T11:58:59Z</time>
      </trkpt>
      <trkpt lat="44.85617" lon="5.26061">
        <ele>1395.7</ele>
        <time>2024-07-02T11:59:00Z</time>
      </trkpt>
      <trkpt lat="44.85616" lon="5.26061">
        <ele>1395.8</ele>
        <time>2024-07-02T11:59:01Z</time>
      </trkpt>
      <trkpt lat="44.85615" lon="5.26061">
        <ele>1395.9</ele>
        <time>2024-07-02T11:59:02Z</time>
      </trkpt>
      <trkpt lat="44.85614" lon="5.26061">
        <ele>1396.1</ele>
        <time>2024-07-02T11:59:03Z</time>
      </trkpt>
      <trkpt lat="44.85614" lon="5.26061">
        <ele>1396.1</ele>
        <time>2024-07-02T11:59:04Z</time>
      </trkpt>
      <trkpt lat="44.85614" lon="5.2606">
        <ele>1396.1</ele>
        <time>2024-07-02T11:59:05Z</time>
      </trkpt>
      <trkpt lat="44.85614" lon="5.2606">
        <ele>1396.1</ele>
        <time>2024-07-02T11:59:06Z</time>
      </trkpt>
      <trkpt lat="44.85614" lon="5.2606">
        <ele>1396.2</ele>
        <time>2024-07-02T11:59:07Z</time>
      </trkpt>
      <trkpt lat="44.85614" lon="5.26059">
        <ele>1396.2</ele>
        <time>2024-07-02T11:59:08Z</time>
      </trkpt>
      <trkpt lat="44.85613" lon="5.26059">
        <ele>1396.3</ele>
        <time>2024-07-02T11:59:09Z</time>
      </trkpt>
      <trkpt lat="44.85613" lon="5.26058">
        <ele>1396.4</ele>
        <time>2024-07-02T11:59:10Z</time>
      </trkpt>
      <trkpt lat="44.85612" lon="5.26058">
        <ele>1396.5</ele>
        <time>2024-07-02T11:59:11Z</time>
      </trkpt>
      <trkpt lat="44.85612" lon="5.26058">
        <ele>1396.5</ele>
        <time>2024-07-02T11:59:12Z</time>
      </trkpt>
      <trkpt lat="44.85612" lon="5.26058">
        <ele>1396.5</ele>
        <time>2024-07-02T11:59:13Z</time>
      </trkpt>
      <trkpt lat="44.85612" lon="5.26058">
        <ele>1396.5</ele>
        <time>2024-07-02T11:59:14Z</time>
      </trkpt>
      <trkpt lat="44.85611" lon="5.26057">
        <ele>1396.6</ele>
        <time>2024-07-02T11:59:15Z</time>
      </trkpt>
      <trkpt lat="44.85611" lon="5.26057">
        <ele>1396.6</ele>
        <time>2024-07-02T11:59:16Z</time>
      </trkpt>
      <trkpt lat="44.85611" lon="5.26056">
        <ele>1396.7</ele>
        <time>2024-07-02T11:59:17Z</time>
      </trkpt>
      <trkpt lat="44.85611" lon="5.26053">
        <ele>1397</ele>
        <time>2024-07-02T11:59:19Z</time>
      </trkpt>
      <trkpt lat="44.85611" lon="5.26052">
        <ele>1397.1</ele>
        <time>2024-07-02T11:59:20Z</time>
      </trkpt>
      <trkpt lat="44.85611" lon="5.26051">
        <ele>1397.2</ele>
        <time>2024-07-02T11:59:21Z</time>
      </trkpt>
      <trkpt lat="44.8561" lon="5.26051">
        <ele>1397.2</ele>
        <time>2024-07-02T11:59:22Z</time>
      </trkpt>
      <trkpt lat="44.8561" lon="5.2605">
        <ele>1397.3</ele>
        <time>2024-07-02T11:59:23Z</time>
      </trkpt>
      <trkpt lat="44.8561" lon="5.26049">
        <ele>1397.3</ele>
        <time>2024-07-02T11:59:24Z</time>
      </trkpt>
      <trkpt lat="44.8561" lon="5.2605">
        <ele>1397.4</ele>
        <time>2024-07-02T11:59:25Z</time>
      </trkpt>
      <trkpt lat="44.8561" lon="5.2605">
        <ele>1397.4</ele>
        <time>2024-07-02T11:59:26Z</time>
      </trkpt>
      <trkpt lat="44.8561" lon="5.26051">
        <ele>1397.5</ele>
        <time>2024-07-02T11:59:27Z</time>
      </trkpt>
      <trkpt lat="44.8561" lon="5.26051">
        <ele>1397.5</ele>
        <time>2024-07-02T11:59:28Z</time>
      </trkpt>
      <trkpt lat="44.8561" lon="5.26051">
        <ele>1397.6</ele>
        <time>2024-07-02T11:59:29Z</time>
      </trkpt>
      <trkpt lat="44.8561" lon="5.26051">
        <ele>1397.6</ele>
        <time>2024-07-02T11:59:30Z</time>
      </trkpt>
      <trkpt lat="44.8561" lon="5.26052">
        <ele>1397.6</ele>
        <time>2024-07-02T11:59:31Z</time>
      </trkpt>
      <trkpt lat="44.8561" lon="5.26052">
        <ele>1397.6</ele>
        <time>2024-07-02T11:59:32Z</time>
      </trkpt>
      <trkpt lat="44.8561" lon="5.26052">
        <ele>1397.6</ele>
        <time>2024-07-02T11:59:33Z</time>
      </trkpt>
      <trkpt lat="44.8561" lon="5.26052">
        <ele>1397.6</ele>
        <time>2024-07-02T11:59:34Z</time>
      </trkpt>
      <trkpt lat="44.8561" lon="5.26052">
        <ele>1397.7</ele>
        <time>2024-07-02T11:59:35Z</time>
      </trkpt>
      <trkpt lat="44.8561" lon="5.26052">
        <ele>1397.7</ele>
        <time>2024-07-02T11:59:36Z</time>
      </trkpt>
      <trkpt lat="44.8561" lon="5.26052">
        <ele>1397.7</ele>
        <time>2024-07-02T11:59:37Z</time>
      </trkpt>
      <trkpt lat="44.8561" lon="5.26052">
        <ele>1397.7</ele>
        <time>2024-07-02T11:59:38Z</time>
      </trkpt>
      <trkpt lat="44.8561" lon="5.26052">
        <ele>1397.7</ele>
        <time>2024-07-02T11:59:39Z</time>
      </trkpt>
      <trkpt lat="44.8561" lon="5.26053">
        <ele>1397.7</ele>
        <time>2024-07-02T11:59:40Z</time>
      </trkpt>
      <trkpt lat="44.8561" lon="5.26053">
        <ele>1397.7</ele>
        <time>2024-07-02T11:59:41Z</time>
      </trkpt>
      <trkpt lat="44.8561" lon="5.26053">
        <ele>1397.7</ele>
        <time>2024-07-02T11:59:42Z</time>
      </trkpt>
      <trkpt lat="44.8561" lon="5.26053">
        <ele>1397.8</ele>
        <time>2024-07-02T11:59:43Z</time>
      </trkpt>
      <trkpt lat="44.8561" lon="5.26053">
        <ele>1397.8</ele>
        <time>2024-07-02T11:59:44Z</time>
      </trkpt>
      <trkpt lat="44.8561" lon="5.26053">
        <ele>1397.8</ele>
        <time>2024-07-02T11:59:45Z</time>
      </trkpt>
      <trkpt lat="44.8561" lon="5.26053">
        <ele>1397.8</ele>
        <time>2024-07-02T11:59:46Z</time>
      </trkpt>
      <trkpt lat="44.8561" lon="5.26053">
        <ele>1397.8</ele>
        <time>2024-07-02T11:59:47Z</time>
      </trkpt>
      <trkpt lat="44.85609" lon="5.26053">
        <ele>1397.8</ele>
        <time>2024-07-02T11:59:48Z</time>
      </trkpt>
      <trkpt lat="44.8561" lon="5.26053">
        <ele>1397.8</ele>
        <time>2024-07-02T11:59:49Z</time>
      </trkpt>
      <trkpt lat="44.8561" lon="5.26054">
        <ele>1397.9</ele>
        <time>2024-07-02T11:59:50Z</time>
      </trkpt>
      <trkpt lat="44.8561" lon="5.26053">
        <ele>1397.9</ele>
        <time>2024-07-02T11:59:51Z</time>
      </trkpt>
      <trkpt lat="44.8561" lon="5.26053">
        <ele>1397.9</ele>
        <time>2024-07-02T11:59:52Z</time>
      </trkpt>
      <trkpt lat="44.8561" lon="5.26053">
        <ele>1397.9</ele>
        <time>2024-07-02T11:59:53Z</time>
      </trkpt>
      <trkpt lat="44.8561" lon="5.26053">
        <ele>1397.9</ele>
        <time>2024-07-02T11:59:54Z</time>
      </trkpt>
      <trkpt lat="44.8561" lon="5.26053">
        <ele>1397.9</ele>
        <time>2024-07-02T11:59:55Z</time>
      </trkpt>
      <trkpt lat="44.8561" lon="5.26053">
        <ele>1397.9</ele>
        <time>2024-07-02T11:59:56Z</time>
      </trkpt>
      <trkpt lat="44.8561" lon="5.26053">
        <ele>1397.9</ele>
        <time>2024-07-02T11:59:57Z</time>
      </trkpt>
      <trkpt lat="44.8561" lon="5.26053">
        <ele>1397.9</ele>
        <time>2024-07-02T11:59:58Z</time>
      </trkpt>
      <trkpt lat="44.8561" lon="5.26053">
        <ele>1397.9</ele>
        <time>2024-07-02T11:59:59Z</time>
      </trkpt>
      <trkpt lat="44.8561" lon="5.26053">
        <ele>1397.9</ele>
        <time>2024-07-02T12:00:00Z</time>
      </trkpt>
      <trkpt lat="44.8561" lon="5.26053">
        <ele>1397.9</ele>
        <time>2024-07-02T12:00:01Z</time>
      </trkpt>
      <trkpt lat="44.8561" lon="5.26053">
        <ele>1397.9</ele>
        <time>2024-07-02T12:00:02Z</time>
      </trkpt>
      <trkpt lat="44.8561" lon="5.26053">
        <ele>1397.9</ele>
        <time>2024-07-02T12:00:03Z</time>
      </trkpt>
      <trkpt lat="44.8561" lon="5.26053">
        <ele>1397.9</ele>
        <time>2024-07-02T12:00:04Z</time>
      </trkpt>
      <trkpt lat="44.8561" lon="5.26053">
        <ele>1397.9</ele>
        <time>2024-07-02T12:00:05Z</time>
      </trkpt>
      <trkpt lat="44.8561" lon="5.26053">
        <ele>1397.9</ele>
        <time>2024-07-02T12:00:06Z</time>
      </trkpt>
      <trkpt lat="44.8561" lon="5.26053">
        <ele>1397.9</ele>
        <time>2024-07-02T12:00:07Z</time>
      </trkpt>
      <trkpt lat="44.8561" lon="5.26053">
        <ele>1397.9</ele>
        <time>2024-07-02T12:00:08Z</time>
      </trkpt>
      <trkpt lat="44.8561" lon="5.26053">
        <ele>1397.9</ele>
        <time>2024-07-02T12:00:09Z</time>
      </trkpt>
      <trkpt lat="44.8561" lon="5.26053">
        <ele>1397.9</ele>
        <time>2024-07-02T12:00:10Z</time>
      </trkpt>
      <trkpt lat="44.8561" lon="5.26054">
        <ele>1397.9</ele>
        <time>2024-07-02T12:00:11Z</time>
      </trkpt>
      <trkpt lat="44.85611" lon="5.26054">
        <ele>1397.9</ele>
        <time>2024-07-02T12:00:12Z</time>
      </trkpt>
      <trkpt lat="44.85611" lon="5.26054">
        <ele>1397.9</ele>
        <time>2024-07-02T12:00:13Z</time>
      </trkpt>
      <trkpt lat="44.85611" lon="5.26054">
        <ele>1398</ele>
        <time>2024-07-02T12:00:14Z</time>
      </trkpt>
      <trkpt lat="44.85611" lon="5.26054">
        <ele>1398</ele>
        <time>2024-07-02T12:00:15Z</time>
      </trkpt>
      <trkpt lat="44.85611" lon="5.26054">
        <ele>1398</ele>
        <time>2024-07-02T12:00:16Z</time>
      </trkpt>
      <trkpt lat="44.85611" lon="5.26054">
        <ele>1398</ele>
        <time>2024-07-02T12:00:17Z</time>
      </trkpt>
      <trkpt lat="44.85611" lon="5.26054">
        <ele>1398</ele>
        <time>2024-07-02T12:00:18Z</time>
      </trkpt>
      <trkpt lat="44.85611" lon="5.26053">
        <ele>1398</ele>
        <time>2024-07-02T12:00:19Z</time>
      </trkpt>
      <trkpt lat="44.8561" lon="5.26053">
        <ele>1398.1</ele>
        <time>2024-07-02T12:00:20Z</time>
      </trkpt>
      <trkpt lat="44.8561" lon="5.26052">
        <ele>1398.1</ele>
        <time>2024-07-02T12:00:21Z</time>
      </trkpt>
      <trkpt lat="44.8561" lon="5.26051">
        <ele>1398.2</ele>
        <time>2024-07-02T12:00:22Z</time>
      </trkpt>
      <trkpt lat="44.85609" lon="5.26051">
        <ele>1398.2</ele>
        <time>2024-07-02T12:00:23Z</time>
      </trkpt>
      <trkpt lat="44.85608" lon="5.2605">
        <ele>1398.3</ele>
        <time>2024-07-02T12:00:24Z</time>
      </trkpt>
      <trkpt lat="44.85608" lon="5.26049">
        <ele>1398.4</ele>
        <time>2024-07-02T12:00:25Z</time>
      </trkpt>
      <trkpt lat="44.85607" lon="5.26048">
        <ele>1398.4</ele>
        <time>2024-07-02T12:00:26Z</time>
      </trkpt>
      <trkpt lat="44.85606" lon="5.26047">
        <ele>1398.5</ele>
        <time>2024-07-02T12:00:27Z</time>
      </trkpt>
      <trkpt lat="44.85605" lon="5.26046">
        <ele>1398.6</ele>
        <time>2024-07-02T12:00:28Z</time>
      </trkpt>
      <trkpt lat="44.85605" lon="5.26045">
        <ele>1398.7</ele>
        <time>2024-07-02T12:00:29Z</time>
      </trkpt>
      <trkpt lat="44.85604" lon="5.26045">
        <ele>1398.7</ele>
        <time>2024-07-02T12:00:30Z</time>
      </trkpt>
      <trkpt lat="44.85603" lon="5.26044">
        <ele>1398.8</ele>
        <time>2024-07-02T12:00:31Z</time>
      </trkpt>
      <trkpt lat="44.85602" lon="5.26043">
        <ele>1398.9</ele>
        <time>2024-07-02T12:00:32Z</time>
      </trkpt>
      <trkpt lat="44.85601" lon="5.26042">
        <ele>1398.9</ele>
        <time>2024-07-02T12:00:33Z</time>
      </trkpt>
      <trkpt lat="44.856" lon="5.26041">
        <ele>1399</ele>
        <time>2024-07-02T12:00:34Z</time>
      </trkpt>
      <trkpt lat="44.85599" lon="5.26042">
        <ele>1399</ele>
        <time>2024-07-02T12:00:35Z</time>
      </trkpt>
      <trkpt lat="44.85599" lon="5.26043">
        <ele>1399.1</ele>
        <time>2024-07-02T12:00:36Z</time>
      </trkpt>
      <trkpt lat="44.85598" lon="5.26043">
        <ele>1399.1</ele>
        <time>2024-07-02T12:00:37Z</time>
      </trkpt>
      <trkpt lat="44.85597" lon="5.26043">
        <ele>1399.1</ele>
        <time>2024-07-02T12:00:38Z</time>
      </trkpt>
      <trkpt lat="44.85597" lon="5.26043">
        <ele>1399.1</ele>
        <time>2024-07-02T12:00:39Z</time>
      </trkpt>
      <trkpt lat="44.85597" lon="5.26042">
        <ele>1399.1</ele>
        <time>2024-07-02T12:00:40Z</time>
      </trkpt>
      <trkpt lat="44.85598" lon="5.26042">
        <ele>1399.2</ele>
        <time>2024-07-02T12:00:41Z</time>
      </trkpt>
      <trkpt lat="44.85598" lon="5.26041">
        <ele>1399.2</ele>
        <time>2024-07-02T12:00:42Z</time>
      </trkpt>
      <trkpt lat="44.85597" lon="5.26041">
        <ele>1399.2</ele>
        <time>2024-07-02T12:00:43Z</time>
      </trkpt>
      <trkpt lat="44.85596" lon="5.26041">
        <ele>1399.2</ele>
        <time>2024-07-02T12:00:44Z</time>
      </trkpt>
      <trkpt lat="44.85595" lon="5.2604">
        <ele>1399.3</ele>
        <time>2024-07-02T12:00:45Z</time>
      </trkpt>
      <trkpt lat="44.85593" lon="5.26039">
        <ele>1399.3</ele>
        <time>2024-07-02T12:00:46Z</time>
      </trkpt>
      <trkpt lat="44.85592" lon="5.26036">
        <ele>1399.4</ele>
        <time>2024-07-02T12:00:47Z</time>
      </trkpt>
      <trkpt lat="44.85592" lon="5.26035">
        <ele>1399.4</ele>
        <time>2024-07-02T12:00:48Z</time>
      </trkpt>
      <trkpt lat="44.85592" lon="5.26034">
        <ele>1399.4</ele>
        <time>2024-07-02T12:00:49Z</time>
      </trkpt>
      <trkpt lat="44.85591" lon="5.26032">
        <ele>1399.4</ele>
        <time>2024-07-02T12:00:50Z</time>
      </trkpt>
      <trkpt lat="44.8559" lon="5.26032">
        <ele>1399.4</ele>
        <time>2024-07-02T12:00:51Z</time>
      </trkpt>
      <trkpt lat="44.85589" lon="5.26031">
        <ele>1399.4</ele>
        <time>2024-07-02T12:00:52Z</time>
      </trkpt>
      <trkpt lat="44.85588" lon="5.26032">
        <ele>1399.4</ele>
        <time>2024-07-02T12:00:53Z</time>
      </trkpt>
      <trkpt lat="44.85587" lon="5.26032">
        <ele>1399.4</ele>
        <time>2024-07-02T12:00:54Z</time>
      </trkpt>
      <trkpt lat="44.85587" lon="5.26031">
        <ele>1399.4</ele>
        <time>2024-07-02T12:00:55Z</time>
      </trkpt>
      <trkpt lat="44.85586" lon="5.2603">
        <ele>1399.4</ele>
        <time>2024-07-02T12:00:56Z</time>
      </trkpt>
      <trkpt lat="44.85586" lon="5.2603">
        <ele>1399.4</ele>
        <time>2024-07-02T12:00:57Z</time>
      </trkpt>
      <trkpt lat="44.85585" lon="5.26029">
        <ele>1399.4</ele>
        <time>2024-07-02T12:00:58Z</time>
      </trkpt>
      <trkpt lat="44.85583" lon="5.26026">
        <ele>1399.3</ele>
        <time>2024-07-02T12:00:59Z</time>
      </trkpt>
      <trkpt lat="44.85582" lon="5.26024">
        <ele>1399.3</ele>
        <time>2024-07-02T12:01:00Z</time>
      </trkpt>
      <trkpt lat="44.85581" lon="5.26023">
        <ele>1399.3</ele>
        <time>2024-07-02T12:01:01Z</time>
      </trkpt>
      <trkpt lat="44.85581" lon="5.26022">
        <ele>1399.2</ele>
        <time>2024-07-02T12:01:02Z</time>
      </trkpt>
      <trkpt lat="44.8558" lon="5.2602">
        <ele>1399.2</ele>
        <time>2024-07-02T12:01:03Z</time>
      </trkpt>
      <trkpt lat="44.85579" lon="5.26019">
        <ele>1399.1</ele>
        <time>2024-07-02T12:01:04Z</time>
      </trkpt>
      <trkpt lat="44.85578" lon="5.26018">
        <ele>1399.1</ele>
        <time>2024-07-02T12:01:05Z</time>
      </trkpt>
      <trkpt lat="44.85578" lon="5.26018">
        <ele>1399.1</ele>
        <time>2024-07-02T12:01:06Z</time>
      </trkpt>
      <trkpt lat="44.85577" lon="5.26017">
        <ele>1399.1</ele>
        <time>2024-07-02T12:01:07Z</time>
      </trkpt>
      <trkpt lat="44.85576" lon="5.26017">
        <ele>1399</ele>
        <time>2024-07-02T12:01:08Z</time>
      </trkpt>
      <trkpt lat="44.85575" lon="5.26017">
        <ele>1399</ele>
        <time>2024-07-02T12:01:09Z</time>
      </trkpt>
      <trkpt lat="44.85574" lon="5.26016">
        <ele>1399</ele>
        <time>2024-07-02T12:01:10Z</time>
      </trkpt>
      <trkpt lat="44.85573" lon="5.26015">
        <ele>1398.9</ele>
        <time>2024-07-02T12:01:11Z</time>
      </trkpt>
      <trkpt lat="44.85572" lon="5.26014">
        <ele>1398.8</ele>
        <time>2024-07-02T12:01:12Z</time>
      </trkpt>
      <trkpt lat="44.85571" lon="5.26013">
        <ele>1398.8</ele>
        <time>2024-07-02T12:01:13Z</time>
      </trkpt>
      <trkpt lat="44.8557" lon="5.26013">
        <ele>1398.8</ele>
        <time>2024-07-02T12:01:14Z</time>
      </trkpt>
      <trkpt lat="44.85569" lon="5.26013">
        <ele>1398.7</ele>
        <time>2024-07-02T12:01:15Z</time>
      </trkpt>
      <trkpt lat="44.85568" lon="5.26012">
        <ele>1398.7</ele>
        <time>2024-07-02T12:01:16Z</time>
      </trkpt>
      <trkpt lat="44.85567" lon="5.26011">
        <ele>1398.6</ele>
        <time>2024-07-02T12:01:17Z</time>
      </trkpt>
      <trkpt lat="44.85567" lon="5.2601">
        <ele>1398.6</ele>
        <time>2024-07-02T12:01:18Z</time>
      </trkpt>
      <trkpt lat="44.85566" lon="5.26009">
        <ele>1398.5</ele>
        <time>2024-07-02T12:01:19Z</time>
      </trkpt>
      <trkpt lat="44.85565" lon="5.26008">
        <ele>1398.5</ele>
        <time>2024-07-02T12:01:20Z</time>
      </trkpt>
      <trkpt lat="44.85564" lon="5.26007">
        <ele>1398.4</ele>
        <time>2024-07-02T12:01:21Z</time>
      </trkpt>
      <trkpt lat="44.85564" lon="5.26006">
        <ele>1398.4</ele>
        <time>2024-07-02T12:01:22Z</time>
      </trkpt>
      <trkpt lat="44.85563" lon="5.26005">
        <ele>1398.3</ele>
        <time>2024-07-02T12:01:23Z</time>
      </trkpt>
      <trkpt lat="44.85562" lon="5.26004">
        <ele>1398.2</ele>
        <time>2024-07-02T12:01:24Z</time>
      </trkpt>
      <trkpt lat="44.85561" lon="5.26003">
        <ele>1398.2</ele>
        <time>2024-07-02T12:01:25Z</time>
      </trkpt>
      <trkpt lat="44.8556" lon="5.26002">
        <ele>1398.1</ele>
        <time>2024-07-02T12:01:26Z</time>
      </trkpt>
      <trkpt lat="44.8556" lon="5.26002">
        <ele>1398.1</ele>
        <time>2024-07-02T12:01:27Z</time>
      </trkpt>
      <trkpt lat="44.85558" lon="5.26001">
        <ele>1398</ele>
        <time>2024-07-02T12:01:28Z</time>
      </trkpt>
      <trkpt lat="44.85557" lon="5.26">
        <ele>1397.9</ele>
        <time>2024-07-02T12:01:29Z</time>
      </trkpt>
      <trkpt lat="44.85557" lon="5.26">
        <ele>1397.9</ele>
        <time>2024-07-02T12:01:30Z</time>
      </trkpt>
      <trkpt lat="44.85555" lon="5.25999">
        <ele>1397.8</ele>
        <time>2024-07-02T12:01:31Z</time>
      </trkpt>
      <trkpt lat="44.85555" lon="5.25999">
        <ele>1397.7</ele>
        <time>2024-07-02T12:01:32Z</time>
      </trkpt>
      <trkpt lat="44.85553" lon="5.25998">
        <ele>1397.6</ele>
        <time>2024-07-02T12:01:33Z</time>
      </trkpt>
      <trkpt lat="44.85553" lon="5.25997">
        <ele>1397.5</ele>
        <time>2024-07-02T12:01:34Z</time>
      </trkpt>
      <trkpt lat="44.85552" lon="5.25996">
        <ele>1397.5</ele>
        <time>2024-07-02T12:01:35Z</time>
      </trkpt>
      <trkpt lat="44.85551" lon="5.25995">
        <ele>1397.4</ele>
        <time>2024-07-02T12:01:36Z</time>
      </trkpt>
      <trkpt lat="44.85551" lon="5.25994">
        <ele>1397.3</ele>
        <time>2024-07-02T12:01:37Z</time>
      </trkpt>
      <trkpt lat="44.85551" lon="5.25992">
        <ele>1397.2</ele>
        <time>2024-07-02T12:01:38Z</time>
      </trkpt>
      <trkpt lat="44.85551" lon="5.25991">
        <ele>1397.1</ele>
        <time>2024-07-02T12:01:39Z</time>
      </trkpt>
      <trkpt lat="44.85552" lon="5.2599">
        <ele>1397.1</ele>
        <time>2024-07-02T12:01:40Z</time>
      </trkpt>
      <trkpt lat="44.85551" lon="5.25989">
        <ele>1397</ele>
        <time>2024-07-02T12:01:41Z</time>
      </trkpt>
      <trkpt lat="44.8555" lon="5.25989">
        <ele>1396.9</ele>
        <time>2024-07-02T12:01:42Z</time>
      </trkpt>
      <trkpt lat="44.85549" lon="5.25988">
        <ele>1396.8</ele>
        <time>2024-07-02T12:01:43Z</time>
      </trkpt>
      <trkpt lat="44.85549" lon="5.25988">
        <ele>1396.8</ele>
        <time>2024-07-02T12:01:44Z</time>
      </trkpt>
      <trkpt lat="44.85548" lon="5.25987">
        <ele>1396.7</ele>
        <time>2024-07-02T12:01:45Z</time>
      </trkpt>
      <trkpt lat="44.85547" lon="5.25987">
        <ele>1396.7</ele>
        <time>2024-07-02T12:01:46Z</time>
      </trkpt>
      <trkpt lat="44.85547" lon="5.25986">
        <ele>1396.6</ele>
        <time>2024-07-02T12:01:47Z</time>
      </trkpt>
      <trkpt lat="44.85546" lon="5.25985">
        <ele>1396.6</ele>
        <time>2024-07-02T12:01:48Z</time>
      </trkpt>
      <trkpt lat="44.85545" lon="5.25985">
        <ele>1396.5</ele>
        <time>2024-07-02T12:01:49Z</time>
      </trkpt>
      <trkpt lat="44.85544" lon="5.25984">
        <ele>1396.5</ele>
        <time>2024-07-02T12:01:50Z</time>
      </trkpt>
      <trkpt lat="44.85544" lon="5.25984">
        <ele>1396.5</ele>
        <time>2024-07-02T12:01:51Z</time>
      </trkpt>
      <trkpt lat="44.85542" lon="5.25983">
        <ele>1396.4</ele>
        <time>2024-07-02T12:01:52Z</time>
      </trkpt>
      <trkpt lat="44.85541" lon="5.25982">
        <ele>1396.3</ele>
        <time>2024-07-02T12:01:53Z</time>
      </trkpt>
      <trkpt lat="44.8554" lon="5.25982">
        <ele>1396.3</ele>
        <time>2024-07-02T12:01:54Z</time>
      </trkpt>
      <trkpt lat="44.85539" lon="5.25981">
        <ele>1396.3</ele>
        <time>2024-07-02T12:01:55Z</time>
      </trkpt>
      <trkpt lat="44.85538" lon="5.25981">
        <ele>1396.2</ele>
        <time>2024-07-02T12:01:56Z</time>
      </trkpt>
      <trkpt lat="44.85537" lon="5.25981">
        <ele>1396.2</ele>
        <time>2024-07-02T12:01:57Z</time>
      </trkpt>
      <trkpt lat="44.85537" lon="5.2598">
        <ele>1396.2</ele>
        <time>2024-07-02T12:01:58Z</time>
      </trkpt>
      <trkpt lat="44.85536" lon="5.25982">
        <ele>1396.2</ele>
        <time>2024-07-02T12:01:59Z</time>
      </trkpt>
      <trkpt lat="44.85536" lon="5.25984">
        <ele>1396.2</ele>
        <time>2024-07-02T12:02:00Z</time>
      </trkpt>
      <trkpt lat="44.85536" lon="5.25985">
        <ele>1396.2</ele>
        <time>2024-07-02T12:02:01Z</time>
      </trkpt>
      <trkpt lat="44.85536" lon="5.25984">
        <ele>1396.2</ele>
        <time>2024-07-02T12:02:02Z</time>
      </trkpt>
      <trkpt lat="44.85536" lon="5.25983">
        <ele>1396.2</ele>
        <time>2024-07-02T12:02:03Z</time>
      </trkpt>
      <trkpt lat="44.85535" lon="5.25983">
        <ele>1396.2</ele>
        <time>2024-07-02T12:02:04Z</time>
      </trkpt>
      <trkpt lat="44.85535" lon="5.25982">
        <ele>1396.2</ele>
        <time>2024-07-02T12:02:05Z</time>
      </trkpt>
      <trkpt lat="44.85535" lon="5.25982">
        <ele>1396.2</ele>
        <time>2024-07-02T12:02:06Z</time>
      </trkpt>
      <trkpt lat="44.85535" lon="5.25981">
        <ele>1396.2</ele>
        <time>2024-07-02T12:02:07Z</time>
      </trkpt>
      <trkpt lat="44.85534" lon="5.25981">
        <ele>1396.2</ele>
        <time>2024-07-02T12:02:08Z</time>
      </trkpt>
      <trkpt lat="44.85534" lon="5.2598">
        <ele>1396.2</ele>
        <time>2024-07-02T12:02:09Z</time>
      </trkpt>
      <trkpt lat="44.85534" lon="5.25978">
        <ele>1396.2</ele>
        <time>2024-07-02T12:02:10Z</time>
      </trkpt>
      <trkpt lat="44.85534" lon="5.25976">
        <ele>1396.3</ele>
        <time>2024-07-02T12:02:11Z</time>
      </trkpt>
      <trkpt lat="44.85533" lon="5.25974">
        <ele>1396.3</ele>
        <time>2024-07-02T12:02:12Z</time>
      </trkpt>
      <trkpt lat="44.85532" lon="5.25974">
        <ele>1396.4</ele>
        <time>2024-07-02T12:02:13Z</time>
      </trkpt>
      <trkpt lat="44.85531" lon="5.25975">
        <ele>1396.4</ele>
        <time>2024-07-02T12:02:14Z</time>
      </trkpt>
      <trkpt lat="44.85531" lon="5.25975">
        <ele>1396.4</ele>
        <time>2024-07-02T12:02:15Z</time>
      </trkpt>
      <trkpt lat="44.85531" lon="5.25975">
        <ele>1396.4</ele>
        <time>2024-07-02T12:02:16Z</time>
      </trkpt>
      <trkpt lat="44.85531" lon="5.25975">
        <ele>1396.4</ele>
        <time>2024-07-02T12:02:17Z</time>
      </trkpt>
      <trkpt lat="44.85531" lon="5.25975">
        <ele>1396.4</ele>
        <time>2024-07-02T12:02:18Z</time>
      </trkpt>
      <trkpt lat="44.85531" lon="5.25975">
        <ele>1396.5</ele>
        <time>2024-07-02T12:02:19Z</time>
      </trkpt>
      <trkpt lat="44.8553" lon="5.25975">
        <ele>1396.5</ele>
        <time>2024-07-02T12:02:20Z</time>
      </trkpt>
      <trkpt lat="44.8553" lon="5.25975">
        <ele>1396.5</ele>
        <time>2024-07-02T12:02:21Z</time>
      </trkpt>
      <trkpt lat="44.85529" lon="5.25975">
        <ele>1396.5</ele>
        <time>2024-07-02T12:02:22Z</time>
      </trkpt>
      <trkpt lat="44.85529" lon="5.25976">
        <ele>1396.5</ele>
        <time>2024-07-02T12:02:23Z</time>
      </trkpt>
      <trkpt lat="44.85529" lon="5.25976">
        <ele>1396.5</ele>
        <time>2024-07-02T12:02:24Z</time>
      </trkpt>
      <trkpt lat="44.85529" lon="5.25976">
        <ele>1396.6</ele>
        <time>2024-07-02T12:02:25Z</time>
      </trkpt>
      <trkpt lat="44.85528" lon="5.25976">
        <ele>1396.6</ele>
        <time>2024-07-02T12:02:26Z</time>
      </trkpt>
      <trkpt lat="44.85526" lon="5.25976">
        <ele>1396.7</ele>
        <time>2024-07-02T12:02:27Z</time>
      </trkpt>
      <trkpt lat="44.85524" lon="5.25976">
        <ele>1396.8</ele>
        <time>2024-07-02T12:02:28Z</time>
      </trkpt>
      <trkpt lat="44.85523" lon="5.25977">
        <ele>1396.8</ele>
        <time>2024-07-02T12:02:29Z</time>
      </trkpt>
      <trkpt lat="44.85522" lon="5.25977">
        <ele>1396.9</ele>
        <time>2024-07-02T12:02:30Z</time>
      </trkpt>
      <trkpt lat="44.85521" lon="5.25976">
        <ele>1396.9</ele>
        <time>2024-07-02T12:02:31Z</time>
      </trkpt>
      <trkpt lat="44.85521" lon="5.25977">
        <ele>1396.9</ele>
        <time>2024-07-02T12:02:32Z</time>
      </trkpt>
      <trkpt lat="44.85521" lon="5.25977">
        <ele>1397</ele>
        <time>2024-07-02T12:02:33Z</time>
      </trkpt>
      <trkpt lat="44.8552" lon="5.25977">
        <ele>1397</ele>
        <time>2024-07-02T12:02:34Z</time>
      </trkpt>
      <trkpt lat="44.85519" lon="5.25976">
        <ele>1397.1</ele>
        <time>2024-07-02T12:02:35Z</time>
      </trkpt>
      <trkpt lat="44.85518" lon="5.25975">
        <ele>1397.1</ele>
        <time>2024-07-02T12:02:36Z</time>
      </trkpt>
      <trkpt lat="44.85518" lon="5.25974">
        <ele>1397.1</ele>
        <time>2024-07-02T12:02:37Z</time>
      </trkpt>
      <trkpt lat="44.85519" lon="5.25973">
        <ele>1397.2</ele>
        <time>2024-07-02T12:02:38Z</time>
      </trkpt>
      <trkpt lat="44.8552" lon="5.25974">
        <ele>1397.2</ele>
        <time>2024-07-02T12:02:39Z</time>
      </trkpt>
      <trkpt lat="44.8552" lon="5.25974">
        <ele>1397.3</ele>
        <time>2024-07-02T12:02:40Z</time>
      </trkpt>
      <trkpt lat="44.8552" lon="5.25973">
        <ele>1397.3</ele>
        <time>2024-07-02T12:02:41Z</time>
      </trkpt>
      <trkpt lat="44.8552" lon="5.25973">
        <ele>1397.3</ele>
        <time>2024-07-02T12:02:42Z</time>
      </trkpt>
      <trkpt lat="44.85521" lon="5.25973">
        <ele>1397.3</ele>
        <time>2024-07-02T12:02:43Z</time>
      </trkpt>
      <trkpt lat="44.85521" lon="5.25973">
        <ele>1397.3</ele>
        <time>2024-07-02T12:02:44Z</time>
      </trkpt>
      <trkpt lat="44.85521" lon="5.25973">
        <ele>1397.3</ele>
        <time>2024-07-02T12:02:45Z</time>
      </trkpt>
      <trkpt lat="44.85521" lon="5.25973">
        <ele>1397.3</ele>
        <time>2024-07-02T12:02:46Z</time>
      </trkpt>
      <trkpt lat="44.85521" lon="5.25973">
        <ele>1397.3</ele>
        <time>2024-07-02T12:02:47Z</time>
      </trkpt>
      <trkpt lat="44.85522" lon="5.25973">
        <ele>1397.3</ele>
        <time>2024-07-02T12:02:48Z</time>
      </trkpt>
      <trkpt lat="44.85522" lon="5.25973">
        <ele>1397.3</ele>
        <time>2024-07-02T12:02:49Z</time>
      </trkpt>
      <trkpt lat="44.85522" lon="5.25973">
        <ele>1397.4</ele>
        <time>2024-07-02T12:02:50Z</time>
      </trkpt>
      <trkpt lat="44.85522" lon="5.25973">
        <ele>1397.4</ele>
        <time>2024-07-02T12:02:51Z</time>
      </trkpt>
      <trkpt lat="44.85522" lon="5.25973">
        <ele>1397.4</ele>
        <time>2024-07-02T12:02:52Z</time>
      </trkpt>
      <trkpt lat="44.85522" lon="5.25973">
        <ele>1397.4</ele>
        <time>2024-07-02T12:02:53Z</time>
      </trkpt>
      <trkpt lat="44.85522" lon="5.25973">
        <ele>1397.4</ele>
        <time>2024-07-02T12:02:54Z</time>
      </trkpt>
      <trkpt lat="44.85521" lon="5.25972">
        <ele>1397.4</ele>
        <time>2024-07-02T12:02:55Z</time>
      </trkpt>
      <trkpt lat="44.8552" lon="5.25972">
        <ele>1397.4</ele>
        <time>2024-07-02T12:02:56Z</time>
      </trkpt>
      <trkpt lat="44.8552" lon="5.25971">
        <ele>1397.5</ele>
        <time>2024-07-02T12:02:57Z</time>
      </trkpt>
      <trkpt lat="44.85519" lon="5.2597">
        <ele>1397.5</ele>
        <time>2024-07-02T12:02:58Z</time>
      </trkpt>
      <trkpt lat="44.85519" lon="5.2597">
        <ele>1397.5</ele>
        <time>2024-07-02T12:02:59Z</time>
      </trkpt>
      <trkpt lat="44.85518" lon="5.25969">
        <ele>1397.6</ele>
        <time>2024-07-02T12:03:00Z</time>
      </trkpt>
      <trkpt lat="44.85517" lon="5.25968">
        <ele>1397.6</ele>
        <time>2024-07-02T12:03:01Z</time>
      </trkpt>
      <trkpt lat="44.85516" lon="5.25967">
        <ele>1397.7</ele>
        <time>2024-07-02T12:03:02Z</time>
      </trkpt>
      <trkpt lat="44.85516" lon="5.25966">
        <ele>1397.7</ele>
        <time>2024-07-02T12:03:03Z</time>
      </trkpt>
      <trkpt lat="44.85515" lon="5.25965">
        <ele>1397.8</ele>
        <time>2024-07-02T12:03:04Z</time>
      </trkpt>
      <trkpt lat="44.85514" lon="5.25963">
        <ele>1397.9</ele>
        <time>2024-07-02T12:03:05Z</time>
      </trkpt>
      <trkpt lat="44.85513" lon="5.25963">
        <ele>1397.9</ele>
        <time>2024-07-02T12:03:06Z</time>
      </trkpt>
      <trkpt lat="44.85513" lon="5.25962">
        <ele>1397.9</ele>
        <time>2024-07-02T12:03:07Z</time>
      </trkpt>
      <trkpt lat="44.85512" lon="5.25961">
        <ele>1398</ele>
        <time>2024-07-02T12:03:08Z</time>
      </trkpt>
      <trkpt lat="44.85511" lon="5.2596">
        <ele>1398</ele>
        <time>2024-07-02T12:03:09Z</time>
      </trkpt>
      <trkpt lat="44.8551" lon="5.25959">
        <ele>1398.1</ele>
        <time>2024-07-02T12:03:10Z</time>
      </trkpt>
      <trkpt lat="44.85509" lon="5.25958">
        <ele>1398.1</ele>
        <time>2024-07-02T12:03:11Z</time>
      </trkpt>
      <trkpt lat="44.85508" lon="5.25957">
        <ele>1398.2</ele>
        <time>2024-07-02T12:03:12Z</time>
      </trkpt>
      <trkpt lat="44.85508" lon="5.25957">
        <ele>1398.2</ele>
        <time>2024-07-02T12:03:13Z</time>
      </trkpt>
      <trkpt lat="44.85507" lon="5.25956">
        <ele>1398.2</ele>
        <time>2024-07-02T12:03:14Z</time>
      </trkpt>
      <trkpt lat="44.85506" lon="5.25955">
        <ele>1398.2</ele>
        <time>2024-07-02T12:03:15Z</time>
      </trkpt>
      <trkpt lat="44.85505" lon="5.25955">
        <ele>1398.3</ele>
        <time>2024-07-02T12:03:16Z</time>
      </trkpt>
      <trkpt lat="44.85504" lon="5.25954">
        <ele>1398.3</ele>
        <time>2024-07-02T12:03:17Z</time>
      </trkpt>
      <trkpt lat="44.85504" lon="5.25954">
        <ele>1398.3</ele>
        <time>2024-07-02T12:03:18Z</time>
      </trkpt>
      <trkpt lat="44.85504" lon="5.25953">
        <ele>1398.4</ele>
        <time>2024-07-02T12:03:19Z</time>
      </trkpt>
      <trkpt lat="44.85506" lon="5.25952">
        <ele>1398.4</ele>
        <time>2024-07-02T12:03:20Z</time>
      </trkpt>
      <trkpt lat="44.85506" lon="5.25951">
        <ele>1398.4</ele>
        <time>2024-07-02T12:03:21Z</time>
      </trkpt>
      <trkpt lat="44.85506" lon="5.25951">
        <ele>1398.4</ele>
        <time>2024-07-02T12:03:22Z</time>
      </trkpt>
      <trkpt lat="44.85506" lon="5.25952">
        <ele>1398.5</ele>
        <time>2024-07-02T12:03:23Z</time>
      </trkpt>
      <trkpt lat="44.85506" lon="5.25952">
        <ele>1398.5</ele>
        <time>2024-07-02T12:03:24Z</time>
      </trkpt>
      <trkpt lat="44.85506" lon="5.25952">
        <ele>1398.5</ele>
        <time>2024-07-02T12:03:25Z</time>
      </trkpt>
      <trkpt lat="44.85506" lon="5.25952">
        <ele>1398.5</ele>
        <time>2024-07-02T12:03:26Z</time>
      </trkpt>
      <trkpt lat="44.85506" lon="5.25952">
        <ele>1398.5</ele>
        <time>2024-07-02T12:03:27Z</time>
      </trkpt>
      <trkpt lat="44.85506" lon="5.25952">
        <ele>1398.5</ele>
        <time>2024-07-02T12:03:28Z</time>
      </trkpt>
      <trkpt lat="44.85506" lon="5.25952">
        <ele>1398.5</ele>
        <time>2024-07-02T12:03:29Z</time>
      </trkpt>
      <trkpt lat="44.85506" lon="5.25952">
        <ele>1398.5</ele>
        <time>2024-07-02T12:03:30Z</time>
      </trkpt>
      <trkpt lat="44.85505" lon="5.25952">
        <ele>1398.5</ele>
        <time>2024-07-02T12:03:31Z</time>
      </trkpt>
      <trkpt lat="44.85505" lon="5.25952">
        <ele>1398.5</ele>
        <time>2024-07-02T12:03:32Z</time>
      </trkpt>
      <trkpt lat="44.85504" lon="5.25952">
        <ele>1398.5</ele>
        <time>2024-07-02T12:03:33Z</time>
      </trkpt>
      <trkpt lat="44.85503" lon="5.25951">
        <ele>1398.6</ele>
        <time>2024-07-02T12:03:34Z</time>
      </trkpt>
      <trkpt lat="44.85501" lon="5.2595">
        <ele>1398.6</ele>
        <time>2024-07-02T12:03:35Z</time>
      </trkpt>
      <trkpt lat="44.855" lon="5.2595">
        <ele>1398.7</ele>
        <time>2024-07-02T12:03:36Z</time>
      </trkpt>
      <trkpt lat="44.85498" lon="5.25949">
        <ele>1398.7</ele>
        <time>2024-07-02T12:03:37Z</time>
      </trkpt>
      <trkpt lat="44.85497" lon="5.25949">
        <ele>1398.8</ele>
        <time>2024-07-02T12:03:38Z</time>
      </trkpt>
      <trkpt lat="44.85496" lon="5.25948">
        <ele>1398.8</ele>
        <time>2024-07-02T12:03:39Z</time>
      </trkpt>
      <trkpt lat="44.85495" lon="5.25948">
        <ele>1398.8</ele>
        <time>2024-07-02T12:03:40Z</time>
      </trkpt>
      <trkpt lat="44.85494" lon="5.25947">
        <ele>1398.8</ele>
        <time>2024-07-02T12:03:41Z</time>
      </trkpt>
      <trkpt lat="44.85493" lon="5.25947">
        <ele>1398.9</ele>
        <time>2024-07-02T12:03:42Z</time>
      </trkpt>
      <trkpt lat="44.85491" lon="5.25945">
        <ele>1399</ele>
        <time>2024-07-02T12:03:43Z</time>
      </trkpt>
      <trkpt lat="44.8549" lon="5.25945">
        <ele>1399</ele>
        <time>2024-07-02T12:03:44Z</time>
      </trkpt>
      <trkpt lat="44.8549" lon="5.25945">
        <ele>1399</ele>
        <time>2024-07-02T12:03:45Z</time>
      </trkpt>
      <trkpt lat="44.85489" lon="5.25944">
        <ele>1399.1</ele>
        <time>2024-07-02T12:03:46Z</time>
      </trkpt>
      <trkpt lat="44.85488" lon="5.25945">
        <ele>1399.1</ele>
        <time>2024-07-02T12:03:47Z</time>
      </trkpt>
      <trkpt lat="44.85487" lon="5.25945">
        <ele>1399.1</ele>
        <time>2024-07-02T12:03:48Z</time>
      </trkpt>
      <trkpt lat="44.85486" lon="5.25944">
        <ele>1399.2</ele>
        <time>2024-07-02T12:03:49Z</time>
      </trkpt>
      <trkpt lat="44.85485" lon="5.25944">
        <ele>1399.2</ele>
        <time>2024-07-02T12:03:50Z</time>
      </trkpt>
      <trkpt lat="44.85484" lon="5.25943">
        <ele>1399.3</ele>
        <time>2024-07-02T12:03:51Z</time>
      </trkpt>
      <trkpt lat="44.85483" lon="5.25942">
        <ele>1399.3</ele>
        <time>2024-07-02T12:03:52Z</time>
      </trkpt>
      <trkpt lat="44.85482" lon="5.25941">
        <ele>1399.4</ele>
        <time>2024-07-02T12:03:53Z</time>
      </trkpt>
      <trkpt lat="44.85481" lon="5.2594">
        <ele>1399.4</ele>
        <time>2024-07-02T12:03:54Z</time>
      </trkpt>
      <trkpt lat="44.85479" lon="5.25938">
        <ele>1399.5</ele>
        <time>2024-07-02T12:03:55Z</time>
      </trkpt>
      <trkpt lat="44.85478" lon="5.25938">
        <ele>1399.6</ele>
        <time>2024-07-02T12:03:56Z</time>
      </trkpt>
      <trkpt lat="44.85478" lon="5.25937">
        <ele>1399.6</ele>
        <time>2024-07-02T12:03:57Z</time>
      </trkpt>
      <trkpt lat="44.85477" lon="5.25936">
        <ele>1399.7</ele>
        <time>2024-07-02T12:03:58Z</time>
      </trkpt>
      <trkpt lat="44.85476" lon="5.25935">
        <ele>1399.7</ele>
        <time>2024-07-02T12:03:59Z</time>
      </trkpt>
      <trkpt lat="44.85475" lon="5.25934">
        <ele>1399.8</ele>
        <time>2024-07-02T12:04:00Z</time>
      </trkpt>
      <trkpt lat="44.85474" lon="5.25933">
        <ele>1399.9</ele>
        <time>2024-07-02T12:04:01Z</time>
      </trkpt>
      <trkpt lat="44.85473" lon="5.25931">
        <ele>1399.9</ele>
        <time>2024-07-02T12:04:02Z</time>
      </trkpt>
      <trkpt lat="44.85471" lon="5.2593">
        <ele>1400.1</ele>
        <time>2024-07-02T12:04:03Z</time>
      </trkpt>
      <trkpt lat="44.8547" lon="5.25929">
        <ele>1400.1</ele>
        <time>2024-07-02T12:04:04Z</time>
      </trkpt>
      <trkpt lat="44.8547" lon="5.25928">
        <ele>1400.2</ele>
        <time>2024-07-02T12:04:05Z</time>
      </trkpt>
      <trkpt lat="44.85469" lon="5.25928">
        <ele>1400.2</ele>
        <time>2024-07-02T12:04:06Z</time>
      </trkpt>
      <trkpt lat="44.85468" lon="5.25927">
        <ele>1400.3</ele>
        <time>2024-07-02T12:04:07Z</time>
      </trkpt>
      <trkpt lat="44.85466" lon="5.25928">
        <ele>1400.4</ele>
        <time>2024-07-02T12:04:08Z</time>
      </trkpt>
      <trkpt lat="44.85466" lon="5.25929">
        <ele>1400.5</ele>
        <time>2024-07-02T12:04:09Z</time>
      </trkpt>
      <trkpt lat="44.85465" lon="5.25929">
        <ele>1400.5</ele>
        <time>2024-07-02T12:04:10Z</time>
      </trkpt>
      <trkpt lat="44.85465" lon="5.25929">
        <ele>1400.5</ele>
        <time>2024-07-02T12:04:11Z</time>
      </trkpt>
      <trkpt lat="44.85465" lon="5.25928">
        <ele>1400.5</ele>
        <time>2024-07-02T12:04:12Z</time>
      </trkpt>
      <trkpt lat="44.85465" lon="5.25928">
        <ele>1400.5</ele>
        <time>2024-07-02T12:04:13Z</time>
      </trkpt>
      <trkpt lat="44.85465" lon="5.25928">
        <ele>1400.5</ele>
        <time>2024-07-02T12:04:14Z</time>
      </trkpt>
      <trkpt lat="44.85465" lon="5.25927">
        <ele>1400.6</ele>
        <time>2024-07-02T12:04:15Z</time>
      </trkpt>
      <trkpt lat="44.85464" lon="5.25927">
        <ele>1400.6</ele>
        <time>2024-07-02T12:04:16Z</time>
      </trkpt>
      <trkpt lat="44.85464" lon="5.25927">
        <ele>1400.6</ele>
        <time>2024-07-02T12:04:17Z</time>
      </trkpt>
      <trkpt lat="44.85464" lon="5.25927">
        <ele>1400.6</ele>
        <time>2024-07-02T12:04:18Z</time>
      </trkpt>
      <trkpt lat="44.85464" lon="5.25926">
        <ele>1400.6</ele>
        <time>2024-07-02T12:04:19Z</time>
      </trkpt>
      <trkpt lat="44.85464" lon="5.25926">
        <ele>1400.6</ele>
        <time>2024-07-02T12:04:20Z</time>
      </trkpt>
      <trkpt lat="44.85463" lon="5.25926">
        <ele>1400.7</ele>
        <time>2024-07-02T12:04:21Z</time>
      </trkpt>
      <trkpt lat="44.85463" lon="5.25926">
        <ele>1400.7</ele>
        <time>2024-07-02T12:04:22Z</time>
      </trkpt>
      <trkpt lat="44.85463" lon="5.25925">
        <ele>1400.7</ele>
        <time>2024-07-02T12:04:23Z</time>
      </trkpt>
      <trkpt lat="44.85462" lon="5.25924">
        <ele>1400.8</ele>
        <time>2024-07-02T12:04:24Z</time>
      </trkpt>
      <trkpt lat="44.85461" lon="5.25924">
        <ele>1400.8</ele>
        <time>2024-07-02T12:04:25Z</time>
      </trkpt>
      <trkpt lat="44.8546" lon="5.25924">
        <ele>1400.9</ele>
        <time>2024-07-02T12:04:26Z</time>
      </trkpt>
      <trkpt lat="44.8546" lon="5.25924">
        <ele>1400.9</ele>
        <time>2024-07-02T12:04:27Z</time>
      </trkpt>
      <trkpt lat="44.85459" lon="5.25921">
        <ele>1401.1</ele>
        <time>2024-07-02T12:04:28Z</time>
      </trkpt>
      <trkpt lat="44.85458" lon="5.2592">
        <ele>1401.2</ele>
        <time>2024-07-02T12:04:29Z</time>
      </trkpt>
      <trkpt lat="44.85457" lon="5.25918">
        <ele>1401.3</ele>
        <time>2024-07-02T12:04:30Z</time>
      </trkpt>
      <trkpt lat="44.85457" lon="5.25916">
        <ele>1401.4</ele>
        <time>2024-07-02T12:04:31Z</time>
      </trkpt>
      <trkpt lat="44.85456" lon="5.25914">
        <ele>1401.5</ele>
        <time>2024-07-02T12:04:32Z</time>
      </trkpt>
      <trkpt lat="44.85455" lon="5.25913">
        <ele>1401.6</ele>
        <time>2024-07-02T12:04:33Z</time>
      </trkpt>
      <trkpt lat="44.85454" lon="5.25912">
        <ele>1401.6</ele>
        <time>2024-07-02T12:04:34Z</time>
      </trkpt>
      <trkpt lat="44.85453" lon="5.25911">
        <ele>1401.7</ele>
        <time>2024-07-02T12:04:35Z</time>
      </trkpt>
      <trkpt lat="44.85453" lon="5.2591">
        <ele>1401.8</ele>
        <time>2024-07-02T12:04:36Z</time>
      </trkpt>
      <trkpt lat="44.85451" lon="5.25909">
        <ele>1402</ele>
        <time>2024-07-02T12:04:37Z</time>
      </trkpt>
      <trkpt lat="44.8545" lon="5.25909">
        <ele>1402</ele>
        <time>2024-07-02T12:04:38Z</time>
      </trkpt>
      <trkpt lat="44.85449" lon="5.25908">
        <ele>1402.1</ele>
        <time>2024-07-02T12:04:39Z</time>
      </trkpt>
      <trkpt lat="44.85448" lon="5.25908">
        <ele>1402.2</ele>
        <time>2024-07-02T12:04:40Z</time>
      </trkpt>
      <trkpt lat="44.85446" lon="5.25907">
        <ele>1402.3</ele>
        <time>2024-07-02T12:04:41Z</time>
      </trkpt>
      <trkpt lat="44.85445" lon="5.25906">
        <ele>1402.5</ele>
        <time>2024-07-02T12:04:42Z</time>
      </trkpt>
      <trkpt lat="44.85444" lon="5.25906">
        <ele>1402.5</ele>
        <time>2024-07-02T12:04:43Z</time>
      </trkpt>
      <trkpt lat="44.85443" lon="5.25905">
        <ele>1402.6</ele>
        <time>2024-07-02T12:04:44Z</time>
      </trkpt>
      <trkpt lat="44.85442" lon="5.25905">
        <ele>1402.7</ele>
        <time>2024-07-02T12:04:45Z</time>
      </trkpt>
      <trkpt lat="44.8544" lon="5.25904">
        <ele>1402.8</ele>
        <time>2024-07-02T12:04:46Z</time>
      </trkpt>
      <trkpt lat="44.85439" lon="5.25903">
        <ele>1402.9</ele>
        <time>2024-07-02T12:04:47Z</time>
      </trkpt>
      <trkpt lat="44.85438" lon="5.25903">
        <ele>1403</ele>
        <time>2024-07-02T12:04:48Z</time>
      </trkpt>
      <trkpt lat="44.85437" lon="5.25902">
        <ele>1403.1</ele>
        <time>2024-07-02T12:04:49Z</time>
      </trkpt>
      <trkpt lat="44.85436" lon="5.25902">
        <ele>1403.2</ele>
        <time>2024-07-02T12:04:50Z</time>
      </trkpt>
      <trkpt lat="44.85435" lon="5.25902">
        <ele>1403.3</ele>
        <time>2024-07-02T12:04:51Z</time>
      </trkpt>
      <trkpt lat="44.85433" lon="5.25901">
        <ele>1403.4</ele>
        <time>2024-07-02T12:04:52Z</time>
      </trkpt>
      <trkpt lat="44.85432" lon="5.259">
        <ele>1403.5</ele>
        <time>2024-07-02T12:04:53Z</time>
      </trkpt>
      <trkpt lat="44.85431" lon="5.259">
        <ele>1403.6</ele>
        <time>2024-07-02T12:04:54Z</time>
      </trkpt>
      <trkpt lat="44.8543" lon="5.25899">
        <ele>1403.7</ele>
        <time>2024-07-02T12:04:55Z</time>
      </trkpt>
      <trkpt lat="44.85429" lon="5.25899">
        <ele>1403.8</ele>
        <time>2024-07-02T12:04:56Z</time>
      </trkpt>
      <trkpt lat="44.85429" lon="5.25898">
        <ele>1403.8</ele>
        <time>2024-07-02T12:04:57Z</time>
      </trkpt>
      <trkpt lat="44.85428" lon="5.25897">
        <ele>1403.9</ele>
        <time>2024-07-02T12:04:58Z</time>
      </trkpt>
      <trkpt lat="44.85427" lon="5.25897">
        <ele>1404</ele>
        <time>2024-07-02T12:04:59Z</time>
      </trkpt>
      <trkpt lat="44.85426" lon="5.25896">
        <ele>1404.1</ele>
        <time>2024-07-02T12:05:00Z</time>
      </trkpt>
      <trkpt lat="44.85425" lon="5.25896">
        <ele>1404.2</ele>
        <time>2024-07-02T12:05:01Z</time>
      </trkpt>
      <trkpt lat="44.85424" lon="5.25895">
        <ele>1404.4</ele>
        <time>2024-07-02T12:05:02Z</time>
      </trkpt>
      <trkpt lat="44.85422" lon="5.25895">
        <ele>1404.5</ele>
        <time>2024-07-02T12:05:03Z</time>
      </trkpt>
      <trkpt lat="44.85421" lon="5.25894">
        <ele>1404.6</ele>
        <time>2024-07-02T12:05:04Z</time>
      </trkpt>
      <trkpt lat="44.85421" lon="5.25894">
        <ele>1404.7</ele>
        <time>2024-07-02T12:05:05Z</time>
      </trkpt>
      <trkpt lat="44.8542" lon="5.25893">
        <ele>1404.8</ele>
        <time>2024-07-02T12:05:06Z</time>
      </trkpt>
      <trkpt lat="44.85419" lon="5.25892">
        <ele>1404.9</ele>
        <time>2024-07-02T12:05:07Z</time>
      </trkpt>
      <trkpt lat="44.85418" lon="5.25892">
        <ele>1405</ele>
        <time>2024-07-02T12:05:08Z</time>
      </trkpt>
      <trkpt lat="44.85417" lon="5.25891">
        <ele>1405.2</ele>
        <time>2024-07-02T12:05:09Z</time>
      </trkpt>
      <trkpt lat="44.85416" lon="5.25891">
        <ele>1405.3</ele>
        <time>2024-07-02T12:05:10Z</time>
      </trkpt>
      <trkpt lat="44.85415" lon="5.2589">
        <ele>1405.4</ele>
        <time>2024-07-02T12:05:11Z</time>
      </trkpt>
      <trkpt lat="44.85414" lon="5.25889">
        <ele>1405.6</ele>
        <time>2024-07-02T12:05:12Z</time>
      </trkpt>
      <trkpt lat="44.85414" lon="5.25888">
        <ele>1405.7</ele>
        <time>2024-07-02T12:05:13Z</time>
      </trkpt>
      <trkpt lat="44.85413" lon="5.25887">
        <ele>1405.8</ele>
        <time>2024-07-02T12:05:14Z</time>
      </trkpt>
      <trkpt lat="44.85413" lon="5.25886">
        <ele>1405.9</ele>
        <time>2024-07-02T12:05:15Z</time>
      </trkpt>
      <trkpt lat="44.85412" lon="5.25885">
        <ele>1406</ele>
        <time>2024-07-02T12:05:16Z</time>
      </trkpt>
      <trkpt lat="44.85411" lon="5.25884">
        <ele>1406.2</ele>
        <time>2024-07-02T12:05:17Z</time>
      </trkpt>
      <trkpt lat="44.8541" lon="5.25883">
        <ele>1406.3</ele>
        <time>2024-07-02T12:05:18Z</time>
      </trkpt>
      <trkpt lat="44.8541" lon="5.25883">
        <ele>1406.4</ele>
        <time>2024-07-02T12:05:19Z</time>
      </trkpt>
      <trkpt lat="44.85409" lon="5.25882">
        <ele>1406.6</ele>
        <time>2024-07-02T12:05:20Z</time>
      </trkpt>
      <trkpt lat="44.85408" lon="5.25881">
        <ele>1406.7</ele>
        <time>2024-07-02T12:05:21Z</time>
      </trkpt>
      <trkpt lat="44.85407" lon="5.2588">
        <ele>1406.9</ele>
        <time>2024-07-02T12:05:22Z</time>
      </trkpt>
      <trkpt lat="44.85406" lon="5.2588">
        <ele>1407</ele>
        <time>2024-07-02T12:05:23Z</time>
      </trkpt>
      <trkpt lat="44.85405" lon="5.25879">
        <ele>1407.2</ele>
        <time>2024-07-02T12:05:24Z</time>
      </trkpt>
      <trkpt lat="44.85404" lon="5.25879">
        <ele>1407.3</ele>
        <time>2024-07-02T12:05:25Z</time>
      </trkpt>
      <trkpt lat="44.85403" lon="5.25878">
        <ele>1407.5</ele>
        <time>2024-07-02T12:05:26Z</time>
      </trkpt>
      <trkpt lat="44.85402" lon="5.25877">
        <ele>1407.6</ele>
        <time>2024-07-02T12:05:27Z</time>
      </trkpt>
      <trkpt lat="44.85401" lon="5.25877">
        <ele>1407.8</ele>
        <time>2024-07-02T12:05:28Z</time>
      </trkpt>
      <trkpt lat="44.85401" lon="5.25876">
        <ele>1407.9</ele>
        <time>2024-07-02T12:05:29Z</time>
      </trkpt>
      <trkpt lat="44.854" lon="5.25875">
        <ele>1408.1</ele>
        <time>2024-07-02T12:05:30Z</time>
      </trkpt>
      <trkpt lat="44.85399" lon="5.25874">
        <ele>1408.2</ele>
        <time>2024-07-02T12:05:31Z</time>
      </trkpt>
      <trkpt lat="44.85398" lon="5.25872">
        <ele>1408.4</ele>
        <time>2024-07-02T12:05:32Z</time>
      </trkpt>
      <trkpt lat="44.85398" lon="5.25871">
        <ele>1408.6</ele>
        <time>2024-07-02T12:05:33Z</time>
      </trkpt>
      <trkpt lat="44.85397" lon="5.2587">
        <ele>1408.7</ele>
        <time>2024-07-02T12:05:34Z</time>
      </trkpt>
      <trkpt lat="44.85397" lon="5.25869">
        <ele>1408.9</ele>
        <time>2024-07-02T12:05:35Z</time>
      </trkpt>
      <trkpt lat="44.85396" lon="5.25868">
        <ele>1409.1</ele>
        <time>2024-07-02T12:05:36Z</time>
      </trkpt>
      <trkpt lat="44.85396" lon="5.25867">
        <ele>1409.2</ele>
        <time>2024-07-02T12:05:37Z</time>
      </trkpt>
      <trkpt lat="44.85395" lon="5.25865">
        <ele>1409.4</ele>
        <time>2024-07-02T12:05:38Z</time>
      </trkpt>
      <trkpt lat="44.85394" lon="5.25864">
        <ele>1409.5</ele>
        <time>2024-07-02T12:05:39Z</time>
      </trkpt>
      <trkpt lat="44.85393" lon="5.25863">
        <ele>1409.8</ele>
        <time>2024-07-02T12:05:40Z</time>
      </trkpt>
      <trkpt lat="44.85393" lon="5.25862">
        <ele>1409.9</ele>
        <time>2024-07-02T12:05:41Z</time>
      </trkpt>
      <trkpt lat="44.85393" lon="5.25861">
        <ele>1410</ele>
        <time>2024-07-02T12:05:42Z</time>
      </trkpt>
      <trkpt lat="44.85392" lon="5.2586">
        <ele>1410.1</ele>
        <time>2024-07-02T12:05:43Z</time>
      </trkpt>
      <trkpt lat="44.85392" lon="5.25859">
        <ele>1410.3</ele>
        <time>2024-07-02T12:05:44Z</time>
      </trkpt>
      <trkpt lat="44.85391" lon="5.25858">
        <ele>1410.5</ele>
        <time>2024-07-02T12:05:45Z</time>
      </trkpt>
      <trkpt lat="44.8539" lon="5.25857">
        <ele>1410.6</ele>
        <time>2024-07-02T12:05:46Z</time>
      </trkpt>
      <trkpt lat="44.8539" lon="5.25856">
        <ele>1410.8</ele>
        <time>2024-07-02T12:05:47Z</time>
      </trkpt>
      <trkpt lat="44.85389" lon="5.25855">
        <ele>1411</ele>
        <time>2024-07-02T12:05:48Z</time>
      </trkpt>
      <trkpt lat="44.85388" lon="5.25854">
        <ele>1411.1</ele>
        <time>2024-07-02T12:05:49Z</time>
      </trkpt>
      <trkpt lat="44.85388" lon="5.25853">
        <ele>1411.4</ele>
        <time>2024-07-02T12:05:50Z</time>
      </trkpt>
      <trkpt lat="44.85387" lon="5.25852">
        <ele>1411.5</ele>
        <time>2024-07-02T12:05:51Z</time>
      </trkpt>
      <trkpt lat="44.85387" lon="5.25851">
        <ele>1411.7</ele>
        <time>2024-07-02T12:05:52Z</time>
      </trkpt>
      <trkpt lat="44.85386" lon="5.2585">
        <ele>1411.9</ele>
        <time>2024-07-02T12:05:53Z</time>
      </trkpt>
      <trkpt lat="44.85386" lon="5.25849">
        <ele>1412</ele>
        <time>2024-07-02T12:05:54Z</time>
      </trkpt>
      <trkpt lat="44.85385" lon="5.25847">
        <ele>1412.3</ele>
        <time>2024-07-02T12:05:55Z</time>
      </trkpt>
      <trkpt lat="44.85385" lon="5.25846">
        <ele>1412.5</ele>
        <time>2024-07-02T12:05:56Z</time>
      </trkpt>
      <trkpt lat="44.85384" lon="5.25845">
        <ele>1412.7</ele>
        <time>2024-07-02T12:05:57Z</time>
      </trkpt>
      <trkpt lat="44.85383" lon="5.25844">
        <ele>1412.9</ele>
        <time>2024-07-02T12:05:58Z</time>
      </trkpt>
      <trkpt lat="44.85382" lon="5.25842">
        <ele>1413.3</ele>
        <time>2024-07-02T12:05:59Z</time>
      </trkpt>
      <trkpt lat="44.85382" lon="5.25841">
        <ele>1413.4</ele>
        <time>2024-07-02T12:06:00Z</time>
      </trkpt>
      <trkpt lat="44.85382" lon="5.2584">
        <ele>1413.5</ele>
        <time>2024-07-02T12:06:01Z</time>
      </trkpt>
      <trkpt lat="44.85381" lon="5.25839">
        <ele>1413.7</ele>
        <time>2024-07-02T12:06:02Z</time>
      </trkpt>
      <trkpt lat="44.85381" lon="5.25838">
        <ele>1413.9</ele>
        <time>2024-07-02T12:06:03Z</time>
      </trkpt>
      <trkpt lat="44.8538" lon="5.25838">
        <ele>1414</ele>
        <time>2024-07-02T12:06:04Z</time>
      </trkpt>
      <trkpt lat="44.8538" lon="5.25836">
        <ele>1414.2</ele>
        <time>2024-07-02T12:06:05Z</time>
      </trkpt>
      <trkpt lat="44.8538" lon="5.25835">
        <ele>1414.4</ele>
        <time>2024-07-02T12:06:06Z</time>
      </trkpt>
      <trkpt lat="44.85379" lon="5.25835">
        <ele>1414.6</ele>
        <time>2024-07-02T12:06:07Z</time>
      </trkpt>
      <trkpt lat="44.85379" lon="5.25833">
        <ele>1414.8</ele>
        <time>2024-07-02T12:06:08Z</time>
      </trkpt>
      <trkpt lat="44.85378" lon="5.25832">
        <ele>1415</ele>
        <time>2024-07-02T12:06:09Z</time>
      </trkpt>
      <trkpt lat="44.85378" lon="5.25831">
        <ele>1415.2</ele>
        <time>2024-07-02T12:06:10Z</time>
      </trkpt>
      <trkpt lat="44.85377" lon="5.2583">
        <ele>1415.4</ele>
        <time>2024-07-02T12:06:11Z</time>
      </trkpt>
      <trkpt lat="44.85377" lon="5.25829">
        <ele>1415.6</ele>
        <time>2024-07-02T12:06:12Z</time>
      </trkpt>
      <trkpt lat="44.85376" lon="5.25828">
        <ele>1415.9</ele>
        <time>2024-07-02T12:06:13Z</time>
      </trkpt>
      <trkpt lat="44.85375" lon="5.25827">
        <ele>1416.1</ele>
        <time>2024-07-02T12:06:14Z</time>
      </trkpt>
      <trkpt lat="44.85375" lon="5.25826">
        <ele>1416.3</ele>
        <time>2024-07-02T12:06:15Z</time>
      </trkpt>
      <trkpt lat="44.85374" lon="5.25825">
        <ele>1416.5</ele>
        <time>2024-07-02T12:06:16Z</time>
      </trkpt>
      <trkpt lat="44.85374" lon="5.25824">
        <ele>1416.7</ele>
        <time>2024-07-02T12:06:17Z</time>
      </trkpt>
      <trkpt lat="44.85373" lon="5.25822">
        <ele>1417</ele>
        <time>2024-07-02T12:06:18Z</time>
      </trkpt>
      <trkpt lat="44.85372" lon="5.25821">
        <ele>1417.2</ele>
        <time>2024-07-02T12:06:19Z</time>
      </trkpt>
      <trkpt lat="44.85372" lon="5.2582">
        <ele>1417.4</ele>
        <time>2024-07-02T12:06:20Z</time>
      </trkpt>
      <trkpt lat="44.85371" lon="5.25819">
        <ele>1417.6</ele>
        <time>2024-07-02T12:06:21Z</time>
      </trkpt>
      <trkpt lat="44.8537" lon="5.25818">
        <ele>1417.8</ele>
        <time>2024-07-02T12:06:22Z</time>
      </trkpt>
      <trkpt lat="44.8537" lon="5.25817">
        <ele>1418.1</ele>
        <time>2024-07-02T12:06:23Z</time>
      </trkpt>
      <trkpt lat="44.8537" lon="5.25816">
        <ele>1418.3</ele>
        <time>2024-07-02T12:06:24Z</time>
      </trkpt>
      <trkpt lat="44.85369" lon="5.25815">
        <ele>1418.5</ele>
        <time>2024-07-02T12:06:25Z</time>
      </trkpt>
      <trkpt lat="44.85368" lon="5.25814">
        <ele>1418.8</ele>
        <time>2024-07-02T12:06:26Z</time>
      </trkpt>
      <trkpt lat="44.85368" lon="5.25813">
        <ele>1418.9</ele>
        <time>2024-07-02T12:06:27Z</time>
      </trkpt>
      <trkpt lat="44.85367" lon="5.25812">
        <ele>1419.2</ele>
        <time>2024-07-02T12:06:28Z</time>
      </trkpt>
      <trkpt lat="44.85367" lon="5.2581">
        <ele>1419.4</ele>
        <time>2024-07-02T12:06:29Z</time>
      </trkpt>
      <trkpt lat="44.85367" lon="5.25809">
        <ele>1419.6</ele>
        <time>2024-07-02T12:06:30Z</time>
      </trkpt>
      <trkpt lat="44.85366" lon="5.25808">
        <ele>1419.9</ele>
        <time>2024-07-02T12:06:31Z</time>
      </trkpt>
      <trkpt lat="44.85366" lon="5.25807">
        <ele>1420</ele>
        <time>2024-07-02T12:06:32Z</time>
      </trkpt>
      <trkpt lat="44.85365" lon="5.25805">
        <ele>1420.3</ele>
        <time>2024-07-02T12:06:33Z</time>
      </trkpt>
      <trkpt lat="44.85365" lon="5.25805">
        <ele>1420.5</ele>
        <time>2024-07-02T12:06:34Z</time>
      </trkpt>
      <trkpt lat="44.85365" lon="5.25804">
        <ele>1420.7</ele>
        <time>2024-07-02T12:06:35Z</time>
      </trkpt>
      <trkpt lat="44.85364" lon="5.25802">
        <ele>1420.9</ele>
        <time>2024-07-02T12:06:36Z</time>
      </trkpt>
      <trkpt lat="44.85364" lon="5.25802">
        <ele>1421</ele>
        <time>2024-07-02T12:06:37Z</time>
      </trkpt>
      <trkpt lat="44.85363" lon="5.258">
        <ele>1421.3</ele>
        <time>2024-07-02T12:06:38Z</time>
      </trkpt>
      <trkpt lat="44.85363" lon="5.258">
        <ele>1421.5</ele>
        <time>2024-07-02T12:06:39Z</time>
      </trkpt>
      <trkpt lat="44.85362" lon="5.25799">
        <ele>1421.6</ele>
        <time>2024-07-02T12:06:40Z</time>
      </trkpt>
      <trkpt lat="44.85362" lon="5.25798">
        <ele>1421.9</ele>
        <time>2024-07-02T12:06:41Z</time>
      </trkpt>
      <trkpt lat="44.85361" lon="5.25797">
        <ele>1422.1</ele>
        <time>2024-07-02T12:06:42Z</time>
      </trkpt>
      <trkpt lat="44.85361" lon="5.25796">
        <ele>1422.3</ele>
        <time>2024-07-02T12:06:43Z</time>
      </trkpt>
      <trkpt lat="44.8536" lon="5.25795">
        <ele>1422.5</ele>
        <time>2024-07-02T12:06:44Z</time>
      </trkpt>
      <trkpt lat="44.85359" lon="5.25794">
        <ele>1422.7</ele>
        <time>2024-07-02T12:06:45Z</time>
      </trkpt>
      <trkpt lat="44.85358" lon="5.25793">
        <ele>1423</ele>
        <time>2024-07-02T12:06:46Z</time>
      </trkpt>
      <trkpt lat="44.85358" lon="5.25792">
        <ele>1423.1</ele>
        <time>2024-07-02T12:06:47Z</time>
      </trkpt>
      <trkpt lat="44.85358" lon="5.25791">
        <ele>1423.4</ele>
        <time>2024-07-02T12:06:48Z</time>
      </trkpt>
      <trkpt lat="44.85357" lon="5.2579">
        <ele>1423.6</ele>
        <time>2024-07-02T12:06:49Z</time>
      </trkpt>
      <trkpt lat="44.85357" lon="5.25789">
        <ele>1423.8</ele>
        <time>2024-07-02T12:06:50Z</time>
      </trkpt>
      <trkpt lat="44.85356" lon="5.25788">
        <ele>1424</ele>
        <time>2024-07-02T12:06:51Z</time>
      </trkpt>
      <trkpt lat="44.85356" lon="5.25787">
        <ele>1424.1</ele>
        <time>2024-07-02T12:06:52Z</time>
      </trkpt>
      <trkpt lat="44.85356" lon="5.25786">
        <ele>1424.3</ele>
        <time>2024-07-02T12:06:53Z</time>
      </trkpt>
      <trkpt lat="44.85355" lon="5.25785">
        <ele>1424.5</ele>
        <time>2024-07-02T12:06:54Z</time>
      </trkpt>
      <trkpt lat="44.85355" lon="5.25784">
        <ele>1424.7</ele>
        <time>2024-07-02T12:06:55Z</time>
      </trkpt>
      <trkpt lat="44.85354" lon="5.25783">
        <ele>1424.9</ele>
        <time>2024-07-02T12:06:56Z</time>
      </trkpt>
      <trkpt lat="44.85354" lon="5.25782">
        <ele>1425.1</ele>
        <time>2024-07-02T12:06:57Z</time>
      </trkpt>
      <trkpt lat="44.85354" lon="5.25781">
        <ele>1425.2</ele>
        <time>2024-07-02T12:06:58Z</time>
      </trkpt>
      <trkpt lat="44.85353" lon="5.2578">
        <ele>1425.4</ele>
        <time>2024-07-02T12:06:59Z</time>
      </trkpt>
      <trkpt lat="44.85353" lon="5.25779">
        <ele>1425.5</ele>
        <time>2024-07-02T12:07:00Z</time>
      </trkpt>
      <trkpt lat="44.85352" lon="5.25778">
        <ele>1425.7</ele>
        <time>2024-07-02T12:07:01Z</time>
      </trkpt>
      <trkpt lat="44.85352" lon="5.25777">
        <ele>1425.8</ele>
        <time>2024-07-02T12:07:02Z</time>
      </trkpt>
      <trkpt lat="44.85352" lon="5.25777">
        <ele>1425.9</ele>
        <time>2024-07-02T12:07:03Z</time>
      </trkpt>
      <trkpt lat="44.85351" lon="5.25776">
        <ele>1426.1</ele>
        <time>2024-07-02T12:07:04Z</time>
      </trkpt>
      <trkpt lat="44.85351" lon="5.25775">
        <ele>1426.2</ele>
        <time>2024-07-02T12:07:05Z</time>
      </trkpt>
      <trkpt lat="44.8535" lon="5.25773">
        <ele>1426.4</ele>
        <time>2024-07-02T12:07:06Z</time>
      </trkpt>
      <trkpt lat="44.8535" lon="5.25772">
        <ele>1426.6</ele>
        <time>2024-07-02T12:07:07Z</time>
      </trkpt>
      <trkpt lat="44.85349" lon="5.25771">
        <ele>1426.7</ele>
        <time>2024-07-02T12:07:08Z</time>
      </trkpt>
      <trkpt lat="44.85349" lon="5.2577">
        <ele>1426.8</ele>
        <time>2024-07-02T12:07:09Z</time>
      </trkpt>
      <trkpt lat="44.85349" lon="5.2577">
        <ele>1426.9</ele>
        <time>2024-07-02T12:07:10Z</time>
      </trkpt>
      <trkpt lat="44.85348" lon="5.25769">
        <ele>1427</ele>
        <time>2024-07-02T12:07:11Z</time>
      </trkpt>
      <trkpt lat="44.85348" lon="5.25768">
        <ele>1427.1</ele>
        <time>2024-07-02T12:07:12Z</time>
      </trkpt>
      <trkpt lat="44.85347" lon="5.25767">
        <ele>1427.3</ele>
        <time>2024-07-02T12:07:13Z</time>
      </trkpt>
      <trkpt lat="44.85347" lon="5.25766">
        <ele>1427.4</ele>
        <time>2024-07-02T12:07:14Z</time>
      </trkpt>
      <trkpt lat="44.85347" lon="5.25766">
        <ele>1427.5</ele>
        <time>2024-07-02T12:07:15Z</time>
      </trkpt>
      <trkpt lat="44.85346" lon="5.25765">
        <ele>1427.5</ele>
        <time>2024-07-02T12:07:16Z</time>
      </trkpt>
      <trkpt lat="44.85346" lon="5.25763">
        <ele>1427.7</ele>
        <time>2024-07-02T12:07:17Z</time>
      </trkpt>
      <trkpt lat="44.85345" lon="5.25762">
        <ele>1427.8</ele>
        <time>2024-07-02T12:07:18Z</time>
      </trkpt>
      <trkpt lat="44.85345" lon="5.25762">
        <ele>1427.9</ele>
        <time>2024-07-02T12:07:19Z</time>
      </trkpt>
      <trkpt lat="44.85344" lon="5.25761">
        <ele>1428</ele>
        <time>2024-07-02T12:07:20Z</time>
      </trkpt>
      <trkpt lat="44.85344" lon="5.2576">
        <ele>1428.1</ele>
        <time>2024-07-02T12:07:21Z</time>
      </trkpt>
      <trkpt lat="44.85343" lon="5.25758">
        <ele>1428.2</ele>
        <time>2024-07-02T12:07:22Z</time>
      </trkpt>
      <trkpt lat="44.85343" lon="5.25757">
        <ele>1428.3</ele>
        <time>2024-07-02T12:07:23Z</time>
      </trkpt>
      <trkpt lat="44.85342" lon="5.25756">
        <ele>1428.4</ele>
        <time>2024-07-02T12:07:24Z</time>
      </trkpt>
      <trkpt lat="44.85342" lon="5.25756">
        <ele>1428.4</ele>
        <time>2024-07-02T12:07:25Z</time>
      </trkpt>
      <trkpt lat="44.85341" lon="5.25755">
        <ele>1428.5</ele>
        <time>2024-07-02T12:07:26Z</time>
      </trkpt>
      <trkpt lat="44.8534" lon="5.25754">
        <ele>1428.6</ele>
        <time>2024-07-02T12:07:27Z</time>
      </trkpt>
      <trkpt lat="44.8534" lon="5.25753">
        <ele>1428.6</ele>
        <time>2024-07-02T12:07:28Z</time>
      </trkpt>
      <trkpt lat="44.8534" lon="5.25752">
        <ele>1428.7</ele>
        <time>2024-07-02T12:07:29Z</time>
      </trkpt>
      <trkpt lat="44.8534" lon="5.25751">
        <ele>1428.7</ele>
        <time>2024-07-02T12:07:30Z</time>
      </trkpt>
      <trkpt lat="44.85339" lon="5.2575">
        <ele>1428.8</ele>
        <time>2024-07-02T12:07:31Z</time>
      </trkpt>
      <trkpt lat="44.85339" lon="5.25748">
        <ele>1428.8</ele>
        <time>2024-07-02T12:07:32Z</time>
      </trkpt>
      <trkpt lat="44.85339" lon="5.25748">
        <ele>1428.8</ele>
        <time>2024-07-02T12:07:33Z</time>
      </trkpt>
      <trkpt lat="44.85339" lon="5.25746">
        <ele>1428.9</ele>
        <time>2024-07-02T12:07:34Z</time>
      </trkpt>
      <trkpt lat="44.85339" lon="5.25745">
        <ele>1428.9</ele>
        <time>2024-07-02T12:07:35Z</time>
      </trkpt>
      <trkpt lat="44.8534" lon="5.25744">
        <ele>1429</ele>
        <time>2024-07-02T12:07:36Z</time>
      </trkpt>
      <trkpt lat="44.8534" lon="5.25743">
        <ele>1429</ele>
        <time>2024-07-02T12:07:37Z</time>
      </trkpt>
      <trkpt lat="44.85341" lon="5.25742">
        <ele>1429.1</ele>
        <time>2024-07-02T12:07:38Z</time>
      </trkpt>
      <trkpt lat="44.85341" lon="5.25741">
        <ele>1429.1</ele>
        <time>2024-07-02T12:07:39Z</time>
      </trkpt>
      <trkpt lat="44.85342" lon="5.2574">
        <ele>1429.1</ele>
        <time>2024-07-02T12:07:40Z</time>
      </trkpt>
      <trkpt lat="44.85343" lon="5.25739">
        <ele>1429.2</ele>
        <time>2024-07-02T12:07:41Z</time>
      </trkpt>
      <trkpt lat="44.85344" lon="5.25739">
        <ele>1429.2</ele>
        <time>2024-07-02T12:07:42Z</time>
      </trkpt>
      <trkpt lat="44.85345" lon="5.25739">
        <ele>1429.2</ele>
        <time>2024-07-02T12:07:43Z</time>
      </trkpt>
      <trkpt lat="44.85346" lon="5.25739">
        <ele>1429.3</ele>
        <time>2024-07-02T12:07:44Z</time>
      </trkpt>
      <trkpt lat="44.85346" lon="5.25738">
        <ele>1429.3</ele>
        <time>2024-07-02T12:07:45Z</time>
      </trkpt>
      <trkpt lat="44.85347" lon="5.25737">
        <ele>1429.3</ele>
        <time>2024-07-02T12:07:46Z</time>
      </trkpt>
      <trkpt lat="44.85348" lon="5.25736">
        <ele>1429.3</ele>
        <time>2024-07-02T12:07:47Z</time>
      </trkpt>
      <trkpt lat="44.85349" lon="5.25736">
        <ele>1429.4</ele>
        <time>2024-07-02T12:07:48Z</time>
      </trkpt>
      <trkpt lat="44.85349" lon="5.25736">
        <ele>1429.4</ele>
        <time>2024-07-02T12:07:49Z</time>
      </trkpt>
      <trkpt lat="44.8535" lon="5.25735">
        <ele>1429.4</ele>
        <time>2024-07-02T12:07:50Z</time>
      </trkpt>
      <trkpt lat="44.85351" lon="5.25735">
        <ele>1429.4</ele>
        <time>2024-07-02T12:07:51Z</time>
      </trkpt>
      <trkpt lat="44.85351" lon="5.25734">
        <ele>1429.4</ele>
        <time>2024-07-02T12:07:52Z</time>
      </trkpt>
      <trkpt lat="44.85353" lon="5.25734">
        <ele>1429.5</ele>
        <time>2024-07-02T12:07:53Z</time>
      </trkpt>
      <trkpt lat="44.85353" lon="5.25734">
        <ele>1429.5</ele>
        <time>2024-07-02T12:07:54Z</time>
      </trkpt>
      <trkpt lat="44.85353" lon="5.25734">
        <ele>1429.5</ele>
        <time>2024-07-02T12:07:55Z</time>
      </trkpt>
      <trkpt lat="44.85354" lon="5.25734">
        <ele>1429.5</ele>
        <time>2024-07-02T12:07:56Z</time>
      </trkpt>
      <trkpt lat="44.85354" lon="5.25734">
        <ele>1429.5</ele>
        <time>2024-07-02T12:07:57Z</time>
      </trkpt>
      <trkpt lat="44.85354" lon="5.25734">
        <ele>1429.5</ele>
        <time>2024-07-02T12:07:58Z</time>
      </trkpt>
      <trkpt lat="44.85355" lon="5.25733">
        <ele>1429.5</ele>
        <time>2024-07-02T12:07:59Z</time>
      </trkpt>
      <trkpt lat="44.85355" lon="5.25733">
        <ele>1429.5</ele>
        <time>2024-07-02T12:08:00Z</time>
      </trkpt>
      <trkpt lat="44.85355" lon="5.25733">
        <ele>1429.6</ele>
        <time>2024-07-02T12:08:01Z</time>
      </trkpt>
      <trkpt lat="44.85356" lon="5.25732">
        <ele>1429.6</ele>
        <time>2024-07-02T12:08:02Z</time>
      </trkpt>
      <trkpt lat="44.85357" lon="5.2573">
        <ele>1429.6</ele>
        <time>2024-07-02T12:08:03Z</time>
      </trkpt>
      <trkpt lat="44.85358" lon="5.25729">
        <ele>1429.7</ele>
        <time>2024-07-02T12:08:04Z</time>
      </trkpt>
      <trkpt lat="44.85359" lon="5.25728">
        <ele>1429.7</ele>
        <time>2024-07-02T12:08:05Z</time>
      </trkpt>
      <trkpt lat="44.85359" lon="5.25727">
        <ele>1429.7</ele>
        <time>2024-07-02T12:08:06Z</time>
      </trkpt>
      <trkpt lat="44.8536" lon="5.25726">
        <ele>1429.8</ele>
        <time>2024-07-02T12:08:07Z</time>
      </trkpt>
      <trkpt lat="44.85361" lon="5.25725">
        <ele>1429.8</ele>
        <time>2024-07-02T12:08:08Z</time>
      </trkpt>
      <trkpt lat="44.85361" lon="5.25724">
        <ele>1429.8</ele>
        <time>2024-07-02T12:08:09Z</time>
      </trkpt>
      <trkpt lat="44.85362" lon="5.25723">
        <ele>1429.9</ele>
        <time>2024-07-02T12:08:10Z</time>
      </trkpt>
      <trkpt lat="44.85363" lon="5.25723">
        <ele>1429.9</ele>
        <time>2024-07-02T12:08:11Z</time>
      </trkpt>
      <trkpt lat="44.85364" lon="5.25722">
        <ele>1429.9</ele>
        <time>2024-07-02T12:08:12Z</time>
      </trkpt>
      <trkpt lat="44.85365" lon="5.25721">
        <ele>1430</ele>
        <time>2024-07-02T12:08:13Z</time>
      </trkpt>
      <trkpt lat="44.85365" lon="5.2572">
        <ele>1430</ele>
        <time>2024-07-02T12:08:14Z</time>
      </trkpt>
      <trkpt lat="44.85366" lon="5.25719">
        <ele>1430.1</ele>
        <time>2024-07-02T12:08:15Z</time>
      </trkpt>
      <trkpt lat="44.85367" lon="5.25718">
        <ele>1430.1</ele>
        <time>2024-07-02T12:08:16Z</time>
      </trkpt>
      <trkpt lat="44.85368" lon="5.25717">
        <ele>1430.1</ele>
        <time>2024-07-02T12:08:17Z</time>
      </trkpt>
      <trkpt lat="44.85369" lon="5.25716">
        <ele>1430.2</ele>
        <time>2024-07-02T12:08:18Z</time>
      </trkpt>
      <trkpt lat="44.85369" lon="5.25715">
        <ele>1430.2</ele>
        <time>2024-07-02T12:08:19Z</time>
      </trkpt>
      <trkpt lat="44.8537" lon="5.25713">
        <ele>1430.3</ele>
        <time>2024-07-02T12:08:20Z</time>
      </trkpt>
      <trkpt lat="44.85371" lon="5.25712">
        <ele>1430.3</ele>
        <time>2024-07-02T12:08:21Z</time>
      </trkpt>
      <trkpt lat="44.85372" lon="5.25711">
        <ele>1430.4</ele>
        <time>2024-07-02T12:08:22Z</time>
      </trkpt>
      <trkpt lat="44.85373" lon="5.2571">
        <ele>1430.5</ele>
        <time>2024-07-02T12:08:23Z</time>
      </trkpt>
      <trkpt lat="44.85375" lon="5.25709">
        <ele>1430.6</ele>
        <time>2024-07-02T12:08:24Z</time>
      </trkpt>
      <trkpt lat="44.85375" lon="5.25708">
        <ele>1430.6</ele>
        <time>2024-07-02T12:08:25Z</time>
      </trkpt>
      <trkpt lat="44.85376" lon="5.25708">
        <ele>1430.7</ele>
        <time>2024-07-02T12:08:26Z</time>
      </trkpt>
      <trkpt lat="44.85376" lon="5.25707">
        <ele>1430.7</ele>
        <time>2024-07-02T12:08:27Z</time>
      </trkpt>
      <trkpt lat="44.85377" lon="5.25706">
        <ele>1430.8</ele>
        <time>2024-07-02T12:08:28Z</time>
      </trkpt>
      <trkpt lat="44.85378" lon="5.25705">
        <ele>1430.8</ele>
        <time>2024-07-02T12:08:29Z</time>
      </trkpt>
      <trkpt lat="44.85379" lon="5.25704">
        <ele>1430.9</ele>
        <time>2024-07-02T12:08:30Z</time>
      </trkpt>
      <trkpt lat="44.8538" lon="5.25702">
        <ele>1431</ele>
        <time>2024-07-02T12:08:31Z</time>
      </trkpt>
      <trkpt lat="44.85381" lon="5.25701">
        <ele>1431.1</ele>
        <time>2024-07-02T12:08:32Z</time>
      </trkpt>
      <trkpt lat="44.85381" lon="5.257">
        <ele>1431.2</ele>
        <time>2024-07-02T12:08:33Z</time>
      </trkpt>
      <trkpt lat="44.85382" lon="5.25699">
        <ele>1431.2</ele>
        <time>2024-07-02T12:08:34Z</time>
      </trkpt>
      <trkpt lat="44.85382" lon="5.25698">
        <ele>1431.3</ele>
        <time>2024-07-02T12:08:35Z</time>
      </trkpt>
      <trkpt lat="44.85383" lon="5.25697">
        <ele>1431.4</ele>
        <time>2024-07-02T12:08:36Z</time>
      </trkpt>
      <trkpt lat="44.85385" lon="5.25696">
        <ele>1431.5</ele>
        <time>2024-07-02T12:08:37Z</time>
      </trkpt>
      <trkpt lat="44.85386" lon="5.25695">
        <ele>1431.6</ele>
        <time>2024-07-02T12:08:38Z</time>
      </trkpt>
      <trkpt lat="44.85387" lon="5.25695">
        <ele>1431.6</ele>
        <time>2024-07-02T12:08:39Z</time>
      </trkpt>
      <trkpt lat="44.85388" lon="5.25694">
        <ele>1431.7</ele>
        <time>2024-07-02T12:08:40Z</time>
      </trkpt>
      <trkpt lat="44.85389" lon="5.25694">
        <ele>1431.8</ele>
        <time>2024-07-02T12:08:41Z</time>
      </trkpt>
      <trkpt lat="44.8539" lon="5.25693">
        <ele>1431.9</ele>
        <time>2024-07-02T12:08:42Z</time>
      </trkpt>
      <trkpt lat="44.85391" lon="5.25692">
        <ele>1432.1</ele>
        <time>2024-07-02T12:08:43Z</time>
      </trkpt>
      <trkpt lat="44.85392" lon="5.25691">
        <ele>1432.1</ele>
        <time>2024-07-02T12:08:44Z</time>
      </trkpt>
      <trkpt lat="44.85392" lon="5.2569">
        <ele>1432.2</ele>
        <time>2024-07-02T12:08:45Z</time>
      </trkpt>
      <trkpt lat="44.85392" lon="5.25688">
        <ele>1432.3</ele>
        <time>2024-07-02T12:08:46Z</time>
      </trkpt>
      <trkpt lat="44.85391" lon="5.25686">
        <ele>1432.4</ele>
        <time>2024-07-02T12:08:47Z</time>
      </trkpt>
      <trkpt lat="44.85392" lon="5.25685">
        <ele>1432.5</ele>
        <time>2024-07-02T12:08:48Z</time>
      </trkpt>
      <trkpt lat="44.85394" lon="5.25684">
        <ele>1432.7</ele>
        <time>2024-07-02T12:08:49Z</time>
      </trkpt>
      <trkpt lat="44.85395" lon="5.25684">
        <ele>1432.7</ele>
        <time>2024-07-02T12:08:50Z</time>
      </trkpt>
      <trkpt lat="44.85395" lon="5.25683">
        <ele>1432.8</ele>
        <time>2024-07-02T12:08:51Z</time>
      </trkpt>
      <trkpt lat="44.85396" lon="5.25682">
        <ele>1432.9</ele>
        <time>2024-07-02T12:08:52Z</time>
      </trkpt>
      <trkpt lat="44.85397" lon="5.25681">
        <ele>1433</ele>
        <time>2024-07-02T12:08:53Z</time>
      </trkpt>
      <trkpt lat="44.85398" lon="5.2568">
        <ele>1433</ele>
        <time>2024-07-02T12:08:54Z</time>
      </trkpt>
      <trkpt lat="44.85399" lon="5.25679">
        <ele>1433.1</ele>
        <time>2024-07-02T12:08:55Z</time>
      </trkpt>
      <trkpt lat="44.854" lon="5.25679">
        <ele>1433.2</ele>
        <time>2024-07-02T12:08:56Z</time>
      </trkpt>
      <trkpt lat="44.85401" lon="5.25678">
        <ele>1433.3</ele>
        <time>2024-07-02T12:08:57Z</time>
      </trkpt>
      <trkpt lat="44.85401" lon="5.25676">
        <ele>1433.4</ele>
        <time>2024-07-02T12:08:58Z</time>
      </trkpt>
      <trkpt lat="44.85402" lon="5.25675">
        <ele>1433.5</ele>
        <time>2024-07-02T12:08:59Z</time>
      </trkpt>
      <trkpt lat="44.85403" lon="5.25675">
        <ele>1433.6</ele>
        <time>2024-07-02T12:09:00Z</time>
      </trkpt>
      <trkpt lat="44.85404" lon="5.25674">
        <ele>1433.7</ele>
        <time>2024-07-02T12:09:01Z</time>
      </trkpt>
      <trkpt lat="44.85405" lon="5.25673">
        <ele>1433.8</ele>
        <time>2024-07-02T12:09:02Z</time>
      </trkpt>
      <trkpt lat="44.85406" lon="5.25672">
        <ele>1433.9</ele>
        <time>2024-07-02T12:09:03Z</time>
      </trkpt>
      <trkpt lat="44.85407" lon="5.25671">
        <ele>1434</ele>
        <time>2024-07-02T12:09:04Z</time>
      </trkpt>
      <trkpt lat="44.85408" lon="5.2567">
        <ele>1434.1</ele>
        <time>2024-07-02T12:09:05Z</time>
      </trkpt>
      <trkpt lat="44.85409" lon="5.25669">
        <ele>1434.1</ele>
        <time>2024-07-02T12:09:06Z</time>
      </trkpt>
      <trkpt lat="44.8541" lon="5.25668">
        <ele>1434.2</ele>
        <time>2024-07-02T12:09:07Z</time>
      </trkpt>
      <trkpt lat="44.85411" lon="5.25667">
        <ele>1434.3</ele>
        <time>2024-07-02T12:09:08Z</time>
      </trkpt>
      <trkpt lat="44.85411" lon="5.25666">
        <ele>1434.4</ele>
        <time>2024-07-02T12:09:09Z</time>
      </trkpt>
      <trkpt lat="44.85412" lon="5.25665">
        <ele>1434.5</ele>
        <time>2024-07-02T12:09:10Z</time>
      </trkpt>
      <trkpt lat="44.85413" lon="5.25664">
        <ele>1434.6</ele>
        <time>2024-07-02T12:09:11Z</time>
      </trkpt>
      <trkpt lat="44.85413" lon="5.25663">
        <ele>1434.7</ele>
        <time>2024-07-02T12:09:12Z</time>
      </trkpt>
      <trkpt lat="44.85414" lon="5.25661">
        <ele>1434.8</ele>
        <time>2024-07-02T12:09:13Z</time>
      </trkpt>
      <trkpt lat="44.85414" lon="5.2566">
        <ele>1434.9</ele>
        <time>2024-07-02T12:09:14Z</time>
      </trkpt>
      <trkpt lat="44.85415" lon="5.25659">
        <ele>1435</ele>
        <time>2024-07-02T12:09:15Z</time>
      </trkpt>
      <trkpt lat="44.85416" lon="5.25658">
        <ele>1435.1</ele>
        <time>2024-07-02T12:09:16Z</time>
      </trkpt>
      <trkpt lat="44.85416" lon="5.25657">
        <ele>1435.2</ele>
        <time>2024-07-02T12:09:17Z</time>
      </trkpt>
      <trkpt lat="44.85417" lon="5.25656">
        <ele>1435.3</ele>
        <time>2024-07-02T12:09:18Z</time>
      </trkpt>
      <trkpt lat="44.85417" lon="5.25655">
        <ele>1435.4</ele>
        <time>2024-07-02T12:09:19Z</time>
      </trkpt>
      <trkpt lat="44.85418" lon="5.25654">
        <ele>1435.5</ele>
        <time>2024-07-02T12:09:20Z</time>
      </trkpt>
      <trkpt lat="44.85419" lon="5.25653">
        <ele>1435.6</ele>
        <time>2024-07-02T12:09:21Z</time>
      </trkpt>
      <trkpt lat="44.85419" lon="5.25652">
        <ele>1435.6</ele>
        <time>2024-07-02T12:09:22Z</time>
      </trkpt>
      <trkpt lat="44.8542" lon="5.25651">
        <ele>1435.7</ele>
        <time>2024-07-02T12:09:23Z</time>
      </trkpt>
      <trkpt lat="44.8542" lon="5.25649">
        <ele>1435.9</ele>
        <time>2024-07-02T12:09:24Z</time>
      </trkpt>
      <trkpt lat="44.85421" lon="5.25648">
        <ele>1435.9</ele>
        <time>2024-07-02T12:09:25Z</time>
      </trkpt>
      <trkpt lat="44.85422" lon="5.25647">
        <ele>1436</ele>
        <time>2024-07-02T12:09:26Z</time>
      </trkpt>
      <trkpt lat="44.85422" lon="5.25646">
        <ele>1436.2</ele>
        <time>2024-07-02T12:09:27Z</time>
      </trkpt>
      <trkpt lat="44.85423" lon="5.25645">
        <ele>1436.3</ele>
        <time>2024-07-02T12:09:28Z</time>
      </trkpt>
      <trkpt lat="44.85424" lon="5.25643">
        <ele>1436.4</ele>
        <time>2024-07-02T12:09:29Z</time>
      </trkpt>
      <trkpt lat="44.85425" lon="5.25643">
        <ele>1436.5</ele>
        <time>2024-07-02T12:09:30Z</time>
      </trkpt>
      <trkpt lat="44.85426" lon="5.25641">
        <ele>1436.7</ele>
        <time>2024-07-02T12:09:31Z</time>
      </trkpt>
      <trkpt lat="44.85426" lon="5.2564">
        <ele>1436.8</ele>
        <time>2024-07-02T12:09:32Z</time>
      </trkpt>
      <trkpt lat="44.85427" lon="5.25639">
        <ele>1436.9</ele>
        <time>2024-07-02T12:09:33Z</time>
      </trkpt>
      <trkpt lat="44.85428" lon="5.25638">
        <ele>1437.1</ele>
        <time>2024-07-02T12:09:34Z</time>
      </trkpt>
      <trkpt lat="44.85429" lon="5.25637">
        <ele>1437.2</ele>
        <time>2024-07-02T12:09:35Z</time>
      </trkpt>
      <trkpt lat="44.85429" lon="5.25635">
        <ele>1437.3</ele>
        <time>2024-07-02T12:09:36Z</time>
      </trkpt>
      <trkpt lat="44.8543" lon="5.25635">
        <ele>1437.4</ele>
        <time>2024-07-02T12:09:37Z</time>
      </trkpt>
      <trkpt lat="44.85431" lon="5.25634">
        <ele>1437.5</ele>
        <time>2024-07-02T12:09:38Z</time>
      </trkpt>
      <trkpt lat="44.85431" lon="5.25632">
        <ele>1437.7</ele>
        <time>2024-07-02T12:09:39Z</time>
      </trkpt>
      <trkpt lat="44.85432" lon="5.25631">
        <ele>1437.8</ele>
        <time>2024-07-02T12:09:40Z</time>
      </trkpt>
      <trkpt lat="44.85433" lon="5.2563">
        <ele>1437.9</ele>
        <time>2024-07-02T12:09:41Z</time>
      </trkpt>
      <trkpt lat="44.85433" lon="5.2563">
        <ele>1438</ele>
        <time>2024-07-02T12:09:42Z</time>
      </trkpt>
      <trkpt lat="44.85434" lon="5.25629">
        <ele>1438.1</ele>
        <time>2024-07-02T12:09:43Z</time>
      </trkpt>
      <trkpt lat="44.85435" lon="5.25628">
        <ele>1438.3</ele>
        <time>2024-07-02T12:09:44Z</time>
      </trkpt>
      <trkpt lat="44.85436" lon="5.25627">
        <ele>1438.4</ele>
        <time>2024-07-02T12:09:45Z</time>
      </trkpt>
      <trkpt lat="44.85436" lon="5.25626">
        <ele>1438.5</ele>
        <time>2024-07-02T12:09:46Z</time>
      </trkpt>
      <trkpt lat="44.85437" lon="5.25625">
        <ele>1438.7</ele>
        <time>2024-07-02T12:09:47Z</time>
      </trkpt>
      <trkpt lat="44.85438" lon="5.25624">
        <ele>1438.9</ele>
        <time>2024-07-02T12:09:48Z</time>
      </trkpt>
      <trkpt lat="44.85439" lon="5.25623">
        <ele>1439.1</ele>
        <time>2024-07-02T12:09:49Z</time>
      </trkpt>
      <trkpt lat="44.85439" lon="5.25622">
        <ele>1439.2</ele>
        <time>2024-07-02T12:09:50Z</time>
      </trkpt>
      <trkpt lat="44.8544" lon="5.25621">
        <ele>1439.4</ele>
        <time>2024-07-02T12:09:51Z</time>
      </trkpt>
      <trkpt lat="44.85441" lon="5.2562">
        <ele>1439.6</ele>
        <time>2024-07-02T12:09:52Z</time>
      </trkpt>
      <trkpt lat="44.85442" lon="5.25618">
        <ele>1439.7</ele>
        <time>2024-07-02T12:09:53Z</time>
      </trkpt>
      <trkpt lat="44.85442" lon="5.25617">
        <ele>1440</ele>
        <time>2024-07-02T12:09:54Z</time>
      </trkpt>
      <trkpt lat="44.85443" lon="5.25616">
        <ele>1440.1</ele>
        <time>2024-07-02T12:09:55Z</time>
      </trkpt>
      <trkpt lat="44.85444" lon="5.25615">
        <ele>1440.3</ele>
        <time>2024-07-02T12:09:56Z</time>
      </trkpt>
      <trkpt lat="44.85445" lon="5.25614">
        <ele>1440.5</ele>
        <time>2024-07-02T12:09:57Z</time>
      </trkpt>
      <trkpt lat="44.85445" lon="5.25613">
        <ele>1440.7</ele>
        <time>2024-07-02T12:09:58Z</time>
      </trkpt>
      <trkpt lat="44.85447" lon="5.25611">
        <ele>1440.9</ele>
        <time>2024-07-02T12:09:59Z</time>
      </trkpt>
      <trkpt lat="44.85447" lon="5.25611">
        <ele>1441</ele>
        <time>2024-07-02T12:10:00Z</time>
      </trkpt>
      <trkpt lat="44.85448" lon="5.25611">
        <ele>1441.2</ele>
        <time>2024-07-02T12:10:01Z</time>
      </trkpt>
      <trkpt lat="44.85449" lon="5.2561">
        <ele>1441.4</ele>
        <time>2024-07-02T12:10:02Z</time>
      </trkpt>
      <trkpt lat="44.8545" lon="5.25609">
        <ele>1441.6</ele>
        <time>2024-07-02T12:10:03Z</time>
      </trkpt>
      <trkpt lat="44.85451" lon="5.25608">
        <ele>1441.8</ele>
        <time>2024-07-02T12:10:04Z</time>
      </trkpt>
      <trkpt lat="44.85452" lon="5.25608">
        <ele>1442</ele>
        <time>2024-07-02T12:10:05Z</time>
      </trkpt>
      <trkpt lat="44.85452" lon="5.25607">
        <ele>1442.2</ele>
        <time>2024-07-02T12:10:06Z</time>
      </trkpt>
      <trkpt lat="44.85453" lon="5.25606">
        <ele>1442.3</ele>
        <time>2024-07-02T12:10:07Z</time>
      </trkpt>
      <trkpt lat="44.85454" lon="5.25605">
        <ele>1442.5</ele>
        <time>2024-07-02T12:10:08Z</time>
      </trkpt>
      <trkpt lat="44.85455" lon="5.25605">
        <ele>1442.7</ele>
        <time>2024-07-02T12:10:09Z</time>
      </trkpt>
      <trkpt lat="44.85456" lon="5.25604">
        <ele>1442.9</ele>
        <time>2024-07-02T12:10:10Z</time>
      </trkpt>
      <trkpt lat="44.85456" lon="5.25603">
        <ele>1443</ele>
        <time>2024-07-02T12:10:11Z</time>
      </trkpt>
      <trkpt lat="44.85457" lon="5.25602">
        <ele>1443.3</ele>
        <time>2024-07-02T12:10:12Z</time>
      </trkpt>
      <trkpt lat="44.85458" lon="5.25601">
        <ele>1443.4</ele>
        <time>2024-07-02T12:10:13Z</time>
      </trkpt>
      <trkpt lat="44.85459" lon="5.256">
        <ele>1443.6</ele>
        <time>2024-07-02T12:10:14Z</time>
      </trkpt>
      <trkpt lat="44.8546" lon="5.256">
        <ele>1443.8</ele>
        <time>2024-07-02T12:10:15Z</time>
      </trkpt>
      <trkpt lat="44.8546" lon="5.256">
        <ele>1443.9</ele>
        <time>2024-07-02T12:10:16Z</time>
      </trkpt>
      <trkpt lat="44.85461" lon="5.256">
        <ele>1444.1</ele>
        <time>2024-07-02T12:10:17Z</time>
      </trkpt>
      <trkpt lat="44.85462" lon="5.25599">
        <ele>1444.3</ele>
        <time>2024-07-02T12:10:18Z</time>
      </trkpt>
      <trkpt lat="44.85463" lon="5.25599">
        <ele>1444.5</ele>
        <time>2024-07-02T12:10:19Z</time>
      </trkpt>
      <trkpt lat="44.85464" lon="5.25598">
        <ele>1444.7</ele>
        <time>2024-07-02T12:10:20Z</time>
      </trkpt>
      <trkpt lat="44.85464" lon="5.25597">
        <ele>1444.8</ele>
        <time>2024-07-02T12:10:21Z</time>
      </trkpt>
      <trkpt lat="44.85465" lon="5.25596">
        <ele>1445.1</ele>
        <time>2024-07-02T12:10:22Z</time>
      </trkpt>
      <trkpt lat="44.85466" lon="5.25596">
        <ele>1445.2</ele>
        <time>2024-07-02T12:10:23Z</time>
      </trkpt>
      <trkpt lat="44.85468" lon="5.25595">
        <ele>1445.6</ele>
        <time>2024-07-02T12:10:24Z</time>
      </trkpt>
      <trkpt lat="44.85468" lon="5.25594">
        <ele>1445.7</ele>
        <time>2024-07-02T12:10:25Z</time>
      </trkpt>
      <trkpt lat="44.85469" lon="5.25594">
        <ele>1445.9</ele>
        <time>2024-07-02T12:10:26Z</time>
      </trkpt>
      <trkpt lat="44.8547" lon="5.25594">
        <ele>1446</ele>
        <time>2024-07-02T12:10:27Z</time>
      </trkpt>
      <trkpt lat="44.85471" lon="5.25593">
        <ele>1446.2</ele>
        <time>2024-07-02T12:10:28Z</time>
      </trkpt>
      <trkpt lat="44.85471" lon="5.25593">
        <ele>1446.4</ele>
        <time>2024-07-02T12:10:29Z</time>
      </trkpt>
      <trkpt lat="44.85472" lon="5.25592">
        <ele>1446.6</ele>
        <time>2024-07-02T12:10:30Z</time>
      </trkpt>
      <trkpt lat="44.85473" lon="5.25592">
        <ele>1446.8</ele>
        <time>2024-07-02T12:10:31Z</time>
      </trkpt>
      <trkpt lat="44.85474" lon="5.25592">
        <ele>1447</ele>
        <time>2024-07-02T12:10:32Z</time>
      </trkpt>
      <trkpt lat="44.85475" lon="5.25592">
        <ele>1447.2</ele>
        <time>2024-07-02T12:10:33Z</time>
      </trkpt>
      <trkpt lat="44.85476" lon="5.25592">
        <ele>1447.5</ele>
        <time>2024-07-02T12:10:34Z</time>
      </trkpt>
      <trkpt lat="44.85477" lon="5.25592">
        <ele>1447.7</ele>
        <time>2024-07-02T12:10:35Z</time>
      </trkpt>
      <trkpt lat="44.85478" lon="5.25591">
        <ele>1447.9</ele>
        <time>2024-07-02T12:10:36Z</time>
      </trkpt>
      <trkpt lat="44.85479" lon="5.25591">
        <ele>1448.2</ele>
        <time>2024-07-02T12:10:37Z</time>
      </trkpt>
      <trkpt lat="44.8548" lon="5.2559">
        <ele>1448.4</ele>
        <time>2024-07-02T12:10:38Z</time>
      </trkpt>
      <trkpt lat="44.85481" lon="5.2559">
        <ele>1448.6</ele>
        <time>2024-07-02T12:10:39Z</time>
      </trkpt>
      <trkpt lat="44.85482" lon="5.25589">
        <ele>1448.8</ele>
        <time>2024-07-02T12:10:40Z</time>
      </trkpt>
      <trkpt lat="44.85482" lon="5.25588">
        <ele>1449</ele>
        <time>2024-07-02T12:10:41Z</time>
      </trkpt>
      <trkpt lat="44.85483" lon="5.25588">
        <ele>1449.3</ele>
        <time>2024-07-02T12:10:42Z</time>
      </trkpt>
      <trkpt lat="44.85484" lon="5.25587">
        <ele>1449.5</ele>
        <time>2024-07-02T12:10:43Z</time>
      </trkpt>
      <trkpt lat="44.85485" lon="5.25586">
        <ele>1449.7</ele>
        <time>2024-07-02T12:10:44Z</time>
      </trkpt>
      <trkpt lat="44.85486" lon="5.25586">
        <ele>1449.9</ele>
        <time>2024-07-02T12:10:45Z</time>
      </trkpt>
      <trkpt lat="44.85486" lon="5.25585">
        <ele>1450.1</ele>
        <time>2024-07-02T12:10:46Z</time>
      </trkpt>
      <trkpt lat="44.85487" lon="5.25585">
        <ele>1450.4</ele>
        <time>2024-07-02T12:10:47Z</time>
      </trkpt>
      <trkpt lat="44.85488" lon="5.25584">
        <ele>1450.5</ele>
        <time>2024-07-02T12:10:48Z</time>
      </trkpt>
      <trkpt lat="44.85489" lon="5.25584">
        <ele>1450.7</ele>
        <time>2024-07-02T12:10:49Z</time>
      </trkpt>
      <trkpt lat="44.8549" lon="5.25584">
        <ele>1450.9</ele>
        <time>2024-07-02T12:10:50Z</time>
      </trkpt>
      <trkpt lat="44.8549" lon="5.25584">
        <ele>1451.1</ele>
        <time>2024-07-02T12:10:51Z</time>
      </trkpt>
      <trkpt lat="44.85491" lon="5.25584">
        <ele>1451.3</ele>
        <time>2024-07-02T12:10:52Z</time>
      </trkpt>
      <trkpt lat="44.85492" lon="5.25584">
        <ele>1451.5</ele>
        <time>2024-07-02T12:10:53Z</time>
      </trkpt>
      <trkpt lat="44.85493" lon="5.25583">
        <ele>1451.8</ele>
        <time>2024-07-02T12:10:54Z</time>
      </trkpt>
      <trkpt lat="44.85494" lon="5.25583">
        <ele>1452</ele>
        <time>2024-07-02T12:10:55Z</time>
      </trkpt>
      <trkpt lat="44.85495" lon="5.25583">
        <ele>1452.2</ele>
        <time>2024-07-02T12:10:56Z</time>
      </trkpt>
      <trkpt lat="44.85496" lon="5.25583">
        <ele>1452.5</ele>
        <time>2024-07-02T12:10:57Z</time>
      </trkpt>
      <trkpt lat="44.85496" lon="5.25582">
        <ele>1452.6</ele>
        <time>2024-07-02T12:10:58Z</time>
      </trkpt>
      <trkpt lat="44.85497" lon="5.25582">
        <ele>1452.8</ele>
        <time>2024-07-02T12:10:59Z</time>
      </trkpt>
      <trkpt lat="44.85498" lon="5.25582">
        <ele>1453.1</ele>
        <time>2024-07-02T12:11:00Z</time>
      </trkpt>
      <trkpt lat="44.85499" lon="5.25582">
        <ele>1453.2</ele>
        <time>2024-07-02T12:11:01Z</time>
      </trkpt>
      <trkpt lat="44.855" lon="5.25582">
        <ele>1453.5</ele>
        <time>2024-07-02T12:11:02Z</time>
      </trkpt>
      <trkpt lat="44.85501" lon="5.25582">
        <ele>1453.8</ele>
        <time>2024-07-02T12:11:03Z</time>
      </trkpt>
      <trkpt lat="44.85502" lon="5.25581">
        <ele>1454.2</ele>
        <time>2024-07-02T12:11:04Z</time>
      </trkpt>
      <trkpt lat="44.85502" lon="5.25581">
        <ele>1454.3</ele>
        <time>2024-07-02T12:11:05Z</time>
      </trkpt>
      <trkpt lat="44.85503" lon="5.2558">
        <ele>1454.5</ele>
        <time>2024-07-02T12:11:06Z</time>
      </trkpt>
      <trkpt lat="44.85504" lon="5.2558">
        <ele>1454.8</ele>
        <time>2024-07-02T12:11:07Z</time>
      </trkpt>
      <trkpt lat="44.85505" lon="5.25579">
        <ele>1455</ele>
        <time>2024-07-02T12:11:08Z</time>
      </trkpt>
      <trkpt lat="44.85505" lon="5.25578">
        <ele>1455.3</ele>
        <time>2024-07-02T12:11:09Z</time>
      </trkpt>
      <trkpt lat="44.85506" lon="5.25578">
        <ele>1455.5</ele>
        <time>2024-07-02T12:11:10Z</time>
      </trkpt>
      <trkpt lat="44.85507" lon="5.25578">
        <ele>1455.7</ele>
        <time>2024-07-02T12:11:11Z</time>
      </trkpt>
      <trkpt lat="44.85507" lon="5.25577">
        <ele>1455.9</ele>
        <time>2024-07-02T12:11:12Z</time>
      </trkpt>
      <trkpt lat="44.85508" lon="5.25576">
        <ele>1456.2</ele>
        <time>2024-07-02T12:11:13Z</time>
      </trkpt>
      <trkpt lat="44.85509" lon="5.25576">
        <ele>1456.6</ele>
        <time>2024-07-02T12:11:14Z</time>
      </trkpt>
      <trkpt lat="44.8551" lon="5.25576">
        <ele>1456.8</ele>
        <time>2024-07-02T12:11:15Z</time>
      </trkpt>
      <trkpt lat="44.8551" lon="5.25575">
        <ele>1456.9</ele>
        <time>2024-07-02T12:11:16Z</time>
      </trkpt>
      <trkpt lat="44.85511" lon="5.25575">
        <ele>1457.1</ele>
        <time>2024-07-02T12:11:17Z</time>
      </trkpt>
      <trkpt lat="44.85512" lon="5.25574">
        <ele>1457.3</ele>
        <time>2024-07-02T12:11:18Z</time>
      </trkpt>
      <trkpt lat="44.85512" lon="5.25574">
        <ele>1457.6</ele>
        <time>2024-07-02T12:11:19Z</time>
      </trkpt>
      <trkpt lat="44.85513" lon="5.25573">
        <ele>1457.8</ele>
        <time>2024-07-02T12:11:20Z</time>
      </trkpt>
      <trkpt lat="44.85513" lon="5.25573">
        <ele>1458</ele>
        <time>2024-07-02T12:11:21Z</time>
      </trkpt>
      <trkpt lat="44.85514" lon="5.25572">
        <ele>1458.2</ele>
        <time>2024-07-02T12:11:22Z</time>
      </trkpt>
      <trkpt lat="44.85515" lon="5.25571">
        <ele>1458.5</ele>
        <time>2024-07-02T12:11:23Z</time>
      </trkpt>
      <trkpt lat="44.85515" lon="5.2557">
        <ele>1458.7</ele>
        <time>2024-07-02T12:11:24Z</time>
      </trkpt>
      <trkpt lat="44.85516" lon="5.2557">
        <ele>1458.9</ele>
        <time>2024-07-02T12:11:25Z</time>
      </trkpt>
      <trkpt lat="44.85516" lon="5.25569">
        <ele>1459.1</ele>
        <time>2024-07-02T12:11:26Z</time>
      </trkpt>
      <trkpt lat="44.85517" lon="5.25568">
        <ele>1459.4</ele>
        <time>2024-07-02T12:11:27Z</time>
      </trkpt>
      <trkpt lat="44.85517" lon="5.25568">
        <ele>1459.5</ele>
        <time>2024-07-02T12:11:28Z</time>
      </trkpt>
      <trkpt lat="44.85518" lon="5.25567">
        <ele>1459.7</ele>
        <time>2024-07-02T12:11:29Z</time>
      </trkpt>
      <trkpt lat="44.85518" lon="5.25567">
        <ele>1459.8</ele>
        <time>2024-07-02T12:11:30Z</time>
      </trkpt>
      <trkpt lat="44.85519" lon="5.25567">
        <ele>1459.9</ele>
        <time>2024-07-02T12:11:31Z</time>
      </trkpt>
      <trkpt lat="44.85519" lon="5.25566">
        <ele>1460.1</ele>
        <time>2024-07-02T12:11:32Z</time>
      </trkpt>
      <trkpt lat="44.8552" lon="5.25565">
        <ele>1460.4</ele>
        <time>2024-07-02T12:11:33Z</time>
      </trkpt>
      <trkpt lat="44.85521" lon="5.25565">
        <ele>1460.6</ele>
        <time>2024-07-02T12:11:34Z</time>
      </trkpt>
      <trkpt lat="44.85521" lon="5.25565">
        <ele>1460.8</ele>
        <time>2024-07-02T12:11:35Z</time>
      </trkpt>
      <trkpt lat="44.85522" lon="5.25565">
        <ele>1461</ele>
        <time>2024-07-02T12:11:36Z</time>
      </trkpt>
      <trkpt lat="44.85523" lon="5.25564">
        <ele>1461.1</ele>
        <time>2024-07-02T12:11:37Z</time>
      </trkpt>
      <trkpt lat="44.85523" lon="5.25563">
        <ele>1461.4</ele>
        <time>2024-07-02T12:11:38Z</time>
      </trkpt>
      <trkpt lat="44.85524" lon="5.25563">
        <ele>1461.5</ele>
        <time>2024-07-02T12:11:39Z</time>
      </trkpt>
      <trkpt lat="44.85524" lon="5.25563">
        <ele>1461.6</ele>
        <time>2024-07-02T12:11:40Z</time>
      </trkpt>
      <trkpt lat="44.85525" lon="5.25563">
        <ele>1461.8</ele>
        <time>2024-07-02T12:11:41Z</time>
      </trkpt>
      <trkpt lat="44.85526" lon="5.25562">
        <ele>1461.9</ele>
        <time>2024-07-02T12:11:42Z</time>
      </trkpt>
      <trkpt lat="44.85526" lon="5.25562">
        <ele>1462.1</ele>
        <time>2024-07-02T12:11:43Z</time>
      </trkpt>
      <trkpt lat="44.85527" lon="5.25562">
        <ele>1462.2</ele>
        <time>2024-07-02T12:11:44Z</time>
      </trkpt>
      <trkpt lat="44.85527" lon="5.25562">
        <ele>1462.4</ele>
        <time>2024-07-02T12:11:45Z</time>
      </trkpt>
      <trkpt lat="44.85528" lon="5.25561">
        <ele>1462.6</ele>
        <time>2024-07-02T12:11:46Z</time>
      </trkpt>
      <trkpt lat="44.85528" lon="5.2556">
        <ele>1462.7</ele>
        <time>2024-07-02T12:11:47Z</time>
      </trkpt>
      <trkpt lat="44.85529" lon="5.25559">
        <ele>1462.9</ele>
        <time>2024-07-02T12:11:48Z</time>
      </trkpt>
      <trkpt lat="44.85528" lon="5.25558">
        <ele>1463.1</ele>
        <time>2024-07-02T12:11:49Z</time>
      </trkpt>
      <trkpt lat="44.85529" lon="5.25557">
        <ele>1463.2</ele>
        <time>2024-07-02T12:11:50Z</time>
      </trkpt>
      <trkpt lat="44.8553" lon="5.25556">
        <ele>1463.4</ele>
        <time>2024-07-02T12:11:51Z</time>
      </trkpt>
      <trkpt lat="44.85531" lon="5.25556">
        <ele>1463.7</ele>
        <time>2024-07-02T12:11:52Z</time>
      </trkpt>
      <trkpt lat="44.85532" lon="5.25555">
        <ele>1463.9</ele>
        <time>2024-07-02T12:11:53Z</time>
      </trkpt>
      <trkpt lat="44.85532" lon="5.25554">
        <ele>1464.1</ele>
        <time>2024-07-02T12:11:54Z</time>
      </trkpt>
      <trkpt lat="44.85533" lon="5.25553">
        <ele>1464.4</ele>
        <time>2024-07-02T12:11:55Z</time>
      </trkpt>
      <trkpt lat="44.85534" lon="5.25552">
        <ele>1464.7</ele>
        <time>2024-07-02T12:11:56Z</time>
      </trkpt>
      <trkpt lat="44.85535" lon="5.25551">
        <ele>1464.8</ele>
        <time>2024-07-02T12:11:57Z</time>
      </trkpt>
      <trkpt lat="44.85535" lon="5.25551">
        <ele>1465</ele>
        <time>2024-07-02T12:11:58Z</time>
      </trkpt>
      <trkpt lat="44.85536" lon="5.2555">
        <ele>1465.1</ele>
        <time>2024-07-02T12:11:59Z</time>
      </trkpt>
      <trkpt lat="44.85536" lon="5.25549">
        <ele>1465.3</ele>
        <time>2024-07-02T12:12:00Z</time>
      </trkpt>
      <trkpt lat="44.85537" lon="5.25548">
        <ele>1465.5</ele>
        <time>2024-07-02T12:12:01Z</time>
      </trkpt>
      <trkpt lat="44.85538" lon="5.25547">
        <ele>1465.7</ele>
        <time>2024-07-02T12:12:02Z</time>
      </trkpt>
      <trkpt lat="44.85538" lon="5.25546">
        <ele>1465.8</ele>
        <time>2024-07-02T12:12:03Z</time>
      </trkpt>
      <trkpt lat="44.85538" lon="5.25545">
        <ele>1466</ele>
        <time>2024-07-02T12:12:04Z</time>
      </trkpt>
      <trkpt lat="44.85539" lon="5.25544">
        <ele>1466.2</ele>
        <time>2024-07-02T12:12:05Z</time>
      </trkpt>
      <trkpt lat="44.85539" lon="5.25544">
        <ele>1466.4</ele>
        <time>2024-07-02T12:12:06Z</time>
      </trkpt>
      <trkpt lat="44.8554" lon="5.25543">
        <ele>1466.5</ele>
        <time>2024-07-02T12:12:07Z</time>
      </trkpt>
      <trkpt lat="44.85541" lon="5.25543">
        <ele>1466.6</ele>
        <time>2024-07-02T12:12:08Z</time>
      </trkpt>
      <trkpt lat="44.85542" lon="5.25542">
        <ele>1466.9</ele>
        <time>2024-07-02T12:12:09Z</time>
      </trkpt>
      <trkpt lat="44.85542" lon="5.25541">
        <ele>1467</ele>
        <time>2024-07-02T12:12:10Z</time>
      </trkpt>
      <trkpt lat="44.85543" lon="5.25541">
        <ele>1467.1</ele>
        <time>2024-07-02T12:12:11Z</time>
      </trkpt>
      <trkpt lat="44.85544" lon="5.25541">
        <ele>1467.3</ele>
        <time>2024-07-02T12:12:12Z</time>
      </trkpt>
      <trkpt lat="44.85544" lon="5.25541">
        <ele>1467.5</ele>
        <time>2024-07-02T12:12:13Z</time>
      </trkpt>
      <trkpt lat="44.85546" lon="5.2554">
        <ele>1467.7</ele>
        <time>2024-07-02T12:12:14Z</time>
      </trkpt>
      <trkpt lat="44.85546" lon="5.2554">
        <ele>1467.8</ele>
        <time>2024-07-02T12:12:15Z</time>
      </trkpt>
      <trkpt lat="44.85546" lon="5.25539">
        <ele>1467.9</ele>
        <time>2024-07-02T12:12:16Z</time>
      </trkpt>
      <trkpt lat="44.85547" lon="5.25539">
        <ele>1468</ele>
        <time>2024-07-02T12:12:17Z</time>
      </trkpt>
      <trkpt lat="44.85547" lon="5.25538">
        <ele>1468.1</ele>
        <time>2024-07-02T12:12:18Z</time>
      </trkpt>
      <trkpt lat="44.85548" lon="5.25537">
        <ele>1468.4</ele>
        <time>2024-07-02T12:12:19Z</time>
      </trkpt>
      <trkpt lat="44.85548" lon="5.25537">
        <ele>1468.4</ele>
        <time>2024-07-02T12:12:20Z</time>
      </trkpt>
      <trkpt lat="44.85549" lon="5.25536">
        <ele>1468.6</ele>
        <time>2024-07-02T12:12:21Z</time>
      </trkpt>
      <trkpt lat="44.85549" lon="5.25535">
        <ele>1468.8</ele>
        <time>2024-07-02T12:12:22Z</time>
      </trkpt>
      <trkpt lat="44.85549" lon="5.25534">
        <ele>1468.9</ele>
        <time>2024-07-02T12:12:23Z</time>
      </trkpt>
      <trkpt lat="44.8555" lon="5.25532">
        <ele>1469.1</ele>
        <time>2024-07-02T12:12:24Z</time>
      </trkpt>
      <trkpt lat="44.85551" lon="5.25532">
        <ele>1469.3</ele>
        <time>2024-07-02T12:12:25Z</time>
      </trkpt>
      <trkpt lat="44.85551" lon="5.25531">
        <ele>1469.5</ele>
        <time>2024-07-02T12:12:26Z</time>
      </trkpt>
      <trkpt lat="44.85552" lon="5.2553">
        <ele>1469.6</ele>
        <time>2024-07-02T12:12:27Z</time>
      </trkpt>
      <trkpt lat="44.85553" lon="5.2553">
        <ele>1469.7</ele>
        <time>2024-07-02T12:12:28Z</time>
      </trkpt>
      <trkpt lat="44.85553" lon="5.25529">
        <ele>1469.9</ele>
        <time>2024-07-02T12:12:29Z</time>
      </trkpt>
      <trkpt lat="44.85554" lon="5.25528">
        <ele>1470.1</ele>
        <time>2024-07-02T12:12:30Z</time>
      </trkpt>
      <trkpt lat="44.85555" lon="5.25528">
        <ele>1470.2</ele>
        <time>2024-07-02T12:12:31Z</time>
      </trkpt>
      <trkpt lat="44.85555" lon="5.25527">
        <ele>1470.3</ele>
        <time>2024-07-02T12:12:32Z</time>
      </trkpt>
      <trkpt lat="44.85556" lon="5.25527">
        <ele>1470.5</ele>
        <time>2024-07-02T12:12:33Z</time>
      </trkpt>
      <trkpt lat="44.85557" lon="5.25526">
        <ele>1470.7</ele>
        <time>2024-07-02T12:12:34Z</time>
      </trkpt>
      <trkpt lat="44.85557" lon="5.25525">
        <ele>1470.9</ele>
        <time>2024-07-02T12:12:35Z</time>
      </trkpt>
      <trkpt lat="44.85558" lon="5.25524">
        <ele>1471</ele>
        <time>2024-07-02T12:12:36Z</time>
      </trkpt>
      <trkpt lat="44.85558" lon="5.25523">
        <ele>1471.1</ele>
        <time>2024-07-02T12:12:37Z</time>
      </trkpt>
      <trkpt lat="44.85559" lon="5.25522">
        <ele>1471.3</ele>
        <time>2024-07-02T12:12:38Z</time>
      </trkpt>
      <trkpt lat="44.85559" lon="5.25521">
        <ele>1471.5</ele>
        <time>2024-07-02T12:12:39Z</time>
      </trkpt>
      <trkpt lat="44.8556" lon="5.2552">
        <ele>1471.6</ele>
        <time>2024-07-02T12:12:40Z</time>
      </trkpt>
      <trkpt lat="44.8556" lon="5.25519">
        <ele>1471.7</ele>
        <time>2024-07-02T12:12:41Z</time>
      </trkpt>
      <trkpt lat="44.85561" lon="5.25519">
        <ele>1471.9</ele>
        <time>2024-07-02T12:12:42Z</time>
      </trkpt>
      <trkpt lat="44.85562" lon="5.25518">
        <ele>1472</ele>
        <time>2024-07-02T12:12:43Z</time>
      </trkpt>
      <trkpt lat="44.85562" lon="5.25516">
        <ele>1472.3</ele>
        <time>2024-07-02T12:12:44Z</time>
      </trkpt>
      <trkpt lat="44.85562" lon="5.25515">
        <ele>1472.4</ele>
        <time>2024-07-02T12:12:45Z</time>
      </trkpt>
      <trkpt lat="44.85563" lon="5.25513">
        <ele>1472.7</ele>
        <time>2024-07-02T12:12:46Z</time>
      </trkpt>
      <trkpt lat="44.85564" lon="5.25512">
        <ele>1472.8</ele>
        <time>2024-07-02T12:12:47Z</time>
      </trkpt>
      <trkpt lat="44.85564" lon="5.25511">
        <ele>1472.9</ele>
        <time>2024-07-02T12:12:48Z</time>
      </trkpt>
      <trkpt lat="44.85565" lon="5.2551">
        <ele>1473.1</ele>
        <time>2024-07-02T12:12:49Z</time>
      </trkpt>
      <trkpt lat="44.85565" lon="5.2551">
        <ele>1473.2</ele>
        <time>2024-07-02T12:12:50Z</time>
      </trkpt>
      <trkpt lat="44.85566" lon="5.25509">
        <ele>1473.3</ele>
        <time>2024-07-02T12:12:51Z</time>
      </trkpt>
      <trkpt lat="44.85567" lon="5.25508">
        <ele>1473.5</ele>
        <time>2024-07-02T12:12:52Z</time>
      </trkpt>
      <trkpt lat="44.85567" lon="5.25507">
        <ele>1473.6</ele>
        <time>2024-07-02T12:12:53Z</time>
      </trkpt>
      <trkpt lat="44.85568" lon="5.25506">
        <ele>1473.8</ele>
        <time>2024-07-02T12:12:54Z</time>
      </trkpt>
      <trkpt lat="44.85568" lon="5.25505">
        <ele>1473.8</ele>
        <time>2024-07-02T12:12:55Z</time>
      </trkpt>
      <trkpt lat="44.85568" lon="5.25504">
        <ele>1474</ele>
        <time>2024-07-02T12:12:56Z</time>
      </trkpt>
      <trkpt lat="44.85569" lon="5.25503">
        <ele>1474.1</ele>
        <time>2024-07-02T12:12:57Z</time>
      </trkpt>
      <trkpt lat="44.85569" lon="5.25502">
        <ele>1474.3</ele>
        <time>2024-07-02T12:12:58Z</time>
      </trkpt>
      <trkpt lat="44.8557" lon="5.25501">
        <ele>1474.4</ele>
        <time>2024-07-02T12:12:59Z</time>
      </trkpt>
      <trkpt lat="44.8557" lon="5.255">
        <ele>1474.6</ele>
        <time>2024-07-02T12:13:00Z</time>
      </trkpt>
      <trkpt lat="44.85571" lon="5.25499">
        <ele>1474.7</ele>
        <time>2024-07-02T12:13:01Z</time>
      </trkpt>
      <trkpt lat="44.85572" lon="5.25499">
        <ele>1474.8</ele>
        <time>2024-07-02T12:13:02Z</time>
      </trkpt>
      <trkpt lat="44.85572" lon="5.25498">
        <ele>1474.9</ele>
        <time>2024-07-02T12:13:03Z</time>
      </trkpt>
      <trkpt lat="44.85572" lon="5.25497">
        <ele>1475.1</ele>
        <time>2024-07-02T12:13:04Z</time>
      </trkpt>
      <trkpt lat="44.85573" lon="5.25496">
        <ele>1475.2</ele>
        <time>2024-07-02T12:13:05Z</time>
      </trkpt>
      <trkpt lat="44.85574" lon="5.25494">
        <ele>1475.4</ele>
        <time>2024-07-02T12:13:06Z</time>
      </trkpt>
      <trkpt lat="44.85574" lon="5.25493">
        <ele>1475.5</ele>
        <time>2024-07-02T12:13:07Z</time>
      </trkpt>
      <trkpt lat="44.85574" lon="5.25492">
        <ele>1475.6</ele>
        <time>2024-07-02T12:13:08Z</time>
      </trkpt>
      <trkpt lat="44.85575" lon="5.25491">
        <ele>1475.7</ele>
        <time>2024-07-02T12:13:09Z</time>
      </trkpt>
      <trkpt lat="44.85576" lon="5.2549">
        <ele>1475.9</ele>
        <time>2024-07-02T12:13:10Z</time>
      </trkpt>
      <trkpt lat="44.85576" lon="5.25489">
        <ele>1476</ele>
        <time>2024-07-02T12:13:11Z</time>
      </trkpt>
      <trkpt lat="44.85577" lon="5.25488">
        <ele>1476.2</ele>
        <time>2024-07-02T12:13:12Z</time>
      </trkpt>
      <trkpt lat="44.85577" lon="5.25487">
        <ele>1476.3</ele>
        <time>2024-07-02T12:13:13Z</time>
      </trkpt>
      <trkpt lat="44.85578" lon="5.25486">
        <ele>1476.5</ele>
        <time>2024-07-02T12:13:14Z</time>
      </trkpt>
      <trkpt lat="44.85579" lon="5.25484">
        <ele>1476.7</ele>
        <time>2024-07-02T12:13:15Z</time>
      </trkpt>
      <trkpt lat="44.85579" lon="5.25483">
        <ele>1476.8</ele>
        <time>2024-07-02T12:13:16Z</time>
      </trkpt>
      <trkpt lat="44.8558" lon="5.25482">
        <ele>1477</ele>
        <time>2024-07-02T12:13:17Z</time>
      </trkpt>
      <trkpt lat="44.85581" lon="5.25481">
        <ele>1477.2</ele>
        <time>2024-07-02T12:13:18Z</time>
      </trkpt>
      <trkpt lat="44.85581" lon="5.25479">
        <ele>1477.3</ele>
        <time>2024-07-02T12:13:19Z</time>
      </trkpt>
      <trkpt lat="44.85581" lon="5.25478">
        <ele>1477.5</ele>
        <time>2024-07-02T12:13:20Z</time>
      </trkpt>
      <trkpt lat="44.85582" lon="5.25477">
        <ele>1477.6</ele>
        <time>2024-07-02T12:13:21Z</time>
      </trkpt>
      <trkpt lat="44.85582" lon="5.25475">
        <ele>1477.8</ele>
        <time>2024-07-02T12:13:22Z</time>
      </trkpt>
      <trkpt lat="44.85582" lon="5.25474">
        <ele>1477.9</ele>
        <time>2024-07-02T12:13:23Z</time>
      </trkpt>
      <trkpt lat="44.85582" lon="5.25473">
        <ele>1478</ele>
        <time>2024-07-02T12:13:24Z</time>
      </trkpt>
      <trkpt lat="44.85583" lon="5.25472">
        <ele>1478.2</ele>
        <time>2024-07-02T12:13:25Z</time>
      </trkpt>
      <trkpt lat="44.85583" lon="5.25471">
        <ele>1478.3</ele>
        <time>2024-07-02T12:13:26Z</time>
      </trkpt>
      <trkpt lat="44.85584" lon="5.25469">
        <ele>1478.5</ele>
        <time>2024-07-02T12:13:27Z</time>
      </trkpt>
      <trkpt lat="44.85584" lon="5.25468">
        <ele>1478.6</ele>
        <time>2024-07-02T12:13:28Z</time>
      </trkpt>
      <trkpt lat="44.85585" lon="5.25467">
        <ele>1478.7</ele>
        <time>2024-07-02T12:13:29Z</time>
      </trkpt>
      <trkpt lat="44.85585" lon="5.25466">
        <ele>1478.9</ele>
        <time>2024-07-02T12:13:30Z</time>
      </trkpt>
      <trkpt lat="44.85586" lon="5.25465">
        <ele>1479.1</ele>
        <time>2024-07-02T12:13:31Z</time>
      </trkpt>
      <trkpt lat="44.85587" lon="5.25464">
        <ele>1479.3</ele>
        <time>2024-07-02T12:13:32Z</time>
      </trkpt>
      <trkpt lat="44.85587" lon="5.25464">
        <ele>1479.4</ele>
        <time>2024-07-02T12:13:33Z</time>
      </trkpt>
      <trkpt lat="44.85588" lon="5.25462">
        <ele>1479.5</ele>
        <time>2024-07-02T12:13:34Z</time>
      </trkpt>
      <trkpt lat="44.85588" lon="5.25461">
        <ele>1479.7</ele>
        <time>2024-07-02T12:13:35Z</time>
      </trkpt>
      <trkpt lat="44.85589" lon="5.2546">
        <ele>1479.9</ele>
        <time>2024-07-02T12:13:36Z</time>
      </trkpt>
      <trkpt lat="44.85589" lon="5.25458">
        <ele>1480</ele>
        <time>2024-07-02T12:13:37Z</time>
      </trkpt>
      <trkpt lat="44.85589" lon="5.25457">
        <ele>1480.2</ele>
        <time>2024-07-02T12:13:38Z</time>
      </trkpt>
      <trkpt lat="44.8559" lon="5.25456">
        <ele>1480.3</ele>
        <time>2024-07-02T12:13:39Z</time>
      </trkpt>
      <trkpt lat="44.8559" lon="5.25454">
        <ele>1480.5</ele>
        <time>2024-07-02T12:13:40Z</time>
      </trkpt>
      <trkpt lat="44.85591" lon="5.25452">
        <ele>1480.8</ele>
        <time>2024-07-02T12:13:41Z</time>
      </trkpt>
      <trkpt lat="44.85591" lon="5.25451">
        <ele>1480.9</ele>
        <time>2024-07-02T12:13:42Z</time>
      </trkpt>
      <trkpt lat="44.85592" lon="5.2545">
        <ele>1481</ele>
        <time>2024-07-02T12:13:43Z</time>
      </trkpt>
      <trkpt lat="44.85592" lon="5.25449">
        <ele>1481.2</ele>
        <time>2024-07-02T12:13:44Z</time>
      </trkpt>
      <trkpt lat="44.85592" lon="5.25448">
        <ele>1481.3</ele>
        <time>2024-07-02T12:13:45Z</time>
      </trkpt>
      <trkpt lat="44.85593" lon="5.25447">
        <ele>1481.4</ele>
        <time>2024-07-02T12:13:46Z</time>
      </trkpt>
      <trkpt lat="44.85593" lon="5.25446">
        <ele>1481.6</ele>
        <time>2024-07-02T12:13:47Z</time>
      </trkpt>
      <trkpt lat="44.85594" lon="5.25445">
        <ele>1481.7</ele>
        <time>2024-07-02T12:13:48Z</time>
      </trkpt>
      <trkpt lat="44.85594" lon="5.25444">
        <ele>1481.9</ele>
        <time>2024-07-02T12:13:49Z</time>
      </trkpt>
      <trkpt lat="44.85595" lon="5.25443">
        <ele>1482.1</ele>
        <time>2024-07-02T12:13:50Z</time>
      </trkpt>
      <trkpt lat="44.85595" lon="5.25442">
        <ele>1482.1</ele>
        <time>2024-07-02T12:13:51Z</time>
      </trkpt>
      <trkpt lat="44.85596" lon="5.25441">
        <ele>1482.3</ele>
        <time>2024-07-02T12:13:52Z</time>
      </trkpt>
      <trkpt lat="44.85596" lon="5.2544">
        <ele>1482.4</ele>
        <time>2024-07-02T12:13:53Z</time>
      </trkpt>
      <trkpt lat="44.85597" lon="5.25439">
        <ele>1482.5</ele>
        <time>2024-07-02T12:13:54Z</time>
      </trkpt>
      <trkpt lat="44.85597" lon="5.25438">
        <ele>1482.7</ele>
        <time>2024-07-02T12:13:55Z</time>
      </trkpt>
      <trkpt lat="44.85598" lon="5.25437">
        <ele>1482.8</ele>
        <time>2024-07-02T12:13:56Z</time>
      </trkpt>
      <trkpt lat="44.85599" lon="5.25436">
        <ele>1482.9</ele>
        <time>2024-07-02T12:13:57Z</time>
      </trkpt>
      <trkpt lat="44.85599" lon="5.25435">
        <ele>1483.1</ele>
        <time>2024-07-02T12:13:58Z</time>
      </trkpt>
      <trkpt lat="44.856" lon="5.25434">
        <ele>1483.2</ele>
        <time>2024-07-02T12:13:59Z</time>
      </trkpt>
      <trkpt lat="44.85601" lon="5.25433">
        <ele>1483.4</ele>
        <time>2024-07-02T12:14:00Z</time>
      </trkpt>
      <trkpt lat="44.85601" lon="5.25432">
        <ele>1483.5</ele>
        <time>2024-07-02T12:14:01Z</time>
      </trkpt>
      <trkpt lat="44.85602" lon="5.2543">
        <ele>1483.6</ele>
        <time>2024-07-02T12:14:02Z</time>
      </trkpt>
      <trkpt lat="44.85603" lon="5.25429">
        <ele>1483.8</ele>
        <time>2024-07-02T12:14:03Z</time>
      </trkpt>
      <trkpt lat="44.85603" lon="5.25428">
        <ele>1483.9</ele>
        <time>2024-07-02T12:14:04Z</time>
      </trkpt>
      <trkpt lat="44.85604" lon="5.25427">
        <ele>1484.1</ele>
        <time>2024-07-02T12:14:05Z</time>
      </trkpt>
      <trkpt lat="44.85605" lon="5.25426">
        <ele>1484.2</ele>
        <time>2024-07-02T12:14:06Z</time>
      </trkpt>
      <trkpt lat="44.85605" lon="5.25425">
        <ele>1484.3</ele>
        <time>2024-07-02T12:14:07Z</time>
      </trkpt>
      <trkpt lat="44.85606" lon="5.25424">
        <ele>1484.4</ele>
        <time>2024-07-02T12:14:08Z</time>
      </trkpt>
      <trkpt lat="44.85607" lon="5.25424">
        <ele>1484.5</ele>
        <time>2024-07-02T12:14:09Z</time>
      </trkpt>
      <trkpt lat="44.85608" lon="5.25423">
        <ele>1484.7</ele>
        <time>2024-07-02T12:14:10Z</time>
      </trkpt>
      <trkpt lat="44.85608" lon="5.25422">
        <ele>1484.8</ele>
        <time>2024-07-02T12:14:11Z</time>
      </trkpt>
      <trkpt lat="44.85609" lon="5.25421">
        <ele>1484.9</ele>
        <time>2024-07-02T12:14:12Z</time>
      </trkpt>
      <trkpt lat="44.8561" lon="5.2542">
        <ele>1485</ele>
        <time>2024-07-02T12:14:13Z</time>
      </trkpt>
      <trkpt lat="44.8561" lon="5.25419">
        <ele>1485.1</ele>
        <time>2024-07-02T12:14:14Z</time>
      </trkpt>
      <trkpt lat="44.85612" lon="5.25418">
        <ele>1485.3</ele>
        <time>2024-07-02T12:14:15Z</time>
      </trkpt>
      <trkpt lat="44.85612" lon="5.25417">
        <ele>1485.4</ele>
        <time>2024-07-02T12:14:16Z</time>
      </trkpt>
      <trkpt lat="44.85613" lon="5.25416">
        <ele>1485.5</ele>
        <time>2024-07-02T12:14:17Z</time>
      </trkpt>
      <trkpt lat="44.85613" lon="5.25415">
        <ele>1485.6</ele>
        <time>2024-07-02T12:14:18Z</time>
      </trkpt>
      <trkpt lat="44.85614" lon="5.25414">
        <ele>1485.7</ele>
        <time>2024-07-02T12:14:19Z</time>
      </trkpt>
      <trkpt lat="44.85615" lon="5.25414">
        <ele>1485.9</ele>
        <time>2024-07-02T12:14:20Z</time>
      </trkpt>
      <trkpt lat="44.85616" lon="5.25413">
        <ele>1486</ele>
        <time>2024-07-02T12:14:21Z</time>
      </trkpt>
      <trkpt lat="44.85617" lon="5.25413">
        <ele>1486.1</ele>
        <time>2024-07-02T12:14:22Z</time>
      </trkpt>
      <trkpt lat="44.85618" lon="5.25412">
        <ele>1486.2</ele>
        <time>2024-07-02T12:14:23Z</time>
      </trkpt>
      <trkpt lat="44.85619" lon="5.25412">
        <ele>1486.3</ele>
        <time>2024-07-02T12:14:24Z</time>
      </trkpt>
      <trkpt lat="44.8562" lon="5.25411">
        <ele>1486.5</ele>
        <time>2024-07-02T12:14:25Z</time>
      </trkpt>
      <trkpt lat="44.85621" lon="5.2541">
        <ele>1486.6</ele>
        <time>2024-07-02T12:14:26Z</time>
      </trkpt>
      <trkpt lat="44.85622" lon="5.2541">
        <ele>1486.6</ele>
        <time>2024-07-02T12:14:27Z</time>
      </trkpt>
      <trkpt lat="44.85623" lon="5.25409">
        <ele>1486.8</ele>
        <time>2024-07-02T12:14:28Z</time>
      </trkpt>
      <trkpt lat="44.85623" lon="5.25408">
        <ele>1486.8</ele>
        <time>2024-07-02T12:14:29Z</time>
      </trkpt>
      <trkpt lat="44.85624" lon="5.25408">
        <ele>1487</ele>
        <time>2024-07-02T12:14:30Z</time>
      </trkpt>
      <trkpt lat="44.85625" lon="5.25407">
        <ele>1487.1</ele>
        <time>2024-07-02T12:14:31Z</time>
      </trkpt>
      <trkpt lat="44.85626" lon="5.25406">
        <ele>1487.2</ele>
        <time>2024-07-02T12:14:32Z</time>
      </trkpt>
      <trkpt lat="44.85627" lon="5.25406">
        <ele>1487.3</ele>
        <time>2024-07-02T12:14:33Z</time>
      </trkpt>
      <trkpt lat="44.85628" lon="5.25405">
        <ele>1487.4</ele>
        <time>2024-07-02T12:14:34Z</time>
      </trkpt>
      <trkpt lat="44.85629" lon="5.25404">
        <ele>1487.5</ele>
        <time>2024-07-02T12:14:35Z</time>
      </trkpt>
      <trkpt lat="44.8563" lon="5.25404">
        <ele>1487.6</ele>
        <time>2024-07-02T12:14:36Z</time>
      </trkpt>
      <trkpt lat="44.8563" lon="5.25403">
        <ele>1487.6</ele>
        <time>2024-07-02T12:14:37Z</time>
      </trkpt>
      <trkpt lat="44.85631" lon="5.25403">
        <ele>1487.7</ele>
        <time>2024-07-02T12:14:38Z</time>
      </trkpt>
      <trkpt lat="44.85632" lon="5.25402">
        <ele>1487.8</ele>
        <time>2024-07-02T12:14:39Z</time>
      </trkpt>
      <trkpt lat="44.85633" lon="5.25401">
        <ele>1487.9</ele>
        <time>2024-07-02T12:14:40Z</time>
      </trkpt>
      <trkpt lat="44.85634" lon="5.254">
        <ele>1488</ele>
        <time>2024-07-02T12:14:41Z</time>
      </trkpt>
      <trkpt lat="44.85634" lon="5.25399">
        <ele>1488.1</ele>
        <time>2024-07-02T12:14:42Z</time>
      </trkpt>
      <trkpt lat="44.85635" lon="5.25399">
        <ele>1488.2</ele>
        <time>2024-07-02T12:14:43Z</time>
      </trkpt>
      <trkpt lat="44.85636" lon="5.25398">
        <ele>1488.3</ele>
        <time>2024-07-02T12:14:44Z</time>
      </trkpt>
      <trkpt lat="44.85637" lon="5.25396">
        <ele>1488.4</ele>
        <time>2024-07-02T12:14:45Z</time>
      </trkpt>
      <trkpt lat="44.85637" lon="5.25395">
        <ele>1488.5</ele>
        <time>2024-07-02T12:14:46Z</time>
      </trkpt>
      <trkpt lat="44.85638" lon="5.25394">
        <ele>1488.6</ele>
        <time>2024-07-02T12:14:47Z</time>
      </trkpt>
      <trkpt lat="44.85639" lon="5.25393">
        <ele>1488.7</ele>
        <time>2024-07-02T12:14:48Z</time>
      </trkpt>
      <trkpt lat="44.85639" lon="5.25392">
        <ele>1488.7</ele>
        <time>2024-07-02T12:14:49Z</time>
      </trkpt>
      <trkpt lat="44.8564" lon="5.2539">
        <ele>1488.9</ele>
        <time>2024-07-02T12:14:50Z</time>
      </trkpt>
      <trkpt lat="44.85641" lon="5.2539">
        <ele>1488.9</ele>
        <time>2024-07-02T12:14:51Z</time>
      </trkpt>
      <trkpt lat="44.85641" lon="5.25389">
        <ele>1489</ele>
        <time>2024-07-02T12:14:52Z</time>
      </trkpt>
      <trkpt lat="44.85642" lon="5.25389">
        <ele>1489.1</ele>
        <time>2024-07-02T12:14:53Z</time>
      </trkpt>
      <trkpt lat="44.85643" lon="5.25388">
        <ele>1489.1</ele>
        <time>2024-07-02T12:14:54Z</time>
      </trkpt>
      <trkpt lat="44.85644" lon="5.25387">
        <ele>1489.2</ele>
        <time>2024-07-02T12:14:55Z</time>
      </trkpt>
      <trkpt lat="44.85645" lon="5.25386">
        <ele>1489.3</ele>
        <time>2024-07-02T12:14:56Z</time>
      </trkpt>
      <trkpt lat="44.85645" lon="5.25385">
        <ele>1489.4</ele>
        <time>2024-07-02T12:14:57Z</time>
      </trkpt>
      <trkpt lat="44.85646" lon="5.25384">
        <ele>1489.4</ele>
        <time>2024-07-02T12:14:58Z</time>
      </trkpt>
      <trkpt lat="44.85647" lon="5.25384">
        <ele>1489.5</ele>
        <time>2024-07-02T12:14:59Z</time>
      </trkpt>
      <trkpt lat="44.85648" lon="5.25383">
        <ele>1489.6</ele>
        <time>2024-07-02T12:15:00Z</time>
      </trkpt>
      <trkpt lat="44.85649" lon="5.25383">
        <ele>1489.7</ele>
        <time>2024-07-02T12:15:01Z</time>
      </trkpt>
      <trkpt lat="44.8565" lon="5.25382">
        <ele>1489.8</ele>
        <time>2024-07-02T12:15:02Z</time>
      </trkpt>
      <trkpt lat="44.8565" lon="5.25381">
        <ele>1489.8</ele>
        <time>2024-07-02T12:15:03Z</time>
      </trkpt>
      <trkpt lat="44.85651" lon="5.2538">
        <ele>1489.9</ele>
        <time>2024-07-02T12:15:04Z</time>
      </trkpt>
      <trkpt lat="44.85652" lon="5.25379">
        <ele>1490</ele>
        <time>2024-07-02T12:15:05Z</time>
      </trkpt>
      <trkpt lat="44.85653" lon="5.25378">
        <ele>1490</ele>
        <time>2024-07-02T12:15:06Z</time>
      </trkpt>
      <trkpt lat="44.85653" lon="5.25376">
        <ele>1490.1</ele>
        <time>2024-07-02T12:15:07Z</time>
      </trkpt>
      <trkpt lat="44.85654" lon="5.25375">
        <ele>1490.2</ele>
        <time>2024-07-02T12:15:08Z</time>
      </trkpt>
      <trkpt lat="44.85655" lon="5.25374">
        <ele>1490.2</ele>
        <time>2024-07-02T12:15:09Z</time>
      </trkpt>
      <trkpt lat="44.85655" lon="5.25372">
        <ele>1490.3</ele>
        <time>2024-07-02T12:15:10Z</time>
      </trkpt>
      <trkpt lat="44.85655" lon="5.25371">
        <ele>1490.4</ele>
        <time>2024-07-02T12:15:11Z</time>
      </trkpt>
      <trkpt lat="44.85656" lon="5.2537">
        <ele>1490.4</ele>
        <time>2024-07-02T12:15:12Z</time>
      </trkpt>
      <trkpt lat="44.85656" lon="5.25368">
        <ele>1490.5</ele>
        <time>2024-07-02T12:15:13Z</time>
      </trkpt>
      <trkpt lat="44.85657" lon="5.25367">
        <ele>1490.6</ele>
        <time>2024-07-02T12:15:14Z</time>
      </trkpt>
      <trkpt lat="44.85658" lon="5.25365">
        <ele>1490.7</ele>
        <time>2024-07-02T12:15:15Z</time>
      </trkpt>
      <trkpt lat="44.85658" lon="5.25364">
        <ele>1490.7</ele>
        <time>2024-07-02T12:15:16Z</time>
      </trkpt>
      <trkpt lat="44.85659" lon="5.25364">
        <ele>1490.8</ele>
        <time>2024-07-02T12:15:17Z</time>
      </trkpt>
      <trkpt lat="44.8566" lon="5.25363">
        <ele>1490.8</ele>
        <time>2024-07-02T12:15:18Z</time>
      </trkpt>
      <trkpt lat="44.8566" lon="5.25362">
        <ele>1490.9</ele>
        <time>2024-07-02T12:15:19Z</time>
      </trkpt>
      <trkpt lat="44.85661" lon="5.25361">
        <ele>1491</ele>
        <time>2024-07-02T12:15:20Z</time>
      </trkpt>
      <trkpt lat="44.85662" lon="5.2536">
        <ele>1491</ele>
        <time>2024-07-02T12:15:21Z</time>
      </trkpt>
      <trkpt lat="44.85663" lon="5.25359">
        <ele>1491.1</ele>
        <time>2024-07-02T12:15:22Z</time>
      </trkpt>
      <trkpt lat="44.85664" lon="5.25358">
        <ele>1491.1</ele>
        <time>2024-07-02T12:15:23Z</time>
      </trkpt>
      <trkpt lat="44.85665" lon="5.25357">
        <ele>1491.2</ele>
        <time>2024-07-02T12:15:24Z</time>
      </trkpt>
      <trkpt lat="44.85666" lon="5.25357">
        <ele>1491.3</ele>
        <time>2024-07-02T12:15:25Z</time>
      </trkpt>
      <trkpt lat="44.85667" lon="5.25356">
        <ele>1491.3</ele>
        <time>2024-07-02T12:15:26Z</time>
      </trkpt>
      <trkpt lat="44.85668" lon="5.25356">
        <ele>1491.4</ele>
        <time>2024-07-02T12:15:27Z</time>
      </trkpt>
      <trkpt lat="44.85668" lon="5.25356">
        <ele>1491.4</ele>
        <time>2024-07-02T12:15:28Z</time>
      </trkpt>
      <trkpt lat="44.85669" lon="5.25355">
        <ele>1491.5</ele>
        <time>2024-07-02T12:15:29Z</time>
      </trkpt>
      <trkpt lat="44.8567" lon="5.25354">
        <ele>1491.5</ele>
        <time>2024-07-02T12:15:30Z</time>
      </trkpt>
      <trkpt lat="44.85671" lon="5.25353">
        <ele>1491.6</ele>
        <time>2024-07-02T12:15:31Z</time>
      </trkpt>
      <trkpt lat="44.85671" lon="5.25353">
        <ele>1491.6</ele>
        <time>2024-07-02T12:15:32Z</time>
      </trkpt>
      <trkpt lat="44.85672" lon="5.25352">
        <ele>1491.7</ele>
        <time>2024-07-02T12:15:33Z</time>
      </trkpt>
      <trkpt lat="44.85673" lon="5.25351">
        <ele>1491.7</ele>
        <time>2024-07-02T12:15:34Z</time>
      </trkpt>
      <trkpt lat="44.85674" lon="5.2535">
        <ele>1491.8</ele>
        <time>2024-07-02T12:15:35Z</time>
      </trkpt>
      <trkpt lat="44.85674" lon="5.25349">
        <ele>1491.8</ele>
        <time>2024-07-02T12:15:36Z</time>
      </trkpt>
      <trkpt lat="44.85675" lon="5.25348">
        <ele>1491.9</ele>
        <time>2024-07-02T12:15:37Z</time>
      </trkpt>
      <trkpt lat="44.85676" lon="5.25348">
        <ele>1491.9</ele>
        <time>2024-07-02T12:15:38Z</time>
      </trkpt>
      <trkpt lat="44.85677" lon="5.25347">
        <ele>1492</ele>
        <time>2024-07-02T12:15:39Z</time>
      </trkpt>
      <trkpt lat="44.85678" lon="5.25346">
        <ele>1492</ele>
        <time>2024-07-02T12:15:40Z</time>
      </trkpt>
      <trkpt lat="44.85679" lon="5.25346">
        <ele>1492.1</ele>
        <time>2024-07-02T12:15:41Z</time>
      </trkpt>
      <trkpt lat="44.8568" lon="5.25345">
        <ele>1492.1</ele>
        <time>2024-07-02T12:15:42Z</time>
      </trkpt>
      <trkpt lat="44.85681" lon="5.25344">
        <ele>1492.2</ele>
        <time>2024-07-02T12:15:43Z</time>
      </trkpt>
      <trkpt lat="44.85682" lon="5.25343">
        <ele>1492.2</ele>
        <time>2024-07-02T12:15:44Z</time>
      </trkpt>
      <trkpt lat="44.85683" lon="5.25342">
        <ele>1492.3</ele>
        <time>2024-07-02T12:15:45Z</time>
      </trkpt>
      <trkpt lat="44.85683" lon="5.25342">
        <ele>1492.3</ele>
        <time>2024-07-02T12:15:46Z</time>
      </trkpt>
      <trkpt lat="44.85684" lon="5.25341">
        <ele>1492.4</ele>
        <time>2024-07-02T12:15:47Z</time>
      </trkpt>
      <trkpt lat="44.85685" lon="5.2534">
        <ele>1492.4</ele>
        <time>2024-07-02T12:15:48Z</time>
      </trkpt>
      <trkpt lat="44.85686" lon="5.25339">
        <ele>1492.5</ele>
        <time>2024-07-02T12:15:49Z</time>
      </trkpt>
      <trkpt lat="44.85687" lon="5.25338">
        <ele>1492.6</ele>
        <time>2024-07-02T12:15:50Z</time>
      </trkpt>
      <trkpt lat="44.85687" lon="5.25337">
        <ele>1492.6</ele>
        <time>2024-07-02T12:15:51Z</time>
      </trkpt>
      <trkpt lat="44.85688" lon="5.25336">
        <ele>1492.6</ele>
        <time>2024-07-02T12:15:52Z</time>
      </trkpt>
      <trkpt lat="44.85689" lon="5.25335">
        <ele>1492.7</ele>
        <time>2024-07-02T12:15:53Z</time>
      </trkpt>
      <trkpt lat="44.85689" lon="5.25334">
        <ele>1492.8</ele>
        <time>2024-07-02T12:15:54Z</time>
      </trkpt>
      <trkpt lat="44.8569" lon="5.25333">
        <ele>1492.8</ele>
        <time>2024-07-02T12:15:55Z</time>
      </trkpt>
      <trkpt lat="44.85691" lon="5.25332">
        <ele>1492.8</ele>
        <time>2024-07-02T12:15:56Z</time>
      </trkpt>
      <trkpt lat="44.85692" lon="5.25331">
        <ele>1492.8</ele>
        <time>2024-07-02T12:15:57Z</time>
      </trkpt>
      <trkpt lat="44.85693" lon="5.25331">
        <ele>1492.8</ele>
        <time>2024-07-02T12:15:58Z</time>
      </trkpt>
      <trkpt lat="44.85694" lon="5.2533">
        <ele>1492.9</ele>
        <time>2024-07-02T12:15:59Z</time>
      </trkpt>
      <trkpt lat="44.85695" lon="5.25329">
        <ele>1492.9</ele>
        <time>2024-07-02T12:16:00Z</time>
      </trkpt>
      <trkpt lat="44.85696" lon="5.25329">
        <ele>1492.9</ele>
        <time>2024-07-02T12:16:01Z</time>
      </trkpt>
      <trkpt lat="44.85697" lon="5.25328">
        <ele>1492.9</ele>
        <time>2024-07-02T12:16:02Z</time>
      </trkpt>
      <trkpt lat="44.85697" lon="5.25327">
        <ele>1492.9</ele>
        <time>2024-07-02T12:16:03Z</time>
      </trkpt>
      <trkpt lat="44.85698" lon="5.25327">
        <ele>1493</ele>
        <time>2024-07-02T12:16:04Z</time>
      </trkpt>
      <trkpt lat="44.85699" lon="5.25327">
        <ele>1493</ele>
        <time>2024-07-02T12:16:05Z</time>
      </trkpt>
      <trkpt lat="44.857" lon="5.25326">
        <ele>1493</ele>
        <time>2024-07-02T12:16:06Z</time>
      </trkpt>
      <trkpt lat="44.85701" lon="5.25326">
        <ele>1493</ele>
        <time>2024-07-02T12:16:07Z</time>
      </trkpt>
      <trkpt lat="44.85702" lon="5.25325">
        <ele>1493</ele>
        <time>2024-07-02T12:16:08Z</time>
      </trkpt>
      <trkpt lat="44.85704" lon="5.25325">
        <ele>1493.1</ele>
        <time>2024-07-02T12:16:09Z</time>
      </trkpt>
      <trkpt lat="44.85706" lon="5.25325">
        <ele>1493.1</ele>
        <time>2024-07-02T12:16:10Z</time>
      </trkpt>
      <trkpt lat="44.85707" lon="5.25324">
        <ele>1493.1</ele>
        <time>2024-07-02T12:16:11Z</time>
      </trkpt>
      <trkpt lat="44.85708" lon="5.25324">
        <ele>1493.1</ele>
        <time>2024-07-02T12:16:12Z</time>
      </trkpt>
      <trkpt lat="44.8571" lon="5.25323">
        <ele>1493.2</ele>
        <time>2024-07-02T12:16:13Z</time>
      </trkpt>
      <trkpt lat="44.8571" lon="5.25323">
        <ele>1493.2</ele>
        <time>2024-07-02T12:16:14Z</time>
      </trkpt>
      <trkpt lat="44.85711" lon="5.25322">
        <ele>1493.2</ele>
        <time>2024-07-02T12:16:15Z</time>
      </trkpt>
      <trkpt lat="44.85712" lon="5.25322">
        <ele>1493.2</ele>
        <time>2024-07-02T12:16:16Z</time>
      </trkpt>
      <trkpt lat="44.85713" lon="5.25321">
        <ele>1493.2</ele>
        <time>2024-07-02T12:16:17Z</time>
      </trkpt>
      <trkpt lat="44.85714" lon="5.25321">
        <ele>1493.3</ele>
        <time>2024-07-02T12:16:18Z</time>
      </trkpt>
      <trkpt lat="44.85715" lon="5.2532">
        <ele>1493.3</ele>
        <time>2024-07-02T12:16:19Z</time>
      </trkpt>
      <trkpt lat="44.85717" lon="5.2532">
        <ele>1493.3</ele>
        <time>2024-07-02T12:16:20Z</time>
      </trkpt>
      <trkpt lat="44.85718" lon="5.25319">
        <ele>1493.3</ele>
        <time>2024-07-02T12:16:21Z</time>
      </trkpt>
      <trkpt lat="44.85719" lon="5.25319">
        <ele>1493.3</ele>
        <time>2024-07-02T12:16:22Z</time>
      </trkpt>
      <trkpt lat="44.85719" lon="5.25319">
        <ele>1493.3</ele>
        <time>2024-07-02T12:16:23Z</time>
      </trkpt>
      <trkpt lat="44.8572" lon="5.25318">
        <ele>1493.3</ele>
        <time>2024-07-02T12:16:24Z</time>
      </trkpt>
      <trkpt lat="44.85721" lon="5.25318">
        <ele>1493.4</ele>
        <time>2024-07-02T12:16:25Z</time>
      </trkpt>
      <trkpt lat="44.85722" lon="5.25317">
        <ele>1493.4</ele>
        <time>2024-07-02T12:16:26Z</time>
      </trkpt>
      <trkpt lat="44.85723" lon="5.25317">
        <ele>1493.4</ele>
        <time>2024-07-02T12:16:27Z</time>
      </trkpt>
      <trkpt lat="44.85725" lon="5.25316">
        <ele>1493.4</ele>
        <time>2024-07-02T12:16:28Z</time>
      </trkpt>
      <trkpt lat="44.85726" lon="5.25315">
        <ele>1493.4</ele>
        <time>2024-07-02T12:16:29Z</time>
      </trkpt>
      <trkpt lat="44.85727" lon="5.25315">
        <ele>1493.4</ele>
        <time>2024-07-02T12:16:30Z</time>
      </trkpt>
      <trkpt lat="44.85727" lon="5.25315">
        <ele>1493.4</ele>
        <time>2024-07-02T12:16:31Z</time>
      </trkpt>
      <trkpt lat="44.85728" lon="5.25315">
        <ele>1493.4</ele>
        <time>2024-07-02T12:16:32Z</time>
      </trkpt>
      <trkpt lat="44.85728" lon="5.25315">
        <ele>1493.4</ele>
        <time>2024-07-02T12:16:33Z</time>
      </trkpt>
      <trkpt lat="44.85729" lon="5.25316">
        <ele>1493.4</ele>
        <time>2024-07-02T12:16:34Z</time>
      </trkpt>
      <trkpt lat="44.85729" lon="5.25316">
        <ele>1493.4</ele>
        <time>2024-07-02T12:16:35Z</time>
      </trkpt>
      <trkpt lat="44.85729" lon="5.25316">
        <ele>1493.4</ele>
        <time>2024-07-02T12:16:36Z</time>
      </trkpt>
      <trkpt lat="44.85728" lon="5.25316">
        <ele>1493.4</ele>
        <time>2024-07-02T12:16:37Z</time>
      </trkpt>
      <trkpt lat="44.85728" lon="5.25316">
        <ele>1493.4</ele>
        <time>2024-07-02T12:16:38Z</time>
      </trkpt>
      <trkpt lat="44.85728" lon="5.25316">
        <ele>1493.4</ele>
        <time>2024-07-02T12:16:39Z</time>
      </trkpt>
      <trkpt lat="44.85728" lon="5.25316">
        <ele>1493.4</ele>
        <time>2024-07-02T12:16:40Z</time>
      </trkpt>
      <trkpt lat="44.85727" lon="5.25316">
        <ele>1493.5</ele>
        <time>2024-07-02T12:16:41Z</time>
      </trkpt>
      <trkpt lat="44.85727" lon="5.25316">
        <ele>1493.5</ele>
        <time>2024-07-02T12:16:42Z</time>
      </trkpt>
      <trkpt lat="44.85727" lon="5.25316">
        <ele>1493.5</ele>
        <time>2024-07-02T12:16:43Z</time>
      </trkpt>
      <trkpt lat="44.85727" lon="5.25316">
        <ele>1493.5</ele>
        <time>2024-07-02T12:16:44Z</time>
      </trkpt>
      <trkpt lat="44.85727" lon="5.25316">
        <ele>1493.5</ele>
        <time>2024-07-02T12:16:45Z</time>
      </trkpt>
      <trkpt lat="44.85727" lon="5.25316">
        <ele>1493.5</ele>
        <time>2024-07-02T12:16:46Z</time>
      </trkpt>
      <trkpt lat="44.85727" lon="5.25316">
        <ele>1493.5</ele>
        <time>2024-07-02T12:16:47Z</time>
      </trkpt>
      <trkpt lat="44.85727" lon="5.25316">
        <ele>1493.5</ele>
        <time>2024-07-02T12:16:48Z</time>
      </trkpt>
      <trkpt lat="44.85726" lon="5.25316">
        <ele>1493.5</ele>
        <time>2024-07-02T12:16:49Z</time>
      </trkpt>
      <trkpt lat="44.85727" lon="5.25316">
        <ele>1493.5</ele>
        <time>2024-07-02T12:16:50Z</time>
      </trkpt>
      <trkpt lat="44.85726" lon="5.25316">
        <ele>1493.5</ele>
        <time>2024-07-02T12:16:51Z</time>
      </trkpt>
      <trkpt lat="44.85726" lon="5.25316">
        <ele>1493.5</ele>
        <time>2024-07-02T12:16:52Z</time>
      </trkpt>
      <trkpt lat="44.85726" lon="5.25316">
        <ele>1493.5</ele>
        <time>2024-07-02T12:16:53Z</time>
      </trkpt>
      <trkpt lat="44.85726" lon="5.25316">
        <ele>1493.5</ele>
        <time>2024-07-02T12:16:54Z</time>
      </trkpt>
      <trkpt lat="44.85726" lon="5.25316">
        <ele>1493.5</ele>
        <time>2024-07-02T12:16:55Z</time>
      </trkpt>
      <trkpt lat="44.85726" lon="5.25316">
        <ele>1493.5</ele>
        <time>2024-07-02T12:16:56Z</time>
      </trkpt>
      <trkpt lat="44.85726" lon="5.25316">
        <ele>1493.5</ele>
        <time>2024-07-02T12:16:57Z</time>
      </trkpt>
      <trkpt lat="44.85726" lon="5.25316">
        <ele>1493.5</ele>
        <time>2024-07-02T12:16:58Z</time>
      </trkpt>
      <trkpt lat="44.85726" lon="5.25316">
        <ele>1493.5</ele>
        <time>2024-07-02T12:16:59Z</time>
      </trkpt>
      <trkpt lat="44.85727" lon="5.25316">
        <ele>1493.5</ele>
        <time>2024-07-02T12:17:00Z</time>
      </trkpt>
      <trkpt lat="44.85727" lon="5.25316">
        <ele>1493.5</ele>
        <time>2024-07-02T12:17:01Z</time>
      </trkpt>
      <trkpt lat="44.85727" lon="5.25317">
        <ele>1493.5</ele>
        <time>2024-07-02T12:17:02Z</time>
      </trkpt>
      <trkpt lat="44.85727" lon="5.25316">
        <ele>1493.5</ele>
        <time>2024-07-02T12:17:03Z</time>
      </trkpt>
      <trkpt lat="44.85727" lon="5.25316">
        <ele>1493.5</ele>
        <time>2024-07-02T12:17:04Z</time>
      </trkpt>
      <trkpt lat="44.85727" lon="5.25316">
        <ele>1493.5</ele>
        <time>2024-07-02T12:17:05Z</time>
      </trkpt>
      <trkpt lat="44.85727" lon="5.25316">
        <ele>1493.5</ele>
        <time>2024-07-02T12:17:06Z</time>
      </trkpt>
      <trkpt lat="44.85727" lon="5.25316">
        <ele>1493.5</ele>
        <time>2024-07-02T12:17:07Z</time>
      </trkpt>
      <trkpt lat="44.85727" lon="5.25316">
        <ele>1493.5</ele>
        <time>2024-07-02T12:17:08Z</time>
      </trkpt>
      <trkpt lat="44.85727" lon="5.25317">
        <ele>1493.5</ele>
        <time>2024-07-02T12:17:09Z</time>
      </trkpt>
      <trkpt lat="44.85728" lon="5.25317">
        <ele>1493.5</ele>
        <time>2024-07-02T12:17:10Z</time>
      </trkpt>
      <trkpt lat="44.85728" lon="5.25317">
        <ele>1493.5</ele>
        <time>2024-07-02T12:17:11Z</time>
      </trkpt>
      <trkpt lat="44.85728" lon="5.25317">
        <ele>1493.5</ele>
        <time>2024-07-02T12:17:12Z</time>
      </trkpt>
      <trkpt lat="44.85728" lon="5.25317">
        <ele>1493.5</ele>
        <time>2024-07-02T12:17:13Z</time>
      </trkpt>
      <trkpt lat="44.85728" lon="5.25317">
        <ele>1493.5</ele>
        <time>2024-07-02T12:17:14Z</time>
      </trkpt>
      <trkpt lat="44.85728" lon="5.25317">
        <ele>1493.5</ele>
        <time>2024-07-02T12:17:15Z</time>
      </trkpt>
      <trkpt lat="44.85728" lon="5.25317">
        <ele>1493.5</ele>
        <time>2024-07-02T12:17:16Z</time>
      </trkpt>
      <trkpt lat="44.85728" lon="5.25317">
        <ele>1493.5</ele>
        <time>2024-07-02T12:17:17Z</time>
      </trkpt>
      <trkpt lat="44.85728" lon="5.25317">
        <ele>1493.5</ele>
        <time>2024-07-02T12:17:18Z</time>
      </trkpt>
      <trkpt lat="44.85728" lon="5.25317">
        <ele>1493.5</ele>
        <time>2024-07-02T12:17:19Z</time>
      </trkpt>
      <trkpt lat="44.85728" lon="5.25317">
        <ele>1493.5</ele>
        <time>2024-07-02T12:17:20Z</time>
      </trkpt>
      <trkpt lat="44.85728" lon="5.25317">
        <ele>1493.5</ele>
        <time>2024-07-02T12:17:21Z</time>
      </trkpt>
      <trkpt lat="44.85727" lon="5.25317">
        <ele>1493.5</ele>
        <time>2024-07-02T12:17:22Z</time>
      </trkpt>
      <trkpt lat="44.85727" lon="5.25317">
        <ele>1493.5</ele>
        <time>2024-07-02T12:17:23Z</time>
      </trkpt>
      <trkpt lat="44.85727" lon="5.25317">
        <ele>1493.5</ele>
        <time>2024-07-02T12:17:24Z</time>
      </trkpt>
      <trkpt lat="44.85727" lon="5.25317">
        <ele>1493.5</ele>
        <time>2024-07-02T12:17:25Z</time>
      </trkpt>
      <trkpt lat="44.85727" lon="5.25317">
        <ele>1493.5</ele>
        <time>2024-07-02T12:17:26Z</time>
      </trkpt>
      <trkpt lat="44.85727" lon="5.25317">
        <ele>1493.5</ele>
        <time>2024-07-02T12:17:27Z</time>
      </trkpt>
      <trkpt lat="44.85727" lon="5.25317">
        <ele>1493.5</ele>
        <time>2024-07-02T12:17:28Z</time>
      </trkpt>
      <trkpt lat="44.85727" lon="5.25317">
        <ele>1493.5</ele>
        <time>2024-07-02T12:17:29Z</time>
      </trkpt>
      <trkpt lat="44.85727" lon="5.25317">
        <ele>1493.5</ele>
        <time>2024-07-02T12:17:30Z</time>
      </trkpt>
      <trkpt lat="44.85727" lon="5.25317">
        <ele>1493.5</ele>
        <time>2024-07-02T12:17:31Z</time>
      </trkpt>
      <trkpt lat="44.85727" lon="5.25317">
        <ele>1493.5</ele>
        <time>2024-07-02T12:17:32Z</time>
      </trkpt>
      <trkpt lat="44.85727" lon="5.25317">
        <ele>1493.5</ele>
        <time>2024-07-02T12:17:33Z</time>
      </trkpt>
      <trkpt lat="44.85727" lon="5.25317">
        <ele>1493.5</ele>
        <time>2024-07-02T12:17:34Z</time>
      </trkpt>
      <trkpt lat="44.85727" lon="5.25317">
        <ele>1493.5</ele>
        <time>2024-07-02T12:17:35Z</time>
      </trkpt>
      <trkpt lat="44.85727" lon="5.25317">
        <ele>1493.5</ele>
        <time>2024-07-02T12:17:36Z</time>
      </trkpt>
      <trkpt lat="44.85727" lon="5.25317">
        <ele>1493.5</ele>
        <time>2024-07-02T12:17:37Z</time>
      </trkpt>
      <trkpt lat="44.85727" lon="5.25318">
        <ele>1493.5</ele>
        <time>2024-07-02T12:17:38Z</time>
      </trkpt>
      <trkpt lat="44.85727" lon="5.25319">
        <ele>1493.5</ele>
        <time>2024-07-02T12:17:39Z</time>
      </trkpt>
      <trkpt lat="44.85728" lon="5.25318">
        <ele>1493.5</ele>
        <time>2024-07-02T12:17:40Z</time>
      </trkpt>
      <trkpt lat="44.85728" lon="5.25318">
        <ele>1493.5</ele>
        <time>2024-07-02T12:17:41Z</time>
      </trkpt>
      <trkpt lat="44.85728" lon="5.25318">
        <ele>1493.5</ele>
        <time>2024-07-02T12:17:42Z</time>
      </trkpt>
      <trkpt lat="44.85728" lon="5.25318">
        <ele>1493.5</ele>
        <time>2024-07-02T12:17:43Z</time>
      </trkpt>
      <trkpt lat="44.85728" lon="5.25318">
        <ele>1493.5</ele>
        <time>2024-07-02T12:17:44Z</time>
      </trkpt>
      <trkpt lat="44.85728" lon="5.25318">
        <ele>1493.5</ele>
        <time>2024-07-02T12:17:45Z</time>
      </trkpt>
      <trkpt lat="44.85728" lon="5.25318">
        <ele>1493.5</ele>
        <time>2024-07-02T12:17:46Z</time>
      </trkpt>
      <trkpt lat="44.85728" lon="5.25317">
        <ele>1493.5</ele>
        <time>2024-07-02T12:17:47Z</time>
      </trkpt>
      <trkpt lat="44.85728" lon="5.25318">
        <ele>1493.5</ele>
        <time>2024-07-02T12:17:48Z</time>
      </trkpt>
      <trkpt lat="44.85728" lon="5.25318">
        <ele>1493.5</ele>
        <time>2024-07-02T12:17:49Z</time>
      </trkpt>
      <trkpt lat="44.85728" lon="5.25318">
        <ele>1493.5</ele>
        <time>2024-07-02T12:17:50Z</time>
      </trkpt>
      <trkpt lat="44.85728" lon="5.25318">
        <ele>1493.5</ele>
        <time>2024-07-02T12:17:51Z</time>
      </trkpt>
      <trkpt lat="44.85728" lon="5.25318">
        <ele>1493.5</ele>
        <time>2024-07-02T12:17:52Z</time>
      </trkpt>
      <trkpt lat="44.85728" lon="5.25318">
        <ele>1493.5</ele>
        <time>2024-07-02T12:17:53Z</time>
      </trkpt>
      <trkpt lat="44.85728" lon="5.25318">
        <ele>1493.5</ele>
        <time>2024-07-02T12:17:54Z</time>
      </trkpt>
      <trkpt lat="44.85728" lon="5.25318">
        <ele>1493.5</ele>
        <time>2024-07-02T12:17:55Z</time>
      </trkpt>
      <trkpt lat="44.85728" lon="5.25318">
        <ele>1493.5</ele>
        <time>2024-07-02T12:17:56Z</time>
      </trkpt>
      <trkpt lat="44.85728" lon="5.25318">
        <ele>1493.5</ele>
        <time>2024-07-02T12:17:57Z</time>
      </trkpt>
      <trkpt lat="44.85728" lon="5.25318">
        <ele>1493.5</ele>
        <time>2024-07-02T12:17:58Z</time>
      </trkpt>
      <trkpt lat="44.85728" lon="5.25318">
        <ele>1493.5</ele>
        <time>2024-07-02T12:17:59Z</time>
      </trkpt>
      <trkpt lat="44.85728" lon="5.25317">
        <ele>1493.5</ele>
        <time>2024-07-02T12:18:00Z</time>
      </trkpt>
      <trkpt lat="44.85728" lon="5.25317">
        <ele>1493.5</ele>
        <time>2024-07-02T12:18:01Z</time>
      </trkpt>
      <trkpt lat="44.85728" lon="5.25317">
        <ele>1493.5</ele>
        <time>2024-07-02T12:18:02Z</time>
      </trkpt>
      <trkpt lat="44.85728" lon="5.25317">
        <ele>1493.5</ele>
        <time>2024-07-02T12:18:03Z</time>
      </trkpt>
      <trkpt lat="44.85728" lon="5.25317">
        <ele>1493.5</ele>
        <time>2024-07-02T12:18:04Z</time>
      </trkpt>
      <trkpt lat="44.85727" lon="5.25317">
        <ele>1493.5</ele>
        <time>2024-07-02T12:18:05Z</time>
      </trkpt>
      <trkpt lat="44.85727" lon="5.25317">
        <ele>1493.5</ele>
        <time>2024-07-02T12:18:06Z</time>
      </trkpt>
      <trkpt lat="44.85726" lon="5.25317">
        <ele>1493.5</ele>
        <time>2024-07-02T12:18:07Z</time>
      </trkpt>
      <trkpt lat="44.85726" lon="5.25317">
        <ele>1493.5</ele>
        <time>2024-07-02T12:18:08Z</time>
      </trkpt>
      <trkpt lat="44.85726" lon="5.25317">
        <ele>1493.5</ele>
        <time>2024-07-02T12:18:09Z</time>
      </trkpt>
      <trkpt lat="44.85726" lon="5.25316">
        <ele>1493.5</ele>
        <time>2024-07-02T12:18:10Z</time>
      </trkpt>
      <trkpt lat="44.85726" lon="5.25316">
        <ele>1493.5</ele>
        <time>2024-07-02T12:18:11Z</time>
      </trkpt>
      <trkpt lat="44.85726" lon="5.25316">
        <ele>1493.5</ele>
        <time>2024-07-02T12:18:12Z</time>
      </trkpt>
      <trkpt lat="44.85726" lon="5.25316">
        <ele>1493.5</ele>
        <time>2024-07-02T12:18:13Z</time>
      </trkpt>
      <trkpt lat="44.85726" lon="5.25316">
        <ele>1493.5</ele>
        <time>2024-07-02T12:18:14Z</time>
      </trkpt>
      <trkpt lat="44.85726" lon="5.25316">
        <ele>1493.5</ele>
        <time>2024-07-02T12:18:15Z</time>
      </trkpt>
      <trkpt lat="44.85727" lon="5.25317">
        <ele>1493.5</ele>
        <time>2024-07-02T12:18:16Z</time>
      </trkpt>
      <trkpt lat="44.85727" lon="5.25318">
        <ele>1493.5</ele>
        <time>2024-07-02T12:18:17Z</time>
      </trkpt>
      <trkpt lat="44.85728" lon="5.25318">
        <ele>1493.5</ele>
        <time>2024-07-02T12:18:18Z</time>
      </trkpt>
      <trkpt lat="44.85728" lon="5.25318">
        <ele>1493.5</ele>
        <time>2024-07-02T12:18:19Z</time>
      </trkpt>
      <trkpt lat="44.85728" lon="5.25318">
        <ele>1493.5</ele>
        <time>2024-07-02T12:18:20Z</time>
      </trkpt>
      <trkpt lat="44.85728" lon="5.25318">
        <ele>1493.5</ele>
        <time>2024-07-02T12:18:21Z</time>
      </trkpt>
      <trkpt lat="44.85728" lon="5.25318">
        <ele>1493.5</ele>
        <time>2024-07-02T12:18:22Z</time>
      </trkpt>
      <trkpt lat="44.85728" lon="5.25318">
        <ele>1493.5</ele>
        <time>2024-07-02T12:18:23Z</time>
      </trkpt>
      <trkpt lat="44.85728" lon="5.25318">
        <ele>1493.5</ele>
        <time>2024-07-02T12:18:24Z</time>
      </trkpt>
      <trkpt lat="44.85728" lon="5.25318">
        <ele>1493.5</ele>
        <time>2024-07-02T12:18:25Z</time>
      </trkpt>
      <trkpt lat="44.85728" lon="5.25318">
        <ele>1493.5</ele>
        <time>2024-07-02T12:18:26Z</time>
      </trkpt>
      <trkpt lat="44.85728" lon="5.25318">
        <ele>1493.5</ele>
        <time>2024-07-02T12:18:27Z</time>
      </trkpt>
      <trkpt lat="44.85728" lon="5.25318">
        <ele>1493.5</ele>
        <time>2024-07-02T12:18:28Z</time>
      </trkpt>
      <trkpt lat="44.85728" lon="5.25318">
        <ele>1493.5</ele>
        <time>2024-07-02T12:18:29Z</time>
      </trkpt>
      <trkpt lat="44.85728" lon="5.25318">
        <ele>1493.5</ele>
        <time>2024-07-02T12:18:30Z</time>
      </trkpt>
      <trkpt lat="44.85728" lon="5.25317">
        <ele>1493.5</ele>
        <time>2024-07-02T12:18:31Z</time>
      </trkpt>
      <trkpt lat="44.85727" lon="5.25318">
        <ele>1493.5</ele>
        <time>2024-07-02T12:18:32Z</time>
      </trkpt>
      <trkpt lat="44.85727" lon="5.25318">
        <ele>1493.5</ele>
        <time>2024-07-02T12:18:33Z</time>
      </trkpt>
      <trkpt lat="44.85727" lon="5.25317">
        <ele>1493.5</ele>
        <time>2024-07-02T12:18:34Z</time>
      </trkpt>
      <trkpt lat="44.85727" lon="5.25317">
        <ele>1493.5</ele>
        <time>2024-07-02T12:18:35Z</time>
      </trkpt>
      <trkpt lat="44.85727" lon="5.25317">
        <ele>1493.5</ele>
        <time>2024-07-02T12:18:36Z</time>
      </trkpt>
      <trkpt lat="44.85727" lon="5.25317">
        <ele>1493.5</ele>
        <time>2024-07-02T12:18:37Z</time>
      </trkpt>
      <trkpt lat="44.85727" lon="5.25317">
        <ele>1493.5</ele>
        <time>2024-07-02T12:18:38Z</time>
      </trkpt>
      <trkpt lat="44.85728" lon="5.25318">
        <ele>1493.5</ele>
        <time>2024-07-02T12:18:39Z</time>
      </trkpt>
      <trkpt lat="44.85728" lon="5.25318">
        <ele>1493.5</ele>
        <time>2024-07-02T12:18:40Z</time>
      </trkpt>
      <trkpt lat="44.85727" lon="5.25317">
        <ele>1493.5</ele>
        <time>2024-07-02T12:18:41Z</time>
      </trkpt>
      <trkpt lat="44.85727" lon="5.25318">
        <ele>1493.5</ele>
        <time>2024-07-02T12:18:42Z</time>
      </trkpt>
      <trkpt lat="44.85726" lon="5.25318">
        <ele>1493.5</ele>
        <time>2024-07-02T12:18:43Z</time>
      </trkpt>
      <trkpt lat="44.85726" lon="5.25318">
        <ele>1493.5</ele>
        <time>2024-07-02T12:18:44Z</time>
      </trkpt>
      <trkpt lat="44.85726" lon="5.25318">
        <ele>1493.5</ele>
        <time>2024-07-02T12:18:45Z</time>
      </trkpt>
      <trkpt lat="44.85726" lon="5.25318">
        <ele>1493.6</ele>
        <time>2024-07-02T12:18:46Z</time>
      </trkpt>
      <trkpt lat="44.85725" lon="5.25319">
        <ele>1493.6</ele>
        <time>2024-07-02T12:18:47Z</time>
      </trkpt>
      <trkpt lat="44.85725" lon="5.2532">
        <ele>1493.6</ele>
        <time>2024-07-02T12:18:48Z</time>
      </trkpt>
      <trkpt lat="44.85725" lon="5.25321">
        <ele>1493.6</ele>
        <time>2024-07-02T12:18:49Z</time>
      </trkpt>
      <trkpt lat="44.85725" lon="5.25321">
        <ele>1493.6</ele>
        <time>2024-07-02T12:18:50Z</time>
      </trkpt>
      <trkpt lat="44.85725" lon="5.25322">
        <ele>1493.6</ele>
        <time>2024-07-02T12:18:51Z</time>
      </trkpt>
      <trkpt lat="44.85725" lon="5.25322">
        <ele>1493.6</ele>
        <time>2024-07-02T12:18:52Z</time>
      </trkpt>
      <trkpt lat="44.85725" lon="5.25322">
        <ele>1493.6</ele>
        <time>2024-07-02T12:18:53Z</time>
      </trkpt>
      <trkpt lat="44.85725" lon="5.25322">
        <ele>1493.6</ele>
        <time>2024-07-02T12:18:54Z</time>
      </trkpt>
      <trkpt lat="44.85725" lon="5.25322">
        <ele>1493.6</ele>
        <time>2024-07-02T12:18:55Z</time>
      </trkpt>
      <trkpt lat="44.85725" lon="5.25322">
        <ele>1493.6</ele>
        <time>2024-07-02T12:18:56Z</time>
      </trkpt>
      <trkpt lat="44.85725" lon="5.25321">
        <ele>1493.6</ele>
        <time>2024-07-02T12:18:57Z</time>
      </trkpt>
      <trkpt lat="44.85725" lon="5.25321">
        <ele>1493.6</ele>
        <time>2024-07-02T12:18:58Z</time>
      </trkpt>
      <trkpt lat="44.85725" lon="5.25321">
        <ele>1493.6</ele>
        <time>2024-07-02T12:18:59Z</time>
      </trkpt>
      <trkpt lat="44.85725" lon="5.25321">
        <ele>1493.6</ele>
        <time>2024-07-02T12:19:00Z</time>
      </trkpt>
      <trkpt lat="44.85725" lon="5.25321">
        <ele>1493.6</ele>
        <time>2024-07-02T12:19:01Z</time>
      </trkpt>
      <trkpt lat="44.85725" lon="5.25321">
        <ele>1493.6</ele>
        <time>2024-07-02T12:19:02Z</time>
      </trkpt>
      <trkpt lat="44.85725" lon="5.25321">
        <ele>1493.6</ele>
        <time>2024-07-02T12:19:03Z</time>
      </trkpt>
      <trkpt lat="44.85724" lon="5.25321">
        <ele>1493.6</ele>
        <time>2024-07-02T12:19:04Z</time>
      </trkpt>
      <trkpt lat="44.85725" lon="5.25321">
        <ele>1493.6</ele>
        <time>2024-07-02T12:19:05Z</time>
      </trkpt>
      <trkpt lat="44.85725" lon="5.2532">
        <ele>1493.6</ele>
        <time>2024-07-02T12:19:06Z</time>
      </trkpt>
      <trkpt lat="44.85725" lon="5.2532">
        <ele>1493.6</ele>
        <time>2024-07-02T12:19:07Z</time>
      </trkpt>
      <trkpt lat="44.85725" lon="5.25321">
        <ele>1493.6</ele>
        <time>2024-07-02T12:19:08Z</time>
      </trkpt>
      <trkpt lat="44.85725" lon="5.25321">
        <ele>1493.6</ele>
        <time>2024-07-02T12:19:09Z</time>
      </trkpt>
      <trkpt lat="44.85725" lon="5.25321">
        <ele>1493.6</ele>
        <time>2024-07-02T12:19:10Z</time>
      </trkpt>
      <trkpt lat="44.85725" lon="5.25321">
        <ele>1493.6</ele>
        <time>2024-07-02T12:19:11Z</time>
      </trkpt>
      <trkpt lat="44.85725" lon="5.25321">
        <ele>1493.6</ele>
        <time>2024-07-02T12:19:12Z</time>
      </trkpt>
      <trkpt lat="44.85725" lon="5.25321">
        <ele>1493.6</ele>
        <time>2024-07-02T12:19:13Z</time>
      </trkpt>
      <trkpt lat="44.85725" lon="5.25321">
        <ele>1493.6</ele>
        <time>2024-07-02T12:19:14Z</time>
      </trkpt>
      <trkpt lat="44.85725" lon="5.25321">
        <ele>1493.6</ele>
        <time>2024-07-02T12:19:15Z</time>
      </trkpt>
      <trkpt lat="44.85725" lon="5.25321">
        <ele>1493.6</ele>
        <time>2024-07-02T12:19:16Z</time>
      </trkpt>
      <trkpt lat="44.85725" lon="5.25321">
        <ele>1493.6</ele>
        <time>2024-07-02T12:19:17Z</time>
      </trkpt>
      <trkpt lat="44.85725" lon="5.25321">
        <ele>1493.6</ele>
        <time>2024-07-02T12:19:18Z</time>
      </trkpt>
      <trkpt lat="44.85725" lon="5.25321">
        <ele>1493.6</ele>
        <time>2024-07-02T12:19:19Z</time>
      </trkpt>
      <trkpt lat="44.85725" lon="5.25321">
        <ele>1493.6</ele>
        <time>2024-07-02T12:19:20Z</time>
      </trkpt>
      <trkpt lat="44.85725" lon="5.2532">
        <ele>1493.6</ele>
        <time>2024-07-02T12:19:21Z</time>
      </trkpt>
      <trkpt lat="44.85725" lon="5.2532">
        <ele>1493.6</ele>
        <time>2024-07-02T12:19:22Z</time>
      </trkpt>
      <trkpt lat="44.85725" lon="5.2532">
        <ele>1493.6</ele>
        <time>2024-07-02T12:19:23Z</time>
      </trkpt>
      <trkpt lat="44.85725" lon="5.2532">
        <ele>1493.6</ele>
        <time>2024-07-02T12:19:24Z</time>
      </trkpt>
      <trkpt lat="44.85725" lon="5.2532">
        <ele>1493.6</ele>
        <time>2024-07-02T12:19:25Z</time>
      </trkpt>
      <trkpt lat="44.85725" lon="5.2532">
        <ele>1493.6</ele>
        <time>2024-07-02T12:19:26Z</time>
      </trkpt>
      <trkpt lat="44.85725" lon="5.2532">
        <ele>1493.6</ele>
        <time>2024-07-02T12:19:27Z</time>
      </trkpt>
      <trkpt lat="44.85725" lon="5.2532">
        <ele>1493.6</ele>
        <time>2024-07-02T12:19:28Z</time>
      </trkpt>
      <trkpt lat="44.85725" lon="5.2532">
        <ele>1493.6</ele>
        <time>2024-07-02T12:19:29Z</time>
      </trkpt>
      <trkpt lat="44.85725" lon="5.2532">
        <ele>1493.6</ele>
        <time>2024-07-02T12:19:30Z</time>
      </trkpt>
      <trkpt lat="44.85725" lon="5.2532">
        <ele>1493.6</ele>
        <time>2024-07-02T12:19:31Z</time>
      </trkpt>
      <trkpt lat="44.85725" lon="5.2532">
        <ele>1493.6</ele>
        <time>2024-07-02T12:19:32Z</time>
      </trkpt>
      <trkpt lat="44.85726" lon="5.2532">
        <ele>1493.6</ele>
        <time>2024-07-02T12:19:33Z</time>
      </trkpt>
      <trkpt lat="44.85725" lon="5.2532">
        <ele>1493.6</ele>
        <time>2024-07-02T12:19:34Z</time>
      </trkpt>
      <trkpt lat="44.85725" lon="5.2532">
        <ele>1493.6</ele>
        <time>2024-07-02T12:19:35Z</time>
      </trkpt>
      <trkpt lat="44.85725" lon="5.2532">
        <ele>1493.6</ele>
        <time>2024-07-02T12:19:36Z</time>
      </trkpt>
      <trkpt lat="44.85725" lon="5.2532">
        <ele>1493.6</ele>
        <time>2024-07-02T12:19:37Z</time>
      </trkpt>
      <trkpt lat="44.85725" lon="5.2532">
        <ele>1493.6</ele>
        <time>2024-07-02T12:19:38Z</time>
      </trkpt>
      <trkpt lat="44.85725" lon="5.2532">
        <ele>1493.6</ele>
        <time>2024-07-02T12:19:39Z</time>
      </trkpt>
      <trkpt lat="44.85725" lon="5.2532">
        <ele>1493.6</ele>
        <time>2024-07-02T12:19:40Z</time>
      </trkpt>
      <trkpt lat="44.85726" lon="5.2532">
        <ele>1493.6</ele>
        <time>2024-07-02T12:19:41Z</time>
      </trkpt>
      <trkpt lat="44.85726" lon="5.2532">
        <ele>1493.6</ele>
        <time>2024-07-02T12:19:42Z</time>
      </trkpt>
      <trkpt lat="44.85726" lon="5.2532">
        <ele>1493.6</ele>
        <time>2024-07-02T12:19:43Z</time>
      </trkpt>
      <trkpt lat="44.85727" lon="5.25319">
        <ele>1493.6</ele>
        <time>2024-07-02T12:19:44Z</time>
      </trkpt>
      <trkpt lat="44.85727" lon="5.25318">
        <ele>1493.6</ele>
        <time>2024-07-02T12:19:45Z</time>
      </trkpt>
      <trkpt lat="44.85727" lon="5.25318">
        <ele>1493.6</ele>
        <time>2024-07-02T12:19:46Z</time>
      </trkpt>
      <trkpt lat="44.85727" lon="5.25318">
        <ele>1493.6</ele>
        <time>2024-07-02T12:19:47Z</time>
      </trkpt>
      <trkpt lat="44.85727" lon="5.25318">
        <ele>1493.6</ele>
        <time>2024-07-02T12:19:48Z</time>
      </trkpt>
      <trkpt lat="44.85727" lon="5.25318">
        <ele>1493.6</ele>
        <time>2024-07-02T12:19:49Z</time>
      </trkpt>
      <trkpt lat="44.85727" lon="5.25318">
        <ele>1493.6</ele>
        <time>2024-07-02T12:19:50Z</time>
      </trkpt>
      <trkpt lat="44.85727" lon="5.25318">
        <ele>1493.6</ele>
        <time>2024-07-02T12:19:51Z</time>
      </trkpt>
      <trkpt lat="44.85727" lon="5.25318">
        <ele>1493.6</ele>
        <time>2024-07-02T12:19:52Z</time>
      </trkpt>
      <trkpt lat="44.85727" lon="5.25318">
        <ele>1493.6</ele>
        <time>2024-07-02T12:19:53Z</time>
      </trkpt>
      <trkpt lat="44.85727" lon="5.25318">
        <ele>1493.6</ele>
        <time>2024-07-02T12:19:54Z</time>
      </trkpt>
      <trkpt lat="44.85727" lon="5.25318">
        <ele>1493.6</ele>
        <time>2024-07-02T12:19:55Z</time>
      </trkpt>
      <trkpt lat="44.85727" lon="5.25318">
        <ele>1493.6</ele>
        <time>2024-07-02T12:19:56Z</time>
      </trkpt>
      <trkpt lat="44.85726" lon="5.25318">
        <ele>1493.6</ele>
        <time>2024-07-02T12:19:57Z</time>
      </trkpt>
      <trkpt lat="44.85726" lon="5.25318">
        <ele>1493.6</ele>
        <time>2024-07-02T12:19:58Z</time>
      </trkpt>
      <trkpt lat="44.85726" lon="5.25318">
        <ele>1493.6</ele>
        <time>2024-07-02T12:19:59Z</time>
      </trkpt>
      <trkpt lat="44.85726" lon="5.25318">
        <ele>1493.6</ele>
        <time>2024-07-02T12:20:00Z</time>
      </trkpt>
      <trkpt lat="44.85726" lon="5.25318">
        <ele>1493.6</ele>
        <time>2024-07-02T12:20:01Z</time>
      </trkpt>
      <trkpt lat="44.85726" lon="5.25318">
        <ele>1493.6</ele>
        <time>2024-07-02T12:20:02Z</time>
      </trkpt>
      <trkpt lat="44.85726" lon="5.25318">
        <ele>1493.6</ele>
        <time>2024-07-02T12:20:03Z</time>
      </trkpt>
      <trkpt lat="44.85726" lon="5.25318">
        <ele>1493.6</ele>
        <time>2024-07-02T12:20:04Z</time>
      </trkpt>
      <trkpt lat="44.85726" lon="5.25318">
        <ele>1493.6</ele>
        <time>2024-07-02T12:20:05Z</time>
      </trkpt>
      <trkpt lat="44.85726" lon="5.25318">
        <ele>1493.6</ele>
        <time>2024-07-02T12:20:06Z</time>
      </trkpt>
      <trkpt lat="44.85726" lon="5.25318">
        <ele>1493.6</ele>
        <time>2024-07-02T12:20:07Z</time>
      </trkpt>
      <trkpt lat="44.85726" lon="5.25318">
        <ele>1493.6</ele>
        <time>2024-07-02T12:20:08Z</time>
      </trkpt>
      <trkpt lat="44.85726" lon="5.25318">
        <ele>1493.6</ele>
        <time>2024-07-02T12:20:09Z</time>
      </trkpt>
      <trkpt lat="44.85726" lon="5.25318">
        <ele>1493.6</ele>
        <time>2024-07-02T12:20:10Z</time>
      </trkpt>
      <trkpt lat="44.85726" lon="5.25318">
        <ele>1493.6</ele>
        <time>2024-07-02T12:20:11Z</time>
      </trkpt>
      <trkpt lat="44.85726" lon="5.25318">
        <ele>1493.6</ele>
        <time>2024-07-02T12:20:12Z</time>
      </trkpt>
      <trkpt lat="44.85726" lon="5.25318">
        <ele>1493.6</ele>
        <time>2024-07-02T12:20:13Z</time>
      </trkpt>
      <trkpt lat="44.85726" lon="5.25318">
        <ele>1493.6</ele>
        <time>2024-07-02T12:20:14Z</time>
      </trkpt>
      <trkpt lat="44.85726" lon="5.25318">
        <ele>1493.6</ele>
        <time>2024-07-02T12:20:15Z</time>
      </trkpt>
      <trkpt lat="44.85726" lon="5.25318">
        <ele>1493.6</ele>
        <time>2024-07-02T12:20:16Z</time>
      </trkpt>
      <trkpt lat="44.85726" lon="5.25318">
        <ele>1493.6</ele>
        <time>2024-07-02T12:20:17Z</time>
      </trkpt>
      <trkpt lat="44.85726" lon="5.25318">
        <ele>1493.6</ele>
        <time>2024-07-02T12:20:18Z</time>
      </trkpt>
      <trkpt lat="44.85726" lon="5.25318">
        <ele>1493.6</ele>
        <time>2024-07-02T12:20:19Z</time>
      </trkpt>
      <trkpt lat="44.85726" lon="5.25318">
        <ele>1493.6</ele>
        <time>2024-07-02T12:20:20Z</time>
      </trkpt>
      <trkpt lat="44.85726" lon="5.25318">
        <ele>1493.6</ele>
        <time>2024-07-02T12:20:21Z</time>
      </trkpt>
      <trkpt lat="44.85726" lon="5.25318">
        <ele>1493.6</ele>
        <time>2024-07-02T12:20:22Z</time>
      </trkpt>
      <trkpt lat="44.85726" lon="5.25318">
        <ele>1493.6</ele>
        <time>2024-07-02T12:20:23Z</time>
      </trkpt>
      <trkpt lat="44.85726" lon="5.25318">
        <ele>1493.6</ele>
        <time>2024-07-02T12:20:24Z</time>
      </trkpt>
      <trkpt lat="44.85726" lon="5.25318">
        <ele>1493.6</ele>
        <time>2024-07-02T12:20:25Z</time>
      </trkpt>
      <trkpt lat="44.85726" lon="5.25318">
        <ele>1493.6</ele>
        <time>2024-07-02T12:20:26Z</time>
      </trkpt>
      <trkpt lat="44.85726" lon="5.25318">
        <ele>1493.6</ele>
        <time>2024-07-02T12:20:27Z</time>
      </trkpt>
      <trkpt lat="44.85726" lon="5.25318">
        <ele>1493.6</ele>
        <time>2024-07-02T12:20:28Z</time>
      </trkpt>
      <trkpt lat="44.85726" lon="5.25318">
        <ele>1493.6</ele>
        <time>2024-07-02T12:20:29Z</time>
      </trkpt>
      <trkpt lat="44.85726" lon="5.25318">
        <ele>1493.6</ele>
        <time>2024-07-02T12:20:30Z</time>
      </trkpt>
      <trkpt lat="44.85726" lon="5.25318">
        <ele>1493.6</ele>
        <time>2024-07-02T12:20:31Z</time>
      </trkpt>
      <trkpt lat="44.85726" lon="5.25318">
        <ele>1493.6</ele>
        <time>2024-07-02T12:20:32Z</time>
      </trkpt>
      <trkpt lat="44.85726" lon="5.25318">
        <ele>1493.6</ele>
        <time>2024-07-02T12:20:33Z</time>
      </trkpt>
      <trkpt lat="44.85726" lon="5.25318">
        <ele>1493.6</ele>
        <time>2024-07-02T12:20:34Z</time>
      </trkpt>
      <trkpt lat="44.85726" lon="5.25318">
        <ele>1493.6</ele>
        <time>2024-07-02T12:20:35Z</time>
      </trkpt>
      <trkpt lat="44.85726" lon="5.25318">
        <ele>1493.6</ele>
        <time>2024-07-02T12:20:36Z</time>
      </trkpt>
      <trkpt lat="44.85726" lon="5.25318">
        <ele>1493.6</ele>
        <time>2024-07-02T12:20:37Z</time>
      </trkpt>
      <trkpt lat="44.85726" lon="5.25318">
        <ele>1493.6</ele>
        <time>2024-07-02T12:20:38Z</time>
      </trkpt>
      <trkpt lat="44.85726" lon="5.25318">
        <ele>1493.6</ele>
        <time>2024-07-02T12:20:39Z</time>
      </trkpt>
      <trkpt lat="44.85726" lon="5.25317">
        <ele>1493.6</ele>
        <time>2024-07-02T12:20:40Z</time>
      </trkpt>
      <trkpt lat="44.85726" lon="5.25317">
        <ele>1493.6</ele>
        <time>2024-07-02T12:20:41Z</time>
      </trkpt>
      <trkpt lat="44.85726" lon="5.25317">
        <ele>1493.6</ele>
        <time>2024-07-02T12:20:42Z</time>
      </trkpt>
      <trkpt lat="44.85726" lon="5.25317">
        <ele>1493.6</ele>
        <time>2024-07-02T12:20:43Z</time>
      </trkpt>
      <trkpt lat="44.85726" lon="5.25317">
        <ele>1493.6</ele>
        <time>2024-07-02T12:20:44Z</time>
      </trkpt>
      <trkpt lat="44.85726" lon="5.25317">
        <ele>1493.6</ele>
        <time>2024-07-02T12:20:45Z</time>
      </trkpt>
      <trkpt lat="44.85726" lon="5.25317">
        <ele>1493.6</ele>
        <time>2024-07-02T12:20:46Z</time>
      </trkpt>
      <trkpt lat="44.85726" lon="5.25318">
        <ele>1493.6</ele>
        <time>2024-07-02T12:20:47Z</time>
      </trkpt>
      <trkpt lat="44.85726" lon="5.25318">
        <ele>1493.6</ele>
        <time>2024-07-02T12:20:48Z</time>
      </trkpt>
      <trkpt lat="44.85726" lon="5.25318">
        <ele>1493.6</ele>
        <time>2024-07-02T12:20:49Z</time>
      </trkpt>
      <trkpt lat="44.85726" lon="5.25318">
        <ele>1493.6</ele>
        <time>2024-07-02T12:20:50Z</time>
      </trkpt>
      <trkpt lat="44.85726" lon="5.25318">
        <ele>1493.6</ele>
        <time>2024-07-02T12:20:51Z</time>
      </trkpt>
      <trkpt lat="44.85726" lon="5.25318">
        <ele>1493.6</ele>
        <time>2024-07-02T12:20:52Z</time>
      </trkpt>
      <trkpt lat="44.85726" lon="5.25318">
        <ele>1493.6</ele>
        <time>2024-07-02T12:20:53Z</time>
      </trkpt>
      <trkpt lat="44.85726" lon="5.25318">
        <ele>1493.6</ele>
        <time>2024-07-02T12:20:54Z</time>
      </trkpt>
      <trkpt lat="44.85726" lon="5.25318">
        <ele>1493.6</ele>
        <time>2024-07-02T12:20:55Z</time>
      </trkpt>
      <trkpt lat="44.85726" lon="5.25318">
        <ele>1493.6</ele>
        <time>2024-07-02T12:20:56Z</time>
      </trkpt>
      <trkpt lat="44.85726" lon="5.25318">
        <ele>1493.6</ele>
        <time>2024-07-02T12:20:57Z</time>
      </trkpt>
      <trkpt lat="44.85726" lon="5.25318">
        <ele>1493.6</ele>
        <time>2024-07-02T12:20:58Z</time>
      </trkpt>
      <trkpt lat="44.85726" lon="5.25318">
        <ele>1493.6</ele>
        <time>2024-07-02T12:20:59Z</time>
      </trkpt>
      <trkpt lat="44.85726" lon="5.25318">
        <ele>1493.6</ele>
        <time>2024-07-02T12:21:00Z</time>
      </trkpt>
      <trkpt lat="44.85726" lon="5.25318">
        <ele>1493.6</ele>
        <time>2024-07-02T12:21:01Z</time>
      </trkpt>
      <trkpt lat="44.85726" lon="5.25318">
        <ele>1493.6</ele>
        <time>2024-07-02T12:21:02Z</time>
      </trkpt>
      <trkpt lat="44.85726" lon="5.25318">
        <ele>1493.6</ele>
        <time>2024-07-02T12:21:03Z</time>
      </trkpt>
      <trkpt lat="44.85726" lon="5.25318">
        <ele>1493.6</ele>
        <time>2024-07-02T12:21:04Z</time>
      </trkpt>
      <trkpt lat="44.85726" lon="5.25318">
        <ele>1493.6</ele>
        <time>2024-07-02T12:21:05Z</time>
      </trkpt>
      <trkpt lat="44.85726" lon="5.25318">
        <ele>1493.6</ele>
        <time>2024-07-02T12:21:06Z</time>
      </trkpt>
      <trkpt lat="44.85726" lon="5.25318">
        <ele>1493.6</ele>
        <time>2024-07-02T12:21:07Z</time>
      </trkpt>
      <trkpt lat="44.85726" lon="5.25318">
        <ele>1493.6</ele>
        <time>2024-07-02T12:21:08Z</time>
      </trkpt>
      <trkpt lat="44.85726" lon="5.25318">
        <ele>1493.6</ele>
        <time>2024-07-02T12:21:09Z</time>
      </trkpt>
      <trkpt lat="44.85726" lon="5.25318">
        <ele>1493.6</ele>
        <time>2024-07-02T12:21:10Z</time>
      </trkpt>
      <trkpt lat="44.85726" lon="5.25318">
        <ele>1493.6</ele>
        <time>2024-07-02T12:21:11Z</time>
      </trkpt>
      <trkpt lat="44.85726" lon="5.25318">
        <ele>1493.6</ele>
        <time>2024-07-02T12:21:12Z</time>
      </trkpt>
      <trkpt lat="44.85726" lon="5.25317">
        <ele>1493.6</ele>
        <time>2024-07-02T12:21:13Z</time>
      </trkpt>
      <trkpt lat="44.85726" lon="5.25317">
        <ele>1493.6</ele>
        <time>2024-07-02T12:21:14Z</time>
      </trkpt>
      <trkpt lat="44.85726" lon="5.25317">
        <ele>1493.6</ele>
        <time>2024-07-02T12:21:15Z</time>
      </trkpt>
      <trkpt lat="44.85726" lon="5.25317">
        <ele>1493.6</ele>
        <time>2024-07-02T12:21:16Z</time>
      </trkpt>
      <trkpt lat="44.85726" lon="5.25318">
        <ele>1493.6</ele>
        <time>2024-07-02T12:21:17Z</time>
      </trkpt>
      <trkpt lat="44.85726" lon="5.25317">
        <ele>1493.6</ele>
        <time>2024-07-02T12:21:18Z</time>
      </trkpt>
      <trkpt lat="44.85726" lon="5.25317">
        <ele>1493.6</ele>
        <time>2024-07-02T12:21:19Z</time>
      </trkpt>
      <trkpt lat="44.85726" lon="5.25317">
        <ele>1493.6</ele>
        <time>2024-07-02T12:21:20Z</time>
      </trkpt>
      <trkpt lat="44.85726" lon="5.25317">
        <ele>1493.6</ele>
        <time>2024-07-02T12:21:21Z</time>
      </trkpt>
      <trkpt lat="44.85726" lon="5.25317">
        <ele>1493.6</ele>
        <time>2024-07-02T12:21:22Z</time>
      </trkpt>
      <trkpt lat="44.85726" lon="5.25317">
        <ele>1493.6</ele>
        <time>2024-07-02T12:21:23Z</time>
      </trkpt>
      <trkpt lat="44.85726" lon="5.25317">
        <ele>1493.6</ele>
        <time>2024-07-02T12:21:24Z</time>
      </trkpt>
      <trkpt lat="44.85726" lon="5.25317">
        <ele>1493.6</ele>
        <time>2024-07-02T12:21:25Z</time>
      </trkpt>
      <trkpt lat="44.85726" lon="5.25317">
        <ele>1493.6</ele>
        <time>2024-07-02T12:21:26Z</time>
      </trkpt>
      <trkpt lat="44.85726" lon="5.25317">
        <ele>1493.6</ele>
        <time>2024-07-02T12:21:27Z</time>
      </trkpt>
      <trkpt lat="44.85726" lon="5.25316">
        <ele>1493.6</ele>
        <time>2024-07-02T12:21:28Z</time>
      </trkpt>
      <trkpt lat="44.85726" lon="5.25317">
        <ele>1493.6</ele>
        <time>2024-07-02T12:21:29Z</time>
      </trkpt>
      <trkpt lat="44.85726" lon="5.25316">
        <ele>1493.6</ele>
        <time>2024-07-02T12:21:30Z</time>
      </trkpt>
      <trkpt lat="44.85726" lon="5.25316">
        <ele>1493.6</ele>
        <time>2024-07-02T12:21:31Z</time>
      </trkpt>
      <trkpt lat="44.85725" lon="5.25317">
        <ele>1493.6</ele>
        <time>2024-07-02T12:21:32Z</time>
      </trkpt>
      <trkpt lat="44.85725" lon="5.25317">
        <ele>1493.6</ele>
        <time>2024-07-02T12:21:33Z</time>
      </trkpt>
      <trkpt lat="44.85726" lon="5.25317">
        <ele>1493.6</ele>
        <time>2024-07-02T12:21:34Z</time>
      </trkpt>
      <trkpt lat="44.85726" lon="5.25317">
        <ele>1493.6</ele>
        <time>2024-07-02T12:21:35Z</time>
      </trkpt>
      <trkpt lat="44.85726" lon="5.25316">
        <ele>1493.6</ele>
        <time>2024-07-02T12:21:36Z</time>
      </trkpt>
      <trkpt lat="44.85726" lon="5.25316">
        <ele>1493.6</ele>
        <time>2024-07-02T12:21:37Z</time>
      </trkpt>
      <trkpt lat="44.85726" lon="5.25316">
        <ele>1493.6</ele>
        <time>2024-07-02T12:21:38Z</time>
      </trkpt>
      <trkpt lat="44.85726" lon="5.25316">
        <ele>1493.6</ele>
        <time>2024-07-02T12:21:39Z</time>
      </trkpt>
      <trkpt lat="44.85726" lon="5.25316">
        <ele>1493.6</ele>
        <time>2024-07-02T12:21:40Z</time>
      </trkpt>
      <trkpt lat="44.85726" lon="5.25316">
        <ele>1493.6</ele>
        <time>2024-07-02T12:21:41Z</time>
      </trkpt>
      <trkpt lat="44.85726" lon="5.25316">
        <ele>1493.6</ele>
        <time>2024-07-02T12:21:42Z</time>
      </trkpt>
      <trkpt lat="44.85726" lon="5.25316">
        <ele>1493.6</ele>
        <time>2024-07-02T12:21:43Z</time>
      </trkpt>
      <trkpt lat="44.85726" lon="5.25316">
        <ele>1493.6</ele>
        <time>2024-07-02T12:21:44Z</time>
      </trkpt>
      <trkpt lat="44.85726" lon="5.25316">
        <ele>1493.6</ele>
        <time>2024-07-02T12:21:45Z</time>
      </trkpt>
      <trkpt lat="44.85726" lon="5.25316">
        <ele>1493.6</ele>
        <time>2024-07-02T12:21:46Z</time>
      </trkpt>
      <trkpt lat="44.85726" lon="5.25316">
        <ele>1493.6</ele>
        <time>2024-07-02T12:21:47Z</time>
      </trkpt>
      <trkpt lat="44.85726" lon="5.25316">
        <ele>1493.6</ele>
        <time>2024-07-02T12:21:48Z</time>
      </trkpt>
      <trkpt lat="44.85726" lon="5.25316">
        <ele>1493.6</ele>
        <time>2024-07-02T12:21:49Z</time>
      </trkpt>
      <trkpt lat="44.85726" lon="5.25316">
        <ele>1493.6</ele>
        <time>2024-07-02T12:21:50Z</time>
      </trkpt>
      <trkpt lat="44.85726" lon="5.25316">
        <ele>1493.6</ele>
        <time>2024-07-02T12:21:51Z</time>
      </trkpt>
      <trkpt lat="44.85726" lon="5.25316">
        <ele>1493.6</ele>
        <time>2024-07-02T12:21:52Z</time>
      </trkpt>
      <trkpt lat="44.85726" lon="5.25316">
        <ele>1493.6</ele>
        <time>2024-07-02T12:21:53Z</time>
      </trkpt>
      <trkpt lat="44.85726" lon="5.25316">
        <ele>1493.6</ele>
        <time>2024-07-02T12:21:54Z</time>
      </trkpt>
      <trkpt lat="44.85726" lon="5.25316">
        <ele>1493.6</ele>
        <time>2024-07-02T12:21:55Z</time>
      </trkpt>
      <trkpt lat="44.85726" lon="5.25316">
        <ele>1493.6</ele>
        <time>2024-07-02T12:21:56Z</time>
      </trkpt>
      <trkpt lat="44.85726" lon="5.25316">
        <ele>1493.6</ele>
        <time>2024-07-02T12:21:57Z</time>
      </trkpt>
      <trkpt lat="44.85726" lon="5.25317">
        <ele>1493.6</ele>
        <time>2024-07-02T12:21:58Z</time>
      </trkpt>
      <trkpt lat="44.85726" lon="5.25317">
        <ele>1493.6</ele>
        <time>2024-07-02T12:21:59Z</time>
      </trkpt>
      <trkpt lat="44.85726" lon="5.25317">
        <ele>1493.6</ele>
        <time>2024-07-02T12:22:00Z</time>
      </trkpt>
      <trkpt lat="44.85726" lon="5.25317">
        <ele>1493.6</ele>
        <time>2024-07-02T12:22:01Z</time>
      </trkpt>
      <trkpt lat="44.85726" lon="5.25317">
        <ele>1493.6</ele>
        <time>2024-07-02T12:22:02Z</time>
      </trkpt>
      <trkpt lat="44.85726" lon="5.25317">
        <ele>1493.6</ele>
        <time>2024-07-02T12:22:03Z</time>
      </trkpt>
      <trkpt lat="44.85726" lon="5.25317">
        <ele>1493.6</ele>
        <time>2024-07-02T12:22:04Z</time>
      </trkpt>
      <trkpt lat="44.85726" lon="5.25317">
        <ele>1493.6</ele>
        <time>2024-07-02T12:22:05Z</time>
      </trkpt>
      <trkpt lat="44.85726" lon="5.25317">
        <ele>1493.6</ele>
        <time>2024-07-02T12:22:06Z</time>
      </trkpt>
      <trkpt lat="44.85726" lon="5.25317">
        <ele>1493.6</ele>
        <time>2024-07-02T12:22:07Z</time>
      </trkpt>
      <trkpt lat="44.85726" lon="5.25317">
        <ele>1493.6</ele>
        <time>2024-07-02T12:22:08Z</time>
      </trkpt>
      <trkpt lat="44.85726" lon="5.25317">
        <ele>1493.6</ele>
        <time>2024-07-02T12:22:09Z</time>
      </trkpt>
      <trkpt lat="44.85726" lon="5.25316">
        <ele>1493.6</ele>
        <time>2024-07-02T12:22:10Z</time>
      </trkpt>
      <trkpt lat="44.85726" lon="5.25316">
        <ele>1493.6</ele>
        <time>2024-07-02T12:22:11Z</time>
      </trkpt>
      <trkpt lat="44.85726" lon="5.25316">
        <ele>1493.6</ele>
        <time>2024-07-02T12:22:12Z</time>
      </trkpt>
      <trkpt lat="44.85726" lon="5.25316">
        <ele>1493.6</ele>
        <time>2024-07-02T12:22:13Z</time>
      </trkpt>
      <trkpt lat="44.85726" lon="5.25316">
        <ele>1493.6</ele>
        <time>2024-07-02T12:22:14Z</time>
      </trkpt>
      <trkpt lat="44.85726" lon="5.25316">
        <ele>1493.6</ele>
        <time>2024-07-02T12:22:15Z</time>
      </trkpt>
      <trkpt lat="44.85726" lon="5.25317">
        <ele>1493.6</ele>
        <time>2024-07-02T12:22:16Z</time>
      </trkpt>
      <trkpt lat="44.85726" lon="5.25317">
        <ele>1493.6</ele>
        <time>2024-07-02T12:22:17Z</time>
      </trkpt>
      <trkpt lat="44.85726" lon="5.25317">
        <ele>1493.6</ele>
        <time>2024-07-02T12:22:18Z</time>
      </trkpt>
      <trkpt lat="44.85726" lon="5.25317">
        <ele>1493.6</ele>
        <time>2024-07-02T12:22:19Z</time>
      </trkpt>
      <trkpt lat="44.85726" lon="5.25317">
        <ele>1493.6</ele>
        <time>2024-07-02T12:22:20Z</time>
      </trkpt>
      <trkpt lat="44.85726" lon="5.25317">
        <ele>1493.6</ele>
        <time>2024-07-02T12:22:21Z</time>
      </trkpt>
      <trkpt lat="44.85726" lon="5.25317">
        <ele>1493.6</ele>
        <time>2024-07-02T12:22:22Z</time>
      </trkpt>
      <trkpt lat="44.85726" lon="5.25317">
        <ele>1493.6</ele>
        <time>2024-07-02T12:22:23Z</time>
      </trkpt>
      <trkpt lat="44.85726" lon="5.25317">
        <ele>1493.6</ele>
        <time>2024-07-02T12:22:24Z</time>
      </trkpt>
      <trkpt lat="44.85726" lon="5.25317">
        <ele>1493.6</ele>
        <time>2024-07-02T12:22:25Z</time>
      </trkpt>
      <trkpt lat="44.85726" lon="5.25317">
        <ele>1493.6</ele>
        <time>2024-07-02T12:22:26Z</time>
      </trkpt>
      <trkpt lat="44.85726" lon="5.25317">
        <ele>1493.6</ele>
        <time>2024-07-02T12:22:27Z</time>
      </trkpt>
      <trkpt lat="44.85726" lon="5.25317">
        <ele>1493.6</ele>
        <time>2024-07-02T12:22:28Z</time>
      </trkpt>
      <trkpt lat="44.85726" lon="5.25316">
        <ele>1493.6</ele>
        <time>2024-07-02T12:22:29Z</time>
      </trkpt>
      <trkpt lat="44.85726" lon="5.25316">
        <ele>1493.6</ele>
        <time>2024-07-02T12:22:30Z</time>
      </trkpt>
      <trkpt lat="44.85726" lon="5.25316">
        <ele>1493.6</ele>
        <time>2024-07-02T12:22:31Z</time>
      </trkpt>
      <trkpt lat="44.85726" lon="5.25316">
        <ele>1493.6</ele>
        <time>2024-07-02T12:22:32Z</time>
      </trkpt>
      <trkpt lat="44.85726" lon="5.25316">
        <ele>1493.6</ele>
        <time>2024-07-02T12:22:33Z</time>
      </trkpt>
      <trkpt lat="44.85726" lon="5.25316">
        <ele>1493.6</ele>
        <time>2024-07-02T12:22:34Z</time>
      </trkpt>
      <trkpt lat="44.85726" lon="5.25316">
        <ele>1493.6</ele>
        <time>2024-07-02T12:22:35Z</time>
      </trkpt>
      <trkpt lat="44.85726" lon="5.25317">
        <ele>1493.6</ele>
        <time>2024-07-02T12:22:36Z</time>
      </trkpt>
      <trkpt lat="44.85726" lon="5.25317">
        <ele>1493.6</ele>
        <time>2024-07-02T12:22:37Z</time>
      </trkpt>
      <trkpt lat="44.85726" lon="5.25317">
        <ele>1493.6</ele>
        <time>2024-07-02T12:22:38Z</time>
      </trkpt>
      <trkpt lat="44.85726" lon="5.25317">
        <ele>1493.6</ele>
        <time>2024-07-02T12:22:39Z</time>
      </trkpt>
      <trkpt lat="44.85726" lon="5.25317">
        <ele>1493.6</ele>
        <time>2024-07-02T12:22:40Z</time>
      </trkpt>
      <trkpt lat="44.85726" lon="5.25317">
        <ele>1493.6</ele>
        <time>2024-07-02T12:22:41Z</time>
      </trkpt>
      <trkpt lat="44.85726" lon="5.25317">
        <ele>1493.6</ele>
        <time>2024-07-02T12:22:42Z</time>
      </trkpt>
      <trkpt lat="44.85726" lon="5.25317">
        <ele>1493.6</ele>
        <time>2024-07-02T12:22:43Z</time>
      </trkpt>
      <trkpt lat="44.85726" lon="5.25317">
        <ele>1493.6</ele>
        <time>2024-07-02T12:22:44Z</time>
      </trkpt>
      <trkpt lat="44.85727" lon="5.25318">
        <ele>1493.6</ele>
        <time>2024-07-02T12:22:45Z</time>
      </trkpt>
      <trkpt lat="44.85727" lon="5.25319">
        <ele>1493.6</ele>
        <time>2024-07-02T12:22:46Z</time>
      </trkpt>
      <trkpt lat="44.85727" lon="5.25319">
        <ele>1493.6</ele>
        <time>2024-07-02T12:22:47Z</time>
      </trkpt>
      <trkpt lat="44.85728" lon="5.2532">
        <ele>1493.6</ele>
        <time>2024-07-02T12:22:48Z</time>
      </trkpt>
      <trkpt lat="44.85728" lon="5.2532">
        <ele>1493.6</ele>
        <time>2024-07-02T12:22:49Z</time>
      </trkpt>
      <trkpt lat="44.85729" lon="5.2532">
        <ele>1493.6</ele>
        <time>2024-07-02T12:22:50Z</time>
      </trkpt>
      <trkpt lat="44.85729" lon="5.25319">
        <ele>1493.6</ele>
        <time>2024-07-02T12:22:51Z</time>
      </trkpt>
      <trkpt lat="44.85729" lon="5.2532">
        <ele>1493.6</ele>
        <time>2024-07-02T12:22:52Z</time>
      </trkpt>
      <trkpt lat="44.8573" lon="5.2532">
        <ele>1493.6</ele>
        <time>2024-07-02T12:22:53Z</time>
      </trkpt>
      <trkpt lat="44.8573" lon="5.2532">
        <ele>1493.6</ele>
        <time>2024-07-02T12:22:54Z</time>
      </trkpt>
      <trkpt lat="44.8573" lon="5.25321">
        <ele>1493.6</ele>
        <time>2024-07-02T12:22:55Z</time>
      </trkpt>
      <trkpt lat="44.8573" lon="5.25322">
        <ele>1493.6</ele>
        <time>2024-07-02T12:22:56Z</time>
      </trkpt>
      <trkpt lat="44.8573" lon="5.25322">
        <ele>1493.6</ele>
        <time>2024-07-02T12:22:57Z</time>
      </trkpt>
      <trkpt lat="44.8573" lon="5.25321">
        <ele>1493.6</ele>
        <time>2024-07-02T12:22:58Z</time>
      </trkpt>
      <trkpt lat="44.8573" lon="5.25321">
        <ele>1493.6</ele>
        <time>2024-07-02T12:22:59Z</time>
      </trkpt>
      <trkpt lat="44.8573" lon="5.25321">
        <ele>1493.6</ele>
        <time>2024-07-02T12:23:00Z</time>
      </trkpt>
      <trkpt lat="44.8573" lon="5.2532">
        <ele>1493.6</ele>
        <time>2024-07-02T12:23:01Z</time>
      </trkpt>
      <trkpt lat="44.8573" lon="5.2532">
        <ele>1493.6</ele>
        <time>2024-07-02T12:23:02Z</time>
      </trkpt>
      <trkpt lat="44.8573" lon="5.2532">
        <ele>1493.6</ele>
        <time>2024-07-02T12:23:03Z</time>
      </trkpt>
      <trkpt lat="44.8573" lon="5.2532">
        <ele>1493.6</ele>
        <time>2024-07-02T12:23:04Z</time>
      </trkpt>
      <trkpt lat="44.8573" lon="5.25321">
        <ele>1493.6</ele>
        <time>2024-07-02T12:23:05Z</time>
      </trkpt>
      <trkpt lat="44.85731" lon="5.25321">
        <ele>1493.6</ele>
        <time>2024-07-02T12:23:06Z</time>
      </trkpt>
      <trkpt lat="44.85731" lon="5.25321">
        <ele>1493.6</ele>
        <time>2024-07-02T12:23:07Z</time>
      </trkpt>
      <trkpt lat="44.85732" lon="5.25322">
        <ele>1493.6</ele>
        <time>2024-07-02T12:23:08Z</time>
      </trkpt>
      <trkpt lat="44.85733" lon="5.25321">
        <ele>1493.5</ele>
        <time>2024-07-02T12:23:09Z</time>
      </trkpt>
      <trkpt lat="44.85734" lon="5.25321">
        <ele>1493.5</ele>
        <time>2024-07-02T12:23:10Z</time>
      </trkpt>
      <trkpt lat="44.85735" lon="5.25321">
        <ele>1493.5</ele>
        <time>2024-07-02T12:23:11Z</time>
      </trkpt>
      <trkpt lat="44.85735" lon="5.25321">
        <ele>1493.5</ele>
        <time>2024-07-02T12:23:12Z</time>
      </trkpt>
      <trkpt lat="44.85735" lon="5.25321">
        <ele>1493.5</ele>
        <time>2024-07-02T12:23:13Z</time>
      </trkpt>
      <trkpt lat="44.85736" lon="5.25321">
        <ele>1493.5</ele>
        <time>2024-07-02T12:23:14Z</time>
      </trkpt>
      <trkpt lat="44.85736" lon="5.25321">
        <ele>1493.5</ele>
        <time>2024-07-02T12:23:15Z</time>
      </trkpt>
      <trkpt lat="44.85737" lon="5.25321">
        <ele>1493.5</ele>
        <time>2024-07-02T12:23:16Z</time>
      </trkpt>
      <trkpt lat="44.85738" lon="5.25321">
        <ele>1493.5</ele>
        <time>2024-07-02T12:23:17Z</time>
      </trkpt>
      <trkpt lat="44.85738" lon="5.25321">
        <ele>1493.4</ele>
        <time>2024-07-02T12:23:18Z</time>
      </trkpt>
      <trkpt lat="44.85739" lon="5.25321">
        <ele>1493.4</ele>
        <time>2024-07-02T12:23:19Z</time>
      </trkpt>
      <trkpt lat="44.8574" lon="5.25321">
        <ele>1493.4</ele>
        <time>2024-07-02T12:23:20Z</time>
      </trkpt>
      <trkpt lat="44.85741" lon="5.25321">
        <ele>1493.4</ele>
        <time>2024-07-02T12:23:21Z</time>
      </trkpt>
      <trkpt lat="44.85742" lon="5.2532">
        <ele>1493.3</ele>
        <time>2024-07-02T12:23:22Z</time>
      </trkpt>
      <trkpt lat="44.85742" lon="5.2532">
        <ele>1493.3</ele>
        <time>2024-07-02T12:23:23Z</time>
      </trkpt>
      <trkpt lat="44.85743" lon="5.2532">
        <ele>1493.3</ele>
        <time>2024-07-02T12:23:24Z</time>
      </trkpt>
      <trkpt lat="44.85744" lon="5.25319">
        <ele>1493.2</ele>
        <time>2024-07-02T12:23:25Z</time>
      </trkpt>
      <trkpt lat="44.85746" lon="5.25319">
        <ele>1493.2</ele>
        <time>2024-07-02T12:23:26Z</time>
      </trkpt>
      <trkpt lat="44.85746" lon="5.25318">
        <ele>1493.1</ele>
        <time>2024-07-02T12:23:27Z</time>
      </trkpt>
      <trkpt lat="44.85747" lon="5.25318">
        <ele>1493.1</ele>
        <time>2024-07-02T12:23:28Z</time>
      </trkpt>
      <trkpt lat="44.85748" lon="5.25318">
        <ele>1493</ele>
        <time>2024-07-02T12:23:29Z</time>
      </trkpt>
      <trkpt lat="44.85749" lon="5.25318">
        <ele>1493</ele>
        <time>2024-07-02T12:23:30Z</time>
      </trkpt>
      <trkpt lat="44.8575" lon="5.25318">
        <ele>1492.9</ele>
        <time>2024-07-02T12:23:31Z</time>
      </trkpt>
      <trkpt lat="44.85751" lon="5.25317">
        <ele>1492.9</ele>
        <time>2024-07-02T12:23:32Z</time>
      </trkpt>
      <trkpt lat="44.85752" lon="5.25317">
        <ele>1492.8</ele>
        <time>2024-07-02T12:23:33Z</time>
      </trkpt>
      <trkpt lat="44.85753" lon="5.25317">
        <ele>1492.7</ele>
        <time>2024-07-02T12:23:34Z</time>
      </trkpt>
      <trkpt lat="44.85755" lon="5.25317">
        <ele>1492.6</ele>
        <time>2024-07-02T12:23:35Z</time>
      </trkpt>
      <trkpt lat="44.85755" lon="5.25317">
        <ele>1492.6</ele>
        <time>2024-07-02T12:23:36Z</time>
      </trkpt>
      <trkpt lat="44.85756" lon="5.25317">
        <ele>1492.5</ele>
        <time>2024-07-02T12:23:37Z</time>
      </trkpt>
      <trkpt lat="44.85758" lon="5.25317">
        <ele>1492.4</ele>
        <time>2024-07-02T12:23:38Z</time>
      </trkpt>
      <trkpt lat="44.85758" lon="5.25317">
        <ele>1492.3</ele>
        <time>2024-07-02T12:23:39Z</time>
      </trkpt>
      <trkpt lat="44.8576" lon="5.25316">
        <ele>1492.2</ele>
        <time>2024-07-02T12:23:40Z</time>
      </trkpt>
      <trkpt lat="44.85761" lon="5.25316">
        <ele>1492.1</ele>
        <time>2024-07-02T12:23:41Z</time>
      </trkpt>
      <trkpt lat="44.85762" lon="5.25315">
        <ele>1492</ele>
        <time>2024-07-02T12:23:42Z</time>
      </trkpt>
      <trkpt lat="44.85764" lon="5.25315">
        <ele>1491.8</ele>
        <time>2024-07-02T12:23:43Z</time>
      </trkpt>
      <trkpt lat="44.85765" lon="5.25315">
        <ele>1491.8</ele>
        <time>2024-07-02T12:23:44Z</time>
      </trkpt>
      <trkpt lat="44.85766" lon="5.25315">
        <ele>1491.7</ele>
        <time>2024-07-02T12:23:45Z</time>
      </trkpt>
      <trkpt lat="44.85766" lon="5.25314">
        <ele>1491.6</ele>
        <time>2024-07-02T12:23:46Z</time>
      </trkpt>
      <trkpt lat="44.85767" lon="5.25314">
        <ele>1491.5</ele>
        <time>2024-07-02T12:23:47Z</time>
      </trkpt>
      <trkpt lat="44.85769" lon="5.25314">
        <ele>1491.4</ele>
        <time>2024-07-02T12:23:48Z</time>
      </trkpt>
      <trkpt lat="44.8577" lon="5.25313">
        <ele>1491.3</ele>
        <time>2024-07-02T12:23:49Z</time>
      </trkpt>
      <trkpt lat="44.85772" lon="5.25313">
        <ele>1491.2</ele>
        <time>2024-07-02T12:23:50Z</time>
      </trkpt>
      <trkpt lat="44.85772" lon="5.25313">
        <ele>1491.1</ele>
        <time>2024-07-02T12:23:51Z</time>
      </trkpt>
      <trkpt lat="44.85773" lon="5.25312">
        <ele>1491</ele>
        <time>2024-07-02T12:23:52Z</time>
      </trkpt>
      <trkpt lat="44.85774" lon="5.25312">
        <ele>1490.9</ele>
        <time>2024-07-02T12:23:53Z</time>
      </trkpt>
      <trkpt lat="44.85776" lon="5.25312">
        <ele>1490.8</ele>
        <time>2024-07-02T12:23:54Z</time>
      </trkpt>
      <trkpt lat="44.85777" lon="5.25311">
        <ele>1490.7</ele>
        <time>2024-07-02T12:23:55Z</time>
      </trkpt>
      <trkpt lat="44.85778" lon="5.25311">
        <ele>1490.6</ele>
        <time>2024-07-02T12:23:56Z</time>
      </trkpt>
      <trkpt lat="44.85779" lon="5.25311">
        <ele>1490.5</ele>
        <time>2024-07-02T12:23:57Z</time>
      </trkpt>
      <trkpt lat="44.85781" lon="5.25311">
        <ele>1490.4</ele>
        <time>2024-07-02T12:23:58Z</time>
      </trkpt>
      <trkpt lat="44.85781" lon="5.25311">
        <ele>1490.3</ele>
        <time>2024-07-02T12:23:59Z</time>
      </trkpt>
      <trkpt lat="44.85782" lon="5.25311">
        <ele>1490.2</ele>
        <time>2024-07-02T12:24:00Z</time>
      </trkpt>
      <trkpt lat="44.85784" lon="5.25311">
        <ele>1490.1</ele>
        <time>2024-07-02T12:24:01Z</time>
      </trkpt>
      <trkpt lat="44.85785" lon="5.25311">
        <ele>1490</ele>
        <time>2024-07-02T12:24:02Z</time>
      </trkpt>
      <trkpt lat="44.85786" lon="5.25311">
        <ele>1489.9</ele>
        <time>2024-07-02T12:24:03Z</time>
      </trkpt>
      <trkpt lat="44.85787" lon="5.25311">
        <ele>1489.8</ele>
        <time>2024-07-02T12:24:04Z</time>
      </trkpt>
      <trkpt lat="44.85788" lon="5.25311">
        <ele>1489.6</ele>
        <time>2024-07-02T12:24:05Z</time>
      </trkpt>
      <trkpt lat="44.85789" lon="5.25311">
        <ele>1489.5</ele>
        <time>2024-07-02T12:24:06Z</time>
      </trkpt>
      <trkpt lat="44.85789" lon="5.25311">
        <ele>1489.4</ele>
        <time>2024-07-02T12:24:07Z</time>
      </trkpt>
      <trkpt lat="44.85791" lon="5.25311">
        <ele>1489.3</ele>
        <time>2024-07-02T12:24:08Z</time>
      </trkpt>
      <trkpt lat="44.85791" lon="5.25311">
        <ele>1489.2</ele>
        <time>2024-07-02T12:24:09Z</time>
      </trkpt>
      <trkpt lat="44.85793" lon="5.2531">
        <ele>1489</ele>
        <time>2024-07-02T12:24:10Z</time>
      </trkpt>
      <trkpt lat="44.85793" lon="5.25309">
        <ele>1488.9</ele>
        <time>2024-07-02T12:24:11Z</time>
      </trkpt>
      <trkpt lat="44.85793" lon="5.25308">
        <ele>1488.8</ele>
        <time>2024-07-02T12:24:12Z</time>
      </trkpt>
      <trkpt lat="44.85794" lon="5.25307">
        <ele>1488.7</ele>
        <time>2024-07-02T12:24:13Z</time>
      </trkpt>
      <trkpt lat="44.85794" lon="5.25306">
        <ele>1488.6</ele>
        <time>2024-07-02T12:24:14Z</time>
      </trkpt>
      <trkpt lat="44.85794" lon="5.25305">
        <ele>1488.5</ele>
        <time>2024-07-02T12:24:15Z</time>
      </trkpt>
      <trkpt lat="44.85795" lon="5.25304">
        <ele>1488.4</ele>
        <time>2024-07-02T12:24:16Z</time>
      </trkpt>
      <trkpt lat="44.85795" lon="5.25303">
        <ele>1488.3</ele>
        <time>2024-07-02T12:24:17Z</time>
      </trkpt>
      <trkpt lat="44.85795" lon="5.25303">
        <ele>1488.2</ele>
        <time>2024-07-02T12:24:18Z</time>
      </trkpt>
      <trkpt lat="44.85795" lon="5.25302">
        <ele>1488.1</ele>
        <time>2024-07-02T12:24:19Z</time>
      </trkpt>
      <trkpt lat="44.85795" lon="5.25302">
        <ele>1488.1</ele>
        <time>2024-07-02T12:24:20Z</time>
      </trkpt>
      <trkpt lat="44.85795" lon="5.25302">
        <ele>1488.1</ele>
        <time>2024-07-02T12:24:21Z</time>
      </trkpt>
      <trkpt lat="44.85795" lon="5.25302">
        <ele>1488</ele>
        <time>2024-07-02T12:24:22Z</time>
      </trkpt>
      <trkpt lat="44.85795" lon="5.25302">
        <ele>1488</ele>
        <time>2024-07-02T12:24:23Z</time>
      </trkpt>
      <trkpt lat="44.85795" lon="5.25303">
        <ele>1488</ele>
        <time>2024-07-02T12:24:24Z</time>
      </trkpt>
      <trkpt lat="44.85795" lon="5.25303">
        <ele>1488</ele>
        <time>2024-07-02T12:24:25Z</time>
      </trkpt>
      <trkpt lat="44.85795" lon="5.25303">
        <ele>1488</ele>
        <time>2024-07-02T12:24:26Z</time>
      </trkpt>
      <trkpt lat="44.85795" lon="5.25303">
        <ele>1488</ele>
        <time>2024-07-02T12:24:27Z</time>
      </trkpt>
      <trkpt lat="44.85795" lon="5.25303">
        <ele>1488</ele>
        <time>2024-07-02T12:24:28Z</time>
      </trkpt>
      <trkpt lat="44.85795" lon="5.25303">
        <ele>1488</ele>
        <time>2024-07-02T12:24:29Z</time>
      </trkpt>
      <trkpt lat="44.85795" lon="5.25303">
        <ele>1487.9</ele>
        <time>2024-07-02T12:24:30Z</time>
      </trkpt>
      <trkpt lat="44.85795" lon="5.25303">
        <ele>1487.9</ele>
        <time>2024-07-02T12:24:31Z</time>
      </trkpt>
      <trkpt lat="44.85795" lon="5.25303">
        <ele>1487.9</ele>
        <time>2024-07-02T12:24:32Z</time>
      </trkpt>
      <trkpt lat="44.85795" lon="5.25303">
        <ele>1487.9</ele>
        <time>2024-07-02T12:24:33Z</time>
      </trkpt>
      <trkpt lat="44.85795" lon="5.25303">
        <ele>1487.9</ele>
        <time>2024-07-02T12:24:34Z</time>
      </trkpt>
      <trkpt lat="44.85795" lon="5.25302">
        <ele>1487.9</ele>
        <time>2024-07-02T12:24:35Z</time>
      </trkpt>
      <trkpt lat="44.85795" lon="5.25302">
        <ele>1487.8</ele>
        <time>2024-07-02T12:24:36Z</time>
      </trkpt>
      <trkpt lat="44.85795" lon="5.25302">
        <ele>1487.8</ele>
        <time>2024-07-02T12:24:37Z</time>
      </trkpt>
      <trkpt lat="44.85795" lon="5.25302">
        <ele>1487.8</ele>
        <time>2024-07-02T12:24:38Z</time>
      </trkpt>
      <trkpt lat="44.85795" lon="5.25302">
        <ele>1487.8</ele>
        <time>2024-07-02T12:24:39Z</time>
      </trkpt>
      <trkpt lat="44.85795" lon="5.25302">
        <ele>1487.8</ele>
        <time>2024-07-02T12:24:40Z</time>
      </trkpt>
      <trkpt lat="44.85796" lon="5.25303">
        <ele>1487.7</ele>
        <time>2024-07-02T12:24:41Z</time>
      </trkpt>
      <trkpt lat="44.85797" lon="5.25303">
        <ele>1487.5</ele>
        <time>2024-07-02T12:24:42Z</time>
      </trkpt>
      <trkpt lat="44.85797" lon="5.25304">
        <ele>1487.4</ele>
        <time>2024-07-02T12:24:43Z</time>
      </trkpt>
      <trkpt lat="44.85798" lon="5.25304">
        <ele>1487.2</ele>
        <time>2024-07-02T12:24:44Z</time>
      </trkpt>
      <trkpt lat="44.858" lon="5.25303">
        <ele>1487</ele>
        <time>2024-07-02T12:24:45Z</time>
      </trkpt>
      <trkpt lat="44.858" lon="5.25303">
        <ele>1486.9</ele>
        <time>2024-07-02T12:24:46Z</time>
      </trkpt>
      <trkpt lat="44.85801" lon="5.25303">
        <ele>1486.8</ele>
        <time>2024-07-02T12:24:47Z</time>
      </trkpt>
      <trkpt lat="44.85802" lon="5.25303">
        <ele>1486.6</ele>
        <time>2024-07-02T12:24:48Z</time>
      </trkpt>
      <trkpt lat="44.85802" lon="5.25303">
        <ele>1486.5</ele>
        <time>2024-07-02T12:24:49Z</time>
      </trkpt>
      <trkpt lat="44.85805" lon="5.25303">
        <ele>1486.1</ele>
        <time>2024-07-02T12:24:50Z</time>
      </trkpt>
      <trkpt lat="44.85806" lon="5.25303">
        <ele>1486</ele>
        <time>2024-07-02T12:24:51Z</time>
      </trkpt>
      <trkpt lat="44.85806" lon="5.25302">
        <ele>1485.9</ele>
        <time>2024-07-02T12:24:52Z</time>
      </trkpt>
      <trkpt lat="44.85807" lon="5.25302">
        <ele>1485.8</ele>
        <time>2024-07-02T12:24:53Z</time>
      </trkpt>
      <trkpt lat="44.85808" lon="5.25302">
        <ele>1485.6</ele>
        <time>2024-07-02T12:24:54Z</time>
      </trkpt>
      <trkpt lat="44.85809" lon="5.25303">
        <ele>1485.4</ele>
        <time>2024-07-02T12:24:55Z</time>
      </trkpt>
      <trkpt lat="44.8581" lon="5.25303">
        <ele>1485.3</ele>
        <time>2024-07-02T12:24:56Z</time>
      </trkpt>
      <trkpt lat="44.8581" lon="5.25302">
        <ele>1485.1</ele>
        <time>2024-07-02T12:24:57Z</time>
      </trkpt>
      <trkpt lat="44.85811" lon="5.25301">
        <ele>1484.9</ele>
        <time>2024-07-02T12:24:58Z</time>
      </trkpt>
      <trkpt lat="44.85812" lon="5.25301">
        <ele>1484.7</ele>
        <time>2024-07-02T12:24:59Z</time>
      </trkpt>
      <trkpt lat="44.85813" lon="5.25301">
        <ele>1484.6</ele>
        <time>2024-07-02T12:25:00Z</time>
      </trkpt>
      <trkpt lat="44.85814" lon="5.25301">
        <ele>1484.5</ele>
        <time>2024-07-02T12:25:01Z</time>
      </trkpt>
      <trkpt lat="44.85814" lon="5.25301">
        <ele>1484.5</ele>
        <time>2024-07-02T12:25:02Z</time>
      </trkpt>
      <trkpt lat="44.85814" lon="5.25301">
        <ele>1484.4</ele>
        <time>2024-07-02T12:25:03Z</time>
      </trkpt>
      <trkpt lat="44.85814" lon="5.25301">
        <ele>1484.4</ele>
        <time>2024-07-02T12:25:04Z</time>
      </trkpt>
      <trkpt lat="44.85814" lon="5.25301">
        <ele>1484.4</ele>
        <time>2024-07-02T12:25:05Z</time>
      </trkpt>
      <trkpt lat="44.85815" lon="5.25301">
        <ele>1484.2</ele>
        <time>2024-07-02T12:25:06Z</time>
      </trkpt>
      <trkpt lat="44.85816" lon="5.25301">
        <ele>1484</ele>
        <time>2024-07-02T12:25:07Z</time>
      </trkpt>
      <trkpt lat="44.85817" lon="5.25301">
        <ele>1483.9</ele>
        <time>2024-07-02T12:25:08Z</time>
      </trkpt>
      <trkpt lat="44.85818" lon="5.25301">
        <ele>1483.8</ele>
        <time>2024-07-02T12:25:09Z</time>
      </trkpt>
      <trkpt lat="44.85819" lon="5.253">
        <ele>1483.6</ele>
        <time>2024-07-02T12:25:10Z</time>
      </trkpt>
      <trkpt lat="44.8582" lon="5.253">
        <ele>1483.4</ele>
        <time>2024-07-02T12:25:11Z</time>
      </trkpt>
      <trkpt lat="44.85821" lon="5.253">
        <ele>1483.3</ele>
        <time>2024-07-02T12:25:12Z</time>
      </trkpt>
      <trkpt lat="44.85822" lon="5.253">
        <ele>1483.1</ele>
        <time>2024-07-02T12:25:13Z</time>
      </trkpt>
      <trkpt lat="44.85823" lon="5.25299">
        <ele>1482.9</ele>
        <time>2024-07-02T12:25:14Z</time>
      </trkpt>
      <trkpt lat="44.85824" lon="5.25299">
        <ele>1482.7</ele>
        <time>2024-07-02T12:25:15Z</time>
      </trkpt>
      <trkpt lat="44.85826" lon="5.25298">
        <ele>1482.5</ele>
        <time>2024-07-02T12:25:16Z</time>
      </trkpt>
      <trkpt lat="44.85826" lon="5.25298">
        <ele>1482.3</ele>
        <time>2024-07-02T12:25:17Z</time>
      </trkpt>
      <trkpt lat="44.85827" lon="5.25297">
        <ele>1482.2</ele>
        <time>2024-07-02T12:25:18Z</time>
      </trkpt>
      <trkpt lat="44.85828" lon="5.25297">
        <ele>1482.1</ele>
        <time>2024-07-02T12:25:19Z</time>
      </trkpt>
      <trkpt lat="44.85829" lon="5.25297">
        <ele>1482</ele>
        <time>2024-07-02T12:25:20Z</time>
      </trkpt>
      <trkpt lat="44.8583" lon="5.25296">
        <ele>1481.8</ele>
        <time>2024-07-02T12:25:21Z</time>
      </trkpt>
      <trkpt lat="44.8583" lon="5.25296">
        <ele>1481.7</ele>
        <time>2024-07-02T12:25:22Z</time>
      </trkpt>
      <trkpt lat="44.85831" lon="5.25296">
        <ele>1481.6</ele>
        <time>2024-07-02T12:25:23Z</time>
      </trkpt>
      <trkpt lat="44.85832" lon="5.25296">
        <ele>1481.4</ele>
        <time>2024-07-02T12:25:24Z</time>
      </trkpt>
      <trkpt lat="44.85833" lon="5.25295">
        <ele>1481.2</ele>
        <time>2024-07-02T12:25:25Z</time>
      </trkpt>
      <trkpt lat="44.85835" lon="5.25295">
        <ele>1481.1</ele>
        <time>2024-07-02T12:25:26Z</time>
      </trkpt>
      <trkpt lat="44.85836" lon="5.25294">
        <ele>1480.9</ele>
        <time>2024-07-02T12:25:27Z</time>
      </trkpt>
      <trkpt lat="44.85836" lon="5.25294">
        <ele>1480.8</ele>
        <time>2024-07-02T12:25:28Z</time>
      </trkpt>
      <trkpt lat="44.85838" lon="5.25293">
        <ele>1480.6</ele>
        <time>2024-07-02T12:25:29Z</time>
      </trkpt>
      <trkpt lat="44.85838" lon="5.25293">
        <ele>1480.5</ele>
        <time>2024-07-02T12:25:30Z</time>
      </trkpt>
      <trkpt lat="44.85839" lon="5.25293">
        <ele>1480.4</ele>
        <time>2024-07-02T12:25:31Z</time>
      </trkpt>
      <trkpt lat="44.85841" lon="5.25293">
        <ele>1480.1</ele>
        <time>2024-07-02T12:25:32Z</time>
      </trkpt>
      <trkpt lat="44.85842" lon="5.25292">
        <ele>1480</ele>
        <time>2024-07-02T12:25:33Z</time>
      </trkpt>
      <trkpt lat="44.85842" lon="5.25292">
        <ele>1479.9</ele>
        <time>2024-07-02T12:25:34Z</time>
      </trkpt>
      <trkpt lat="44.85843" lon="5.25292">
        <ele>1479.8</ele>
        <time>2024-07-02T12:25:35Z</time>
      </trkpt>
      <trkpt lat="44.85844" lon="5.25292">
        <ele>1479.6</ele>
        <time>2024-07-02T12:25:36Z</time>
      </trkpt>
      <trkpt lat="44.85845" lon="5.25292">
        <ele>1479.6</ele>
        <time>2024-07-02T12:25:37Z</time>
      </trkpt>
      <trkpt lat="44.85846" lon="5.25292">
        <ele>1479.4</ele>
        <time>2024-07-02T12:25:38Z</time>
      </trkpt>
      <trkpt lat="44.85847" lon="5.25292">
        <ele>1479.3</ele>
        <time>2024-07-02T12:25:39Z</time>
      </trkpt>
      <trkpt lat="44.85847" lon="5.25292">
        <ele>1479.2</ele>
        <time>2024-07-02T12:25:40Z</time>
      </trkpt>
      <trkpt lat="44.85848" lon="5.25292">
        <ele>1479.1</ele>
        <time>2024-07-02T12:25:41Z</time>
      </trkpt>
      <trkpt lat="44.85849" lon="5.25291">
        <ele>1478.9</ele>
        <time>2024-07-02T12:25:42Z</time>
      </trkpt>
      <trkpt lat="44.8585" lon="5.25291">
        <ele>1478.8</ele>
        <time>2024-07-02T12:25:43Z</time>
      </trkpt>
      <trkpt lat="44.85851" lon="5.2529">
        <ele>1478.6</ele>
        <time>2024-07-02T12:25:44Z</time>
      </trkpt>
      <trkpt lat="44.85852" lon="5.2529">
        <ele>1478.5</ele>
        <time>2024-07-02T12:25:45Z</time>
      </trkpt>
      <trkpt lat="44.85853" lon="5.2529">
        <ele>1478.4</ele>
        <time>2024-07-02T12:25:46Z</time>
      </trkpt>
      <trkpt lat="44.85854" lon="5.25289">
        <ele>1478.2</ele>
        <time>2024-07-02T12:25:47Z</time>
      </trkpt>
      <trkpt lat="44.85855" lon="5.25289">
        <ele>1478</ele>
        <time>2024-07-02T12:25:48Z</time>
      </trkpt>
      <trkpt lat="44.85857" lon="5.25289">
        <ele>1477.9</ele>
        <time>2024-07-02T12:25:49Z</time>
      </trkpt>
      <trkpt lat="44.85857" lon="5.25288">
        <ele>1477.7</ele>
        <time>2024-07-02T12:25:50Z</time>
      </trkpt>
      <trkpt lat="44.85859" lon="5.25288">
        <ele>1477.5</ele>
        <time>2024-07-02T12:25:51Z</time>
      </trkpt>
      <trkpt lat="44.8586" lon="5.25287">
        <ele>1477.4</ele>
        <time>2024-07-02T12:25:52Z</time>
      </trkpt>
      <trkpt lat="44.8586" lon="5.25287">
        <ele>1477.3</ele>
        <time>2024-07-02T12:25:53Z</time>
      </trkpt>
      <trkpt lat="44.85861" lon="5.25287">
        <ele>1477.1</ele>
        <time>2024-07-02T12:25:54Z</time>
      </trkpt>
      <trkpt lat="44.85862" lon="5.25287">
        <ele>1477</ele>
        <time>2024-07-02T12:25:55Z</time>
      </trkpt>
      <trkpt lat="44.85863" lon="5.25286">
        <ele>1476.8</ele>
        <time>2024-07-02T12:25:56Z</time>
      </trkpt>
      <trkpt lat="44.85864" lon="5.25286">
        <ele>1476.7</ele>
        <time>2024-07-02T12:25:57Z</time>
      </trkpt>
      <trkpt lat="44.85865" lon="5.25286">
        <ele>1476.6</ele>
        <time>2024-07-02T12:25:58Z</time>
      </trkpt>
      <trkpt lat="44.85866" lon="5.25286">
        <ele>1476.4</ele>
        <time>2024-07-02T12:25:59Z</time>
      </trkpt>
      <trkpt lat="44.85867" lon="5.25286">
        <ele>1476.3</ele>
        <time>2024-07-02T12:26:00Z</time>
      </trkpt>
      <trkpt lat="44.85868" lon="5.25285">
        <ele>1476.1</ele>
        <time>2024-07-02T12:26:01Z</time>
      </trkpt>
      <trkpt lat="44.85869" lon="5.25285">
        <ele>1476</ele>
        <time>2024-07-02T12:26:02Z</time>
      </trkpt>
      <trkpt lat="44.8587" lon="5.25285">
        <ele>1475.8</ele>
        <time>2024-07-02T12:26:03Z</time>
      </trkpt>
      <trkpt lat="44.85871" lon="5.25285">
        <ele>1475.7</ele>
        <time>2024-07-02T12:26:04Z</time>
      </trkpt>
      <trkpt lat="44.85872" lon="5.25285">
        <ele>1475.5</ele>
        <time>2024-07-02T12:26:05Z</time>
      </trkpt>
      <trkpt lat="44.85873" lon="5.25284">
        <ele>1475.4</ele>
        <time>2024-07-02T12:26:06Z</time>
      </trkpt>
      <trkpt lat="44.85874" lon="5.25284">
        <ele>1475.3</ele>
        <time>2024-07-02T12:26:07Z</time>
      </trkpt>
      <trkpt lat="44.85875" lon="5.25283">
        <ele>1475.2</ele>
        <time>2024-07-02T12:26:08Z</time>
      </trkpt>
      <trkpt lat="44.85875" lon="5.25283">
        <ele>1475</ele>
        <time>2024-07-02T12:26:09Z</time>
      </trkpt>
      <trkpt lat="44.85876" lon="5.25283">
        <ele>1474.9</ele>
        <time>2024-07-02T12:26:10Z</time>
      </trkpt>
      <trkpt lat="44.85877" lon="5.25282">
        <ele>1474.8</ele>
        <time>2024-07-02T12:26:11Z</time>
      </trkpt>
      <trkpt lat="44.85878" lon="5.25282">
        <ele>1474.7</ele>
        <time>2024-07-02T12:26:12Z</time>
      </trkpt>
      <trkpt lat="44.85879" lon="5.25282">
        <ele>1474.6</ele>
        <time>2024-07-02T12:26:13Z</time>
      </trkpt>
      <trkpt lat="44.8588" lon="5.25281">
        <ele>1474.5</ele>
        <time>2024-07-02T12:26:14Z</time>
      </trkpt>
      <trkpt lat="44.8588" lon="5.25281">
        <ele>1474.4</ele>
        <time>2024-07-02T12:26:15Z</time>
      </trkpt>
      <trkpt lat="44.85881" lon="5.2528">
        <ele>1474.3</ele>
        <time>2024-07-02T12:26:16Z</time>
      </trkpt>
      <trkpt lat="44.85882" lon="5.2528">
        <ele>1474.2</ele>
        <time>2024-07-02T12:26:17Z</time>
      </trkpt>
      <trkpt lat="44.85882" lon="5.25279">
        <ele>1474.1</ele>
        <time>2024-07-02T12:26:18Z</time>
      </trkpt>
      <trkpt lat="44.85883" lon="5.25278">
        <ele>1474</ele>
        <time>2024-07-02T12:26:19Z</time>
      </trkpt>
      <trkpt lat="44.85884" lon="5.25277">
        <ele>1473.9</ele>
        <time>2024-07-02T12:26:20Z</time>
      </trkpt>
      <trkpt lat="44.85885" lon="5.25277">
        <ele>1473.8</ele>
        <time>2024-07-02T12:26:21Z</time>
      </trkpt>
      <trkpt lat="44.85885" lon="5.25276">
        <ele>1473.8</ele>
        <time>2024-07-02T12:26:22Z</time>
      </trkpt>
      <trkpt lat="44.85886" lon="5.25275">
        <ele>1473.7</ele>
        <time>2024-07-02T12:26:23Z</time>
      </trkpt>
      <trkpt lat="44.85887" lon="5.25275">
        <ele>1473.6</ele>
        <time>2024-07-02T12:26:24Z</time>
      </trkpt>
      <trkpt lat="44.85888" lon="5.25274">
        <ele>1473.5</ele>
        <time>2024-07-02T12:26:25Z</time>
      </trkpt>
      <trkpt lat="44.85889" lon="5.25274">
        <ele>1473.4</ele>
        <time>2024-07-02T12:26:26Z</time>
      </trkpt>
      <trkpt lat="44.8589" lon="5.25273">
        <ele>1473.4</ele>
        <time>2024-07-02T12:26:27Z</time>
      </trkpt>
      <trkpt lat="44.85891" lon="5.25273">
        <ele>1473.3</ele>
        <time>2024-07-02T12:26:28Z</time>
      </trkpt>
      <trkpt lat="44.85892" lon="5.25273">
        <ele>1473.3</ele>
        <time>2024-07-02T12:26:29Z</time>
      </trkpt>
      <trkpt lat="44.85893" lon="5.25273">
        <ele>1473.2</ele>
        <time>2024-07-02T12:26:30Z</time>
      </trkpt>
      <trkpt lat="44.85895" lon="5.25273">
        <ele>1473.2</ele>
        <time>2024-07-02T12:26:31Z</time>
      </trkpt>
      <trkpt lat="44.85895" lon="5.25273">
        <ele>1473.1</ele>
        <time>2024-07-02T12:26:32Z</time>
      </trkpt>
      <trkpt lat="44.85897" lon="5.25273">
        <ele>1473.1</ele>
        <time>2024-07-02T12:26:33Z</time>
      </trkpt>
      <trkpt lat="44.85898" lon="5.25273">
        <ele>1473</ele>
        <time>2024-07-02T12:26:34Z</time>
      </trkpt>
      <trkpt lat="44.85899" lon="5.25273">
        <ele>1473</ele>
        <time>2024-07-02T12:26:35Z</time>
      </trkpt>
      <trkpt lat="44.859" lon="5.25272">
        <ele>1473</ele>
        <time>2024-07-02T12:26:36Z</time>
      </trkpt>
      <trkpt lat="44.85901" lon="5.25272">
        <ele>1472.9</ele>
        <time>2024-07-02T12:26:37Z</time>
      </trkpt>
      <trkpt lat="44.85902" lon="5.25271">
        <ele>1472.9</ele>
        <time>2024-07-02T12:26:38Z</time>
      </trkpt>
      <trkpt lat="44.85903" lon="5.25271">
        <ele>1472.9</ele>
        <time>2024-07-02T12:26:39Z</time>
      </trkpt>
      <trkpt lat="44.85904" lon="5.2527">
        <ele>1472.9</ele>
        <time>2024-07-02T12:26:40Z</time>
      </trkpt>
      <trkpt lat="44.85905" lon="5.2527">
        <ele>1472.9</ele>
        <time>2024-07-02T12:26:41Z</time>
      </trkpt>
      <trkpt lat="44.85906" lon="5.2527">
        <ele>1472.8</ele>
        <time>2024-07-02T12:26:42Z</time>
      </trkpt>
      <trkpt lat="44.85907" lon="5.25269">
        <ele>1472.8</ele>
        <time>2024-07-02T12:26:43Z</time>
      </trkpt>
      <trkpt lat="44.85908" lon="5.25269">
        <ele>1472.8</ele>
        <time>2024-07-02T12:26:44Z</time>
      </trkpt>
      <trkpt lat="44.85909" lon="5.25268">
        <ele>1472.8</ele>
        <time>2024-07-02T12:26:45Z</time>
      </trkpt>
      <trkpt lat="44.8591" lon="5.25268">
        <ele>1472.8</ele>
        <time>2024-07-02T12:26:46Z</time>
      </trkpt>
      <trkpt lat="44.85911" lon="5.25267">
        <ele>1472.8</ele>
        <time>2024-07-02T12:26:47Z</time>
      </trkpt>
      <trkpt lat="44.85913" lon="5.25267">
        <ele>1472.9</ele>
        <time>2024-07-02T12:26:48Z</time>
      </trkpt>
      <trkpt lat="44.85914" lon="5.25267">
        <ele>1472.9</ele>
        <time>2024-07-02T12:26:49Z</time>
      </trkpt>
      <trkpt lat="44.85915" lon="5.25267">
        <ele>1472.9</ele>
        <time>2024-07-02T12:26:50Z</time>
      </trkpt>
      <trkpt lat="44.85916" lon="5.25267">
        <ele>1472.9</ele>
        <time>2024-07-02T12:26:51Z</time>
      </trkpt>
      <trkpt lat="44.85917" lon="5.25266">
        <ele>1472.9</ele>
        <time>2024-07-02T12:26:52Z</time>
      </trkpt>
      <trkpt lat="44.85918" lon="5.25266">
        <ele>1473</ele>
        <time>2024-07-02T12:26:53Z</time>
      </trkpt>
      <trkpt lat="44.85919" lon="5.25265">
        <ele>1473</ele>
        <time>2024-07-02T12:26:54Z</time>
      </trkpt>
      <trkpt lat="44.85921" lon="5.25265">
        <ele>1473</ele>
        <time>2024-07-02T12:26:55Z</time>
      </trkpt>
      <trkpt lat="44.85922" lon="5.25265">
        <ele>1473.1</ele>
        <time>2024-07-02T12:26:56Z</time>
      </trkpt>
      <trkpt lat="44.85923" lon="5.25265">
        <ele>1473.1</ele>
        <time>2024-07-02T12:26:57Z</time>
      </trkpt>
      <trkpt lat="44.85924" lon="5.25265">
        <ele>1473.1</ele>
        <time>2024-07-02T12:26:58Z</time>
      </trkpt>
      <trkpt lat="44.85925" lon="5.25265">
        <ele>1473.2</ele>
        <time>2024-07-02T12:26:59Z</time>
      </trkpt>
      <trkpt lat="44.85926" lon="5.25265">
        <ele>1473.2</ele>
        <time>2024-07-02T12:27:00Z</time>
      </trkpt>
      <trkpt lat="44.85928" lon="5.25265">
        <ele>1473.2</ele>
        <time>2024-07-02T12:27:01Z</time>
      </trkpt>
      <trkpt lat="44.85928" lon="5.25265">
        <ele>1473.3</ele>
        <time>2024-07-02T12:27:02Z</time>
      </trkpt>
      <trkpt lat="44.85929" lon="5.25265">
        <ele>1473.3</ele>
        <time>2024-07-02T12:27:03Z</time>
      </trkpt>
      <trkpt lat="44.85931" lon="5.25265">
        <ele>1473.3</ele>
        <time>2024-07-02T12:27:04Z</time>
      </trkpt>
      <trkpt lat="44.85932" lon="5.25264">
        <ele>1473.4</ele>
        <time>2024-07-02T12:27:05Z</time>
      </trkpt>
      <trkpt lat="44.85933" lon="5.25264">
        <ele>1473.4</ele>
        <time>2024-07-02T12:27:06Z</time>
      </trkpt>
      <trkpt lat="44.85934" lon="5.25264">
        <ele>1473.4</ele>
        <time>2024-07-02T12:27:07Z</time>
      </trkpt>
      <trkpt lat="44.85935" lon="5.25264">
        <ele>1473.5</ele>
        <time>2024-07-02T12:27:08Z</time>
      </trkpt>
      <trkpt lat="44.85936" lon="5.25263">
        <ele>1473.5</ele>
        <time>2024-07-02T12:27:09Z</time>
      </trkpt>
      <trkpt lat="44.85937" lon="5.25263">
        <ele>1473.5</ele>
        <time>2024-07-02T12:27:10Z</time>
      </trkpt>
      <trkpt lat="44.85939" lon="5.25263">
        <ele>1473.5</ele>
        <time>2024-07-02T12:27:11Z</time>
      </trkpt>
      <trkpt lat="44.85939" lon="5.25263">
        <ele>1473.6</ele>
        <time>2024-07-02T12:27:12Z</time>
      </trkpt>
      <trkpt lat="44.8594" lon="5.25263">
        <ele>1473.6</ele>
        <time>2024-07-02T12:27:13Z</time>
      </trkpt>
      <trkpt lat="44.85941" lon="5.25263">
        <ele>1473.6</ele>
        <time>2024-07-02T12:27:14Z</time>
      </trkpt>
      <trkpt lat="44.85942" lon="5.25263">
        <ele>1473.6</ele>
        <time>2024-07-02T12:27:15Z</time>
      </trkpt>
      <trkpt lat="44.85945" lon="5.25263">
        <ele>1473.6</ele>
        <time>2024-07-02T12:27:16Z</time>
      </trkpt>
      <trkpt lat="44.85945" lon="5.25263">
        <ele>1473.6</ele>
        <time>2024-07-02T12:27:17Z</time>
      </trkpt>
      <trkpt lat="44.85946" lon="5.25263">
        <ele>1473.6</ele>
        <time>2024-07-02T12:27:18Z</time>
      </trkpt>
      <trkpt lat="44.85948" lon="5.25263">
        <ele>1473.6</ele>
        <time>2024-07-02T12:27:19Z</time>
      </trkpt>
      <trkpt lat="44.85949" lon="5.25263">
        <ele>1473.6</ele>
        <time>2024-07-02T12:27:20Z</time>
      </trkpt>
      <trkpt lat="44.8595" lon="5.25263">
        <ele>1473.6</ele>
        <time>2024-07-02T12:27:21Z</time>
      </trkpt>
      <trkpt lat="44.85951" lon="5.25263">
        <ele>1473.6</ele>
        <time>2024-07-02T12:27:22Z</time>
      </trkpt>
      <trkpt lat="44.85952" lon="5.25263">
        <ele>1473.6</ele>
        <time>2024-07-02T12:27:23Z</time>
      </trkpt>
      <trkpt lat="44.85953" lon="5.25262">
        <ele>1473.6</ele>
        <time>2024-07-02T12:27:24Z</time>
      </trkpt>
      <trkpt lat="44.85954" lon="5.25262">
        <ele>1473.6</ele>
        <time>2024-07-02T12:27:25Z</time>
      </trkpt>
      <trkpt lat="44.85956" lon="5.25262">
        <ele>1473.6</ele>
        <time>2024-07-02T12:27:26Z</time>
      </trkpt>
      <trkpt lat="44.85957" lon="5.25262">
        <ele>1473.6</ele>
        <time>2024-07-02T12:27:27Z</time>
      </trkpt>
      <trkpt lat="44.85958" lon="5.25262">
        <ele>1473.6</ele>
        <time>2024-07-02T12:27:28Z</time>
      </trkpt>
      <trkpt lat="44.85959" lon="5.25262">
        <ele>1473.6</ele>
        <time>2024-07-02T12:27:29Z</time>
      </trkpt>
      <trkpt lat="44.8596" lon="5.25262">
        <ele>1473.6</ele>
        <time>2024-07-02T12:27:30Z</time>
      </trkpt>
      <trkpt lat="44.85962" lon="5.25261">
        <ele>1473.6</ele>
        <time>2024-07-02T12:27:31Z</time>
      </trkpt>
      <trkpt lat="44.85962" lon="5.25261">
        <ele>1473.6</ele>
        <time>2024-07-02T12:27:32Z</time>
      </trkpt>
      <trkpt lat="44.85963" lon="5.25261">
        <ele>1473.6</ele>
        <time>2024-07-02T12:27:33Z</time>
      </trkpt>
      <trkpt lat="44.85964" lon="5.2526">
        <ele>1473.6</ele>
        <time>2024-07-02T12:27:34Z</time>
      </trkpt>
      <trkpt lat="44.85965" lon="5.2526">
        <ele>1473.6</ele>
        <time>2024-07-02T12:27:35Z</time>
      </trkpt>
      <trkpt lat="44.85967" lon="5.25259">
        <ele>1473.6</ele>
        <time>2024-07-02T12:27:36Z</time>
      </trkpt>
      <trkpt lat="44.85968" lon="5.25259">
        <ele>1473.6</ele>
        <time>2024-07-02T12:27:37Z</time>
      </trkpt>
      <trkpt lat="44.85969" lon="5.25259">
        <ele>1473.5</ele>
        <time>2024-07-02T12:27:38Z</time>
      </trkpt>
      <trkpt lat="44.8597" lon="5.25258">
        <ele>1473.5</ele>
        <time>2024-07-02T12:27:39Z</time>
      </trkpt>
      <trkpt lat="44.85971" lon="5.25258">
        <ele>1473.5</ele>
        <time>2024-07-02T12:27:40Z</time>
      </trkpt>
      <trkpt lat="44.85972" lon="5.25257">
        <ele>1473.5</ele>
        <time>2024-07-02T12:27:41Z</time>
      </trkpt>
      <trkpt lat="44.85973" lon="5.25257">
        <ele>1473.5</ele>
        <time>2024-07-02T12:27:42Z</time>
      </trkpt>
      <trkpt lat="44.85974" lon="5.25257">
        <ele>1473.5</ele>
        <time>2024-07-02T12:27:43Z</time>
      </trkpt>
      <trkpt lat="44.85976" lon="5.25256">
        <ele>1473.5</ele>
        <time>2024-07-02T12:27:44Z</time>
      </trkpt>
      <trkpt lat="44.85977" lon="5.25255">
        <ele>1473.4</ele>
        <time>2024-07-02T12:27:45Z</time>
      </trkpt>
      <trkpt lat="44.85978" lon="5.25255">
        <ele>1473.4</ele>
        <time>2024-07-02T12:27:46Z</time>
      </trkpt>
      <trkpt lat="44.85978" lon="5.25254">
        <ele>1473.4</ele>
        <time>2024-07-02T12:27:47Z</time>
      </trkpt>
      <trkpt lat="44.85978" lon="5.25253">
        <ele>1473.4</ele>
        <time>2024-07-02T12:27:48Z</time>
      </trkpt>
      <trkpt lat="44.85979" lon="5.25252">
        <ele>1473.4</ele>
        <time>2024-07-02T12:27:49Z</time>
      </trkpt>
      <trkpt lat="44.8598" lon="5.25252">
        <ele>1473.4</ele>
        <time>2024-07-02T12:27:50Z</time>
      </trkpt>
      <trkpt lat="44.85982" lon="5.25253">
        <ele>1473.3</ele>
        <time>2024-07-02T12:27:51Z</time>
      </trkpt>
      <trkpt lat="44.85983" lon="5.25253">
        <ele>1473.3</ele>
        <time>2024-07-02T12:27:52Z</time>
      </trkpt>
      <trkpt lat="44.85984" lon="5.25253">
        <ele>1473.3</ele>
        <time>2024-07-02T12:27:53Z</time>
      </trkpt>
      <trkpt lat="44.85986" lon="5.25253">
        <ele>1473.2</ele>
        <time>2024-07-02T12:27:54Z</time>
      </trkpt>
      <trkpt lat="44.85986" lon="5.25253">
        <ele>1473.2</ele>
        <time>2024-07-02T12:27:55Z</time>
      </trkpt>
      <trkpt lat="44.85987" lon="5.25253">
        <ele>1473.2</ele>
        <time>2024-07-02T12:27:56Z</time>
      </trkpt>
      <trkpt lat="44.85989" lon="5.25252">
        <ele>1473.1</ele>
        <time>2024-07-02T12:27:57Z</time>
      </trkpt>
      <trkpt lat="44.8599" lon="5.25252">
        <ele>1473.1</ele>
        <time>2024-07-02T12:27:58Z</time>
      </trkpt>
      <trkpt lat="44.85991" lon="5.25252">
        <ele>1473</ele>
        <time>2024-07-02T12:27:59Z</time>
      </trkpt>
      <trkpt lat="44.85992" lon="5.25252">
        <ele>1473</ele>
        <time>2024-07-02T12:28:00Z</time>
      </trkpt>
      <trkpt lat="44.85995" lon="5.25252">
        <ele>1472.9</ele>
        <time>2024-07-02T12:28:02Z</time>
      </trkpt>
      <trkpt lat="44.85996" lon="5.25252">
        <ele>1472.8</ele>
        <time>2024-07-02T12:28:03Z</time>
      </trkpt>
      <trkpt lat="44.85997" lon="5.25251">
        <ele>1472.8</ele>
        <time>2024-07-02T12:28:04Z</time>
      </trkpt>
      <trkpt lat="44.85998" lon="5.25251">
        <ele>1472.7</ele>
        <time>2024-07-02T12:28:05Z</time>
      </trkpt>
      <trkpt lat="44.86" lon="5.25251">
        <ele>1472.6</ele>
        <time>2024-07-02T12:28:06Z</time>
      </trkpt>
      <trkpt lat="44.86001" lon="5.25251">
        <ele>1472.6</ele>
        <time>2024-07-02T12:28:07Z</time>
      </trkpt>
      <trkpt lat="44.86002" lon="5.25251">
        <ele>1472.5</ele>
        <time>2024-07-02T12:28:08Z</time>
      </trkpt>
      <trkpt lat="44.86003" lon="5.25251">
        <ele>1472.5</ele>
        <time>2024-07-02T12:28:09Z</time>
      </trkpt>
      <trkpt lat="44.86004" lon="5.25251">
        <ele>1472.4</ele>
        <time>2024-07-02T12:28:10Z</time>
      </trkpt>
      <trkpt lat="44.86005" lon="5.25251">
        <ele>1472.4</ele>
        <time>2024-07-02T12:28:11Z</time>
      </trkpt>
      <trkpt lat="44.86006" lon="5.2525">
        <ele>1472.3</ele>
        <time>2024-07-02T12:28:12Z</time>
      </trkpt>
      <trkpt lat="44.86007" lon="5.25251">
        <ele>1472.3</ele>
        <time>2024-07-02T12:28:13Z</time>
      </trkpt>
      <trkpt lat="44.86008" lon="5.25251">
        <ele>1472.3</ele>
        <time>2024-07-02T12:28:14Z</time>
      </trkpt>
      <trkpt lat="44.86009" lon="5.25251">
        <ele>1472.2</ele>
        <time>2024-07-02T12:28:15Z</time>
      </trkpt>
      <trkpt lat="44.8601" lon="5.25251">
        <ele>1472.2</ele>
        <time>2024-07-02T12:28:16Z</time>
      </trkpt>
      <trkpt lat="44.86011" lon="5.25251">
        <ele>1472.1</ele>
        <time>2024-07-02T12:28:17Z</time>
      </trkpt>
      <trkpt lat="44.86012" lon="5.25251">
        <ele>1472</ele>
        <time>2024-07-02T12:28:18Z</time>
      </trkpt>
      <trkpt lat="44.86013" lon="5.25251">
        <ele>1472</ele>
        <time>2024-07-02T12:28:19Z</time>
      </trkpt>
      <trkpt lat="44.86015" lon="5.2525">
        <ele>1472</ele>
        <time>2024-07-02T12:28:20Z</time>
      </trkpt>
      <trkpt lat="44.86015" lon="5.25249">
        <ele>1471.9</ele>
        <time>2024-07-02T12:28:21Z</time>
      </trkpt>
      <trkpt lat="44.86016" lon="5.25248">
        <ele>1471.9</ele>
        <time>2024-07-02T12:28:22Z</time>
      </trkpt>
      <trkpt lat="44.86017" lon="5.25248">
        <ele>1471.8</ele>
        <time>2024-07-02T12:28:23Z</time>
      </trkpt>
      <trkpt lat="44.86018" lon="5.25248">
        <ele>1471.8</ele>
        <time>2024-07-02T12:28:24Z</time>
      </trkpt>
      <trkpt lat="44.86019" lon="5.25248">
        <ele>1471.8</ele>
        <time>2024-07-02T12:28:25Z</time>
      </trkpt>
      <trkpt lat="44.8602" lon="5.25247">
        <ele>1471.7</ele>
        <time>2024-07-02T12:28:26Z</time>
      </trkpt>
      <trkpt lat="44.86021" lon="5.25247">
        <ele>1471.7</ele>
        <time>2024-07-02T12:28:27Z</time>
      </trkpt>
      <trkpt lat="44.86022" lon="5.25247">
        <ele>1471.7</ele>
        <time>2024-07-02T12:28:28Z</time>
      </trkpt>
      <trkpt lat="44.86024" lon="5.25246">
        <ele>1471.6</ele>
        <time>2024-07-02T12:28:29Z</time>
      </trkpt>
      <trkpt lat="44.86025" lon="5.25246">
        <ele>1471.6</ele>
        <time>2024-07-02T12:28:30Z</time>
      </trkpt>
      <trkpt lat="44.86026" lon="5.25245">
        <ele>1471.5</ele>
        <time>2024-07-02T12:28:31Z</time>
      </trkpt>
      <trkpt lat="44.86027" lon="5.25244">
        <ele>1471.5</ele>
        <time>2024-07-02T12:28:32Z</time>
      </trkpt>
      <trkpt lat="44.86028" lon="5.25244">
        <ele>1471.5</ele>
        <time>2024-07-02T12:28:33Z</time>
      </trkpt>
      <trkpt lat="44.86029" lon="5.25244">
        <ele>1471.4</ele>
        <time>2024-07-02T12:28:34Z</time>
      </trkpt>
      <trkpt lat="44.86031" lon="5.25243">
        <ele>1471.4</ele>
        <time>2024-07-02T12:28:35Z</time>
      </trkpt>
      <trkpt lat="44.86032" lon="5.25242">
        <ele>1471.3</ele>
        <time>2024-07-02T12:28:36Z</time>
      </trkpt>
      <trkpt lat="44.86032" lon="5.25242">
        <ele>1471.3</ele>
        <time>2024-07-02T12:28:37Z</time>
      </trkpt>
      <trkpt lat="44.86034" lon="5.25241">
        <ele>1471.3</ele>
        <time>2024-07-02T12:28:38Z</time>
      </trkpt>
      <trkpt lat="44.86035" lon="5.2524">
        <ele>1471.2</ele>
        <time>2024-07-02T12:28:39Z</time>
      </trkpt>
      <trkpt lat="44.86037" lon="5.25239">
        <ele>1471.2</ele>
        <time>2024-07-02T12:28:40Z</time>
      </trkpt>
      <trkpt lat="44.86038" lon="5.25238">
        <ele>1471.1</ele>
        <time>2024-07-02T12:28:41Z</time>
      </trkpt>
      <trkpt lat="44.86039" lon="5.25238">
        <ele>1471.1</ele>
        <time>2024-07-02T12:28:42Z</time>
      </trkpt>
      <trkpt lat="44.8604" lon="5.25237">
        <ele>1471.1</ele>
        <time>2024-07-02T12:28:43Z</time>
      </trkpt>
      <trkpt lat="44.86041" lon="5.25237">
        <ele>1471</ele>
        <time>2024-07-02T12:28:44Z</time>
      </trkpt>
      <trkpt lat="44.86042" lon="5.25236">
        <ele>1471</ele>
        <time>2024-07-02T12:28:45Z</time>
      </trkpt>
      <trkpt lat="44.86044" lon="5.25235">
        <ele>1470.9</ele>
        <time>2024-07-02T12:28:46Z</time>
      </trkpt>
      <trkpt lat="44.86045" lon="5.25234">
        <ele>1470.8</ele>
        <time>2024-07-02T12:28:47Z</time>
      </trkpt>
      <trkpt lat="44.86045" lon="5.25234">
        <ele>1470.8</ele>
        <time>2024-07-02T12:28:48Z</time>
      </trkpt>
      <trkpt lat="44.86046" lon="5.25233">
        <ele>1470.8</ele>
        <time>2024-07-02T12:28:49Z</time>
      </trkpt>
      <trkpt lat="44.86048" lon="5.25233">
        <ele>1470.7</ele>
        <time>2024-07-02T12:28:50Z</time>
      </trkpt>
      <trkpt lat="44.86049" lon="5.25232">
        <ele>1470.6</ele>
        <time>2024-07-02T12:28:51Z</time>
      </trkpt>
      <trkpt lat="44.8605" lon="5.25231">
        <ele>1470.6</ele>
        <time>2024-07-02T12:28:52Z</time>
      </trkpt>
      <trkpt lat="44.86051" lon="5.25231">
        <ele>1470.5</ele>
        <time>2024-07-02T12:28:53Z</time>
      </trkpt>
      <trkpt lat="44.86052" lon="5.2523">
        <ele>1470.5</ele>
        <time>2024-07-02T12:28:54Z</time>
      </trkpt>
      <trkpt lat="44.86052" lon="5.2523">
        <ele>1470.5</ele>
        <time>2024-07-02T12:28:55Z</time>
      </trkpt>
      <trkpt lat="44.86053" lon="5.25229">
        <ele>1470.4</ele>
        <time>2024-07-02T12:28:56Z</time>
      </trkpt>
      <trkpt lat="44.86055" lon="5.25228">
        <ele>1470.3</ele>
        <time>2024-07-02T12:28:57Z</time>
      </trkpt>
      <trkpt lat="44.86055" lon="5.25227">
        <ele>1470.3</ele>
        <time>2024-07-02T12:28:58Z</time>
      </trkpt>
      <trkpt lat="44.86056" lon="5.25226">
        <ele>1470.2</ele>
        <time>2024-07-02T12:28:59Z</time>
      </trkpt>
      <trkpt lat="44.86057" lon="5.25225">
        <ele>1470.1</ele>
        <time>2024-07-02T12:29:00Z</time>
      </trkpt>
      <trkpt lat="44.86058" lon="5.25224">
        <ele>1470.1</ele>
        <time>2024-07-02T12:29:01Z</time>
      </trkpt>
      <trkpt lat="44.86059" lon="5.25223">
        <ele>1470</ele>
        <time>2024-07-02T12:29:02Z</time>
      </trkpt>
      <trkpt lat="44.86059" lon="5.25222">
        <ele>1470</ele>
        <time>2024-07-02T12:29:03Z</time>
      </trkpt>
      <trkpt lat="44.8606" lon="5.25221">
        <ele>1469.9</ele>
        <time>2024-07-02T12:29:04Z</time>
      </trkpt>
      <trkpt lat="44.86061" lon="5.2522">
        <ele>1469.8</ele>
        <time>2024-07-02T12:29:05Z</time>
      </trkpt>
      <trkpt lat="44.86061" lon="5.25218">
        <ele>1469.7</ele>
        <time>2024-07-02T12:29:06Z</time>
      </trkpt>
      <trkpt lat="44.86061" lon="5.25217">
        <ele>1469.7</ele>
        <time>2024-07-02T12:29:07Z</time>
      </trkpt>
      <trkpt lat="44.86061" lon="5.25217">
        <ele>1469.6</ele>
        <time>2024-07-02T12:29:08Z</time>
      </trkpt>
      <trkpt lat="44.86061" lon="5.25216">
        <ele>1469.6</ele>
        <time>2024-07-02T12:29:09Z</time>
      </trkpt>
      <trkpt lat="44.86061" lon="5.25216">
        <ele>1469.6</ele>
        <time>2024-07-02T12:29:10Z</time>
      </trkpt>
      <trkpt lat="44.86062" lon="5.25216">
        <ele>1469.5</ele>
        <time>2024-07-02T12:29:11Z</time>
      </trkpt>
      <trkpt lat="44.86063" lon="5.25215">
        <ele>1469.5</ele>
        <time>2024-07-02T12:29:12Z</time>
      </trkpt>
      <trkpt lat="44.86064" lon="5.25213">
        <ele>1469.3</ele>
        <time>2024-07-02T12:29:13Z</time>
      </trkpt>
      <trkpt lat="44.86065" lon="5.25212">
        <ele>1469.3</ele>
        <time>2024-07-02T12:29:14Z</time>
      </trkpt>
      <trkpt lat="44.86065" lon="5.25211">
        <ele>1469.2</ele>
        <time>2024-07-02T12:29:15Z</time>
      </trkpt>
      <trkpt lat="44.86066" lon="5.2521">
        <ele>1469.2</ele>
        <time>2024-07-02T12:29:16Z</time>
      </trkpt>
      <trkpt lat="44.86067" lon="5.25209">
        <ele>1469.1</ele>
        <time>2024-07-02T12:29:17Z</time>
      </trkpt>
      <trkpt lat="44.86068" lon="5.25208">
        <ele>1469</ele>
        <time>2024-07-02T12:29:18Z</time>
      </trkpt>
      <trkpt lat="44.86069" lon="5.25206">
        <ele>1468.9</ele>
        <time>2024-07-02T12:29:19Z</time>
      </trkpt>
      <trkpt lat="44.8607" lon="5.25206">
        <ele>1468.8</ele>
        <time>2024-07-02T12:29:20Z</time>
      </trkpt>
      <trkpt lat="44.86071" lon="5.25205">
        <ele>1468.8</ele>
        <time>2024-07-02T12:29:21Z</time>
      </trkpt>
      <trkpt lat="44.86072" lon="5.25202">
        <ele>1468.6</ele>
        <time>2024-07-02T12:29:22Z</time>
      </trkpt>
      <trkpt lat="44.86073" lon="5.25201">
        <ele>1468.6</ele>
        <time>2024-07-02T12:29:23Z</time>
      </trkpt>
      <trkpt lat="44.86073" lon="5.25201">
        <ele>1468.5</ele>
        <time>2024-07-02T12:29:24Z</time>
      </trkpt>
      <trkpt lat="44.86074" lon="5.25198">
        <ele>1468.4</ele>
        <time>2024-07-02T12:29:25Z</time>
      </trkpt>
      <trkpt lat="44.86075" lon="5.25197">
        <ele>1468.4</ele>
        <time>2024-07-02T12:29:26Z</time>
      </trkpt>
      <trkpt lat="44.86075" lon="5.25196">
        <ele>1468.3</ele>
        <time>2024-07-02T12:29:27Z</time>
      </trkpt>
      <trkpt lat="44.86076" lon="5.25195">
        <ele>1468.2</ele>
        <time>2024-07-02T12:29:28Z</time>
      </trkpt>
      <trkpt lat="44.86077" lon="5.25194">
        <ele>1468.2</ele>
        <time>2024-07-02T12:29:29Z</time>
      </trkpt>
      <trkpt lat="44.86078" lon="5.25193">
        <ele>1468.1</ele>
        <time>2024-07-02T12:29:30Z</time>
      </trkpt>
      <trkpt lat="44.86078" lon="5.25192">
        <ele>1468</ele>
        <time>2024-07-02T12:29:31Z</time>
      </trkpt>
      <trkpt lat="44.8608" lon="5.25191">
        <ele>1468</ele>
        <time>2024-07-02T12:29:32Z</time>
      </trkpt>
      <trkpt lat="44.86081" lon="5.2519">
        <ele>1467.9</ele>
        <time>2024-07-02T12:29:33Z</time>
      </trkpt>
      <trkpt lat="44.86081" lon="5.25189">
        <ele>1467.8</ele>
        <time>2024-07-02T12:29:34Z</time>
      </trkpt>
      <trkpt lat="44.86082" lon="5.25188">
        <ele>1467.8</ele>
        <time>2024-07-02T12:29:35Z</time>
      </trkpt>
      <trkpt lat="44.86083" lon="5.25186">
        <ele>1467.7</ele>
        <time>2024-07-02T12:29:36Z</time>
      </trkpt>
      <trkpt lat="44.86083" lon="5.25185">
        <ele>1467.6</ele>
        <time>2024-07-02T12:29:37Z</time>
      </trkpt>
      <trkpt lat="44.86084" lon="5.25184">
        <ele>1467.6</ele>
        <time>2024-07-02T12:29:38Z</time>
      </trkpt>
      <trkpt lat="44.86085" lon="5.25183">
        <ele>1467.5</ele>
        <time>2024-07-02T12:29:39Z</time>
      </trkpt>
      <trkpt lat="44.86086" lon="5.25182">
        <ele>1467.4</ele>
        <time>2024-07-02T12:29:40Z</time>
      </trkpt>
      <trkpt lat="44.86087" lon="5.25181">
        <ele>1467.3</ele>
        <time>2024-07-02T12:29:41Z</time>
      </trkpt>
      <trkpt lat="44.86089" lon="5.25178">
        <ele>1467.2</ele>
        <time>2024-07-02T12:29:42Z</time>
      </trkpt>
      <trkpt lat="44.86089" lon="5.25177">
        <ele>1467.2</ele>
        <time>2024-07-02T12:29:43Z</time>
      </trkpt>
      <trkpt lat="44.8609" lon="5.25176">
        <ele>1467.1</ele>
        <time>2024-07-02T12:29:44Z</time>
      </trkpt>
      <trkpt lat="44.86091" lon="5.25174">
        <ele>1467</ele>
        <time>2024-07-02T12:29:45Z</time>
      </trkpt>
      <trkpt lat="44.86092" lon="5.25173">
        <ele>1467</ele>
        <time>2024-07-02T12:29:46Z</time>
      </trkpt>
      <trkpt lat="44.86092" lon="5.25173">
        <ele>1466.9</ele>
        <time>2024-07-02T12:29:47Z</time>
      </trkpt>
      <trkpt lat="44.86093" lon="5.25171">
        <ele>1466.9</ele>
        <time>2024-07-02T12:29:48Z</time>
      </trkpt>
      <trkpt lat="44.86094" lon="5.2517">
        <ele>1466.8</ele>
        <time>2024-07-02T12:29:49Z</time>
      </trkpt>
      <trkpt lat="44.86094" lon="5.25169">
        <ele>1466.7</ele>
        <time>2024-07-02T12:29:50Z</time>
      </trkpt>
      <trkpt lat="44.86095" lon="5.25167">
        <ele>1466.7</ele>
        <time>2024-07-02T12:29:51Z</time>
      </trkpt>
      <trkpt lat="44.86096" lon="5.25166">
        <ele>1466.6</ele>
        <time>2024-07-02T12:29:52Z</time>
      </trkpt>
      <trkpt lat="44.86096" lon="5.25165">
        <ele>1466.5</ele>
        <time>2024-07-02T12:29:53Z</time>
      </trkpt>
      <trkpt lat="44.86097" lon="5.25164">
        <ele>1466.5</ele>
        <time>2024-07-02T12:29:54Z</time>
      </trkpt>
      <trkpt lat="44.86098" lon="5.25163">
        <ele>1466.4</ele>
        <time>2024-07-02T12:29:55Z</time>
      </trkpt>
      <trkpt lat="44.86099" lon="5.25162">
        <ele>1466.3</ele>
        <time>2024-07-02T12:29:56Z</time>
      </trkpt>
      <trkpt lat="44.861" lon="5.25161">
        <ele>1466.3</ele>
        <time>2024-07-02T12:29:57Z</time>
      </trkpt>
      <trkpt lat="44.86101" lon="5.2516">
        <ele>1466.2</ele>
        <time>2024-07-02T12:29:58Z</time>
      </trkpt>
      <trkpt lat="44.86102" lon="5.25159">
        <ele>1466.1</ele>
        <time>2024-07-02T12:29:59Z</time>
      </trkpt>
      <trkpt lat="44.86102" lon="5.25157">
        <ele>1466.1</ele>
        <time>2024-07-02T12:30:00Z</time>
      </trkpt>
      <trkpt lat="44.86103" lon="5.25156">
        <ele>1466</ele>
        <time>2024-07-02T12:30:01Z</time>
      </trkpt>
      <trkpt lat="44.86104" lon="5.25155">
        <ele>1465.9</ele>
        <time>2024-07-02T12:30:02Z</time>
      </trkpt>
      <trkpt lat="44.86104" lon="5.25153">
        <ele>1465.9</ele>
        <time>2024-07-02T12:30:03Z</time>
      </trkpt>
      <trkpt lat="44.86105" lon="5.25152">
        <ele>1465.8</ele>
        <time>2024-07-02T12:30:04Z</time>
      </trkpt>
      <trkpt lat="44.86105" lon="5.25151">
        <ele>1465.7</ele>
        <time>2024-07-02T12:30:05Z</time>
      </trkpt>
      <trkpt lat="44.86106" lon="5.25149">
        <ele>1465.7</ele>
        <time>2024-07-02T12:30:06Z</time>
      </trkpt>
      <trkpt lat="44.86107" lon="5.25147">
        <ele>1465.6</ele>
        <time>2024-07-02T12:30:07Z</time>
      </trkpt>
      <trkpt lat="44.86107" lon="5.25146">
        <ele>1465.6</ele>
        <time>2024-07-02T12:30:08Z</time>
      </trkpt>
      <trkpt lat="44.86108" lon="5.25145">
        <ele>1465.5</ele>
        <time>2024-07-02T12:30:09Z</time>
      </trkpt>
      <trkpt lat="44.86109" lon="5.25144">
        <ele>1465.5</ele>
        <time>2024-07-02T12:30:10Z</time>
      </trkpt>
      <trkpt lat="44.86111" lon="5.25142">
        <ele>1465.4</ele>
        <time>2024-07-02T12:30:11Z</time>
      </trkpt>
      <trkpt lat="44.86111" lon="5.25141">
        <ele>1465.3</ele>
        <time>2024-07-02T12:30:12Z</time>
      </trkpt>
      <trkpt lat="44.86112" lon="5.2514">
        <ele>1465.3</ele>
        <time>2024-07-02T12:30:13Z</time>
      </trkpt>
      <trkpt lat="44.86113" lon="5.25138">
        <ele>1465.2</ele>
        <time>2024-07-02T12:30:14Z</time>
      </trkpt>
      <trkpt lat="44.86114" lon="5.25137">
        <ele>1465.2</ele>
        <time>2024-07-02T12:30:15Z</time>
      </trkpt>
      <trkpt lat="44.86114" lon="5.25136">
        <ele>1465.2</ele>
        <time>2024-07-02T12:30:16Z</time>
      </trkpt>
      <trkpt lat="44.86115" lon="5.25133">
        <ele>1465.2</ele>
        <time>2024-07-02T12:30:17Z</time>
      </trkpt>
      <trkpt lat="44.86116" lon="5.25132">
        <ele>1465.1</ele>
        <time>2024-07-02T12:30:18Z</time>
      </trkpt>
      <trkpt lat="44.86116" lon="5.25131">
        <ele>1465.1</ele>
        <time>2024-07-02T12:30:19Z</time>
      </trkpt>
      <trkpt lat="44.86117" lon="5.25129">
        <ele>1465.1</ele>
        <time>2024-07-02T12:30:20Z</time>
      </trkpt>
      <trkpt lat="44.86118" lon="5.25128">
        <ele>1465.1</ele>
        <time>2024-07-02T12:30:21Z</time>
      </trkpt>
      <trkpt lat="44.86119" lon="5.25127">
        <ele>1465.1</ele>
        <time>2024-07-02T12:30:22Z</time>
      </trkpt>
      <trkpt lat="44.86119" lon="5.25127">
        <ele>1465.1</ele>
        <time>2024-07-02T12:30:23Z</time>
      </trkpt>
      <trkpt lat="44.8612" lon="5.25126">
        <ele>1465</ele>
        <time>2024-07-02T12:30:24Z</time>
      </trkpt>
      <trkpt lat="44.86121" lon="5.25124">
        <ele>1465</ele>
        <time>2024-07-02T12:30:25Z</time>
      </trkpt>
      <trkpt lat="44.86122" lon="5.25122">
        <ele>1465</ele>
        <time>2024-07-02T12:30:26Z</time>
      </trkpt>
      <trkpt lat="44.86122" lon="5.25121">
        <ele>1465</ele>
        <time>2024-07-02T12:30:27Z</time>
      </trkpt>
      <trkpt lat="44.86123" lon="5.2512">
        <ele>1465</ele>
        <time>2024-07-02T12:30:28Z</time>
      </trkpt>
      <trkpt lat="44.86124" lon="5.25117">
        <ele>1465</ele>
        <time>2024-07-02T12:30:29Z</time>
      </trkpt>
      <trkpt lat="44.86124" lon="5.25116">
        <ele>1465</ele>
        <time>2024-07-02T12:30:30Z</time>
      </trkpt>
      <trkpt lat="44.86125" lon="5.25115">
        <ele>1465</ele>
        <time>2024-07-02T12:30:31Z</time>
      </trkpt>
      <trkpt lat="44.86125" lon="5.25112">
        <ele>1465</ele>
        <time>2024-07-02T12:30:32Z</time>
      </trkpt>
      <trkpt lat="44.86125" lon="5.25111">
        <ele>1465.1</ele>
        <time>2024-07-02T12:30:33Z</time>
      </trkpt>
      <trkpt lat="44.86125" lon="5.2511">
        <ele>1465.1</ele>
        <time>2024-07-02T12:30:34Z</time>
      </trkpt>
      <trkpt lat="44.86126" lon="5.25108">
        <ele>1465.1</ele>
        <time>2024-07-02T12:30:35Z</time>
      </trkpt>
      <trkpt lat="44.86126" lon="5.25107">
        <ele>1465.1</ele>
        <time>2024-07-02T12:30:36Z</time>
      </trkpt>
      <trkpt lat="44.86127" lon="5.25105">
        <ele>1465.1</ele>
        <time>2024-07-02T12:30:37Z</time>
      </trkpt>
      <trkpt lat="44.86127" lon="5.25102">
        <ele>1465.2</ele>
        <time>2024-07-02T12:30:38Z</time>
      </trkpt>
      <trkpt lat="44.86127" lon="5.25101">
        <ele>1465.2</ele>
        <time>2024-07-02T12:30:39Z</time>
      </trkpt>
      <trkpt lat="44.86128" lon="5.251">
        <ele>1465.2</ele>
        <time>2024-07-02T12:30:40Z</time>
      </trkpt>
      <trkpt lat="44.86128" lon="5.25099">
        <ele>1465.2</ele>
        <time>2024-07-02T12:30:41Z</time>
      </trkpt>
      <trkpt lat="44.86128" lon="5.25097">
        <ele>1465.3</ele>
        <time>2024-07-02T12:30:42Z</time>
      </trkpt>
      <trkpt lat="44.86128" lon="5.25095">
        <ele>1465.3</ele>
        <time>2024-07-02T12:30:43Z</time>
      </trkpt>
      <trkpt lat="44.86128" lon="5.25094">
        <ele>1465.3</ele>
        <time>2024-07-02T12:30:44Z</time>
      </trkpt>
      <trkpt lat="44.86128" lon="5.25092">
        <ele>1465.4</ele>
        <time>2024-07-02T12:30:45Z</time>
      </trkpt>
      <trkpt lat="44.86128" lon="5.25091">
        <ele>1465.4</ele>
        <time>2024-07-02T12:30:46Z</time>
      </trkpt>
      <trkpt lat="44.86128" lon="5.25088">
        <ele>1465.5</ele>
        <time>2024-07-02T12:30:47Z</time>
      </trkpt>
      <trkpt lat="44.86128" lon="5.25087">
        <ele>1465.5</ele>
        <time>2024-07-02T12:30:48Z</time>
      </trkpt>
      <trkpt lat="44.86128" lon="5.25086">
        <ele>1465.5</ele>
        <time>2024-07-02T12:30:49Z</time>
      </trkpt>
      <trkpt lat="44.86129" lon="5.25083">
        <ele>1465.6</ele>
        <time>2024-07-02T12:30:50Z</time>
      </trkpt>
      <trkpt lat="44.86129" lon="5.25082">
        <ele>1465.6</ele>
        <time>2024-07-02T12:30:51Z</time>
      </trkpt>
      <trkpt lat="44.8613" lon="5.2508">
        <ele>1465.6</ele>
        <time>2024-07-02T12:30:52Z</time>
      </trkpt>
      <trkpt lat="44.8613" lon="5.25079">
        <ele>1465.6</ele>
        <time>2024-07-02T12:30:53Z</time>
      </trkpt>
      <trkpt lat="44.8613" lon="5.25078">
        <ele>1465.7</ele>
        <time>2024-07-02T12:30:54Z</time>
      </trkpt>
      <trkpt lat="44.8613" lon="5.25076">
        <ele>1465.7</ele>
        <time>2024-07-02T12:30:55Z</time>
      </trkpt>
      <trkpt lat="44.8613" lon="5.25075">
        <ele>1465.7</ele>
        <time>2024-07-02T12:30:56Z</time>
      </trkpt>
      <trkpt lat="44.8613" lon="5.25073">
        <ele>1465.6</ele>
        <time>2024-07-02T12:30:57Z</time>
      </trkpt>
      <trkpt lat="44.86131" lon="5.25072">
        <ele>1465.6</ele>
        <time>2024-07-02T12:30:58Z</time>
      </trkpt>
      <trkpt lat="44.86131" lon="5.2507">
        <ele>1465.6</ele>
        <time>2024-07-02T12:30:59Z</time>
      </trkpt>
      <trkpt lat="44.86131" lon="5.25069">
        <ele>1465.6</ele>
        <time>2024-07-02T12:31:00Z</time>
      </trkpt>
      <trkpt lat="44.86131" lon="5.25067">
        <ele>1465.5</ele>
        <time>2024-07-02T12:31:01Z</time>
      </trkpt>
      <trkpt lat="44.86132" lon="5.25065">
        <ele>1465.5</ele>
        <time>2024-07-02T12:31:02Z</time>
      </trkpt>
      <trkpt lat="44.86132" lon="5.25064">
        <ele>1465.4</ele>
        <time>2024-07-02T12:31:03Z</time>
      </trkpt>
      <trkpt lat="44.86132" lon="5.25063">
        <ele>1465.4</ele>
        <time>2024-07-02T12:31:04Z</time>
      </trkpt>
      <trkpt lat="44.86132" lon="5.25062">
        <ele>1465.3</ele>
        <time>2024-07-02T12:31:05Z</time>
      </trkpt>
      <trkpt lat="44.86132" lon="5.25061">
        <ele>1465.2</ele>
        <time>2024-07-02T12:31:06Z</time>
      </trkpt>
      <trkpt lat="44.86132" lon="5.25059">
        <ele>1465.1</ele>
        <time>2024-07-02T12:31:07Z</time>
      </trkpt>
      <trkpt lat="44.86132" lon="5.25058">
        <ele>1465.1</ele>
        <time>2024-07-02T12:31:08Z</time>
      </trkpt>
      <trkpt lat="44.86132" lon="5.25057">
        <ele>1465</ele>
        <time>2024-07-02T12:31:09Z</time>
      </trkpt>
      <trkpt lat="44.86132" lon="5.25056">
        <ele>1464.9</ele>
        <time>2024-07-02T12:31:10Z</time>
      </trkpt>
      <trkpt lat="44.86132" lon="5.25055">
        <ele>1464.8</ele>
        <time>2024-07-02T12:31:11Z</time>
      </trkpt>
      <trkpt lat="44.86132" lon="5.25053">
        <ele>1464.7</ele>
        <time>2024-07-02T12:31:12Z</time>
      </trkpt>
      <trkpt lat="44.86132" lon="5.25053">
        <ele>1464.6</ele>
        <time>2024-07-02T12:31:13Z</time>
      </trkpt>
      <trkpt lat="44.86132" lon="5.25052">
        <ele>1464.5</ele>
        <time>2024-07-02T12:31:14Z</time>
      </trkpt>
      <trkpt lat="44.86132" lon="5.2505">
        <ele>1464.4</ele>
        <time>2024-07-02T12:31:15Z</time>
      </trkpt>
      <trkpt lat="44.86132" lon="5.25049">
        <ele>1464.3</ele>
        <time>2024-07-02T12:31:16Z</time>
      </trkpt>
      <trkpt lat="44.86132" lon="5.25048">
        <ele>1464.2</ele>
        <time>2024-07-02T12:31:17Z</time>
      </trkpt>
      <trkpt lat="44.86132" lon="5.25047">
        <ele>1464</ele>
        <time>2024-07-02T12:31:18Z</time>
      </trkpt>
      <trkpt lat="44.86132" lon="5.25046">
        <ele>1463.9</ele>
        <time>2024-07-02T12:31:19Z</time>
      </trkpt>
      <trkpt lat="44.86132" lon="5.25045">
        <ele>1463.7</ele>
        <time>2024-07-02T12:31:20Z</time>
      </trkpt>
      <trkpt lat="44.86132" lon="5.25044">
        <ele>1463.6</ele>
        <time>2024-07-02T12:31:21Z</time>
      </trkpt>
      <trkpt lat="44.86132" lon="5.25042">
        <ele>1463.4</ele>
        <time>2024-07-02T12:31:22Z</time>
      </trkpt>
      <trkpt lat="44.86132" lon="5.25041">
        <ele>1463.3</ele>
        <time>2024-07-02T12:31:23Z</time>
      </trkpt>
      <trkpt lat="44.86132" lon="5.2504">
        <ele>1463.1</ele>
        <time>2024-07-02T12:31:24Z</time>
      </trkpt>
      <trkpt lat="44.86133" lon="5.25038">
        <ele>1462.9</ele>
        <time>2024-07-02T12:31:25Z</time>
      </trkpt>
      <trkpt lat="44.86133" lon="5.25037">
        <ele>1462.7</ele>
        <time>2024-07-02T12:31:26Z</time>
      </trkpt>
      <trkpt lat="44.86134" lon="5.25036">
        <ele>1462.5</ele>
        <time>2024-07-02T12:31:27Z</time>
      </trkpt>
      <trkpt lat="44.86135" lon="5.25035">
        <ele>1462.3</ele>
        <time>2024-07-02T12:31:28Z</time>
      </trkpt>
      <trkpt lat="44.86135" lon="5.25034">
        <ele>1462.1</ele>
        <time>2024-07-02T12:31:29Z</time>
      </trkpt>
      <trkpt lat="44.86136" lon="5.25032">
        <ele>1461.8</ele>
        <time>2024-07-02T12:31:30Z</time>
      </trkpt>
      <trkpt lat="44.86136" lon="5.25031">
        <ele>1461.7</ele>
        <time>2024-07-02T12:31:31Z</time>
      </trkpt>
      <trkpt lat="44.86137" lon="5.2503">
        <ele>1461.4</ele>
        <time>2024-07-02T12:31:32Z</time>
      </trkpt>
      <trkpt lat="44.86137" lon="5.25029">
        <ele>1461.2</ele>
        <time>2024-07-02T12:31:33Z</time>
      </trkpt>
      <trkpt lat="44.86138" lon="5.25028">
        <ele>1461</ele>
        <time>2024-07-02T12:31:34Z</time>
      </trkpt>
      <trkpt lat="44.86139" lon="5.25027">
        <ele>1460.8</ele>
        <time>2024-07-02T12:31:35Z</time>
      </trkpt>
      <trkpt lat="44.86139" lon="5.25026">
        <ele>1460.6</ele>
        <time>2024-07-02T12:31:36Z</time>
      </trkpt>
      <trkpt lat="44.8614" lon="5.25025">
        <ele>1460.4</ele>
        <time>2024-07-02T12:31:37Z</time>
      </trkpt>
      <trkpt lat="44.8614" lon="5.25024">
        <ele>1460.2</ele>
        <time>2024-07-02T12:31:38Z</time>
      </trkpt>
      <trkpt lat="44.86141" lon="5.25023">
        <ele>1460</ele>
        <time>2024-07-02T12:31:39Z</time>
      </trkpt>
      <trkpt lat="44.86142" lon="5.25022">
        <ele>1459.8</ele>
        <time>2024-07-02T12:31:40Z</time>
      </trkpt>
      <trkpt lat="44.86143" lon="5.25022">
        <ele>1459.6</ele>
        <time>2024-07-02T12:31:41Z</time>
      </trkpt>
      <trkpt lat="44.86143" lon="5.25022">
        <ele>1459.4</ele>
        <time>2024-07-02T12:31:42Z</time>
      </trkpt>
      <trkpt lat="44.86144" lon="5.25022">
        <ele>1459.4</ele>
        <time>2024-07-02T12:31:43Z</time>
      </trkpt>
      <trkpt lat="44.86144" lon="5.25022">
        <ele>1459.3</ele>
        <time>2024-07-02T12:31:44Z</time>
      </trkpt>
      <trkpt lat="44.86145" lon="5.25022">
        <ele>1459.1</ele>
        <time>2024-07-02T12:31:45Z</time>
      </trkpt>
      <trkpt lat="44.86145" lon="5.25022">
        <ele>1459</ele>
        <time>2024-07-02T12:31:46Z</time>
      </trkpt>
      <trkpt lat="44.86145" lon="5.25021">
        <ele>1458.9</ele>
        <time>2024-07-02T12:31:47Z</time>
      </trkpt>
      <trkpt lat="44.86145" lon="5.2502">
        <ele>1458.8</ele>
        <time>2024-07-02T12:31:48Z</time>
      </trkpt>
      <trkpt lat="44.86146" lon="5.2502">
        <ele>1458.6</ele>
        <time>2024-07-02T12:31:49Z</time>
      </trkpt>
      <trkpt lat="44.86147" lon="5.25019">
        <ele>1458.5</ele>
        <time>2024-07-02T12:31:50Z</time>
      </trkpt>
      <trkpt lat="44.86147" lon="5.25019">
        <ele>1458.4</ele>
        <time>2024-07-02T12:31:51Z</time>
      </trkpt>
      <trkpt lat="44.86148" lon="5.25018">
        <ele>1458.2</ele>
        <time>2024-07-02T12:31:52Z</time>
      </trkpt>
      <trkpt lat="44.86149" lon="5.25016">
        <ele>1457.8</ele>
        <time>2024-07-02T12:31:53Z</time>
      </trkpt>
      <trkpt lat="44.86149" lon="5.25016">
        <ele>1457.7</ele>
        <time>2024-07-02T12:31:54Z</time>
      </trkpt>
      <trkpt lat="44.86149" lon="5.25015">
        <ele>1457.5</ele>
        <time>2024-07-02T12:31:55Z</time>
      </trkpt>
      <trkpt lat="44.8615" lon="5.25014">
        <ele>1457.4</ele>
        <time>2024-07-02T12:31:56Z</time>
      </trkpt>
      <trkpt lat="44.8615" lon="5.25013">
        <ele>1457.2</ele>
        <time>2024-07-02T12:31:57Z</time>
      </trkpt>
      <trkpt lat="44.86151" lon="5.25012">
        <ele>1456.9</ele>
        <time>2024-07-02T12:31:58Z</time>
      </trkpt>
      <trkpt lat="44.86151" lon="5.25011">
        <ele>1456.8</ele>
        <time>2024-07-02T12:31:59Z</time>
      </trkpt>
      <trkpt lat="44.86152" lon="5.2501">
        <ele>1456.5</ele>
        <time>2024-07-02T12:32:00Z</time>
      </trkpt>
      <trkpt lat="44.86153" lon="5.25009">
        <ele>1456.4</ele>
        <time>2024-07-02T12:32:01Z</time>
      </trkpt>
      <trkpt lat="44.86153" lon="5.25008">
        <ele>1456.1</ele>
        <time>2024-07-02T12:32:02Z</time>
      </trkpt>
      <trkpt lat="44.86154" lon="5.25007">
        <ele>1455.9</ele>
        <time>2024-07-02T12:32:03Z</time>
      </trkpt>
      <trkpt lat="44.86154" lon="5.25006">
        <ele>1455.7</ele>
        <time>2024-07-02T12:32:04Z</time>
      </trkpt>
      <trkpt lat="44.86155" lon="5.25006">
        <ele>1455.5</ele>
        <time>2024-07-02T12:32:05Z</time>
      </trkpt>
      <trkpt lat="44.86156" lon="5.25005">
        <ele>1455.3</ele>
        <time>2024-07-02T12:32:06Z</time>
      </trkpt>
      <trkpt lat="44.86157" lon="5.25003">
        <ele>1454.8</ele>
        <time>2024-07-02T12:32:07Z</time>
      </trkpt>
      <trkpt lat="44.86158" lon="5.25002">
        <ele>1454.6</ele>
        <time>2024-07-02T12:32:08Z</time>
      </trkpt>
      <trkpt lat="44.86158" lon="5.25002">
        <ele>1454.5</ele>
        <time>2024-07-02T12:32:09Z</time>
      </trkpt>
      <trkpt lat="44.86159" lon="5.25001">
        <ele>1454.4</ele>
        <time>2024-07-02T12:32:10Z</time>
      </trkpt>
      <trkpt lat="44.86159" lon="5.25001">
        <ele>1454.2</ele>
        <time>2024-07-02T12:32:11Z</time>
      </trkpt>
      <trkpt lat="44.8616" lon="5.24999">
        <ele>1453.9</ele>
        <time>2024-07-02T12:32:12Z</time>
      </trkpt>
      <trkpt lat="44.86161" lon="5.24999">
        <ele>1453.7</ele>
        <time>2024-07-02T12:32:13Z</time>
      </trkpt>
      <trkpt lat="44.86162" lon="5.24998">
        <ele>1453.4</ele>
        <time>2024-07-02T12:32:14Z</time>
      </trkpt>
      <trkpt lat="44.86162" lon="5.24997">
        <ele>1453.3</ele>
        <time>2024-07-02T12:32:15Z</time>
      </trkpt>
      <trkpt lat="44.86163" lon="5.24996">
        <ele>1453</ele>
        <time>2024-07-02T12:32:16Z</time>
      </trkpt>
      <trkpt lat="44.86164" lon="5.24995">
        <ele>1452.8</ele>
        <time>2024-07-02T12:32:17Z</time>
      </trkpt>
      <trkpt lat="44.86164" lon="5.24994">
        <ele>1452.5</ele>
        <time>2024-07-02T12:32:18Z</time>
      </trkpt>
      <trkpt lat="44.86165" lon="5.24993">
        <ele>1452.3</ele>
        <time>2024-07-02T12:32:19Z</time>
      </trkpt>
      <trkpt lat="44.86165" lon="5.24992">
        <ele>1452.1</ele>
        <time>2024-07-02T12:32:20Z</time>
      </trkpt>
      <trkpt lat="44.86166" lon="5.24991">
        <ele>1451.9</ele>
        <time>2024-07-02T12:32:21Z</time>
      </trkpt>
      <trkpt lat="44.86166" lon="5.2499">
        <ele>1451.7</ele>
        <time>2024-07-02T12:32:22Z</time>
      </trkpt>
      <trkpt lat="44.86167" lon="5.24989">
        <ele>1451.5</ele>
        <time>2024-07-02T12:32:23Z</time>
      </trkpt>
      <trkpt lat="44.86168" lon="5.24988">
        <ele>1451.3</ele>
        <time>2024-07-02T12:32:24Z</time>
      </trkpt>
      <trkpt lat="44.86168" lon="5.24988">
        <ele>1451</ele>
        <time>2024-07-02T12:32:25Z</time>
      </trkpt>
      <trkpt lat="44.86169" lon="5.24987">
        <ele>1450.8</ele>
        <time>2024-07-02T12:32:26Z</time>
      </trkpt>
      <trkpt lat="44.8617" lon="5.24986">
        <ele>1450.5</ele>
        <time>2024-07-02T12:32:27Z</time>
      </trkpt>
      <trkpt lat="44.86171" lon="5.24985">
        <ele>1450.3</ele>
        <time>2024-07-02T12:32:28Z</time>
      </trkpt>
      <trkpt lat="44.86172" lon="5.24984">
        <ele>1450.1</ele>
        <time>2024-07-02T12:32:29Z</time>
      </trkpt>
      <trkpt lat="44.86172" lon="5.24983">
        <ele>1449.9</ele>
        <time>2024-07-02T12:32:30Z</time>
      </trkpt>
      <trkpt lat="44.86173" lon="5.24982">
        <ele>1449.6</ele>
        <time>2024-07-02T12:32:31Z</time>
      </trkpt>
      <trkpt lat="44.86174" lon="5.24981">
        <ele>1449.4</ele>
        <time>2024-07-02T12:32:32Z</time>
      </trkpt>
      <trkpt lat="44.86174" lon="5.2498">
        <ele>1449.2</ele>
        <time>2024-07-02T12:32:33Z</time>
      </trkpt>
      <trkpt lat="44.86175" lon="5.2498">
        <ele>1449</ele>
        <time>2024-07-02T12:32:34Z</time>
      </trkpt>
      <trkpt lat="44.86176" lon="5.24978">
        <ele>1448.8</ele>
        <time>2024-07-02T12:32:35Z</time>
      </trkpt>
      <trkpt lat="44.86176" lon="5.24977">
        <ele>1448.5</ele>
        <time>2024-07-02T12:32:36Z</time>
      </trkpt>
      <trkpt lat="44.86177" lon="5.24976">
        <ele>1448.3</ele>
        <time>2024-07-02T12:32:37Z</time>
      </trkpt>
      <trkpt lat="44.86178" lon="5.24975">
        <ele>1448</ele>
        <time>2024-07-02T12:32:38Z</time>
      </trkpt>
      <trkpt lat="44.86179" lon="5.24975">
        <ele>1447.8</ele>
        <time>2024-07-02T12:32:39Z</time>
      </trkpt>
      <trkpt lat="44.8618" lon="5.24974">
        <ele>1447.6</ele>
        <time>2024-07-02T12:32:40Z</time>
      </trkpt>
      <trkpt lat="44.86181" lon="5.24973">
        <ele>1447.3</ele>
        <time>2024-07-02T12:32:41Z</time>
      </trkpt>
      <trkpt lat="44.86182" lon="5.24973">
        <ele>1447.1</ele>
        <time>2024-07-02T12:32:42Z</time>
      </trkpt>
      <trkpt lat="44.86183" lon="5.24972">
        <ele>1446.8</ele>
        <time>2024-07-02T12:32:43Z</time>
      </trkpt>
      <trkpt lat="44.86183" lon="5.24971">
        <ele>1446.7</ele>
        <time>2024-07-02T12:32:44Z</time>
      </trkpt>
      <trkpt lat="44.86184" lon="5.24971">
        <ele>1446.4</ele>
        <time>2024-07-02T12:32:45Z</time>
      </trkpt>
      <trkpt lat="44.86185" lon="5.2497">
        <ele>1446.2</ele>
        <time>2024-07-02T12:32:46Z</time>
      </trkpt>
      <trkpt lat="44.86186" lon="5.24969">
        <ele>1446</ele>
        <time>2024-07-02T12:32:47Z</time>
      </trkpt>
      <trkpt lat="44.86187" lon="5.24968">
        <ele>1445.7</ele>
        <time>2024-07-02T12:32:48Z</time>
      </trkpt>
      <trkpt lat="44.86187" lon="5.24968">
        <ele>1445.6</ele>
        <time>2024-07-02T12:32:49Z</time>
      </trkpt>
      <trkpt lat="44.86188" lon="5.24967">
        <ele>1445.3</ele>
        <time>2024-07-02T12:32:50Z</time>
      </trkpt>
      <trkpt lat="44.86189" lon="5.24966">
        <ele>1445</ele>
        <time>2024-07-02T12:32:51Z</time>
      </trkpt>
      <trkpt lat="44.86191" lon="5.24964">
        <ele>1444.7</ele>
        <time>2024-07-02T12:32:52Z</time>
      </trkpt>
      <trkpt lat="44.86191" lon="5.24964">
        <ele>1444.5</ele>
        <time>2024-07-02T12:32:53Z</time>
      </trkpt>
      <trkpt lat="44.86192" lon="5.24963">
        <ele>1444.3</ele>
        <time>2024-07-02T12:32:54Z</time>
      </trkpt>
      <trkpt lat="44.86193" lon="5.24962">
        <ele>1444</ele>
        <time>2024-07-02T12:32:55Z</time>
      </trkpt>
      <trkpt lat="44.86194" lon="5.24961">
        <ele>1443.8</ele>
        <time>2024-07-02T12:32:56Z</time>
      </trkpt>
      <trkpt lat="44.86195" lon="5.2496">
        <ele>1443.6</ele>
        <time>2024-07-02T12:32:57Z</time>
      </trkpt>
      <trkpt lat="44.86195" lon="5.24959">
        <ele>1443.3</ele>
        <time>2024-07-02T12:32:58Z</time>
      </trkpt>
      <trkpt lat="44.86196" lon="5.24959">
        <ele>1443.2</ele>
        <time>2024-07-02T12:32:59Z</time>
      </trkpt>
      <trkpt lat="44.86197" lon="5.24958">
        <ele>1443</ele>
        <time>2024-07-02T12:33:00Z</time>
      </trkpt>
      <trkpt lat="44.86197" lon="5.24957">
        <ele>1442.7</ele>
        <time>2024-07-02T12:33:01Z</time>
      </trkpt>
      <trkpt lat="44.86198" lon="5.24957">
        <ele>1442.6</ele>
        <time>2024-07-02T12:33:02Z</time>
      </trkpt>
      <trkpt lat="44.86199" lon="5.24956">
        <ele>1442.4</ele>
        <time>2024-07-02T12:33:03Z</time>
      </trkpt>
      <trkpt lat="44.862" lon="5.24955">
        <ele>1442.1</ele>
        <time>2024-07-02T12:33:04Z</time>
      </trkpt>
      <trkpt lat="44.86201" lon="5.24955">
        <ele>1441.9</ele>
        <time>2024-07-02T12:33:05Z</time>
      </trkpt>
      <trkpt lat="44.86202" lon="5.24954">
        <ele>1441.7</ele>
        <time>2024-07-02T12:33:06Z</time>
      </trkpt>
      <trkpt lat="44.86202" lon="5.24954">
        <ele>1441.5</ele>
        <time>2024-07-02T12:33:07Z</time>
      </trkpt>
      <trkpt lat="44.86203" lon="5.24953">
        <ele>1441.2</ele>
        <time>2024-07-02T12:33:08Z</time>
      </trkpt>
      <trkpt lat="44.86204" lon="5.24952">
        <ele>1441</ele>
        <time>2024-07-02T12:33:09Z</time>
      </trkpt>
      <trkpt lat="44.86205" lon="5.24951">
        <ele>1440.8</ele>
        <time>2024-07-02T12:33:10Z</time>
      </trkpt>
      <trkpt lat="44.86205" lon="5.2495">
        <ele>1440.5</ele>
        <time>2024-07-02T12:33:11Z</time>
      </trkpt>
      <trkpt lat="44.86206" lon="5.24949">
        <ele>1440.3</ele>
        <time>2024-07-02T12:33:12Z</time>
      </trkpt>
      <trkpt lat="44.86207" lon="5.24948">
        <ele>1440.1</ele>
        <time>2024-07-02T12:33:13Z</time>
      </trkpt>
      <trkpt lat="44.86207" lon="5.24947">
        <ele>1439.9</ele>
        <time>2024-07-02T12:33:14Z</time>
      </trkpt>
      <trkpt lat="44.86208" lon="5.24946">
        <ele>1439.7</ele>
        <time>2024-07-02T12:33:15Z</time>
      </trkpt>
      <trkpt lat="44.86209" lon="5.24945">
        <ele>1439.4</ele>
        <time>2024-07-02T12:33:16Z</time>
      </trkpt>
      <trkpt lat="44.86209" lon="5.24945">
        <ele>1439.2</ele>
        <time>2024-07-02T12:33:17Z</time>
      </trkpt>
      <trkpt lat="44.8621" lon="5.24944">
        <ele>1439</ele>
        <time>2024-07-02T12:33:18Z</time>
      </trkpt>
      <trkpt lat="44.86211" lon="5.24943">
        <ele>1438.7</ele>
        <time>2024-07-02T12:33:19Z</time>
      </trkpt>
      <trkpt lat="44.86211" lon="5.24942">
        <ele>1438.6</ele>
        <time>2024-07-02T12:33:20Z</time>
      </trkpt>
      <trkpt lat="44.86212" lon="5.24941">
        <ele>1438.3</ele>
        <time>2024-07-02T12:33:21Z</time>
      </trkpt>
      <trkpt lat="44.86213" lon="5.2494">
        <ele>1438.1</ele>
        <time>2024-07-02T12:33:22Z</time>
      </trkpt>
      <trkpt lat="44.86214" lon="5.24939">
        <ele>1437.9</ele>
        <time>2024-07-02T12:33:23Z</time>
      </trkpt>
      <trkpt lat="44.86214" lon="5.24938">
        <ele>1437.6</ele>
        <time>2024-07-02T12:33:24Z</time>
      </trkpt>
      <trkpt lat="44.86215" lon="5.24938">
        <ele>1437.4</ele>
        <time>2024-07-02T12:33:25Z</time>
      </trkpt>
      <trkpt lat="44.86216" lon="5.24937">
        <ele>1437.2</ele>
        <time>2024-07-02T12:33:26Z</time>
      </trkpt>
      <trkpt lat="44.86217" lon="5.24936">
        <ele>1436.9</ele>
        <time>2024-07-02T12:33:27Z</time>
      </trkpt>
      <trkpt lat="44.86217" lon="5.24935">
        <ele>1436.7</ele>
        <time>2024-07-02T12:33:28Z</time>
      </trkpt>
      <trkpt lat="44.86218" lon="5.24934">
        <ele>1436.5</ele>
        <time>2024-07-02T12:33:29Z</time>
      </trkpt>
      <trkpt lat="44.86219" lon="5.24932">
        <ele>1436.2</ele>
        <time>2024-07-02T12:33:30Z</time>
      </trkpt>
      <trkpt lat="44.86219" lon="5.24932">
        <ele>1436</ele>
        <time>2024-07-02T12:33:31Z</time>
      </trkpt>
      <trkpt lat="44.8622" lon="5.24931">
        <ele>1435.8</ele>
        <time>2024-07-02T12:33:32Z</time>
      </trkpt>
      <trkpt lat="44.8622" lon="5.24931">
        <ele>1435.6</ele>
        <time>2024-07-02T12:33:33Z</time>
      </trkpt>
      <trkpt lat="44.86221" lon="5.2493">
        <ele>1435.4</ele>
        <time>2024-07-02T12:33:34Z</time>
      </trkpt>
      <trkpt lat="44.86222" lon="5.24929">
        <ele>1435.1</ele>
        <time>2024-07-02T12:33:35Z</time>
      </trkpt>
      <trkpt lat="44.86223" lon="5.24928">
        <ele>1434.9</ele>
        <time>2024-07-02T12:33:36Z</time>
      </trkpt>
      <trkpt lat="44.86224" lon="5.24927">
        <ele>1434.7</ele>
        <time>2024-07-02T12:33:37Z</time>
      </trkpt>
      <trkpt lat="44.86224" lon="5.24927">
        <ele>1434.5</ele>
        <time>2024-07-02T12:33:38Z</time>
      </trkpt>
      <trkpt lat="44.86225" lon="5.24925">
        <ele>1434.2</ele>
        <time>2024-07-02T12:33:39Z</time>
      </trkpt>
      <trkpt lat="44.86225" lon="5.24925">
        <ele>1434</ele>
        <time>2024-07-02T12:33:40Z</time>
      </trkpt>
      <trkpt lat="44.86226" lon="5.24924">
        <ele>1433.9</ele>
        <time>2024-07-02T12:33:41Z</time>
      </trkpt>
      <trkpt lat="44.86226" lon="5.24923">
        <ele>1433.6</ele>
        <time>2024-07-02T12:33:42Z</time>
      </trkpt>
      <trkpt lat="44.86227" lon="5.24922">
        <ele>1433.4</ele>
        <time>2024-07-02T12:33:43Z</time>
      </trkpt>
      <trkpt lat="44.86228" lon="5.24921">
        <ele>1433.2</ele>
        <time>2024-07-02T12:33:44Z</time>
      </trkpt>
      <trkpt lat="44.86228" lon="5.2492">
        <ele>1433</ele>
        <time>2024-07-02T12:33:45Z</time>
      </trkpt>
      <trkpt lat="44.86229" lon="5.2492">
        <ele>1432.8</ele>
        <time>2024-07-02T12:33:46Z</time>
      </trkpt>
      <trkpt lat="44.8623" lon="5.24919">
        <ele>1432.6</ele>
        <time>2024-07-02T12:33:47Z</time>
      </trkpt>
      <trkpt lat="44.8623" lon="5.24919">
        <ele>1432.4</ele>
        <time>2024-07-02T12:33:48Z</time>
      </trkpt>
      <trkpt lat="44.86231" lon="5.24918">
        <ele>1432.2</ele>
        <time>2024-07-02T12:33:49Z</time>
      </trkpt>
      <trkpt lat="44.86232" lon="5.24918">
        <ele>1432</ele>
        <time>2024-07-02T12:33:50Z</time>
      </trkpt>
      <trkpt lat="44.86233" lon="5.24918">
        <ele>1431.8</ele>
        <time>2024-07-02T12:33:51Z</time>
      </trkpt>
      <trkpt lat="44.86234" lon="5.24917">
        <ele>1431.6</ele>
        <time>2024-07-02T12:33:52Z</time>
      </trkpt>
      <trkpt lat="44.86235" lon="5.24916">
        <ele>1431.3</ele>
        <time>2024-07-02T12:33:53Z</time>
      </trkpt>
      <trkpt lat="44.86235" lon="5.24916">
        <ele>1431.1</ele>
        <time>2024-07-02T12:33:54Z</time>
      </trkpt>
      <trkpt lat="44.86236" lon="5.24915">
        <ele>1430.9</ele>
        <time>2024-07-02T12:33:55Z</time>
      </trkpt>
      <trkpt lat="44.86237" lon="5.24915">
        <ele>1430.7</ele>
        <time>2024-07-02T12:33:56Z</time>
      </trkpt>
      <trkpt lat="44.86238" lon="5.24914">
        <ele>1430.5</ele>
        <time>2024-07-02T12:33:57Z</time>
      </trkpt>
      <trkpt lat="44.86238" lon="5.24913">
        <ele>1430.2</ele>
        <time>2024-07-02T12:33:58Z</time>
      </trkpt>
      <trkpt lat="44.86239" lon="5.24912">
        <ele>1429.9</ele>
        <time>2024-07-02T12:33:59Z</time>
      </trkpt>
      <trkpt lat="44.8624" lon="5.24911">
        <ele>1429.7</ele>
        <time>2024-07-02T12:34:00Z</time>
      </trkpt>
      <trkpt lat="44.86241" lon="5.24911">
        <ele>1429.5</ele>
        <time>2024-07-02T12:34:01Z</time>
      </trkpt>
      <trkpt lat="44.86241" lon="5.2491">
        <ele>1429.3</ele>
        <time>2024-07-02T12:34:02Z</time>
      </trkpt>
      <trkpt lat="44.86242" lon="5.24909">
        <ele>1429.1</ele>
        <time>2024-07-02T12:34:03Z</time>
      </trkpt>
      <trkpt lat="44.86243" lon="5.24909">
        <ele>1428.9</ele>
        <time>2024-07-02T12:34:04Z</time>
      </trkpt>
      <trkpt lat="44.86243" lon="5.24908">
        <ele>1428.6</ele>
        <time>2024-07-02T12:34:05Z</time>
      </trkpt>
      <trkpt lat="44.86244" lon="5.24907">
        <ele>1428.4</ele>
        <time>2024-07-02T12:34:06Z</time>
      </trkpt>
      <trkpt lat="44.86245" lon="5.24907">
        <ele>1428.2</ele>
        <time>2024-07-02T12:34:07Z</time>
      </trkpt>
      <trkpt lat="44.86245" lon="5.24906">
        <ele>1428</ele>
        <time>2024-07-02T12:34:08Z</time>
      </trkpt>
      <trkpt lat="44.86246" lon="5.24905">
        <ele>1427.8</ele>
        <time>2024-07-02T12:34:09Z</time>
      </trkpt>
      <trkpt lat="44.86247" lon="5.24904">
        <ele>1427.5</ele>
        <time>2024-07-02T12:34:10Z</time>
      </trkpt>
      <trkpt lat="44.86247" lon="5.24904">
        <ele>1427.4</ele>
        <time>2024-07-02T12:34:11Z</time>
      </trkpt>
      <trkpt lat="44.86248" lon="5.24903">
        <ele>1427.1</ele>
        <time>2024-07-02T12:34:12Z</time>
      </trkpt>
      <trkpt lat="44.86248" lon="5.24902">
        <ele>1426.9</ele>
        <time>2024-07-02T12:34:13Z</time>
      </trkpt>
      <trkpt lat="44.86247" lon="5.24901">
        <ele>1426.6</ele>
        <time>2024-07-02T12:34:14Z</time>
      </trkpt>
      <trkpt lat="44.86246" lon="5.24901">
        <ele>1426.4</ele>
        <time>2024-07-02T12:34:15Z</time>
      </trkpt>
      <trkpt lat="44.86245" lon="5.249">
        <ele>1426</ele>
        <time>2024-07-02T12:34:16Z</time>
      </trkpt>
      <trkpt lat="44.86245" lon="5.24899">
        <ele>1425.8</ele>
        <time>2024-07-02T12:34:17Z</time>
      </trkpt>
      <trkpt lat="44.86246" lon="5.24898">
        <ele>1425.5</ele>
        <time>2024-07-02T12:34:18Z</time>
      </trkpt>
      <trkpt lat="44.86247" lon="5.24897">
        <ele>1425.2</ele>
        <time>2024-07-02T12:34:19Z</time>
      </trkpt>
      <trkpt lat="44.86248" lon="5.24896">
        <ele>1424.9</ele>
        <time>2024-07-02T12:34:20Z</time>
      </trkpt>
      <trkpt lat="44.86249" lon="5.24895">
        <ele>1424.6</ele>
        <time>2024-07-02T12:34:21Z</time>
      </trkpt>
      <trkpt lat="44.86249" lon="5.24894">
        <ele>1424.3</ele>
        <time>2024-07-02T12:34:22Z</time>
      </trkpt>
      <trkpt lat="44.8625" lon="5.24894">
        <ele>1424</ele>
        <time>2024-07-02T12:34:23Z</time>
      </trkpt>
      <trkpt lat="44.86251" lon="5.24893">
        <ele>1423.8</ele>
        <time>2024-07-02T12:34:24Z</time>
      </trkpt>
      <trkpt lat="44.86252" lon="5.24893">
        <ele>1423.6</ele>
        <time>2024-07-02T12:34:25Z</time>
      </trkpt>
      <trkpt lat="44.86253" lon="5.24892">
        <ele>1423.3</ele>
        <time>2024-07-02T12:34:26Z</time>
      </trkpt>
      <trkpt lat="44.86254" lon="5.24891">
        <ele>1423</ele>
        <time>2024-07-02T12:34:27Z</time>
      </trkpt>
      <trkpt lat="44.86254" lon="5.24891">
        <ele>1422.7</ele>
        <time>2024-07-02T12:34:28Z</time>
      </trkpt>
      <trkpt lat="44.86255" lon="5.2489">
        <ele>1422.5</ele>
        <time>2024-07-02T12:34:29Z</time>
      </trkpt>
      <trkpt lat="44.86256" lon="5.24889">
        <ele>1422.3</ele>
        <time>2024-07-02T12:34:30Z</time>
      </trkpt>
      <trkpt lat="44.86256" lon="5.24889">
        <ele>1422.1</ele>
        <time>2024-07-02T12:34:31Z</time>
      </trkpt>
      <trkpt lat="44.86257" lon="5.24888">
        <ele>1421.8</ele>
        <time>2024-07-02T12:34:32Z</time>
      </trkpt>
      <trkpt lat="44.86258" lon="5.24887">
        <ele>1421.6</ele>
        <time>2024-07-02T12:34:33Z</time>
      </trkpt>
      <trkpt lat="44.86258" lon="5.24887">
        <ele>1421.4</ele>
        <time>2024-07-02T12:34:34Z</time>
      </trkpt>
      <trkpt lat="44.86259" lon="5.24886">
        <ele>1421.2</ele>
        <time>2024-07-02T12:34:35Z</time>
      </trkpt>
      <trkpt lat="44.86259" lon="5.24885">
        <ele>1420.9</ele>
        <time>2024-07-02T12:34:36Z</time>
      </trkpt>
      <trkpt lat="44.8626" lon="5.24884">
        <ele>1420.8</ele>
        <time>2024-07-02T12:34:37Z</time>
      </trkpt>
      <trkpt lat="44.86261" lon="5.24884">
        <ele>1420.5</ele>
        <time>2024-07-02T12:34:38Z</time>
      </trkpt>
      <trkpt lat="44.86261" lon="5.24883">
        <ele>1420.3</ele>
        <time>2024-07-02T12:34:39Z</time>
      </trkpt>
      <trkpt lat="44.86262" lon="5.24883">
        <ele>1420</ele>
        <time>2024-07-02T12:34:40Z</time>
      </trkpt>
      <trkpt lat="44.86263" lon="5.24882">
        <ele>1419.8</ele>
        <time>2024-07-02T12:34:41Z</time>
      </trkpt>
      <trkpt lat="44.86264" lon="5.24881">
        <ele>1419.5</ele>
        <time>2024-07-02T12:34:42Z</time>
      </trkpt>
      <trkpt lat="44.86265" lon="5.2488">
        <ele>1419.1</ele>
        <time>2024-07-02T12:34:43Z</time>
      </trkpt>
      <trkpt lat="44.86266" lon="5.2488">
        <ele>1419</ele>
        <time>2024-07-02T12:34:44Z</time>
      </trkpt>
      <trkpt lat="44.86266" lon="5.24879">
        <ele>1418.7</ele>
        <time>2024-07-02T12:34:45Z</time>
      </trkpt>
      <trkpt lat="44.86267" lon="5.24878">
        <ele>1418.6</ele>
        <time>2024-07-02T12:34:46Z</time>
      </trkpt>
      <trkpt lat="44.86267" lon="5.24877">
        <ele>1418.4</ele>
        <time>2024-07-02T12:34:47Z</time>
      </trkpt>
      <trkpt lat="44.86268" lon="5.24876">
        <ele>1418.1</ele>
        <time>2024-07-02T12:34:48Z</time>
      </trkpt>
      <trkpt lat="44.86269" lon="5.24875">
        <ele>1417.9</ele>
        <time>2024-07-02T12:34:49Z</time>
      </trkpt>
      <trkpt lat="44.8627" lon="5.24875">
        <ele>1417.6</ele>
        <time>2024-07-02T12:34:50Z</time>
      </trkpt>
      <trkpt lat="44.8627" lon="5.24874">
        <ele>1417.4</ele>
        <time>2024-07-02T12:34:51Z</time>
      </trkpt>
      <trkpt lat="44.86271" lon="5.24874">
        <ele>1417.2</ele>
        <time>2024-07-02T12:34:52Z</time>
      </trkpt>
      <trkpt lat="44.86272" lon="5.24873">
        <ele>1417</ele>
        <time>2024-07-02T12:34:53Z</time>
      </trkpt>
      <trkpt lat="44.86272" lon="5.24872">
        <ele>1416.8</ele>
        <time>2024-07-02T12:34:54Z</time>
      </trkpt>
      <trkpt lat="44.86273" lon="5.24872">
        <ele>1416.6</ele>
        <time>2024-07-02T12:34:55Z</time>
      </trkpt>
      <trkpt lat="44.86273" lon="5.24871">
        <ele>1416.5</ele>
        <time>2024-07-02T12:34:56Z</time>
      </trkpt>
      <trkpt lat="44.86274" lon="5.2487">
        <ele>1416.2</ele>
        <time>2024-07-02T12:34:57Z</time>
      </trkpt>
      <trkpt lat="44.86275" lon="5.2487">
        <ele>1416</ele>
        <time>2024-07-02T12:34:58Z</time>
      </trkpt>
      <trkpt lat="44.86275" lon="5.24869">
        <ele>1415.8</ele>
        <time>2024-07-02T12:34:59Z</time>
      </trkpt>
      <trkpt lat="44.86276" lon="5.24868">
        <ele>1415.6</ele>
        <time>2024-07-02T12:35:00Z</time>
      </trkpt>
      <trkpt lat="44.86276" lon="5.24867">
        <ele>1415.4</ele>
        <time>2024-07-02T12:35:01Z</time>
      </trkpt>
      <trkpt lat="44.86277" lon="5.24866">
        <ele>1415.3</ele>
        <time>2024-07-02T12:35:02Z</time>
      </trkpt>
      <trkpt lat="44.86278" lon="5.24866">
        <ele>1415</ele>
        <time>2024-07-02T12:35:03Z</time>
      </trkpt>
      <trkpt lat="44.86278" lon="5.24865">
        <ele>1414.8</ele>
        <time>2024-07-02T12:35:04Z</time>
      </trkpt>
      <trkpt lat="44.86278" lon="5.24864">
        <ele>1414.6</ele>
        <time>2024-07-02T12:35:05Z</time>
      </trkpt>
      <trkpt lat="44.86279" lon="5.24863">
        <ele>1414.4</ele>
        <time>2024-07-02T12:35:06Z</time>
      </trkpt>
      <trkpt lat="44.86279" lon="5.24863">
        <ele>1414.3</ele>
        <time>2024-07-02T12:35:07Z</time>
      </trkpt>
      <trkpt lat="44.8628" lon="5.24862">
        <ele>1414</ele>
        <time>2024-07-02T12:35:08Z</time>
      </trkpt>
      <trkpt lat="44.86281" lon="5.24861">
        <ele>1413.8</ele>
        <time>2024-07-02T12:35:09Z</time>
      </trkpt>
      <trkpt lat="44.86282" lon="5.24861">
        <ele>1413.6</ele>
        <time>2024-07-02T12:35:10Z</time>
      </trkpt>
      <trkpt lat="44.86283" lon="5.2486">
        <ele>1413.3</ele>
        <time>2024-07-02T12:35:11Z</time>
      </trkpt>
      <trkpt lat="44.86283" lon="5.24859">
        <ele>1413.1</ele>
        <time>2024-07-02T12:35:12Z</time>
      </trkpt>
      <trkpt lat="44.86284" lon="5.24858">
        <ele>1412.9</ele>
        <time>2024-07-02T12:35:13Z</time>
      </trkpt>
      <trkpt lat="44.86285" lon="5.24858">
        <ele>1412.6</ele>
        <time>2024-07-02T12:35:14Z</time>
      </trkpt>
      <trkpt lat="44.86286" lon="5.24858">
        <ele>1412.4</ele>
        <time>2024-07-02T12:35:15Z</time>
      </trkpt>
      <trkpt lat="44.86287" lon="5.24858">
        <ele>1412.2</ele>
        <time>2024-07-02T12:35:16Z</time>
      </trkpt>
      <trkpt lat="44.86288" lon="5.24859">
        <ele>1411.9</ele>
        <time>2024-07-02T12:35:17Z</time>
      </trkpt>
      <trkpt lat="44.86288" lon="5.24858">
        <ele>1411.8</ele>
        <time>2024-07-02T12:35:18Z</time>
      </trkpt>
      <trkpt lat="44.86289" lon="5.24858">
        <ele>1411.7</ele>
        <time>2024-07-02T12:35:19Z</time>
      </trkpt>
      <trkpt lat="44.86289" lon="5.24858">
        <ele>1411.6</ele>
        <time>2024-07-02T12:35:20Z</time>
      </trkpt>
      <trkpt lat="44.86289" lon="5.24858">
        <ele>1411.5</ele>
        <time>2024-07-02T12:35:21Z</time>
      </trkpt>
      <trkpt lat="44.8629" lon="5.24857">
        <ele>1411.4</ele>
        <time>2024-07-02T12:35:22Z</time>
      </trkpt>
      <trkpt lat="44.8629" lon="5.24857">
        <ele>1411.3</ele>
        <time>2024-07-02T12:35:23Z</time>
      </trkpt>
      <trkpt lat="44.8629" lon="5.24857">
        <ele>1411.2</ele>
        <time>2024-07-02T12:35:24Z</time>
      </trkpt>
      <trkpt lat="44.86291" lon="5.24856">
        <ele>1411</ele>
        <time>2024-07-02T12:35:25Z</time>
      </trkpt>
      <trkpt lat="44.86292" lon="5.24855">
        <ele>1410.7</ele>
        <time>2024-07-02T12:35:26Z</time>
      </trkpt>
      <trkpt lat="44.86292" lon="5.24854">
        <ele>1410.6</ele>
        <time>2024-07-02T12:35:27Z</time>
      </trkpt>
      <trkpt lat="44.86293" lon="5.24853">
        <ele>1410.3</ele>
        <time>2024-07-02T12:35:28Z</time>
      </trkpt>
      <trkpt lat="44.86293" lon="5.24852">
        <ele>1410.1</ele>
        <time>2024-07-02T12:35:29Z</time>
      </trkpt>
      <trkpt lat="44.86293" lon="5.24851">
        <ele>1409.9</ele>
        <time>2024-07-02T12:35:30Z</time>
      </trkpt>
      <trkpt lat="44.86293" lon="5.24849">
        <ele>1409.7</ele>
        <time>2024-07-02T12:35:31Z</time>
      </trkpt>
      <trkpt lat="44.86294" lon="5.24849">
        <ele>1409.5</ele>
        <time>2024-07-02T12:35:32Z</time>
      </trkpt>
      <trkpt lat="44.86295" lon="5.24848">
        <ele>1409.2</ele>
        <time>2024-07-02T12:35:33Z</time>
      </trkpt>
      <trkpt lat="44.86295" lon="5.24847">
        <ele>1409</ele>
        <time>2024-07-02T12:35:34Z</time>
      </trkpt>
      <trkpt lat="44.86296" lon="5.24846">
        <ele>1408.8</ele>
        <time>2024-07-02T12:35:35Z</time>
      </trkpt>
      <trkpt lat="44.86297" lon="5.24845">
        <ele>1408.5</ele>
        <time>2024-07-02T12:35:36Z</time>
      </trkpt>
      <trkpt lat="44.86297" lon="5.24845">
        <ele>1408.5</ele>
        <time>2024-07-02T12:35:37Z</time>
      </trkpt>
      <trkpt lat="44.86298" lon="5.24845">
        <ele>1408.4</ele>
        <time>2024-07-02T12:35:38Z</time>
      </trkpt>
      <trkpt lat="44.86298" lon="5.24844">
        <ele>1408.2</ele>
        <time>2024-07-02T12:35:39Z</time>
      </trkpt>
      <trkpt lat="44.86299" lon="5.24844">
        <ele>1408.1</ele>
        <time>2024-07-02T12:35:40Z</time>
      </trkpt>
      <trkpt lat="44.863" lon="5.24844">
        <ele>1407.9</ele>
        <time>2024-07-02T12:35:41Z</time>
      </trkpt>
      <trkpt lat="44.863" lon="5.24843">
        <ele>1407.7</ele>
        <time>2024-07-02T12:35:42Z</time>
      </trkpt>
      <trkpt lat="44.86302" lon="5.24841">
        <ele>1407.2</ele>
        <time>2024-07-02T12:35:43Z</time>
      </trkpt>
      <trkpt lat="44.86302" lon="5.24841">
        <ele>1407.1</ele>
        <time>2024-07-02T12:35:44Z</time>
      </trkpt>
      <trkpt lat="44.86303" lon="5.2484">
        <ele>1407</ele>
        <time>2024-07-02T12:35:45Z</time>
      </trkpt>
      <trkpt lat="44.86303" lon="5.24839">
        <ele>1406.8</ele>
        <time>2024-07-02T12:35:46Z</time>
      </trkpt>
      <trkpt lat="44.86304" lon="5.24838">
        <ele>1406.6</ele>
        <time>2024-07-02T12:35:47Z</time>
      </trkpt>
      <trkpt lat="44.86304" lon="5.24837">
        <ele>1406.4</ele>
        <time>2024-07-02T12:35:48Z</time>
      </trkpt>
      <trkpt lat="44.86305" lon="5.24837">
        <ele>1406.3</ele>
        <time>2024-07-02T12:35:49Z</time>
      </trkpt>
      <trkpt lat="44.86305" lon="5.24836">
        <ele>1406.1</ele>
        <time>2024-07-02T12:35:50Z</time>
      </trkpt>
      <trkpt lat="44.86306" lon="5.24836">
        <ele>1406</ele>
        <time>2024-07-02T12:35:51Z</time>
      </trkpt>
      <trkpt lat="44.86307" lon="5.24836">
        <ele>1405.8</ele>
        <time>2024-07-02T12:35:52Z</time>
      </trkpt>
      <trkpt lat="44.86308" lon="5.24835">
        <ele>1405.5</ele>
        <time>2024-07-02T12:35:53Z</time>
      </trkpt>
      <trkpt lat="44.86309" lon="5.24836">
        <ele>1405.3</ele>
        <time>2024-07-02T12:35:54Z</time>
      </trkpt>
      <trkpt lat="44.86309" lon="5.24837">
        <ele>1405.2</ele>
        <time>2024-07-02T12:35:55Z</time>
      </trkpt>
      <trkpt lat="44.86308" lon="5.24837">
        <ele>1405.1</ele>
        <time>2024-07-02T12:35:56Z</time>
      </trkpt>
      <trkpt lat="44.86308" lon="5.24838">
        <ele>1405</ele>
        <time>2024-07-02T12:35:57Z</time>
      </trkpt>
      <trkpt lat="44.86308" lon="5.24838">
        <ele>1405</ele>
        <time>2024-07-02T12:35:58Z</time>
      </trkpt>
      <trkpt lat="44.86308" lon="5.24837">
        <ele>1404.9</ele>
        <time>2024-07-02T12:35:59Z</time>
      </trkpt>
      <trkpt lat="44.86308" lon="5.24837">
        <ele>1404.8</ele>
        <time>2024-07-02T12:36:00Z</time>
      </trkpt>
      <trkpt lat="44.86309" lon="5.24836">
        <ele>1404.7</ele>
        <time>2024-07-02T12:36:01Z</time>
      </trkpt>
      <trkpt lat="44.8631" lon="5.24836">
        <ele>1404.5</ele>
        <time>2024-07-02T12:36:02Z</time>
      </trkpt>
      <trkpt lat="44.86312" lon="5.24834">
        <ele>1404.1</ele>
        <time>2024-07-02T12:36:03Z</time>
      </trkpt>
      <trkpt lat="44.86312" lon="5.24834">
        <ele>1403.9</ele>
        <time>2024-07-02T12:36:04Z</time>
      </trkpt>
      <trkpt lat="44.86313" lon="5.24833">
        <ele>1403.7</ele>
        <time>2024-07-02T12:36:05Z</time>
      </trkpt>
      <trkpt lat="44.86314" lon="5.24832">
        <ele>1403.5</ele>
        <time>2024-07-02T12:36:06Z</time>
      </trkpt>
      <trkpt lat="44.86315" lon="5.24831">
        <ele>1403.3</ele>
        <time>2024-07-02T12:36:07Z</time>
      </trkpt>
      <trkpt lat="44.86316" lon="5.24829">
        <ele>1403</ele>
        <time>2024-07-02T12:36:08Z</time>
      </trkpt>
      <trkpt lat="44.86317" lon="5.24828">
        <ele>1402.9</ele>
        <time>2024-07-02T12:36:09Z</time>
      </trkpt>
      <trkpt lat="44.86317" lon="5.24827">
        <ele>1402.7</ele>
        <time>2024-07-02T12:36:10Z</time>
      </trkpt>
      <trkpt lat="44.86318" lon="5.24827">
        <ele>1402.6</ele>
        <time>2024-07-02T12:36:11Z</time>
      </trkpt>
      <trkpt lat="44.86319" lon="5.24826">
        <ele>1402.4</ele>
        <time>2024-07-02T12:36:12Z</time>
      </trkpt>
      <trkpt lat="44.8632" lon="5.24825">
        <ele>1402.2</ele>
        <time>2024-07-02T12:36:13Z</time>
      </trkpt>
      <trkpt lat="44.8632" lon="5.24825">
        <ele>1402.1</ele>
        <time>2024-07-02T12:36:14Z</time>
      </trkpt>
      <trkpt lat="44.86322" lon="5.24825">
        <ele>1401.9</ele>
        <time>2024-07-02T12:36:15Z</time>
      </trkpt>
      <trkpt lat="44.86322" lon="5.24825">
        <ele>1401.9</ele>
        <time>2024-07-02T12:36:16Z</time>
      </trkpt>
      <trkpt lat="44.86323" lon="5.24824">
        <ele>1401.7</ele>
        <time>2024-07-02T12:36:17Z</time>
      </trkpt>
      <trkpt lat="44.86324" lon="5.24824">
        <ele>1401.5</ele>
        <time>2024-07-02T12:36:18Z</time>
      </trkpt>
      <trkpt lat="44.86325" lon="5.24824">
        <ele>1401.4</ele>
        <time>2024-07-02T12:36:19Z</time>
      </trkpt>
      <trkpt lat="44.86326" lon="5.24824">
        <ele>1401.3</ele>
        <time>2024-07-02T12:36:20Z</time>
      </trkpt>
      <trkpt lat="44.86327" lon="5.24824">
        <ele>1401.2</ele>
        <time>2024-07-02T12:36:21Z</time>
      </trkpt>
      <trkpt lat="44.86328" lon="5.24824">
        <ele>1401</ele>
        <time>2024-07-02T12:36:22Z</time>
      </trkpt>
      <trkpt lat="44.8633" lon="5.24824">
        <ele>1400.8</ele>
        <time>2024-07-02T12:36:23Z</time>
      </trkpt>
      <trkpt lat="44.86331" lon="5.24824">
        <ele>1400.8</ele>
        <time>2024-07-02T12:36:24Z</time>
      </trkpt>
      <trkpt lat="44.86331" lon="5.24824">
        <ele>1400.7</ele>
        <time>2024-07-02T12:36:25Z</time>
      </trkpt>
      <trkpt lat="44.86332" lon="5.24824">
        <ele>1400.5</ele>
        <time>2024-07-02T12:36:26Z</time>
      </trkpt>
      <trkpt lat="44.86333" lon="5.24824">
        <ele>1400.4</ele>
        <time>2024-07-02T12:36:27Z</time>
      </trkpt>
      <trkpt lat="44.86334" lon="5.24824">
        <ele>1400.3</ele>
        <time>2024-07-02T12:36:28Z</time>
      </trkpt>
      <trkpt lat="44.86335" lon="5.24824">
        <ele>1400.2</ele>
        <time>2024-07-02T12:36:29Z</time>
      </trkpt>
      <trkpt lat="44.86336" lon="5.24823">
        <ele>1400.1</ele>
        <time>2024-07-02T12:36:30Z</time>
      </trkpt>
      <trkpt lat="44.86337" lon="5.24822">
        <ele>1400</ele>
        <time>2024-07-02T12:36:31Z</time>
      </trkpt>
      <trkpt lat="44.86338" lon="5.24821">
        <ele>1399.9</ele>
        <time>2024-07-02T12:36:32Z</time>
      </trkpt>
      <trkpt lat="44.86339" lon="5.2482">
        <ele>1399.8</ele>
        <time>2024-07-02T12:36:33Z</time>
      </trkpt>
      <trkpt lat="44.8634" lon="5.24819">
        <ele>1399.7</ele>
        <time>2024-07-02T12:36:34Z</time>
      </trkpt>
      <trkpt lat="44.8634" lon="5.24818">
        <ele>1399.6</ele>
        <time>2024-07-02T12:36:35Z</time>
      </trkpt>
      <trkpt lat="44.86341" lon="5.24818">
        <ele>1399.5</ele>
        <time>2024-07-02T12:36:36Z</time>
      </trkpt>
      <trkpt lat="44.86342" lon="5.24817">
        <ele>1399.4</ele>
        <time>2024-07-02T12:36:37Z</time>
      </trkpt>
      <trkpt lat="44.86343" lon="5.24817">
        <ele>1399.4</ele>
        <time>2024-07-02T12:36:38Z</time>
      </trkpt>
      <trkpt lat="44.86344" lon="5.24817">
        <ele>1399.2</ele>
        <time>2024-07-02T12:36:39Z</time>
      </trkpt>
      <trkpt lat="44.86346" lon="5.24816">
        <ele>1399.1</ele>
        <time>2024-07-02T12:36:40Z</time>
      </trkpt>
      <trkpt lat="44.86347" lon="5.24815">
        <ele>1399</ele>
        <time>2024-07-02T12:36:41Z</time>
      </trkpt>
      <trkpt lat="44.86348" lon="5.24815">
        <ele>1398.9</ele>
        <time>2024-07-02T12:36:42Z</time>
      </trkpt>
      <trkpt lat="44.8635" lon="5.24815">
        <ele>1398.7</ele>
        <time>2024-07-02T12:36:43Z</time>
      </trkpt>
      <trkpt lat="44.86351" lon="5.24814">
        <ele>1398.7</ele>
        <time>2024-07-02T12:36:44Z</time>
      </trkpt>
      <trkpt lat="44.86351" lon="5.24814">
        <ele>1398.6</ele>
        <time>2024-07-02T12:36:45Z</time>
      </trkpt>
      <trkpt lat="44.86352" lon="5.24814">
        <ele>1398.5</ele>
        <time>2024-07-02T12:36:46Z</time>
      </trkpt>
      <trkpt lat="44.86354" lon="5.24813">
        <ele>1398.4</ele>
        <time>2024-07-02T12:36:47Z</time>
      </trkpt>
      <trkpt lat="44.86355" lon="5.24813">
        <ele>1398.3</ele>
        <time>2024-07-02T12:36:48Z</time>
      </trkpt>
      <trkpt lat="44.86356" lon="5.24813">
        <ele>1398.3</ele>
        <time>2024-07-02T12:36:49Z</time>
      </trkpt>
      <trkpt lat="44.86357" lon="5.24812">
        <ele>1398.2</ele>
        <time>2024-07-02T12:36:50Z</time>
      </trkpt>
      <trkpt lat="44.86358" lon="5.24812">
        <ele>1398.1</ele>
        <time>2024-07-02T12:36:51Z</time>
      </trkpt>
      <trkpt lat="44.8636" lon="5.24812">
        <ele>1397.9</ele>
        <time>2024-07-02T12:36:52Z</time>
      </trkpt>
      <trkpt lat="44.86361" lon="5.24812">
        <ele>1397.9</ele>
        <time>2024-07-02T12:36:53Z</time>
      </trkpt>
      <trkpt lat="44.86361" lon="5.24812">
        <ele>1397.8</ele>
        <time>2024-07-02T12:36:54Z</time>
      </trkpt>
      <trkpt lat="44.86364" lon="5.24811">
        <ele>1397.6</ele>
        <time>2024-07-02T12:36:55Z</time>
      </trkpt>
      <trkpt lat="44.86364" lon="5.24811">
        <ele>1397.6</ele>
        <time>2024-07-02T12:36:56Z</time>
      </trkpt>
      <trkpt lat="44.86365" lon="5.24811">
        <ele>1397.5</ele>
        <time>2024-07-02T12:36:57Z</time>
      </trkpt>
      <trkpt lat="44.86366" lon="5.24811">
        <ele>1397.5</ele>
        <time>2024-07-02T12:36:58Z</time>
      </trkpt>
      <trkpt lat="44.86367" lon="5.24811">
        <ele>1397.4</ele>
        <time>2024-07-02T12:36:59Z</time>
      </trkpt>
      <trkpt lat="44.86369" lon="5.2481">
        <ele>1397.3</ele>
        <time>2024-07-02T12:37:00Z</time>
      </trkpt>
      <trkpt lat="44.8637" lon="5.2481">
        <ele>1397.2</ele>
        <time>2024-07-02T12:37:01Z</time>
      </trkpt>
      <trkpt lat="44.86371" lon="5.2481">
        <ele>1397.2</ele>
        <time>2024-07-02T12:37:02Z</time>
      </trkpt>
      <trkpt lat="44.86372" lon="5.24809">
        <ele>1397.1</ele>
        <time>2024-07-02T12:37:03Z</time>
      </trkpt>
      <trkpt lat="44.86373" lon="5.24809">
        <ele>1397</ele>
        <time>2024-07-02T12:37:04Z</time>
      </trkpt>
      <trkpt lat="44.86374" lon="5.24809">
        <ele>1397</ele>
        <time>2024-07-02T12:37:05Z</time>
      </trkpt>
      <trkpt lat="44.86375" lon="5.24809">
        <ele>1396.9</ele>
        <time>2024-07-02T12:37:06Z</time>
      </trkpt>
      <trkpt lat="44.86376" lon="5.24809">
        <ele>1396.8</ele>
        <time>2024-07-02T12:37:07Z</time>
      </trkpt>
      <trkpt lat="44.86377" lon="5.24809">
        <ele>1396.8</ele>
        <time>2024-07-02T12:37:08Z</time>
      </trkpt>
      <trkpt lat="44.86378" lon="5.24809">
        <ele>1396.7</ele>
        <time>2024-07-02T12:37:09Z</time>
      </trkpt>
      <trkpt lat="44.86379" lon="5.24809">
        <ele>1396.6</ele>
        <time>2024-07-02T12:37:10Z</time>
      </trkpt>
      <trkpt lat="44.8638" lon="5.24809">
        <ele>1396.5</ele>
        <time>2024-07-02T12:37:11Z</time>
      </trkpt>
      <trkpt lat="44.86382" lon="5.24808">
        <ele>1396.5</ele>
        <time>2024-07-02T12:37:12Z</time>
      </trkpt>
      <trkpt lat="44.86383" lon="5.24808">
        <ele>1396.4</ele>
        <time>2024-07-02T12:37:13Z</time>
      </trkpt>
      <trkpt lat="44.86384" lon="5.24808">
        <ele>1396.3</ele>
        <time>2024-07-02T12:37:14Z</time>
      </trkpt>
      <trkpt lat="44.86385" lon="5.24807">
        <ele>1396.2</ele>
        <time>2024-07-02T12:37:15Z</time>
      </trkpt>
      <trkpt lat="44.86386" lon="5.24806">
        <ele>1396.2</ele>
        <time>2024-07-02T12:37:16Z</time>
      </trkpt>
      <trkpt lat="44.86386" lon="5.24806">
        <ele>1396.1</ele>
        <time>2024-07-02T12:37:17Z</time>
      </trkpt>
      <trkpt lat="44.86387" lon="5.24805">
        <ele>1396</ele>
        <time>2024-07-02T12:37:18Z</time>
      </trkpt>
      <trkpt lat="44.86388" lon="5.24804">
        <ele>1395.9</ele>
        <time>2024-07-02T12:37:19Z</time>
      </trkpt>
      <trkpt lat="44.86389" lon="5.24804">
        <ele>1395.8</ele>
        <time>2024-07-02T12:37:20Z</time>
      </trkpt>
      <trkpt lat="44.86389" lon="5.24803">
        <ele>1395.8</ele>
        <time>2024-07-02T12:37:21Z</time>
      </trkpt>
      <trkpt lat="44.8639" lon="5.24802">
        <ele>1395.7</ele>
        <time>2024-07-02T12:37:22Z</time>
      </trkpt>
      <trkpt lat="44.86391" lon="5.24801">
        <ele>1395.6</ele>
        <time>2024-07-02T12:37:23Z</time>
      </trkpt>
      <trkpt lat="44.86392" lon="5.248">
        <ele>1395.5</ele>
        <time>2024-07-02T12:37:24Z</time>
      </trkpt>
      <trkpt lat="44.86393" lon="5.24799">
        <ele>1395.4</ele>
        <time>2024-07-02T12:37:25Z</time>
      </trkpt>
      <trkpt lat="44.86394" lon="5.24798">
        <ele>1395.2</ele>
        <time>2024-07-02T12:37:26Z</time>
      </trkpt>
      <trkpt lat="44.86394" lon="5.24798">
        <ele>1395.2</ele>
        <time>2024-07-02T12:37:27Z</time>
      </trkpt>
      <trkpt lat="44.86395" lon="5.24797">
        <ele>1395</ele>
        <time>2024-07-02T12:37:28Z</time>
      </trkpt>
      <trkpt lat="44.86396" lon="5.24796">
        <ele>1394.9</ele>
        <time>2024-07-02T12:37:29Z</time>
      </trkpt>
      <trkpt lat="44.86397" lon="5.24796">
        <ele>1394.8</ele>
        <time>2024-07-02T12:37:30Z</time>
      </trkpt>
      <trkpt lat="44.86398" lon="5.24795">
        <ele>1394.7</ele>
        <time>2024-07-02T12:37:31Z</time>
      </trkpt>
      <trkpt lat="44.86398" lon="5.24794">
        <ele>1394.6</ele>
        <time>2024-07-02T12:37:32Z</time>
      </trkpt>
      <trkpt lat="44.86399" lon="5.24793">
        <ele>1394.5</ele>
        <time>2024-07-02T12:37:33Z</time>
      </trkpt>
      <trkpt lat="44.864" lon="5.24793">
        <ele>1394.4</ele>
        <time>2024-07-02T12:37:34Z</time>
      </trkpt>
      <trkpt lat="44.86401" lon="5.24792">
        <ele>1394.3</ele>
        <time>2024-07-02T12:37:35Z</time>
      </trkpt>
      <trkpt lat="44.86402" lon="5.24791">
        <ele>1394.1</ele>
        <time>2024-07-02T12:37:36Z</time>
      </trkpt>
      <trkpt lat="44.86403" lon="5.24791">
        <ele>1394</ele>
        <time>2024-07-02T12:37:37Z</time>
      </trkpt>
      <trkpt lat="44.86404" lon="5.2479">
        <ele>1393.9</ele>
        <time>2024-07-02T12:37:38Z</time>
      </trkpt>
      <trkpt lat="44.86405" lon="5.2479">
        <ele>1393.8</ele>
        <time>2024-07-02T12:37:39Z</time>
      </trkpt>
      <trkpt lat="44.86405" lon="5.24789">
        <ele>1393.7</ele>
        <time>2024-07-02T12:37:40Z</time>
      </trkpt>
      <trkpt lat="44.86406" lon="5.24788">
        <ele>1393.6</ele>
        <time>2024-07-02T12:37:41Z</time>
      </trkpt>
      <trkpt lat="44.86407" lon="5.24788">
        <ele>1393.5</ele>
        <time>2024-07-02T12:37:42Z</time>
      </trkpt>
      <trkpt lat="44.86408" lon="5.24787">
        <ele>1393.3</ele>
        <time>2024-07-02T12:37:43Z</time>
      </trkpt>
      <trkpt lat="44.86409" lon="5.24786">
        <ele>1393.2</ele>
        <time>2024-07-02T12:37:44Z</time>
      </trkpt>
      <trkpt lat="44.8641" lon="5.24786">
        <ele>1393.1</ele>
        <time>2024-07-02T12:37:45Z</time>
      </trkpt>
      <trkpt lat="44.86411" lon="5.24785">
        <ele>1392.9</ele>
        <time>2024-07-02T12:37:46Z</time>
      </trkpt>
      <trkpt lat="44.86412" lon="5.24784">
        <ele>1392.9</ele>
        <time>2024-07-02T12:37:47Z</time>
      </trkpt>
      <trkpt lat="44.86413" lon="5.24783">
        <ele>1392.7</ele>
        <time>2024-07-02T12:37:48Z</time>
      </trkpt>
      <trkpt lat="44.86414" lon="5.24782">
        <ele>1392.6</ele>
        <time>2024-07-02T12:37:49Z</time>
      </trkpt>
      <trkpt lat="44.86415" lon="5.24781">
        <ele>1392.5</ele>
        <time>2024-07-02T12:37:50Z</time>
      </trkpt>
      <trkpt lat="44.86416" lon="5.2478">
        <ele>1392.3</ele>
        <time>2024-07-02T12:37:51Z</time>
      </trkpt>
      <trkpt lat="44.86416" lon="5.24779">
        <ele>1392.2</ele>
        <time>2024-07-02T12:37:52Z</time>
      </trkpt>
      <trkpt lat="44.86417" lon="5.24778">
        <ele>1392.1</ele>
        <time>2024-07-02T12:37:53Z</time>
      </trkpt>
      <trkpt lat="44.86418" lon="5.24777">
        <ele>1392</ele>
        <time>2024-07-02T12:37:54Z</time>
      </trkpt>
      <trkpt lat="44.86419" lon="5.24776">
        <ele>1391.9</ele>
        <time>2024-07-02T12:37:55Z</time>
      </trkpt>
      <trkpt lat="44.8642" lon="5.24775">
        <ele>1391.7</ele>
        <time>2024-07-02T12:37:56Z</time>
      </trkpt>
      <trkpt lat="44.86421" lon="5.24774">
        <ele>1391.6</ele>
        <time>2024-07-02T12:37:57Z</time>
      </trkpt>
      <trkpt lat="44.86422" lon="5.24774">
        <ele>1391.5</ele>
        <time>2024-07-02T12:37:58Z</time>
      </trkpt>
      <trkpt lat="44.86423" lon="5.24772">
        <ele>1391.3</ele>
        <time>2024-07-02T12:37:59Z</time>
      </trkpt>
      <trkpt lat="44.86423" lon="5.24772">
        <ele>1391.3</ele>
        <time>2024-07-02T12:38:00Z</time>
      </trkpt>
      <trkpt lat="44.86423" lon="5.24772">
        <ele>1391.3</ele>
        <time>2024-07-02T12:38:01Z</time>
      </trkpt>
      <trkpt lat="44.86423" lon="5.24771">
        <ele>1391.2</ele>
        <time>2024-07-02T12:38:02Z</time>
      </trkpt>
      <trkpt lat="44.86423" lon="5.24771">
        <ele>1391.2</ele>
        <time>2024-07-02T12:38:03Z</time>
      </trkpt>
      <trkpt lat="44.86423" lon="5.24771">
        <ele>1391.2</ele>
        <time>2024-07-02T12:38:04Z</time>
      </trkpt>
      <trkpt lat="44.86424" lon="5.2477">
        <ele>1391.1</ele>
        <time>2024-07-02T12:38:05Z</time>
      </trkpt>
      <trkpt lat="44.86424" lon="5.2477">
        <ele>1391.1</ele>
        <time>2024-07-02T12:38:06Z</time>
      </trkpt>
      <trkpt lat="44.86424" lon="5.2477">
        <ele>1391.1</ele>
        <time>2024-07-02T12:38:07Z</time>
      </trkpt>
      <trkpt lat="44.86424" lon="5.24769">
        <ele>1391.1</ele>
        <time>2024-07-02T12:38:08Z</time>
      </trkpt>
      <trkpt lat="44.86425" lon="5.24768">
        <ele>1390.9</ele>
        <time>2024-07-02T12:38:09Z</time>
      </trkpt>
      <trkpt lat="44.86426" lon="5.24767">
        <ele>1390.7</ele>
        <time>2024-07-02T12:38:10Z</time>
      </trkpt>
      <trkpt lat="44.86428" lon="5.24765">
        <ele>1390.5</ele>
        <time>2024-07-02T12:38:11Z</time>
      </trkpt>
      <trkpt lat="44.86429" lon="5.24765">
        <ele>1390.4</ele>
        <time>2024-07-02T12:38:12Z</time>
      </trkpt>
      <trkpt lat="44.8643" lon="5.24764">
        <ele>1390.3</ele>
        <time>2024-07-02T12:38:13Z</time>
      </trkpt>
      <trkpt lat="44.8643" lon="5.24763">
        <ele>1390.2</ele>
        <time>2024-07-02T12:38:14Z</time>
      </trkpt>
      <trkpt lat="44.86431" lon="5.24762">
        <ele>1390.1</ele>
        <time>2024-07-02T12:38:15Z</time>
      </trkpt>
      <trkpt lat="44.86432" lon="5.24761">
        <ele>1390</ele>
        <time>2024-07-02T12:38:16Z</time>
      </trkpt>
      <trkpt lat="44.86433" lon="5.2476">
        <ele>1389.9</ele>
        <time>2024-07-02T12:38:17Z</time>
      </trkpt>
      <trkpt lat="44.86433" lon="5.24759">
        <ele>1389.8</ele>
        <time>2024-07-02T12:38:18Z</time>
      </trkpt>
      <trkpt lat="44.86434" lon="5.24757">
        <ele>1389.6</ele>
        <time>2024-07-02T12:38:19Z</time>
      </trkpt>
      <trkpt lat="44.86434" lon="5.24756">
        <ele>1389.5</ele>
        <time>2024-07-02T12:38:20Z</time>
      </trkpt>
      <trkpt lat="44.86435" lon="5.24755">
        <ele>1389.4</ele>
        <time>2024-07-02T12:38:21Z</time>
      </trkpt>
      <trkpt lat="44.86436" lon="5.24753">
        <ele>1389.3</ele>
        <time>2024-07-02T12:38:22Z</time>
      </trkpt>
      <trkpt lat="44.86437" lon="5.24751">
        <ele>1389.1</ele>
        <time>2024-07-02T12:38:23Z</time>
      </trkpt>
      <trkpt lat="44.86438" lon="5.2475">
        <ele>1389</ele>
        <time>2024-07-02T12:38:24Z</time>
      </trkpt>
      <trkpt lat="44.86438" lon="5.24749">
        <ele>1388.9</ele>
        <time>2024-07-02T12:38:25Z</time>
      </trkpt>
      <trkpt lat="44.86439" lon="5.24748">
        <ele>1388.8</ele>
        <time>2024-07-02T12:38:26Z</time>
      </trkpt>
      <trkpt lat="44.8644" lon="5.24748">
        <ele>1388.7</ele>
        <time>2024-07-02T12:38:27Z</time>
      </trkpt>
      <trkpt lat="44.86441" lon="5.24747">
        <ele>1388.6</ele>
        <time>2024-07-02T12:38:28Z</time>
      </trkpt>
      <trkpt lat="44.86442" lon="5.24746">
        <ele>1388.5</ele>
        <time>2024-07-02T12:38:29Z</time>
      </trkpt>
      <trkpt lat="44.86443" lon="5.24745">
        <ele>1388.4</ele>
        <time>2024-07-02T12:38:30Z</time>
      </trkpt>
      <trkpt lat="44.86444" lon="5.24744">
        <ele>1388.3</ele>
        <time>2024-07-02T12:38:31Z</time>
      </trkpt>
      <trkpt lat="44.86445" lon="5.24743">
        <ele>1388.2</ele>
        <time>2024-07-02T12:38:32Z</time>
      </trkpt>
      <trkpt lat="44.86447" lon="5.24743">
        <ele>1388.1</ele>
        <time>2024-07-02T12:38:33Z</time>
      </trkpt>
      <trkpt lat="44.86449" lon="5.24741">
        <ele>1387.9</ele>
        <time>2024-07-02T12:38:34Z</time>
      </trkpt>
      <trkpt lat="44.86449" lon="5.2474">
        <ele>1387.9</ele>
        <time>2024-07-02T12:38:35Z</time>
      </trkpt>
      <trkpt lat="44.8645" lon="5.24739">
        <ele>1387.8</ele>
        <time>2024-07-02T12:38:36Z</time>
      </trkpt>
      <trkpt lat="44.86451" lon="5.24738">
        <ele>1387.7</ele>
        <time>2024-07-02T12:38:37Z</time>
      </trkpt>
      <trkpt lat="44.86451" lon="5.24737">
        <ele>1387.6</ele>
        <time>2024-07-02T12:38:38Z</time>
      </trkpt>
      <trkpt lat="44.86452" lon="5.24736">
        <ele>1387.5</ele>
        <time>2024-07-02T12:38:39Z</time>
      </trkpt>
      <trkpt lat="44.86453" lon="5.24735">
        <ele>1387.5</ele>
        <time>2024-07-02T12:38:40Z</time>
      </trkpt>
      <trkpt lat="44.86454" lon="5.24734">
        <ele>1387.4</ele>
        <time>2024-07-02T12:38:41Z</time>
      </trkpt>
      <trkpt lat="44.86454" lon="5.24732">
        <ele>1387.3</ele>
        <time>2024-07-02T12:38:42Z</time>
      </trkpt>
      <trkpt lat="44.86455" lon="5.24731">
        <ele>1387.3</ele>
        <time>2024-07-02T12:38:43Z</time>
      </trkpt>
      <trkpt lat="44.86455" lon="5.2473">
        <ele>1387.2</ele>
        <time>2024-07-02T12:38:44Z</time>
      </trkpt>
      <trkpt lat="44.86455" lon="5.2473">
        <ele>1387.2</ele>
        <time>2024-07-02T12:38:45Z</time>
      </trkpt>
      <trkpt lat="44.86454" lon="5.24731">
        <ele>1387.1</ele>
        <time>2024-07-02T12:38:46Z</time>
      </trkpt>
      <trkpt lat="44.86454" lon="5.2473">
        <ele>1387.1</ele>
        <time>2024-07-02T12:38:47Z</time>
      </trkpt>
      <trkpt lat="44.86455" lon="5.24731">
        <ele>1387.1</ele>
        <time>2024-07-02T12:38:48Z</time>
      </trkpt>
      <trkpt lat="44.86455" lon="5.24731">
        <ele>1387.1</ele>
        <time>2024-07-02T12:38:49Z</time>
      </trkpt>
      <trkpt lat="44.86455" lon="5.24731">
        <ele>1387</ele>
        <time>2024-07-02T12:38:50Z</time>
      </trkpt>
      <trkpt lat="44.86455" lon="5.24732">
        <ele>1387</ele>
        <time>2024-07-02T12:38:51Z</time>
      </trkpt>
      <trkpt lat="44.86455" lon="5.24732">
        <ele>1387</ele>
        <time>2024-07-02T12:38:52Z</time>
      </trkpt>
      <trkpt lat="44.86455" lon="5.24733">
        <ele>1387</ele>
        <time>2024-07-02T12:38:53Z</time>
      </trkpt>
      <trkpt lat="44.86455" lon="5.24732">
        <ele>1387</ele>
        <time>2024-07-02T12:38:54Z</time>
      </trkpt>
      <trkpt lat="44.86455" lon="5.24733">
        <ele>1387</ele>
        <time>2024-07-02T12:38:55Z</time>
      </trkpt>
      <trkpt lat="44.86455" lon="5.24733">
        <ele>1387</ele>
        <time>2024-07-02T12:38:56Z</time>
      </trkpt>
      <trkpt lat="44.86455" lon="5.24733">
        <ele>1387</ele>
        <time>2024-07-02T12:38:57Z</time>
      </trkpt>
      <trkpt lat="44.86455" lon="5.24733">
        <ele>1386.9</ele>
        <time>2024-07-02T12:38:58Z</time>
      </trkpt>
      <trkpt lat="44.86455" lon="5.24733">
        <ele>1386.9</ele>
        <time>2024-07-02T12:38:59Z</time>
      </trkpt>
      <trkpt lat="44.86455" lon="5.24733">
        <ele>1386.9</ele>
        <time>2024-07-02T12:39:00Z</time>
      </trkpt>
      <trkpt lat="44.86455" lon="5.24733">
        <ele>1386.9</ele>
        <time>2024-07-02T12:39:01Z</time>
      </trkpt>
      <trkpt lat="44.86455" lon="5.24733">
        <ele>1386.9</ele>
        <time>2024-07-02T12:39:02Z</time>
      </trkpt>
      <trkpt lat="44.86455" lon="5.24733">
        <ele>1386.9</ele>
        <time>2024-07-02T12:39:03Z</time>
      </trkpt>
      <trkpt lat="44.86455" lon="5.24733">
        <ele>1386.9</ele>
        <time>2024-07-02T12:39:04Z</time>
      </trkpt>
      <trkpt lat="44.86455" lon="5.24734">
        <ele>1386.9</ele>
        <time>2024-07-02T12:39:05Z</time>
      </trkpt>
      <trkpt lat="44.86455" lon="5.24734">
        <ele>1386.9</ele>
        <time>2024-07-02T12:39:06Z</time>
      </trkpt>
      <trkpt lat="44.86455" lon="5.24734">
        <ele>1386.9</ele>
        <time>2024-07-02T12:39:07Z</time>
      </trkpt>
      <trkpt lat="44.86455" lon="5.24734">
        <ele>1386.9</ele>
        <time>2024-07-02T12:39:08Z</time>
      </trkpt>
      <trkpt lat="44.86455" lon="5.24734">
        <ele>1386.9</ele>
        <time>2024-07-02T12:39:09Z</time>
      </trkpt>
      <trkpt lat="44.86455" lon="5.24734">
        <ele>1386.9</ele>
        <time>2024-07-02T12:39:10Z</time>
      </trkpt>
      <trkpt lat="44.86455" lon="5.24734">
        <ele>1386.9</ele>
        <time>2024-07-02T12:39:11Z</time>
      </trkpt>
      <trkpt lat="44.86455" lon="5.24734">
        <ele>1386.9</ele>
        <time>2024-07-02T12:39:12Z</time>
      </trkpt>
      <trkpt lat="44.86455" lon="5.24734">
        <ele>1386.9</ele>
        <time>2024-07-02T12:39:13Z</time>
      </trkpt>
      <trkpt lat="44.86455" lon="5.24734">
        <ele>1386.9</ele>
        <time>2024-07-02T12:39:14Z</time>
      </trkpt>
      <trkpt lat="44.86455" lon="5.24734">
        <ele>1386.9</ele>
        <time>2024-07-02T12:39:15Z</time>
      </trkpt>
      <trkpt lat="44.86455" lon="5.24734">
        <ele>1386.9</ele>
        <time>2024-07-02T12:39:16Z</time>
      </trkpt>
      <trkpt lat="44.86455" lon="5.24734">
        <ele>1386.9</ele>
        <time>2024-07-02T12:39:17Z</time>
      </trkpt>
      <trkpt lat="44.86455" lon="5.24734">
        <ele>1386.9</ele>
        <time>2024-07-02T12:39:18Z</time>
      </trkpt>
      <trkpt lat="44.86455" lon="5.24734">
        <ele>1386.8</ele>
        <time>2024-07-02T12:39:19Z</time>
      </trkpt>
      <trkpt lat="44.86455" lon="5.24734">
        <ele>1386.8</ele>
        <time>2024-07-02T12:39:20Z</time>
      </trkpt>
      <trkpt lat="44.86455" lon="5.24734">
        <ele>1386.8</ele>
        <time>2024-07-02T12:39:21Z</time>
      </trkpt>
      <trkpt lat="44.86455" lon="5.24734">
        <ele>1386.8</ele>
        <time>2024-07-02T12:39:22Z</time>
      </trkpt>
      <trkpt lat="44.86455" lon="5.24734">
        <ele>1386.8</ele>
        <time>2024-07-02T12:39:23Z</time>
      </trkpt>
      <trkpt lat="44.86455" lon="5.24734">
        <ele>1386.8</ele>
        <time>2024-07-02T12:39:24Z</time>
      </trkpt>
      <trkpt lat="44.86455" lon="5.24734">
        <ele>1386.8</ele>
        <time>2024-07-02T12:39:25Z</time>
      </trkpt>
      <trkpt lat="44.86455" lon="5.24734">
        <ele>1386.8</ele>
        <time>2024-07-02T12:39:26Z</time>
      </trkpt>
      <trkpt lat="44.86456" lon="5.24733">
        <ele>1386.8</ele>
        <time>2024-07-02T12:39:27Z</time>
      </trkpt>
      <trkpt lat="44.86456" lon="5.24732">
        <ele>1386.7</ele>
        <time>2024-07-02T12:39:28Z</time>
      </trkpt>
      <trkpt lat="44.86456" lon="5.24733">
        <ele>1386.7</ele>
        <time>2024-07-02T12:39:29Z</time>
      </trkpt>
      <trkpt lat="44.86457" lon="5.24731">
        <ele>1386.6</ele>
        <time>2024-07-02T12:39:30Z</time>
      </trkpt>
      <trkpt lat="44.86458" lon="5.2473">
        <ele>1386.5</ele>
        <time>2024-07-02T12:39:31Z</time>
      </trkpt>
      <trkpt lat="44.86458" lon="5.24729">
        <ele>1386.5</ele>
        <time>2024-07-02T12:39:32Z</time>
      </trkpt>
      <trkpt lat="44.86458" lon="5.24728">
        <ele>1386.4</ele>
        <time>2024-07-02T12:39:33Z</time>
      </trkpt>
      <trkpt lat="44.86459" lon="5.24727">
        <ele>1386.4</ele>
        <time>2024-07-02T12:39:34Z</time>
      </trkpt>
      <trkpt lat="44.86459" lon="5.24726">
        <ele>1386.3</ele>
        <time>2024-07-02T12:39:35Z</time>
      </trkpt>
      <trkpt lat="44.8646" lon="5.24726">
        <ele>1386.3</ele>
        <time>2024-07-02T12:39:36Z</time>
      </trkpt>
      <trkpt lat="44.86461" lon="5.24726">
        <ele>1386.2</ele>
        <time>2024-07-02T12:39:37Z</time>
      </trkpt>
      <trkpt lat="44.86462" lon="5.24725">
        <ele>1386.2</ele>
        <time>2024-07-02T12:39:38Z</time>
      </trkpt>
      <trkpt lat="44.86463" lon="5.24724">
        <ele>1386.1</ele>
        <time>2024-07-02T12:39:39Z</time>
      </trkpt>
      <trkpt lat="44.86464" lon="5.24723">
        <ele>1386</ele>
        <time>2024-07-02T12:39:40Z</time>
      </trkpt>
      <trkpt lat="44.86464" lon="5.24721">
        <ele>1386</ele>
        <time>2024-07-02T12:39:41Z</time>
      </trkpt>
      <trkpt lat="44.86466" lon="5.24719">
        <ele>1385.9</ele>
        <time>2024-07-02T12:39:42Z</time>
      </trkpt>
      <trkpt lat="44.86466" lon="5.24718">
        <ele>1385.9</ele>
        <time>2024-07-02T12:39:43Z</time>
      </trkpt>
      <trkpt lat="44.86466" lon="5.24717">
        <ele>1385.8</ele>
        <time>2024-07-02T12:39:44Z</time>
      </trkpt>
      <trkpt lat="44.86467" lon="5.24716">
        <ele>1385.8</ele>
        <time>2024-07-02T12:39:45Z</time>
      </trkpt>
      <trkpt lat="44.86467" lon="5.24714">
        <ele>1385.8</ele>
        <time>2024-07-02T12:39:46Z</time>
      </trkpt>
      <trkpt lat="44.86468" lon="5.24713">
        <ele>1385.7</ele>
        <time>2024-07-02T12:39:47Z</time>
      </trkpt>
      <trkpt lat="44.86468" lon="5.24711">
        <ele>1385.7</ele>
        <time>2024-07-02T12:39:48Z</time>
      </trkpt>
      <trkpt lat="44.86469" lon="5.2471">
        <ele>1385.7</ele>
        <time>2024-07-02T12:39:49Z</time>
      </trkpt>
      <trkpt lat="44.86469" lon="5.24709">
        <ele>1385.6</ele>
        <time>2024-07-02T12:39:50Z</time>
      </trkpt>
      <trkpt lat="44.8647" lon="5.24706">
        <ele>1385.6</ele>
        <time>2024-07-02T12:39:51Z</time>
      </trkpt>
      <trkpt lat="44.8647" lon="5.24705">
        <ele>1385.6</ele>
        <time>2024-07-02T12:39:52Z</time>
      </trkpt>
      <trkpt lat="44.8647" lon="5.24703">
        <ele>1385.6</ele>
        <time>2024-07-02T12:39:53Z</time>
      </trkpt>
      <trkpt lat="44.86471" lon="5.24702">
        <ele>1385.6</ele>
        <time>2024-07-02T12:39:54Z</time>
      </trkpt>
      <trkpt lat="44.86471" lon="5.24701">
        <ele>1385.6</ele>
        <time>2024-07-02T12:39:55Z</time>
      </trkpt>
      <trkpt lat="44.86472" lon="5.24699">
        <ele>1385.6</ele>
        <time>2024-07-02T12:39:56Z</time>
      </trkpt>
      <trkpt lat="44.86472" lon="5.24697">
        <ele>1385.6</ele>
        <time>2024-07-02T12:39:57Z</time>
      </trkpt>
      <trkpt lat="44.86473" lon="5.24696">
        <ele>1385.6</ele>
        <time>2024-07-02T12:39:58Z</time>
      </trkpt>
      <trkpt lat="44.86473" lon="5.24695">
        <ele>1385.6</ele>
        <time>2024-07-02T12:39:59Z</time>
      </trkpt>
      <trkpt lat="44.86474" lon="5.24693">
        <ele>1385.6</ele>
        <time>2024-07-02T12:40:00Z</time>
      </trkpt>
      <trkpt lat="44.86475" lon="5.24692">
        <ele>1385.6</ele>
        <time>2024-07-02T12:40:01Z</time>
      </trkpt>
      <trkpt lat="44.86475" lon="5.2469">
        <ele>1385.6</ele>
        <time>2024-07-02T12:40:02Z</time>
      </trkpt>
      <trkpt lat="44.86476" lon="5.24688">
        <ele>1385.6</ele>
        <time>2024-07-02T12:40:03Z</time>
      </trkpt>
      <trkpt lat="44.86476" lon="5.24687">
        <ele>1385.6</ele>
        <time>2024-07-02T12:40:04Z</time>
      </trkpt>
      <trkpt lat="44.86477" lon="5.24686">
        <ele>1385.6</ele>
        <time>2024-07-02T12:40:05Z</time>
      </trkpt>
      <trkpt lat="44.86477" lon="5.24684">
        <ele>1385.6</ele>
        <time>2024-07-02T12:40:06Z</time>
      </trkpt>
      <trkpt lat="44.86478" lon="5.24682">
        <ele>1385.6</ele>
        <time>2024-07-02T12:40:07Z</time>
      </trkpt>
      <trkpt lat="44.86478" lon="5.24681">
        <ele>1385.7</ele>
        <time>2024-07-02T12:40:08Z</time>
      </trkpt>
      <trkpt lat="44.86478" lon="5.2468">
        <ele>1385.7</ele>
        <time>2024-07-02T12:40:09Z</time>
      </trkpt>
      <trkpt lat="44.86478" lon="5.24678">
        <ele>1385.7</ele>
        <time>2024-07-02T12:40:10Z</time>
      </trkpt>
      <trkpt lat="44.86478" lon="5.24677">
        <ele>1385.7</ele>
        <time>2024-07-02T12:40:11Z</time>
      </trkpt>
      <trkpt lat="44.8648" lon="5.24676">
        <ele>1385.7</ele>
        <time>2024-07-02T12:40:12Z</time>
      </trkpt>
      <trkpt lat="44.86481" lon="5.24676">
        <ele>1385.7</ele>
        <time>2024-07-02T12:40:13Z</time>
      </trkpt>
      <trkpt lat="44.86482" lon="5.24675">
        <ele>1385.7</ele>
        <time>2024-07-02T12:40:14Z</time>
      </trkpt>
      <trkpt lat="44.86483" lon="5.24674">
        <ele>1385.7</ele>
        <time>2024-07-02T12:40:15Z</time>
      </trkpt>
      <trkpt lat="44.86483" lon="5.24672">
        <ele>1385.8</ele>
        <time>2024-07-02T12:40:16Z</time>
      </trkpt>
      <trkpt lat="44.86484" lon="5.2467">
        <ele>1385.8</ele>
        <time>2024-07-02T12:40:17Z</time>
      </trkpt>
      <trkpt lat="44.86485" lon="5.24668">
        <ele>1385.8</ele>
        <time>2024-07-02T12:40:18Z</time>
      </trkpt>
      <trkpt lat="44.86486" lon="5.24667">
        <ele>1385.8</ele>
        <time>2024-07-02T12:40:19Z</time>
      </trkpt>
      <trkpt lat="44.86486" lon="5.24666">
        <ele>1385.8</ele>
        <time>2024-07-02T12:40:20Z</time>
      </trkpt>
      <trkpt lat="44.86487" lon="5.24665">
        <ele>1385.8</ele>
        <time>2024-07-02T12:40:21Z</time>
      </trkpt>
      <trkpt lat="44.86487" lon="5.24663">
        <ele>1385.8</ele>
        <time>2024-07-02T12:40:22Z</time>
      </trkpt>
      <trkpt lat="44.86488" lon="5.24661">
        <ele>1385.8</ele>
        <time>2024-07-02T12:40:23Z</time>
      </trkpt>
      <trkpt lat="44.86488" lon="5.24661">
        <ele>1385.8</ele>
        <time>2024-07-02T12:40:24Z</time>
      </trkpt>
      <trkpt lat="44.86489" lon="5.24659">
        <ele>1385.7</ele>
        <time>2024-07-02T12:40:25Z</time>
      </trkpt>
      <trkpt lat="44.86489" lon="5.24658">
        <ele>1385.7</ele>
        <time>2024-07-02T12:40:26Z</time>
      </trkpt>
      <trkpt lat="44.8649" lon="5.24656">
        <ele>1385.7</ele>
        <time>2024-07-02T12:40:27Z</time>
      </trkpt>
      <trkpt lat="44.86491" lon="5.24654">
        <ele>1385.6</ele>
        <time>2024-07-02T12:40:28Z</time>
      </trkpt>
      <trkpt lat="44.86491" lon="5.24653">
        <ele>1385.6</ele>
        <time>2024-07-02T12:40:29Z</time>
      </trkpt>
      <trkpt lat="44.86491" lon="5.24652">
        <ele>1385.6</ele>
        <time>2024-07-02T12:40:30Z</time>
      </trkpt>
      <trkpt lat="44.86492" lon="5.2465">
        <ele>1385.5</ele>
        <time>2024-07-02T12:40:31Z</time>
      </trkpt>
      <trkpt lat="44.86493" lon="5.24649">
        <ele>1385.5</ele>
        <time>2024-07-02T12:40:32Z</time>
      </trkpt>
      <trkpt lat="44.86493" lon="5.24646">
        <ele>1385.5</ele>
        <time>2024-07-02T12:40:33Z</time>
      </trkpt>
      <trkpt lat="44.86494" lon="5.24645">
        <ele>1385.4</ele>
        <time>2024-07-02T12:40:34Z</time>
      </trkpt>
      <trkpt lat="44.86494" lon="5.24644">
        <ele>1385.4</ele>
        <time>2024-07-02T12:40:35Z</time>
      </trkpt>
      <trkpt lat="44.86495" lon="5.24642">
        <ele>1385.4</ele>
        <time>2024-07-02T12:40:36Z</time>
      </trkpt>
      <trkpt lat="44.86495" lon="5.24641">
        <ele>1385.3</ele>
        <time>2024-07-02T12:40:37Z</time>
      </trkpt>
      <trkpt lat="44.86496" lon="5.24639">
        <ele>1385.3</ele>
        <time>2024-07-02T12:40:38Z</time>
      </trkpt>
      <trkpt lat="44.86496" lon="5.24638">
        <ele>1385.2</ele>
        <time>2024-07-02T12:40:39Z</time>
      </trkpt>
      <trkpt lat="44.86497" lon="5.24636">
        <ele>1385.2</ele>
        <time>2024-07-02T12:40:40Z</time>
      </trkpt>
      <trkpt lat="44.86496" lon="5.24635">
        <ele>1385.1</ele>
        <time>2024-07-02T12:40:41Z</time>
      </trkpt>
      <trkpt lat="44.86496" lon="5.24634">
        <ele>1385.1</ele>
        <time>2024-07-02T12:40:42Z</time>
      </trkpt>
      <trkpt lat="44.86497" lon="5.24631">
        <ele>1385</ele>
        <time>2024-07-02T12:40:43Z</time>
      </trkpt>
      <trkpt lat="44.86497" lon="5.2463">
        <ele>1385</ele>
        <time>2024-07-02T12:40:44Z</time>
      </trkpt>
      <trkpt lat="44.86498" lon="5.24629">
        <ele>1385</ele>
        <time>2024-07-02T12:40:45Z</time>
      </trkpt>
      <trkpt lat="44.86499" lon="5.24627">
        <ele>1384.9</ele>
        <time>2024-07-02T12:40:46Z</time>
      </trkpt>
      <trkpt lat="44.865" lon="5.24626">
        <ele>1384.9</ele>
        <time>2024-07-02T12:40:47Z</time>
      </trkpt>
      <trkpt lat="44.865" lon="5.24625">
        <ele>1384.8</ele>
        <time>2024-07-02T12:40:48Z</time>
      </trkpt>
      <trkpt lat="44.86501" lon="5.24624">
        <ele>1384.8</ele>
        <time>2024-07-02T12:40:49Z</time>
      </trkpt>
      <trkpt lat="44.86502" lon="5.24623">
        <ele>1384.7</ele>
        <time>2024-07-02T12:40:50Z</time>
      </trkpt>
      <trkpt lat="44.86502" lon="5.24622">
        <ele>1384.7</ele>
        <time>2024-07-02T12:40:51Z</time>
      </trkpt>
      <trkpt lat="44.86503" lon="5.2462">
        <ele>1384.6</ele>
        <time>2024-07-02T12:40:52Z</time>
      </trkpt>
      <trkpt lat="44.86504" lon="5.24618">
        <ele>1384.6</ele>
        <time>2024-07-02T12:40:53Z</time>
      </trkpt>
      <trkpt lat="44.86504" lon="5.24617">
        <ele>1384.5</ele>
        <time>2024-07-02T12:40:54Z</time>
      </trkpt>
      <trkpt lat="44.86504" lon="5.24615">
        <ele>1384.5</ele>
        <time>2024-07-02T12:40:55Z</time>
      </trkpt>
      <trkpt lat="44.86505" lon="5.24613">
        <ele>1384.4</ele>
        <time>2024-07-02T12:40:56Z</time>
      </trkpt>
      <trkpt lat="44.86505" lon="5.24612">
        <ele>1384.4</ele>
        <time>2024-07-02T12:40:57Z</time>
      </trkpt>
      <trkpt lat="44.86506" lon="5.2461">
        <ele>1384.3</ele>
        <time>2024-07-02T12:40:58Z</time>
      </trkpt>
      <trkpt lat="44.86506" lon="5.24609">
        <ele>1384.2</ele>
        <time>2024-07-02T12:40:59Z</time>
      </trkpt>
      <trkpt lat="44.86506" lon="5.24608">
        <ele>1384.2</ele>
        <time>2024-07-02T12:41:00Z</time>
      </trkpt>
      <trkpt lat="44.86507" lon="5.24606">
        <ele>1384.1</ele>
        <time>2024-07-02T12:41:01Z</time>
      </trkpt>
      <trkpt lat="44.86507" lon="5.24605">
        <ele>1384.1</ele>
        <time>2024-07-02T12:41:02Z</time>
      </trkpt>
      <trkpt lat="44.86508" lon="5.24602">
        <ele>1384</ele>
        <time>2024-07-02T12:41:03Z</time>
      </trkpt>
      <trkpt lat="44.86508" lon="5.24602">
        <ele>1383.9</ele>
        <time>2024-07-02T12:41:04Z</time>
      </trkpt>
      <trkpt lat="44.86508" lon="5.246">
        <ele>1383.9</ele>
        <time>2024-07-02T12:41:05Z</time>
      </trkpt>
      <trkpt lat="44.86508" lon="5.24599">
        <ele>1383.8</ele>
        <time>2024-07-02T12:41:06Z</time>
      </trkpt>
      <trkpt lat="44.86509" lon="5.24597">
        <ele>1383.7</ele>
        <time>2024-07-02T12:41:07Z</time>
      </trkpt>
      <trkpt lat="44.8651" lon="5.24596">
        <ele>1383.6</ele>
        <time>2024-07-02T12:41:08Z</time>
      </trkpt>
      <trkpt lat="44.86511" lon="5.24595">
        <ele>1383.6</ele>
        <time>2024-07-02T12:41:09Z</time>
      </trkpt>
      <trkpt lat="44.86511" lon="5.24594">
        <ele>1383.5</ele>
        <time>2024-07-02T12:41:10Z</time>
      </trkpt>
      <trkpt lat="44.86512" lon="5.24592">
        <ele>1383.4</ele>
        <time>2024-07-02T12:41:11Z</time>
      </trkpt>
      <trkpt lat="44.86512" lon="5.24591">
        <ele>1383.4</ele>
        <time>2024-07-02T12:41:12Z</time>
      </trkpt>
      <trkpt lat="44.86513" lon="5.24589">
        <ele>1383.3</ele>
        <time>2024-07-02T12:41:13Z</time>
      </trkpt>
      <trkpt lat="44.86513" lon="5.24588">
        <ele>1383.2</ele>
        <time>2024-07-02T12:41:14Z</time>
      </trkpt>
      <trkpt lat="44.86514" lon="5.24586">
        <ele>1383.1</ele>
        <time>2024-07-02T12:41:15Z</time>
      </trkpt>
      <trkpt lat="44.86514" lon="5.24585">
        <ele>1383</ele>
        <time>2024-07-02T12:41:16Z</time>
      </trkpt>
      <trkpt lat="44.86515" lon="5.24583">
        <ele>1383</ele>
        <time>2024-07-02T12:41:17Z</time>
      </trkpt>
      <trkpt lat="44.86515" lon="5.24582">
        <ele>1382.9</ele>
        <time>2024-07-02T12:41:18Z</time>
      </trkpt>
      <trkpt lat="44.86515" lon="5.24581">
        <ele>1382.8</ele>
        <time>2024-07-02T12:41:19Z</time>
      </trkpt>
      <trkpt lat="44.86516" lon="5.24578">
        <ele>1382.7</ele>
        <time>2024-07-02T12:41:20Z</time>
      </trkpt>
      <trkpt lat="44.86517" lon="5.24577">
        <ele>1382.6</ele>
        <time>2024-07-02T12:41:21Z</time>
      </trkpt>
      <trkpt lat="44.86517" lon="5.24576">
        <ele>1382.5</ele>
        <time>2024-07-02T12:41:22Z</time>
      </trkpt>
      <trkpt lat="44.86518" lon="5.24574">
        <ele>1382.4</ele>
        <time>2024-07-02T12:41:23Z</time>
      </trkpt>
      <trkpt lat="44.86518" lon="5.24573">
        <ele>1382.4</ele>
        <time>2024-07-02T12:41:24Z</time>
      </trkpt>
      <trkpt lat="44.86519" lon="5.24572">
        <ele>1382.3</ele>
        <time>2024-07-02T12:41:25Z</time>
      </trkpt>
      <trkpt lat="44.8652" lon="5.24571">
        <ele>1382.2</ele>
        <time>2024-07-02T12:41:26Z</time>
      </trkpt>
      <trkpt lat="44.8652" lon="5.2457">
        <ele>1382.1</ele>
        <time>2024-07-02T12:41:27Z</time>
      </trkpt>
      <trkpt lat="44.86521" lon="5.24568">
        <ele>1382</ele>
        <time>2024-07-02T12:41:28Z</time>
      </trkpt>
      <trkpt lat="44.86522" lon="5.24566">
        <ele>1381.9</ele>
        <time>2024-07-02T12:41:29Z</time>
      </trkpt>
      <trkpt lat="44.86522" lon="5.24565">
        <ele>1381.8</ele>
        <time>2024-07-02T12:41:30Z</time>
      </trkpt>
      <trkpt lat="44.86523" lon="5.24564">
        <ele>1381.7</ele>
        <time>2024-07-02T12:41:31Z</time>
      </trkpt>
      <trkpt lat="44.86523" lon="5.24561">
        <ele>1381.6</ele>
        <time>2024-07-02T12:41:32Z</time>
      </trkpt>
      <trkpt lat="44.86524" lon="5.2456">
        <ele>1381.5</ele>
        <time>2024-07-02T12:41:33Z</time>
      </trkpt>
      <trkpt lat="44.86524" lon="5.24559">
        <ele>1381.4</ele>
        <time>2024-07-02T12:41:34Z</time>
      </trkpt>
      <trkpt lat="44.86525" lon="5.24558">
        <ele>1381.3</ele>
        <time>2024-07-02T12:41:35Z</time>
      </trkpt>
      <trkpt lat="44.86526" lon="5.24556">
        <ele>1381.2</ele>
        <time>2024-07-02T12:41:36Z</time>
      </trkpt>
      <trkpt lat="44.86527" lon="5.24555">
        <ele>1381.1</ele>
        <time>2024-07-02T12:41:37Z</time>
      </trkpt>
      <trkpt lat="44.86527" lon="5.24554">
        <ele>1381</ele>
        <time>2024-07-02T12:41:38Z</time>
      </trkpt>
      <trkpt lat="44.86528" lon="5.24552">
        <ele>1380.9</ele>
        <time>2024-07-02T12:41:39Z</time>
      </trkpt>
      <trkpt lat="44.86529" lon="5.24551">
        <ele>1380.8</ele>
        <time>2024-07-02T12:41:40Z</time>
      </trkpt>
      <trkpt lat="44.86529" lon="5.2455">
        <ele>1380.7</ele>
        <time>2024-07-02T12:41:41Z</time>
      </trkpt>
      <trkpt lat="44.86529" lon="5.24548">
        <ele>1380.6</ele>
        <time>2024-07-02T12:41:42Z</time>
      </trkpt>
      <trkpt lat="44.86529" lon="5.24547">
        <ele>1380.6</ele>
        <time>2024-07-02T12:41:43Z</time>
      </trkpt>
      <trkpt lat="44.8653" lon="5.24544">
        <ele>1380.4</ele>
        <time>2024-07-02T12:41:44Z</time>
      </trkpt>
      <trkpt lat="44.86531" lon="5.24543">
        <ele>1380.3</ele>
        <time>2024-07-02T12:41:45Z</time>
      </trkpt>
      <trkpt lat="44.86531" lon="5.24543">
        <ele>1380.3</ele>
        <time>2024-07-02T12:41:46Z</time>
      </trkpt>
      <trkpt lat="44.86533" lon="5.24542">
        <ele>1380.1</ele>
        <time>2024-07-02T12:41:47Z</time>
      </trkpt>
      <trkpt lat="44.86534" lon="5.24541">
        <ele>1380</ele>
        <time>2024-07-02T12:41:48Z</time>
      </trkpt>
      <trkpt lat="44.86536" lon="5.24539">
        <ele>1379.8</ele>
        <time>2024-07-02T12:41:49Z</time>
      </trkpt>
      <trkpt lat="44.86536" lon="5.24538">
        <ele>1379.8</ele>
        <time>2024-07-02T12:41:50Z</time>
      </trkpt>
      <trkpt lat="44.86537" lon="5.24537">
        <ele>1379.7</ele>
        <time>2024-07-02T12:41:51Z</time>
      </trkpt>
      <trkpt lat="44.86537" lon="5.24536">
        <ele>1379.6</ele>
        <time>2024-07-02T12:41:52Z</time>
      </trkpt>
      <trkpt lat="44.86538" lon="5.24534">
        <ele>1379.5</ele>
        <time>2024-07-02T12:41:53Z</time>
      </trkpt>
      <trkpt lat="44.86539" lon="5.24533">
        <ele>1379.4</ele>
        <time>2024-07-02T12:41:54Z</time>
      </trkpt>
      <trkpt lat="44.8654" lon="5.24532">
        <ele>1379.3</ele>
        <time>2024-07-02T12:41:55Z</time>
      </trkpt>
      <trkpt lat="44.8654" lon="5.2453">
        <ele>1379.2</ele>
        <time>2024-07-02T12:41:56Z</time>
      </trkpt>
      <trkpt lat="44.86541" lon="5.24529">
        <ele>1379.2</ele>
        <time>2024-07-02T12:41:57Z</time>
      </trkpt>
      <trkpt lat="44.86542" lon="5.24528">
        <ele>1379.1</ele>
        <time>2024-07-02T12:41:58Z</time>
      </trkpt>
      <trkpt lat="44.86542" lon="5.24527">
        <ele>1379</ele>
        <time>2024-07-02T12:41:59Z</time>
      </trkpt>
      <trkpt lat="44.86543" lon="5.24524">
        <ele>1378.8</ele>
        <time>2024-07-02T12:42:00Z</time>
      </trkpt>
      <trkpt lat="44.86544" lon="5.24523">
        <ele>1378.8</ele>
        <time>2024-07-02T12:42:01Z</time>
      </trkpt>
      <trkpt lat="44.86544" lon="5.24522">
        <ele>1378.7</ele>
        <time>2024-07-02T12:42:02Z</time>
      </trkpt>
      <trkpt lat="44.86545" lon="5.24521">
        <ele>1378.6</ele>
        <time>2024-07-02T12:42:03Z</time>
      </trkpt>
      <trkpt lat="44.86546" lon="5.24519">
        <ele>1378.5</ele>
        <time>2024-07-02T12:42:04Z</time>
      </trkpt>
      <trkpt lat="44.86547" lon="5.24516">
        <ele>1378.4</ele>
        <time>2024-07-02T12:42:05Z</time>
      </trkpt>
      <trkpt lat="44.86547" lon="5.24515">
        <ele>1378.3</ele>
        <time>2024-07-02T12:42:06Z</time>
      </trkpt>
      <trkpt lat="44.86547" lon="5.24514">
        <ele>1378.3</ele>
        <time>2024-07-02T12:42:07Z</time>
      </trkpt>
      <trkpt lat="44.86548" lon="5.24513">
        <ele>1378.2</ele>
        <time>2024-07-02T12:42:08Z</time>
      </trkpt>
      <trkpt lat="44.86548" lon="5.24511">
        <ele>1378.2</ele>
        <time>2024-07-02T12:42:09Z</time>
      </trkpt>
      <trkpt lat="44.86548" lon="5.2451">
        <ele>1378.1</ele>
        <time>2024-07-02T12:42:10Z</time>
      </trkpt>
      <trkpt lat="44.86549" lon="5.24508">
        <ele>1378.1</ele>
        <time>2024-07-02T12:42:11Z</time>
      </trkpt>
      <trkpt lat="44.86549" lon="5.24507">
        <ele>1378</ele>
        <time>2024-07-02T12:42:12Z</time>
      </trkpt>
      <trkpt lat="44.86549" lon="5.24505">
        <ele>1377.9</ele>
        <time>2024-07-02T12:42:13Z</time>
      </trkpt>
      <trkpt lat="44.8655" lon="5.24503">
        <ele>1377.9</ele>
        <time>2024-07-02T12:42:14Z</time>
      </trkpt>
      <trkpt lat="44.8655" lon="5.24502">
        <ele>1377.8</ele>
        <time>2024-07-02T12:42:15Z</time>
      </trkpt>
      <trkpt lat="44.8655" lon="5.24501">
        <ele>1377.8</ele>
        <time>2024-07-02T12:42:16Z</time>
      </trkpt>
      <trkpt lat="44.8655" lon="5.245">
        <ele>1377.7</ele>
        <time>2024-07-02T12:42:17Z</time>
      </trkpt>
      <trkpt lat="44.86551" lon="5.24499">
        <ele>1377.7</ele>
        <time>2024-07-02T12:42:18Z</time>
      </trkpt>
      <trkpt lat="44.86551" lon="5.24497">
        <ele>1377.7</ele>
        <time>2024-07-02T12:42:19Z</time>
      </trkpt>
      <trkpt lat="44.86552" lon="5.24495">
        <ele>1377.6</ele>
        <time>2024-07-02T12:42:20Z</time>
      </trkpt>
      <trkpt lat="44.86553" lon="5.24494">
        <ele>1377.5</ele>
        <time>2024-07-02T12:42:21Z</time>
      </trkpt>
      <trkpt lat="44.86554" lon="5.24493">
        <ele>1377.5</ele>
        <time>2024-07-02T12:42:22Z</time>
      </trkpt>
      <trkpt lat="44.86554" lon="5.24492">
        <ele>1377.5</ele>
        <time>2024-07-02T12:42:23Z</time>
      </trkpt>
      <trkpt lat="44.86555" lon="5.24491">
        <ele>1377.4</ele>
        <time>2024-07-02T12:42:24Z</time>
      </trkpt>
      <trkpt lat="44.86555" lon="5.2449">
        <ele>1377.4</ele>
        <time>2024-07-02T12:42:25Z</time>
      </trkpt>
      <trkpt lat="44.86556" lon="5.24488">
        <ele>1377.3</ele>
        <time>2024-07-02T12:42:26Z</time>
      </trkpt>
      <trkpt lat="44.86557" lon="5.24487">
        <ele>1377.3</ele>
        <time>2024-07-02T12:42:27Z</time>
      </trkpt>
      <trkpt lat="44.86558" lon="5.24486">
        <ele>1377.3</ele>
        <time>2024-07-02T12:42:28Z</time>
      </trkpt>
      <trkpt lat="44.86558" lon="5.24483">
        <ele>1377.2</ele>
        <time>2024-07-02T12:42:29Z</time>
      </trkpt>
      <trkpt lat="44.86559" lon="5.24482">
        <ele>1377.2</ele>
        <time>2024-07-02T12:42:30Z</time>
      </trkpt>
      <trkpt lat="44.86559" lon="5.24481">
        <ele>1377.1</ele>
        <time>2024-07-02T12:42:31Z</time>
      </trkpt>
      <trkpt lat="44.8656" lon="5.24479">
        <ele>1377.1</ele>
        <time>2024-07-02T12:42:32Z</time>
      </trkpt>
      <trkpt lat="44.86561" lon="5.24478">
        <ele>1377</ele>
        <time>2024-07-02T12:42:33Z</time>
      </trkpt>
      <trkpt lat="44.86561" lon="5.24477">
        <ele>1377</ele>
        <time>2024-07-02T12:42:34Z</time>
      </trkpt>
      <trkpt lat="44.86562" lon="5.24474">
        <ele>1376.9</ele>
        <time>2024-07-02T12:42:35Z</time>
      </trkpt>
      <trkpt lat="44.86563" lon="5.24473">
        <ele>1376.9</ele>
        <time>2024-07-02T12:42:36Z</time>
      </trkpt>
      <trkpt lat="44.86563" lon="5.24472">
        <ele>1376.9</ele>
        <time>2024-07-02T12:42:37Z</time>
      </trkpt>
      <trkpt lat="44.86563" lon="5.24471">
        <ele>1376.8</ele>
        <time>2024-07-02T12:42:38Z</time>
      </trkpt>
      <trkpt lat="44.86564" lon="5.2447">
        <ele>1376.8</ele>
        <time>2024-07-02T12:42:39Z</time>
      </trkpt>
      <trkpt lat="44.86565" lon="5.24468">
        <ele>1376.7</ele>
        <time>2024-07-02T12:42:40Z</time>
      </trkpt>
      <trkpt lat="44.86565" lon="5.24467">
        <ele>1376.7</ele>
        <time>2024-07-02T12:42:41Z</time>
      </trkpt>
      <trkpt lat="44.86566" lon="5.24466">
        <ele>1376.6</ele>
        <time>2024-07-02T12:42:42Z</time>
      </trkpt>
      <trkpt lat="44.86567" lon="5.24464">
        <ele>1376.6</ele>
        <time>2024-07-02T12:42:43Z</time>
      </trkpt>
      <trkpt lat="44.86567" lon="5.24463">
        <ele>1376.6</ele>
        <time>2024-07-02T12:42:44Z</time>
      </trkpt>
      <trkpt lat="44.86568" lon="5.24461">
        <ele>1376.5</ele>
        <time>2024-07-02T12:42:45Z</time>
      </trkpt>
      <trkpt lat="44.86568" lon="5.2446">
        <ele>1376.5</ele>
        <time>2024-07-02T12:42:46Z</time>
      </trkpt>
      <trkpt lat="44.86569" lon="5.24458">
        <ele>1376.4</ele>
        <time>2024-07-02T12:42:47Z</time>
      </trkpt>
      <trkpt lat="44.86569" lon="5.24457">
        <ele>1376.4</ele>
        <time>2024-07-02T12:42:48Z</time>
      </trkpt>
      <trkpt lat="44.8657" lon="5.24456">
        <ele>1376.3</ele>
        <time>2024-07-02T12:42:49Z</time>
      </trkpt>
      <trkpt lat="44.8657" lon="5.24454">
        <ele>1376.2</ele>
        <time>2024-07-02T12:42:50Z</time>
      </trkpt>
      <trkpt lat="44.86571" lon="5.24453">
        <ele>1376.2</ele>
        <time>2024-07-02T12:42:51Z</time>
      </trkpt>
      <trkpt lat="44.86572" lon="5.24452">
        <ele>1376.1</ele>
        <time>2024-07-02T12:42:52Z</time>
      </trkpt>
      <trkpt lat="44.86572" lon="5.24451">
        <ele>1376.1</ele>
        <time>2024-07-02T12:42:53Z</time>
      </trkpt>
      <trkpt lat="44.86573" lon="5.24449">
        <ele>1376</ele>
        <time>2024-07-02T12:42:54Z</time>
      </trkpt>
      <trkpt lat="44.86573" lon="5.24448">
        <ele>1376</ele>
        <time>2024-07-02T12:42:55Z</time>
      </trkpt>
      <trkpt lat="44.86574" lon="5.24447">
        <ele>1375.9</ele>
        <time>2024-07-02T12:42:56Z</time>
      </trkpt>
      <trkpt lat="44.86574" lon="5.24447">
        <ele>1375.9</ele>
        <time>2024-07-02T12:42:57Z</time>
      </trkpt>
      <trkpt lat="44.86574" lon="5.24447">
        <ele>1375.9</ele>
        <time>2024-07-02T12:42:58Z</time>
      </trkpt>
      <trkpt lat="44.86574" lon="5.24447">
        <ele>1375.9</ele>
        <time>2024-07-02T12:42:59Z</time>
      </trkpt>
      <trkpt lat="44.86574" lon="5.24447">
        <ele>1375.9</ele>
        <time>2024-07-02T12:43:00Z</time>
      </trkpt>
      <trkpt lat="44.86574" lon="5.24447">
        <ele>1375.8</ele>
        <time>2024-07-02T12:43:01Z</time>
      </trkpt>
      <trkpt lat="44.86574" lon="5.24447">
        <ele>1375.8</ele>
        <time>2024-07-02T12:43:02Z</time>
      </trkpt>
      <trkpt lat="44.86574" lon="5.24447">
        <ele>1375.8</ele>
        <time>2024-07-02T12:43:03Z</time>
      </trkpt>
      <trkpt lat="44.86573" lon="5.24447">
        <ele>1375.8</ele>
        <time>2024-07-02T12:43:04Z</time>
      </trkpt>
      <trkpt lat="44.86573" lon="5.24447">
        <ele>1375.8</ele>
        <time>2024-07-02T12:43:05Z</time>
      </trkpt>
      <trkpt lat="44.86573" lon="5.24447">
        <ele>1375.8</ele>
        <time>2024-07-02T12:43:06Z</time>
      </trkpt>
      <trkpt lat="44.86573" lon="5.24447">
        <ele>1375.8</ele>
        <time>2024-07-02T12:43:07Z</time>
      </trkpt>
      <trkpt lat="44.86573" lon="5.24447">
        <ele>1375.8</ele>
        <time>2024-07-02T12:43:08Z</time>
      </trkpt>
      <trkpt lat="44.86573" lon="5.24447">
        <ele>1375.8</ele>
        <time>2024-07-02T12:43:09Z</time>
      </trkpt>
      <trkpt lat="44.86573" lon="5.24447">
        <ele>1375.8</ele>
        <time>2024-07-02T12:43:10Z</time>
      </trkpt>
      <trkpt lat="44.86573" lon="5.24448">
        <ele>1375.7</ele>
        <time>2024-07-02T12:43:11Z</time>
      </trkpt>
      <trkpt lat="44.86573" lon="5.24448">
        <ele>1375.7</ele>
        <time>2024-07-02T12:43:12Z</time>
      </trkpt>
      <trkpt lat="44.86573" lon="5.24448">
        <ele>1375.7</ele>
        <time>2024-07-02T12:43:13Z</time>
      </trkpt>
      <trkpt lat="44.86573" lon="5.24448">
        <ele>1375.7</ele>
        <time>2024-07-02T12:43:14Z</time>
      </trkpt>
      <trkpt lat="44.86573" lon="5.24448">
        <ele>1375.7</ele>
        <time>2024-07-02T12:43:15Z</time>
      </trkpt>
      <trkpt lat="44.86573" lon="5.24447">
        <ele>1375.7</ele>
        <time>2024-07-02T12:43:16Z</time>
      </trkpt>
      <trkpt lat="44.86573" lon="5.24447">
        <ele>1375.7</ele>
        <time>2024-07-02T12:43:17Z</time>
      </trkpt>
      <trkpt lat="44.86574" lon="5.24445">
        <ele>1375.6</ele>
        <time>2024-07-02T12:43:18Z</time>
      </trkpt>
      <trkpt lat="44.86574" lon="5.24444">
        <ele>1375.6</ele>
        <time>2024-07-02T12:43:19Z</time>
      </trkpt>
      <trkpt lat="44.86575" lon="5.24443">
        <ele>1375.5</ele>
        <time>2024-07-02T12:43:20Z</time>
      </trkpt>
      <trkpt lat="44.86575" lon="5.24441">
        <ele>1375.5</ele>
        <time>2024-07-02T12:43:21Z</time>
      </trkpt>
      <trkpt lat="44.86576" lon="5.2444">
        <ele>1375.4</ele>
        <time>2024-07-02T12:43:22Z</time>
      </trkpt>
      <trkpt lat="44.86576" lon="5.24438">
        <ele>1375.3</ele>
        <time>2024-07-02T12:43:23Z</time>
      </trkpt>
      <trkpt lat="44.86577" lon="5.24437">
        <ele>1375.3</ele>
        <time>2024-07-02T12:43:24Z</time>
      </trkpt>
      <trkpt lat="44.86577" lon="5.24436">
        <ele>1375.2</ele>
        <time>2024-07-02T12:43:25Z</time>
      </trkpt>
      <trkpt lat="44.86579" lon="5.24433">
        <ele>1375.1</ele>
        <time>2024-07-02T12:43:26Z</time>
      </trkpt>
      <trkpt lat="44.86579" lon="5.24432">
        <ele>1375</ele>
        <time>2024-07-02T12:43:27Z</time>
      </trkpt>
      <trkpt lat="44.86579" lon="5.24431">
        <ele>1375</ele>
        <time>2024-07-02T12:43:28Z</time>
      </trkpt>
      <trkpt lat="44.8658" lon="5.2443">
        <ele>1375.1</ele>
        <time>2024-07-02T12:43:29Z</time>
      </trkpt>
      <trkpt lat="44.86581" lon="5.24429">
        <ele>1375.1</ele>
        <time>2024-07-02T12:43:30Z</time>
      </trkpt>
      <trkpt lat="44.86581" lon="5.24428">
        <ele>1375.1</ele>
        <time>2024-07-02T12:43:31Z</time>
      </trkpt>
      <trkpt lat="44.86582" lon="5.24427">
        <ele>1375.2</ele>
        <time>2024-07-02T12:43:32Z</time>
      </trkpt>
      <trkpt lat="44.86582" lon="5.24427">
        <ele>1375.2</ele>
        <time>2024-07-02T12:43:33Z</time>
      </trkpt>
      <trkpt lat="44.86583" lon="5.24426">
        <ele>1375.2</ele>
        <time>2024-07-02T12:43:34Z</time>
      </trkpt>
      <trkpt lat="44.86582" lon="5.24427">
        <ele>1375.2</ele>
        <time>2024-07-02T12:43:35Z</time>
      </trkpt>
      <trkpt lat="44.86582" lon="5.24427">
        <ele>1375.2</ele>
        <time>2024-07-02T12:43:36Z</time>
      </trkpt>
      <trkpt lat="44.86582" lon="5.24427">
        <ele>1375.2</ele>
        <time>2024-07-02T12:43:37Z</time>
      </trkpt>
      <trkpt lat="44.86582" lon="5.24428">
        <ele>1375.3</ele>
        <time>2024-07-02T12:43:38Z</time>
      </trkpt>
      <trkpt lat="44.86582" lon="5.24428">
        <ele>1375.3</ele>
        <time>2024-07-02T12:43:39Z</time>
      </trkpt>
      <trkpt lat="44.86582" lon="5.24428">
        <ele>1375.3</ele>
        <time>2024-07-02T12:43:40Z</time>
      </trkpt>
      <trkpt lat="44.86582" lon="5.24429">
        <ele>1375.3</ele>
        <time>2024-07-02T12:43:41Z</time>
      </trkpt>
      <trkpt lat="44.86582" lon="5.24429">
        <ele>1375.3</ele>
        <time>2024-07-02T12:43:42Z</time>
      </trkpt>
      <trkpt lat="44.86582" lon="5.24429">
        <ele>1375.3</ele>
        <time>2024-07-02T12:43:43Z</time>
      </trkpt>
      <trkpt lat="44.86582" lon="5.24429">
        <ele>1375.3</ele>
        <time>2024-07-02T12:43:44Z</time>
      </trkpt>
      <trkpt lat="44.86582" lon="5.24429">
        <ele>1375.3</ele>
        <time>2024-07-02T12:43:45Z</time>
      </trkpt>
      <trkpt lat="44.86582" lon="5.24429">
        <ele>1375.3</ele>
        <time>2024-07-02T12:43:46Z</time>
      </trkpt>
      <trkpt lat="44.86582" lon="5.24429">
        <ele>1375.3</ele>
        <time>2024-07-02T12:43:47Z</time>
      </trkpt>
      <trkpt lat="44.86582" lon="5.24429">
        <ele>1375.3</ele>
        <time>2024-07-02T12:43:48Z</time>
      </trkpt>
      <trkpt lat="44.86582" lon="5.24429">
        <ele>1375.3</ele>
        <time>2024-07-02T12:43:49Z</time>
      </trkpt>
      <trkpt lat="44.86582" lon="5.24429">
        <ele>1375.3</ele>
        <time>2024-07-02T12:43:50Z</time>
      </trkpt>
      <trkpt lat="44.86582" lon="5.24429">
        <ele>1375.3</ele>
        <time>2024-07-02T12:43:51Z</time>
      </trkpt>
      <trkpt lat="44.86582" lon="5.24429">
        <ele>1375.3</ele>
        <time>2024-07-02T12:43:52Z</time>
      </trkpt>
      <trkpt lat="44.86582" lon="5.24429">
        <ele>1375.3</ele>
        <time>2024-07-02T12:43:53Z</time>
      </trkpt>
      <trkpt lat="44.86582" lon="5.24429">
        <ele>1375.3</ele>
        <time>2024-07-02T12:43:54Z</time>
      </trkpt>
      <trkpt lat="44.86582" lon="5.24429">
        <ele>1375.3</ele>
        <time>2024-07-02T12:43:55Z</time>
      </trkpt>
      <trkpt lat="44.86582" lon="5.24429">
        <ele>1375.3</ele>
        <time>2024-07-02T12:43:56Z</time>
      </trkpt>
      <trkpt lat="44.86582" lon="5.24429">
        <ele>1375.3</ele>
        <time>2024-07-02T12:43:57Z</time>
      </trkpt>
      <trkpt lat="44.86582" lon="5.24429">
        <ele>1375.3</ele>
        <time>2024-07-02T12:43:58Z</time>
      </trkpt>
      <trkpt lat="44.86582" lon="5.24429">
        <ele>1375.3</ele>
        <time>2024-07-02T12:43:59Z</time>
      </trkpt>
      <trkpt lat="44.86582" lon="5.24429">
        <ele>1375.3</ele>
        <time>2024-07-02T12:44:00Z</time>
      </trkpt>
      <trkpt lat="44.86582" lon="5.24429">
        <ele>1375.3</ele>
        <time>2024-07-02T12:44:01Z</time>
      </trkpt>
      <trkpt lat="44.86582" lon="5.24429">
        <ele>1375.3</ele>
        <time>2024-07-02T12:44:02Z</time>
      </trkpt>
      <trkpt lat="44.86582" lon="5.24429">
        <ele>1375.3</ele>
        <time>2024-07-02T12:44:03Z</time>
      </trkpt>
      <trkpt lat="44.86582" lon="5.24429">
        <ele>1375.3</ele>
        <time>2024-07-02T12:44:04Z</time>
      </trkpt>
      <trkpt lat="44.86582" lon="5.24429">
        <ele>1375.3</ele>
        <time>2024-07-02T12:44:05Z</time>
      </trkpt>
      <trkpt lat="44.86582" lon="5.24429">
        <ele>1375.3</ele>
        <time>2024-07-02T12:44:06Z</time>
      </trkpt>
      <trkpt lat="44.86582" lon="5.24429">
        <ele>1375.3</ele>
        <time>2024-07-02T12:44:07Z</time>
      </trkpt>
      <trkpt lat="44.86582" lon="5.24429">
        <ele>1375.3</ele>
        <time>2024-07-02T12:44:08Z</time>
      </trkpt>
      <trkpt lat="44.86582" lon="5.24429">
        <ele>1375.3</ele>
        <time>2024-07-02T12:44:09Z</time>
      </trkpt>
      <trkpt lat="44.86582" lon="5.24429">
        <ele>1375.3</ele>
        <time>2024-07-02T12:44:10Z</time>
      </trkpt>
      <trkpt lat="44.86582" lon="5.24429">
        <ele>1375.3</ele>
        <time>2024-07-02T12:44:11Z</time>
      </trkpt>
      <trkpt lat="44.86581" lon="5.24428">
        <ele>1375.4</ele>
        <time>2024-07-02T12:44:12Z</time>
      </trkpt>
      <trkpt lat="44.86581" lon="5.24427">
        <ele>1375.4</ele>
        <time>2024-07-02T12:44:13Z</time>
      </trkpt>
      <trkpt lat="44.86581" lon="5.24426">
        <ele>1375.5</ele>
        <time>2024-07-02T12:44:14Z</time>
      </trkpt>
      <trkpt lat="44.86581" lon="5.24424">
        <ele>1375.5</ele>
        <time>2024-07-02T12:44:15Z</time>
      </trkpt>
      <trkpt lat="44.86582" lon="5.24423">
        <ele>1375.6</ele>
        <time>2024-07-02T12:44:16Z</time>
      </trkpt>
      <trkpt lat="44.86583" lon="5.24423">
        <ele>1375.6</ele>
        <time>2024-07-02T12:44:17Z</time>
      </trkpt>
      <trkpt lat="44.86583" lon="5.24422">
        <ele>1375.7</ele>
        <time>2024-07-02T12:44:18Z</time>
      </trkpt>
      <trkpt lat="44.86584" lon="5.24422">
        <ele>1375.7</ele>
        <time>2024-07-02T12:44:19Z</time>
      </trkpt>
      <trkpt lat="44.86584" lon="5.24422">
        <ele>1375.7</ele>
        <time>2024-07-02T12:44:20Z</time>
      </trkpt>
      <trkpt lat="44.86585" lon="5.24421">
        <ele>1375.8</ele>
        <time>2024-07-02T12:44:21Z</time>
      </trkpt>
      <trkpt lat="44.86585" lon="5.2442">
        <ele>1375.8</ele>
        <time>2024-07-02T12:44:22Z</time>
      </trkpt>
      <trkpt lat="44.86586" lon="5.24419">
        <ele>1375.9</ele>
        <time>2024-07-02T12:44:23Z</time>
      </trkpt>
      <trkpt lat="44.86586" lon="5.24418">
        <ele>1376</ele>
        <time>2024-07-02T12:44:24Z</time>
      </trkpt>
      <trkpt lat="44.86587" lon="5.24416">
        <ele>1376</ele>
        <time>2024-07-02T12:44:25Z</time>
      </trkpt>
      <trkpt lat="44.86588" lon="5.24415">
        <ele>1376.1</ele>
        <time>2024-07-02T12:44:26Z</time>
      </trkpt>
      <trkpt lat="44.86589" lon="5.24414">
        <ele>1376.2</ele>
        <time>2024-07-02T12:44:27Z</time>
      </trkpt>
      <trkpt lat="44.8659" lon="5.24414">
        <ele>1376.2</ele>
        <time>2024-07-02T12:44:28Z</time>
      </trkpt>
      <trkpt lat="44.86591" lon="5.24413">
        <ele>1376.3</ele>
        <time>2024-07-02T12:44:29Z</time>
      </trkpt>
      <trkpt lat="44.86591" lon="5.24412">
        <ele>1376.3</ele>
        <time>2024-07-02T12:44:30Z</time>
      </trkpt>
      <trkpt lat="44.86593" lon="5.24411">
        <ele>1376.4</ele>
        <time>2024-07-02T12:44:31Z</time>
      </trkpt>
      <trkpt lat="44.86593" lon="5.2441">
        <ele>1376.4</ele>
        <time>2024-07-02T12:44:32Z</time>
      </trkpt>
      <trkpt lat="44.86594" lon="5.24409">
        <ele>1376.4</ele>
        <time>2024-07-02T12:44:33Z</time>
      </trkpt>
      <trkpt lat="44.86594" lon="5.24409">
        <ele>1376.4</ele>
        <time>2024-07-02T12:44:34Z</time>
      </trkpt>
      <trkpt lat="44.86595" lon="5.24407">
        <ele>1376.5</ele>
        <time>2024-07-02T12:44:35Z</time>
      </trkpt>
      <trkpt lat="44.86595" lon="5.24406">
        <ele>1376.5</ele>
        <time>2024-07-02T12:44:36Z</time>
      </trkpt>
      <trkpt lat="44.86596" lon="5.24406">
        <ele>1376.5</ele>
        <time>2024-07-02T12:44:37Z</time>
      </trkpt>
      <trkpt lat="44.86596" lon="5.24405">
        <ele>1376.5</ele>
        <time>2024-07-02T12:44:38Z</time>
      </trkpt>
      <trkpt lat="44.86596" lon="5.24404">
        <ele>1376.5</ele>
        <time>2024-07-02T12:44:39Z</time>
      </trkpt>
      <trkpt lat="44.86597" lon="5.24403">
        <ele>1376.5</ele>
        <time>2024-07-02T12:44:40Z</time>
      </trkpt>
      <trkpt lat="44.86597" lon="5.24402">
        <ele>1376.5</ele>
        <time>2024-07-02T12:44:41Z</time>
      </trkpt>
      <trkpt lat="44.86597" lon="5.24401">
        <ele>1376.5</ele>
        <time>2024-07-02T12:44:42Z</time>
      </trkpt>
      <trkpt lat="44.86598" lon="5.244">
        <ele>1376.4</ele>
        <time>2024-07-02T12:44:43Z</time>
      </trkpt>
      <trkpt lat="44.86598" lon="5.244">
        <ele>1376.4</ele>
        <time>2024-07-02T12:44:44Z</time>
      </trkpt>
      <trkpt lat="44.86599" lon="5.24398">
        <ele>1376.4</ele>
        <time>2024-07-02T12:44:45Z</time>
      </trkpt>
      <trkpt lat="44.86599" lon="5.24398">
        <ele>1376.4</ele>
        <time>2024-07-02T12:44:46Z</time>
      </trkpt>
      <trkpt lat="44.86598" lon="5.24397">
        <ele>1376.4</ele>
        <time>2024-07-02T12:44:47Z</time>
      </trkpt>
      <trkpt lat="44.86598" lon="5.24396">
        <ele>1376.3</ele>
        <time>2024-07-02T12:44:48Z</time>
      </trkpt>
      <trkpt lat="44.86598" lon="5.24395">
        <ele>1376.3</ele>
        <time>2024-07-02T12:44:49Z</time>
      </trkpt>
      <trkpt lat="44.86599" lon="5.24391">
        <ele>1376.2</ele>
        <time>2024-07-02T12:44:50Z</time>
      </trkpt>
      <trkpt lat="44.866" lon="5.24391">
        <ele>1376.1</ele>
        <time>2024-07-02T12:44:51Z</time>
      </trkpt>
      <trkpt lat="44.866" lon="5.2439">
        <ele>1376.1</ele>
        <time>2024-07-02T12:44:52Z</time>
      </trkpt>
      <trkpt lat="44.86601" lon="5.24387">
        <ele>1376</ele>
        <time>2024-07-02T12:44:53Z</time>
      </trkpt>
      <trkpt lat="44.86602" lon="5.24386">
        <ele>1375.9</ele>
        <time>2024-07-02T12:44:54Z</time>
      </trkpt>
      <trkpt lat="44.86602" lon="5.24385">
        <ele>1375.9</ele>
        <time>2024-07-02T12:44:55Z</time>
      </trkpt>
      <trkpt lat="44.86602" lon="5.24384">
        <ele>1375.8</ele>
        <time>2024-07-02T12:44:56Z</time>
      </trkpt>
      <trkpt lat="44.86603" lon="5.24383">
        <ele>1375.8</ele>
        <time>2024-07-02T12:44:57Z</time>
      </trkpt>
      <trkpt lat="44.86604" lon="5.24381">
        <ele>1375.7</ele>
        <time>2024-07-02T12:44:58Z</time>
      </trkpt>
      <trkpt lat="44.86605" lon="5.2438">
        <ele>1375.6</ele>
        <time>2024-07-02T12:44:59Z</time>
      </trkpt>
      <trkpt lat="44.86606" lon="5.24379">
        <ele>1375.5</ele>
        <time>2024-07-02T12:45:00Z</time>
      </trkpt>
      <trkpt lat="44.86606" lon="5.24378">
        <ele>1375.5</ele>
        <time>2024-07-02T12:45:01Z</time>
      </trkpt>
      <trkpt lat="44.86608" lon="5.24376">
        <ele>1375.4</ele>
        <time>2024-07-02T12:45:02Z</time>
      </trkpt>
      <trkpt lat="44.86608" lon="5.24375">
        <ele>1375.3</ele>
        <time>2024-07-02T12:45:03Z</time>
      </trkpt>
      <trkpt lat="44.86609" lon="5.24374">
        <ele>1375.3</ele>
        <time>2024-07-02T12:45:04Z</time>
      </trkpt>
      <trkpt lat="44.8661" lon="5.24373">
        <ele>1375.2</ele>
        <time>2024-07-02T12:45:05Z</time>
      </trkpt>
      <trkpt lat="44.86611" lon="5.24372">
        <ele>1375.1</ele>
        <time>2024-07-02T12:45:06Z</time>
      </trkpt>
      <trkpt lat="44.86612" lon="5.24371">
        <ele>1375.1</ele>
        <time>2024-07-02T12:45:07Z</time>
      </trkpt>
      <trkpt lat="44.86612" lon="5.2437">
        <ele>1375</ele>
        <time>2024-07-02T12:45:08Z</time>
      </trkpt>
      <trkpt lat="44.86613" lon="5.24369">
        <ele>1374.9</ele>
        <time>2024-07-02T12:45:09Z</time>
      </trkpt>
      <trkpt lat="44.86613" lon="5.24367">
        <ele>1374.9</ele>
        <time>2024-07-02T12:45:10Z</time>
      </trkpt>
      <trkpt lat="44.86614" lon="5.24366">
        <ele>1374.8</ele>
        <time>2024-07-02T12:45:11Z</time>
      </trkpt>
      <trkpt lat="44.86614" lon="5.24364">
        <ele>1374.7</ele>
        <time>2024-07-02T12:45:12Z</time>
      </trkpt>
      <trkpt lat="44.86615" lon="5.24363">
        <ele>1374.7</ele>
        <time>2024-07-02T12:45:13Z</time>
      </trkpt>
      <trkpt lat="44.86616" lon="5.24362">
        <ele>1374.6</ele>
        <time>2024-07-02T12:45:14Z</time>
      </trkpt>
      <trkpt lat="44.86617" lon="5.2436">
        <ele>1374.5</ele>
        <time>2024-07-02T12:45:15Z</time>
      </trkpt>
      <trkpt lat="44.86618" lon="5.2436">
        <ele>1374.5</ele>
        <time>2024-07-02T12:45:16Z</time>
      </trkpt>
      <trkpt lat="44.86618" lon="5.24359">
        <ele>1374.4</ele>
        <time>2024-07-02T12:45:17Z</time>
      </trkpt>
      <trkpt lat="44.86619" lon="5.24357">
        <ele>1374.3</ele>
        <time>2024-07-02T12:45:18Z</time>
      </trkpt>
      <trkpt lat="44.8662" lon="5.24356">
        <ele>1374.3</ele>
        <time>2024-07-02T12:45:19Z</time>
      </trkpt>
      <trkpt lat="44.86621" lon="5.24355">
        <ele>1374.2</ele>
        <time>2024-07-02T12:45:20Z</time>
      </trkpt>
      <trkpt lat="44.86622" lon="5.24354">
        <ele>1374.1</ele>
        <time>2024-07-02T12:45:21Z</time>
      </trkpt>
      <trkpt lat="44.86623" lon="5.24352">
        <ele>1374</ele>
        <time>2024-07-02T12:45:22Z</time>
      </trkpt>
      <trkpt lat="44.86624" lon="5.24351">
        <ele>1374</ele>
        <time>2024-07-02T12:45:23Z</time>
      </trkpt>
      <trkpt lat="44.86625" lon="5.2435">
        <ele>1373.9</ele>
        <time>2024-07-02T12:45:24Z</time>
      </trkpt>
      <trkpt lat="44.86626" lon="5.24349">
        <ele>1373.9</ele>
        <time>2024-07-02T12:45:25Z</time>
      </trkpt>
      <trkpt lat="44.86626" lon="5.24348">
        <ele>1373.8</ele>
        <time>2024-07-02T12:45:26Z</time>
      </trkpt>
      <trkpt lat="44.86627" lon="5.24347">
        <ele>1373.7</ele>
        <time>2024-07-02T12:45:27Z</time>
      </trkpt>
      <trkpt lat="44.86629" lon="5.24346">
        <ele>1373.6</ele>
        <time>2024-07-02T12:45:28Z</time>
      </trkpt>
      <trkpt lat="44.8663" lon="5.24345">
        <ele>1373.6</ele>
        <time>2024-07-02T12:45:29Z</time>
      </trkpt>
      <trkpt lat="44.86631" lon="5.24344">
        <ele>1373.5</ele>
        <time>2024-07-02T12:45:30Z</time>
      </trkpt>
      <trkpt lat="44.86632" lon="5.24344">
        <ele>1373.5</ele>
        <time>2024-07-02T12:45:31Z</time>
      </trkpt>
      <trkpt lat="44.86632" lon="5.24342">
        <ele>1373.5</ele>
        <time>2024-07-02T12:45:32Z</time>
      </trkpt>
      <trkpt lat="44.86633" lon="5.24341">
        <ele>1373.4</ele>
        <time>2024-07-02T12:45:33Z</time>
      </trkpt>
      <trkpt lat="44.86634" lon="5.2434">
        <ele>1373.4</ele>
        <time>2024-07-02T12:45:34Z</time>
      </trkpt>
      <trkpt lat="44.86635" lon="5.24338">
        <ele>1373.3</ele>
        <time>2024-07-02T12:45:35Z</time>
      </trkpt>
      <trkpt lat="44.86636" lon="5.24337">
        <ele>1373.2</ele>
        <time>2024-07-02T12:45:36Z</time>
      </trkpt>
      <trkpt lat="44.86636" lon="5.24336">
        <ele>1373.2</ele>
        <time>2024-07-02T12:45:37Z</time>
      </trkpt>
      <trkpt lat="44.86637" lon="5.24335">
        <ele>1373.2</ele>
        <time>2024-07-02T12:45:38Z</time>
      </trkpt>
      <trkpt lat="44.86638" lon="5.24335">
        <ele>1373.1</ele>
        <time>2024-07-02T12:45:39Z</time>
      </trkpt>
      <trkpt lat="44.86639" lon="5.24335">
        <ele>1373.1</ele>
        <time>2024-07-02T12:45:40Z</time>
      </trkpt>
      <trkpt lat="44.8664" lon="5.24336">
        <ele>1373.1</ele>
        <time>2024-07-02T12:45:41Z</time>
      </trkpt>
      <trkpt lat="44.8664" lon="5.24335">
        <ele>1373</ele>
        <time>2024-07-02T12:45:42Z</time>
      </trkpt>
      <trkpt lat="44.86641" lon="5.24332">
        <ele>1372.9</ele>
        <time>2024-07-02T12:45:43Z</time>
      </trkpt>
      <trkpt lat="44.86642" lon="5.24331">
        <ele>1372.9</ele>
        <time>2024-07-02T12:45:44Z</time>
      </trkpt>
      <trkpt lat="44.86642" lon="5.2433">
        <ele>1372.8</ele>
        <time>2024-07-02T12:45:45Z</time>
      </trkpt>
      <trkpt lat="44.86643" lon="5.24329">
        <ele>1372.8</ele>
        <time>2024-07-02T12:45:46Z</time>
      </trkpt>
      <trkpt lat="44.86643" lon="5.24327">
        <ele>1372.8</ele>
        <time>2024-07-02T12:45:47Z</time>
      </trkpt>
      <trkpt lat="44.86644" lon="5.24326">
        <ele>1372.7</ele>
        <time>2024-07-02T12:45:48Z</time>
      </trkpt>
      <trkpt lat="44.86645" lon="5.24325">
        <ele>1372.7</ele>
        <time>2024-07-02T12:45:49Z</time>
      </trkpt>
      <trkpt lat="44.86645" lon="5.24324">
        <ele>1372.6</ele>
        <time>2024-07-02T12:45:50Z</time>
      </trkpt>
      <trkpt lat="44.86646" lon="5.24322">
        <ele>1372.6</ele>
        <time>2024-07-02T12:45:51Z</time>
      </trkpt>
      <trkpt lat="44.86648" lon="5.2432">
        <ele>1372.5</ele>
        <time>2024-07-02T12:45:52Z</time>
      </trkpt>
      <trkpt lat="44.86648" lon="5.2432">
        <ele>1372.5</ele>
        <time>2024-07-02T12:45:53Z</time>
      </trkpt>
      <trkpt lat="44.86649" lon="5.24319">
        <ele>1372.4</ele>
        <time>2024-07-02T12:45:54Z</time>
      </trkpt>
      <trkpt lat="44.86651" lon="5.24317">
        <ele>1372.3</ele>
        <time>2024-07-02T12:45:55Z</time>
      </trkpt>
      <trkpt lat="44.86651" lon="5.24316">
        <ele>1372.3</ele>
        <time>2024-07-02T12:45:56Z</time>
      </trkpt>
      <trkpt lat="44.86652" lon="5.24315">
        <ele>1372.3</ele>
        <time>2024-07-02T12:45:57Z</time>
      </trkpt>
      <trkpt lat="44.86652" lon="5.24315">
        <ele>1372.3</ele>
        <time>2024-07-02T12:45:58Z</time>
      </trkpt>
      <trkpt lat="44.86654" lon="5.24312">
        <ele>1372.2</ele>
        <time>2024-07-02T12:45:59Z</time>
      </trkpt>
      <trkpt lat="44.86654" lon="5.24311">
        <ele>1372.1</ele>
        <time>2024-07-02T12:46:00Z</time>
      </trkpt>
      <trkpt lat="44.86655" lon="5.24309">
        <ele>1372.1</ele>
        <time>2024-07-02T12:46:01Z</time>
      </trkpt>
      <trkpt lat="44.86656" lon="5.24308">
        <ele>1372.1</ele>
        <time>2024-07-02T12:46:02Z</time>
      </trkpt>
      <trkpt lat="44.86658" lon="5.24307">
        <ele>1372</ele>
        <time>2024-07-02T12:46:03Z</time>
      </trkpt>
      <trkpt lat="44.86658" lon="5.24306">
        <ele>1371.9</ele>
        <time>2024-07-02T12:46:04Z</time>
      </trkpt>
      <trkpt lat="44.86659" lon="5.24305">
        <ele>1371.9</ele>
        <time>2024-07-02T12:46:05Z</time>
      </trkpt>
      <trkpt lat="44.8666" lon="5.24305">
        <ele>1371.9</ele>
        <time>2024-07-02T12:46:06Z</time>
      </trkpt>
      <trkpt lat="44.86661" lon="5.24304">
        <ele>1371.8</ele>
        <time>2024-07-02T12:46:07Z</time>
      </trkpt>
      <trkpt lat="44.86662" lon="5.24303">
        <ele>1371.8</ele>
        <time>2024-07-02T12:46:08Z</time>
      </trkpt>
      <trkpt lat="44.86663" lon="5.24302">
        <ele>1371.7</ele>
        <time>2024-07-02T12:46:09Z</time>
      </trkpt>
      <trkpt lat="44.86665" lon="5.243">
        <ele>1371.7</ele>
        <time>2024-07-02T12:46:10Z</time>
      </trkpt>
      <trkpt lat="44.86665" lon="5.243">
        <ele>1371.7</ele>
        <time>2024-07-02T12:46:11Z</time>
      </trkpt>
      <trkpt lat="44.86666" lon="5.24299">
        <ele>1371.6</ele>
        <time>2024-07-02T12:46:12Z</time>
      </trkpt>
      <trkpt lat="44.86667" lon="5.24298">
        <ele>1371.6</ele>
        <time>2024-07-02T12:46:13Z</time>
      </trkpt>
      <trkpt lat="44.86668" lon="5.24297">
        <ele>1371.6</ele>
        <time>2024-07-02T12:46:14Z</time>
      </trkpt>
      <trkpt lat="44.86669" lon="5.24295">
        <ele>1371.5</ele>
        <time>2024-07-02T12:46:15Z</time>
      </trkpt>
      <trkpt lat="44.8667" lon="5.24294">
        <ele>1371.5</ele>
        <time>2024-07-02T12:46:16Z</time>
      </trkpt>
      <trkpt lat="44.8667" lon="5.24293">
        <ele>1371.5</ele>
        <time>2024-07-02T12:46:17Z</time>
      </trkpt>
      <trkpt lat="44.8667" lon="5.24293">
        <ele>1371.5</ele>
        <time>2024-07-02T12:46:18Z</time>
      </trkpt>
      <trkpt lat="44.86671" lon="5.24292">
        <ele>1371.4</ele>
        <time>2024-07-02T12:46:19Z</time>
      </trkpt>
      <trkpt lat="44.86671" lon="5.24292">
        <ele>1371.4</ele>
        <time>2024-07-02T12:46:20Z</time>
      </trkpt>
      <trkpt lat="44.86672" lon="5.2429">
        <ele>1371.4</ele>
        <time>2024-07-02T12:46:21Z</time>
      </trkpt>
      <trkpt lat="44.86673" lon="5.24289">
        <ele>1371.4</ele>
        <time>2024-07-02T12:46:22Z</time>
      </trkpt>
      <trkpt lat="44.86673" lon="5.24288">
        <ele>1371.3</ele>
        <time>2024-07-02T12:46:23Z</time>
      </trkpt>
      <trkpt lat="44.86673" lon="5.24288">
        <ele>1371.3</ele>
        <time>2024-07-02T12:46:24Z</time>
      </trkpt>
      <trkpt lat="44.86674" lon="5.24287">
        <ele>1371.3</ele>
        <time>2024-07-02T12:46:25Z</time>
      </trkpt>
      <trkpt lat="44.86675" lon="5.24285">
        <ele>1371.3</ele>
        <time>2024-07-02T12:46:26Z</time>
      </trkpt>
      <trkpt lat="44.86675" lon="5.24285">
        <ele>1371.2</ele>
        <time>2024-07-02T12:46:27Z</time>
      </trkpt>
      <trkpt lat="44.86676" lon="5.24283">
        <ele>1371.2</ele>
        <time>2024-07-02T12:46:28Z</time>
      </trkpt>
      <trkpt lat="44.86677" lon="5.24282">
        <ele>1371.2</ele>
        <time>2024-07-02T12:46:29Z</time>
      </trkpt>
      <trkpt lat="44.86678" lon="5.24281">
        <ele>1371.2</ele>
        <time>2024-07-02T12:46:30Z</time>
      </trkpt>
      <trkpt lat="44.86679" lon="5.2428">
        <ele>1371.1</ele>
        <time>2024-07-02T12:46:31Z</time>
      </trkpt>
      <trkpt lat="44.8668" lon="5.24279">
        <ele>1371.1</ele>
        <time>2024-07-02T12:46:32Z</time>
      </trkpt>
      <trkpt lat="44.8668" lon="5.24278">
        <ele>1371.1</ele>
        <time>2024-07-02T12:46:33Z</time>
      </trkpt>
      <trkpt lat="44.86681" lon="5.24277">
        <ele>1371</ele>
        <time>2024-07-02T12:46:34Z</time>
      </trkpt>
      <trkpt lat="44.86682" lon="5.24275">
        <ele>1371</ele>
        <time>2024-07-02T12:46:35Z</time>
      </trkpt>
      <trkpt lat="44.86683" lon="5.24274">
        <ele>1371</ele>
        <time>2024-07-02T12:46:36Z</time>
      </trkpt>
      <trkpt lat="44.86683" lon="5.24273">
        <ele>1370.9</ele>
        <time>2024-07-02T12:46:37Z</time>
      </trkpt>
      <trkpt lat="44.86684" lon="5.24271">
        <ele>1370.9</ele>
        <time>2024-07-02T12:46:38Z</time>
      </trkpt>
      <trkpt lat="44.86685" lon="5.2427">
        <ele>1370.9</ele>
        <time>2024-07-02T12:46:39Z</time>
      </trkpt>
      <trkpt lat="44.86685" lon="5.24269">
        <ele>1370.8</ele>
        <time>2024-07-02T12:46:40Z</time>
      </trkpt>
      <trkpt lat="44.86686" lon="5.24267">
        <ele>1370.8</ele>
        <time>2024-07-02T12:46:41Z</time>
      </trkpt>
      <trkpt lat="44.86687" lon="5.24266">
        <ele>1370.8</ele>
        <time>2024-07-02T12:46:42Z</time>
      </trkpt>
      <trkpt lat="44.86688" lon="5.24265">
        <ele>1370.8</ele>
        <time>2024-07-02T12:46:43Z</time>
      </trkpt>
      <trkpt lat="44.86688" lon="5.24264">
        <ele>1370.7</ele>
        <time>2024-07-02T12:46:44Z</time>
      </trkpt>
      <trkpt lat="44.8669" lon="5.24262">
        <ele>1370.7</ele>
        <time>2024-07-02T12:46:45Z</time>
      </trkpt>
      <trkpt lat="44.86691" lon="5.24261">
        <ele>1370.6</ele>
        <time>2024-07-02T12:46:46Z</time>
      </trkpt>
      <trkpt lat="44.86691" lon="5.2426">
        <ele>1370.6</ele>
        <time>2024-07-02T12:46:47Z</time>
      </trkpt>
      <trkpt lat="44.86693" lon="5.24259">
        <ele>1370.6</ele>
        <time>2024-07-02T12:46:48Z</time>
      </trkpt>
      <trkpt lat="44.86694" lon="5.24258">
        <ele>1370.5</ele>
        <time>2024-07-02T12:46:49Z</time>
      </trkpt>
      <trkpt lat="44.86694" lon="5.24257">
        <ele>1370.5</ele>
        <time>2024-07-02T12:46:50Z</time>
      </trkpt>
      <trkpt lat="44.86695" lon="5.24256">
        <ele>1370.5</ele>
        <time>2024-07-02T12:46:51Z</time>
      </trkpt>
      <trkpt lat="44.86696" lon="5.24255">
        <ele>1370.4</ele>
        <time>2024-07-02T12:46:52Z</time>
      </trkpt>
      <trkpt lat="44.86697" lon="5.24254">
        <ele>1370.4</ele>
        <time>2024-07-02T12:46:53Z</time>
      </trkpt>
      <trkpt lat="44.86697" lon="5.24253">
        <ele>1370.4</ele>
        <time>2024-07-02T12:46:54Z</time>
      </trkpt>
      <trkpt lat="44.86698" lon="5.24252">
        <ele>1370.4</ele>
        <time>2024-07-02T12:46:55Z</time>
      </trkpt>
      <trkpt lat="44.86699" lon="5.24251">
        <ele>1370.3</ele>
        <time>2024-07-02T12:46:56Z</time>
      </trkpt>
      <trkpt lat="44.867" lon="5.2425">
        <ele>1370.3</ele>
        <time>2024-07-02T12:46:57Z</time>
      </trkpt>
      <trkpt lat="44.86701" lon="5.24248">
        <ele>1370.2</ele>
        <time>2024-07-02T12:46:58Z</time>
      </trkpt>
      <trkpt lat="44.86702" lon="5.24247">
        <ele>1370.2</ele>
        <time>2024-07-02T12:46:59Z</time>
      </trkpt>
      <trkpt lat="44.86703" lon="5.24246">
        <ele>1370.2</ele>
        <time>2024-07-02T12:47:00Z</time>
      </trkpt>
      <trkpt lat="44.86703" lon="5.24245">
        <ele>1370.2</ele>
        <time>2024-07-02T12:47:01Z</time>
      </trkpt>
      <trkpt lat="44.86704" lon="5.24244">
        <ele>1370.1</ele>
        <time>2024-07-02T12:47:02Z</time>
      </trkpt>
      <trkpt lat="44.86706" lon="5.24242">
        <ele>1370.1</ele>
        <time>2024-07-02T12:47:03Z</time>
      </trkpt>
      <trkpt lat="44.86706" lon="5.24241">
        <ele>1370</ele>
        <time>2024-07-02T12:47:04Z</time>
      </trkpt>
      <trkpt lat="44.86707" lon="5.2424">
        <ele>1370</ele>
        <time>2024-07-02T12:47:05Z</time>
      </trkpt>
      <trkpt lat="44.86708" lon="5.24239">
        <ele>1370</ele>
        <time>2024-07-02T12:47:06Z</time>
      </trkpt>
      <trkpt lat="44.86709" lon="5.24238">
        <ele>1369.9</ele>
        <time>2024-07-02T12:47:07Z</time>
      </trkpt>
      <trkpt lat="44.8671" lon="5.24237">
        <ele>1369.9</ele>
        <time>2024-07-02T12:47:08Z</time>
      </trkpt>
      <trkpt lat="44.86711" lon="5.24236">
        <ele>1369.8</ele>
        <time>2024-07-02T12:47:09Z</time>
      </trkpt>
      <trkpt lat="44.86712" lon="5.24235">
        <ele>1369.8</ele>
        <time>2024-07-02T12:47:10Z</time>
      </trkpt>
      <trkpt lat="44.86713" lon="5.24234">
        <ele>1369.8</ele>
        <time>2024-07-02T12:47:11Z</time>
      </trkpt>
      <trkpt lat="44.86714" lon="5.24234">
        <ele>1369.7</ele>
        <time>2024-07-02T12:47:12Z</time>
      </trkpt>
      <trkpt lat="44.86714" lon="5.24233">
        <ele>1369.7</ele>
        <time>2024-07-02T12:47:13Z</time>
      </trkpt>
      <trkpt lat="44.86715" lon="5.24233">
        <ele>1369.6</ele>
        <time>2024-07-02T12:47:14Z</time>
      </trkpt>
      <trkpt lat="44.86716" lon="5.24232">
        <ele>1369.6</ele>
        <time>2024-07-02T12:47:15Z</time>
      </trkpt>
      <trkpt lat="44.86716" lon="5.24231">
        <ele>1369.6</ele>
        <time>2024-07-02T12:47:16Z</time>
      </trkpt>
      <trkpt lat="44.86716" lon="5.24231">
        <ele>1369.5</ele>
        <time>2024-07-02T12:47:17Z</time>
      </trkpt>
      <trkpt lat="44.86717" lon="5.24231">
        <ele>1369.5</ele>
        <time>2024-07-02T12:47:18Z</time>
      </trkpt>
      <trkpt lat="44.86718" lon="5.24231">
        <ele>1369.5</ele>
        <time>2024-07-02T12:47:19Z</time>
      </trkpt>
      <trkpt lat="44.86718" lon="5.24231">
        <ele>1369.4</ele>
        <time>2024-07-02T12:47:20Z</time>
      </trkpt>
      <trkpt lat="44.86719" lon="5.24231">
        <ele>1369.4</ele>
        <time>2024-07-02T12:47:21Z</time>
      </trkpt>
      <trkpt lat="44.86719" lon="5.24231">
        <ele>1369.4</ele>
        <time>2024-07-02T12:47:22Z</time>
      </trkpt>
      <trkpt lat="44.86719" lon="5.24231">
        <ele>1369.4</ele>
        <time>2024-07-02T12:47:23Z</time>
      </trkpt>
      <trkpt lat="44.86719" lon="5.24231">
        <ele>1369.4</ele>
        <time>2024-07-02T12:47:24Z</time>
      </trkpt>
      <trkpt lat="44.86719" lon="5.24231">
        <ele>1369.4</ele>
        <time>2024-07-02T12:47:25Z</time>
      </trkpt>
      <trkpt lat="44.86719" lon="5.24231">
        <ele>1369.4</ele>
        <time>2024-07-02T12:47:26Z</time>
      </trkpt>
      <trkpt lat="44.86719" lon="5.24231">
        <ele>1369.4</ele>
        <time>2024-07-02T12:47:27Z</time>
      </trkpt>
      <trkpt lat="44.86719" lon="5.24231">
        <ele>1369.4</ele>
        <time>2024-07-02T12:47:28Z</time>
      </trkpt>
      <trkpt lat="44.8672" lon="5.24231">
        <ele>1369.4</ele>
        <time>2024-07-02T12:47:29Z</time>
      </trkpt>
      <trkpt lat="44.8672" lon="5.24231">
        <ele>1369.3</ele>
        <time>2024-07-02T12:47:30Z</time>
      </trkpt>
      <trkpt lat="44.8672" lon="5.24231">
        <ele>1369.3</ele>
        <time>2024-07-02T12:47:31Z</time>
      </trkpt>
      <trkpt lat="44.8672" lon="5.24231">
        <ele>1369.3</ele>
        <time>2024-07-02T12:47:32Z</time>
      </trkpt>
      <trkpt lat="44.8672" lon="5.24231">
        <ele>1369.3</ele>
        <time>2024-07-02T12:47:33Z</time>
      </trkpt>
      <trkpt lat="44.8672" lon="5.24231">
        <ele>1369.3</ele>
        <time>2024-07-02T12:47:34Z</time>
      </trkpt>
      <trkpt lat="44.8672" lon="5.24231">
        <ele>1369.3</ele>
        <time>2024-07-02T12:47:35Z</time>
      </trkpt>
      <trkpt lat="44.8672" lon="5.24231">
        <ele>1369.3</ele>
        <time>2024-07-02T12:47:36Z</time>
      </trkpt>
      <trkpt lat="44.8672" lon="5.24231">
        <ele>1369.3</ele>
        <time>2024-07-02T12:47:37Z</time>
      </trkpt>
      <trkpt lat="44.86721" lon="5.24231">
        <ele>1369.3</ele>
        <time>2024-07-02T12:47:38Z</time>
      </trkpt>
      <trkpt lat="44.86721" lon="5.24231">
        <ele>1369.3</ele>
        <time>2024-07-02T12:47:39Z</time>
      </trkpt>
      <trkpt lat="44.86721" lon="5.24231">
        <ele>1369.3</ele>
        <time>2024-07-02T12:47:40Z</time>
      </trkpt>
      <trkpt lat="44.86721" lon="5.24231">
        <ele>1369.3</ele>
        <time>2024-07-02T12:47:41Z</time>
      </trkpt>
      <trkpt lat="44.86721" lon="5.24231">
        <ele>1369.3</ele>
        <time>2024-07-02T12:47:42Z</time>
      </trkpt>
      <trkpt lat="44.86721" lon="5.24231">
        <ele>1369.2</ele>
        <time>2024-07-02T12:47:43Z</time>
      </trkpt>
      <trkpt lat="44.86721" lon="5.24231">
        <ele>1369.2</ele>
        <time>2024-07-02T12:47:44Z</time>
      </trkpt>
      <trkpt lat="44.86721" lon="5.24231">
        <ele>1369.2</ele>
        <time>2024-07-02T12:47:45Z</time>
      </trkpt>
      <trkpt lat="44.86722" lon="5.24231">
        <ele>1369.2</ele>
        <time>2024-07-02T12:47:46Z</time>
      </trkpt>
      <trkpt lat="44.86722" lon="5.24231">
        <ele>1369.2</ele>
        <time>2024-07-02T12:47:47Z</time>
      </trkpt>
      <trkpt lat="44.86722" lon="5.24231">
        <ele>1369.2</ele>
        <time>2024-07-02T12:47:48Z</time>
      </trkpt>
      <trkpt lat="44.86722" lon="5.24231">
        <ele>1369.2</ele>
        <time>2024-07-02T12:47:49Z</time>
      </trkpt>
      <trkpt lat="44.86722" lon="5.24231">
        <ele>1369.2</ele>
        <time>2024-07-02T12:47:50Z</time>
      </trkpt>
      <trkpt lat="44.86722" lon="5.2423">
        <ele>1369.1</ele>
        <time>2024-07-02T12:47:51Z</time>
      </trkpt>
      <trkpt lat="44.86723" lon="5.24229">
        <ele>1369.1</ele>
        <time>2024-07-02T12:47:52Z</time>
      </trkpt>
      <trkpt lat="44.86724" lon="5.24229">
        <ele>1369</ele>
        <time>2024-07-02T12:47:53Z</time>
      </trkpt>
      <trkpt lat="44.86725" lon="5.24228">
        <ele>1368.9</ele>
        <time>2024-07-02T12:47:54Z</time>
      </trkpt>
      <trkpt lat="44.86726" lon="5.24228">
        <ele>1368.9</ele>
        <time>2024-07-02T12:47:55Z</time>
      </trkpt>
      <trkpt lat="44.86727" lon="5.24228">
        <ele>1368.8</ele>
        <time>2024-07-02T12:47:56Z</time>
      </trkpt>
      <trkpt lat="44.86728" lon="5.24227">
        <ele>1368.7</ele>
        <time>2024-07-02T12:47:57Z</time>
      </trkpt>
      <trkpt lat="44.86729" lon="5.24227">
        <ele>1368.6</ele>
        <time>2024-07-02T12:47:58Z</time>
      </trkpt>
      <trkpt lat="44.8673" lon="5.24227">
        <ele>1368.6</ele>
        <time>2024-07-02T12:47:59Z</time>
      </trkpt>
      <trkpt lat="44.86733" lon="5.24226">
        <ele>1368.4</ele>
        <time>2024-07-02T12:48:00Z</time>
      </trkpt>
      <trkpt lat="44.86734" lon="5.24226">
        <ele>1368.3</ele>
        <time>2024-07-02T12:48:01Z</time>
      </trkpt>
      <trkpt lat="44.86735" lon="5.24226">
        <ele>1368.2</ele>
        <time>2024-07-02T12:48:02Z</time>
      </trkpt>
      <trkpt lat="44.86736" lon="5.24226">
        <ele>1368.1</ele>
        <time>2024-07-02T12:48:03Z</time>
      </trkpt>
      <trkpt lat="44.86737" lon="5.24226">
        <ele>1368</ele>
        <time>2024-07-02T12:48:04Z</time>
      </trkpt>
      <trkpt lat="44.86738" lon="5.24226">
        <ele>1367.9</ele>
        <time>2024-07-02T12:48:05Z</time>
      </trkpt>
      <trkpt lat="44.86739" lon="5.24225">
        <ele>1367.8</ele>
        <time>2024-07-02T12:48:06Z</time>
      </trkpt>
      <trkpt lat="44.86741" lon="5.24225">
        <ele>1367.7</ele>
        <time>2024-07-02T12:48:07Z</time>
      </trkpt>
      <trkpt lat="44.86742" lon="5.24225">
        <ele>1367.5</ele>
        <time>2024-07-02T12:48:08Z</time>
      </trkpt>
      <trkpt lat="44.86743" lon="5.24225">
        <ele>1367.4</ele>
        <time>2024-07-02T12:48:09Z</time>
      </trkpt>
      <trkpt lat="44.86744" lon="5.24224">
        <ele>1367.3</ele>
        <time>2024-07-02T12:48:10Z</time>
      </trkpt>
      <trkpt lat="44.86745" lon="5.24224">
        <ele>1367.1</ele>
        <time>2024-07-02T12:48:11Z</time>
      </trkpt>
      <trkpt lat="44.86747" lon="5.24224">
        <ele>1366.9</ele>
        <time>2024-07-02T12:48:12Z</time>
      </trkpt>
      <trkpt lat="44.86748" lon="5.24223">
        <ele>1366.8</ele>
        <time>2024-07-02T12:48:13Z</time>
      </trkpt>
      <trkpt lat="44.8675" lon="5.24223">
        <ele>1366.5</ele>
        <time>2024-07-02T12:48:14Z</time>
      </trkpt>
      <trkpt lat="44.86751" lon="5.24223">
        <ele>1366.4</ele>
        <time>2024-07-02T12:48:15Z</time>
      </trkpt>
      <trkpt lat="44.86752" lon="5.24223">
        <ele>1366.2</ele>
        <time>2024-07-02T12:48:16Z</time>
      </trkpt>
      <trkpt lat="44.86753" lon="5.24223">
        <ele>1366.1</ele>
        <time>2024-07-02T12:48:17Z</time>
      </trkpt>
      <trkpt lat="44.86754" lon="5.24223">
        <ele>1365.9</ele>
        <time>2024-07-02T12:48:18Z</time>
      </trkpt>
      <trkpt lat="44.86755" lon="5.24223">
        <ele>1365.7</ele>
        <time>2024-07-02T12:48:19Z</time>
      </trkpt>
      <trkpt lat="44.86757" lon="5.24223">
        <ele>1365.4</ele>
        <time>2024-07-02T12:48:20Z</time>
      </trkpt>
      <trkpt lat="44.86758" lon="5.24223">
        <ele>1365.2</ele>
        <time>2024-07-02T12:48:21Z</time>
      </trkpt>
      <trkpt lat="44.86759" lon="5.24223">
        <ele>1365.1</ele>
        <time>2024-07-02T12:48:22Z</time>
      </trkpt>
      <trkpt lat="44.8676" lon="5.24224">
        <ele>1364.9</ele>
        <time>2024-07-02T12:48:23Z</time>
      </trkpt>
      <trkpt lat="44.86761" lon="5.24224">
        <ele>1364.7</ele>
        <time>2024-07-02T12:48:24Z</time>
      </trkpt>
      <trkpt lat="44.86762" lon="5.24224">
        <ele>1364.5</ele>
        <time>2024-07-02T12:48:25Z</time>
      </trkpt>
      <trkpt lat="44.86763" lon="5.24225">
        <ele>1364.2</ele>
        <time>2024-07-02T12:48:26Z</time>
      </trkpt>
      <trkpt lat="44.86765" lon="5.24225">
        <ele>1363.9</ele>
        <time>2024-07-02T12:48:27Z</time>
      </trkpt>
      <trkpt lat="44.86766" lon="5.24226">
        <ele>1363.7</ele>
        <time>2024-07-02T12:48:28Z</time>
      </trkpt>
      <trkpt lat="44.86767" lon="5.24226">
        <ele>1363.5</ele>
        <time>2024-07-02T12:48:29Z</time>
      </trkpt>
      <trkpt lat="44.86768" lon="5.24226">
        <ele>1363.3</ele>
        <time>2024-07-02T12:48:30Z</time>
      </trkpt>
      <trkpt lat="44.86769" lon="5.24227">
        <ele>1363</ele>
        <time>2024-07-02T12:48:31Z</time>
      </trkpt>
      <trkpt lat="44.8677" lon="5.24227">
        <ele>1362.8</ele>
        <time>2024-07-02T12:48:32Z</time>
      </trkpt>
      <trkpt lat="44.86771" lon="5.24228">
        <ele>1362.6</ele>
        <time>2024-07-02T12:48:33Z</time>
      </trkpt>
      <trkpt lat="44.86772" lon="5.24228">
        <ele>1362.4</ele>
        <time>2024-07-02T12:48:34Z</time>
      </trkpt>
      <trkpt lat="44.86773" lon="5.24229">
        <ele>1362.2</ele>
        <time>2024-07-02T12:48:35Z</time>
      </trkpt>
      <trkpt lat="44.86774" lon="5.2423">
        <ele>1362</ele>
        <time>2024-07-02T12:48:36Z</time>
      </trkpt>
      <trkpt lat="44.86775" lon="5.2423">
        <ele>1361.8</ele>
        <time>2024-07-02T12:48:37Z</time>
      </trkpt>
      <trkpt lat="44.86776" lon="5.2423">
        <ele>1361.6</ele>
        <time>2024-07-02T12:48:38Z</time>
      </trkpt>
      <trkpt lat="44.86777" lon="5.2423">
        <ele>1361.3</ele>
        <time>2024-07-02T12:48:39Z</time>
      </trkpt>
      <trkpt lat="44.86778" lon="5.2423">
        <ele>1361.1</ele>
        <time>2024-07-02T12:48:40Z</time>
      </trkpt>
      <trkpt lat="44.86779" lon="5.24231">
        <ele>1360.9</ele>
        <time>2024-07-02T12:48:41Z</time>
      </trkpt>
      <trkpt lat="44.8678" lon="5.24231">
        <ele>1360.7</ele>
        <time>2024-07-02T12:48:42Z</time>
      </trkpt>
      <trkpt lat="44.86781" lon="5.24232">
        <ele>1360.6</ele>
        <time>2024-07-02T12:48:43Z</time>
      </trkpt>
      <trkpt lat="44.86782" lon="5.24233">
        <ele>1360.4</ele>
        <time>2024-07-02T12:48:44Z</time>
      </trkpt>
      <trkpt lat="44.86782" lon="5.24233">
        <ele>1360.3</ele>
        <time>2024-07-02T12:48:45Z</time>
      </trkpt>
      <trkpt lat="44.86783" lon="5.24233">
        <ele>1360.2</ele>
        <time>2024-07-02T12:48:46Z</time>
      </trkpt>
      <trkpt lat="44.86784" lon="5.24233">
        <ele>1360</ele>
        <time>2024-07-02T12:48:47Z</time>
      </trkpt>
      <trkpt lat="44.86784" lon="5.24234">
        <ele>1359.9</ele>
        <time>2024-07-02T12:48:48Z</time>
      </trkpt>
      <trkpt lat="44.86785" lon="5.24235">
        <ele>1359.7</ele>
        <time>2024-07-02T12:48:49Z</time>
      </trkpt>
      <trkpt lat="44.86786" lon="5.24236">
        <ele>1359.5</ele>
        <time>2024-07-02T12:48:50Z</time>
      </trkpt>
      <trkpt lat="44.86786" lon="5.24237">
        <ele>1359.4</ele>
        <time>2024-07-02T12:48:51Z</time>
      </trkpt>
      <trkpt lat="44.86787" lon="5.24237">
        <ele>1359.2</ele>
        <time>2024-07-02T12:48:52Z</time>
      </trkpt>
      <trkpt lat="44.86788" lon="5.24237">
        <ele>1359</ele>
        <time>2024-07-02T12:48:53Z</time>
      </trkpt>
      <trkpt lat="44.86789" lon="5.24238">
        <ele>1358.8</ele>
        <time>2024-07-02T12:48:54Z</time>
      </trkpt>
      <trkpt lat="44.86791" lon="5.24238">
        <ele>1358.7</ele>
        <time>2024-07-02T12:48:55Z</time>
      </trkpt>
      <trkpt lat="44.86792" lon="5.24238">
        <ele>1358.5</ele>
        <time>2024-07-02T12:48:56Z</time>
      </trkpt>
      <trkpt lat="44.86793" lon="5.24238">
        <ele>1358.3</ele>
        <time>2024-07-02T12:48:57Z</time>
      </trkpt>
      <trkpt lat="44.86793" lon="5.24237">
        <ele>1358.2</ele>
        <time>2024-07-02T12:48:58Z</time>
      </trkpt>
      <trkpt lat="44.86795" lon="5.24237">
        <ele>1358</ele>
        <time>2024-07-02T12:48:59Z</time>
      </trkpt>
      <trkpt lat="44.86795" lon="5.24237">
        <ele>1357.8</ele>
        <time>2024-07-02T12:49:00Z</time>
      </trkpt>
      <trkpt lat="44.86796" lon="5.24236">
        <ele>1357.7</ele>
        <time>2024-07-02T12:49:01Z</time>
      </trkpt>
      <trkpt lat="44.86798" lon="5.24236">
        <ele>1357.4</ele>
        <time>2024-07-02T12:49:02Z</time>
      </trkpt>
      <trkpt lat="44.86798" lon="5.24237">
        <ele>1357.3</ele>
        <time>2024-07-02T12:49:03Z</time>
      </trkpt>
      <trkpt lat="44.86799" lon="5.24237">
        <ele>1357.1</ele>
        <time>2024-07-02T12:49:04Z</time>
      </trkpt>
      <trkpt lat="44.868" lon="5.24237">
        <ele>1356.9</ele>
        <time>2024-07-02T12:49:05Z</time>
      </trkpt>
      <trkpt lat="44.86802" lon="5.24237">
        <ele>1356.6</ele>
        <time>2024-07-02T12:49:06Z</time>
      </trkpt>
      <trkpt lat="44.86803" lon="5.24237">
        <ele>1356.5</ele>
        <time>2024-07-02T12:49:07Z</time>
      </trkpt>
      <trkpt lat="44.86803" lon="5.24236">
        <ele>1356.4</ele>
        <time>2024-07-02T12:49:08Z</time>
      </trkpt>
      <trkpt lat="44.86804" lon="5.24236">
        <ele>1356.2</ele>
        <time>2024-07-02T12:49:09Z</time>
      </trkpt>
      <trkpt lat="44.86805" lon="5.24236">
        <ele>1356.1</ele>
        <time>2024-07-02T12:49:10Z</time>
      </trkpt>
      <trkpt lat="44.86806" lon="5.24236">
        <ele>1355.8</ele>
        <time>2024-07-02T12:49:11Z</time>
      </trkpt>
      <trkpt lat="44.86807" lon="5.24235">
        <ele>1355.5</ele>
        <time>2024-07-02T12:49:12Z</time>
      </trkpt>
      <trkpt lat="44.86808" lon="5.24235">
        <ele>1355.3</ele>
        <time>2024-07-02T12:49:13Z</time>
      </trkpt>
      <trkpt lat="44.86809" lon="5.24235">
        <ele>1355.1</ele>
        <time>2024-07-02T12:49:14Z</time>
      </trkpt>
      <trkpt lat="44.86811" lon="5.24236">
        <ele>1354.9</ele>
        <time>2024-07-02T12:49:15Z</time>
      </trkpt>
      <trkpt lat="44.86812" lon="5.24236">
        <ele>1354.6</ele>
        <time>2024-07-02T12:49:16Z</time>
      </trkpt>
      <trkpt lat="44.86813" lon="5.24236">
        <ele>1354.3</ele>
        <time>2024-07-02T12:49:17Z</time>
      </trkpt>
      <trkpt lat="44.86814" lon="5.24236">
        <ele>1354.1</ele>
        <time>2024-07-02T12:49:18Z</time>
      </trkpt>
      <trkpt lat="44.86815" lon="5.24236">
        <ele>1353.9</ele>
        <time>2024-07-02T12:49:19Z</time>
      </trkpt>
      <trkpt lat="44.86816" lon="5.24237">
        <ele>1353.7</ele>
        <time>2024-07-02T12:49:20Z</time>
      </trkpt>
      <trkpt lat="44.86817" lon="5.24237">
        <ele>1353.4</ele>
        <time>2024-07-02T12:49:21Z</time>
      </trkpt>
      <trkpt lat="44.86819" lon="5.24237">
        <ele>1353.1</ele>
        <time>2024-07-02T12:49:22Z</time>
      </trkpt>
      <trkpt lat="44.8682" lon="5.24237">
        <ele>1352.9</ele>
        <time>2024-07-02T12:49:23Z</time>
      </trkpt>
      <trkpt lat="44.8682" lon="5.24237">
        <ele>1352.8</ele>
        <time>2024-07-02T12:49:24Z</time>
      </trkpt>
      <trkpt lat="44.86821" lon="5.24237">
        <ele>1352.6</ele>
        <time>2024-07-02T12:49:25Z</time>
      </trkpt>
      <trkpt lat="44.86822" lon="5.24237">
        <ele>1352.4</ele>
        <time>2024-07-02T12:49:26Z</time>
      </trkpt>
      <trkpt lat="44.86824" lon="5.24238">
        <ele>1352.1</ele>
        <time>2024-07-02T12:49:27Z</time>
      </trkpt>
      <trkpt lat="44.86824" lon="5.24237">
        <ele>1352</ele>
        <time>2024-07-02T12:49:28Z</time>
      </trkpt>
      <trkpt lat="44.86825" lon="5.24237">
        <ele>1351.8</ele>
        <time>2024-07-02T12:49:29Z</time>
      </trkpt>
      <trkpt lat="44.86826" lon="5.24238">
        <ele>1351.6</ele>
        <time>2024-07-02T12:49:30Z</time>
      </trkpt>
      <trkpt lat="44.86827" lon="5.24238">
        <ele>1351.4</ele>
        <time>2024-07-02T12:49:31Z</time>
      </trkpt>
      <trkpt lat="44.86829" lon="5.24239">
        <ele>1351.1</ele>
        <time>2024-07-02T12:49:32Z</time>
      </trkpt>
      <trkpt lat="44.86829" lon="5.24239">
        <ele>1350.9</ele>
        <time>2024-07-02T12:49:33Z</time>
      </trkpt>
      <trkpt lat="44.86831" lon="5.24238">
        <ele>1350.7</ele>
        <time>2024-07-02T12:49:34Z</time>
      </trkpt>
      <trkpt lat="44.86833" lon="5.24238">
        <ele>1350.4</ele>
        <time>2024-07-02T12:49:35Z</time>
      </trkpt>
      <trkpt lat="44.86834" lon="5.24238">
        <ele>1350.3</ele>
        <time>2024-07-02T12:49:36Z</time>
      </trkpt>
      <trkpt lat="44.86834" lon="5.24238">
        <ele>1350.1</ele>
        <time>2024-07-02T12:49:37Z</time>
      </trkpt>
      <trkpt lat="44.86835" lon="5.24238">
        <ele>1350</ele>
        <time>2024-07-02T12:49:38Z</time>
      </trkpt>
      <trkpt lat="44.86837" lon="5.24238">
        <ele>1349.8</ele>
        <time>2024-07-02T12:49:39Z</time>
      </trkpt>
      <trkpt lat="44.86838" lon="5.24238">
        <ele>1349.6</ele>
        <time>2024-07-02T12:49:40Z</time>
      </trkpt>
      <trkpt lat="44.86839" lon="5.24238">
        <ele>1349.5</ele>
        <time>2024-07-02T12:49:41Z</time>
      </trkpt>
      <trkpt lat="44.86841" lon="5.24238">
        <ele>1349.3</ele>
        <time>2024-07-02T12:49:42Z</time>
      </trkpt>
      <trkpt lat="44.86841" lon="5.24238">
        <ele>1349.2</ele>
        <time>2024-07-02T12:49:43Z</time>
      </trkpt>
      <trkpt lat="44.86842" lon="5.24238">
        <ele>1349.1</ele>
        <time>2024-07-02T12:49:44Z</time>
      </trkpt>
      <trkpt lat="44.86843" lon="5.24238">
        <ele>1349</ele>
        <time>2024-07-02T12:49:45Z</time>
      </trkpt>
      <trkpt lat="44.86844" lon="5.24237">
        <ele>1348.9</ele>
        <time>2024-07-02T12:49:46Z</time>
      </trkpt>
      <trkpt lat="44.86845" lon="5.24237">
        <ele>1348.8</ele>
        <time>2024-07-02T12:49:47Z</time>
      </trkpt>
      <trkpt lat="44.86846" lon="5.24236">
        <ele>1348.7</ele>
        <time>2024-07-02T12:49:48Z</time>
      </trkpt>
      <trkpt lat="44.86846" lon="5.24235">
        <ele>1348.6</ele>
        <time>2024-07-02T12:49:49Z</time>
      </trkpt>
      <trkpt lat="44.86847" lon="5.24234">
        <ele>1348.5</ele>
        <time>2024-07-02T12:49:50Z</time>
      </trkpt>
      <trkpt lat="44.86848" lon="5.24234">
        <ele>1348.4</ele>
        <time>2024-07-02T12:49:51Z</time>
      </trkpt>
      <trkpt lat="44.86849" lon="5.24232">
        <ele>1348.3</ele>
        <time>2024-07-02T12:49:52Z</time>
      </trkpt>
      <trkpt lat="44.8685" lon="5.24232">
        <ele>1348.2</ele>
        <time>2024-07-02T12:49:53Z</time>
      </trkpt>
      <trkpt lat="44.86851" lon="5.24231">
        <ele>1348.1</ele>
        <time>2024-07-02T12:49:54Z</time>
      </trkpt>
      <trkpt lat="44.86852" lon="5.2423">
        <ele>1348</ele>
        <time>2024-07-02T12:49:55Z</time>
      </trkpt>
      <trkpt lat="44.86853" lon="5.2423">
        <ele>1347.9</ele>
        <time>2024-07-02T12:49:56Z</time>
      </trkpt>
      <trkpt lat="44.86854" lon="5.24229">
        <ele>1347.8</ele>
        <time>2024-07-02T12:49:57Z</time>
      </trkpt>
      <trkpt lat="44.86855" lon="5.24229">
        <ele>1347.7</ele>
        <time>2024-07-02T12:49:58Z</time>
      </trkpt>
      <trkpt lat="44.86856" lon="5.24228">
        <ele>1347.6</ele>
        <time>2024-07-02T12:49:59Z</time>
      </trkpt>
      <trkpt lat="44.86857" lon="5.24227">
        <ele>1347.5</ele>
        <time>2024-07-02T12:50:00Z</time>
      </trkpt>
      <trkpt lat="44.86858" lon="5.24227">
        <ele>1347.5</ele>
        <time>2024-07-02T12:50:01Z</time>
      </trkpt>
      <trkpt lat="44.86859" lon="5.24226">
        <ele>1347.4</ele>
        <time>2024-07-02T12:50:02Z</time>
      </trkpt>
      <trkpt lat="44.8686" lon="5.24226">
        <ele>1347.3</ele>
        <time>2024-07-02T12:50:03Z</time>
      </trkpt>
      <trkpt lat="44.86861" lon="5.24225">
        <ele>1347.2</ele>
        <time>2024-07-02T12:50:04Z</time>
      </trkpt>
      <trkpt lat="44.86863" lon="5.24224">
        <ele>1347.1</ele>
        <time>2024-07-02T12:50:05Z</time>
      </trkpt>
      <trkpt lat="44.86864" lon="5.24224">
        <ele>1347</ele>
        <time>2024-07-02T12:50:06Z</time>
      </trkpt>
      <trkpt lat="44.86865" lon="5.24224">
        <ele>1347</ele>
        <time>2024-07-02T12:50:07Z</time>
      </trkpt>
      <trkpt lat="44.86865" lon="5.24223">
        <ele>1346.9</ele>
        <time>2024-07-02T12:50:08Z</time>
      </trkpt>
      <trkpt lat="44.86866" lon="5.24223">
        <ele>1346.9</ele>
        <time>2024-07-02T12:50:09Z</time>
      </trkpt>
      <trkpt lat="44.86867" lon="5.24222">
        <ele>1346.8</ele>
        <time>2024-07-02T12:50:10Z</time>
      </trkpt>
      <trkpt lat="44.86868" lon="5.24222">
        <ele>1346.7</ele>
        <time>2024-07-02T12:50:11Z</time>
      </trkpt>
      <trkpt lat="44.8687" lon="5.2422">
        <ele>1346.6</ele>
        <time>2024-07-02T12:50:12Z</time>
      </trkpt>
      <trkpt lat="44.86871" lon="5.2422">
        <ele>1346.6</ele>
        <time>2024-07-02T12:50:13Z</time>
      </trkpt>
      <trkpt lat="44.86871" lon="5.2422">
        <ele>1346.5</ele>
        <time>2024-07-02T12:50:14Z</time>
      </trkpt>
      <trkpt lat="44.86873" lon="5.24219">
        <ele>1346.5</ele>
        <time>2024-07-02T12:50:15Z</time>
      </trkpt>
      <trkpt lat="44.86874" lon="5.24219">
        <ele>1346.4</ele>
        <time>2024-07-02T12:50:16Z</time>
      </trkpt>
      <trkpt lat="44.86875" lon="5.24219">
        <ele>1346.4</ele>
        <time>2024-07-02T12:50:17Z</time>
      </trkpt>
      <trkpt lat="44.86876" lon="5.24218">
        <ele>1346.3</ele>
        <time>2024-07-02T12:50:18Z</time>
      </trkpt>
      <trkpt lat="44.86877" lon="5.24218">
        <ele>1346.3</ele>
        <time>2024-07-02T12:50:19Z</time>
      </trkpt>
      <trkpt lat="44.86878" lon="5.24218">
        <ele>1346.2</ele>
        <time>2024-07-02T12:50:20Z</time>
      </trkpt>
      <trkpt lat="44.86879" lon="5.24217">
        <ele>1346.2</ele>
        <time>2024-07-02T12:50:21Z</time>
      </trkpt>
      <trkpt lat="44.8688" lon="5.24216">
        <ele>1346.2</ele>
        <time>2024-07-02T12:50:22Z</time>
      </trkpt>
      <trkpt lat="44.86881" lon="5.24216">
        <ele>1346.1</ele>
        <time>2024-07-02T12:50:23Z</time>
      </trkpt>
      <trkpt lat="44.86881" lon="5.24216">
        <ele>1346.1</ele>
        <time>2024-07-02T12:50:24Z</time>
      </trkpt>
      <trkpt lat="44.86882" lon="5.24215">
        <ele>1346.1</ele>
        <time>2024-07-02T12:50:25Z</time>
      </trkpt>
      <trkpt lat="44.86883" lon="5.24215">
        <ele>1346.1</ele>
        <time>2024-07-02T12:50:26Z</time>
      </trkpt>
      <trkpt lat="44.86884" lon="5.24214">
        <ele>1346</ele>
        <time>2024-07-02T12:50:27Z</time>
      </trkpt>
      <trkpt lat="44.86886" lon="5.24213">
        <ele>1346</ele>
        <time>2024-07-02T12:50:28Z</time>
      </trkpt>
      <trkpt lat="44.86886" lon="5.24213">
        <ele>1346</ele>
        <time>2024-07-02T12:50:29Z</time>
      </trkpt>
      <trkpt lat="44.86887" lon="5.24212">
        <ele>1345.9</ele>
        <time>2024-07-02T12:50:30Z</time>
      </trkpt>
      <trkpt lat="44.86887" lon="5.24212">
        <ele>1345.9</ele>
        <time>2024-07-02T12:50:31Z</time>
      </trkpt>
      <trkpt lat="44.86888" lon="5.24211">
        <ele>1345.9</ele>
        <time>2024-07-02T12:50:32Z</time>
      </trkpt>
      <trkpt lat="44.86889" lon="5.2421">
        <ele>1345.9</ele>
        <time>2024-07-02T12:50:33Z</time>
      </trkpt>
      <trkpt lat="44.8689" lon="5.2421">
        <ele>1345.8</ele>
        <time>2024-07-02T12:50:34Z</time>
      </trkpt>
      <trkpt lat="44.86891" lon="5.24209">
        <ele>1345.8</ele>
        <time>2024-07-02T12:50:35Z</time>
      </trkpt>
      <trkpt lat="44.86892" lon="5.24208">
        <ele>1345.8</ele>
        <time>2024-07-02T12:50:36Z</time>
      </trkpt>
      <trkpt lat="44.86893" lon="5.24208">
        <ele>1345.7</ele>
        <time>2024-07-02T12:50:37Z</time>
      </trkpt>
      <trkpt lat="44.86894" lon="5.24207">
        <ele>1345.7</ele>
        <time>2024-07-02T12:50:38Z</time>
      </trkpt>
      <trkpt lat="44.86895" lon="5.24206">
        <ele>1345.7</ele>
        <time>2024-07-02T12:50:39Z</time>
      </trkpt>
      <trkpt lat="44.86896" lon="5.24206">
        <ele>1345.6</ele>
        <time>2024-07-02T12:50:40Z</time>
      </trkpt>
      <trkpt lat="44.86898" lon="5.24205">
        <ele>1345.6</ele>
        <time>2024-07-02T12:50:41Z</time>
      </trkpt>
      <trkpt lat="44.86899" lon="5.24204">
        <ele>1345.5</ele>
        <time>2024-07-02T12:50:42Z</time>
      </trkpt>
      <trkpt lat="44.869" lon="5.24204">
        <ele>1345.5</ele>
        <time>2024-07-02T12:50:43Z</time>
      </trkpt>
      <trkpt lat="44.86901" lon="5.24204">
        <ele>1345.5</ele>
        <time>2024-07-02T12:50:44Z</time>
      </trkpt>
      <trkpt lat="44.86902" lon="5.24204">
        <ele>1345.4</ele>
        <time>2024-07-02T12:50:45Z</time>
      </trkpt>
      <trkpt lat="44.86903" lon="5.24203">
        <ele>1345.4</ele>
        <time>2024-07-02T12:50:46Z</time>
      </trkpt>
      <trkpt lat="44.86904" lon="5.24202">
        <ele>1345.4</ele>
        <time>2024-07-02T12:50:47Z</time>
      </trkpt>
      <trkpt lat="44.86905" lon="5.24202">
        <ele>1345.3</ele>
        <time>2024-07-02T12:50:48Z</time>
      </trkpt>
      <trkpt lat="44.86905" lon="5.24201">
        <ele>1345.3</ele>
        <time>2024-07-02T12:50:49Z</time>
      </trkpt>
      <trkpt lat="44.86908" lon="5.242">
        <ele>1345.2</ele>
        <time>2024-07-02T12:50:50Z</time>
      </trkpt>
      <trkpt lat="44.86909" lon="5.242">
        <ele>1345.2</ele>
        <time>2024-07-02T12:50:51Z</time>
      </trkpt>
      <trkpt lat="44.8691" lon="5.24199">
        <ele>1345.1</ele>
        <time>2024-07-02T12:50:52Z</time>
      </trkpt>
      <trkpt lat="44.8691" lon="5.24199">
        <ele>1345.1</ele>
        <time>2024-07-02T12:50:53Z</time>
      </trkpt>
      <trkpt lat="44.86911" lon="5.24199">
        <ele>1345</ele>
        <time>2024-07-02T12:50:54Z</time>
      </trkpt>
      <trkpt lat="44.86912" lon="5.24198">
        <ele>1345</ele>
        <time>2024-07-02T12:50:55Z</time>
      </trkpt>
      <trkpt lat="44.86914" lon="5.24197">
        <ele>1344.9</ele>
        <time>2024-07-02T12:50:56Z</time>
      </trkpt>
      <trkpt lat="44.86915" lon="5.24197">
        <ele>1344.8</ele>
        <time>2024-07-02T12:50:57Z</time>
      </trkpt>
      <trkpt lat="44.86915" lon="5.24196">
        <ele>1344.8</ele>
        <time>2024-07-02T12:50:58Z</time>
      </trkpt>
      <trkpt lat="44.86916" lon="5.24195">
        <ele>1344.7</ele>
        <time>2024-07-02T12:50:59Z</time>
      </trkpt>
      <trkpt lat="44.86917" lon="5.24195">
        <ele>1344.7</ele>
        <time>2024-07-02T12:51:00Z</time>
      </trkpt>
      <trkpt lat="44.86918" lon="5.24194">
        <ele>1344.6</ele>
        <time>2024-07-02T12:51:01Z</time>
      </trkpt>
      <trkpt lat="44.86919" lon="5.24193">
        <ele>1344.6</ele>
        <time>2024-07-02T12:51:02Z</time>
      </trkpt>
      <trkpt lat="44.8692" lon="5.24193">
        <ele>1344.5</ele>
        <time>2024-07-02T12:51:03Z</time>
      </trkpt>
      <trkpt lat="44.86922" lon="5.24193">
        <ele>1344.4</ele>
        <time>2024-07-02T12:51:04Z</time>
      </trkpt>
      <trkpt lat="44.86924" lon="5.24192">
        <ele>1344.3</ele>
        <time>2024-07-02T12:51:05Z</time>
      </trkpt>
      <trkpt lat="44.86924" lon="5.24192">
        <ele>1344.2</ele>
        <time>2024-07-02T12:51:06Z</time>
      </trkpt>
      <trkpt lat="44.86925" lon="5.24192">
        <ele>1344.2</ele>
        <time>2024-07-02T12:51:07Z</time>
      </trkpt>
      <trkpt lat="44.86926" lon="5.24192">
        <ele>1344.1</ele>
        <time>2024-07-02T12:51:08Z</time>
      </trkpt>
      <trkpt lat="44.86927" lon="5.24191">
        <ele>1344</ele>
        <time>2024-07-02T12:51:09Z</time>
      </trkpt>
      <trkpt lat="44.86928" lon="5.24191">
        <ele>1343.9</ele>
        <time>2024-07-02T12:51:10Z</time>
      </trkpt>
      <trkpt lat="44.8693" lon="5.24191">
        <ele>1343.9</ele>
        <time>2024-07-02T12:51:11Z</time>
      </trkpt>
      <trkpt lat="44.86931" lon="5.2419">
        <ele>1343.8</ele>
        <time>2024-07-02T12:51:12Z</time>
      </trkpt>
      <trkpt lat="44.86932" lon="5.2419">
        <ele>1343.7</ele>
        <time>2024-07-02T12:51:13Z</time>
      </trkpt>
      <trkpt lat="44.86933" lon="5.24189">
        <ele>1343.6</ele>
        <time>2024-07-02T12:51:14Z</time>
      </trkpt>
      <trkpt lat="44.86934" lon="5.24189">
        <ele>1343.5</ele>
        <time>2024-07-02T12:51:15Z</time>
      </trkpt>
      <trkpt lat="44.86935" lon="5.24188">
        <ele>1343.4</ele>
        <time>2024-07-02T12:51:16Z</time>
      </trkpt>
      <trkpt lat="44.86936" lon="5.24188">
        <ele>1343.4</ele>
        <time>2024-07-02T12:51:17Z</time>
      </trkpt>
      <trkpt lat="44.86937" lon="5.24188">
        <ele>1343.3</ele>
        <time>2024-07-02T12:51:18Z</time>
      </trkpt>
      <trkpt lat="44.86938" lon="5.24187">
        <ele>1343.2</ele>
        <time>2024-07-02T12:51:19Z</time>
      </trkpt>
      <trkpt lat="44.86939" lon="5.24187">
        <ele>1343.1</ele>
        <time>2024-07-02T12:51:20Z</time>
      </trkpt>
      <trkpt lat="44.86941" lon="5.24186">
        <ele>1343</ele>
        <time>2024-07-02T12:51:21Z</time>
      </trkpt>
      <trkpt lat="44.86943" lon="5.24185">
        <ele>1342.8</ele>
        <time>2024-07-02T12:51:22Z</time>
      </trkpt>
      <trkpt lat="44.86943" lon="5.24184">
        <ele>1342.8</ele>
        <time>2024-07-02T12:51:23Z</time>
      </trkpt>
      <trkpt lat="44.86944" lon="5.24184">
        <ele>1342.7</ele>
        <time>2024-07-02T12:51:24Z</time>
      </trkpt>
      <trkpt lat="44.86945" lon="5.24183">
        <ele>1342.6</ele>
        <time>2024-07-02T12:51:25Z</time>
      </trkpt>
      <trkpt lat="44.86946" lon="5.24183">
        <ele>1342.6</ele>
        <time>2024-07-02T12:51:26Z</time>
      </trkpt>
      <trkpt lat="44.86947" lon="5.24183">
        <ele>1342.5</ele>
        <time>2024-07-02T12:51:27Z</time>
      </trkpt>
      <trkpt lat="44.86948" lon="5.24183">
        <ele>1342.4</ele>
        <time>2024-07-02T12:51:28Z</time>
      </trkpt>
      <trkpt lat="44.86949" lon="5.24182">
        <ele>1342.3</ele>
        <time>2024-07-02T12:51:29Z</time>
      </trkpt>
      <trkpt lat="44.8695" lon="5.24182">
        <ele>1342.2</ele>
        <time>2024-07-02T12:51:30Z</time>
      </trkpt>
      <trkpt lat="44.86951" lon="5.24182">
        <ele>1342.2</ele>
        <time>2024-07-02T12:51:31Z</time>
      </trkpt>
      <trkpt lat="44.86952" lon="5.24181">
        <ele>1342</ele>
        <time>2024-07-02T12:51:32Z</time>
      </trkpt>
      <trkpt lat="44.86953" lon="5.24181">
        <ele>1342</ele>
        <time>2024-07-02T12:51:33Z</time>
      </trkpt>
      <trkpt lat="44.86954" lon="5.2418">
        <ele>1341.9</ele>
        <time>2024-07-02T12:51:34Z</time>
      </trkpt>
      <trkpt lat="44.86955" lon="5.24179">
        <ele>1341.8</ele>
        <time>2024-07-02T12:51:35Z</time>
      </trkpt>
      <trkpt lat="44.86956" lon="5.24178">
        <ele>1341.7</ele>
        <time>2024-07-02T12:51:36Z</time>
      </trkpt>
      <trkpt lat="44.86957" lon="5.24178">
        <ele>1341.6</ele>
        <time>2024-07-02T12:51:37Z</time>
      </trkpt>
      <trkpt lat="44.86958" lon="5.24178">
        <ele>1341.5</ele>
        <time>2024-07-02T12:51:38Z</time>
      </trkpt>
      <trkpt lat="44.86959" lon="5.24177">
        <ele>1341.4</ele>
        <time>2024-07-02T12:51:39Z</time>
      </trkpt>
      <trkpt lat="44.8696" lon="5.24177">
        <ele>1341.3</ele>
        <time>2024-07-02T12:51:40Z</time>
      </trkpt>
      <trkpt lat="44.86961" lon="5.24177">
        <ele>1341.2</ele>
        <time>2024-07-02T12:51:41Z</time>
      </trkpt>
      <trkpt lat="44.86962" lon="5.24176">
        <ele>1341.1</ele>
        <time>2024-07-02T12:51:42Z</time>
      </trkpt>
      <trkpt lat="44.86963" lon="5.24176">
        <ele>1341</ele>
        <time>2024-07-02T12:51:43Z</time>
      </trkpt>
      <trkpt lat="44.86964" lon="5.24175">
        <ele>1340.9</ele>
        <time>2024-07-02T12:51:44Z</time>
      </trkpt>
      <trkpt lat="44.86965" lon="5.24175">
        <ele>1340.8</ele>
        <time>2024-07-02T12:51:45Z</time>
      </trkpt>
      <trkpt lat="44.86966" lon="5.24174">
        <ele>1340.7</ele>
        <time>2024-07-02T12:51:46Z</time>
      </trkpt>
      <trkpt lat="44.86967" lon="5.24173">
        <ele>1340.6</ele>
        <time>2024-07-02T12:51:47Z</time>
      </trkpt>
      <trkpt lat="44.86968" lon="5.24173">
        <ele>1340.5</ele>
        <time>2024-07-02T12:51:48Z</time>
      </trkpt>
      <trkpt lat="44.8697" lon="5.24172">
        <ele>1340.4</ele>
        <time>2024-07-02T12:51:49Z</time>
      </trkpt>
      <trkpt lat="44.86971" lon="5.24172">
        <ele>1340.3</ele>
        <time>2024-07-02T12:51:50Z</time>
      </trkpt>
      <trkpt lat="44.86972" lon="5.24172">
        <ele>1340.2</ele>
        <time>2024-07-02T12:51:51Z</time>
      </trkpt>
      <trkpt lat="44.86973" lon="5.24172">
        <ele>1340.1</ele>
        <time>2024-07-02T12:51:52Z</time>
      </trkpt>
      <trkpt lat="44.86975" lon="5.24172">
        <ele>1340</ele>
        <time>2024-07-02T12:51:53Z</time>
      </trkpt>
      <trkpt lat="44.86977" lon="5.24172">
        <ele>1339.8</ele>
        <time>2024-07-02T12:51:54Z</time>
      </trkpt>
      <trkpt lat="44.86978" lon="5.24171">
        <ele>1339.7</ele>
        <time>2024-07-02T12:51:55Z</time>
      </trkpt>
      <trkpt lat="44.86979" lon="5.24171">
        <ele>1339.6</ele>
        <time>2024-07-02T12:51:56Z</time>
      </trkpt>
      <trkpt lat="44.86981" lon="5.24171">
        <ele>1339.4</ele>
        <time>2024-07-02T12:51:57Z</time>
      </trkpt>
      <trkpt lat="44.86982" lon="5.2417">
        <ele>1339.3</ele>
        <time>2024-07-02T12:51:58Z</time>
      </trkpt>
      <trkpt lat="44.86982" lon="5.2417">
        <ele>1339.3</ele>
        <time>2024-07-02T12:51:59Z</time>
      </trkpt>
      <trkpt lat="44.86985" lon="5.24169">
        <ele>1339.1</ele>
        <time>2024-07-02T12:52:00Z</time>
      </trkpt>
      <trkpt lat="44.86985" lon="5.24169">
        <ele>1339</ele>
        <time>2024-07-02T12:52:01Z</time>
      </trkpt>
      <trkpt lat="44.86986" lon="5.24169">
        <ele>1338.9</ele>
        <time>2024-07-02T12:52:02Z</time>
      </trkpt>
      <trkpt lat="44.86987" lon="5.24168">
        <ele>1338.8</ele>
        <time>2024-07-02T12:52:03Z</time>
      </trkpt>
      <trkpt lat="44.86988" lon="5.24168">
        <ele>1338.7</ele>
        <time>2024-07-02T12:52:04Z</time>
      </trkpt>
      <trkpt lat="44.8699" lon="5.24168">
        <ele>1338.6</ele>
        <time>2024-07-02T12:52:05Z</time>
      </trkpt>
      <trkpt lat="44.86991" lon="5.24167">
        <ele>1338.5</ele>
        <time>2024-07-02T12:52:06Z</time>
      </trkpt>
      <trkpt lat="44.86992" lon="5.24167">
        <ele>1338.3</ele>
        <time>2024-07-02T12:52:07Z</time>
      </trkpt>
      <trkpt lat="44.86993" lon="5.24167">
        <ele>1338.3</ele>
        <time>2024-07-02T12:52:08Z</time>
      </trkpt>
      <trkpt lat="44.86994" lon="5.24167">
        <ele>1338.1</ele>
        <time>2024-07-02T12:52:09Z</time>
      </trkpt>
      <trkpt lat="44.86995" lon="5.24166">
        <ele>1338</ele>
        <time>2024-07-02T12:52:10Z</time>
      </trkpt>
      <trkpt lat="44.86996" lon="5.24166">
        <ele>1337.9</ele>
        <time>2024-07-02T12:52:11Z</time>
      </trkpt>
      <trkpt lat="44.86998" lon="5.24166">
        <ele>1337.8</ele>
        <time>2024-07-02T12:52:12Z</time>
      </trkpt>
      <trkpt lat="44.86999" lon="5.24166">
        <ele>1337.7</ele>
        <time>2024-07-02T12:52:13Z</time>
      </trkpt>
      <trkpt lat="44.87" lon="5.24165">
        <ele>1337.6</ele>
        <time>2024-07-02T12:52:14Z</time>
      </trkpt>
      <trkpt lat="44.87001" lon="5.24165">
        <ele>1337.4</ele>
        <time>2024-07-02T12:52:15Z</time>
      </trkpt>
      <trkpt lat="44.87002" lon="5.24165">
        <ele>1337.3</ele>
        <time>2024-07-02T12:52:16Z</time>
      </trkpt>
      <trkpt lat="44.87003" lon="5.24165">
        <ele>1337.2</ele>
        <time>2024-07-02T12:52:17Z</time>
      </trkpt>
      <trkpt lat="44.87005" lon="5.24165">
        <ele>1337</ele>
        <time>2024-07-02T12:52:18Z</time>
      </trkpt>
      <trkpt lat="44.87006" lon="5.24165">
        <ele>1336.9</ele>
        <time>2024-07-02T12:52:19Z</time>
      </trkpt>
      <trkpt lat="44.87007" lon="5.24165">
        <ele>1336.8</ele>
        <time>2024-07-02T12:52:20Z</time>
      </trkpt>
      <trkpt lat="44.87009" lon="5.24165">
        <ele>1336.6</ele>
        <time>2024-07-02T12:52:21Z</time>
      </trkpt>
      <trkpt lat="44.8701" lon="5.24165">
        <ele>1336.5</ele>
        <time>2024-07-02T12:52:22Z</time>
      </trkpt>
      <trkpt lat="44.87011" lon="5.24165">
        <ele>1336.4</ele>
        <time>2024-07-02T12:52:23Z</time>
      </trkpt>
      <trkpt lat="44.87012" lon="5.24165">
        <ele>1336.3</ele>
        <time>2024-07-02T12:52:24Z</time>
      </trkpt>
      <trkpt lat="44.87013" lon="5.24165">
        <ele>1336.2</ele>
        <time>2024-07-02T12:52:25Z</time>
      </trkpt>
      <trkpt lat="44.87014" lon="5.24165">
        <ele>1336</ele>
        <time>2024-07-02T12:52:26Z</time>
      </trkpt>
      <trkpt lat="44.87015" lon="5.24165">
        <ele>1335.9</ele>
        <time>2024-07-02T12:52:27Z</time>
      </trkpt>
      <trkpt lat="44.87017" lon="5.24165">
        <ele>1335.7</ele>
        <time>2024-07-02T12:52:28Z</time>
      </trkpt>
      <trkpt lat="44.87018" lon="5.24166">
        <ele>1335.6</ele>
        <time>2024-07-02T12:52:29Z</time>
      </trkpt>
      <trkpt lat="44.87019" lon="5.24166">
        <ele>1335.5</ele>
        <time>2024-07-02T12:52:30Z</time>
      </trkpt>
      <trkpt lat="44.8702" lon="5.24166">
        <ele>1335.3</ele>
        <time>2024-07-02T12:52:31Z</time>
      </trkpt>
      <trkpt lat="44.87021" lon="5.24166">
        <ele>1335.2</ele>
        <time>2024-07-02T12:52:32Z</time>
      </trkpt>
      <trkpt lat="44.87023" lon="5.24166">
        <ele>1335</ele>
        <time>2024-07-02T12:52:33Z</time>
      </trkpt>
      <trkpt lat="44.87024" lon="5.24166">
        <ele>1334.9</ele>
        <time>2024-07-02T12:52:34Z</time>
      </trkpt>
      <trkpt lat="44.87025" lon="5.24166">
        <ele>1334.8</ele>
        <time>2024-07-02T12:52:35Z</time>
      </trkpt>
      <trkpt lat="44.87026" lon="5.24166">
        <ele>1334.7</ele>
        <time>2024-07-02T12:52:36Z</time>
      </trkpt>
      <trkpt lat="44.87027" lon="5.24166">
        <ele>1334.5</ele>
        <time>2024-07-02T12:52:37Z</time>
      </trkpt>
      <trkpt lat="44.87029" lon="5.24167">
        <ele>1334.3</ele>
        <time>2024-07-02T12:52:38Z</time>
      </trkpt>
      <trkpt lat="44.8703" lon="5.24167">
        <ele>1334.2</ele>
        <time>2024-07-02T12:52:39Z</time>
      </trkpt>
      <trkpt lat="44.87031" lon="5.24167">
        <ele>1334.1</ele>
        <time>2024-07-02T12:52:40Z</time>
      </trkpt>
      <trkpt lat="44.87032" lon="5.24167">
        <ele>1334</ele>
        <time>2024-07-02T12:52:41Z</time>
      </trkpt>
      <trkpt lat="44.87033" lon="5.24167">
        <ele>1333.9</ele>
        <time>2024-07-02T12:52:42Z</time>
      </trkpt>
      <trkpt lat="44.87034" lon="5.24167">
        <ele>1333.7</ele>
        <time>2024-07-02T12:52:43Z</time>
      </trkpt>
      <trkpt lat="44.87035" lon="5.24167">
        <ele>1333.6</ele>
        <time>2024-07-02T12:52:44Z</time>
      </trkpt>
      <trkpt lat="44.87036" lon="5.24167">
        <ele>1333.5</ele>
        <time>2024-07-02T12:52:45Z</time>
      </trkpt>
      <trkpt lat="44.87038" lon="5.24167">
        <ele>1333.3</ele>
        <time>2024-07-02T12:52:46Z</time>
      </trkpt>
      <trkpt lat="44.87038" lon="5.24166">
        <ele>1333.2</ele>
        <time>2024-07-02T12:52:47Z</time>
      </trkpt>
      <trkpt lat="44.8704" lon="5.24166">
        <ele>1333.1</ele>
        <time>2024-07-02T12:52:48Z</time>
      </trkpt>
      <trkpt lat="44.87041" lon="5.24165">
        <ele>1333</ele>
        <time>2024-07-02T12:52:49Z</time>
      </trkpt>
      <trkpt lat="44.87042" lon="5.24165">
        <ele>1332.8</ele>
        <time>2024-07-02T12:52:50Z</time>
      </trkpt>
      <trkpt lat="44.87043" lon="5.24164">
        <ele>1332.7</ele>
        <time>2024-07-02T12:52:51Z</time>
      </trkpt>
      <trkpt lat="44.87044" lon="5.24163">
        <ele>1332.6</ele>
        <time>2024-07-02T12:52:52Z</time>
      </trkpt>
      <trkpt lat="44.87045" lon="5.24163">
        <ele>1332.4</ele>
        <time>2024-07-02T12:52:53Z</time>
      </trkpt>
      <trkpt lat="44.87046" lon="5.24163">
        <ele>1332.3</ele>
        <time>2024-07-02T12:52:54Z</time>
      </trkpt>
      <trkpt lat="44.87047" lon="5.24162">
        <ele>1332.2</ele>
        <time>2024-07-02T12:52:55Z</time>
      </trkpt>
      <trkpt lat="44.87048" lon="5.24163">
        <ele>1332.1</ele>
        <time>2024-07-02T12:52:56Z</time>
      </trkpt>
      <trkpt lat="44.87049" lon="5.24163">
        <ele>1332</ele>
        <time>2024-07-02T12:52:57Z</time>
      </trkpt>
      <trkpt lat="44.8705" lon="5.24163">
        <ele>1331.9</ele>
        <time>2024-07-02T12:52:58Z</time>
      </trkpt>
      <trkpt lat="44.87051" lon="5.24163">
        <ele>1331.8</ele>
        <time>2024-07-02T12:52:59Z</time>
      </trkpt>
      <trkpt lat="44.87052" lon="5.24163">
        <ele>1331.7</ele>
        <time>2024-07-02T12:53:00Z</time>
      </trkpt>
      <trkpt lat="44.87054" lon="5.24162">
        <ele>1331.5</ele>
        <time>2024-07-02T12:53:01Z</time>
      </trkpt>
      <trkpt lat="44.87055" lon="5.24162">
        <ele>1331.4</ele>
        <time>2024-07-02T12:53:02Z</time>
      </trkpt>
      <trkpt lat="44.87056" lon="5.24162">
        <ele>1331.3</ele>
        <time>2024-07-02T12:53:03Z</time>
      </trkpt>
      <trkpt lat="44.87056" lon="5.24162">
        <ele>1331.2</ele>
        <time>2024-07-02T12:53:04Z</time>
      </trkpt>
      <trkpt lat="44.87057" lon="5.24163">
        <ele>1331.1</ele>
        <time>2024-07-02T12:53:05Z</time>
      </trkpt>
      <trkpt lat="44.87059" lon="5.24162">
        <ele>1331</ele>
        <time>2024-07-02T12:53:06Z</time>
      </trkpt>
      <trkpt lat="44.8706" lon="5.24163">
        <ele>1330.9</ele>
        <time>2024-07-02T12:53:07Z</time>
      </trkpt>
      <trkpt lat="44.87061" lon="5.24162">
        <ele>1330.7</ele>
        <time>2024-07-02T12:53:08Z</time>
      </trkpt>
      <trkpt lat="44.87062" lon="5.24162">
        <ele>1330.6</ele>
        <time>2024-07-02T12:53:09Z</time>
      </trkpt>
      <trkpt lat="44.87063" lon="5.24162">
        <ele>1330.5</ele>
        <time>2024-07-02T12:53:10Z</time>
      </trkpt>
      <trkpt lat="44.87064" lon="5.24162">
        <ele>1330.4</ele>
        <time>2024-07-02T12:53:11Z</time>
      </trkpt>
      <trkpt lat="44.87065" lon="5.24162">
        <ele>1330.3</ele>
        <time>2024-07-02T12:53:12Z</time>
      </trkpt>
      <trkpt lat="44.87067" lon="5.24161">
        <ele>1330.2</ele>
        <time>2024-07-02T12:53:13Z</time>
      </trkpt>
      <trkpt lat="44.87068" lon="5.24161">
        <ele>1330.1</ele>
        <time>2024-07-02T12:53:14Z</time>
      </trkpt>
      <trkpt lat="44.87069" lon="5.24161">
        <ele>1330</ele>
        <time>2024-07-02T12:53:15Z</time>
      </trkpt>
      <trkpt lat="44.8707" lon="5.24161">
        <ele>1329.8</ele>
        <time>2024-07-02T12:53:16Z</time>
      </trkpt>
      <trkpt lat="44.87071" lon="5.24161">
        <ele>1329.7</ele>
        <time>2024-07-02T12:53:17Z</time>
      </trkpt>
      <trkpt lat="44.87072" lon="5.24161">
        <ele>1329.6</ele>
        <time>2024-07-02T12:53:18Z</time>
      </trkpt>
      <trkpt lat="44.87073" lon="5.24161">
        <ele>1329.5</ele>
        <time>2024-07-02T12:53:19Z</time>
      </trkpt>
      <trkpt lat="44.87074" lon="5.24161">
        <ele>1329.4</ele>
        <time>2024-07-02T12:53:20Z</time>
      </trkpt>
      <trkpt lat="44.87076" lon="5.24161">
        <ele>1329.3</ele>
        <time>2024-07-02T12:53:21Z</time>
      </trkpt>
      <trkpt lat="44.87077" lon="5.24161">
        <ele>1329.2</ele>
        <time>2024-07-02T12:53:22Z</time>
      </trkpt>
      <trkpt lat="44.87078" lon="5.24161">
        <ele>1329</ele>
        <time>2024-07-02T12:53:23Z</time>
      </trkpt>
      <trkpt lat="44.87079" lon="5.24161">
        <ele>1328.9</ele>
        <time>2024-07-02T12:53:24Z</time>
      </trkpt>
      <trkpt lat="44.8708" lon="5.24161">
        <ele>1328.8</ele>
        <time>2024-07-02T12:53:25Z</time>
      </trkpt>
      <trkpt lat="44.87083" lon="5.24161">
        <ele>1328.6</ele>
        <time>2024-07-02T12:53:26Z</time>
      </trkpt>
      <trkpt lat="44.87083" lon="5.24161">
        <ele>1328.5</ele>
        <time>2024-07-02T12:53:27Z</time>
      </trkpt>
      <trkpt lat="44.87084" lon="5.24161">
        <ele>1328.4</ele>
        <time>2024-07-02T12:53:28Z</time>
      </trkpt>
      <trkpt lat="44.87085" lon="5.24161">
        <ele>1328.3</ele>
        <time>2024-07-02T12:53:29Z</time>
      </trkpt>
      <trkpt lat="44.87087" lon="5.24161">
        <ele>1328.2</ele>
        <time>2024-07-02T12:53:30Z</time>
      </trkpt>
      <trkpt lat="44.87088" lon="5.24161">
        <ele>1328</ele>
        <time>2024-07-02T12:53:31Z</time>
      </trkpt>
      <trkpt lat="44.87089" lon="5.24161">
        <ele>1327.9</ele>
        <time>2024-07-02T12:53:32Z</time>
      </trkpt>
      <trkpt lat="44.8709" lon="5.24161">
        <ele>1327.8</ele>
        <time>2024-07-02T12:53:33Z</time>
      </trkpt>
      <trkpt lat="44.87091" lon="5.24161">
        <ele>1327.7</ele>
        <time>2024-07-02T12:53:34Z</time>
      </trkpt>
      <trkpt lat="44.87091" lon="5.24161">
        <ele>1327.7</ele>
        <time>2024-07-02T12:53:35Z</time>
      </trkpt>
      <trkpt lat="44.87092" lon="5.2416">
        <ele>1327.5</ele>
        <time>2024-07-02T12:53:36Z</time>
      </trkpt>
      <trkpt lat="44.87091" lon="5.2416">
        <ele>1327.4</ele>
        <time>2024-07-02T12:53:37Z</time>
      </trkpt>
      <trkpt lat="44.87091" lon="5.2416">
        <ele>1327.4</ele>
        <time>2024-07-02T12:53:38Z</time>
      </trkpt>
      <trkpt lat="44.87091" lon="5.2416">
        <ele>1327.4</ele>
        <time>2024-07-02T12:53:39Z</time>
      </trkpt>
      <trkpt lat="44.87091" lon="5.2416">
        <ele>1327.4</ele>
        <time>2024-07-02T12:53:40Z</time>
      </trkpt>
      <trkpt lat="44.87091" lon="5.2416">
        <ele>1327.4</ele>
        <time>2024-07-02T12:53:41Z</time>
      </trkpt>
      <trkpt lat="44.87091" lon="5.2416">
        <ele>1327.4</ele>
        <time>2024-07-02T12:53:42Z</time>
      </trkpt>
      <trkpt lat="44.87092" lon="5.24159">
        <ele>1327.3</ele>
        <time>2024-07-02T12:53:43Z</time>
      </trkpt>
      <trkpt lat="44.87093" lon="5.24159">
        <ele>1327.2</ele>
        <time>2024-07-02T12:53:44Z</time>
      </trkpt>
      <trkpt lat="44.87094" lon="5.24159">
        <ele>1327.1</ele>
        <time>2024-07-02T12:53:45Z</time>
      </trkpt>
      <trkpt lat="44.87095" lon="5.24159">
        <ele>1326.9</ele>
        <time>2024-07-02T12:53:46Z</time>
      </trkpt>
      <trkpt lat="44.87097" lon="5.24159">
        <ele>1326.7</ele>
        <time>2024-07-02T12:53:47Z</time>
      </trkpt>
      <trkpt lat="44.87099" lon="5.24159">
        <ele>1326.5</ele>
        <time>2024-07-02T12:53:48Z</time>
      </trkpt>
      <trkpt lat="44.871" lon="5.24158">
        <ele>1326.3</ele>
        <time>2024-07-02T12:53:49Z</time>
      </trkpt>
      <trkpt lat="44.87102" lon="5.24159">
        <ele>1326</ele>
        <time>2024-07-02T12:53:50Z</time>
      </trkpt>
      <trkpt lat="44.87103" lon="5.24159">
        <ele>1325.9</ele>
        <time>2024-07-02T12:53:51Z</time>
      </trkpt>
      <trkpt lat="44.87103" lon="5.24159">
        <ele>1325.8</ele>
        <time>2024-07-02T12:53:52Z</time>
      </trkpt>
      <trkpt lat="44.87106" lon="5.24158">
        <ele>1325.4</ele>
        <time>2024-07-02T12:53:53Z</time>
      </trkpt>
      <trkpt lat="44.87106" lon="5.24158">
        <ele>1325.3</ele>
        <time>2024-07-02T12:53:54Z</time>
      </trkpt>
      <trkpt lat="44.87107" lon="5.24158">
        <ele>1325.2</ele>
        <time>2024-07-02T12:53:55Z</time>
      </trkpt>
      <trkpt lat="44.87108" lon="5.24158">
        <ele>1325</ele>
        <time>2024-07-02T12:53:56Z</time>
      </trkpt>
      <trkpt lat="44.87109" lon="5.24158">
        <ele>1324.8</ele>
        <time>2024-07-02T12:53:57Z</time>
      </trkpt>
      <trkpt lat="44.87111" lon="5.24158">
        <ele>1324.6</ele>
        <time>2024-07-02T12:53:58Z</time>
      </trkpt>
      <trkpt lat="44.87112" lon="5.24158">
        <ele>1324.4</ele>
        <time>2024-07-02T12:53:59Z</time>
      </trkpt>
      <trkpt lat="44.87113" lon="5.24158">
        <ele>1324.3</ele>
        <time>2024-07-02T12:54:00Z</time>
      </trkpt>
      <trkpt lat="44.87114" lon="5.24158">
        <ele>1324.1</ele>
        <time>2024-07-02T12:54:01Z</time>
      </trkpt>
      <trkpt lat="44.87115" lon="5.24158">
        <ele>1323.9</ele>
        <time>2024-07-02T12:54:02Z</time>
      </trkpt>
      <trkpt lat="44.87116" lon="5.24158">
        <ele>1323.7</ele>
        <time>2024-07-02T12:54:03Z</time>
      </trkpt>
      <trkpt lat="44.87117" lon="5.24158">
        <ele>1323.5</ele>
        <time>2024-07-02T12:54:04Z</time>
      </trkpt>
      <trkpt lat="44.87118" lon="5.24158">
        <ele>1323.3</ele>
        <time>2024-07-02T12:54:05Z</time>
      </trkpt>
      <trkpt lat="44.87119" lon="5.24158">
        <ele>1323</ele>
        <time>2024-07-02T12:54:06Z</time>
      </trkpt>
      <trkpt lat="44.8712" lon="5.24158">
        <ele>1322.8</ele>
        <time>2024-07-02T12:54:07Z</time>
      </trkpt>
      <trkpt lat="44.87122" lon="5.24158">
        <ele>1322.5</ele>
        <time>2024-07-02T12:54:08Z</time>
      </trkpt>
      <trkpt lat="44.87122" lon="5.24158">
        <ele>1322.3</ele>
        <time>2024-07-02T12:54:09Z</time>
      </trkpt>
      <trkpt lat="44.87123" lon="5.24158">
        <ele>1322.2</ele>
        <time>2024-07-02T12:54:10Z</time>
      </trkpt>
      <trkpt lat="44.87124" lon="5.24158">
        <ele>1321.9</ele>
        <time>2024-07-02T12:54:11Z</time>
      </trkpt>
      <trkpt lat="44.87125" lon="5.24158">
        <ele>1321.8</ele>
        <time>2024-07-02T12:54:12Z</time>
      </trkpt>
      <trkpt lat="44.87126" lon="5.24158">
        <ele>1321.5</ele>
        <time>2024-07-02T12:54:13Z</time>
      </trkpt>
      <trkpt lat="44.87127" lon="5.24158">
        <ele>1321.3</ele>
        <time>2024-07-02T12:54:14Z</time>
      </trkpt>
      <trkpt lat="44.87128" lon="5.24158">
        <ele>1321.2</ele>
        <time>2024-07-02T12:54:15Z</time>
      </trkpt>
      <trkpt lat="44.87129" lon="5.24157">
        <ele>1320.9</ele>
        <time>2024-07-02T12:54:16Z</time>
      </trkpt>
      <trkpt lat="44.8713" lon="5.24157">
        <ele>1320.6</ele>
        <time>2024-07-02T12:54:17Z</time>
      </trkpt>
      <trkpt lat="44.87131" lon="5.24157">
        <ele>1320.4</ele>
        <time>2024-07-02T12:54:18Z</time>
      </trkpt>
      <trkpt lat="44.87132" lon="5.24156">
        <ele>1320.1</ele>
        <time>2024-07-02T12:54:19Z</time>
      </trkpt>
      <trkpt lat="44.87133" lon="5.24155">
        <ele>1319.8</ele>
        <time>2024-07-02T12:54:20Z</time>
      </trkpt>
      <trkpt lat="44.87134" lon="5.24155">
        <ele>1319.6</ele>
        <time>2024-07-02T12:54:21Z</time>
      </trkpt>
      <trkpt lat="44.87135" lon="5.24154">
        <ele>1319.3</ele>
        <time>2024-07-02T12:54:22Z</time>
      </trkpt>
      <trkpt lat="44.87136" lon="5.24154">
        <ele>1319</ele>
        <time>2024-07-02T12:54:23Z</time>
      </trkpt>
      <trkpt lat="44.87137" lon="5.24154">
        <ele>1318.8</ele>
        <time>2024-07-02T12:54:24Z</time>
      </trkpt>
      <trkpt lat="44.87138" lon="5.24153">
        <ele>1318.7</ele>
        <time>2024-07-02T12:54:25Z</time>
      </trkpt>
      <trkpt lat="44.87138" lon="5.24153">
        <ele>1318.5</ele>
        <time>2024-07-02T12:54:26Z</time>
      </trkpt>
      <trkpt lat="44.8714" lon="5.24154">
        <ele>1318</ele>
        <time>2024-07-02T12:54:27Z</time>
      </trkpt>
      <trkpt lat="44.87141" lon="5.24154">
        <ele>1317.9</ele>
        <time>2024-07-02T12:54:28Z</time>
      </trkpt>
      <trkpt lat="44.87141" lon="5.24153">
        <ele>1317.7</ele>
        <time>2024-07-02T12:54:29Z</time>
      </trkpt>
      <trkpt lat="44.87142" lon="5.24153">
        <ele>1317.5</ele>
        <time>2024-07-02T12:54:30Z</time>
      </trkpt>
      <trkpt lat="44.87143" lon="5.24153">
        <ele>1317.3</ele>
        <time>2024-07-02T12:54:31Z</time>
      </trkpt>
      <trkpt lat="44.87144" lon="5.24154">
        <ele>1317.1</ele>
        <time>2024-07-02T12:54:32Z</time>
      </trkpt>
      <trkpt lat="44.87145" lon="5.24154">
        <ele>1316.7</ele>
        <time>2024-07-02T12:54:33Z</time>
      </trkpt>
      <trkpt lat="44.87146" lon="5.24154">
        <ele>1316.6</ele>
        <time>2024-07-02T12:54:34Z</time>
      </trkpt>
      <trkpt lat="44.87146" lon="5.24155">
        <ele>1316.5</ele>
        <time>2024-07-02T12:54:35Z</time>
      </trkpt>
      <trkpt lat="44.87147" lon="5.24155">
        <ele>1316.3</ele>
        <time>2024-07-02T12:54:36Z</time>
      </trkpt>
      <trkpt lat="44.87148" lon="5.24155">
        <ele>1316.1</ele>
        <time>2024-07-02T12:54:37Z</time>
      </trkpt>
      <trkpt lat="44.87148" lon="5.24155">
        <ele>1316</ele>
        <time>2024-07-02T12:54:38Z</time>
      </trkpt>
      <trkpt lat="44.87149" lon="5.24154">
        <ele>1315.6</ele>
        <time>2024-07-02T12:54:39Z</time>
      </trkpt>
      <trkpt lat="44.8715" lon="5.24154">
        <ele>1315.4</ele>
        <time>2024-07-02T12:54:40Z</time>
      </trkpt>
      <trkpt lat="44.87151" lon="5.24154">
        <ele>1315.2</ele>
        <time>2024-07-02T12:54:41Z</time>
      </trkpt>
      <trkpt lat="44.87152" lon="5.24153">
        <ele>1315.1</ele>
        <time>2024-07-02T12:54:42Z</time>
      </trkpt>
      <trkpt lat="44.87152" lon="5.24153">
        <ele>1315</ele>
        <time>2024-07-02T12:54:43Z</time>
      </trkpt>
      <trkpt lat="44.87153" lon="5.24153">
        <ele>1314.8</ele>
        <time>2024-07-02T12:54:44Z</time>
      </trkpt>
      <trkpt lat="44.87154" lon="5.24153">
        <ele>1314.5</ele>
        <time>2024-07-02T12:54:45Z</time>
      </trkpt>
      <trkpt lat="44.87154" lon="5.24152">
        <ele>1314.4</ele>
        <time>2024-07-02T12:54:46Z</time>
      </trkpt>
      <trkpt lat="44.87155" lon="5.24153">
        <ele>1314.3</ele>
        <time>2024-07-02T12:54:47Z</time>
      </trkpt>
      <trkpt lat="44.87155" lon="5.24154">
        <ele>1314.2</ele>
        <time>2024-07-02T12:54:48Z</time>
      </trkpt>
      <trkpt lat="44.87155" lon="5.24155">
        <ele>1313.9</ele>
        <time>2024-07-02T12:54:49Z</time>
      </trkpt>
      <trkpt lat="44.87156" lon="5.24156">
        <ele>1313.7</ele>
        <time>2024-07-02T12:54:50Z</time>
      </trkpt>
      <trkpt lat="44.87158" lon="5.24156">
        <ele>1313.3</ele>
        <time>2024-07-02T12:54:51Z</time>
      </trkpt>
      <trkpt lat="44.87159" lon="5.24156">
        <ele>1313.1</ele>
        <time>2024-07-02T12:54:52Z</time>
      </trkpt>
      <trkpt lat="44.8716" lon="5.24156">
        <ele>1312.9</ele>
        <time>2024-07-02T12:54:53Z</time>
      </trkpt>
      <trkpt lat="44.87162" lon="5.24155">
        <ele>1312.5</ele>
        <time>2024-07-02T12:54:54Z</time>
      </trkpt>
      <trkpt lat="44.87163" lon="5.24155">
        <ele>1312.3</ele>
        <time>2024-07-02T12:54:55Z</time>
      </trkpt>
      <trkpt lat="44.87163" lon="5.24154">
        <ele>1312.2</ele>
        <time>2024-07-02T12:54:56Z</time>
      </trkpt>
      <trkpt lat="44.87165" lon="5.24152">
        <ele>1311.8</ele>
        <time>2024-07-02T12:54:57Z</time>
      </trkpt>
      <trkpt lat="44.87165" lon="5.24151">
        <ele>1311.6</ele>
        <time>2024-07-02T12:54:58Z</time>
      </trkpt>
      <trkpt lat="44.87166" lon="5.2415">
        <ele>1311.4</ele>
        <time>2024-07-02T12:54:59Z</time>
      </trkpt>
      <trkpt lat="44.87166" lon="5.24148">
        <ele>1311.2</ele>
        <time>2024-07-02T12:55:00Z</time>
      </trkpt>
      <trkpt lat="44.87167" lon="5.24147">
        <ele>1310.9</ele>
        <time>2024-07-02T12:55:01Z</time>
      </trkpt>
      <trkpt lat="44.87168" lon="5.24146">
        <ele>1310.8</ele>
        <time>2024-07-02T12:55:02Z</time>
      </trkpt>
      <trkpt lat="44.87168" lon="5.24145">
        <ele>1310.5</ele>
        <time>2024-07-02T12:55:03Z</time>
      </trkpt>
      <trkpt lat="44.87169" lon="5.24145">
        <ele>1310.4</ele>
        <time>2024-07-02T12:55:04Z</time>
      </trkpt>
      <trkpt lat="44.8717" lon="5.24144">
        <ele>1310.2</ele>
        <time>2024-07-02T12:55:05Z</time>
      </trkpt>
      <trkpt lat="44.87171" lon="5.24144">
        <ele>1310</ele>
        <time>2024-07-02T12:55:06Z</time>
      </trkpt>
      <trkpt lat="44.87172" lon="5.24143">
        <ele>1309.8</ele>
        <time>2024-07-02T12:55:07Z</time>
      </trkpt>
      <trkpt lat="44.87173" lon="5.24143">
        <ele>1309.6</ele>
        <time>2024-07-02T12:55:08Z</time>
      </trkpt>
      <trkpt lat="44.87174" lon="5.24142">
        <ele>1309.5</ele>
        <time>2024-07-02T12:55:09Z</time>
      </trkpt>
      <trkpt lat="44.87174" lon="5.24142">
        <ele>1309.3</ele>
        <time>2024-07-02T12:55:10Z</time>
      </trkpt>
      <trkpt lat="44.87175" lon="5.24141">
        <ele>1309.2</ele>
        <time>2024-07-02T12:55:11Z</time>
      </trkpt>
      <trkpt lat="44.87176" lon="5.24141">
        <ele>1309.1</ele>
        <time>2024-07-02T12:55:12Z</time>
      </trkpt>
      <trkpt lat="44.87176" lon="5.24141">
        <ele>1308.9</ele>
        <time>2024-07-02T12:55:13Z</time>
      </trkpt>
      <trkpt lat="44.87176" lon="5.24141">
        <ele>1308.9</ele>
        <time>2024-07-02T12:55:14Z</time>
      </trkpt>
      <trkpt lat="44.87177" lon="5.2414">
        <ele>1308.7</ele>
        <time>2024-07-02T12:55:15Z</time>
      </trkpt>
      <trkpt lat="44.87177" lon="5.2414">
        <ele>1308.6</ele>
        <time>2024-07-02T12:55:16Z</time>
      </trkpt>
      <trkpt lat="44.87178" lon="5.24139">
        <ele>1308.5</ele>
        <time>2024-07-02T12:55:17Z</time>
      </trkpt>
      <trkpt lat="44.87178" lon="5.24139">
        <ele>1308.3</ele>
        <time>2024-07-02T12:55:18Z</time>
      </trkpt>
      <trkpt lat="44.87179" lon="5.24138">
        <ele>1308.2</ele>
        <time>2024-07-02T12:55:19Z</time>
      </trkpt>
      <trkpt lat="44.87179" lon="5.24137">
        <ele>1308</ele>
        <time>2024-07-02T12:55:20Z</time>
      </trkpt>
      <trkpt lat="44.8718" lon="5.24136">
        <ele>1307.8</ele>
        <time>2024-07-02T12:55:21Z</time>
      </trkpt>
      <trkpt lat="44.87181" lon="5.24135">
        <ele>1307.5</ele>
        <time>2024-07-02T12:55:22Z</time>
      </trkpt>
      <trkpt lat="44.87182" lon="5.24135">
        <ele>1307.3</ele>
        <time>2024-07-02T12:55:23Z</time>
      </trkpt>
      <trkpt lat="44.87183" lon="5.24135">
        <ele>1307.2</ele>
        <time>2024-07-02T12:55:24Z</time>
      </trkpt>
      <trkpt lat="44.87184" lon="5.24134">
        <ele>1307</ele>
        <time>2024-07-02T12:55:25Z</time>
      </trkpt>
      <trkpt lat="44.87185" lon="5.24134">
        <ele>1306.8</ele>
        <time>2024-07-02T12:55:26Z</time>
      </trkpt>
      <trkpt lat="44.87186" lon="5.24133">
        <ele>1306.5</ele>
        <time>2024-07-02T12:55:27Z</time>
      </trkpt>
      <trkpt lat="44.87187" lon="5.24133">
        <ele>1306.3</ele>
        <time>2024-07-02T12:55:28Z</time>
      </trkpt>
      <trkpt lat="44.87188" lon="5.24133">
        <ele>1306</ele>
        <time>2024-07-02T12:55:29Z</time>
      </trkpt>
      <trkpt lat="44.8719" lon="5.24133">
        <ele>1305.7</ele>
        <time>2024-07-02T12:55:30Z</time>
      </trkpt>
      <trkpt lat="44.87191" lon="5.24132">
        <ele>1305.5</ele>
        <time>2024-07-02T12:55:31Z</time>
      </trkpt>
      <trkpt lat="44.87192" lon="5.24132">
        <ele>1305.3</ele>
        <time>2024-07-02T12:55:32Z</time>
      </trkpt>
      <trkpt lat="44.87193" lon="5.24132">
        <ele>1305.2</ele>
        <time>2024-07-02T12:55:33Z</time>
      </trkpt>
      <trkpt lat="44.87194" lon="5.24132">
        <ele>1305</ele>
        <time>2024-07-02T12:55:34Z</time>
      </trkpt>
      <trkpt lat="44.87195" lon="5.24132">
        <ele>1304.8</ele>
        <time>2024-07-02T12:55:35Z</time>
      </trkpt>
      <trkpt lat="44.87196" lon="5.24131">
        <ele>1304.5</ele>
        <time>2024-07-02T12:55:36Z</time>
      </trkpt>
      <trkpt lat="44.87197" lon="5.24131">
        <ele>1304.4</ele>
        <time>2024-07-02T12:55:37Z</time>
      </trkpt>
      <trkpt lat="44.87198" lon="5.24131">
        <ele>1304.2</ele>
        <time>2024-07-02T12:55:38Z</time>
      </trkpt>
      <trkpt lat="44.87199" lon="5.24131">
        <ele>1304</ele>
        <time>2024-07-02T12:55:39Z</time>
      </trkpt>
      <trkpt lat="44.872" lon="5.2413">
        <ele>1303.8</ele>
        <time>2024-07-02T12:55:40Z</time>
      </trkpt>
      <trkpt lat="44.87201" lon="5.2413">
        <ele>1303.7</ele>
        <time>2024-07-02T12:55:41Z</time>
      </trkpt>
      <trkpt lat="44.87202" lon="5.24129">
        <ele>1303.5</ele>
        <time>2024-07-02T12:55:42Z</time>
      </trkpt>
      <trkpt lat="44.87203" lon="5.24129">
        <ele>1303.4</ele>
        <time>2024-07-02T12:55:43Z</time>
      </trkpt>
      <trkpt lat="44.87204" lon="5.24129">
        <ele>1303.3</ele>
        <time>2024-07-02T12:55:44Z</time>
      </trkpt>
      <trkpt lat="44.87205" lon="5.24128">
        <ele>1303.1</ele>
        <time>2024-07-02T12:55:45Z</time>
      </trkpt>
      <trkpt lat="44.87206" lon="5.24127">
        <ele>1302.9</ele>
        <time>2024-07-02T12:55:46Z</time>
      </trkpt>
      <trkpt lat="44.87207" lon="5.24127">
        <ele>1302.8</ele>
        <time>2024-07-02T12:55:47Z</time>
      </trkpt>
      <trkpt lat="44.87208" lon="5.24126">
        <ele>1302.7</ele>
        <time>2024-07-02T12:55:48Z</time>
      </trkpt>
      <trkpt lat="44.87209" lon="5.24126">
        <ele>1302.5</ele>
        <time>2024-07-02T12:55:49Z</time>
      </trkpt>
      <trkpt lat="44.8721" lon="5.24125">
        <ele>1302.3</ele>
        <time>2024-07-02T12:55:50Z</time>
      </trkpt>
      <trkpt lat="44.87211" lon="5.24124">
        <ele>1302.1</ele>
        <time>2024-07-02T12:55:51Z</time>
      </trkpt>
      <trkpt lat="44.87212" lon="5.24124">
        <ele>1302</ele>
        <time>2024-07-02T12:55:52Z</time>
      </trkpt>
      <trkpt lat="44.87213" lon="5.24123">
        <ele>1301.8</ele>
        <time>2024-07-02T12:55:53Z</time>
      </trkpt>
      <trkpt lat="44.87215" lon="5.24122">
        <ele>1301.5</ele>
        <time>2024-07-02T12:55:54Z</time>
      </trkpt>
      <trkpt lat="44.87216" lon="5.24122">
        <ele>1301.4</ele>
        <time>2024-07-02T12:55:55Z</time>
      </trkpt>
      <trkpt lat="44.87217" lon="5.24122">
        <ele>1301.3</ele>
        <time>2024-07-02T12:55:56Z</time>
      </trkpt>
      <trkpt lat="44.87217" lon="5.24122">
        <ele>1301.3</ele>
        <time>2024-07-02T12:55:57Z</time>
      </trkpt>
      <trkpt lat="44.87218" lon="5.24121">
        <ele>1301.1</ele>
        <time>2024-07-02T12:55:58Z</time>
      </trkpt>
      <trkpt lat="44.87219" lon="5.24121">
        <ele>1301</ele>
        <time>2024-07-02T12:55:59Z</time>
      </trkpt>
      <trkpt lat="44.8722" lon="5.24121">
        <ele>1300.9</ele>
        <time>2024-07-02T12:56:00Z</time>
      </trkpt>
      <trkpt lat="44.87221" lon="5.2412">
        <ele>1300.8</ele>
        <time>2024-07-02T12:56:01Z</time>
      </trkpt>
      <trkpt lat="44.87222" lon="5.2412">
        <ele>1300.6</ele>
        <time>2024-07-02T12:56:02Z</time>
      </trkpt>
      <trkpt lat="44.87223" lon="5.2412">
        <ele>1300.5</ele>
        <time>2024-07-02T12:56:03Z</time>
      </trkpt>
      <trkpt lat="44.87224" lon="5.2412">
        <ele>1300.4</ele>
        <time>2024-07-02T12:56:04Z</time>
      </trkpt>
      <trkpt lat="44.87225" lon="5.2412">
        <ele>1300.3</ele>
        <time>2024-07-02T12:56:05Z</time>
      </trkpt>
      <trkpt lat="44.87226" lon="5.24119">
        <ele>1300.2</ele>
        <time>2024-07-02T12:56:06Z</time>
      </trkpt>
      <trkpt lat="44.87227" lon="5.24118">
        <ele>1300.1</ele>
        <time>2024-07-02T12:56:07Z</time>
      </trkpt>
      <trkpt lat="44.87227" lon="5.24118">
        <ele>1300</ele>
        <time>2024-07-02T12:56:08Z</time>
      </trkpt>
      <trkpt lat="44.87228" lon="5.24117">
        <ele>1299.9</ele>
        <time>2024-07-02T12:56:09Z</time>
      </trkpt>
      <trkpt lat="44.87229" lon="5.24116">
        <ele>1299.8</ele>
        <time>2024-07-02T12:56:10Z</time>
      </trkpt>
      <trkpt lat="44.8723" lon="5.24114">
        <ele>1299.7</ele>
        <time>2024-07-02T12:56:11Z</time>
      </trkpt>
      <trkpt lat="44.87229" lon="5.24113">
        <ele>1299.6</ele>
        <time>2024-07-02T12:56:12Z</time>
      </trkpt>
      <trkpt lat="44.87229" lon="5.24113">
        <ele>1299.5</ele>
        <time>2024-07-02T12:56:13Z</time>
      </trkpt>
      <trkpt lat="44.8723" lon="5.24111">
        <ele>1299.5</ele>
        <time>2024-07-02T12:56:14Z</time>
      </trkpt>
      <trkpt lat="44.8723" lon="5.24111">
        <ele>1299.4</ele>
        <time>2024-07-02T12:56:15Z</time>
      </trkpt>
      <trkpt lat="44.87231" lon="5.24109">
        <ele>1299.3</ele>
        <time>2024-07-02T12:56:16Z</time>
      </trkpt>
      <trkpt lat="44.87233" lon="5.24108">
        <ele>1299.1</ele>
        <time>2024-07-02T12:56:17Z</time>
      </trkpt>
      <trkpt lat="44.87235" lon="5.24108">
        <ele>1299</ele>
        <time>2024-07-02T12:56:18Z</time>
      </trkpt>
      <trkpt lat="44.87236" lon="5.24107">
        <ele>1298.9</ele>
        <time>2024-07-02T12:56:19Z</time>
      </trkpt>
      <trkpt lat="44.87237" lon="5.24107">
        <ele>1298.8</ele>
        <time>2024-07-02T12:56:20Z</time>
      </trkpt>
      <trkpt lat="44.87239" lon="5.24107">
        <ele>1298.8</ele>
        <time>2024-07-02T12:56:21Z</time>
      </trkpt>
      <trkpt lat="44.87241" lon="5.24106">
        <ele>1298.7</ele>
        <time>2024-07-02T12:56:22Z</time>
      </trkpt>
      <trkpt lat="44.87242" lon="5.24106">
        <ele>1298.6</ele>
        <time>2024-07-02T12:56:23Z</time>
      </trkpt>
      <trkpt lat="44.87243" lon="5.24106">
        <ele>1298.6</ele>
        <time>2024-07-02T12:56:24Z</time>
      </trkpt>
      <trkpt lat="44.87244" lon="5.24105">
        <ele>1298.5</ele>
        <time>2024-07-02T12:56:25Z</time>
      </trkpt>
      <trkpt lat="44.87245" lon="5.24105">
        <ele>1298.5</ele>
        <time>2024-07-02T12:56:26Z</time>
      </trkpt>
      <trkpt lat="44.87246" lon="5.24104">
        <ele>1298.4</ele>
        <time>2024-07-02T12:56:27Z</time>
      </trkpt>
      <trkpt lat="44.87247" lon="5.24103">
        <ele>1298.4</ele>
        <time>2024-07-02T12:56:28Z</time>
      </trkpt>
      <trkpt lat="44.87248" lon="5.24101">
        <ele>1298.4</ele>
        <time>2024-07-02T12:56:29Z</time>
      </trkpt>
      <trkpt lat="44.87249" lon="5.24101">
        <ele>1298.4</ele>
        <time>2024-07-02T12:56:30Z</time>
      </trkpt>
      <trkpt lat="44.8725" lon="5.241">
        <ele>1298.3</ele>
        <time>2024-07-02T12:56:31Z</time>
      </trkpt>
      <trkpt lat="44.87251" lon="5.24099">
        <ele>1298.3</ele>
        <time>2024-07-02T12:56:32Z</time>
      </trkpt>
      <trkpt lat="44.87252" lon="5.24099">
        <ele>1298.3</ele>
        <time>2024-07-02T12:56:33Z</time>
      </trkpt>
      <trkpt lat="44.87253" lon="5.24098">
        <ele>1298.3</ele>
        <time>2024-07-02T12:56:34Z</time>
      </trkpt>
      <trkpt lat="44.87254" lon="5.24098">
        <ele>1298.3</ele>
        <time>2024-07-02T12:56:35Z</time>
      </trkpt>
      <trkpt lat="44.87256" lon="5.24098">
        <ele>1298.2</ele>
        <time>2024-07-02T12:56:36Z</time>
      </trkpt>
      <trkpt lat="44.87257" lon="5.24098">
        <ele>1298.2</ele>
        <time>2024-07-02T12:56:37Z</time>
      </trkpt>
      <trkpt lat="44.87258" lon="5.24098">
        <ele>1298.2</ele>
        <time>2024-07-02T12:56:38Z</time>
      </trkpt>
      <trkpt lat="44.8726" lon="5.24097">
        <ele>1298.2</ele>
        <time>2024-07-02T12:56:39Z</time>
      </trkpt>
      <trkpt lat="44.87261" lon="5.24097">
        <ele>1298.2</ele>
        <time>2024-07-02T12:56:40Z</time>
      </trkpt>
      <trkpt lat="44.87261" lon="5.24096">
        <ele>1298.2</ele>
        <time>2024-07-02T12:56:41Z</time>
      </trkpt>
      <trkpt lat="44.87263" lon="5.24096">
        <ele>1298.3</ele>
        <time>2024-07-02T12:56:42Z</time>
      </trkpt>
      <trkpt lat="44.87264" lon="5.24095">
        <ele>1298.3</ele>
        <time>2024-07-02T12:56:43Z</time>
      </trkpt>
      <trkpt lat="44.87265" lon="5.24095">
        <ele>1298.3</ele>
        <time>2024-07-02T12:56:44Z</time>
      </trkpt>
      <trkpt lat="44.87266" lon="5.24095">
        <ele>1298.3</ele>
        <time>2024-07-02T12:56:45Z</time>
      </trkpt>
      <trkpt lat="44.87267" lon="5.24095">
        <ele>1298.3</ele>
        <time>2024-07-02T12:56:46Z</time>
      </trkpt>
      <trkpt lat="44.87269" lon="5.24096">
        <ele>1298.3</ele>
        <time>2024-07-02T12:56:47Z</time>
      </trkpt>
      <trkpt lat="44.8727" lon="5.24096">
        <ele>1298.3</ele>
        <time>2024-07-02T12:56:48Z</time>
      </trkpt>
      <trkpt lat="44.87271" lon="5.24096">
        <ele>1298.4</ele>
        <time>2024-07-02T12:56:49Z</time>
      </trkpt>
      <trkpt lat="44.87272" lon="5.24096">
        <ele>1298.4</ele>
        <time>2024-07-02T12:56:50Z</time>
      </trkpt>
      <trkpt lat="44.87273" lon="5.24096">
        <ele>1298.4</ele>
        <time>2024-07-02T12:56:51Z</time>
      </trkpt>
      <trkpt lat="44.87274" lon="5.24095">
        <ele>1298.4</ele>
        <time>2024-07-02T12:56:52Z</time>
      </trkpt>
      <trkpt lat="44.87275" lon="5.24096">
        <ele>1298.5</ele>
        <time>2024-07-02T12:56:53Z</time>
      </trkpt>
      <trkpt lat="44.87276" lon="5.24096">
        <ele>1298.5</ele>
        <time>2024-07-02T12:56:54Z</time>
      </trkpt>
      <trkpt lat="44.87278" lon="5.24096">
        <ele>1298.5</ele>
        <time>2024-07-02T12:56:55Z</time>
      </trkpt>
      <trkpt lat="44.87279" lon="5.24096">
        <ele>1298.6</ele>
        <time>2024-07-02T12:56:56Z</time>
      </trkpt>
      <trkpt lat="44.8728" lon="5.24096">
        <ele>1298.6</ele>
        <time>2024-07-02T12:56:57Z</time>
      </trkpt>
      <trkpt lat="44.87281" lon="5.24095">
        <ele>1298.6</ele>
        <time>2024-07-02T12:56:58Z</time>
      </trkpt>
      <trkpt lat="44.87282" lon="5.24095">
        <ele>1298.7</ele>
        <time>2024-07-02T12:56:59Z</time>
      </trkpt>
      <trkpt lat="44.87283" lon="5.24095">
        <ele>1298.7</ele>
        <time>2024-07-02T12:57:00Z</time>
      </trkpt>
      <trkpt lat="44.87284" lon="5.24095">
        <ele>1298.7</ele>
        <time>2024-07-02T12:57:01Z</time>
      </trkpt>
      <trkpt lat="44.87285" lon="5.24095">
        <ele>1298.8</ele>
        <time>2024-07-02T12:57:02Z</time>
      </trkpt>
      <trkpt lat="44.87286" lon="5.24095">
        <ele>1298.8</ele>
        <time>2024-07-02T12:57:03Z</time>
      </trkpt>
      <trkpt lat="44.87287" lon="5.24095">
        <ele>1298.9</ele>
        <time>2024-07-02T12:57:04Z</time>
      </trkpt>
      <trkpt lat="44.87289" lon="5.24095">
        <ele>1298.9</ele>
        <time>2024-07-02T12:57:05Z</time>
      </trkpt>
      <trkpt lat="44.87289" lon="5.24095">
        <ele>1298.9</ele>
        <time>2024-07-02T12:57:06Z</time>
      </trkpt>
      <trkpt lat="44.8729" lon="5.24095">
        <ele>1299</ele>
        <time>2024-07-02T12:57:07Z</time>
      </trkpt>
      <trkpt lat="44.87291" lon="5.24094">
        <ele>1299</ele>
        <time>2024-07-02T12:57:08Z</time>
      </trkpt>
      <trkpt lat="44.87292" lon="5.24094">
        <ele>1299</ele>
        <time>2024-07-02T12:57:09Z</time>
      </trkpt>
      <trkpt lat="44.87293" lon="5.24094">
        <ele>1299.1</ele>
        <time>2024-07-02T12:57:10Z</time>
      </trkpt>
      <trkpt lat="44.87294" lon="5.24094">
        <ele>1299.1</ele>
        <time>2024-07-02T12:57:11Z</time>
      </trkpt>
      <trkpt lat="44.87296" lon="5.24094">
        <ele>1299.2</ele>
        <time>2024-07-02T12:57:12Z</time>
      </trkpt>
      <trkpt lat="44.87297" lon="5.24094">
        <ele>1299.2</ele>
        <time>2024-07-02T12:57:13Z</time>
      </trkpt>
      <trkpt lat="44.87297" lon="5.24094">
        <ele>1299.2</ele>
        <time>2024-07-02T12:57:14Z</time>
      </trkpt>
      <trkpt lat="44.87298" lon="5.24094">
        <ele>1299.2</ele>
        <time>2024-07-02T12:57:15Z</time>
      </trkpt>
      <trkpt lat="44.87299" lon="5.24094">
        <ele>1299.3</ele>
        <time>2024-07-02T12:57:16Z</time>
      </trkpt>
      <trkpt lat="44.87301" lon="5.24094">
        <ele>1299.3</ele>
        <time>2024-07-02T12:57:17Z</time>
      </trkpt>
      <trkpt lat="44.87302" lon="5.24093">
        <ele>1299.4</ele>
        <time>2024-07-02T12:57:18Z</time>
      </trkpt>
      <trkpt lat="44.87303" lon="5.24093">
        <ele>1299.4</ele>
        <time>2024-07-02T12:57:19Z</time>
      </trkpt>
      <trkpt lat="44.87305" lon="5.24093">
        <ele>1299.5</ele>
        <time>2024-07-02T12:57:20Z</time>
      </trkpt>
      <trkpt lat="44.87306" lon="5.24093">
        <ele>1299.5</ele>
        <time>2024-07-02T12:57:21Z</time>
      </trkpt>
      <trkpt lat="44.87307" lon="5.24093">
        <ele>1299.6</ele>
        <time>2024-07-02T12:57:22Z</time>
      </trkpt>
      <trkpt lat="44.87308" lon="5.24093">
        <ele>1299.6</ele>
        <time>2024-07-02T12:57:23Z</time>
      </trkpt>
      <trkpt lat="44.87309" lon="5.24093">
        <ele>1299.6</ele>
        <time>2024-07-02T12:57:24Z</time>
      </trkpt>
      <trkpt lat="44.8731" lon="5.24092">
        <ele>1299.7</ele>
        <time>2024-07-02T12:57:25Z</time>
      </trkpt>
      <trkpt lat="44.87311" lon="5.24092">
        <ele>1299.8</ele>
        <time>2024-07-02T12:57:26Z</time>
      </trkpt>
      <trkpt lat="44.87313" lon="5.24092">
        <ele>1299.8</ele>
        <time>2024-07-02T12:57:27Z</time>
      </trkpt>
      <trkpt lat="44.87314" lon="5.24092">
        <ele>1299.9</ele>
        <time>2024-07-02T12:57:28Z</time>
      </trkpt>
      <trkpt lat="44.87315" lon="5.24093">
        <ele>1299.9</ele>
        <time>2024-07-02T12:57:29Z</time>
      </trkpt>
      <trkpt lat="44.87316" lon="5.24093">
        <ele>1300</ele>
        <time>2024-07-02T12:57:30Z</time>
      </trkpt>
      <trkpt lat="44.87317" lon="5.24093">
        <ele>1300.1</ele>
        <time>2024-07-02T12:57:31Z</time>
      </trkpt>
      <trkpt lat="44.87319" lon="5.24094">
        <ele>1300.2</ele>
        <time>2024-07-02T12:57:32Z</time>
      </trkpt>
      <trkpt lat="44.8732" lon="5.24094">
        <ele>1300.2</ele>
        <time>2024-07-02T12:57:33Z</time>
      </trkpt>
      <trkpt lat="44.87321" lon="5.24094">
        <ele>1300.3</ele>
        <time>2024-07-02T12:57:34Z</time>
      </trkpt>
      <trkpt lat="44.87322" lon="5.24094">
        <ele>1300.4</ele>
        <time>2024-07-02T12:57:35Z</time>
      </trkpt>
      <trkpt lat="44.87324" lon="5.24095">
        <ele>1300.5</ele>
        <time>2024-07-02T12:57:36Z</time>
      </trkpt>
      <trkpt lat="44.87325" lon="5.24095">
        <ele>1300.5</ele>
        <time>2024-07-02T12:57:37Z</time>
      </trkpt>
      <trkpt lat="44.87326" lon="5.24096">
        <ele>1300.6</ele>
        <time>2024-07-02T12:57:38Z</time>
      </trkpt>
      <trkpt lat="44.87328" lon="5.24097">
        <ele>1300.8</ele>
        <time>2024-07-02T12:57:39Z</time>
      </trkpt>
      <trkpt lat="44.87328" lon="5.24097">
        <ele>1300.8</ele>
        <time>2024-07-02T12:57:40Z</time>
      </trkpt>
      <trkpt lat="44.87329" lon="5.24098">
        <ele>1300.9</ele>
        <time>2024-07-02T12:57:41Z</time>
      </trkpt>
      <trkpt lat="44.87331" lon="5.24099">
        <ele>1301</ele>
        <time>2024-07-02T12:57:42Z</time>
      </trkpt>
      <trkpt lat="44.87331" lon="5.241">
        <ele>1301</ele>
        <time>2024-07-02T12:57:43Z</time>
      </trkpt>
      <trkpt lat="44.87332" lon="5.24101">
        <ele>1301.1</ele>
        <time>2024-07-02T12:57:44Z</time>
      </trkpt>
      <trkpt lat="44.87333" lon="5.24102">
        <ele>1301.2</ele>
        <time>2024-07-02T12:57:45Z</time>
      </trkpt>
      <trkpt lat="44.87333" lon="5.24103">
        <ele>1301.2</ele>
        <time>2024-07-02T12:57:46Z</time>
      </trkpt>
      <trkpt lat="44.87334" lon="5.24104">
        <ele>1301.3</ele>
        <time>2024-07-02T12:57:47Z</time>
      </trkpt>
      <trkpt lat="44.87335" lon="5.24105">
        <ele>1301.3</ele>
        <time>2024-07-02T12:57:48Z</time>
      </trkpt>
      <trkpt lat="44.87335" lon="5.24106">
        <ele>1301.4</ele>
        <time>2024-07-02T12:57:49Z</time>
      </trkpt>
      <trkpt lat="44.87336" lon="5.24107">
        <ele>1301.4</ele>
        <time>2024-07-02T12:57:50Z</time>
      </trkpt>
      <trkpt lat="44.87337" lon="5.24108">
        <ele>1301.5</ele>
        <time>2024-07-02T12:57:51Z</time>
      </trkpt>
      <trkpt lat="44.87338" lon="5.24109">
        <ele>1301.5</ele>
        <time>2024-07-02T12:57:52Z</time>
      </trkpt>
      <trkpt lat="44.87339" lon="5.24109">
        <ele>1301.6</ele>
        <time>2024-07-02T12:57:53Z</time>
      </trkpt>
      <trkpt lat="44.8734" lon="5.2411">
        <ele>1301.6</ele>
        <time>2024-07-02T12:57:54Z</time>
      </trkpt>
      <trkpt lat="44.87341" lon="5.2411">
        <ele>1301.6</ele>
        <time>2024-07-02T12:57:55Z</time>
      </trkpt>
      <trkpt lat="44.87343" lon="5.2411">
        <ele>1301.7</ele>
        <time>2024-07-02T12:57:56Z</time>
      </trkpt>
      <trkpt lat="44.87344" lon="5.2411">
        <ele>1301.7</ele>
        <time>2024-07-02T12:57:57Z</time>
      </trkpt>
      <trkpt lat="44.87345" lon="5.2411">
        <ele>1301.8</ele>
        <time>2024-07-02T12:57:58Z</time>
      </trkpt>
      <trkpt lat="44.87346" lon="5.24109">
        <ele>1301.8</ele>
        <time>2024-07-02T12:57:59Z</time>
      </trkpt>
      <trkpt lat="44.87348" lon="5.24108">
        <ele>1301.8</ele>
        <time>2024-07-02T12:58:00Z</time>
      </trkpt>
      <trkpt lat="44.87349" lon="5.24107">
        <ele>1301.9</ele>
        <time>2024-07-02T12:58:01Z</time>
      </trkpt>
      <trkpt lat="44.87351" lon="5.24106">
        <ele>1301.9</ele>
        <time>2024-07-02T12:58:02Z</time>
      </trkpt>
      <trkpt lat="44.87352" lon="5.24106">
        <ele>1301.9</ele>
        <time>2024-07-02T12:58:03Z</time>
      </trkpt>
      <trkpt lat="44.87353" lon="5.24106">
        <ele>1301.9</ele>
        <time>2024-07-02T12:58:04Z</time>
      </trkpt>
      <trkpt lat="44.87355" lon="5.24106">
        <ele>1302</ele>
        <time>2024-07-02T12:58:05Z</time>
      </trkpt>
      <trkpt lat="44.87356" lon="5.24106">
        <ele>1302</ele>
        <time>2024-07-02T12:58:06Z</time>
      </trkpt>
      <trkpt lat="44.87357" lon="5.24106">
        <ele>1302.1</ele>
        <time>2024-07-02T12:58:07Z</time>
      </trkpt>
      <trkpt lat="44.87358" lon="5.24106">
        <ele>1302.1</ele>
        <time>2024-07-02T12:58:08Z</time>
      </trkpt>
      <trkpt lat="44.87359" lon="5.24106">
        <ele>1302.1</ele>
        <time>2024-07-02T12:58:09Z</time>
      </trkpt>
      <trkpt lat="44.8736" lon="5.24106">
        <ele>1302.2</ele>
        <time>2024-07-02T12:58:10Z</time>
      </trkpt>
      <trkpt lat="44.87362" lon="5.24106">
        <ele>1302.3</ele>
        <time>2024-07-02T12:58:11Z</time>
      </trkpt>
      <trkpt lat="44.87363" lon="5.24106">
        <ele>1302.3</ele>
        <time>2024-07-02T12:58:12Z</time>
      </trkpt>
      <trkpt lat="44.87364" lon="5.24107">
        <ele>1302.3</ele>
        <time>2024-07-02T12:58:13Z</time>
      </trkpt>
      <trkpt lat="44.87366" lon="5.24107">
        <ele>1302.4</ele>
        <time>2024-07-02T12:58:14Z</time>
      </trkpt>
      <trkpt lat="44.87367" lon="5.24108">
        <ele>1302.5</ele>
        <time>2024-07-02T12:58:15Z</time>
      </trkpt>
      <trkpt lat="44.87368" lon="5.24108">
        <ele>1302.5</ele>
        <time>2024-07-02T12:58:16Z</time>
      </trkpt>
      <trkpt lat="44.87368" lon="5.24108">
        <ele>1302.5</ele>
        <time>2024-07-02T12:58:17Z</time>
      </trkpt>
      <trkpt lat="44.8737" lon="5.24109">
        <ele>1302.6</ele>
        <time>2024-07-02T12:58:18Z</time>
      </trkpt>
      <trkpt lat="44.87371" lon="5.24109">
        <ele>1302.7</ele>
        <time>2024-07-02T12:58:19Z</time>
      </trkpt>
      <trkpt lat="44.87372" lon="5.2411">
        <ele>1302.7</ele>
        <time>2024-07-02T12:58:20Z</time>
      </trkpt>
      <trkpt lat="44.87373" lon="5.2411">
        <ele>1302.7</ele>
        <time>2024-07-02T12:58:21Z</time>
      </trkpt>
      <trkpt lat="44.87373" lon="5.24111">
        <ele>1302.8</ele>
        <time>2024-07-02T12:58:22Z</time>
      </trkpt>
      <trkpt lat="44.87375" lon="5.24112">
        <ele>1302.8</ele>
        <time>2024-07-02T12:58:23Z</time>
      </trkpt>
      <trkpt lat="44.87376" lon="5.24112">
        <ele>1302.9</ele>
        <time>2024-07-02T12:58:24Z</time>
      </trkpt>
      <trkpt lat="44.87377" lon="5.24113">
        <ele>1302.9</ele>
        <time>2024-07-02T12:58:25Z</time>
      </trkpt>
      <trkpt lat="44.87378" lon="5.24113">
        <ele>1303</ele>
        <time>2024-07-02T12:58:26Z</time>
      </trkpt>
      <trkpt lat="44.87379" lon="5.24113">
        <ele>1303.1</ele>
        <time>2024-07-02T12:58:27Z</time>
      </trkpt>
      <trkpt lat="44.8738" lon="5.24113">
        <ele>1303.1</ele>
        <time>2024-07-02T12:58:28Z</time>
      </trkpt>
      <trkpt lat="44.87381" lon="5.24113">
        <ele>1303.2</ele>
        <time>2024-07-02T12:58:29Z</time>
      </trkpt>
      <trkpt lat="44.87383" lon="5.24113">
        <ele>1303.2</ele>
        <time>2024-07-02T12:58:30Z</time>
      </trkpt>
      <trkpt lat="44.87384" lon="5.24114">
        <ele>1303.3</ele>
        <time>2024-07-02T12:58:31Z</time>
      </trkpt>
      <trkpt lat="44.87385" lon="5.24114">
        <ele>1303.3</ele>
        <time>2024-07-02T12:58:32Z</time>
      </trkpt>
      <trkpt lat="44.87386" lon="5.24115">
        <ele>1303.4</ele>
        <time>2024-07-02T12:58:33Z</time>
      </trkpt>
      <trkpt lat="44.87387" lon="5.24115">
        <ele>1303.4</ele>
        <time>2024-07-02T12:58:34Z</time>
      </trkpt>
      <trkpt lat="44.87388" lon="5.24115">
        <ele>1303.5</ele>
        <time>2024-07-02T12:58:35Z</time>
      </trkpt>
      <trkpt lat="44.87389" lon="5.24115">
        <ele>1303.5</ele>
        <time>2024-07-02T12:58:36Z</time>
      </trkpt>
      <trkpt lat="44.8739" lon="5.24115">
        <ele>1303.6</ele>
        <time>2024-07-02T12:58:37Z</time>
      </trkpt>
      <trkpt lat="44.87392" lon="5.24114">
        <ele>1303.7</ele>
        <time>2024-07-02T12:58:38Z</time>
      </trkpt>
      <trkpt lat="44.87393" lon="5.24114">
        <ele>1303.8</ele>
        <time>2024-07-02T12:58:39Z</time>
      </trkpt>
      <trkpt lat="44.87394" lon="5.24114">
        <ele>1303.8</ele>
        <time>2024-07-02T12:58:40Z</time>
      </trkpt>
      <trkpt lat="44.87395" lon="5.24114">
        <ele>1303.9</ele>
        <time>2024-07-02T12:58:41Z</time>
      </trkpt>
      <trkpt lat="44.87396" lon="5.24113">
        <ele>1304</ele>
        <time>2024-07-02T12:58:42Z</time>
      </trkpt>
      <trkpt lat="44.87397" lon="5.24113">
        <ele>1304.1</ele>
        <time>2024-07-02T12:58:43Z</time>
      </trkpt>
      <trkpt lat="44.87399" lon="5.24112">
        <ele>1304.2</ele>
        <time>2024-07-02T12:58:44Z</time>
      </trkpt>
      <trkpt lat="44.874" lon="5.24111">
        <ele>1304.3</ele>
        <time>2024-07-02T12:58:45Z</time>
      </trkpt>
      <trkpt lat="44.87401" lon="5.24111">
        <ele>1304.4</ele>
        <time>2024-07-02T12:58:46Z</time>
      </trkpt>
      <trkpt lat="44.87402" lon="5.2411">
        <ele>1304.4</ele>
        <time>2024-07-02T12:58:47Z</time>
      </trkpt>
      <trkpt lat="44.87403" lon="5.2411">
        <ele>1304.5</ele>
        <time>2024-07-02T12:58:48Z</time>
      </trkpt>
      <trkpt lat="44.87404" lon="5.24109">
        <ele>1304.7</ele>
        <time>2024-07-02T12:58:49Z</time>
      </trkpt>
      <trkpt lat="44.87405" lon="5.24108">
        <ele>1304.8</ele>
        <time>2024-07-02T12:58:50Z</time>
      </trkpt>
      <trkpt lat="44.87406" lon="5.24107">
        <ele>1304.9</ele>
        <time>2024-07-02T12:58:51Z</time>
      </trkpt>
      <trkpt lat="44.87407" lon="5.24107">
        <ele>1305</ele>
        <time>2024-07-02T12:58:52Z</time>
      </trkpt>
      <trkpt lat="44.87408" lon="5.24106">
        <ele>1305.1</ele>
        <time>2024-07-02T12:58:53Z</time>
      </trkpt>
      <trkpt lat="44.8741" lon="5.24106">
        <ele>1305.3</ele>
        <time>2024-07-02T12:58:54Z</time>
      </trkpt>
      <trkpt lat="44.8741" lon="5.24106">
        <ele>1305.4</ele>
        <time>2024-07-02T12:58:55Z</time>
      </trkpt>
      <trkpt lat="44.87411" lon="5.24105">
        <ele>1305.5</ele>
        <time>2024-07-02T12:58:56Z</time>
      </trkpt>
      <trkpt lat="44.87411" lon="5.24105">
        <ele>1305.6</ele>
        <time>2024-07-02T12:58:57Z</time>
      </trkpt>
      <trkpt lat="44.87412" lon="5.24104">
        <ele>1305.7</ele>
        <time>2024-07-02T12:58:58Z</time>
      </trkpt>
      <trkpt lat="44.87413" lon="5.24103">
        <ele>1305.8</ele>
        <time>2024-07-02T12:58:59Z</time>
      </trkpt>
      <trkpt lat="44.87414" lon="5.24103">
        <ele>1305.9</ele>
        <time>2024-07-02T12:59:00Z</time>
      </trkpt>
      <trkpt lat="44.87415" lon="5.24102">
        <ele>1306.1</ele>
        <time>2024-07-02T12:59:01Z</time>
      </trkpt>
      <trkpt lat="44.87415" lon="5.24101">
        <ele>1306.2</ele>
        <time>2024-07-02T12:59:02Z</time>
      </trkpt>
      <trkpt lat="44.87416" lon="5.24101">
        <ele>1306.3</ele>
        <time>2024-07-02T12:59:03Z</time>
      </trkpt>
      <trkpt lat="44.87418" lon="5.241">
        <ele>1306.5</ele>
        <time>2024-07-02T12:59:04Z</time>
      </trkpt>
      <trkpt lat="44.87418" lon="5.241">
        <ele>1306.6</ele>
        <time>2024-07-02T12:59:05Z</time>
      </trkpt>
      <trkpt lat="44.87419" lon="5.24099">
        <ele>1306.7</ele>
        <time>2024-07-02T12:59:06Z</time>
      </trkpt>
      <trkpt lat="44.8742" lon="5.24099">
        <ele>1306.8</ele>
        <time>2024-07-02T12:59:07Z</time>
      </trkpt>
      <trkpt lat="44.87421" lon="5.24098">
        <ele>1307</ele>
        <time>2024-07-02T12:59:08Z</time>
      </trkpt>
      <trkpt lat="44.87422" lon="5.24097">
        <ele>1307.1</ele>
        <time>2024-07-02T12:59:09Z</time>
      </trkpt>
      <trkpt lat="44.87422" lon="5.24097">
        <ele>1307.3</ele>
        <time>2024-07-02T12:59:10Z</time>
      </trkpt>
      <trkpt lat="44.87423" lon="5.24096">
        <ele>1307.4</ele>
        <time>2024-07-02T12:59:11Z</time>
      </trkpt>
      <trkpt lat="44.87424" lon="5.24095">
        <ele>1307.6</ele>
        <time>2024-07-02T12:59:12Z</time>
      </trkpt>
      <trkpt lat="44.87425" lon="5.24095">
        <ele>1307.7</ele>
        <time>2024-07-02T12:59:13Z</time>
      </trkpt>
      <trkpt lat="44.87426" lon="5.24094">
        <ele>1307.8</ele>
        <time>2024-07-02T12:59:14Z</time>
      </trkpt>
      <trkpt lat="44.87427" lon="5.24094">
        <ele>1308</ele>
        <time>2024-07-02T12:59:15Z</time>
      </trkpt>
      <trkpt lat="44.87427" lon="5.24093">
        <ele>1308.1</ele>
        <time>2024-07-02T12:59:16Z</time>
      </trkpt>
      <trkpt lat="44.87428" lon="5.24093">
        <ele>1308.2</ele>
        <time>2024-07-02T12:59:17Z</time>
      </trkpt>
      <trkpt lat="44.8743" lon="5.24092">
        <ele>1308.4</ele>
        <time>2024-07-02T12:59:18Z</time>
      </trkpt>
      <trkpt lat="44.8743" lon="5.24091">
        <ele>1308.5</ele>
        <time>2024-07-02T12:59:19Z</time>
      </trkpt>
      <trkpt lat="44.87431" lon="5.24091">
        <ele>1308.6</ele>
        <time>2024-07-02T12:59:20Z</time>
      </trkpt>
      <trkpt lat="44.87432" lon="5.2409">
        <ele>1308.7</ele>
        <time>2024-07-02T12:59:21Z</time>
      </trkpt>
      <trkpt lat="44.87433" lon="5.24089">
        <ele>1308.9</ele>
        <time>2024-07-02T12:59:22Z</time>
      </trkpt>
      <trkpt lat="44.87433" lon="5.24089">
        <ele>1309</ele>
        <time>2024-07-02T12:59:23Z</time>
      </trkpt>
      <trkpt lat="44.87434" lon="5.24088">
        <ele>1309.1</ele>
        <time>2024-07-02T12:59:24Z</time>
      </trkpt>
      <trkpt lat="44.87435" lon="5.24088">
        <ele>1309.3</ele>
        <time>2024-07-02T12:59:25Z</time>
      </trkpt>
      <trkpt lat="44.87436" lon="5.24087">
        <ele>1309.4</ele>
        <time>2024-07-02T12:59:26Z</time>
      </trkpt>
      <trkpt lat="44.87437" lon="5.24086">
        <ele>1309.6</ele>
        <time>2024-07-02T12:59:27Z</time>
      </trkpt>
      <trkpt lat="44.87438" lon="5.24086">
        <ele>1309.7</ele>
        <time>2024-07-02T12:59:28Z</time>
      </trkpt>
      <trkpt lat="44.87439" lon="5.24085">
        <ele>1309.8</ele>
        <time>2024-07-02T12:59:29Z</time>
      </trkpt>
      <trkpt lat="44.8744" lon="5.24084">
        <ele>1309.9</ele>
        <time>2024-07-02T12:59:30Z</time>
      </trkpt>
      <trkpt lat="44.87441" lon="5.24083">
        <ele>1310.1</ele>
        <time>2024-07-02T12:59:31Z</time>
      </trkpt>
      <trkpt lat="44.87442" lon="5.24083">
        <ele>1310.2</ele>
        <time>2024-07-02T12:59:32Z</time>
      </trkpt>
      <trkpt lat="44.87443" lon="5.24082">
        <ele>1310.3</ele>
        <time>2024-07-02T12:59:33Z</time>
      </trkpt>
      <trkpt lat="44.87444" lon="5.24082">
        <ele>1310.4</ele>
        <time>2024-07-02T12:59:34Z</time>
      </trkpt>
      <trkpt lat="44.87445" lon="5.24081">
        <ele>1310.5</ele>
        <time>2024-07-02T12:59:35Z</time>
      </trkpt>
      <trkpt lat="44.87446" lon="5.2408">
        <ele>1310.6</ele>
        <time>2024-07-02T12:59:36Z</time>
      </trkpt>
      <trkpt lat="44.87447" lon="5.24079">
        <ele>1310.8</ele>
        <time>2024-07-02T12:59:37Z</time>
      </trkpt>
      <trkpt lat="44.87448" lon="5.24079">
        <ele>1310.8</ele>
        <time>2024-07-02T12:59:38Z</time>
      </trkpt>
      <trkpt lat="44.87449" lon="5.24078">
        <ele>1311</ele>
        <time>2024-07-02T12:59:39Z</time>
      </trkpt>
      <trkpt lat="44.8745" lon="5.24077">
        <ele>1311.1</ele>
        <time>2024-07-02T12:59:40Z</time>
      </trkpt>
      <trkpt lat="44.87451" lon="5.24076">
        <ele>1311.2</ele>
        <time>2024-07-02T12:59:41Z</time>
      </trkpt>
      <trkpt lat="44.87452" lon="5.24075">
        <ele>1311.3</ele>
        <time>2024-07-02T12:59:42Z</time>
      </trkpt>
      <trkpt lat="44.87454" lon="5.24074">
        <ele>1311.5</ele>
        <time>2024-07-02T12:59:43Z</time>
      </trkpt>
      <trkpt lat="44.87454" lon="5.24073">
        <ele>1311.6</ele>
        <time>2024-07-02T12:59:44Z</time>
      </trkpt>
      <trkpt lat="44.87455" lon="5.24073">
        <ele>1311.7</ele>
        <time>2024-07-02T12:59:45Z</time>
      </trkpt>
      <trkpt lat="44.87457" lon="5.24072">
        <ele>1311.9</ele>
        <time>2024-07-02T12:59:46Z</time>
      </trkpt>
      <trkpt lat="44.87458" lon="5.24072">
        <ele>1311.9</ele>
        <time>2024-07-02T12:59:47Z</time>
      </trkpt>
      <trkpt lat="44.87459" lon="5.24072">
        <ele>1312</ele>
        <time>2024-07-02T12:59:48Z</time>
      </trkpt>
      <trkpt lat="44.8746" lon="5.24071">
        <ele>1312.1</ele>
        <time>2024-07-02T12:59:49Z</time>
      </trkpt>
      <trkpt lat="44.87461" lon="5.24071">
        <ele>1312.3</ele>
        <time>2024-07-02T12:59:50Z</time>
      </trkpt>
      <trkpt lat="44.87462" lon="5.2407">
        <ele>1312.4</ele>
        <time>2024-07-02T12:59:51Z</time>
      </trkpt>
      <trkpt lat="44.87463" lon="5.24069">
        <ele>1312.5</ele>
        <time>2024-07-02T12:59:52Z</time>
      </trkpt>
      <trkpt lat="44.87464" lon="5.24069">
        <ele>1312.6</ele>
        <time>2024-07-02T12:59:53Z</time>
      </trkpt>
      <trkpt lat="44.87465" lon="5.24068">
        <ele>1312.7</ele>
        <time>2024-07-02T12:59:54Z</time>
      </trkpt>
      <trkpt lat="44.87467" lon="5.24068">
        <ele>1312.9</ele>
        <time>2024-07-02T12:59:55Z</time>
      </trkpt>
      <trkpt lat="44.87468" lon="5.24068">
        <ele>1313</ele>
        <time>2024-07-02T12:59:56Z</time>
      </trkpt>
      <trkpt lat="44.87468" lon="5.24067">
        <ele>1313.1</ele>
        <time>2024-07-02T12:59:57Z</time>
      </trkpt>
      <trkpt lat="44.87469" lon="5.24067">
        <ele>1313.3</ele>
        <time>2024-07-02T12:59:58Z</time>
      </trkpt>
      <trkpt lat="44.8747" lon="5.24066">
        <ele>1313.4</ele>
        <time>2024-07-02T12:59:59Z</time>
      </trkpt>
      <trkpt lat="44.87471" lon="5.24066">
        <ele>1313.5</ele>
        <time>2024-07-02T13:00:00Z</time>
      </trkpt>
      <trkpt lat="44.87472" lon="5.24066">
        <ele>1313.6</ele>
        <time>2024-07-02T13:00:01Z</time>
      </trkpt>
      <trkpt lat="44.87473" lon="5.24066">
        <ele>1313.7</ele>
        <time>2024-07-02T13:00:02Z</time>
      </trkpt>
      <trkpt lat="44.87474" lon="5.24065">
        <ele>1313.9</ele>
        <time>2024-07-02T13:00:03Z</time>
      </trkpt>
      <trkpt lat="44.87475" lon="5.24065">
        <ele>1314</ele>
        <time>2024-07-02T13:00:04Z</time>
      </trkpt>
      <trkpt lat="44.87476" lon="5.24064">
        <ele>1314.1</ele>
        <time>2024-07-02T13:00:05Z</time>
      </trkpt>
      <trkpt lat="44.87476" lon="5.24063">
        <ele>1314.2</ele>
        <time>2024-07-02T13:00:06Z</time>
      </trkpt>
      <trkpt lat="44.87477" lon="5.24062">
        <ele>1314.4</ele>
        <time>2024-07-02T13:00:07Z</time>
      </trkpt>
      <trkpt lat="44.87478" lon="5.24061">
        <ele>1314.5</ele>
        <time>2024-07-02T13:00:08Z</time>
      </trkpt>
      <trkpt lat="44.87479" lon="5.24061">
        <ele>1314.6</ele>
        <time>2024-07-02T13:00:09Z</time>
      </trkpt>
      <trkpt lat="44.8748" lon="5.24061">
        <ele>1314.8</ele>
        <time>2024-07-02T13:00:10Z</time>
      </trkpt>
      <trkpt lat="44.87481" lon="5.2406">
        <ele>1314.9</ele>
        <time>2024-07-02T13:00:11Z</time>
      </trkpt>
      <trkpt lat="44.87481" lon="5.2406">
        <ele>1315</ele>
        <time>2024-07-02T13:00:12Z</time>
      </trkpt>
      <trkpt lat="44.87482" lon="5.24059">
        <ele>1315.1</ele>
        <time>2024-07-02T13:00:13Z</time>
      </trkpt>
      <trkpt lat="44.87483" lon="5.24058">
        <ele>1315.3</ele>
        <time>2024-07-02T13:00:14Z</time>
      </trkpt>
      <trkpt lat="44.87484" lon="5.24058">
        <ele>1315.4</ele>
        <time>2024-07-02T13:00:15Z</time>
      </trkpt>
      <trkpt lat="44.87484" lon="5.24057">
        <ele>1315.5</ele>
        <time>2024-07-02T13:00:16Z</time>
      </trkpt>
      <trkpt lat="44.87485" lon="5.24056">
        <ele>1315.7</ele>
        <time>2024-07-02T13:00:17Z</time>
      </trkpt>
      <trkpt lat="44.87486" lon="5.24055">
        <ele>1315.8</ele>
        <time>2024-07-02T13:00:18Z</time>
      </trkpt>
      <trkpt lat="44.87487" lon="5.24054">
        <ele>1315.9</ele>
        <time>2024-07-02T13:00:19Z</time>
      </trkpt>
      <trkpt lat="44.87488" lon="5.24053">
        <ele>1316.1</ele>
        <time>2024-07-02T13:00:20Z</time>
      </trkpt>
      <trkpt lat="44.87488" lon="5.24053">
        <ele>1316.2</ele>
        <time>2024-07-02T13:00:21Z</time>
      </trkpt>
      <trkpt lat="44.87489" lon="5.24052">
        <ele>1316.3</ele>
        <time>2024-07-02T13:00:22Z</time>
      </trkpt>
      <trkpt lat="44.8749" lon="5.24052">
        <ele>1316.5</ele>
        <time>2024-07-02T13:00:23Z</time>
      </trkpt>
      <trkpt lat="44.87491" lon="5.24051">
        <ele>1316.6</ele>
        <time>2024-07-02T13:00:24Z</time>
      </trkpt>
      <trkpt lat="44.87492" lon="5.2405">
        <ele>1316.7</ele>
        <time>2024-07-02T13:00:25Z</time>
      </trkpt>
      <trkpt lat="44.87493" lon="5.2405">
        <ele>1316.9</ele>
        <time>2024-07-02T13:00:26Z</time>
      </trkpt>
      <trkpt lat="44.87494" lon="5.24049">
        <ele>1317</ele>
        <time>2024-07-02T13:00:27Z</time>
      </trkpt>
      <trkpt lat="44.87495" lon="5.24048">
        <ele>1317.1</ele>
        <time>2024-07-02T13:00:28Z</time>
      </trkpt>
      <trkpt lat="44.87496" lon="5.24048">
        <ele>1317.2</ele>
        <time>2024-07-02T13:00:29Z</time>
      </trkpt>
      <trkpt lat="44.87497" lon="5.24047">
        <ele>1317.4</ele>
        <time>2024-07-02T13:00:30Z</time>
      </trkpt>
      <trkpt lat="44.87498" lon="5.24047">
        <ele>1317.5</ele>
        <time>2024-07-02T13:00:31Z</time>
      </trkpt>
      <trkpt lat="44.87499" lon="5.24047">
        <ele>1317.6</ele>
        <time>2024-07-02T13:00:32Z</time>
      </trkpt>
      <trkpt lat="44.87501" lon="5.24046">
        <ele>1317.7</ele>
        <time>2024-07-02T13:00:33Z</time>
      </trkpt>
      <trkpt lat="44.87502" lon="5.24046">
        <ele>1317.9</ele>
        <time>2024-07-02T13:00:34Z</time>
      </trkpt>
      <trkpt lat="44.87503" lon="5.24046">
        <ele>1318</ele>
        <time>2024-07-02T13:00:35Z</time>
      </trkpt>
      <trkpt lat="44.87504" lon="5.24045">
        <ele>1318.1</ele>
        <time>2024-07-02T13:00:36Z</time>
      </trkpt>
      <trkpt lat="44.87505" lon="5.24045">
        <ele>1318.2</ele>
        <time>2024-07-02T13:00:37Z</time>
      </trkpt>
      <trkpt lat="44.87506" lon="5.24044">
        <ele>1318.3</ele>
        <time>2024-07-02T13:00:38Z</time>
      </trkpt>
      <trkpt lat="44.87507" lon="5.24043">
        <ele>1318.4</ele>
        <time>2024-07-02T13:00:39Z</time>
      </trkpt>
      <trkpt lat="44.87508" lon="5.24042">
        <ele>1318.6</ele>
        <time>2024-07-02T13:00:40Z</time>
      </trkpt>
      <trkpt lat="44.87509" lon="5.24041">
        <ele>1318.7</ele>
        <time>2024-07-02T13:00:41Z</time>
      </trkpt>
      <trkpt lat="44.8751" lon="5.2404">
        <ele>1318.8</ele>
        <time>2024-07-02T13:00:42Z</time>
      </trkpt>
      <trkpt lat="44.87511" lon="5.24039">
        <ele>1319</ele>
        <time>2024-07-02T13:00:43Z</time>
      </trkpt>
      <trkpt lat="44.87512" lon="5.24038">
        <ele>1319.1</ele>
        <time>2024-07-02T13:00:44Z</time>
      </trkpt>
      <trkpt lat="44.87513" lon="5.24039">
        <ele>1319.2</ele>
        <time>2024-07-02T13:00:45Z</time>
      </trkpt>
      <trkpt lat="44.87514" lon="5.24039">
        <ele>1319.3</ele>
        <time>2024-07-02T13:00:46Z</time>
      </trkpt>
      <trkpt lat="44.87515" lon="5.24039">
        <ele>1319.4</ele>
        <time>2024-07-02T13:00:47Z</time>
      </trkpt>
      <trkpt lat="44.87516" lon="5.24039">
        <ele>1319.5</ele>
        <time>2024-07-02T13:00:48Z</time>
      </trkpt>
      <trkpt lat="44.87517" lon="5.24038">
        <ele>1319.6</ele>
        <time>2024-07-02T13:00:49Z</time>
      </trkpt>
      <trkpt lat="44.87519" lon="5.24038">
        <ele>1319.7</ele>
        <time>2024-07-02T13:00:50Z</time>
      </trkpt>
      <trkpt lat="44.8752" lon="5.24038">
        <ele>1319.8</ele>
        <time>2024-07-02T13:00:51Z</time>
      </trkpt>
      <trkpt lat="44.8752" lon="5.24037">
        <ele>1319.9</ele>
        <time>2024-07-02T13:00:52Z</time>
      </trkpt>
      <trkpt lat="44.87521" lon="5.24036">
        <ele>1320</ele>
        <time>2024-07-02T13:00:53Z</time>
      </trkpt>
      <trkpt lat="44.87522" lon="5.24036">
        <ele>1320.1</ele>
        <time>2024-07-02T13:00:54Z</time>
      </trkpt>
      <trkpt lat="44.87524" lon="5.24035">
        <ele>1320.3</ele>
        <time>2024-07-02T13:00:55Z</time>
      </trkpt>
      <trkpt lat="44.87525" lon="5.24034">
        <ele>1320.3</ele>
        <time>2024-07-02T13:00:56Z</time>
      </trkpt>
      <trkpt lat="44.87526" lon="5.24034">
        <ele>1320.5</ele>
        <time>2024-07-02T13:00:57Z</time>
      </trkpt>
      <trkpt lat="44.87527" lon="5.24033">
        <ele>1320.6</ele>
        <time>2024-07-02T13:00:58Z</time>
      </trkpt>
      <trkpt lat="44.87528" lon="5.24032">
        <ele>1320.7</ele>
        <time>2024-07-02T13:00:59Z</time>
      </trkpt>
      <trkpt lat="44.87529" lon="5.24032">
        <ele>1320.8</ele>
        <time>2024-07-02T13:01:00Z</time>
      </trkpt>
      <trkpt lat="44.8753" lon="5.24032">
        <ele>1320.9</ele>
        <time>2024-07-02T13:01:01Z</time>
      </trkpt>
      <trkpt lat="44.87531" lon="5.24031">
        <ele>1321</ele>
        <time>2024-07-02T13:01:02Z</time>
      </trkpt>
      <trkpt lat="44.87532" lon="5.2403">
        <ele>1321.1</ele>
        <time>2024-07-02T13:01:03Z</time>
      </trkpt>
      <trkpt lat="44.87534" lon="5.24029">
        <ele>1321.2</ele>
        <time>2024-07-02T13:01:04Z</time>
      </trkpt>
      <trkpt lat="44.87535" lon="5.24029">
        <ele>1321.3</ele>
        <time>2024-07-02T13:01:05Z</time>
      </trkpt>
      <trkpt lat="44.87536" lon="5.24028">
        <ele>1321.3</ele>
        <time>2024-07-02T13:01:06Z</time>
      </trkpt>
      <trkpt lat="44.87537" lon="5.24028">
        <ele>1321.4</ele>
        <time>2024-07-02T13:01:07Z</time>
      </trkpt>
      <trkpt lat="44.87537" lon="5.24027">
        <ele>1321.5</ele>
        <time>2024-07-02T13:01:08Z</time>
      </trkpt>
      <trkpt lat="44.87538" lon="5.24026">
        <ele>1321.6</ele>
        <time>2024-07-02T13:01:09Z</time>
      </trkpt>
      <trkpt lat="44.8754" lon="5.24025">
        <ele>1321.6</ele>
        <time>2024-07-02T13:01:10Z</time>
      </trkpt>
      <trkpt lat="44.8754" lon="5.24024">
        <ele>1321.7</ele>
        <time>2024-07-02T13:01:11Z</time>
      </trkpt>
      <trkpt lat="44.87541" lon="5.24023">
        <ele>1321.8</ele>
        <time>2024-07-02T13:01:12Z</time>
      </trkpt>
      <trkpt lat="44.87542" lon="5.24023">
        <ele>1321.8</ele>
        <time>2024-07-02T13:01:13Z</time>
      </trkpt>
      <trkpt lat="44.87544" lon="5.24021">
        <ele>1321.9</ele>
        <time>2024-07-02T13:01:14Z</time>
      </trkpt>
      <trkpt lat="44.87546" lon="5.2402">
        <ele>1322.1</ele>
        <time>2024-07-02T13:01:15Z</time>
      </trkpt>
      <trkpt lat="44.87547" lon="5.2402">
        <ele>1322.1</ele>
        <time>2024-07-02T13:01:16Z</time>
      </trkpt>
      <trkpt lat="44.87547" lon="5.2402">
        <ele>1322.2</ele>
        <time>2024-07-02T13:01:17Z</time>
      </trkpt>
      <trkpt lat="44.87548" lon="5.24019">
        <ele>1322.2</ele>
        <time>2024-07-02T13:01:18Z</time>
      </trkpt>
      <trkpt lat="44.8755" lon="5.24019">
        <ele>1322.3</ele>
        <time>2024-07-02T13:01:19Z</time>
      </trkpt>
      <trkpt lat="44.87551" lon="5.24018">
        <ele>1322.3</ele>
        <time>2024-07-02T13:01:20Z</time>
      </trkpt>
      <trkpt lat="44.87552" lon="5.24018">
        <ele>1322.4</ele>
        <time>2024-07-02T13:01:21Z</time>
      </trkpt>
      <trkpt lat="44.87553" lon="5.24017">
        <ele>1322.4</ele>
        <time>2024-07-02T13:01:22Z</time>
      </trkpt>
      <trkpt lat="44.87554" lon="5.24017">
        <ele>1322.5</ele>
        <time>2024-07-02T13:01:23Z</time>
      </trkpt>
      <trkpt lat="44.87555" lon="5.24016">
        <ele>1322.6</ele>
        <time>2024-07-02T13:01:24Z</time>
      </trkpt>
      <trkpt lat="44.87557" lon="5.24015">
        <ele>1322.6</ele>
        <time>2024-07-02T13:01:25Z</time>
      </trkpt>
      <trkpt lat="44.87558" lon="5.24014">
        <ele>1322.7</ele>
        <time>2024-07-02T13:01:26Z</time>
      </trkpt>
      <trkpt lat="44.87559" lon="5.24014">
        <ele>1322.7</ele>
        <time>2024-07-02T13:01:27Z</time>
      </trkpt>
      <trkpt lat="44.8756" lon="5.24013">
        <ele>1322.7</ele>
        <time>2024-07-02T13:01:28Z</time>
      </trkpt>
      <trkpt lat="44.87561" lon="5.24012">
        <ele>1322.8</ele>
        <time>2024-07-02T13:01:29Z</time>
      </trkpt>
      <trkpt lat="44.87562" lon="5.24011">
        <ele>1322.8</ele>
        <time>2024-07-02T13:01:30Z</time>
      </trkpt>
      <trkpt lat="44.87563" lon="5.24011">
        <ele>1322.8</ele>
        <time>2024-07-02T13:01:31Z</time>
      </trkpt>
      <trkpt lat="44.87565" lon="5.2401">
        <ele>1322.9</ele>
        <time>2024-07-02T13:01:32Z</time>
      </trkpt>
      <trkpt lat="44.87566" lon="5.2401">
        <ele>1322.9</ele>
        <time>2024-07-02T13:01:33Z</time>
      </trkpt>
      <trkpt lat="44.87567" lon="5.2401">
        <ele>1323</ele>
        <time>2024-07-02T13:01:34Z</time>
      </trkpt>
      <trkpt lat="44.87569" lon="5.24009">
        <ele>1323</ele>
        <time>2024-07-02T13:01:35Z</time>
      </trkpt>
      <trkpt lat="44.8757" lon="5.24008">
        <ele>1323.1</ele>
        <time>2024-07-02T13:01:36Z</time>
      </trkpt>
      <trkpt lat="44.87571" lon="5.24008">
        <ele>1323.1</ele>
        <time>2024-07-02T13:01:37Z</time>
      </trkpt>
      <trkpt lat="44.87573" lon="5.24007">
        <ele>1323.1</ele>
        <time>2024-07-02T13:01:38Z</time>
      </trkpt>
      <trkpt lat="44.87573" lon="5.24007">
        <ele>1323.1</ele>
        <time>2024-07-02T13:01:39Z</time>
      </trkpt>
      <trkpt lat="44.87574" lon="5.24007">
        <ele>1323.2</ele>
        <time>2024-07-02T13:01:40Z</time>
      </trkpt>
      <trkpt lat="44.87575" lon="5.24006">
        <ele>1323.2</ele>
        <time>2024-07-02T13:01:41Z</time>
      </trkpt>
      <trkpt lat="44.87576" lon="5.24006">
        <ele>1323.2</ele>
        <time>2024-07-02T13:01:42Z</time>
      </trkpt>
      <trkpt lat="44.87577" lon="5.24005">
        <ele>1323.2</ele>
        <time>2024-07-02T13:01:43Z</time>
      </trkpt>
      <trkpt lat="44.8758" lon="5.24005">
        <ele>1323.3</ele>
        <time>2024-07-02T13:01:44Z</time>
      </trkpt>
      <trkpt lat="44.8758" lon="5.24005">
        <ele>1323.3</ele>
        <time>2024-07-02T13:01:45Z</time>
      </trkpt>
      <trkpt lat="44.87581" lon="5.24004">
        <ele>1323.3</ele>
        <time>2024-07-02T13:01:46Z</time>
      </trkpt>
      <trkpt lat="44.87583" lon="5.24004">
        <ele>1323.3</ele>
        <time>2024-07-02T13:01:47Z</time>
      </trkpt>
      <trkpt lat="44.87584" lon="5.24003">
        <ele>1323.4</ele>
        <time>2024-07-02T13:01:48Z</time>
      </trkpt>
      <trkpt lat="44.87585" lon="5.24003">
        <ele>1323.4</ele>
        <time>2024-07-02T13:01:49Z</time>
      </trkpt>
      <trkpt lat="44.87587" lon="5.24002">
        <ele>1323.4</ele>
        <time>2024-07-02T13:01:50Z</time>
      </trkpt>
      <trkpt lat="44.87588" lon="5.24002">
        <ele>1323.4</ele>
        <time>2024-07-02T13:01:51Z</time>
      </trkpt>
      <trkpt lat="44.87589" lon="5.24002">
        <ele>1323.4</ele>
        <time>2024-07-02T13:01:52Z</time>
      </trkpt>
      <trkpt lat="44.87591" lon="5.24001">
        <ele>1323.5</ele>
        <time>2024-07-02T13:01:53Z</time>
      </trkpt>
      <trkpt lat="44.87591" lon="5.24">
        <ele>1323.5</ele>
        <time>2024-07-02T13:01:54Z</time>
      </trkpt>
      <trkpt lat="44.87592" lon="5.24">
        <ele>1323.5</ele>
        <time>2024-07-02T13:01:55Z</time>
      </trkpt>
      <trkpt lat="44.87593" lon="5.23999">
        <ele>1323.5</ele>
        <time>2024-07-02T13:01:56Z</time>
      </trkpt>
      <trkpt lat="44.87594" lon="5.23999">
        <ele>1323.5</ele>
        <time>2024-07-02T13:01:57Z</time>
      </trkpt>
      <trkpt lat="44.87596" lon="5.23998">
        <ele>1323.5</ele>
        <time>2024-07-02T13:01:58Z</time>
      </trkpt>
      <trkpt lat="44.87598" lon="5.23998">
        <ele>1323.6</ele>
        <time>2024-07-02T13:01:59Z</time>
      </trkpt>
      <trkpt lat="44.87598" lon="5.23998">
        <ele>1323.6</ele>
        <time>2024-07-02T13:02:00Z</time>
      </trkpt>
      <trkpt lat="44.87599" lon="5.23998">
        <ele>1323.6</ele>
        <time>2024-07-02T13:02:01Z</time>
      </trkpt>
      <trkpt lat="44.87601" lon="5.23999">
        <ele>1323.6</ele>
        <time>2024-07-02T13:02:02Z</time>
      </trkpt>
      <trkpt lat="44.87602" lon="5.23999">
        <ele>1323.6</ele>
        <time>2024-07-02T13:02:03Z</time>
      </trkpt>
      <trkpt lat="44.87603" lon="5.23999">
        <ele>1323.6</ele>
        <time>2024-07-02T13:02:04Z</time>
      </trkpt>
      <trkpt lat="44.87605" lon="5.24001">
        <ele>1323.6</ele>
        <time>2024-07-02T13:02:05Z</time>
      </trkpt>
      <trkpt lat="44.87606" lon="5.24001">
        <ele>1323.6</ele>
        <time>2024-07-02T13:02:06Z</time>
      </trkpt>
      <trkpt lat="44.87607" lon="5.24001">
        <ele>1323.7</ele>
        <time>2024-07-02T13:02:07Z</time>
      </trkpt>
      <trkpt lat="44.87609" lon="5.24001">
        <ele>1323.7</ele>
        <time>2024-07-02T13:02:08Z</time>
      </trkpt>
      <trkpt lat="44.8761" lon="5.24002">
        <ele>1323.7</ele>
        <time>2024-07-02T13:02:09Z</time>
      </trkpt>
      <trkpt lat="44.87611" lon="5.24002">
        <ele>1323.7</ele>
        <time>2024-07-02T13:02:10Z</time>
      </trkpt>
      <trkpt lat="44.87612" lon="5.24001">
        <ele>1323.7</ele>
        <time>2024-07-02T13:02:11Z</time>
      </trkpt>
      <trkpt lat="44.87613" lon="5.24002">
        <ele>1323.7</ele>
        <time>2024-07-02T13:02:12Z</time>
      </trkpt>
      <trkpt lat="44.87614" lon="5.24002">
        <ele>1323.7</ele>
        <time>2024-07-02T13:02:13Z</time>
      </trkpt>
      <trkpt lat="44.87616" lon="5.24002">
        <ele>1323.7</ele>
        <time>2024-07-02T13:02:14Z</time>
      </trkpt>
      <trkpt lat="44.87617" lon="5.24002">
        <ele>1323.7</ele>
        <time>2024-07-02T13:02:15Z</time>
      </trkpt>
      <trkpt lat="44.87618" lon="5.24003">
        <ele>1323.7</ele>
        <time>2024-07-02T13:02:16Z</time>
      </trkpt>
      <trkpt lat="44.87619" lon="5.24003">
        <ele>1323.7</ele>
        <time>2024-07-02T13:02:17Z</time>
      </trkpt>
      <trkpt lat="44.8762" lon="5.24003">
        <ele>1323.8</ele>
        <time>2024-07-02T13:02:18Z</time>
      </trkpt>
      <trkpt lat="44.87622" lon="5.24002">
        <ele>1323.8</ele>
        <time>2024-07-02T13:02:19Z</time>
      </trkpt>
      <trkpt lat="44.87623" lon="5.24002">
        <ele>1323.8</ele>
        <time>2024-07-02T13:02:20Z</time>
      </trkpt>
      <trkpt lat="44.87625" lon="5.24001">
        <ele>1323.8</ele>
        <time>2024-07-02T13:02:21Z</time>
      </trkpt>
      <trkpt lat="44.87626" lon="5.24001">
        <ele>1323.8</ele>
        <time>2024-07-02T13:02:22Z</time>
      </trkpt>
      <trkpt lat="44.87627" lon="5.24">
        <ele>1323.8</ele>
        <time>2024-07-02T13:02:23Z</time>
      </trkpt>
      <trkpt lat="44.87629" lon="5.23999">
        <ele>1323.8</ele>
        <time>2024-07-02T13:02:24Z</time>
      </trkpt>
      <trkpt lat="44.87629" lon="5.23999">
        <ele>1323.8</ele>
        <time>2024-07-02T13:02:25Z</time>
      </trkpt>
      <trkpt lat="44.8763" lon="5.23999">
        <ele>1323.8</ele>
        <time>2024-07-02T13:02:26Z</time>
      </trkpt>
      <trkpt lat="44.87632" lon="5.23998">
        <ele>1323.8</ele>
        <time>2024-07-02T13:02:27Z</time>
      </trkpt>
      <trkpt lat="44.87633" lon="5.23998">
        <ele>1323.8</ele>
        <time>2024-07-02T13:02:28Z</time>
      </trkpt>
      <trkpt lat="44.87635" lon="5.23997">
        <ele>1323.9</ele>
        <time>2024-07-02T13:02:29Z</time>
      </trkpt>
      <trkpt lat="44.87636" lon="5.23997">
        <ele>1323.9</ele>
        <time>2024-07-02T13:02:30Z</time>
      </trkpt>
      <trkpt lat="44.87637" lon="5.23997">
        <ele>1323.9</ele>
        <time>2024-07-02T13:02:31Z</time>
      </trkpt>
      <trkpt lat="44.87639" lon="5.23997">
        <ele>1323.9</ele>
        <time>2024-07-02T13:02:32Z</time>
      </trkpt>
      <trkpt lat="44.87639" lon="5.23997">
        <ele>1323.9</ele>
        <time>2024-07-02T13:02:33Z</time>
      </trkpt>
      <trkpt lat="44.8764" lon="5.23997">
        <ele>1323.9</ele>
        <time>2024-07-02T13:02:34Z</time>
      </trkpt>
      <trkpt lat="44.87642" lon="5.23996">
        <ele>1323.9</ele>
        <time>2024-07-02T13:02:35Z</time>
      </trkpt>
      <trkpt lat="44.87643" lon="5.23997">
        <ele>1323.9</ele>
        <time>2024-07-02T13:02:36Z</time>
      </trkpt>
      <trkpt lat="44.87644" lon="5.23997">
        <ele>1324</ele>
        <time>2024-07-02T13:02:37Z</time>
      </trkpt>
      <trkpt lat="44.87646" lon="5.23996">
        <ele>1324</ele>
        <time>2024-07-02T13:02:38Z</time>
      </trkpt>
      <trkpt lat="44.87648" lon="5.23996">
        <ele>1324</ele>
        <time>2024-07-02T13:02:39Z</time>
      </trkpt>
      <trkpt lat="44.87649" lon="5.23996">
        <ele>1324</ele>
        <time>2024-07-02T13:02:40Z</time>
      </trkpt>
      <trkpt lat="44.87649" lon="5.23996">
        <ele>1324.1</ele>
        <time>2024-07-02T13:02:41Z</time>
      </trkpt>
      <trkpt lat="44.8765" lon="5.23995">
        <ele>1324.1</ele>
        <time>2024-07-02T13:02:42Z</time>
      </trkpt>
      <trkpt lat="44.87652" lon="5.23995">
        <ele>1324.1</ele>
        <time>2024-07-02T13:02:43Z</time>
      </trkpt>
      <trkpt lat="44.87652" lon="5.23994">
        <ele>1324.2</ele>
        <time>2024-07-02T13:02:44Z</time>
      </trkpt>
      <trkpt lat="44.87654" lon="5.23993">
        <ele>1324.2</ele>
        <time>2024-07-02T13:02:45Z</time>
      </trkpt>
      <trkpt lat="44.87656" lon="5.23993">
        <ele>1324.3</ele>
        <time>2024-07-02T13:02:46Z</time>
      </trkpt>
      <trkpt lat="44.87656" lon="5.23992">
        <ele>1324.3</ele>
        <time>2024-07-02T13:02:47Z</time>
      </trkpt>
      <trkpt lat="44.87657" lon="5.23992">
        <ele>1324.4</ele>
        <time>2024-07-02T13:02:48Z</time>
      </trkpt>
      <trkpt lat="44.87658" lon="5.23992">
        <ele>1324.4</ele>
        <time>2024-07-02T13:02:49Z</time>
      </trkpt>
      <trkpt lat="44.8766" lon="5.23992">
        <ele>1324.5</ele>
        <time>2024-07-02T13:02:50Z</time>
      </trkpt>
      <trkpt lat="44.8766" lon="5.23992">
        <ele>1324.5</ele>
        <time>2024-07-02T13:02:51Z</time>
      </trkpt>
      <trkpt lat="44.87662" lon="5.23992">
        <ele>1324.6</ele>
        <time>2024-07-02T13:02:52Z</time>
      </trkpt>
      <trkpt lat="44.87664" lon="5.23991">
        <ele>1324.7</ele>
        <time>2024-07-02T13:02:53Z</time>
      </trkpt>
      <trkpt lat="44.87665" lon="5.23992">
        <ele>1324.8</ele>
        <time>2024-07-02T13:02:54Z</time>
      </trkpt>
      <trkpt lat="44.87665" lon="5.23992">
        <ele>1324.8</ele>
        <time>2024-07-02T13:02:55Z</time>
      </trkpt>
      <trkpt lat="44.87666" lon="5.23992">
        <ele>1324.9</ele>
        <time>2024-07-02T13:02:56Z</time>
      </trkpt>
      <trkpt lat="44.87667" lon="5.23991">
        <ele>1324.9</ele>
        <time>2024-07-02T13:02:57Z</time>
      </trkpt>
      <trkpt lat="44.87669" lon="5.23991">
        <ele>1325.1</ele>
        <time>2024-07-02T13:02:58Z</time>
      </trkpt>
      <trkpt lat="44.87669" lon="5.2399">
        <ele>1325.1</ele>
        <time>2024-07-02T13:02:59Z</time>
      </trkpt>
      <trkpt lat="44.8767" lon="5.2399">
        <ele>1325.2</ele>
        <time>2024-07-02T13:03:00Z</time>
      </trkpt>
      <trkpt lat="44.87671" lon="5.2399">
        <ele>1325.3</ele>
        <time>2024-07-02T13:03:01Z</time>
      </trkpt>
      <trkpt lat="44.87673" lon="5.23989">
        <ele>1325.4</ele>
        <time>2024-07-02T13:03:02Z</time>
      </trkpt>
      <trkpt lat="44.87674" lon="5.23989">
        <ele>1325.5</ele>
        <time>2024-07-02T13:03:03Z</time>
      </trkpt>
      <trkpt lat="44.87675" lon="5.23988">
        <ele>1325.5</ele>
        <time>2024-07-02T13:03:04Z</time>
      </trkpt>
      <trkpt lat="44.87675" lon="5.23988">
        <ele>1325.6</ele>
        <time>2024-07-02T13:03:05Z</time>
      </trkpt>
      <trkpt lat="44.87675" lon="5.23987">
        <ele>1325.6</ele>
        <time>2024-07-02T13:03:06Z</time>
      </trkpt>
      <trkpt lat="44.87676" lon="5.23987">
        <ele>1325.7</ele>
        <time>2024-07-02T13:03:07Z</time>
      </trkpt>
      <trkpt lat="44.87677" lon="5.23986">
        <ele>1325.8</ele>
        <time>2024-07-02T13:03:08Z</time>
      </trkpt>
      <trkpt lat="44.87678" lon="5.23986">
        <ele>1325.9</ele>
        <time>2024-07-02T13:03:09Z</time>
      </trkpt>
      <trkpt lat="44.87679" lon="5.23984">
        <ele>1326.1</ele>
        <time>2024-07-02T13:03:10Z</time>
      </trkpt>
      <trkpt lat="44.87679" lon="5.23983">
        <ele>1326.1</ele>
        <time>2024-07-02T13:03:11Z</time>
      </trkpt>
      <trkpt lat="44.8768" lon="5.23982">
        <ele>1326.2</ele>
        <time>2024-07-02T13:03:12Z</time>
      </trkpt>
      <trkpt lat="44.8768" lon="5.23981">
        <ele>1326.2</ele>
        <time>2024-07-02T13:03:13Z</time>
      </trkpt>
      <trkpt lat="44.8768" lon="5.2398">
        <ele>1326.3</ele>
        <time>2024-07-02T13:03:14Z</time>
      </trkpt>
      <trkpt lat="44.87681" lon="5.23979">
        <ele>1326.4</ele>
        <time>2024-07-02T13:03:15Z</time>
      </trkpt>
      <trkpt lat="44.87681" lon="5.23978">
        <ele>1326.5</ele>
        <time>2024-07-02T13:03:16Z</time>
      </trkpt>
      <trkpt lat="44.87681" lon="5.23977">
        <ele>1326.6</ele>
        <time>2024-07-02T13:03:17Z</time>
      </trkpt>
      <trkpt lat="44.87682" lon="5.23976">
        <ele>1326.6</ele>
        <time>2024-07-02T13:03:18Z</time>
      </trkpt>
      <trkpt lat="44.87682" lon="5.23975">
        <ele>1326.7</ele>
        <time>2024-07-02T13:03:19Z</time>
      </trkpt>
      <trkpt lat="44.87682" lon="5.23974">
        <ele>1326.8</ele>
        <time>2024-07-02T13:03:20Z</time>
      </trkpt>
      <trkpt lat="44.87681" lon="5.23973">
        <ele>1326.9</ele>
        <time>2024-07-02T13:03:21Z</time>
      </trkpt>
      <trkpt lat="44.8768" lon="5.23973">
        <ele>1326.9</ele>
        <time>2024-07-02T13:03:22Z</time>
      </trkpt>
      <trkpt lat="44.8768" lon="5.23973">
        <ele>1327</ele>
        <time>2024-07-02T13:03:23Z</time>
      </trkpt>
      <trkpt lat="44.8768" lon="5.23974">
        <ele>1327</ele>
        <time>2024-07-02T13:03:24Z</time>
      </trkpt>
      <trkpt lat="44.8768" lon="5.23974">
        <ele>1327</ele>
        <time>2024-07-02T13:03:25Z</time>
      </trkpt>
      <trkpt lat="44.8768" lon="5.23974">
        <ele>1327</ele>
        <time>2024-07-02T13:03:26Z</time>
      </trkpt>
      <trkpt lat="44.8768" lon="5.23974">
        <ele>1327.1</ele>
        <time>2024-07-02T13:03:27Z</time>
      </trkpt>
      <trkpt lat="44.8768" lon="5.23974">
        <ele>1327.1</ele>
        <time>2024-07-02T13:03:28Z</time>
      </trkpt>
      <trkpt lat="44.8768" lon="5.23974">
        <ele>1327.1</ele>
        <time>2024-07-02T13:03:29Z</time>
      </trkpt>
      <trkpt lat="44.8768" lon="5.23975">
        <ele>1327.1</ele>
        <time>2024-07-02T13:03:30Z</time>
      </trkpt>
      <trkpt lat="44.8768" lon="5.23975">
        <ele>1327.1</ele>
        <time>2024-07-02T13:03:31Z</time>
      </trkpt>
      <trkpt lat="44.8768" lon="5.23975">
        <ele>1327.1</ele>
        <time>2024-07-02T13:03:32Z</time>
      </trkpt>
      <trkpt lat="44.8768" lon="5.23975">
        <ele>1327.1</ele>
        <time>2024-07-02T13:03:33Z</time>
      </trkpt>
      <trkpt lat="44.8768" lon="5.23975">
        <ele>1327.1</ele>
        <time>2024-07-02T13:03:34Z</time>
      </trkpt>
      <trkpt lat="44.8768" lon="5.23975">
        <ele>1327.1</ele>
        <time>2024-07-02T13:03:35Z</time>
      </trkpt>
      <trkpt lat="44.8768" lon="5.23975">
        <ele>1327.1</ele>
        <time>2024-07-02T13:03:36Z</time>
      </trkpt>
      <trkpt lat="44.8768" lon="5.23975">
        <ele>1327.1</ele>
        <time>2024-07-02T13:03:37Z</time>
      </trkpt>
      <trkpt lat="44.87681" lon="5.23975">
        <ele>1327.1</ele>
        <time>2024-07-02T13:03:38Z</time>
      </trkpt>
      <trkpt lat="44.87681" lon="5.23974">
        <ele>1327.1</ele>
        <time>2024-07-02T13:03:39Z</time>
      </trkpt>
      <trkpt lat="44.87681" lon="5.23975">
        <ele>1327.1</ele>
        <time>2024-07-02T13:03:40Z</time>
      </trkpt>
      <trkpt lat="44.87681" lon="5.23975">
        <ele>1327.2</ele>
        <time>2024-07-02T13:03:41Z</time>
      </trkpt>
      <trkpt lat="44.87681" lon="5.23975">
        <ele>1327.2</ele>
        <time>2024-07-02T13:03:42Z</time>
      </trkpt>
      <trkpt lat="44.87681" lon="5.23975">
        <ele>1327.2</ele>
        <time>2024-07-02T13:03:43Z</time>
      </trkpt>
      <trkpt lat="44.87681" lon="5.23975">
        <ele>1327.2</ele>
        <time>2024-07-02T13:03:44Z</time>
      </trkpt>
      <trkpt lat="44.87681" lon="5.23975">
        <ele>1327.2</ele>
        <time>2024-07-02T13:03:45Z</time>
      </trkpt>
      <trkpt lat="44.87681" lon="5.23975">
        <ele>1327.2</ele>
        <time>2024-07-02T13:03:46Z</time>
      </trkpt>
      <trkpt lat="44.87681" lon="5.23975">
        <ele>1327.2</ele>
        <time>2024-07-02T13:03:47Z</time>
      </trkpt>
      <trkpt lat="44.87681" lon="5.23975">
        <ele>1327.2</ele>
        <time>2024-07-02T13:03:48Z</time>
      </trkpt>
      <trkpt lat="44.87681" lon="5.23975">
        <ele>1327.2</ele>
        <time>2024-07-02T13:03:49Z</time>
      </trkpt>
      <trkpt lat="44.87681" lon="5.23975">
        <ele>1327.2</ele>
        <time>2024-07-02T13:03:50Z</time>
      </trkpt>
      <trkpt lat="44.87681" lon="5.23975">
        <ele>1327.2</ele>
        <time>2024-07-02T13:03:51Z</time>
      </trkpt>
      <trkpt lat="44.87681" lon="5.23975">
        <ele>1327.2</ele>
        <time>2024-07-02T13:03:52Z</time>
      </trkpt>
      <trkpt lat="44.87681" lon="5.23975">
        <ele>1327.2</ele>
        <time>2024-07-02T13:03:53Z</time>
      </trkpt>
      <trkpt lat="44.87681" lon="5.23975">
        <ele>1327.2</ele>
        <time>2024-07-02T13:03:54Z</time>
      </trkpt>
      <trkpt lat="44.87681" lon="5.23975">
        <ele>1327.2</ele>
        <time>2024-07-02T13:03:55Z</time>
      </trkpt>
      <trkpt lat="44.87681" lon="5.23975">
        <ele>1327.2</ele>
        <time>2024-07-02T13:03:56Z</time>
      </trkpt>
      <trkpt lat="44.87681" lon="5.23975">
        <ele>1327.2</ele>
        <time>2024-07-02T13:03:57Z</time>
      </trkpt>
      <trkpt lat="44.87681" lon="5.23975">
        <ele>1327.2</ele>
        <time>2024-07-02T13:03:58Z</time>
      </trkpt>
      <trkpt lat="44.87681" lon="5.23975">
        <ele>1327.2</ele>
        <time>2024-07-02T13:03:59Z</time>
      </trkpt>
      <trkpt lat="44.87681" lon="5.23975">
        <ele>1327.2</ele>
        <time>2024-07-02T13:04:00Z</time>
      </trkpt>
      <trkpt lat="44.87681" lon="5.23975">
        <ele>1327.2</ele>
        <time>2024-07-02T13:04:01Z</time>
      </trkpt>
      <trkpt lat="44.87681" lon="5.23975">
        <ele>1327.2</ele>
        <time>2024-07-02T13:04:02Z</time>
      </trkpt>
      <trkpt lat="44.87681" lon="5.23975">
        <ele>1327.2</ele>
        <time>2024-07-02T13:04:03Z</time>
      </trkpt>
      <trkpt lat="44.87681" lon="5.23975">
        <ele>1327.2</ele>
        <time>2024-07-02T13:04:04Z</time>
      </trkpt>
      <trkpt lat="44.87681" lon="5.23975">
        <ele>1327.3</ele>
        <time>2024-07-02T13:04:05Z</time>
      </trkpt>
      <trkpt lat="44.87681" lon="5.23975">
        <ele>1327.3</ele>
        <time>2024-07-02T13:04:06Z</time>
      </trkpt>
      <trkpt lat="44.87681" lon="5.23975">
        <ele>1327.3</ele>
        <time>2024-07-02T13:04:07Z</time>
      </trkpt>
      <trkpt lat="44.87681" lon="5.23975">
        <ele>1327.3</ele>
        <time>2024-07-02T13:04:08Z</time>
      </trkpt>
      <trkpt lat="44.87681" lon="5.23976">
        <ele>1327.3</ele>
        <time>2024-07-02T13:04:09Z</time>
      </trkpt>
      <trkpt lat="44.87681" lon="5.23976">
        <ele>1327.3</ele>
        <time>2024-07-02T13:04:10Z</time>
      </trkpt>
      <trkpt lat="44.87681" lon="5.23976">
        <ele>1327.3</ele>
        <time>2024-07-02T13:04:11Z</time>
      </trkpt>
      <trkpt lat="44.87681" lon="5.23976">
        <ele>1327.3</ele>
        <time>2024-07-02T13:04:12Z</time>
      </trkpt>
      <trkpt lat="44.87681" lon="5.23976">
        <ele>1327.3</ele>
        <time>2024-07-02T13:04:13Z</time>
      </trkpt>
      <trkpt lat="44.87681" lon="5.23976">
        <ele>1327.3</ele>
        <time>2024-07-02T13:04:14Z</time>
      </trkpt>
      <trkpt lat="44.87681" lon="5.23976">
        <ele>1327.3</ele>
        <time>2024-07-02T13:04:15Z</time>
      </trkpt>
      <trkpt lat="44.87681" lon="5.23976">
        <ele>1327.3</ele>
        <time>2024-07-02T13:04:16Z</time>
      </trkpt>
      <trkpt lat="44.87681" lon="5.23976">
        <ele>1327.3</ele>
        <time>2024-07-02T13:04:17Z</time>
      </trkpt>
      <trkpt lat="44.87681" lon="5.23976">
        <ele>1327.3</ele>
        <time>2024-07-02T13:04:18Z</time>
      </trkpt>
      <trkpt lat="44.87681" lon="5.23976">
        <ele>1327.3</ele>
        <time>2024-07-02T13:04:19Z</time>
      </trkpt>
      <trkpt lat="44.8768" lon="5.23976">
        <ele>1327.4</ele>
        <time>2024-07-02T13:04:20Z</time>
      </trkpt>
      <trkpt lat="44.8768" lon="5.23976">
        <ele>1327.4</ele>
        <time>2024-07-02T13:04:21Z</time>
      </trkpt>
      <trkpt lat="44.8768" lon="5.23976">
        <ele>1327.4</ele>
        <time>2024-07-02T13:04:22Z</time>
      </trkpt>
      <trkpt lat="44.8768" lon="5.23976">
        <ele>1327.4</ele>
        <time>2024-07-02T13:04:23Z</time>
      </trkpt>
      <trkpt lat="44.8768" lon="5.23976">
        <ele>1327.4</ele>
        <time>2024-07-02T13:04:24Z</time>
      </trkpt>
      <trkpt lat="44.8768" lon="5.23976">
        <ele>1327.4</ele>
        <time>2024-07-02T13:04:25Z</time>
      </trkpt>
      <trkpt lat="44.8768" lon="5.23976">
        <ele>1327.4</ele>
        <time>2024-07-02T13:04:26Z</time>
      </trkpt>
      <trkpt lat="44.8768" lon="5.23976">
        <ele>1327.4</ele>
        <time>2024-07-02T13:04:27Z</time>
      </trkpt>
      <trkpt lat="44.8768" lon="5.23976">
        <ele>1327.4</ele>
        <time>2024-07-02T13:04:28Z</time>
      </trkpt>
      <trkpt lat="44.8768" lon="5.23976">
        <ele>1327.4</ele>
        <time>2024-07-02T13:04:29Z</time>
      </trkpt>
      <trkpt lat="44.8768" lon="5.23976">
        <ele>1327.4</ele>
        <time>2024-07-02T13:04:30Z</time>
      </trkpt>
      <trkpt lat="44.8768" lon="5.23976">
        <ele>1327.4</ele>
        <time>2024-07-02T13:04:31Z</time>
      </trkpt>
      <trkpt lat="44.8768" lon="5.23976">
        <ele>1327.4</ele>
        <time>2024-07-02T13:04:32Z</time>
      </trkpt>
      <trkpt lat="44.8768" lon="5.23976">
        <ele>1327.4</ele>
        <time>2024-07-02T13:04:33Z</time>
      </trkpt>
      <trkpt lat="44.8768" lon="5.23976">
        <ele>1327.4</ele>
        <time>2024-07-02T13:04:34Z</time>
      </trkpt>
      <trkpt lat="44.8768" lon="5.23976">
        <ele>1327.4</ele>
        <time>2024-07-02T13:04:35Z</time>
      </trkpt>
      <trkpt lat="44.8768" lon="5.23976">
        <ele>1327.4</ele>
        <time>2024-07-02T13:04:36Z</time>
      </trkpt>
      <trkpt lat="44.8768" lon="5.23976">
        <ele>1327.4</ele>
        <time>2024-07-02T13:04:37Z</time>
      </trkpt>
      <trkpt lat="44.8768" lon="5.23976">
        <ele>1327.4</ele>
        <time>2024-07-02T13:04:38Z</time>
      </trkpt>
      <trkpt lat="44.8768" lon="5.23976">
        <ele>1327.4</ele>
        <time>2024-07-02T13:04:39Z</time>
      </trkpt>
      <trkpt lat="44.8768" lon="5.23976">
        <ele>1327.4</ele>
        <time>2024-07-02T13:04:40Z</time>
      </trkpt>
      <trkpt lat="44.8768" lon="5.23976">
        <ele>1327.4</ele>
        <time>2024-07-02T13:04:41Z</time>
      </trkpt>
      <trkpt lat="44.8768" lon="5.23976">
        <ele>1327.4</ele>
        <time>2024-07-02T13:04:42Z</time>
      </trkpt>
      <trkpt lat="44.8768" lon="5.23976">
        <ele>1327.4</ele>
        <time>2024-07-02T13:04:43Z</time>
      </trkpt>
      <trkpt lat="44.8768" lon="5.23976">
        <ele>1327.4</ele>
        <time>2024-07-02T13:04:44Z</time>
      </trkpt>
      <trkpt lat="44.8768" lon="5.23976">
        <ele>1327.4</ele>
        <time>2024-07-02T13:04:45Z</time>
      </trkpt>
      <trkpt lat="44.8768" lon="5.23976">
        <ele>1327.4</ele>
        <time>2024-07-02T13:04:46Z</time>
      </trkpt>
      <trkpt lat="44.8768" lon="5.23976">
        <ele>1327.4</ele>
        <time>2024-07-02T13:04:47Z</time>
      </trkpt>
      <trkpt lat="44.8768" lon="5.23976">
        <ele>1327.4</ele>
        <time>2024-07-02T13:04:48Z</time>
      </trkpt>
      <trkpt lat="44.8768" lon="5.23976">
        <ele>1327.4</ele>
        <time>2024-07-02T13:04:49Z</time>
      </trkpt>
      <trkpt lat="44.8768" lon="5.23976">
        <ele>1327.4</ele>
        <time>2024-07-02T13:04:50Z</time>
      </trkpt>
      <trkpt lat="44.8768" lon="5.23976">
        <ele>1327.4</ele>
        <time>2024-07-02T13:04:51Z</time>
      </trkpt>
      <trkpt lat="44.8768" lon="5.23976">
        <ele>1327.4</ele>
        <time>2024-07-02T13:04:52Z</time>
      </trkpt>
      <trkpt lat="44.8768" lon="5.23976">
        <ele>1327.4</ele>
        <time>2024-07-02T13:04:53Z</time>
      </trkpt>
      <trkpt lat="44.8768" lon="5.23976">
        <ele>1327.4</ele>
        <time>2024-07-02T13:04:54Z</time>
      </trkpt>
      <trkpt lat="44.8768" lon="5.23976">
        <ele>1327.4</ele>
        <time>2024-07-02T13:04:55Z</time>
      </trkpt>
      <trkpt lat="44.8768" lon="5.23976">
        <ele>1327.4</ele>
        <time>2024-07-02T13:04:56Z</time>
      </trkpt>
      <trkpt lat="44.8768" lon="5.23976">
        <ele>1327.4</ele>
        <time>2024-07-02T13:04:57Z</time>
      </trkpt>
      <trkpt lat="44.8768" lon="5.23976">
        <ele>1327.4</ele>
        <time>2024-07-02T13:04:58Z</time>
      </trkpt>
      <trkpt lat="44.8768" lon="5.23976">
        <ele>1327.4</ele>
        <time>2024-07-02T13:04:59Z</time>
      </trkpt>
      <trkpt lat="44.8768" lon="5.23976">
        <ele>1327.4</ele>
        <time>2024-07-02T13:05:00Z</time>
      </trkpt>
      <trkpt lat="44.8768" lon="5.23976">
        <ele>1327.4</ele>
        <time>2024-07-02T13:05:01Z</time>
      </trkpt>
      <trkpt lat="44.8768" lon="5.23976">
        <ele>1327.4</ele>
        <time>2024-07-02T13:05:02Z</time>
      </trkpt>
      <trkpt lat="44.8768" lon="5.23976">
        <ele>1327.4</ele>
        <time>2024-07-02T13:05:03Z</time>
      </trkpt>
      <trkpt lat="44.8768" lon="5.23976">
        <ele>1327.4</ele>
        <time>2024-07-02T13:05:04Z</time>
      </trkpt>
      <trkpt lat="44.8768" lon="5.23976">
        <ele>1327.4</ele>
        <time>2024-07-02T13:05:05Z</time>
      </trkpt>
      <trkpt lat="44.8768" lon="5.23976">
        <ele>1327.4</ele>
        <time>2024-07-02T13:05:06Z</time>
      </trkpt>
      <trkpt lat="44.8768" lon="5.23976">
        <ele>1327.4</ele>
        <time>2024-07-02T13:05:07Z</time>
      </trkpt>
      <trkpt lat="44.8768" lon="5.23977">
        <ele>1327.5</ele>
        <time>2024-07-02T13:05:08Z</time>
      </trkpt>
      <trkpt lat="44.8768" lon="5.23978">
        <ele>1327.5</ele>
        <time>2024-07-02T13:05:09Z</time>
      </trkpt>
      <trkpt lat="44.8768" lon="5.23978">
        <ele>1327.5</ele>
        <time>2024-07-02T13:05:10Z</time>
      </trkpt>
      <trkpt lat="44.8768" lon="5.23978">
        <ele>1327.5</ele>
        <time>2024-07-02T13:05:11Z</time>
      </trkpt>
      <trkpt lat="44.8768" lon="5.23978">
        <ele>1327.5</ele>
        <time>2024-07-02T13:05:12Z</time>
      </trkpt>
      <trkpt lat="44.8768" lon="5.23978">
        <ele>1327.5</ele>
        <time>2024-07-02T13:05:13Z</time>
      </trkpt>
      <trkpt lat="44.8768" lon="5.23978">
        <ele>1327.5</ele>
        <time>2024-07-02T13:05:14Z</time>
      </trkpt>
      <trkpt lat="44.8768" lon="5.23978">
        <ele>1327.5</ele>
        <time>2024-07-02T13:05:15Z</time>
      </trkpt>
      <trkpt lat="44.8768" lon="5.23978">
        <ele>1327.6</ele>
        <time>2024-07-02T13:05:16Z</time>
      </trkpt>
      <trkpt lat="44.8768" lon="5.23977">
        <ele>1327.6</ele>
        <time>2024-07-02T13:05:17Z</time>
      </trkpt>
      <trkpt lat="44.8768" lon="5.23977">
        <ele>1327.6</ele>
        <time>2024-07-02T13:05:18Z</time>
      </trkpt>
      <trkpt lat="44.8768" lon="5.23977">
        <ele>1327.6</ele>
        <time>2024-07-02T13:05:19Z</time>
      </trkpt>
      <trkpt lat="44.8768" lon="5.23977">
        <ele>1327.6</ele>
        <time>2024-07-02T13:05:20Z</time>
      </trkpt>
      <trkpt lat="44.8768" lon="5.23977">
        <ele>1327.6</ele>
        <time>2024-07-02T13:05:21Z</time>
      </trkpt>
      <trkpt lat="44.8768" lon="5.23977">
        <ele>1327.6</ele>
        <time>2024-07-02T13:05:22Z</time>
      </trkpt>
      <trkpt lat="44.8768" lon="5.23977">
        <ele>1327.6</ele>
        <time>2024-07-02T13:05:23Z</time>
      </trkpt>
      <trkpt lat="44.8768" lon="5.23977">
        <ele>1327.6</ele>
        <time>2024-07-02T13:05:24Z</time>
      </trkpt>
      <trkpt lat="44.8768" lon="5.23977">
        <ele>1327.6</ele>
        <time>2024-07-02T13:05:25Z</time>
      </trkpt>
      <trkpt lat="44.8768" lon="5.23977">
        <ele>1327.6</ele>
        <time>2024-07-02T13:05:26Z</time>
      </trkpt>
      <trkpt lat="44.8768" lon="5.23977">
        <ele>1327.6</ele>
        <time>2024-07-02T13:05:27Z</time>
      </trkpt>
      <trkpt lat="44.8768" lon="5.23977">
        <ele>1327.6</ele>
        <time>2024-07-02T13:05:28Z</time>
      </trkpt>
      <trkpt lat="44.8768" lon="5.23977">
        <ele>1327.6</ele>
        <time>2024-07-02T13:05:29Z</time>
      </trkpt>
      <trkpt lat="44.8768" lon="5.23977">
        <ele>1327.6</ele>
        <time>2024-07-02T13:05:30Z</time>
      </trkpt>
      <trkpt lat="44.8768" lon="5.23977">
        <ele>1327.6</ele>
        <time>2024-07-02T13:05:31Z</time>
      </trkpt>
      <trkpt lat="44.8768" lon="5.23977">
        <ele>1327.6</ele>
        <time>2024-07-02T13:05:32Z</time>
      </trkpt>
      <trkpt lat="44.8768" lon="5.23977">
        <ele>1327.6</ele>
        <time>2024-07-02T13:05:33Z</time>
      </trkpt>
      <trkpt lat="44.8768" lon="5.23977">
        <ele>1327.6</ele>
        <time>2024-07-02T13:05:34Z</time>
      </trkpt>
      <trkpt lat="44.8768" lon="5.23977">
        <ele>1327.6</ele>
        <time>2024-07-02T13:05:35Z</time>
      </trkpt>
      <trkpt lat="44.8768" lon="5.23977">
        <ele>1327.6</ele>
        <time>2024-07-02T13:05:36Z</time>
      </trkpt>
      <trkpt lat="44.8768" lon="5.23977">
        <ele>1327.6</ele>
        <time>2024-07-02T13:05:37Z</time>
      </trkpt>
      <trkpt lat="44.8768" lon="5.23977">
        <ele>1327.6</ele>
        <time>2024-07-02T13:05:38Z</time>
      </trkpt>
      <trkpt lat="44.8768" lon="5.23977">
        <ele>1327.6</ele>
        <time>2024-07-02T13:05:39Z</time>
      </trkpt>
      <trkpt lat="44.8768" lon="5.23977">
        <ele>1327.6</ele>
        <time>2024-07-02T13:05:40Z</time>
      </trkpt>
      <trkpt lat="44.8768" lon="5.23977">
        <ele>1327.6</ele>
        <time>2024-07-02T13:05:41Z</time>
      </trkpt>
      <trkpt lat="44.8768" lon="5.23977">
        <ele>1327.6</ele>
        <time>2024-07-02T13:05:42Z</time>
      </trkpt>
      <trkpt lat="44.8768" lon="5.23977">
        <ele>1327.6</ele>
        <time>2024-07-02T13:05:43Z</time>
      </trkpt>
      <trkpt lat="44.8768" lon="5.23977">
        <ele>1327.6</ele>
        <time>2024-07-02T13:05:44Z</time>
      </trkpt>
      <trkpt lat="44.8768" lon="5.23977">
        <ele>1327.6</ele>
        <time>2024-07-02T13:05:45Z</time>
      </trkpt>
      <trkpt lat="44.8768" lon="5.23977">
        <ele>1327.6</ele>
        <time>2024-07-02T13:05:46Z</time>
      </trkpt>
      <trkpt lat="44.8768" lon="5.23977">
        <ele>1327.6</ele>
        <time>2024-07-02T13:05:47Z</time>
      </trkpt>
      <trkpt lat="44.8768" lon="5.23977">
        <ele>1327.6</ele>
        <time>2024-07-02T13:05:48Z</time>
      </trkpt>
      <trkpt lat="44.8768" lon="5.23977">
        <ele>1327.6</ele>
        <time>2024-07-02T13:05:49Z</time>
      </trkpt>
      <trkpt lat="44.8768" lon="5.23977">
        <ele>1327.6</ele>
        <time>2024-07-02T13:05:50Z</time>
      </trkpt>
      <trkpt lat="44.8768" lon="5.23977">
        <ele>1327.6</ele>
        <time>2024-07-02T13:05:51Z</time>
      </trkpt>
      <trkpt lat="44.8768" lon="5.23977">
        <ele>1327.6</ele>
        <time>2024-07-02T13:05:52Z</time>
      </trkpt>
      <trkpt lat="44.8768" lon="5.23977">
        <ele>1327.6</ele>
        <time>2024-07-02T13:05:53Z</time>
      </trkpt>
      <trkpt lat="44.8768" lon="5.23977">
        <ele>1327.6</ele>
        <time>2024-07-02T13:05:54Z</time>
      </trkpt>
      <trkpt lat="44.8768" lon="5.23977">
        <ele>1327.6</ele>
        <time>2024-07-02T13:05:55Z</time>
      </trkpt>
      <trkpt lat="44.8768" lon="5.23977">
        <ele>1327.6</ele>
        <time>2024-07-02T13:05:56Z</time>
      </trkpt>
      <trkpt lat="44.8768" lon="5.23977">
        <ele>1327.6</ele>
        <time>2024-07-02T13:05:57Z</time>
      </trkpt>
      <trkpt lat="44.8768" lon="5.23977">
        <ele>1327.6</ele>
        <time>2024-07-02T13:05:58Z</time>
      </trkpt>
      <trkpt lat="44.8768" lon="5.23977">
        <ele>1327.6</ele>
        <time>2024-07-02T13:05:59Z</time>
      </trkpt>
      <trkpt lat="44.8768" lon="5.23977">
        <ele>1327.6</ele>
        <time>2024-07-02T13:06:00Z</time>
      </trkpt>
      <trkpt lat="44.8768" lon="5.23977">
        <ele>1327.6</ele>
        <time>2024-07-02T13:06:01Z</time>
      </trkpt>
      <trkpt lat="44.8768" lon="5.23977">
        <ele>1327.6</ele>
        <time>2024-07-02T13:06:02Z</time>
      </trkpt>
      <trkpt lat="44.8768" lon="5.23977">
        <ele>1327.6</ele>
        <time>2024-07-02T13:06:03Z</time>
      </trkpt>
      <trkpt lat="44.8768" lon="5.23977">
        <ele>1327.6</ele>
        <time>2024-07-02T13:06:04Z</time>
      </trkpt>
      <trkpt lat="44.8768" lon="5.23977">
        <ele>1327.6</ele>
        <time>2024-07-02T13:06:05Z</time>
      </trkpt>
      <trkpt lat="44.8768" lon="5.23977">
        <ele>1327.6</ele>
        <time>2024-07-02T13:06:06Z</time>
      </trkpt>
      <trkpt lat="44.8768" lon="5.23977">
        <ele>1327.6</ele>
        <time>2024-07-02T13:06:07Z</time>
      </trkpt>
      <trkpt lat="44.8768" lon="5.23977">
        <ele>1327.6</ele>
        <time>2024-07-02T13:06:08Z</time>
      </trkpt>
      <trkpt lat="44.8768" lon="5.23977">
        <ele>1327.6</ele>
        <time>2024-07-02T13:06:09Z</time>
      </trkpt>
      <trkpt lat="44.8768" lon="5.23977">
        <ele>1327.6</ele>
        <time>2024-07-02T13:06:10Z</time>
      </trkpt>
      <trkpt lat="44.8768" lon="5.23977">
        <ele>1327.6</ele>
        <time>2024-07-02T13:06:11Z</time>
      </trkpt>
      <trkpt lat="44.8768" lon="5.23977">
        <ele>1327.6</ele>
        <time>2024-07-02T13:06:12Z</time>
      </trkpt>
      <trkpt lat="44.8768" lon="5.23977">
        <ele>1327.6</ele>
        <time>2024-07-02T13:06:13Z</time>
      </trkpt>
      <trkpt lat="44.8768" lon="5.23977">
        <ele>1327.6</ele>
        <time>2024-07-02T13:06:14Z</time>
      </trkpt>
      <trkpt lat="44.8768" lon="5.23977">
        <ele>1327.6</ele>
        <time>2024-07-02T13:06:15Z</time>
      </trkpt>
      <trkpt lat="44.8768" lon="5.23977">
        <ele>1327.6</ele>
        <time>2024-07-02T13:06:16Z</time>
      </trkpt>
      <trkpt lat="44.8768" lon="5.23977">
        <ele>1327.6</ele>
        <time>2024-07-02T13:06:17Z</time>
      </trkpt>
      <trkpt lat="44.8768" lon="5.23977">
        <ele>1327.6</ele>
        <time>2024-07-02T13:06:18Z</time>
      </trkpt>
      <trkpt lat="44.8768" lon="5.23977">
        <ele>1327.6</ele>
        <time>2024-07-02T13:06:19Z</time>
      </trkpt>
      <trkpt lat="44.8768" lon="5.23977">
        <ele>1327.6</ele>
        <time>2024-07-02T13:06:20Z</time>
      </trkpt>
      <trkpt lat="44.8768" lon="5.23977">
        <ele>1327.6</ele>
        <time>2024-07-02T13:06:21Z</time>
      </trkpt>
      <trkpt lat="44.8768" lon="5.23977">
        <ele>1327.6</ele>
        <time>2024-07-02T13:06:22Z</time>
      </trkpt>
      <trkpt lat="44.8768" lon="5.23977">
        <ele>1327.6</ele>
        <time>2024-07-02T13:06:23Z</time>
      </trkpt>
      <trkpt lat="44.8768" lon="5.23977">
        <ele>1327.6</ele>
        <time>2024-07-02T13:06:24Z</time>
      </trkpt>
      <trkpt lat="44.8768" lon="5.23977">
        <ele>1327.7</ele>
        <time>2024-07-02T13:06:25Z</time>
      </trkpt>
      <trkpt lat="44.8768" lon="5.23977">
        <ele>1327.7</ele>
        <time>2024-07-02T13:06:26Z</time>
      </trkpt>
      <trkpt lat="44.8768" lon="5.23977">
        <ele>1327.7</ele>
        <time>2024-07-02T13:06:27Z</time>
      </trkpt>
      <trkpt lat="44.8768" lon="5.23977">
        <ele>1327.7</ele>
        <time>2024-07-02T13:06:28Z</time>
      </trkpt>
      <trkpt lat="44.8768" lon="5.23977">
        <ele>1327.7</ele>
        <time>2024-07-02T13:06:29Z</time>
      </trkpt>
      <trkpt lat="44.8768" lon="5.23977">
        <ele>1327.7</ele>
        <time>2024-07-02T13:06:30Z</time>
      </trkpt>
      <trkpt lat="44.8768" lon="5.23977">
        <ele>1327.7</ele>
        <time>2024-07-02T13:06:31Z</time>
      </trkpt>
      <trkpt lat="44.8768" lon="5.23977">
        <ele>1327.7</ele>
        <time>2024-07-02T13:06:32Z</time>
      </trkpt>
      <trkpt lat="44.8768" lon="5.23977">
        <ele>1327.7</ele>
        <time>2024-07-02T13:06:33Z</time>
      </trkpt>
      <trkpt lat="44.8768" lon="5.23977">
        <ele>1327.7</ele>
        <time>2024-07-02T13:06:34Z</time>
      </trkpt>
      <trkpt lat="44.8768" lon="5.23977">
        <ele>1327.7</ele>
        <time>2024-07-02T13:06:35Z</time>
      </trkpt>
      <trkpt lat="44.8768" lon="5.23977">
        <ele>1327.7</ele>
        <time>2024-07-02T13:06:36Z</time>
      </trkpt>
      <trkpt lat="44.8768" lon="5.23977">
        <ele>1327.7</ele>
        <time>2024-07-02T13:06:37Z</time>
      </trkpt>
      <trkpt lat="44.8768" lon="5.23977">
        <ele>1327.7</ele>
        <time>2024-07-02T13:06:38Z</time>
      </trkpt>
      <trkpt lat="44.8768" lon="5.23977">
        <ele>1327.7</ele>
        <time>2024-07-02T13:06:39Z</time>
      </trkpt>
      <trkpt lat="44.8768" lon="5.23977">
        <ele>1327.7</ele>
        <time>2024-07-02T13:06:40Z</time>
      </trkpt>
      <trkpt lat="44.8768" lon="5.23977">
        <ele>1327.7</ele>
        <time>2024-07-02T13:06:41Z</time>
      </trkpt>
      <trkpt lat="44.8768" lon="5.23977">
        <ele>1327.7</ele>
        <time>2024-07-02T13:06:42Z</time>
      </trkpt>
      <trkpt lat="44.8768" lon="5.23977">
        <ele>1327.7</ele>
        <time>2024-07-02T13:06:43Z</time>
      </trkpt>
      <trkpt lat="44.8768" lon="5.23977">
        <ele>1327.7</ele>
        <time>2024-07-02T13:06:44Z</time>
      </trkpt>
      <trkpt lat="44.8768" lon="5.23977">
        <ele>1327.7</ele>
        <time>2024-07-02T13:06:45Z</time>
      </trkpt>
      <trkpt lat="44.8768" lon="5.23977">
        <ele>1327.7</ele>
        <time>2024-07-02T13:06:46Z</time>
      </trkpt>
      <trkpt lat="44.8768" lon="5.23977">
        <ele>1327.7</ele>
        <time>2024-07-02T13:06:47Z</time>
      </trkpt>
      <trkpt lat="44.8768" lon="5.23977">
        <ele>1327.7</ele>
        <time>2024-07-02T13:06:48Z</time>
      </trkpt>
      <trkpt lat="44.8768" lon="5.23977">
        <ele>1327.7</ele>
        <time>2024-07-02T13:06:49Z</time>
      </trkpt>
      <trkpt lat="44.8768" lon="5.23977">
        <ele>1327.7</ele>
        <time>2024-07-02T13:06:50Z</time>
      </trkpt>
      <trkpt lat="44.8768" lon="5.23977">
        <ele>1327.7</ele>
        <time>2024-07-02T13:06:51Z</time>
      </trkpt>
      <trkpt lat="44.8768" lon="5.23977">
        <ele>1327.7</ele>
        <time>2024-07-02T13:06:52Z</time>
      </trkpt>
      <trkpt lat="44.8768" lon="5.23977">
        <ele>1327.7</ele>
        <time>2024-07-02T13:06:53Z</time>
      </trkpt>
      <trkpt lat="44.8768" lon="5.23977">
        <ele>1327.7</ele>
        <time>2024-07-02T13:06:54Z</time>
      </trkpt>
      <trkpt lat="44.8768" lon="5.23978">
        <ele>1327.7</ele>
        <time>2024-07-02T13:06:55Z</time>
      </trkpt>
      <trkpt lat="44.8768" lon="5.23978">
        <ele>1327.7</ele>
        <time>2024-07-02T13:06:56Z</time>
      </trkpt>
      <trkpt lat="44.8768" lon="5.23978">
        <ele>1327.7</ele>
        <time>2024-07-02T13:06:57Z</time>
      </trkpt>
      <trkpt lat="44.8768" lon="5.23978">
        <ele>1327.7</ele>
        <time>2024-07-02T13:06:58Z</time>
      </trkpt>
      <trkpt lat="44.8768" lon="5.23978">
        <ele>1327.7</ele>
        <time>2024-07-02T13:06:59Z</time>
      </trkpt>
      <trkpt lat="44.8768" lon="5.23978">
        <ele>1327.7</ele>
        <time>2024-07-02T13:07:00Z</time>
      </trkpt>
      <trkpt lat="44.8768" lon="5.23978">
        <ele>1327.7</ele>
        <time>2024-07-02T13:07:01Z</time>
      </trkpt>
      <trkpt lat="44.8768" lon="5.23978">
        <ele>1327.7</ele>
        <time>2024-07-02T13:07:02Z</time>
      </trkpt>
      <trkpt lat="44.8768" lon="5.23978">
        <ele>1327.7</ele>
        <time>2024-07-02T13:07:03Z</time>
      </trkpt>
      <trkpt lat="44.8768" lon="5.23978">
        <ele>1327.7</ele>
        <time>2024-07-02T13:07:04Z</time>
      </trkpt>
      <trkpt lat="44.8768" lon="5.23978">
        <ele>1327.7</ele>
        <time>2024-07-02T13:07:05Z</time>
      </trkpt>
      <trkpt lat="44.8768" lon="5.23978">
        <ele>1327.7</ele>
        <time>2024-07-02T13:07:06Z</time>
      </trkpt>
      <trkpt lat="44.8768" lon="5.23978">
        <ele>1327.7</ele>
        <time>2024-07-02T13:07:07Z</time>
      </trkpt>
      <trkpt lat="44.8768" lon="5.23978">
        <ele>1327.7</ele>
        <time>2024-07-02T13:07:08Z</time>
      </trkpt>
      <trkpt lat="44.8768" lon="5.23978">
        <ele>1327.7</ele>
        <time>2024-07-02T13:07:09Z</time>
      </trkpt>
      <trkpt lat="44.8768" lon="5.23978">
        <ele>1327.7</ele>
        <time>2024-07-02T13:07:10Z</time>
      </trkpt>
      <trkpt lat="44.8768" lon="5.23978">
        <ele>1327.7</ele>
        <time>2024-07-02T13:07:11Z</time>
      </trkpt>
      <trkpt lat="44.8768" lon="5.23978">
        <ele>1327.7</ele>
        <time>2024-07-02T13:07:12Z</time>
      </trkpt>
      <trkpt lat="44.8768" lon="5.23978">
        <ele>1327.7</ele>
        <time>2024-07-02T13:07:13Z</time>
      </trkpt>
      <trkpt lat="44.8768" lon="5.23978">
        <ele>1327.7</ele>
        <time>2024-07-02T13:07:14Z</time>
      </trkpt>
      <trkpt lat="44.8768" lon="5.23978">
        <ele>1327.7</ele>
        <time>2024-07-02T13:07:15Z</time>
      </trkpt>
      <trkpt lat="44.8768" lon="5.23978">
        <ele>1327.7</ele>
        <time>2024-07-02T13:07:16Z</time>
      </trkpt>
      <trkpt lat="44.8768" lon="5.23978">
        <ele>1327.7</ele>
        <time>2024-07-02T13:07:17Z</time>
      </trkpt>
      <trkpt lat="44.8768" lon="5.23978">
        <ele>1327.7</ele>
        <time>2024-07-02T13:07:18Z</time>
      </trkpt>
      <trkpt lat="44.8768" lon="5.23978">
        <ele>1327.7</ele>
        <time>2024-07-02T13:07:19Z</time>
      </trkpt>
      <trkpt lat="44.8768" lon="5.23978">
        <ele>1327.7</ele>
        <time>2024-07-02T13:07:20Z</time>
      </trkpt>
      <trkpt lat="44.8768" lon="5.23978">
        <ele>1327.7</ele>
        <time>2024-07-02T13:07:21Z</time>
      </trkpt>
      <trkpt lat="44.8768" lon="5.23978">
        <ele>1327.7</ele>
        <time>2024-07-02T13:07:22Z</time>
      </trkpt>
      <trkpt lat="44.8768" lon="5.23978">
        <ele>1327.7</ele>
        <time>2024-07-02T13:07:23Z</time>
      </trkpt>
      <trkpt lat="44.8768" lon="5.23978">
        <ele>1327.7</ele>
        <time>2024-07-02T13:07:24Z</time>
      </trkpt>
      <trkpt lat="44.8768" lon="5.23978">
        <ele>1327.7</ele>
        <time>2024-07-02T13:07:25Z</time>
      </trkpt>
      <trkpt lat="44.8768" lon="5.23978">
        <ele>1327.7</ele>
        <time>2024-07-02T13:07:26Z</time>
      </trkpt>
      <trkpt lat="44.8768" lon="5.23978">
        <ele>1327.7</ele>
        <time>2024-07-02T13:07:27Z</time>
      </trkpt>
      <trkpt lat="44.8768" lon="5.23978">
        <ele>1327.7</ele>
        <time>2024-07-02T13:07:28Z</time>
      </trkpt>
      <trkpt lat="44.8768" lon="5.23978">
        <ele>1327.7</ele>
        <time>2024-07-02T13:07:29Z</time>
      </trkpt>
      <trkpt lat="44.8768" lon="5.23978">
        <ele>1327.7</ele>
        <time>2024-07-02T13:07:30Z</time>
      </trkpt>
      <trkpt lat="44.8768" lon="5.23978">
        <ele>1327.7</ele>
        <time>2024-07-02T13:07:31Z</time>
      </trkpt>
      <trkpt lat="44.8768" lon="5.23978">
        <ele>1327.7</ele>
        <time>2024-07-02T13:07:32Z</time>
      </trkpt>
      <trkpt lat="44.8768" lon="5.23978">
        <ele>1327.7</ele>
        <time>2024-07-02T13:07:33Z</time>
      </trkpt>
      <trkpt lat="44.8768" lon="5.23978">
        <ele>1327.7</ele>
        <time>2024-07-02T13:07:34Z</time>
      </trkpt>
      <trkpt lat="44.8768" lon="5.23978">
        <ele>1327.7</ele>
        <time>2024-07-02T13:07:35Z</time>
      </trkpt>
      <trkpt lat="44.8768" lon="5.23978">
        <ele>1327.7</ele>
        <time>2024-07-02T13:07:36Z</time>
      </trkpt>
      <trkpt lat="44.8768" lon="5.23978">
        <ele>1327.7</ele>
        <time>2024-07-02T13:07:37Z</time>
      </trkpt>
      <trkpt lat="44.8768" lon="5.23978">
        <ele>1327.7</ele>
        <time>2024-07-02T13:07:38Z</time>
      </trkpt>
      <trkpt lat="44.8768" lon="5.23978">
        <ele>1327.7</ele>
        <time>2024-07-02T13:07:39Z</time>
      </trkpt>
      <trkpt lat="44.8768" lon="5.23978">
        <ele>1327.7</ele>
        <time>2024-07-02T13:07:40Z</time>
      </trkpt>
      <trkpt lat="44.8768" lon="5.23978">
        <ele>1327.7</ele>
        <time>2024-07-02T13:07:41Z</time>
      </trkpt>
      <trkpt lat="44.8768" lon="5.23978">
        <ele>1327.7</ele>
        <time>2024-07-02T13:07:42Z</time>
      </trkpt>
      <trkpt lat="44.8768" lon="5.23978">
        <ele>1327.7</ele>
        <time>2024-07-02T13:07:43Z</time>
      </trkpt>
      <trkpt lat="44.8768" lon="5.23978">
        <ele>1327.7</ele>
        <time>2024-07-02T13:07:44Z</time>
      </trkpt>
      <trkpt lat="44.8768" lon="5.23978">
        <ele>1327.7</ele>
        <time>2024-07-02T13:07:45Z</time>
      </trkpt>
      <trkpt lat="44.8768" lon="5.23978">
        <ele>1327.7</ele>
        <time>2024-07-02T13:07:46Z</time>
      </trkpt>
      <trkpt lat="44.8768" lon="5.23978">
        <ele>1327.7</ele>
        <time>2024-07-02T13:07:47Z</time>
      </trkpt>
      <trkpt lat="44.8768" lon="5.23978">
        <ele>1327.7</ele>
        <time>2024-07-02T13:07:48Z</time>
      </trkpt>
      <trkpt lat="44.8768" lon="5.23978">
        <ele>1327.7</ele>
        <time>2024-07-02T13:07:49Z</time>
      </trkpt>
      <trkpt lat="44.8768" lon="5.23978">
        <ele>1327.7</ele>
        <time>2024-07-02T13:07:50Z</time>
      </trkpt>
      <trkpt lat="44.8768" lon="5.23978">
        <ele>1327.7</ele>
        <time>2024-07-02T13:07:51Z</time>
      </trkpt>
      <trkpt lat="44.8768" lon="5.23978">
        <ele>1327.7</ele>
        <time>2024-07-02T13:07:52Z</time>
      </trkpt>
      <trkpt lat="44.8768" lon="5.23978">
        <ele>1327.7</ele>
        <time>2024-07-02T13:07:53Z</time>
      </trkpt>
      <trkpt lat="44.8768" lon="5.23978">
        <ele>1327.7</ele>
        <time>2024-07-02T13:07:54Z</time>
      </trkpt>
      <trkpt lat="44.8768" lon="5.23978">
        <ele>1327.7</ele>
        <time>2024-07-02T13:07:55Z</time>
      </trkpt>
      <trkpt lat="44.8768" lon="5.23978">
        <ele>1327.7</ele>
        <time>2024-07-02T13:07:56Z</time>
      </trkpt>
      <trkpt lat="44.8768" lon="5.23978">
        <ele>1327.7</ele>
        <time>2024-07-02T13:07:57Z</time>
      </trkpt>
      <trkpt lat="44.8768" lon="5.23978">
        <ele>1327.7</ele>
        <time>2024-07-02T13:07:58Z</time>
      </trkpt>
      <trkpt lat="44.8768" lon="5.23978">
        <ele>1327.7</ele>
        <time>2024-07-02T13:07:59Z</time>
      </trkpt>
      <trkpt lat="44.8768" lon="5.23978">
        <ele>1327.7</ele>
        <time>2024-07-02T13:08:00Z</time>
      </trkpt>
      <trkpt lat="44.8768" lon="5.23978">
        <ele>1327.7</ele>
        <time>2024-07-02T13:08:01Z</time>
      </trkpt>
      <trkpt lat="44.8768" lon="5.23978">
        <ele>1327.7</ele>
        <time>2024-07-02T13:08:02Z</time>
      </trkpt>
      <trkpt lat="44.8768" lon="5.23978">
        <ele>1327.7</ele>
        <time>2024-07-02T13:08:03Z</time>
      </trkpt>
      <trkpt lat="44.8768" lon="5.23978">
        <ele>1327.7</ele>
        <time>2024-07-02T13:08:04Z</time>
      </trkpt>
      <trkpt lat="44.8768" lon="5.23978">
        <ele>1327.7</ele>
        <time>2024-07-02T13:08:05Z</time>
      </trkpt>
      <trkpt lat="44.8768" lon="5.23978">
        <ele>1327.7</ele>
        <time>2024-07-02T13:08:06Z</time>
      </trkpt>
      <trkpt lat="44.8768" lon="5.23978">
        <ele>1327.7</ele>
        <time>2024-07-02T13:08:07Z</time>
      </trkpt>
      <trkpt lat="44.8768" lon="5.23978">
        <ele>1327.7</ele>
        <time>2024-07-02T13:08:08Z</time>
      </trkpt>
      <trkpt lat="44.8768" lon="5.23978">
        <ele>1327.7</ele>
        <time>2024-07-02T13:08:09Z</time>
      </trkpt>
      <trkpt lat="44.8768" lon="5.23978">
        <ele>1327.7</ele>
        <time>2024-07-02T13:08:10Z</time>
      </trkpt>
      <trkpt lat="44.8768" lon="5.23978">
        <ele>1327.7</ele>
        <time>2024-07-02T13:08:11Z</time>
      </trkpt>
      <trkpt lat="44.8768" lon="5.23978">
        <ele>1327.7</ele>
        <time>2024-07-02T13:08:12Z</time>
      </trkpt>
      <trkpt lat="44.8768" lon="5.23978">
        <ele>1327.7</ele>
        <time>2024-07-02T13:08:13Z</time>
      </trkpt>
      <trkpt lat="44.8768" lon="5.23978">
        <ele>1327.7</ele>
        <time>2024-07-02T13:08:14Z</time>
      </trkpt>
      <trkpt lat="44.8768" lon="5.23978">
        <ele>1327.7</ele>
        <time>2024-07-02T13:08:15Z</time>
      </trkpt>
      <trkpt lat="44.8768" lon="5.23978">
        <ele>1327.7</ele>
        <time>2024-07-02T13:08:16Z</time>
      </trkpt>
      <trkpt lat="44.8768" lon="5.23978">
        <ele>1327.7</ele>
        <time>2024-07-02T13:08:17Z</time>
      </trkpt>
      <trkpt lat="44.8768" lon="5.23978">
        <ele>1327.7</ele>
        <time>2024-07-02T13:08:18Z</time>
      </trkpt>
      <trkpt lat="44.8768" lon="5.23978">
        <ele>1327.7</ele>
        <time>2024-07-02T13:08:19Z</time>
      </trkpt>
      <trkpt lat="44.8768" lon="5.23978">
        <ele>1327.7</ele>
        <time>2024-07-02T13:08:20Z</time>
      </trkpt>
      <trkpt lat="44.8768" lon="5.23978">
        <ele>1327.7</ele>
        <time>2024-07-02T13:08:21Z</time>
      </trkpt>
      <trkpt lat="44.8768" lon="5.23978">
        <ele>1327.7</ele>
        <time>2024-07-02T13:08:22Z</time>
      </trkpt>
      <trkpt lat="44.8768" lon="5.23978">
        <ele>1327.7</ele>
        <time>2024-07-02T13:08:23Z</time>
      </trkpt>
      <trkpt lat="44.8768" lon="5.23978">
        <ele>1327.7</ele>
        <time>2024-07-02T13:08:24Z</time>
      </trkpt>
      <trkpt lat="44.8768" lon="5.23978">
        <ele>1327.7</ele>
        <time>2024-07-02T13:08:25Z</time>
      </trkpt>
      <trkpt lat="44.8768" lon="5.23978">
        <ele>1327.7</ele>
        <time>2024-07-02T13:08:26Z</time>
      </trkpt>
      <trkpt lat="44.8768" lon="5.23979">
        <ele>1327.8</ele>
        <time>2024-07-02T13:08:27Z</time>
      </trkpt>
      <trkpt lat="44.8768" lon="5.23979">
        <ele>1327.8</ele>
        <time>2024-07-02T13:08:28Z</time>
      </trkpt>
      <trkpt lat="44.8768" lon="5.23979">
        <ele>1327.8</ele>
        <time>2024-07-02T13:08:29Z</time>
      </trkpt>
      <trkpt lat="44.8768" lon="5.23979">
        <ele>1327.8</ele>
        <time>2024-07-02T13:08:30Z</time>
      </trkpt>
      <trkpt lat="44.8768" lon="5.23979">
        <ele>1327.8</ele>
        <time>2024-07-02T13:08:31Z</time>
      </trkpt>
      <trkpt lat="44.8768" lon="5.23979">
        <ele>1327.8</ele>
        <time>2024-07-02T13:08:32Z</time>
      </trkpt>
      <trkpt lat="44.8768" lon="5.23979">
        <ele>1327.8</ele>
        <time>2024-07-02T13:08:33Z</time>
      </trkpt>
      <trkpt lat="44.8768" lon="5.23979">
        <ele>1327.8</ele>
        <time>2024-07-02T13:08:34Z</time>
      </trkpt>
      <trkpt lat="44.8768" lon="5.23979">
        <ele>1327.8</ele>
        <time>2024-07-02T13:08:35Z</time>
      </trkpt>
      <trkpt lat="44.8768" lon="5.23979">
        <ele>1327.8</ele>
        <time>2024-07-02T13:08:36Z</time>
      </trkpt>
      <trkpt lat="44.8768" lon="5.23979">
        <ele>1327.8</ele>
        <time>2024-07-02T13:08:37Z</time>
      </trkpt>
      <trkpt lat="44.8768" lon="5.23979">
        <ele>1327.8</ele>
        <time>2024-07-02T13:08:38Z</time>
      </trkpt>
      <trkpt lat="44.8768" lon="5.23979">
        <ele>1327.8</ele>
        <time>2024-07-02T13:08:39Z</time>
      </trkpt>
      <trkpt lat="44.8768" lon="5.23979">
        <ele>1327.8</ele>
        <time>2024-07-02T13:08:40Z</time>
      </trkpt>
      <trkpt lat="44.8768" lon="5.23979">
        <ele>1327.8</ele>
        <time>2024-07-02T13:08:41Z</time>
      </trkpt>
      <trkpt lat="44.8768" lon="5.23979">
        <ele>1327.8</ele>
        <time>2024-07-02T13:08:42Z</time>
      </trkpt>
      <trkpt lat="44.8768" lon="5.23979">
        <ele>1327.8</ele>
        <time>2024-07-02T13:08:43Z</time>
      </trkpt>
      <trkpt lat="44.8768" lon="5.23979">
        <ele>1327.8</ele>
        <time>2024-07-02T13:08:44Z</time>
      </trkpt>
      <trkpt lat="44.8768" lon="5.23979">
        <ele>1327.8</ele>
        <time>2024-07-02T13:08:45Z</time>
      </trkpt>
      <trkpt lat="44.8768" lon="5.23979">
        <ele>1327.8</ele>
        <time>2024-07-02T13:08:46Z</time>
      </trkpt>
      <trkpt lat="44.8768" lon="5.23979">
        <ele>1327.8</ele>
        <time>2024-07-02T13:08:47Z</time>
      </trkpt>
      <trkpt lat="44.8768" lon="5.23979">
        <ele>1327.8</ele>
        <time>2024-07-02T13:08:48Z</time>
      </trkpt>
      <trkpt lat="44.8768" lon="5.23979">
        <ele>1327.8</ele>
        <time>2024-07-02T13:08:49Z</time>
      </trkpt>
      <trkpt lat="44.8768" lon="5.23979">
        <ele>1327.8</ele>
        <time>2024-07-02T13:08:50Z</time>
      </trkpt>
      <trkpt lat="44.8768" lon="5.23979">
        <ele>1327.8</ele>
        <time>2024-07-02T13:08:51Z</time>
      </trkpt>
      <trkpt lat="44.8768" lon="5.23979">
        <ele>1327.8</ele>
        <time>2024-07-02T13:08:52Z</time>
      </trkpt>
      <trkpt lat="44.8768" lon="5.23979">
        <ele>1327.8</ele>
        <time>2024-07-02T13:08:53Z</time>
      </trkpt>
      <trkpt lat="44.8768" lon="5.23979">
        <ele>1327.8</ele>
        <time>2024-07-02T13:08:54Z</time>
      </trkpt>
      <trkpt lat="44.8768" lon="5.23979">
        <ele>1327.8</ele>
        <time>2024-07-02T13:08:55Z</time>
      </trkpt>
      <trkpt lat="44.8768" lon="5.23979">
        <ele>1327.8</ele>
        <time>2024-07-02T13:08:56Z</time>
      </trkpt>
      <trkpt lat="44.8768" lon="5.23979">
        <ele>1327.8</ele>
        <time>2024-07-02T13:08:57Z</time>
      </trkpt>
      <trkpt lat="44.8768" lon="5.23979">
        <ele>1327.8</ele>
        <time>2024-07-02T13:08:58Z</time>
      </trkpt>
      <trkpt lat="44.8768" lon="5.23979">
        <ele>1327.8</ele>
        <time>2024-07-02T13:08:59Z</time>
      </trkpt>
      <trkpt lat="44.8768" lon="5.23979">
        <ele>1327.8</ele>
        <time>2024-07-02T13:09:00Z</time>
      </trkpt>
      <trkpt lat="44.8768" lon="5.23979">
        <ele>1327.8</ele>
        <time>2024-07-02T13:09:01Z</time>
      </trkpt>
      <trkpt lat="44.8768" lon="5.23979">
        <ele>1327.8</ele>
        <time>2024-07-02T13:09:02Z</time>
      </trkpt>
      <trkpt lat="44.8768" lon="5.23979">
        <ele>1327.8</ele>
        <time>2024-07-02T13:09:03Z</time>
      </trkpt>
      <trkpt lat="44.8768" lon="5.23979">
        <ele>1327.8</ele>
        <time>2024-07-02T13:09:04Z</time>
      </trkpt>
      <trkpt lat="44.8768" lon="5.23979">
        <ele>1327.8</ele>
        <time>2024-07-02T13:09:05Z</time>
      </trkpt>
      <trkpt lat="44.8768" lon="5.23979">
        <ele>1327.8</ele>
        <time>2024-07-02T13:09:06Z</time>
      </trkpt>
      <trkpt lat="44.8768" lon="5.23979">
        <ele>1327.8</ele>
        <time>2024-07-02T13:09:07Z</time>
      </trkpt>
      <trkpt lat="44.8768" lon="5.23979">
        <ele>1327.8</ele>
        <time>2024-07-02T13:09:08Z</time>
      </trkpt>
      <trkpt lat="44.8768" lon="5.23979">
        <ele>1327.8</ele>
        <time>2024-07-02T13:09:09Z</time>
      </trkpt>
      <trkpt lat="44.8768" lon="5.23979">
        <ele>1327.8</ele>
        <time>2024-07-02T13:09:10Z</time>
      </trkpt>
      <trkpt lat="44.8768" lon="5.23979">
        <ele>1327.8</ele>
        <time>2024-07-02T13:09:11Z</time>
      </trkpt>
      <trkpt lat="44.8768" lon="5.23979">
        <ele>1327.8</ele>
        <time>2024-07-02T13:09:12Z</time>
      </trkpt>
      <trkpt lat="44.8768" lon="5.23979">
        <ele>1327.8</ele>
        <time>2024-07-02T13:09:13Z</time>
      </trkpt>
      <trkpt lat="44.8768" lon="5.23979">
        <ele>1327.8</ele>
        <time>2024-07-02T13:09:14Z</time>
      </trkpt>
      <trkpt lat="44.8768" lon="5.23979">
        <ele>1327.8</ele>
        <time>2024-07-02T13:09:15Z</time>
      </trkpt>
      <trkpt lat="44.8768" lon="5.23979">
        <ele>1327.8</ele>
        <time>2024-07-02T13:09:16Z</time>
      </trkpt>
      <trkpt lat="44.8768" lon="5.23979">
        <ele>1327.8</ele>
        <time>2024-07-02T13:09:17Z</time>
      </trkpt>
      <trkpt lat="44.8768" lon="5.23979">
        <ele>1327.8</ele>
        <time>2024-07-02T13:09:18Z</time>
      </trkpt>
      <trkpt lat="44.8768" lon="5.23979">
        <ele>1327.8</ele>
        <time>2024-07-02T13:09:19Z</time>
      </trkpt>
      <trkpt lat="44.8768" lon="5.23979">
        <ele>1327.8</ele>
        <time>2024-07-02T13:09:20Z</time>
      </trkpt>
      <trkpt lat="44.8768" lon="5.23979">
        <ele>1327.8</ele>
        <time>2024-07-02T13:09:21Z</time>
      </trkpt>
      <trkpt lat="44.8768" lon="5.23979">
        <ele>1327.8</ele>
        <time>2024-07-02T13:09:22Z</time>
      </trkpt>
      <trkpt lat="44.8768" lon="5.23979">
        <ele>1327.8</ele>
        <time>2024-07-02T13:09:23Z</time>
      </trkpt>
      <trkpt lat="44.8768" lon="5.23979">
        <ele>1327.8</ele>
        <time>2024-07-02T13:09:24Z</time>
      </trkpt>
      <trkpt lat="44.8768" lon="5.23979">
        <ele>1327.8</ele>
        <time>2024-07-02T13:09:25Z</time>
      </trkpt>
      <trkpt lat="44.87681" lon="5.23979">
        <ele>1327.8</ele>
        <time>2024-07-02T13:09:26Z</time>
      </trkpt>
      <trkpt lat="44.87681" lon="5.23979">
        <ele>1327.9</ele>
        <time>2024-07-02T13:09:27Z</time>
      </trkpt>
      <trkpt lat="44.87681" lon="5.2398">
        <ele>1327.9</ele>
        <time>2024-07-02T13:09:28Z</time>
      </trkpt>
      <trkpt lat="44.87681" lon="5.2398">
        <ele>1327.9</ele>
        <time>2024-07-02T13:09:29Z</time>
      </trkpt>
      <trkpt lat="44.87681" lon="5.2398">
        <ele>1327.9</ele>
        <time>2024-07-02T13:09:30Z</time>
      </trkpt>
      <trkpt lat="44.87681" lon="5.2398">
        <ele>1327.9</ele>
        <time>2024-07-02T13:09:31Z</time>
      </trkpt>
      <trkpt lat="44.87681" lon="5.23981">
        <ele>1327.9</ele>
        <time>2024-07-02T13:09:32Z</time>
      </trkpt>
      <trkpt lat="44.87681" lon="5.23981">
        <ele>1327.9</ele>
        <time>2024-07-02T13:09:33Z</time>
      </trkpt>
      <trkpt lat="44.87681" lon="5.23981">
        <ele>1327.9</ele>
        <time>2024-07-02T13:09:34Z</time>
      </trkpt>
      <trkpt lat="44.87681" lon="5.23981">
        <ele>1328</ele>
        <time>2024-07-02T13:09:35Z</time>
      </trkpt>
      <trkpt lat="44.87681" lon="5.23981">
        <ele>1328</ele>
        <time>2024-07-02T13:09:36Z</time>
      </trkpt>
      <trkpt lat="44.87681" lon="5.23981">
        <ele>1328</ele>
        <time>2024-07-02T13:09:37Z</time>
      </trkpt>
      <trkpt lat="44.87681" lon="5.23981">
        <ele>1328</ele>
        <time>2024-07-02T13:09:38Z</time>
      </trkpt>
      <trkpt lat="44.87681" lon="5.23981">
        <ele>1328</ele>
        <time>2024-07-02T13:09:39Z</time>
      </trkpt>
      <trkpt lat="44.87681" lon="5.23981">
        <ele>1328</ele>
        <time>2024-07-02T13:09:40Z</time>
      </trkpt>
      <trkpt lat="44.87681" lon="5.23981">
        <ele>1328</ele>
        <time>2024-07-02T13:09:41Z</time>
      </trkpt>
      <trkpt lat="44.87681" lon="5.23981">
        <ele>1328</ele>
        <time>2024-07-02T13:09:42Z</time>
      </trkpt>
      <trkpt lat="44.87681" lon="5.23981">
        <ele>1328</ele>
        <time>2024-07-02T13:09:43Z</time>
      </trkpt>
      <trkpt lat="44.87681" lon="5.23981">
        <ele>1328</ele>
        <time>2024-07-02T13:09:44Z</time>
      </trkpt>
      <trkpt lat="44.87681" lon="5.23981">
        <ele>1328</ele>
        <time>2024-07-02T13:09:45Z</time>
      </trkpt>
      <trkpt lat="44.87681" lon="5.23981">
        <ele>1328</ele>
        <time>2024-07-02T13:09:46Z</time>
      </trkpt>
      <trkpt lat="44.87681" lon="5.23981">
        <ele>1328</ele>
        <time>2024-07-02T13:09:47Z</time>
      </trkpt>
      <trkpt lat="44.87681" lon="5.23981">
        <ele>1328</ele>
        <time>2024-07-02T13:09:48Z</time>
      </trkpt>
      <trkpt lat="44.87681" lon="5.23981">
        <ele>1328</ele>
        <time>2024-07-02T13:09:49Z</time>
      </trkpt>
      <trkpt lat="44.87681" lon="5.23981">
        <ele>1328</ele>
        <time>2024-07-02T13:09:50Z</time>
      </trkpt>
      <trkpt lat="44.87681" lon="5.23981">
        <ele>1328</ele>
        <time>2024-07-02T13:09:51Z</time>
      </trkpt>
      <trkpt lat="44.87681" lon="5.23981">
        <ele>1328</ele>
        <time>2024-07-02T13:09:52Z</time>
      </trkpt>
      <trkpt lat="44.87681" lon="5.23981">
        <ele>1328</ele>
        <time>2024-07-02T13:09:53Z</time>
      </trkpt>
      <trkpt lat="44.87681" lon="5.23981">
        <ele>1328</ele>
        <time>2024-07-02T13:09:54Z</time>
      </trkpt>
      <trkpt lat="44.87681" lon="5.23981">
        <ele>1328</ele>
        <time>2024-07-02T13:09:55Z</time>
      </trkpt>
      <trkpt lat="44.87681" lon="5.23981">
        <ele>1328</ele>
        <time>2024-07-02T13:09:56Z</time>
      </trkpt>
      <trkpt lat="44.87681" lon="5.23981">
        <ele>1328</ele>
        <time>2024-07-02T13:09:57Z</time>
      </trkpt>
      <trkpt lat="44.87681" lon="5.23981">
        <ele>1328</ele>
        <time>2024-07-02T13:09:58Z</time>
      </trkpt>
      <trkpt lat="44.87681" lon="5.23981">
        <ele>1328</ele>
        <time>2024-07-02T13:09:59Z</time>
      </trkpt>
      <trkpt lat="44.87682" lon="5.23982">
        <ele>1328.1</ele>
        <time>2024-07-02T13:10:00Z</time>
      </trkpt>
      <trkpt lat="44.87682" lon="5.23982">
        <ele>1328.1</ele>
        <time>2024-07-02T13:10:01Z</time>
      </trkpt>
      <trkpt lat="44.87682" lon="5.23982">
        <ele>1328.1</ele>
        <time>2024-07-02T13:10:02Z</time>
      </trkpt>
      <trkpt lat="44.87682" lon="5.23983">
        <ele>1328.2</ele>
        <time>2024-07-02T13:10:03Z</time>
      </trkpt>
      <trkpt lat="44.87683" lon="5.23984">
        <ele>1328.2</ele>
        <time>2024-07-02T13:10:04Z</time>
      </trkpt>
      <trkpt lat="44.87684" lon="5.23984">
        <ele>1328.3</ele>
        <time>2024-07-02T13:10:05Z</time>
      </trkpt>
      <trkpt lat="44.87687" lon="5.23985">
        <ele>1328.5</ele>
        <time>2024-07-02T13:10:06Z</time>
      </trkpt>
      <trkpt lat="44.87687" lon="5.23985">
        <ele>1328.5</ele>
        <time>2024-07-02T13:10:07Z</time>
      </trkpt>
      <trkpt lat="44.87688" lon="5.23985">
        <ele>1328.6</ele>
        <time>2024-07-02T13:10:08Z</time>
      </trkpt>
      <trkpt lat="44.87689" lon="5.23986">
        <ele>1328.6</ele>
        <time>2024-07-02T13:10:09Z</time>
      </trkpt>
      <trkpt lat="44.8769" lon="5.23986">
        <ele>1328.7</ele>
        <time>2024-07-02T13:10:10Z</time>
      </trkpt>
      <trkpt lat="44.87691" lon="5.23986">
        <ele>1328.7</ele>
        <time>2024-07-02T13:10:11Z</time>
      </trkpt>
      <trkpt lat="44.87692" lon="5.23986">
        <ele>1328.8</ele>
        <time>2024-07-02T13:10:12Z</time>
      </trkpt>
      <trkpt lat="44.87693" lon="5.23986">
        <ele>1328.8</ele>
        <time>2024-07-02T13:10:13Z</time>
      </trkpt>
      <trkpt lat="44.87694" lon="5.23986">
        <ele>1328.8</ele>
        <time>2024-07-02T13:10:14Z</time>
      </trkpt>
      <trkpt lat="44.87695" lon="5.23986">
        <ele>1328.9</ele>
        <time>2024-07-02T13:10:15Z</time>
      </trkpt>
      <trkpt lat="44.87696" lon="5.23986">
        <ele>1328.9</ele>
        <time>2024-07-02T13:10:16Z</time>
      </trkpt>
      <trkpt lat="44.87697" lon="5.23986">
        <ele>1329</ele>
        <time>2024-07-02T13:10:17Z</time>
      </trkpt>
      <trkpt lat="44.87698" lon="5.23985">
        <ele>1329</ele>
        <time>2024-07-02T13:10:18Z</time>
      </trkpt>
      <trkpt lat="44.877" lon="5.23985">
        <ele>1329</ele>
        <time>2024-07-02T13:10:19Z</time>
      </trkpt>
      <trkpt lat="44.877" lon="5.23985">
        <ele>1329</ele>
        <time>2024-07-02T13:10:20Z</time>
      </trkpt>
      <trkpt lat="44.87701" lon="5.23985">
        <ele>1329.1</ele>
        <time>2024-07-02T13:10:21Z</time>
      </trkpt>
      <trkpt lat="44.87702" lon="5.23986">
        <ele>1329.1</ele>
        <time>2024-07-02T13:10:22Z</time>
      </trkpt>
      <trkpt lat="44.87702" lon="5.23986">
        <ele>1329.1</ele>
        <time>2024-07-02T13:10:23Z</time>
      </trkpt>
      <trkpt lat="44.87704" lon="5.23986">
        <ele>1329.1</ele>
        <time>2024-07-02T13:10:24Z</time>
      </trkpt>
      <trkpt lat="44.87706" lon="5.23987">
        <ele>1329.2</ele>
        <time>2024-07-02T13:10:25Z</time>
      </trkpt>
      <trkpt lat="44.87706" lon="5.23987">
        <ele>1329.2</ele>
        <time>2024-07-02T13:10:26Z</time>
      </trkpt>
      <trkpt lat="44.87707" lon="5.23987">
        <ele>1329.2</ele>
        <time>2024-07-02T13:10:27Z</time>
      </trkpt>
      <trkpt lat="44.87708" lon="5.23987">
        <ele>1329.2</ele>
        <time>2024-07-02T13:10:28Z</time>
      </trkpt>
      <trkpt lat="44.8771" lon="5.23987">
        <ele>1329.2</ele>
        <time>2024-07-02T13:10:29Z</time>
      </trkpt>
      <trkpt lat="44.87711" lon="5.23987">
        <ele>1329.2</ele>
        <time>2024-07-02T13:10:30Z</time>
      </trkpt>
      <trkpt lat="44.87712" lon="5.23988">
        <ele>1329.2</ele>
        <time>2024-07-02T13:10:31Z</time>
      </trkpt>
      <trkpt lat="44.87713" lon="5.23988">
        <ele>1329.2</ele>
        <time>2024-07-02T13:10:32Z</time>
      </trkpt>
      <trkpt lat="44.87714" lon="5.23989">
        <ele>1329.2</ele>
        <time>2024-07-02T13:10:33Z</time>
      </trkpt>
      <trkpt lat="44.87715" lon="5.23989">
        <ele>1329.2</ele>
        <time>2024-07-02T13:10:34Z</time>
      </trkpt>
      <trkpt lat="44.87716" lon="5.2399">
        <ele>1329.2</ele>
        <time>2024-07-02T13:10:35Z</time>
      </trkpt>
      <trkpt lat="44.87716" lon="5.23991">
        <ele>1329.2</ele>
        <time>2024-07-02T13:10:36Z</time>
      </trkpt>
      <trkpt lat="44.87717" lon="5.23991">
        <ele>1329.2</ele>
        <time>2024-07-02T13:10:37Z</time>
      </trkpt>
      <trkpt lat="44.87718" lon="5.23992">
        <ele>1329.2</ele>
        <time>2024-07-02T13:10:38Z</time>
      </trkpt>
      <trkpt lat="44.87719" lon="5.23992">
        <ele>1329.1</ele>
        <time>2024-07-02T13:10:39Z</time>
      </trkpt>
      <trkpt lat="44.87721" lon="5.23994">
        <ele>1329.1</ele>
        <time>2024-07-02T13:10:40Z</time>
      </trkpt>
      <trkpt lat="44.87722" lon="5.23994">
        <ele>1329.1</ele>
        <time>2024-07-02T13:10:41Z</time>
      </trkpt>
      <trkpt lat="44.87723" lon="5.23995">
        <ele>1329</ele>
        <time>2024-07-02T13:10:42Z</time>
      </trkpt>
      <trkpt lat="44.87724" lon="5.23995">
        <ele>1329</ele>
        <time>2024-07-02T13:10:43Z</time>
      </trkpt>
      <trkpt lat="44.87725" lon="5.23996">
        <ele>1329</ele>
        <time>2024-07-02T13:10:44Z</time>
      </trkpt>
      <trkpt lat="44.87726" lon="5.23996">
        <ele>1328.9</ele>
        <time>2024-07-02T13:10:45Z</time>
      </trkpt>
      <trkpt lat="44.87727" lon="5.23996">
        <ele>1328.9</ele>
        <time>2024-07-02T13:10:46Z</time>
      </trkpt>
      <trkpt lat="44.87728" lon="5.23996">
        <ele>1328.9</ele>
        <time>2024-07-02T13:10:47Z</time>
      </trkpt>
      <trkpt lat="44.87729" lon="5.23996">
        <ele>1328.8</ele>
        <time>2024-07-02T13:10:48Z</time>
      </trkpt>
      <trkpt lat="44.8773" lon="5.23996">
        <ele>1328.8</ele>
        <time>2024-07-02T13:10:49Z</time>
      </trkpt>
      <trkpt lat="44.87731" lon="5.23996">
        <ele>1328.7</ele>
        <time>2024-07-02T13:10:50Z</time>
      </trkpt>
      <trkpt lat="44.87732" lon="5.23996">
        <ele>1328.7</ele>
        <time>2024-07-02T13:10:51Z</time>
      </trkpt>
      <trkpt lat="44.87734" lon="5.23996">
        <ele>1328.6</ele>
        <time>2024-07-02T13:10:52Z</time>
      </trkpt>
      <trkpt lat="44.87735" lon="5.23996">
        <ele>1328.6</ele>
        <time>2024-07-02T13:10:53Z</time>
      </trkpt>
      <trkpt lat="44.87735" lon="5.23996">
        <ele>1328.6</ele>
        <time>2024-07-02T13:10:54Z</time>
      </trkpt>
      <trkpt lat="44.87736" lon="5.23996">
        <ele>1328.6</ele>
        <time>2024-07-02T13:10:55Z</time>
      </trkpt>
      <trkpt lat="44.87737" lon="5.23996">
        <ele>1328.5</ele>
        <time>2024-07-02T13:10:56Z</time>
      </trkpt>
      <trkpt lat="44.87738" lon="5.23996">
        <ele>1328.5</ele>
        <time>2024-07-02T13:10:57Z</time>
      </trkpt>
      <trkpt lat="44.87739" lon="5.23995">
        <ele>1328.4</ele>
        <time>2024-07-02T13:10:58Z</time>
      </trkpt>
      <trkpt lat="44.87741" lon="5.23994">
        <ele>1328.3</ele>
        <time>2024-07-02T13:10:59Z</time>
      </trkpt>
      <trkpt lat="44.87742" lon="5.23994">
        <ele>1328.3</ele>
        <time>2024-07-02T13:11:00Z</time>
      </trkpt>
      <trkpt lat="44.87743" lon="5.23994">
        <ele>1328.3</ele>
        <time>2024-07-02T13:11:01Z</time>
      </trkpt>
      <trkpt lat="44.87744" lon="5.23994">
        <ele>1328.2</ele>
        <time>2024-07-02T13:11:02Z</time>
      </trkpt>
      <trkpt lat="44.87745" lon="5.23994">
        <ele>1328.2</ele>
        <time>2024-07-02T13:11:03Z</time>
      </trkpt>
      <trkpt lat="44.87746" lon="5.23994">
        <ele>1328.1</ele>
        <time>2024-07-02T13:11:04Z</time>
      </trkpt>
      <trkpt lat="44.87747" lon="5.23994">
        <ele>1328.1</ele>
        <time>2024-07-02T13:11:05Z</time>
      </trkpt>
      <trkpt lat="44.87749" lon="5.23994">
        <ele>1328</ele>
        <time>2024-07-02T13:11:06Z</time>
      </trkpt>
      <trkpt lat="44.8775" lon="5.23994">
        <ele>1328</ele>
        <time>2024-07-02T13:11:07Z</time>
      </trkpt>
      <trkpt lat="44.87751" lon="5.23994">
        <ele>1327.9</ele>
        <time>2024-07-02T13:11:08Z</time>
      </trkpt>
      <trkpt lat="44.87752" lon="5.23994">
        <ele>1327.9</ele>
        <time>2024-07-02T13:11:09Z</time>
      </trkpt>
      <trkpt lat="44.87754" lon="5.23995">
        <ele>1327.8</ele>
        <time>2024-07-02T13:11:10Z</time>
      </trkpt>
      <trkpt lat="44.87755" lon="5.23995">
        <ele>1327.7</ele>
        <time>2024-07-02T13:11:11Z</time>
      </trkpt>
      <trkpt lat="44.87756" lon="5.23995">
        <ele>1327.7</ele>
        <time>2024-07-02T13:11:12Z</time>
      </trkpt>
      <trkpt lat="44.87757" lon="5.23996">
        <ele>1327.6</ele>
        <time>2024-07-02T13:11:13Z</time>
      </trkpt>
      <trkpt lat="44.87758" lon="5.23996">
        <ele>1327.5</ele>
        <time>2024-07-02T13:11:14Z</time>
      </trkpt>
      <trkpt lat="44.87759" lon="5.23996">
        <ele>1327.4</ele>
        <time>2024-07-02T13:11:15Z</time>
      </trkpt>
      <trkpt lat="44.87761" lon="5.23996">
        <ele>1327.3</ele>
        <time>2024-07-02T13:11:16Z</time>
      </trkpt>
      <trkpt lat="44.87761" lon="5.23997">
        <ele>1327.3</ele>
        <time>2024-07-02T13:11:17Z</time>
      </trkpt>
      <trkpt lat="44.87762" lon="5.23997">
        <ele>1327.2</ele>
        <time>2024-07-02T13:11:18Z</time>
      </trkpt>
      <trkpt lat="44.87763" lon="5.23997">
        <ele>1327.1</ele>
        <time>2024-07-02T13:11:19Z</time>
      </trkpt>
      <trkpt lat="44.87764" lon="5.23997">
        <ele>1327</ele>
        <time>2024-07-02T13:11:20Z</time>
      </trkpt>
      <trkpt lat="44.87766" lon="5.23997">
        <ele>1326.9</ele>
        <time>2024-07-02T13:11:21Z</time>
      </trkpt>
      <trkpt lat="44.87767" lon="5.23997">
        <ele>1326.8</ele>
        <time>2024-07-02T13:11:22Z</time>
      </trkpt>
      <trkpt lat="44.87768" lon="5.23997">
        <ele>1326.6</ele>
        <time>2024-07-02T13:11:23Z</time>
      </trkpt>
      <trkpt lat="44.87769" lon="5.23997">
        <ele>1326.5</ele>
        <time>2024-07-02T13:11:24Z</time>
      </trkpt>
      <trkpt lat="44.8777" lon="5.23997">
        <ele>1326.4</ele>
        <time>2024-07-02T13:11:25Z</time>
      </trkpt>
      <trkpt lat="44.87771" lon="5.23997">
        <ele>1326.3</ele>
        <time>2024-07-02T13:11:26Z</time>
      </trkpt>
      <trkpt lat="44.87772" lon="5.23997">
        <ele>1326.2</ele>
        <time>2024-07-02T13:11:27Z</time>
      </trkpt>
      <trkpt lat="44.87773" lon="5.23997">
        <ele>1326.1</ele>
        <time>2024-07-02T13:11:28Z</time>
      </trkpt>
      <trkpt lat="44.87774" lon="5.23997">
        <ele>1326</ele>
        <time>2024-07-02T13:11:29Z</time>
      </trkpt>
      <trkpt lat="44.87775" lon="5.23997">
        <ele>1325.9</ele>
        <time>2024-07-02T13:11:30Z</time>
      </trkpt>
      <trkpt lat="44.87776" lon="5.23996">
        <ele>1325.8</ele>
        <time>2024-07-02T13:11:31Z</time>
      </trkpt>
      <trkpt lat="44.87777" lon="5.23996">
        <ele>1325.6</ele>
        <time>2024-07-02T13:11:32Z</time>
      </trkpt>
      <trkpt lat="44.87778" lon="5.23995">
        <ele>1325.5</ele>
        <time>2024-07-02T13:11:33Z</time>
      </trkpt>
      <trkpt lat="44.87779" lon="5.23995">
        <ele>1325.4</ele>
        <time>2024-07-02T13:11:34Z</time>
      </trkpt>
      <trkpt lat="44.8778" lon="5.23995">
        <ele>1325.2</ele>
        <time>2024-07-02T13:11:35Z</time>
      </trkpt>
      <trkpt lat="44.87782" lon="5.23995">
        <ele>1325.1</ele>
        <time>2024-07-02T13:11:36Z</time>
      </trkpt>
      <trkpt lat="44.87783" lon="5.23994">
        <ele>1325</ele>
        <time>2024-07-02T13:11:37Z</time>
      </trkpt>
      <trkpt lat="44.87784" lon="5.23994">
        <ele>1324.9</ele>
        <time>2024-07-02T13:11:38Z</time>
      </trkpt>
      <trkpt lat="44.87785" lon="5.23994">
        <ele>1324.8</ele>
        <time>2024-07-02T13:11:39Z</time>
      </trkpt>
      <trkpt lat="44.87786" lon="5.23993">
        <ele>1324.7</ele>
        <time>2024-07-02T13:11:40Z</time>
      </trkpt>
      <trkpt lat="44.87787" lon="5.23993">
        <ele>1324.6</ele>
        <time>2024-07-02T13:11:41Z</time>
      </trkpt>
      <trkpt lat="44.87788" lon="5.23993">
        <ele>1324.6</ele>
        <time>2024-07-02T13:11:42Z</time>
      </trkpt>
      <trkpt lat="44.8779" lon="5.23994">
        <ele>1324.4</ele>
        <time>2024-07-02T13:11:43Z</time>
      </trkpt>
      <trkpt lat="44.87791" lon="5.23994">
        <ele>1324.4</ele>
        <time>2024-07-02T13:11:44Z</time>
      </trkpt>
      <trkpt lat="44.87792" lon="5.23994">
        <ele>1324.4</ele>
        <time>2024-07-02T13:11:45Z</time>
      </trkpt>
      <trkpt lat="44.87793" lon="5.23994">
        <ele>1324.3</ele>
        <time>2024-07-02T13:11:46Z</time>
      </trkpt>
      <trkpt lat="44.87795" lon="5.23995">
        <ele>1324.2</ele>
        <time>2024-07-02T13:11:47Z</time>
      </trkpt>
      <trkpt lat="44.87797" lon="5.23996">
        <ele>1324.2</ele>
        <time>2024-07-02T13:11:48Z</time>
      </trkpt>
      <trkpt lat="44.87798" lon="5.23996">
        <ele>1324.1</ele>
        <time>2024-07-02T13:11:49Z</time>
      </trkpt>
      <trkpt lat="44.87799" lon="5.23996">
        <ele>1324.1</ele>
        <time>2024-07-02T13:11:50Z</time>
      </trkpt>
      <trkpt lat="44.87801" lon="5.23996">
        <ele>1324.1</ele>
        <time>2024-07-02T13:11:51Z</time>
      </trkpt>
      <trkpt lat="44.87802" lon="5.23996">
        <ele>1324.1</ele>
        <time>2024-07-02T13:11:52Z</time>
      </trkpt>
      <trkpt lat="44.87802" lon="5.23996">
        <ele>1324.1</ele>
        <time>2024-07-02T13:11:53Z</time>
      </trkpt>
      <trkpt lat="44.87804" lon="5.23996">
        <ele>1324.1</ele>
        <time>2024-07-02T13:11:54Z</time>
      </trkpt>
      <trkpt lat="44.87805" lon="5.23996">
        <ele>1324.1</ele>
        <time>2024-07-02T13:11:55Z</time>
      </trkpt>
      <trkpt lat="44.87806" lon="5.23996">
        <ele>1324.1</ele>
        <time>2024-07-02T13:11:56Z</time>
      </trkpt>
      <trkpt lat="44.87808" lon="5.23996">
        <ele>1324.1</ele>
        <time>2024-07-02T13:11:57Z</time>
      </trkpt>
      <trkpt lat="44.87809" lon="5.23996">
        <ele>1324.1</ele>
        <time>2024-07-02T13:11:58Z</time>
      </trkpt>
      <trkpt lat="44.8781" lon="5.23996">
        <ele>1324.1</ele>
        <time>2024-07-02T13:11:59Z</time>
      </trkpt>
      <trkpt lat="44.87811" lon="5.23995">
        <ele>1324.1</ele>
        <time>2024-07-02T13:12:00Z</time>
      </trkpt>
      <trkpt lat="44.87812" lon="5.23995">
        <ele>1324.1</ele>
        <time>2024-07-02T13:12:01Z</time>
      </trkpt>
      <trkpt lat="44.87814" lon="5.23995">
        <ele>1324.1</ele>
        <time>2024-07-02T13:12:02Z</time>
      </trkpt>
      <trkpt lat="44.87815" lon="5.23995">
        <ele>1324.1</ele>
        <time>2024-07-02T13:12:03Z</time>
      </trkpt>
      <trkpt lat="44.87816" lon="5.23995">
        <ele>1324.1</ele>
        <time>2024-07-02T13:12:04Z</time>
      </trkpt>
      <trkpt lat="44.87817" lon="5.23995">
        <ele>1324.2</ele>
        <time>2024-07-02T13:12:05Z</time>
      </trkpt>
      <trkpt lat="44.87818" lon="5.23996">
        <ele>1324.2</ele>
        <time>2024-07-02T13:12:06Z</time>
      </trkpt>
      <trkpt lat="44.87818" lon="5.23998">
        <ele>1324.2</ele>
        <time>2024-07-02T13:12:07Z</time>
      </trkpt>
      <trkpt lat="44.87818" lon="5.24">
        <ele>1324.2</ele>
        <time>2024-07-02T13:12:08Z</time>
      </trkpt>
      <trkpt lat="44.87819" lon="5.24">
        <ele>1324.3</ele>
        <time>2024-07-02T13:12:09Z</time>
      </trkpt>
      <trkpt lat="44.8782" lon="5.24001">
        <ele>1324.3</ele>
        <time>2024-07-02T13:12:10Z</time>
      </trkpt>
      <trkpt lat="44.8782" lon="5.24002">
        <ele>1324.3</ele>
        <time>2024-07-02T13:12:11Z</time>
      </trkpt>
      <trkpt lat="44.87821" lon="5.24002">
        <ele>1324.3</ele>
        <time>2024-07-02T13:12:12Z</time>
      </trkpt>
      <trkpt lat="44.87821" lon="5.24">
        <ele>1324.3</ele>
        <time>2024-07-02T13:12:13Z</time>
      </trkpt>
      <trkpt lat="44.87821" lon="5.23999">
        <ele>1324.4</ele>
        <time>2024-07-02T13:12:14Z</time>
      </trkpt>
      <trkpt lat="44.8782" lon="5.23998">
        <ele>1324.4</ele>
        <time>2024-07-02T13:12:15Z</time>
      </trkpt>
      <trkpt lat="44.8782" lon="5.23998">
        <ele>1324.4</ele>
        <time>2024-07-02T13:12:16Z</time>
      </trkpt>
      <trkpt lat="44.8782" lon="5.23998">
        <ele>1324.4</ele>
        <time>2024-07-02T13:12:17Z</time>
      </trkpt>
      <trkpt lat="44.8782" lon="5.23998">
        <ele>1324.4</ele>
        <time>2024-07-02T13:12:18Z</time>
      </trkpt>
      <trkpt lat="44.8782" lon="5.23998">
        <ele>1324.4</ele>
        <time>2024-07-02T13:12:19Z</time>
      </trkpt>
      <trkpt lat="44.8782" lon="5.23998">
        <ele>1324.4</ele>
        <time>2024-07-02T13:12:20Z</time>
      </trkpt>
      <trkpt lat="44.8782" lon="5.23998">
        <ele>1324.4</ele>
        <time>2024-07-02T13:12:21Z</time>
      </trkpt>
      <trkpt lat="44.8782" lon="5.23998">
        <ele>1324.4</ele>
        <time>2024-07-02T13:12:22Z</time>
      </trkpt>
      <trkpt lat="44.8782" lon="5.23998">
        <ele>1324.4</ele>
        <time>2024-07-02T13:12:23Z</time>
      </trkpt>
      <trkpt lat="44.8782" lon="5.23997">
        <ele>1324.4</ele>
        <time>2024-07-02T13:12:24Z</time>
      </trkpt>
      <trkpt lat="44.8782" lon="5.23997">
        <ele>1324.4</ele>
        <time>2024-07-02T13:12:25Z</time>
      </trkpt>
      <trkpt lat="44.8782" lon="5.23996">
        <ele>1324.4</ele>
        <time>2024-07-02T13:12:26Z</time>
      </trkpt>
      <trkpt lat="44.8782" lon="5.23996">
        <ele>1324.4</ele>
        <time>2024-07-02T13:12:27Z</time>
      </trkpt>
      <trkpt lat="44.8782" lon="5.23996">
        <ele>1324.4</ele>
        <time>2024-07-02T13:12:28Z</time>
      </trkpt>
      <trkpt lat="44.8782" lon="5.23996">
        <ele>1324.4</ele>
        <time>2024-07-02T13:12:29Z</time>
      </trkpt>
      <trkpt lat="44.8782" lon="5.23996">
        <ele>1324.4</ele>
        <time>2024-07-02T13:12:30Z</time>
      </trkpt>
      <trkpt lat="44.8782" lon="5.23995">
        <ele>1324.4</ele>
        <time>2024-07-02T13:12:31Z</time>
      </trkpt>
      <trkpt lat="44.8782" lon="5.23995">
        <ele>1324.4</ele>
        <time>2024-07-02T13:12:32Z</time>
      </trkpt>
      <trkpt lat="44.87821" lon="5.23995">
        <ele>1324.5</ele>
        <time>2024-07-02T13:12:33Z</time>
      </trkpt>
      <trkpt lat="44.87821" lon="5.23995">
        <ele>1324.5</ele>
        <time>2024-07-02T13:12:34Z</time>
      </trkpt>
      <trkpt lat="44.87821" lon="5.23994">
        <ele>1324.5</ele>
        <time>2024-07-02T13:12:35Z</time>
      </trkpt>
      <trkpt lat="44.87822" lon="5.23993">
        <ele>1324.5</ele>
        <time>2024-07-02T13:12:36Z</time>
      </trkpt>
      <trkpt lat="44.87823" lon="5.23992">
        <ele>1324.5</ele>
        <time>2024-07-02T13:12:37Z</time>
      </trkpt>
      <trkpt lat="44.87825" lon="5.23992">
        <ele>1324.6</ele>
        <time>2024-07-02T13:12:38Z</time>
      </trkpt>
      <trkpt lat="44.87827" lon="5.23992">
        <ele>1324.6</ele>
        <time>2024-07-02T13:12:39Z</time>
      </trkpt>
      <trkpt lat="44.87828" lon="5.23992">
        <ele>1324.6</ele>
        <time>2024-07-02T13:12:40Z</time>
      </trkpt>
      <trkpt lat="44.87829" lon="5.23991">
        <ele>1324.6</ele>
        <time>2024-07-02T13:12:41Z</time>
      </trkpt>
      <trkpt lat="44.8783" lon="5.23991">
        <ele>1324.7</ele>
        <time>2024-07-02T13:12:42Z</time>
      </trkpt>
      <trkpt lat="44.87831" lon="5.23989">
        <ele>1324.7</ele>
        <time>2024-07-02T13:12:43Z</time>
      </trkpt>
      <trkpt lat="44.87832" lon="5.23988">
        <ele>1324.7</ele>
        <time>2024-07-02T13:12:44Z</time>
      </trkpt>
      <trkpt lat="44.87833" lon="5.23986">
        <ele>1324.7</ele>
        <time>2024-07-02T13:12:45Z</time>
      </trkpt>
      <trkpt lat="44.87834" lon="5.23985">
        <ele>1324.7</ele>
        <time>2024-07-02T13:12:46Z</time>
      </trkpt>
      <trkpt lat="44.87835" lon="5.23985">
        <ele>1324.7</ele>
        <time>2024-07-02T13:12:47Z</time>
      </trkpt>
      <trkpt lat="44.87836" lon="5.23984">
        <ele>1324.7</ele>
        <time>2024-07-02T13:12:48Z</time>
      </trkpt>
      <trkpt lat="44.87836" lon="5.23984">
        <ele>1324.7</ele>
        <time>2024-07-02T13:12:49Z</time>
      </trkpt>
      <trkpt lat="44.87838" lon="5.23984">
        <ele>1324.7</ele>
        <time>2024-07-02T13:12:50Z</time>
      </trkpt>
      <trkpt lat="44.87838" lon="5.23984">
        <ele>1324.7</ele>
        <time>2024-07-02T13:12:51Z</time>
      </trkpt>
      <trkpt lat="44.87839" lon="5.23984">
        <ele>1324.7</ele>
        <time>2024-07-02T13:12:52Z</time>
      </trkpt>
      <trkpt lat="44.87841" lon="5.23984">
        <ele>1324.6</ele>
        <time>2024-07-02T13:12:53Z</time>
      </trkpt>
      <trkpt lat="44.87842" lon="5.23984">
        <ele>1324.6</ele>
        <time>2024-07-02T13:12:54Z</time>
      </trkpt>
      <trkpt lat="44.87843" lon="5.23984">
        <ele>1324.6</ele>
        <time>2024-07-02T13:12:55Z</time>
      </trkpt>
      <trkpt lat="44.87844" lon="5.23984">
        <ele>1324.6</ele>
        <time>2024-07-02T13:12:56Z</time>
      </trkpt>
      <trkpt lat="44.87845" lon="5.23985">
        <ele>1324.5</ele>
        <time>2024-07-02T13:12:57Z</time>
      </trkpt>
      <trkpt lat="44.87846" lon="5.23985">
        <ele>1324.5</ele>
        <time>2024-07-02T13:12:58Z</time>
      </trkpt>
      <trkpt lat="44.87847" lon="5.23986">
        <ele>1324.5</ele>
        <time>2024-07-02T13:12:59Z</time>
      </trkpt>
      <trkpt lat="44.87848" lon="5.23986">
        <ele>1324.5</ele>
        <time>2024-07-02T13:13:00Z</time>
      </trkpt>
      <trkpt lat="44.87849" lon="5.23986">
        <ele>1324.4</ele>
        <time>2024-07-02T13:13:01Z</time>
      </trkpt>
      <trkpt lat="44.8785" lon="5.23987">
        <ele>1324.4</ele>
        <time>2024-07-02T13:13:02Z</time>
      </trkpt>
      <trkpt lat="44.87852" lon="5.23987">
        <ele>1324.3</ele>
        <time>2024-07-02T13:13:03Z</time>
      </trkpt>
      <trkpt lat="44.87853" lon="5.23987">
        <ele>1324.3</ele>
        <time>2024-07-02T13:13:04Z</time>
      </trkpt>
      <trkpt lat="44.87854" lon="5.23986">
        <ele>1324.2</ele>
        <time>2024-07-02T13:13:05Z</time>
      </trkpt>
      <trkpt lat="44.87854" lon="5.23986">
        <ele>1324.2</ele>
        <time>2024-07-02T13:13:06Z</time>
      </trkpt>
      <trkpt lat="44.87855" lon="5.23985">
        <ele>1324.2</ele>
        <time>2024-07-02T13:13:07Z</time>
      </trkpt>
      <trkpt lat="44.87856" lon="5.23985">
        <ele>1324.1</ele>
        <time>2024-07-02T13:13:08Z</time>
      </trkpt>
      <trkpt lat="44.87856" lon="5.23986">
        <ele>1324.1</ele>
        <time>2024-07-02T13:13:09Z</time>
      </trkpt>
      <trkpt lat="44.87857" lon="5.23986">
        <ele>1324.1</ele>
        <time>2024-07-02T13:13:10Z</time>
      </trkpt>
      <trkpt lat="44.87858" lon="5.23986">
        <ele>1324</ele>
        <time>2024-07-02T13:13:11Z</time>
      </trkpt>
      <trkpt lat="44.87859" lon="5.23986">
        <ele>1324</ele>
        <time>2024-07-02T13:13:12Z</time>
      </trkpt>
      <trkpt lat="44.87861" lon="5.23987">
        <ele>1323.9</ele>
        <time>2024-07-02T13:13:13Z</time>
      </trkpt>
      <trkpt lat="44.87861" lon="5.23987">
        <ele>1323.9</ele>
        <time>2024-07-02T13:13:14Z</time>
      </trkpt>
      <trkpt lat="44.87862" lon="5.23988">
        <ele>1323.8</ele>
        <time>2024-07-02T13:13:15Z</time>
      </trkpt>
      <trkpt lat="44.87863" lon="5.23988">
        <ele>1323.8</ele>
        <time>2024-07-02T13:13:16Z</time>
      </trkpt>
      <trkpt lat="44.87864" lon="5.23989">
        <ele>1323.7</ele>
        <time>2024-07-02T13:13:17Z</time>
      </trkpt>
      <trkpt lat="44.87865" lon="5.2399">
        <ele>1323.7</ele>
        <time>2024-07-02T13:13:18Z</time>
      </trkpt>
      <trkpt lat="44.87865" lon="5.23991">
        <ele>1323.6</ele>
        <time>2024-07-02T13:13:19Z</time>
      </trkpt>
      <trkpt lat="44.87866" lon="5.23992">
        <ele>1323.6</ele>
        <time>2024-07-02T13:13:20Z</time>
      </trkpt>
      <trkpt lat="44.87868" lon="5.23992">
        <ele>1323.5</ele>
        <time>2024-07-02T13:13:21Z</time>
      </trkpt>
      <trkpt lat="44.87869" lon="5.23991">
        <ele>1323.5</ele>
        <time>2024-07-02T13:13:22Z</time>
      </trkpt>
      <trkpt lat="44.8787" lon="5.23991">
        <ele>1323.4</ele>
        <time>2024-07-02T13:13:23Z</time>
      </trkpt>
      <trkpt lat="44.87871" lon="5.23991">
        <ele>1323.4</ele>
        <time>2024-07-02T13:13:24Z</time>
      </trkpt>
      <trkpt lat="44.87872" lon="5.23991">
        <ele>1323.4</ele>
        <time>2024-07-02T13:13:25Z</time>
      </trkpt>
      <trkpt lat="44.87873" lon="5.2399">
        <ele>1323.3</ele>
        <time>2024-07-02T13:13:26Z</time>
      </trkpt>
      <trkpt lat="44.87874" lon="5.2399">
        <ele>1323.3</ele>
        <time>2024-07-02T13:13:27Z</time>
      </trkpt>
      <trkpt lat="44.87876" lon="5.23989">
        <ele>1323.2</ele>
        <time>2024-07-02T13:13:28Z</time>
      </trkpt>
      <trkpt lat="44.87875" lon="5.23988">
        <ele>1323.1</ele>
        <time>2024-07-02T13:13:29Z</time>
      </trkpt>
      <trkpt lat="44.87875" lon="5.23986">
        <ele>1323.1</ele>
        <time>2024-07-02T13:13:30Z</time>
      </trkpt>
      <trkpt lat="44.87876" lon="5.23987">
        <ele>1323.1</ele>
        <time>2024-07-02T13:13:31Z</time>
      </trkpt>
      <trkpt lat="44.87877" lon="5.23987">
        <ele>1323</ele>
        <time>2024-07-02T13:13:32Z</time>
      </trkpt>
      <trkpt lat="44.87878" lon="5.23987">
        <ele>1323</ele>
        <time>2024-07-02T13:13:33Z</time>
      </trkpt>
      <trkpt lat="44.87879" lon="5.23986">
        <ele>1322.9</ele>
        <time>2024-07-02T13:13:34Z</time>
      </trkpt>
      <trkpt lat="44.87881" lon="5.23986">
        <ele>1322.9</ele>
        <time>2024-07-02T13:13:35Z</time>
      </trkpt>
      <trkpt lat="44.87882" lon="5.23986">
        <ele>1322.8</ele>
        <time>2024-07-02T13:13:36Z</time>
      </trkpt>
      <trkpt lat="44.87883" lon="5.23987">
        <ele>1322.8</ele>
        <time>2024-07-02T13:13:37Z</time>
      </trkpt>
      <trkpt lat="44.87884" lon="5.23987">
        <ele>1322.8</ele>
        <time>2024-07-02T13:13:38Z</time>
      </trkpt>
      <trkpt lat="44.87885" lon="5.23987">
        <ele>1322.7</ele>
        <time>2024-07-02T13:13:39Z</time>
      </trkpt>
      <trkpt lat="44.87886" lon="5.23987">
        <ele>1322.7</ele>
        <time>2024-07-02T13:13:40Z</time>
      </trkpt>
      <trkpt lat="44.87888" lon="5.23987">
        <ele>1322.7</ele>
        <time>2024-07-02T13:13:41Z</time>
      </trkpt>
      <trkpt lat="44.87889" lon="5.23988">
        <ele>1322.6</ele>
        <time>2024-07-02T13:13:42Z</time>
      </trkpt>
      <trkpt lat="44.8789" lon="5.23988">
        <ele>1322.6</ele>
        <time>2024-07-02T13:13:43Z</time>
      </trkpt>
      <trkpt lat="44.87891" lon="5.23988">
        <ele>1322.6</ele>
        <time>2024-07-02T13:13:44Z</time>
      </trkpt>
      <trkpt lat="44.87893" lon="5.23988">
        <ele>1322.5</ele>
        <time>2024-07-02T13:13:45Z</time>
      </trkpt>
      <trkpt lat="44.87894" lon="5.23988">
        <ele>1322.5</ele>
        <time>2024-07-02T13:13:46Z</time>
      </trkpt>
      <trkpt lat="44.87895" lon="5.23987">
        <ele>1322.5</ele>
        <time>2024-07-02T13:13:47Z</time>
      </trkpt>
      <trkpt lat="44.87897" lon="5.23987">
        <ele>1322.4</ele>
        <time>2024-07-02T13:13:48Z</time>
      </trkpt>
      <trkpt lat="44.87897" lon="5.23987">
        <ele>1322.4</ele>
        <time>2024-07-02T13:13:49Z</time>
      </trkpt>
      <trkpt lat="44.87898" lon="5.23987">
        <ele>1322.4</ele>
        <time>2024-07-02T13:13:50Z</time>
      </trkpt>
      <trkpt lat="44.879" lon="5.23988">
        <ele>1322.3</ele>
        <time>2024-07-02T13:13:51Z</time>
      </trkpt>
      <trkpt lat="44.87901" lon="5.23988">
        <ele>1322.3</ele>
        <time>2024-07-02T13:13:52Z</time>
      </trkpt>
      <trkpt lat="44.87903" lon="5.23988">
        <ele>1322.2</ele>
        <time>2024-07-02T13:13:53Z</time>
      </trkpt>
      <trkpt lat="44.87904" lon="5.23988">
        <ele>1322.2</ele>
        <time>2024-07-02T13:13:54Z</time>
      </trkpt>
      <trkpt lat="44.87905" lon="5.23988">
        <ele>1322.2</ele>
        <time>2024-07-02T13:13:55Z</time>
      </trkpt>
      <trkpt lat="44.87905" lon="5.23988">
        <ele>1322.2</ele>
        <time>2024-07-02T13:13:56Z</time>
      </trkpt>
      <trkpt lat="44.87907" lon="5.23988">
        <ele>1322.1</ele>
        <time>2024-07-02T13:13:57Z</time>
      </trkpt>
      <trkpt lat="44.87908" lon="5.23988">
        <ele>1322</ele>
        <time>2024-07-02T13:13:58Z</time>
      </trkpt>
      <trkpt lat="44.87909" lon="5.23988">
        <ele>1322</ele>
        <time>2024-07-02T13:13:59Z</time>
      </trkpt>
      <trkpt lat="44.8791" lon="5.23988">
        <ele>1321.9</ele>
        <time>2024-07-02T13:14:00Z</time>
      </trkpt>
      <trkpt lat="44.87912" lon="5.23988">
        <ele>1321.8</ele>
        <time>2024-07-02T13:14:01Z</time>
      </trkpt>
      <trkpt lat="44.87913" lon="5.23988">
        <ele>1321.8</ele>
        <time>2024-07-02T13:14:02Z</time>
      </trkpt>
      <trkpt lat="44.87914" lon="5.23988">
        <ele>1321.7</ele>
        <time>2024-07-02T13:14:03Z</time>
      </trkpt>
      <trkpt lat="44.87915" lon="5.23988">
        <ele>1321.7</ele>
        <time>2024-07-02T13:14:04Z</time>
      </trkpt>
      <trkpt lat="44.87916" lon="5.23988">
        <ele>1321.6</ele>
        <time>2024-07-02T13:14:05Z</time>
      </trkpt>
      <trkpt lat="44.87917" lon="5.23988">
        <ele>1321.5</ele>
        <time>2024-07-02T13:14:06Z</time>
      </trkpt>
      <trkpt lat="44.87918" lon="5.23988">
        <ele>1321.5</ele>
        <time>2024-07-02T13:14:07Z</time>
      </trkpt>
      <trkpt lat="44.8792" lon="5.23989">
        <ele>1321.4</ele>
        <time>2024-07-02T13:14:08Z</time>
      </trkpt>
      <trkpt lat="44.8792" lon="5.23988">
        <ele>1321.3</ele>
        <time>2024-07-02T13:14:09Z</time>
      </trkpt>
      <trkpt lat="44.87922" lon="5.23987">
        <ele>1321.2</ele>
        <time>2024-07-02T13:14:10Z</time>
      </trkpt>
      <trkpt lat="44.87923" lon="5.23986">
        <ele>1321.1</ele>
        <time>2024-07-02T13:14:11Z</time>
      </trkpt>
      <trkpt lat="44.87924" lon="5.23986">
        <ele>1321.1</ele>
        <time>2024-07-02T13:14:12Z</time>
      </trkpt>
      <trkpt lat="44.87925" lon="5.23984">
        <ele>1320.9</ele>
        <time>2024-07-02T13:14:13Z</time>
      </trkpt>
      <trkpt lat="44.87926" lon="5.23984">
        <ele>1320.9</ele>
        <time>2024-07-02T13:14:14Z</time>
      </trkpt>
      <trkpt lat="44.87927" lon="5.23983">
        <ele>1320.8</ele>
        <time>2024-07-02T13:14:15Z</time>
      </trkpt>
      <trkpt lat="44.87928" lon="5.23982">
        <ele>1320.7</ele>
        <time>2024-07-02T13:14:16Z</time>
      </trkpt>
      <trkpt lat="44.87929" lon="5.23981">
        <ele>1320.6</ele>
        <time>2024-07-02T13:14:17Z</time>
      </trkpt>
      <trkpt lat="44.8793" lon="5.2398">
        <ele>1320.5</ele>
        <time>2024-07-02T13:14:18Z</time>
      </trkpt>
      <trkpt lat="44.87931" lon="5.23979">
        <ele>1320.4</ele>
        <time>2024-07-02T13:14:19Z</time>
      </trkpt>
      <trkpt lat="44.87932" lon="5.23979">
        <ele>1320.3</ele>
        <time>2024-07-02T13:14:20Z</time>
      </trkpt>
      <trkpt lat="44.87933" lon="5.23979">
        <ele>1320.2</ele>
        <time>2024-07-02T13:14:21Z</time>
      </trkpt>
      <trkpt lat="44.87934" lon="5.23979">
        <ele>1320.2</ele>
        <time>2024-07-02T13:14:22Z</time>
      </trkpt>
      <trkpt lat="44.87935" lon="5.23978">
        <ele>1320.1</ele>
        <time>2024-07-02T13:14:23Z</time>
      </trkpt>
      <trkpt lat="44.87936" lon="5.23978">
        <ele>1320</ele>
        <time>2024-07-02T13:14:24Z</time>
      </trkpt>
      <trkpt lat="44.87937" lon="5.23977">
        <ele>1319.9</ele>
        <time>2024-07-02T13:14:25Z</time>
      </trkpt>
      <trkpt lat="44.87938" lon="5.23977">
        <ele>1319.8</ele>
        <time>2024-07-02T13:14:26Z</time>
      </trkpt>
      <trkpt lat="44.87939" lon="5.23976">
        <ele>1319.7</ele>
        <time>2024-07-02T13:14:27Z</time>
      </trkpt>
      <trkpt lat="44.8794" lon="5.23976">
        <ele>1319.6</ele>
        <time>2024-07-02T13:14:28Z</time>
      </trkpt>
      <trkpt lat="44.87941" lon="5.23976">
        <ele>1319.5</ele>
        <time>2024-07-02T13:14:29Z</time>
      </trkpt>
      <trkpt lat="44.87943" lon="5.23975">
        <ele>1319.3</ele>
        <time>2024-07-02T13:14:30Z</time>
      </trkpt>
      <trkpt lat="44.87944" lon="5.23975">
        <ele>1319.2</ele>
        <time>2024-07-02T13:14:31Z</time>
      </trkpt>
      <trkpt lat="44.87945" lon="5.23975">
        <ele>1319.1</ele>
        <time>2024-07-02T13:14:32Z</time>
      </trkpt>
      <trkpt lat="44.87946" lon="5.23975">
        <ele>1319</ele>
        <time>2024-07-02T13:14:33Z</time>
      </trkpt>
      <trkpt lat="44.87947" lon="5.23974">
        <ele>1318.9</ele>
        <time>2024-07-02T13:14:34Z</time>
      </trkpt>
      <trkpt lat="44.87948" lon="5.23973">
        <ele>1318.8</ele>
        <time>2024-07-02T13:14:35Z</time>
      </trkpt>
      <trkpt lat="44.87948" lon="5.23972">
        <ele>1318.7</ele>
        <time>2024-07-02T13:14:36Z</time>
      </trkpt>
      <trkpt lat="44.87948" lon="5.23972">
        <ele>1318.7</ele>
        <time>2024-07-02T13:14:37Z</time>
      </trkpt>
      <trkpt lat="44.87949" lon="5.23972">
        <ele>1318.6</ele>
        <time>2024-07-02T13:14:38Z</time>
      </trkpt>
      <trkpt lat="44.87949" lon="5.23972">
        <ele>1318.6</ele>
        <time>2024-07-02T13:14:39Z</time>
      </trkpt>
      <trkpt lat="44.8795" lon="5.23972">
        <ele>1318.5</ele>
        <time>2024-07-02T13:14:40Z</time>
      </trkpt>
      <trkpt lat="44.8795" lon="5.23972">
        <ele>1318.4</ele>
        <time>2024-07-02T13:14:41Z</time>
      </trkpt>
      <trkpt lat="44.87951" lon="5.23972">
        <ele>1318.4</ele>
        <time>2024-07-02T13:14:42Z</time>
      </trkpt>
      <trkpt lat="44.87952" lon="5.23972">
        <ele>1318.2</ele>
        <time>2024-07-02T13:14:43Z</time>
      </trkpt>
      <trkpt lat="44.87953" lon="5.23972">
        <ele>1318.1</ele>
        <time>2024-07-02T13:14:44Z</time>
      </trkpt>
      <trkpt lat="44.87954" lon="5.23973">
        <ele>1318</ele>
        <time>2024-07-02T13:14:45Z</time>
      </trkpt>
      <trkpt lat="44.87956" lon="5.23973">
        <ele>1317.9</ele>
        <time>2024-07-02T13:14:46Z</time>
      </trkpt>
      <trkpt lat="44.87957" lon="5.23973">
        <ele>1317.8</ele>
        <time>2024-07-02T13:14:47Z</time>
      </trkpt>
      <trkpt lat="44.87958" lon="5.23974">
        <ele>1317.6</ele>
        <time>2024-07-02T13:14:48Z</time>
      </trkpt>
      <trkpt lat="44.87959" lon="5.23974">
        <ele>1317.5</ele>
        <time>2024-07-02T13:14:49Z</time>
      </trkpt>
      <trkpt lat="44.8796" lon="5.23974">
        <ele>1317.4</ele>
        <time>2024-07-02T13:14:50Z</time>
      </trkpt>
      <trkpt lat="44.87961" lon="5.23974">
        <ele>1317.3</ele>
        <time>2024-07-02T13:14:51Z</time>
      </trkpt>
      <trkpt lat="44.87962" lon="5.23974">
        <ele>1317.2</ele>
        <time>2024-07-02T13:14:52Z</time>
      </trkpt>
      <trkpt lat="44.87963" lon="5.23974">
        <ele>1317.2</ele>
        <time>2024-07-02T13:14:53Z</time>
      </trkpt>
      <trkpt lat="44.87964" lon="5.23974">
        <ele>1317</ele>
        <time>2024-07-02T13:14:54Z</time>
      </trkpt>
      <trkpt lat="44.87965" lon="5.23974">
        <ele>1316.9</ele>
        <time>2024-07-02T13:14:55Z</time>
      </trkpt>
      <trkpt lat="44.87966" lon="5.23974">
        <ele>1316.8</ele>
        <time>2024-07-02T13:14:56Z</time>
      </trkpt>
      <trkpt lat="44.87967" lon="5.23975">
        <ele>1316.7</ele>
        <time>2024-07-02T13:14:57Z</time>
      </trkpt>
      <trkpt lat="44.87968" lon="5.23974">
        <ele>1316.6</ele>
        <time>2024-07-02T13:14:58Z</time>
      </trkpt>
      <trkpt lat="44.87969" lon="5.23974">
        <ele>1316.5</ele>
        <time>2024-07-02T13:14:59Z</time>
      </trkpt>
      <trkpt lat="44.87969" lon="5.23972">
        <ele>1316.4</ele>
        <time>2024-07-02T13:15:00Z</time>
      </trkpt>
      <trkpt lat="44.87969" lon="5.23971">
        <ele>1316.3</ele>
        <time>2024-07-02T13:15:01Z</time>
      </trkpt>
      <trkpt lat="44.87969" lon="5.23971">
        <ele>1316.2</ele>
        <time>2024-07-02T13:15:02Z</time>
      </trkpt>
      <trkpt lat="44.8797" lon="5.23971">
        <ele>1316.2</ele>
        <time>2024-07-02T13:15:03Z</time>
      </trkpt>
      <trkpt lat="44.87971" lon="5.23971">
        <ele>1316.1</ele>
        <time>2024-07-02T13:15:04Z</time>
      </trkpt>
      <trkpt lat="44.87972" lon="5.2397">
        <ele>1316</ele>
        <time>2024-07-02T13:15:05Z</time>
      </trkpt>
      <trkpt lat="44.87972" lon="5.2397">
        <ele>1315.9</ele>
        <time>2024-07-02T13:15:06Z</time>
      </trkpt>
      <trkpt lat="44.87973" lon="5.23968">
        <ele>1315.8</ele>
        <time>2024-07-02T13:15:07Z</time>
      </trkpt>
      <trkpt lat="44.87972" lon="5.23968">
        <ele>1315.7</ele>
        <time>2024-07-02T13:15:08Z</time>
      </trkpt>
      <trkpt lat="44.87973" lon="5.23967">
        <ele>1315.7</ele>
        <time>2024-07-02T13:15:09Z</time>
      </trkpt>
      <trkpt lat="44.87973" lon="5.23967">
        <ele>1315.6</ele>
        <time>2024-07-02T13:15:10Z</time>
      </trkpt>
      <trkpt lat="44.87974" lon="5.23966">
        <ele>1315.5</ele>
        <time>2024-07-02T13:15:11Z</time>
      </trkpt>
      <trkpt lat="44.87975" lon="5.23965">
        <ele>1315.3</ele>
        <time>2024-07-02T13:15:12Z</time>
      </trkpt>
      <trkpt lat="44.87976" lon="5.23964">
        <ele>1315.2</ele>
        <time>2024-07-02T13:15:13Z</time>
      </trkpt>
      <trkpt lat="44.87979" lon="5.23964">
        <ele>1315</ele>
        <time>2024-07-02T13:15:14Z</time>
      </trkpt>
      <trkpt lat="44.87979" lon="5.23964">
        <ele>1314.9</ele>
        <time>2024-07-02T13:15:15Z</time>
      </trkpt>
      <trkpt lat="44.8798" lon="5.23964">
        <ele>1314.8</ele>
        <time>2024-07-02T13:15:16Z</time>
      </trkpt>
      <trkpt lat="44.87982" lon="5.23964">
        <ele>1314.7</ele>
        <time>2024-07-02T13:15:17Z</time>
      </trkpt>
      <trkpt lat="44.87983" lon="5.23964">
        <ele>1314.5</ele>
        <time>2024-07-02T13:15:18Z</time>
      </trkpt>
      <trkpt lat="44.87984" lon="5.23964">
        <ele>1314.4</ele>
        <time>2024-07-02T13:15:19Z</time>
      </trkpt>
      <trkpt lat="44.87986" lon="5.23965">
        <ele>1314.2</ele>
        <time>2024-07-02T13:15:20Z</time>
      </trkpt>
      <trkpt lat="44.87987" lon="5.23966">
        <ele>1314.1</ele>
        <time>2024-07-02T13:15:21Z</time>
      </trkpt>
      <trkpt lat="44.87988" lon="5.23966">
        <ele>1314</ele>
        <time>2024-07-02T13:15:22Z</time>
      </trkpt>
      <trkpt lat="44.87989" lon="5.23967">
        <ele>1313.8</ele>
        <time>2024-07-02T13:15:23Z</time>
      </trkpt>
      <trkpt lat="44.8799" lon="5.23967">
        <ele>1313.7</ele>
        <time>2024-07-02T13:15:24Z</time>
      </trkpt>
      <trkpt lat="44.87991" lon="5.23969">
        <ele>1313.5</ele>
        <time>2024-07-02T13:15:25Z</time>
      </trkpt>
      <trkpt lat="44.87992" lon="5.2397">
        <ele>1313.4</ele>
        <time>2024-07-02T13:15:26Z</time>
      </trkpt>
      <trkpt lat="44.87993" lon="5.23971">
        <ele>1313.3</ele>
        <time>2024-07-02T13:15:27Z</time>
      </trkpt>
      <trkpt lat="44.87993" lon="5.23972">
        <ele>1313.2</ele>
        <time>2024-07-02T13:15:28Z</time>
      </trkpt>
      <trkpt lat="44.87994" lon="5.23972">
        <ele>1313.1</ele>
        <time>2024-07-02T13:15:29Z</time>
      </trkpt>
      <trkpt lat="44.87995" lon="5.23971">
        <ele>1313</ele>
        <time>2024-07-02T13:15:30Z</time>
      </trkpt>
      <trkpt lat="44.87995" lon="5.2397">
        <ele>1312.9</ele>
        <time>2024-07-02T13:15:31Z</time>
      </trkpt>
      <trkpt lat="44.87995" lon="5.2397">
        <ele>1312.9</ele>
        <time>2024-07-02T13:15:32Z</time>
      </trkpt>
      <trkpt lat="44.87995" lon="5.2397">
        <ele>1312.9</ele>
        <time>2024-07-02T13:15:33Z</time>
      </trkpt>
      <trkpt lat="44.87995" lon="5.23971">
        <ele>1312.8</ele>
        <time>2024-07-02T13:15:34Z</time>
      </trkpt>
      <trkpt lat="44.87995" lon="5.23971">
        <ele>1312.8</ele>
        <time>2024-07-02T13:15:35Z</time>
      </trkpt>
      <trkpt lat="44.87995" lon="5.23972">
        <ele>1312.8</ele>
        <time>2024-07-02T13:15:36Z</time>
      </trkpt>
      <trkpt lat="44.87995" lon="5.23972">
        <ele>1312.7</ele>
        <time>2024-07-02T13:15:37Z</time>
      </trkpt>
      <trkpt lat="44.87995" lon="5.23972">
        <ele>1312.7</ele>
        <time>2024-07-02T13:15:38Z</time>
      </trkpt>
      <trkpt lat="44.87995" lon="5.23973">
        <ele>1312.6</ele>
        <time>2024-07-02T13:15:39Z</time>
      </trkpt>
      <trkpt lat="44.87997" lon="5.23973">
        <ele>1312.4</ele>
        <time>2024-07-02T13:15:40Z</time>
      </trkpt>
      <trkpt lat="44.87999" lon="5.23973">
        <ele>1312.3</ele>
        <time>2024-07-02T13:15:41Z</time>
      </trkpt>
      <trkpt lat="44.88" lon="5.23974">
        <ele>1312.1</ele>
        <time>2024-07-02T13:15:42Z</time>
      </trkpt>
      <trkpt lat="44.88002" lon="5.23974">
        <ele>1311.9</ele>
        <time>2024-07-02T13:15:43Z</time>
      </trkpt>
      <trkpt lat="44.88003" lon="5.23975">
        <ele>1311.7</ele>
        <time>2024-07-02T13:15:44Z</time>
      </trkpt>
      <trkpt lat="44.88005" lon="5.23975">
        <ele>1311.6</ele>
        <time>2024-07-02T13:15:45Z</time>
      </trkpt>
      <trkpt lat="44.88006" lon="5.23975">
        <ele>1311.4</ele>
        <time>2024-07-02T13:15:46Z</time>
      </trkpt>
      <trkpt lat="44.88007" lon="5.23976">
        <ele>1311.2</ele>
        <time>2024-07-02T13:15:47Z</time>
      </trkpt>
      <trkpt lat="44.88009" lon="5.23976">
        <ele>1311.1</ele>
        <time>2024-07-02T13:15:48Z</time>
      </trkpt>
      <trkpt lat="44.88009" lon="5.23976">
        <ele>1311</ele>
        <time>2024-07-02T13:15:49Z</time>
      </trkpt>
      <trkpt lat="44.88011" lon="5.23976">
        <ele>1310.8</ele>
        <time>2024-07-02T13:15:50Z</time>
      </trkpt>
      <trkpt lat="44.88012" lon="5.23976">
        <ele>1310.7</ele>
        <time>2024-07-02T13:15:51Z</time>
      </trkpt>
      <trkpt lat="44.88013" lon="5.23975">
        <ele>1310.6</ele>
        <time>2024-07-02T13:15:52Z</time>
      </trkpt>
      <trkpt lat="44.88014" lon="5.23973">
        <ele>1310.3</ele>
        <time>2024-07-02T13:15:53Z</time>
      </trkpt>
      <trkpt lat="44.88015" lon="5.23972">
        <ele>1310.2</ele>
        <time>2024-07-02T13:15:54Z</time>
      </trkpt>
      <trkpt lat="44.88015" lon="5.23971">
        <ele>1310.1</ele>
        <time>2024-07-02T13:15:55Z</time>
      </trkpt>
      <trkpt lat="44.88015" lon="5.23969">
        <ele>1310</ele>
        <time>2024-07-02T13:15:56Z</time>
      </trkpt>
      <trkpt lat="44.88016" lon="5.23967">
        <ele>1309.8</ele>
        <time>2024-07-02T13:15:57Z</time>
      </trkpt>
      <trkpt lat="44.88016" lon="5.23965">
        <ele>1309.6</ele>
        <time>2024-07-02T13:15:58Z</time>
      </trkpt>
      <trkpt lat="44.88015" lon="5.23962">
        <ele>1309.3</ele>
        <time>2024-07-02T13:15:59Z</time>
      </trkpt>
      <trkpt lat="44.88014" lon="5.2396">
        <ele>1309.1</ele>
        <time>2024-07-02T13:16:00Z</time>
      </trkpt>
      <trkpt lat="44.88012" lon="5.23959">
        <ele>1308.9</ele>
        <time>2024-07-02T13:16:01Z</time>
      </trkpt>
      <trkpt lat="44.88012" lon="5.23958">
        <ele>1308.8</ele>
        <time>2024-07-02T13:16:02Z</time>
      </trkpt>
      <trkpt lat="44.88012" lon="5.23957">
        <ele>1308.8</ele>
        <time>2024-07-02T13:16:03Z</time>
      </trkpt>
      <trkpt lat="44.88012" lon="5.23957">
        <ele>1308.7</ele>
        <time>2024-07-02T13:16:04Z</time>
      </trkpt>
      <trkpt lat="44.88012" lon="5.23956">
        <ele>1308.6</ele>
        <time>2024-07-02T13:16:05Z</time>
      </trkpt>
      <trkpt lat="44.88012" lon="5.23955">
        <ele>1308.5</ele>
        <time>2024-07-02T13:16:06Z</time>
      </trkpt>
      <trkpt lat="44.88012" lon="5.23954">
        <ele>1308.5</ele>
        <time>2024-07-02T13:16:07Z</time>
      </trkpt>
      <trkpt lat="44.88012" lon="5.23951">
        <ele>1308.2</ele>
        <time>2024-07-02T13:16:08Z</time>
      </trkpt>
      <trkpt lat="44.88012" lon="5.2395">
        <ele>1308.1</ele>
        <time>2024-07-02T13:16:09Z</time>
      </trkpt>
      <trkpt lat="44.88012" lon="5.23949">
        <ele>1308</ele>
        <time>2024-07-02T13:16:10Z</time>
      </trkpt>
      <trkpt lat="44.88013" lon="5.23947">
        <ele>1307.9</ele>
        <time>2024-07-02T13:16:11Z</time>
      </trkpt>
      <trkpt lat="44.88014" lon="5.23946">
        <ele>1307.8</ele>
        <time>2024-07-02T13:16:12Z</time>
      </trkpt>
      <trkpt lat="44.88014" lon="5.23945">
        <ele>1307.6</ele>
        <time>2024-07-02T13:16:13Z</time>
      </trkpt>
      <trkpt lat="44.88016" lon="5.23944">
        <ele>1307.4</ele>
        <time>2024-07-02T13:16:14Z</time>
      </trkpt>
      <trkpt lat="44.88017" lon="5.23943">
        <ele>1307.3</ele>
        <time>2024-07-02T13:16:15Z</time>
      </trkpt>
      <trkpt lat="44.88017" lon="5.23942">
        <ele>1307.2</ele>
        <time>2024-07-02T13:16:16Z</time>
      </trkpt>
      <trkpt lat="44.88018" lon="5.23942">
        <ele>1307.1</ele>
        <time>2024-07-02T13:16:17Z</time>
      </trkpt>
      <trkpt lat="44.88019" lon="5.23941">
        <ele>1307</ele>
        <time>2024-07-02T13:16:18Z</time>
      </trkpt>
      <trkpt lat="44.8802" lon="5.2394">
        <ele>1306.8</ele>
        <time>2024-07-02T13:16:19Z</time>
      </trkpt>
      <trkpt lat="44.88022" lon="5.23941">
        <ele>1306.7</ele>
        <time>2024-07-02T13:16:20Z</time>
      </trkpt>
      <trkpt lat="44.88023" lon="5.23942">
        <ele>1306.5</ele>
        <time>2024-07-02T13:16:21Z</time>
      </trkpt>
      <trkpt lat="44.88025" lon="5.23942">
        <ele>1306.3</ele>
        <time>2024-07-02T13:16:22Z</time>
      </trkpt>
      <trkpt lat="44.88026" lon="5.23943">
        <ele>1306.2</ele>
        <time>2024-07-02T13:16:23Z</time>
      </trkpt>
      <trkpt lat="44.88027" lon="5.23943">
        <ele>1306</ele>
        <time>2024-07-02T13:16:24Z</time>
      </trkpt>
      <trkpt lat="44.88029" lon="5.23943">
        <ele>1305.9</ele>
        <time>2024-07-02T13:16:25Z</time>
      </trkpt>
      <trkpt lat="44.88031" lon="5.23943">
        <ele>1305.7</ele>
        <time>2024-07-02T13:16:26Z</time>
      </trkpt>
      <trkpt lat="44.88032" lon="5.23943">
        <ele>1305.6</ele>
        <time>2024-07-02T13:16:27Z</time>
      </trkpt>
      <trkpt lat="44.88032" lon="5.23942">
        <ele>1305.5</ele>
        <time>2024-07-02T13:16:28Z</time>
      </trkpt>
      <trkpt lat="44.88033" lon="5.23941">
        <ele>1305.4</ele>
        <time>2024-07-02T13:16:29Z</time>
      </trkpt>
      <trkpt lat="44.88034" lon="5.23941">
        <ele>1305.3</ele>
        <time>2024-07-02T13:16:30Z</time>
      </trkpt>
      <trkpt lat="44.88035" lon="5.23941">
        <ele>1305.2</ele>
        <time>2024-07-02T13:16:31Z</time>
      </trkpt>
      <trkpt lat="44.88036" lon="5.23941">
        <ele>1305.2</ele>
        <time>2024-07-02T13:16:32Z</time>
      </trkpt>
      <trkpt lat="44.88036" lon="5.2394">
        <ele>1305</ele>
        <time>2024-07-02T13:16:33Z</time>
      </trkpt>
      <trkpt lat="44.88038" lon="5.23939">
        <ele>1304.9</ele>
        <time>2024-07-02T13:16:34Z</time>
      </trkpt>
      <trkpt lat="44.88039" lon="5.23938">
        <ele>1304.8</ele>
        <time>2024-07-02T13:16:35Z</time>
      </trkpt>
      <trkpt lat="44.8804" lon="5.23936">
        <ele>1304.7</ele>
        <time>2024-07-02T13:16:36Z</time>
      </trkpt>
      <trkpt lat="44.8804" lon="5.23935">
        <ele>1304.6</ele>
        <time>2024-07-02T13:16:37Z</time>
      </trkpt>
      <trkpt lat="44.88041" lon="5.23935">
        <ele>1304.5</ele>
        <time>2024-07-02T13:16:38Z</time>
      </trkpt>
      <trkpt lat="44.88042" lon="5.23934">
        <ele>1304.4</ele>
        <time>2024-07-02T13:16:39Z</time>
      </trkpt>
      <trkpt lat="44.88043" lon="5.23933">
        <ele>1304.3</ele>
        <time>2024-07-02T13:16:40Z</time>
      </trkpt>
      <trkpt lat="44.88046" lon="5.23933">
        <ele>1304.1</ele>
        <time>2024-07-02T13:16:41Z</time>
      </trkpt>
      <trkpt lat="44.88046" lon="5.23933">
        <ele>1304</ele>
        <time>2024-07-02T13:16:42Z</time>
      </trkpt>
      <trkpt lat="44.88047" lon="5.23933">
        <ele>1303.9</ele>
        <time>2024-07-02T13:16:43Z</time>
      </trkpt>
      <trkpt lat="44.88049" lon="5.23932">
        <ele>1303.7</ele>
        <time>2024-07-02T13:16:44Z</time>
      </trkpt>
      <trkpt lat="44.8805" lon="5.23932">
        <ele>1303.6</ele>
        <time>2024-07-02T13:16:45Z</time>
      </trkpt>
      <trkpt lat="44.88051" lon="5.23931">
        <ele>1303.5</ele>
        <time>2024-07-02T13:16:46Z</time>
      </trkpt>
      <trkpt lat="44.88052" lon="5.23931">
        <ele>1303.5</ele>
        <time>2024-07-02T13:16:47Z</time>
      </trkpt>
      <trkpt lat="44.88053" lon="5.2393">
        <ele>1303.4</ele>
        <time>2024-07-02T13:16:48Z</time>
      </trkpt>
      <trkpt lat="44.88054" lon="5.23929">
        <ele>1303.2</ele>
        <time>2024-07-02T13:16:49Z</time>
      </trkpt>
      <trkpt lat="44.88055" lon="5.23929">
        <ele>1303.1</ele>
        <time>2024-07-02T13:16:50Z</time>
      </trkpt>
      <trkpt lat="44.88057" lon="5.23928">
        <ele>1303</ele>
        <time>2024-07-02T13:16:51Z</time>
      </trkpt>
      <trkpt lat="44.88057" lon="5.23928">
        <ele>1302.9</ele>
        <time>2024-07-02T13:16:52Z</time>
      </trkpt>
      <trkpt lat="44.88059" lon="5.23927">
        <ele>1302.8</ele>
        <time>2024-07-02T13:16:53Z</time>
      </trkpt>
      <trkpt lat="44.8806" lon="5.23927">
        <ele>1302.7</ele>
        <time>2024-07-02T13:16:54Z</time>
      </trkpt>
      <trkpt lat="44.88061" lon="5.23925">
        <ele>1302.6</ele>
        <time>2024-07-02T13:16:55Z</time>
      </trkpt>
      <trkpt lat="44.88062" lon="5.23924">
        <ele>1302.5</ele>
        <time>2024-07-02T13:16:56Z</time>
      </trkpt>
      <trkpt lat="44.88063" lon="5.23924">
        <ele>1302.4</ele>
        <time>2024-07-02T13:16:57Z</time>
      </trkpt>
      <trkpt lat="44.88064" lon="5.23923">
        <ele>1302.4</ele>
        <time>2024-07-02T13:16:58Z</time>
      </trkpt>
      <trkpt lat="44.88064" lon="5.23922">
        <ele>1302.3</ele>
        <time>2024-07-02T13:16:59Z</time>
      </trkpt>
      <trkpt lat="44.88064" lon="5.23921">
        <ele>1302.2</ele>
        <time>2024-07-02T13:17:00Z</time>
      </trkpt>
      <trkpt lat="44.88065" lon="5.2392">
        <ele>1302.2</ele>
        <time>2024-07-02T13:17:01Z</time>
      </trkpt>
      <trkpt lat="44.88066" lon="5.23919">
        <ele>1302.1</ele>
        <time>2024-07-02T13:17:02Z</time>
      </trkpt>
      <trkpt lat="44.88066" lon="5.23919">
        <ele>1302.1</ele>
        <time>2024-07-02T13:17:03Z</time>
      </trkpt>
      <trkpt lat="44.88067" lon="5.23919">
        <ele>1302</ele>
        <time>2024-07-02T13:17:04Z</time>
      </trkpt>
      <trkpt lat="44.88068" lon="5.23919">
        <ele>1301.9</ele>
        <time>2024-07-02T13:17:05Z</time>
      </trkpt>
      <trkpt lat="44.8807" lon="5.23918">
        <ele>1301.8</ele>
        <time>2024-07-02T13:17:06Z</time>
      </trkpt>
      <trkpt lat="44.8807" lon="5.23918">
        <ele>1301.8</ele>
        <time>2024-07-02T13:17:07Z</time>
      </trkpt>
      <trkpt lat="44.88071" lon="5.23917">
        <ele>1301.7</ele>
        <time>2024-07-02T13:17:08Z</time>
      </trkpt>
      <trkpt lat="44.88074" lon="5.23917">
        <ele>1301.5</ele>
        <time>2024-07-02T13:17:09Z</time>
      </trkpt>
      <trkpt lat="44.88075" lon="5.23916">
        <ele>1301.5</ele>
        <time>2024-07-02T13:17:10Z</time>
      </trkpt>
      <trkpt lat="44.88076" lon="5.23916">
        <ele>1301.4</ele>
        <time>2024-07-02T13:17:11Z</time>
      </trkpt>
      <trkpt lat="44.88076" lon="5.23915">
        <ele>1301.4</ele>
        <time>2024-07-02T13:17:12Z</time>
      </trkpt>
      <trkpt lat="44.88077" lon="5.23915">
        <ele>1301.3</ele>
        <time>2024-07-02T13:17:13Z</time>
      </trkpt>
      <trkpt lat="44.88078" lon="5.23914">
        <ele>1301.2</ele>
        <time>2024-07-02T13:17:14Z</time>
      </trkpt>
      <trkpt lat="44.8808" lon="5.23913">
        <ele>1301.1</ele>
        <time>2024-07-02T13:17:15Z</time>
      </trkpt>
      <trkpt lat="44.88081" lon="5.23913">
        <ele>1301.1</ele>
        <time>2024-07-02T13:17:16Z</time>
      </trkpt>
      <trkpt lat="44.88082" lon="5.23913">
        <ele>1301</ele>
        <time>2024-07-02T13:17:17Z</time>
      </trkpt>
      <trkpt lat="44.88083" lon="5.23912">
        <ele>1300.9</ele>
        <time>2024-07-02T13:17:18Z</time>
      </trkpt>
      <trkpt lat="44.88084" lon="5.23912">
        <ele>1300.9</ele>
        <time>2024-07-02T13:17:19Z</time>
      </trkpt>
      <trkpt lat="44.88085" lon="5.23912">
        <ele>1300.8</ele>
        <time>2024-07-02T13:17:20Z</time>
      </trkpt>
      <trkpt lat="44.88088" lon="5.23912">
        <ele>1300.7</ele>
        <time>2024-07-02T13:17:21Z</time>
      </trkpt>
      <trkpt lat="44.88088" lon="5.23912">
        <ele>1300.6</ele>
        <time>2024-07-02T13:17:22Z</time>
      </trkpt>
      <trkpt lat="44.88089" lon="5.23912">
        <ele>1300.6</ele>
        <time>2024-07-02T13:17:23Z</time>
      </trkpt>
      <trkpt lat="44.88091" lon="5.23912">
        <ele>1300.5</ele>
        <time>2024-07-02T13:17:24Z</time>
      </trkpt>
      <trkpt lat="44.88092" lon="5.23912">
        <ele>1300.4</ele>
        <time>2024-07-02T13:17:25Z</time>
      </trkpt>
      <trkpt lat="44.88093" lon="5.23912">
        <ele>1300.4</ele>
        <time>2024-07-02T13:17:26Z</time>
      </trkpt>
      <trkpt lat="44.88094" lon="5.23912">
        <ele>1300.3</ele>
        <time>2024-07-02T13:17:27Z</time>
      </trkpt>
      <trkpt lat="44.88095" lon="5.23912">
        <ele>1300.3</ele>
        <time>2024-07-02T13:17:28Z</time>
      </trkpt>
      <trkpt lat="44.88096" lon="5.23911">
        <ele>1300.2</ele>
        <time>2024-07-02T13:17:29Z</time>
      </trkpt>
      <trkpt lat="44.88097" lon="5.2391">
        <ele>1300.2</ele>
        <time>2024-07-02T13:17:30Z</time>
      </trkpt>
      <trkpt lat="44.88098" lon="5.23909">
        <ele>1300.1</ele>
        <time>2024-07-02T13:17:31Z</time>
      </trkpt>
      <trkpt lat="44.88099" lon="5.23909">
        <ele>1300.1</ele>
        <time>2024-07-02T13:17:32Z</time>
      </trkpt>
      <trkpt lat="44.881" lon="5.23908">
        <ele>1300.1</ele>
        <time>2024-07-02T13:17:33Z</time>
      </trkpt>
      <trkpt lat="44.881" lon="5.23908">
        <ele>1300.1</ele>
        <time>2024-07-02T13:17:34Z</time>
      </trkpt>
      <trkpt lat="44.88101" lon="5.23908">
        <ele>1300</ele>
        <time>2024-07-02T13:17:35Z</time>
      </trkpt>
      <trkpt lat="44.88102" lon="5.23907">
        <ele>1300</ele>
        <time>2024-07-02T13:17:36Z</time>
      </trkpt>
      <trkpt lat="44.88103" lon="5.23908">
        <ele>1300</ele>
        <time>2024-07-02T13:17:37Z</time>
      </trkpt>
      <trkpt lat="44.88104" lon="5.23908">
        <ele>1299.9</ele>
        <time>2024-07-02T13:17:38Z</time>
      </trkpt>
      <trkpt lat="44.88106" lon="5.23909">
        <ele>1299.9</ele>
        <time>2024-07-02T13:17:39Z</time>
      </trkpt>
      <trkpt lat="44.88107" lon="5.23909">
        <ele>1299.9</ele>
        <time>2024-07-02T13:17:40Z</time>
      </trkpt>
      <trkpt lat="44.88109" lon="5.2391">
        <ele>1299.8</ele>
        <time>2024-07-02T13:17:41Z</time>
      </trkpt>
      <trkpt lat="44.88109" lon="5.2391">
        <ele>1299.8</ele>
        <time>2024-07-02T13:17:42Z</time>
      </trkpt>
      <trkpt lat="44.8811" lon="5.2391">
        <ele>1299.8</ele>
        <time>2024-07-02T13:17:43Z</time>
      </trkpt>
      <trkpt lat="44.88111" lon="5.2391">
        <ele>1299.8</ele>
        <time>2024-07-02T13:17:44Z</time>
      </trkpt>
      <trkpt lat="44.88113" lon="5.23909">
        <ele>1299.8</ele>
        <time>2024-07-02T13:17:45Z</time>
      </trkpt>
      <trkpt lat="44.88114" lon="5.23908">
        <ele>1299.8</ele>
        <time>2024-07-02T13:17:46Z</time>
      </trkpt>
      <trkpt lat="44.88115" lon="5.23908">
        <ele>1299.8</ele>
        <time>2024-07-02T13:17:47Z</time>
      </trkpt>
      <trkpt lat="44.88116" lon="5.23908">
        <ele>1299.7</ele>
        <time>2024-07-02T13:17:48Z</time>
      </trkpt>
      <trkpt lat="44.88117" lon="5.23907">
        <ele>1299.7</ele>
        <time>2024-07-02T13:17:49Z</time>
      </trkpt>
      <trkpt lat="44.88118" lon="5.23907">
        <ele>1299.7</ele>
        <time>2024-07-02T13:17:50Z</time>
      </trkpt>
      <trkpt lat="44.88119" lon="5.23906">
        <ele>1299.8</ele>
        <time>2024-07-02T13:17:51Z</time>
      </trkpt>
      <trkpt lat="44.8812" lon="5.23906">
        <ele>1299.8</ele>
        <time>2024-07-02T13:17:52Z</time>
      </trkpt>
      <trkpt lat="44.88121" lon="5.23905">
        <ele>1299.8</ele>
        <time>2024-07-02T13:17:53Z</time>
      </trkpt>
      <trkpt lat="44.88122" lon="5.23905">
        <ele>1299.8</ele>
        <time>2024-07-02T13:17:54Z</time>
      </trkpt>
      <trkpt lat="44.88123" lon="5.23904">
        <ele>1299.8</ele>
        <time>2024-07-02T13:17:55Z</time>
      </trkpt>
      <trkpt lat="44.88125" lon="5.23904">
        <ele>1299.8</ele>
        <time>2024-07-02T13:17:56Z</time>
      </trkpt>
      <trkpt lat="44.88126" lon="5.23905">
        <ele>1299.8</ele>
        <time>2024-07-02T13:17:57Z</time>
      </trkpt>
      <trkpt lat="44.88127" lon="5.23905">
        <ele>1299.8</ele>
        <time>2024-07-02T13:17:58Z</time>
      </trkpt>
      <trkpt lat="44.88128" lon="5.23905">
        <ele>1299.9</ele>
        <time>2024-07-02T13:17:59Z</time>
      </trkpt>
      <trkpt lat="44.88129" lon="5.23904">
        <ele>1299.9</ele>
        <time>2024-07-02T13:18:00Z</time>
      </trkpt>
      <trkpt lat="44.88129" lon="5.23904">
        <ele>1299.9</ele>
        <time>2024-07-02T13:18:01Z</time>
      </trkpt>
      <trkpt lat="44.8813" lon="5.23903">
        <ele>1299.9</ele>
        <time>2024-07-02T13:18:02Z</time>
      </trkpt>
      <trkpt lat="44.88131" lon="5.23903">
        <ele>1299.9</ele>
        <time>2024-07-02T13:18:03Z</time>
      </trkpt>
      <trkpt lat="44.88132" lon="5.23902">
        <ele>1299.9</ele>
        <time>2024-07-02T13:18:04Z</time>
      </trkpt>
      <trkpt lat="44.88133" lon="5.23901">
        <ele>1300</ele>
        <time>2024-07-02T13:18:05Z</time>
      </trkpt>
      <trkpt lat="44.88134" lon="5.23899">
        <ele>1300</ele>
        <time>2024-07-02T13:18:06Z</time>
      </trkpt>
      <trkpt lat="44.88134" lon="5.23899">
        <ele>1300</ele>
        <time>2024-07-02T13:18:07Z</time>
      </trkpt>
      <trkpt lat="44.88135" lon="5.23898">
        <ele>1300</ele>
        <time>2024-07-02T13:18:08Z</time>
      </trkpt>
      <trkpt lat="44.88136" lon="5.23898">
        <ele>1300</ele>
        <time>2024-07-02T13:18:09Z</time>
      </trkpt>
      <trkpt lat="44.88137" lon="5.23897">
        <ele>1300</ele>
        <time>2024-07-02T13:18:10Z</time>
      </trkpt>
      <trkpt lat="44.88138" lon="5.23896">
        <ele>1300</ele>
        <time>2024-07-02T13:18:11Z</time>
      </trkpt>
      <trkpt lat="44.88139" lon="5.23896">
        <ele>1300</ele>
        <time>2024-07-02T13:18:12Z</time>
      </trkpt>
      <trkpt lat="44.88141" lon="5.23895">
        <ele>1300</ele>
        <time>2024-07-02T13:18:13Z</time>
      </trkpt>
      <trkpt lat="44.88142" lon="5.23897">
        <ele>1300</ele>
        <time>2024-07-02T13:18:14Z</time>
      </trkpt>
      <trkpt lat="44.88144" lon="5.23901">
        <ele>1300</ele>
        <time>2024-07-02T13:18:15Z</time>
      </trkpt>
      <trkpt lat="44.88145" lon="5.23901">
        <ele>1300</ele>
        <time>2024-07-02T13:18:16Z</time>
      </trkpt>
      <trkpt lat="44.88146" lon="5.23902">
        <ele>1300</ele>
        <time>2024-07-02T13:18:17Z</time>
      </trkpt>
      <trkpt lat="44.88147" lon="5.23903">
        <ele>1300</ele>
        <time>2024-07-02T13:18:18Z</time>
      </trkpt>
      <trkpt lat="44.8815" lon="5.23903">
        <ele>1299.9</ele>
        <time>2024-07-02T13:18:19Z</time>
      </trkpt>
      <trkpt lat="44.8815" lon="5.23903">
        <ele>1299.9</ele>
        <time>2024-07-02T13:18:20Z</time>
      </trkpt>
      <trkpt lat="44.88151" lon="5.23904">
        <ele>1299.8</ele>
        <time>2024-07-02T13:18:21Z</time>
      </trkpt>
      <trkpt lat="44.88152" lon="5.23903">
        <ele>1299.8</ele>
        <time>2024-07-02T13:18:22Z</time>
      </trkpt>
      <trkpt lat="44.88154" lon="5.23903">
        <ele>1299.8</ele>
        <time>2024-07-02T13:18:23Z</time>
      </trkpt>
      <trkpt lat="44.88154" lon="5.23901">
        <ele>1299.7</ele>
        <time>2024-07-02T13:18:24Z</time>
      </trkpt>
      <trkpt lat="44.88153" lon="5.23899">
        <ele>1299.6</ele>
        <time>2024-07-02T13:18:25Z</time>
      </trkpt>
      <trkpt lat="44.88153" lon="5.23899">
        <ele>1299.6</ele>
        <time>2024-07-02T13:18:26Z</time>
      </trkpt>
      <trkpt lat="44.88154" lon="5.23899">
        <ele>1299.6</ele>
        <time>2024-07-02T13:18:27Z</time>
      </trkpt>
      <trkpt lat="44.88155" lon="5.239">
        <ele>1299.5</ele>
        <time>2024-07-02T13:18:28Z</time>
      </trkpt>
      <trkpt lat="44.88156" lon="5.23898">
        <ele>1299.4</ele>
        <time>2024-07-02T13:18:29Z</time>
      </trkpt>
      <trkpt lat="44.88159" lon="5.23896">
        <ele>1299.3</ele>
        <time>2024-07-02T13:18:30Z</time>
      </trkpt>
      <trkpt lat="44.8816" lon="5.23896">
        <ele>1299.3</ele>
        <time>2024-07-02T13:18:31Z</time>
      </trkpt>
      <trkpt lat="44.88161" lon="5.23894">
        <ele>1299.2</ele>
        <time>2024-07-02T13:18:32Z</time>
      </trkpt>
      <trkpt lat="44.88162" lon="5.23893">
        <ele>1299.1</ele>
        <time>2024-07-02T13:18:33Z</time>
      </trkpt>
      <trkpt lat="44.88162" lon="5.23891">
        <ele>1299.1</ele>
        <time>2024-07-02T13:18:34Z</time>
      </trkpt>
      <trkpt lat="44.88163" lon="5.2389">
        <ele>1299</ele>
        <time>2024-07-02T13:18:35Z</time>
      </trkpt>
      <trkpt lat="44.88164" lon="5.2389">
        <ele>1299</ele>
        <time>2024-07-02T13:18:36Z</time>
      </trkpt>
      <trkpt lat="44.88166" lon="5.2389">
        <ele>1298.9</ele>
        <time>2024-07-02T13:18:37Z</time>
      </trkpt>
      <trkpt lat="44.88167" lon="5.23892">
        <ele>1298.9</ele>
        <time>2024-07-02T13:18:38Z</time>
      </trkpt>
      <trkpt lat="44.88168" lon="5.23891">
        <ele>1298.8</ele>
        <time>2024-07-02T13:18:39Z</time>
      </trkpt>
      <trkpt lat="44.88169" lon="5.23891">
        <ele>1298.8</ele>
        <time>2024-07-02T13:18:40Z</time>
      </trkpt>
      <trkpt lat="44.88171" lon="5.23891">
        <ele>1298.8</ele>
        <time>2024-07-02T13:18:41Z</time>
      </trkpt>
      <trkpt lat="44.88172" lon="5.2389">
        <ele>1298.7</ele>
        <time>2024-07-02T13:18:42Z</time>
      </trkpt>
      <trkpt lat="44.88173" lon="5.23889">
        <ele>1298.7</ele>
        <time>2024-07-02T13:18:43Z</time>
      </trkpt>
      <trkpt lat="44.88174" lon="5.23889">
        <ele>1298.6</ele>
        <time>2024-07-02T13:18:44Z</time>
      </trkpt>
      <trkpt lat="44.88175" lon="5.23888">
        <ele>1298.6</ele>
        <time>2024-07-02T13:18:45Z</time>
      </trkpt>
      <trkpt lat="44.88176" lon="5.23888">
        <ele>1298.6</ele>
        <time>2024-07-02T13:18:46Z</time>
      </trkpt>
      <trkpt lat="44.88177" lon="5.23887">
        <ele>1298.6</ele>
        <time>2024-07-02T13:18:47Z</time>
      </trkpt>
      <trkpt lat="44.88178" lon="5.23887">
        <ele>1298.5</ele>
        <time>2024-07-02T13:18:48Z</time>
      </trkpt>
      <trkpt lat="44.88179" lon="5.23886">
        <ele>1298.5</ele>
        <time>2024-07-02T13:18:49Z</time>
      </trkpt>
      <trkpt lat="44.8818" lon="5.23885">
        <ele>1298.5</ele>
        <time>2024-07-02T13:18:50Z</time>
      </trkpt>
      <trkpt lat="44.88181" lon="5.23885">
        <ele>1298.4</ele>
        <time>2024-07-02T13:18:51Z</time>
      </trkpt>
      <trkpt lat="44.88181" lon="5.23883">
        <ele>1298.4</ele>
        <time>2024-07-02T13:18:52Z</time>
      </trkpt>
      <trkpt lat="44.88183" lon="5.23881">
        <ele>1298.3</ele>
        <time>2024-07-02T13:18:53Z</time>
      </trkpt>
      <trkpt lat="44.88183" lon="5.2388">
        <ele>1298.3</ele>
        <time>2024-07-02T13:18:54Z</time>
      </trkpt>
      <trkpt lat="44.88184" lon="5.23879">
        <ele>1298.3</ele>
        <time>2024-07-02T13:18:55Z</time>
      </trkpt>
      <trkpt lat="44.88185" lon="5.23877">
        <ele>1298.2</ele>
        <time>2024-07-02T13:18:56Z</time>
      </trkpt>
      <trkpt lat="44.88185" lon="5.23876">
        <ele>1298.2</ele>
        <time>2024-07-02T13:18:57Z</time>
      </trkpt>
      <trkpt lat="44.88186" lon="5.23875">
        <ele>1298.2</ele>
        <time>2024-07-02T13:18:58Z</time>
      </trkpt>
      <trkpt lat="44.88187" lon="5.23874">
        <ele>1298.1</ele>
        <time>2024-07-02T13:18:59Z</time>
      </trkpt>
      <trkpt lat="44.88187" lon="5.23872">
        <ele>1298.1</ele>
        <time>2024-07-02T13:19:00Z</time>
      </trkpt>
      <trkpt lat="44.88188" lon="5.2387">
        <ele>1298.1</ele>
        <time>2024-07-02T13:19:01Z</time>
      </trkpt>
      <trkpt lat="44.88188" lon="5.23869">
        <ele>1298</ele>
        <time>2024-07-02T13:19:02Z</time>
      </trkpt>
      <trkpt lat="44.88188" lon="5.23868">
        <ele>1298</ele>
        <time>2024-07-02T13:19:03Z</time>
      </trkpt>
      <trkpt lat="44.88187" lon="5.23866">
        <ele>1298</ele>
        <time>2024-07-02T13:19:04Z</time>
      </trkpt>
      <trkpt lat="44.88188" lon="5.23865">
        <ele>1298</ele>
        <time>2024-07-02T13:19:05Z</time>
      </trkpt>
      <trkpt lat="44.88188" lon="5.23864">
        <ele>1297.9</ele>
        <time>2024-07-02T13:19:06Z</time>
      </trkpt>
      <trkpt lat="44.88189" lon="5.23863">
        <ele>1297.9</ele>
        <time>2024-07-02T13:19:07Z</time>
      </trkpt>
      <trkpt lat="44.88191" lon="5.2386">
        <ele>1297.9</ele>
        <time>2024-07-02T13:19:08Z</time>
      </trkpt>
      <trkpt lat="44.88191" lon="5.2386">
        <ele>1297.9</ele>
        <time>2024-07-02T13:19:09Z</time>
      </trkpt>
      <trkpt lat="44.88192" lon="5.23859">
        <ele>1297.8</ele>
        <time>2024-07-02T13:19:10Z</time>
      </trkpt>
      <trkpt lat="44.88194" lon="5.23858">
        <ele>1297.8</ele>
        <time>2024-07-02T13:19:11Z</time>
      </trkpt>
      <trkpt lat="44.88195" lon="5.23857">
        <ele>1297.8</ele>
        <time>2024-07-02T13:19:12Z</time>
      </trkpt>
      <trkpt lat="44.88196" lon="5.23857">
        <ele>1297.8</ele>
        <time>2024-07-02T13:19:13Z</time>
      </trkpt>
      <trkpt lat="44.88197" lon="5.23856">
        <ele>1297.7</ele>
        <time>2024-07-02T13:19:14Z</time>
      </trkpt>
      <trkpt lat="44.88197" lon="5.23855">
        <ele>1297.7</ele>
        <time>2024-07-02T13:19:15Z</time>
      </trkpt>
      <trkpt lat="44.88198" lon="5.23854">
        <ele>1297.7</ele>
        <time>2024-07-02T13:19:16Z</time>
      </trkpt>
      <trkpt lat="44.88199" lon="5.23853">
        <ele>1297.7</ele>
        <time>2024-07-02T13:19:17Z</time>
      </trkpt>
      <trkpt lat="44.88199" lon="5.23852">
        <ele>1297.7</ele>
        <time>2024-07-02T13:19:18Z</time>
      </trkpt>
      <trkpt lat="44.882" lon="5.23851">
        <ele>1297.7</ele>
        <time>2024-07-02T13:19:19Z</time>
      </trkpt>
      <trkpt lat="44.88201" lon="5.2385">
        <ele>1297.7</ele>
        <time>2024-07-02T13:19:20Z</time>
      </trkpt>
      <trkpt lat="44.88202" lon="5.23849">
        <ele>1297.7</ele>
        <time>2024-07-02T13:19:21Z</time>
      </trkpt>
      <trkpt lat="44.88203" lon="5.23848">
        <ele>1297.7</ele>
        <time>2024-07-02T13:19:22Z</time>
      </trkpt>
      <trkpt lat="44.88205" lon="5.23847">
        <ele>1297.7</ele>
        <time>2024-07-02T13:19:23Z</time>
      </trkpt>
      <trkpt lat="44.88205" lon="5.23846">
        <ele>1297.7</ele>
        <time>2024-07-02T13:19:24Z</time>
      </trkpt>
      <trkpt lat="44.88206" lon="5.23845">
        <ele>1297.7</ele>
        <time>2024-07-02T13:19:25Z</time>
      </trkpt>
      <trkpt lat="44.88207" lon="5.23843">
        <ele>1297.6</ele>
        <time>2024-07-02T13:19:26Z</time>
      </trkpt>
      <trkpt lat="44.88208" lon="5.23842">
        <ele>1297.6</ele>
        <time>2024-07-02T13:19:27Z</time>
      </trkpt>
      <trkpt lat="44.88209" lon="5.23841">
        <ele>1297.6</ele>
        <time>2024-07-02T13:19:28Z</time>
      </trkpt>
      <trkpt lat="44.8821" lon="5.2384">
        <ele>1297.6</ele>
        <time>2024-07-02T13:19:29Z</time>
      </trkpt>
      <trkpt lat="44.88211" lon="5.23839">
        <ele>1297.6</ele>
        <time>2024-07-02T13:19:30Z</time>
      </trkpt>
      <trkpt lat="44.88212" lon="5.23838">
        <ele>1297.6</ele>
        <time>2024-07-02T13:19:31Z</time>
      </trkpt>
      <trkpt lat="44.88213" lon="5.23836">
        <ele>1297.6</ele>
        <time>2024-07-02T13:19:32Z</time>
      </trkpt>
      <trkpt lat="44.88214" lon="5.23835">
        <ele>1297.6</ele>
        <time>2024-07-02T13:19:33Z</time>
      </trkpt>
      <trkpt lat="44.88215" lon="5.23833">
        <ele>1297.6</ele>
        <time>2024-07-02T13:19:34Z</time>
      </trkpt>
      <trkpt lat="44.88216" lon="5.23832">
        <ele>1297.6</ele>
        <time>2024-07-02T13:19:35Z</time>
      </trkpt>
      <trkpt lat="44.88217" lon="5.23831">
        <ele>1297.6</ele>
        <time>2024-07-02T13:19:36Z</time>
      </trkpt>
      <trkpt lat="44.88218" lon="5.2383">
        <ele>1297.6</ele>
        <time>2024-07-02T13:19:37Z</time>
      </trkpt>
      <trkpt lat="44.88219" lon="5.23829">
        <ele>1297.6</ele>
        <time>2024-07-02T13:19:38Z</time>
      </trkpt>
      <trkpt lat="44.8822" lon="5.23829">
        <ele>1297.6</ele>
        <time>2024-07-02T13:19:39Z</time>
      </trkpt>
      <trkpt lat="44.88221" lon="5.23827">
        <ele>1297.6</ele>
        <time>2024-07-02T13:19:40Z</time>
      </trkpt>
      <trkpt lat="44.88222" lon="5.23826">
        <ele>1297.5</ele>
        <time>2024-07-02T13:19:41Z</time>
      </trkpt>
      <trkpt lat="44.88223" lon="5.23826">
        <ele>1297.5</ele>
        <time>2024-07-02T13:19:42Z</time>
      </trkpt>
      <trkpt lat="44.88225" lon="5.23824">
        <ele>1297.5</ele>
        <time>2024-07-02T13:19:43Z</time>
      </trkpt>
      <trkpt lat="44.88226" lon="5.23824">
        <ele>1297.5</ele>
        <time>2024-07-02T13:19:44Z</time>
      </trkpt>
      <trkpt lat="44.88226" lon="5.23823">
        <ele>1297.5</ele>
        <time>2024-07-02T13:19:45Z</time>
      </trkpt>
      <trkpt lat="44.88227" lon="5.23823">
        <ele>1297.5</ele>
        <time>2024-07-02T13:19:46Z</time>
      </trkpt>
      <trkpt lat="44.88228" lon="5.23822">
        <ele>1297.4</ele>
        <time>2024-07-02T13:19:47Z</time>
      </trkpt>
      <trkpt lat="44.88229" lon="5.23821">
        <ele>1297.4</ele>
        <time>2024-07-02T13:19:48Z</time>
      </trkpt>
      <trkpt lat="44.8823" lon="5.2382">
        <ele>1297.4</ele>
        <time>2024-07-02T13:19:49Z</time>
      </trkpt>
      <trkpt lat="44.88231" lon="5.23819">
        <ele>1297.4</ele>
        <time>2024-07-02T13:19:50Z</time>
      </trkpt>
      <trkpt lat="44.88231" lon="5.23818">
        <ele>1297.4</ele>
        <time>2024-07-02T13:19:51Z</time>
      </trkpt>
      <trkpt lat="44.88232" lon="5.23817">
        <ele>1297.3</ele>
        <time>2024-07-02T13:19:52Z</time>
      </trkpt>
      <trkpt lat="44.88233" lon="5.23815">
        <ele>1297.3</ele>
        <time>2024-07-02T13:19:53Z</time>
      </trkpt>
      <trkpt lat="44.88234" lon="5.23814">
        <ele>1297.3</ele>
        <time>2024-07-02T13:19:54Z</time>
      </trkpt>
      <trkpt lat="44.88235" lon="5.23813">
        <ele>1297.3</ele>
        <time>2024-07-02T13:19:55Z</time>
      </trkpt>
      <trkpt lat="44.88236" lon="5.23812">
        <ele>1297.3</ele>
        <time>2024-07-02T13:19:56Z</time>
      </trkpt>
      <trkpt lat="44.88237" lon="5.23811">
        <ele>1297.3</ele>
        <time>2024-07-02T13:19:57Z</time>
      </trkpt>
      <trkpt lat="44.88237" lon="5.2381">
        <ele>1297.2</ele>
        <time>2024-07-02T13:19:58Z</time>
      </trkpt>
      <trkpt lat="44.88238" lon="5.23809">
        <ele>1297.2</ele>
        <time>2024-07-02T13:19:59Z</time>
      </trkpt>
      <trkpt lat="44.8824" lon="5.23808">
        <ele>1297.2</ele>
        <time>2024-07-02T13:20:00Z</time>
      </trkpt>
      <trkpt lat="44.88241" lon="5.23807">
        <ele>1297.2</ele>
        <time>2024-07-02T13:20:01Z</time>
      </trkpt>
      <trkpt lat="44.88241" lon="5.23806">
        <ele>1297.2</ele>
        <time>2024-07-02T13:20:02Z</time>
      </trkpt>
      <trkpt lat="44.88242" lon="5.23805">
        <ele>1297.2</ele>
        <time>2024-07-02T13:20:03Z</time>
      </trkpt>
      <trkpt lat="44.88243" lon="5.23805">
        <ele>1297.2</ele>
        <time>2024-07-02T13:20:04Z</time>
      </trkpt>
      <trkpt lat="44.88244" lon="5.23804">
        <ele>1297.2</ele>
        <time>2024-07-02T13:20:05Z</time>
      </trkpt>
      <trkpt lat="44.88245" lon="5.23803">
        <ele>1297.2</ele>
        <time>2024-07-02T13:20:06Z</time>
      </trkpt>
      <trkpt lat="44.88246" lon="5.23802">
        <ele>1297.2</ele>
        <time>2024-07-02T13:20:07Z</time>
      </trkpt>
      <trkpt lat="44.88246" lon="5.23801">
        <ele>1297.2</ele>
        <time>2024-07-02T13:20:08Z</time>
      </trkpt>
      <trkpt lat="44.88246" lon="5.238">
        <ele>1297.2</ele>
        <time>2024-07-02T13:20:09Z</time>
      </trkpt>
      <trkpt lat="44.88245" lon="5.23799">
        <ele>1297.2</ele>
        <time>2024-07-02T13:20:10Z</time>
      </trkpt>
      <trkpt lat="44.88245" lon="5.23798">
        <ele>1297.2</ele>
        <time>2024-07-02T13:20:11Z</time>
      </trkpt>
      <trkpt lat="44.88246" lon="5.23798">
        <ele>1297.2</ele>
        <time>2024-07-02T13:20:12Z</time>
      </trkpt>
      <trkpt lat="44.88248" lon="5.23798">
        <ele>1297.2</ele>
        <time>2024-07-02T13:20:13Z</time>
      </trkpt>
      <trkpt lat="44.88249" lon="5.23799">
        <ele>1297.2</ele>
        <time>2024-07-02T13:20:14Z</time>
      </trkpt>
      <trkpt lat="44.8825" lon="5.23801">
        <ele>1297.2</ele>
        <time>2024-07-02T13:20:15Z</time>
      </trkpt>
      <trkpt lat="44.88251" lon="5.23802">
        <ele>1297.2</ele>
        <time>2024-07-02T13:20:16Z</time>
      </trkpt>
      <trkpt lat="44.88251" lon="5.23803">
        <ele>1297.2</ele>
        <time>2024-07-02T13:20:17Z</time>
      </trkpt>
      <trkpt lat="44.88251" lon="5.23804">
        <ele>1297.2</ele>
        <time>2024-07-02T13:20:18Z</time>
      </trkpt>
      <trkpt lat="44.88253" lon="5.23803">
        <ele>1297.2</ele>
        <time>2024-07-02T13:20:19Z</time>
      </trkpt>
      <trkpt lat="44.88254" lon="5.23804">
        <ele>1297.2</ele>
        <time>2024-07-02T13:20:20Z</time>
      </trkpt>
      <trkpt lat="44.88254" lon="5.23804">
        <ele>1297.2</ele>
        <time>2024-07-02T13:20:21Z</time>
      </trkpt>
      <trkpt lat="44.88255" lon="5.23805">
        <ele>1297.2</ele>
        <time>2024-07-02T13:20:22Z</time>
      </trkpt>
      <trkpt lat="44.88255" lon="5.23807">
        <ele>1297.2</ele>
        <time>2024-07-02T13:20:23Z</time>
      </trkpt>
      <trkpt lat="44.88256" lon="5.23808">
        <ele>1297.2</ele>
        <time>2024-07-02T13:20:24Z</time>
      </trkpt>
      <trkpt lat="44.88256" lon="5.2381">
        <ele>1297.2</ele>
        <time>2024-07-02T13:20:25Z</time>
      </trkpt>
      <trkpt lat="44.88256" lon="5.23812">
        <ele>1297.2</ele>
        <time>2024-07-02T13:20:26Z</time>
      </trkpt>
      <trkpt lat="44.8826" lon="5.23806">
        <ele>1297.2</ele>
        <time>2024-07-02T13:20:27Z</time>
      </trkpt>
      <trkpt lat="44.88263" lon="5.23799">
        <ele>1297.2</ele>
        <time>2024-07-02T13:20:28Z</time>
      </trkpt>
      <trkpt lat="44.88266" lon="5.23792">
        <ele>1297.2</ele>
        <time>2024-07-02T13:20:29Z</time>
      </trkpt>
      <trkpt lat="44.88267" lon="5.23791">
        <ele>1297.2</ele>
        <time>2024-07-02T13:20:30Z</time>
      </trkpt>
      <trkpt lat="44.88269" lon="5.23789">
        <ele>1297.2</ele>
        <time>2024-07-02T13:20:31Z</time>
      </trkpt>
      <trkpt lat="44.88271" lon="5.23788">
        <ele>1297.2</ele>
        <time>2024-07-02T13:20:32Z</time>
      </trkpt>
      <trkpt lat="44.88272" lon="5.23787">
        <ele>1297.2</ele>
        <time>2024-07-02T13:20:33Z</time>
      </trkpt>
      <trkpt lat="44.88273" lon="5.23787">
        <ele>1297.2</ele>
        <time>2024-07-02T13:20:34Z</time>
      </trkpt>
      <trkpt lat="44.88274" lon="5.23786">
        <ele>1297.2</ele>
        <time>2024-07-02T13:20:35Z</time>
      </trkpt>
      <trkpt lat="44.88275" lon="5.23786">
        <ele>1297.2</ele>
        <time>2024-07-02T13:20:36Z</time>
      </trkpt>
      <trkpt lat="44.88276" lon="5.23785">
        <ele>1297.2</ele>
        <time>2024-07-02T13:20:37Z</time>
      </trkpt>
      <trkpt lat="44.88277" lon="5.23785">
        <ele>1297.2</ele>
        <time>2024-07-02T13:20:38Z</time>
      </trkpt>
      <trkpt lat="44.88278" lon="5.23784">
        <ele>1297.2</ele>
        <time>2024-07-02T13:20:39Z</time>
      </trkpt>
      <trkpt lat="44.8828" lon="5.23782">
        <ele>1297.2</ele>
        <time>2024-07-02T13:20:40Z</time>
      </trkpt>
      <trkpt lat="44.8828" lon="5.23781">
        <ele>1297.2</ele>
        <time>2024-07-02T13:20:41Z</time>
      </trkpt>
      <trkpt lat="44.88281" lon="5.2378">
        <ele>1297.2</ele>
        <time>2024-07-02T13:20:42Z</time>
      </trkpt>
      <trkpt lat="44.88283" lon="5.23779">
        <ele>1297.2</ele>
        <time>2024-07-02T13:20:43Z</time>
      </trkpt>
      <trkpt lat="44.88284" lon="5.23778">
        <ele>1297.2</ele>
        <time>2024-07-02T13:20:44Z</time>
      </trkpt>
      <trkpt lat="44.88284" lon="5.23777">
        <ele>1297.2</ele>
        <time>2024-07-02T13:20:45Z</time>
      </trkpt>
      <trkpt lat="44.88286" lon="5.23776">
        <ele>1297.2</ele>
        <time>2024-07-02T13:20:46Z</time>
      </trkpt>
      <trkpt lat="44.88287" lon="5.23775">
        <ele>1297.2</ele>
        <time>2024-07-02T13:20:47Z</time>
      </trkpt>
      <trkpt lat="44.88288" lon="5.23775">
        <ele>1297.2</ele>
        <time>2024-07-02T13:20:48Z</time>
      </trkpt>
      <trkpt lat="44.88288" lon="5.23774">
        <ele>1297.2</ele>
        <time>2024-07-02T13:20:49Z</time>
      </trkpt>
      <trkpt lat="44.88289" lon="5.23772">
        <ele>1297.2</ele>
        <time>2024-07-02T13:20:50Z</time>
      </trkpt>
      <trkpt lat="44.8829" lon="5.23772">
        <ele>1297.2</ele>
        <time>2024-07-02T13:20:51Z</time>
      </trkpt>
      <trkpt lat="44.88291" lon="5.2377">
        <ele>1297.2</ele>
        <time>2024-07-02T13:20:52Z</time>
      </trkpt>
      <trkpt lat="44.88293" lon="5.23769">
        <ele>1297.2</ele>
        <time>2024-07-02T13:20:53Z</time>
      </trkpt>
      <trkpt lat="44.88293" lon="5.23769">
        <ele>1297.2</ele>
        <time>2024-07-02T13:20:54Z</time>
      </trkpt>
      <trkpt lat="44.88294" lon="5.23768">
        <ele>1297.2</ele>
        <time>2024-07-02T13:20:55Z</time>
      </trkpt>
      <trkpt lat="44.88295" lon="5.23767">
        <ele>1297.2</ele>
        <time>2024-07-02T13:20:56Z</time>
      </trkpt>
      <trkpt lat="44.88296" lon="5.23766">
        <ele>1297.2</ele>
        <time>2024-07-02T13:20:57Z</time>
      </trkpt>
      <trkpt lat="44.88297" lon="5.23765">
        <ele>1297.2</ele>
        <time>2024-07-02T13:20:58Z</time>
      </trkpt>
      <trkpt lat="44.88297" lon="5.23764">
        <ele>1297.2</ele>
        <time>2024-07-02T13:20:59Z</time>
      </trkpt>
      <trkpt lat="44.88298" lon="5.23763">
        <ele>1297.2</ele>
        <time>2024-07-02T13:21:00Z</time>
      </trkpt>
      <trkpt lat="44.88299" lon="5.23762">
        <ele>1297.2</ele>
        <time>2024-07-02T13:21:01Z</time>
      </trkpt>
      <trkpt lat="44.883" lon="5.23761">
        <ele>1297.2</ele>
        <time>2024-07-02T13:21:02Z</time>
      </trkpt>
      <trkpt lat="44.88301" lon="5.23759">
        <ele>1297.2</ele>
        <time>2024-07-02T13:21:03Z</time>
      </trkpt>
      <trkpt lat="44.88302" lon="5.23759">
        <ele>1297.2</ele>
        <time>2024-07-02T13:21:04Z</time>
      </trkpt>
      <trkpt lat="44.88303" lon="5.23758">
        <ele>1297.2</ele>
        <time>2024-07-02T13:21:05Z</time>
      </trkpt>
      <trkpt lat="44.88304" lon="5.23756">
        <ele>1297.3</ele>
        <time>2024-07-02T13:21:06Z</time>
      </trkpt>
      <trkpt lat="44.88305" lon="5.23755">
        <ele>1297.3</ele>
        <time>2024-07-02T13:21:07Z</time>
      </trkpt>
      <trkpt lat="44.88305" lon="5.23754">
        <ele>1297.3</ele>
        <time>2024-07-02T13:21:08Z</time>
      </trkpt>
      <trkpt lat="44.88306" lon="5.23753">
        <ele>1297.3</ele>
        <time>2024-07-02T13:21:09Z</time>
      </trkpt>
      <trkpt lat="44.88307" lon="5.23753">
        <ele>1297.3</ele>
        <time>2024-07-02T13:21:10Z</time>
      </trkpt>
      <trkpt lat="44.88308" lon="5.23751">
        <ele>1297.3</ele>
        <time>2024-07-02T13:21:11Z</time>
      </trkpt>
      <trkpt lat="44.88309" lon="5.23751">
        <ele>1297.3</ele>
        <time>2024-07-02T13:21:12Z</time>
      </trkpt>
      <trkpt lat="44.8831" lon="5.23749">
        <ele>1297.4</ele>
        <time>2024-07-02T13:21:13Z</time>
      </trkpt>
      <trkpt lat="44.8831" lon="5.23748">
        <ele>1297.4</ele>
        <time>2024-07-02T13:21:14Z</time>
      </trkpt>
      <trkpt lat="44.88311" lon="5.23747">
        <ele>1297.4</ele>
        <time>2024-07-02T13:21:15Z</time>
      </trkpt>
      <trkpt lat="44.8831" lon="5.23746">
        <ele>1297.4</ele>
        <time>2024-07-02T13:21:16Z</time>
      </trkpt>
      <trkpt lat="44.8831" lon="5.23744">
        <ele>1297.4</ele>
        <time>2024-07-02T13:21:17Z</time>
      </trkpt>
      <trkpt lat="44.8831" lon="5.23743">
        <ele>1297.4</ele>
        <time>2024-07-02T13:21:18Z</time>
      </trkpt>
      <trkpt lat="44.8831" lon="5.23742">
        <ele>1297.4</ele>
        <time>2024-07-02T13:21:19Z</time>
      </trkpt>
      <trkpt lat="44.8831" lon="5.23742">
        <ele>1297.4</ele>
        <time>2024-07-02T13:21:20Z</time>
      </trkpt>
      <trkpt lat="44.8831" lon="5.23742">
        <ele>1297.4</ele>
        <time>2024-07-02T13:21:21Z</time>
      </trkpt>
      <trkpt lat="44.8831" lon="5.23742">
        <ele>1297.4</ele>
        <time>2024-07-02T13:21:22Z</time>
      </trkpt>
      <trkpt lat="44.8831" lon="5.23742">
        <ele>1297.4</ele>
        <time>2024-07-02T13:21:23Z</time>
      </trkpt>
      <trkpt lat="44.8831" lon="5.23743">
        <ele>1297.4</ele>
        <time>2024-07-02T13:21:24Z</time>
      </trkpt>
      <trkpt lat="44.8831" lon="5.23743">
        <ele>1297.4</ele>
        <time>2024-07-02T13:21:25Z</time>
      </trkpt>
      <trkpt lat="44.88311" lon="5.23743">
        <ele>1297.4</ele>
        <time>2024-07-02T13:21:26Z</time>
      </trkpt>
      <trkpt lat="44.88311" lon="5.23743">
        <ele>1297.4</ele>
        <time>2024-07-02T13:21:27Z</time>
      </trkpt>
      <trkpt lat="44.88311" lon="5.23743">
        <ele>1297.4</ele>
        <time>2024-07-02T13:21:28Z</time>
      </trkpt>
      <trkpt lat="44.88311" lon="5.23743">
        <ele>1297.4</ele>
        <time>2024-07-02T13:21:29Z</time>
      </trkpt>
      <trkpt lat="44.88311" lon="5.23743">
        <ele>1297.4</ele>
        <time>2024-07-02T13:21:30Z</time>
      </trkpt>
      <trkpt lat="44.88311" lon="5.23743">
        <ele>1297.4</ele>
        <time>2024-07-02T13:21:31Z</time>
      </trkpt>
      <trkpt lat="44.88311" lon="5.23743">
        <ele>1297.4</ele>
        <time>2024-07-02T13:21:32Z</time>
      </trkpt>
      <trkpt lat="44.88311" lon="5.23743">
        <ele>1297.4</ele>
        <time>2024-07-02T13:21:33Z</time>
      </trkpt>
      <trkpt lat="44.88311" lon="5.23743">
        <ele>1297.4</ele>
        <time>2024-07-02T13:21:34Z</time>
      </trkpt>
      <trkpt lat="44.88311" lon="5.23743">
        <ele>1297.4</ele>
        <time>2024-07-02T13:21:35Z</time>
      </trkpt>
      <trkpt lat="44.88311" lon="5.23743">
        <ele>1297.4</ele>
        <time>2024-07-02T13:21:36Z</time>
      </trkpt>
      <trkpt lat="44.88311" lon="5.23743">
        <ele>1297.4</ele>
        <time>2024-07-02T13:21:37Z</time>
      </trkpt>
      <trkpt lat="44.88311" lon="5.23743">
        <ele>1297.4</ele>
        <time>2024-07-02T13:21:38Z</time>
      </trkpt>
      <trkpt lat="44.88311" lon="5.23743">
        <ele>1297.4</ele>
        <time>2024-07-02T13:21:39Z</time>
      </trkpt>
      <trkpt lat="44.88311" lon="5.23743">
        <ele>1297.4</ele>
        <time>2024-07-02T13:21:40Z</time>
      </trkpt>
      <trkpt lat="44.88311" lon="5.23743">
        <ele>1297.4</ele>
        <time>2024-07-02T13:21:41Z</time>
      </trkpt>
      <trkpt lat="44.88311" lon="5.23743">
        <ele>1297.5</ele>
        <time>2024-07-02T13:21:42Z</time>
      </trkpt>
      <trkpt lat="44.88311" lon="5.23743">
        <ele>1297.5</ele>
        <time>2024-07-02T13:21:43Z</time>
      </trkpt>
      <trkpt lat="44.88311" lon="5.23743">
        <ele>1297.5</ele>
        <time>2024-07-02T13:21:44Z</time>
      </trkpt>
      <trkpt lat="44.88311" lon="5.23743">
        <ele>1297.5</ele>
        <time>2024-07-02T13:21:45Z</time>
      </trkpt>
      <trkpt lat="44.88311" lon="5.23743">
        <ele>1297.5</ele>
        <time>2024-07-02T13:21:46Z</time>
      </trkpt>
      <trkpt lat="44.88311" lon="5.23743">
        <ele>1297.5</ele>
        <time>2024-07-02T13:21:47Z</time>
      </trkpt>
      <trkpt lat="44.88311" lon="5.23743">
        <ele>1297.5</ele>
        <time>2024-07-02T13:21:48Z</time>
      </trkpt>
      <trkpt lat="44.88311" lon="5.23743">
        <ele>1297.5</ele>
        <time>2024-07-02T13:21:49Z</time>
      </trkpt>
      <trkpt lat="44.88311" lon="5.23743">
        <ele>1297.5</ele>
        <time>2024-07-02T13:21:50Z</time>
      </trkpt>
      <trkpt lat="44.88311" lon="5.23743">
        <ele>1297.5</ele>
        <time>2024-07-02T13:21:51Z</time>
      </trkpt>
      <trkpt lat="44.88311" lon="5.23743">
        <ele>1297.5</ele>
        <time>2024-07-02T13:21:52Z</time>
      </trkpt>
      <trkpt lat="44.88311" lon="5.23743">
        <ele>1297.5</ele>
        <time>2024-07-02T13:21:53Z</time>
      </trkpt>
      <trkpt lat="44.88311" lon="5.23743">
        <ele>1297.5</ele>
        <time>2024-07-02T13:21:55Z</time>
      </trkpt>
      <trkpt lat="44.88311" lon="5.23743">
        <ele>1297.5</ele>
        <time>2024-07-02T13:21:56Z</time>
      </trkpt>
      <trkpt lat="44.88311" lon="5.23743">
        <ele>1297.5</ele>
        <time>2024-07-02T13:21:57Z</time>
      </trkpt>
      <trkpt lat="44.88311" lon="5.23743">
        <ele>1297.5</ele>
        <time>2024-07-02T13:21:58Z</time>
      </trkpt>
      <trkpt lat="44.88311" lon="5.23743">
        <ele>1297.5</ele>
        <time>2024-07-02T13:21:59Z</time>
      </trkpt>
      <trkpt lat="44.88311" lon="5.23743">
        <ele>1297.5</ele>
        <time>2024-07-02T13:22:00Z</time>
      </trkpt>
      <trkpt lat="44.88311" lon="5.23743">
        <ele>1297.5</ele>
        <time>2024-07-02T13:22:01Z</time>
      </trkpt>
      <trkpt lat="44.88311" lon="5.23743">
        <ele>1297.5</ele>
        <time>2024-07-02T13:22:02Z</time>
      </trkpt>
      <trkpt lat="44.88311" lon="5.23744">
        <ele>1297.5</ele>
        <time>2024-07-02T13:22:03Z</time>
      </trkpt>
      <trkpt lat="44.88311" lon="5.23744">
        <ele>1297.5</ele>
        <time>2024-07-02T13:22:04Z</time>
      </trkpt>
      <trkpt lat="44.88311" lon="5.23744">
        <ele>1297.5</ele>
        <time>2024-07-02T13:22:05Z</time>
      </trkpt>
      <trkpt lat="44.88311" lon="5.23744">
        <ele>1297.5</ele>
        <time>2024-07-02T13:22:06Z</time>
      </trkpt>
      <trkpt lat="44.88311" lon="5.23744">
        <ele>1297.5</ele>
        <time>2024-07-02T13:22:07Z</time>
      </trkpt>
      <trkpt lat="44.88311" lon="5.23744">
        <ele>1297.5</ele>
        <time>2024-07-02T13:22:08Z</time>
      </trkpt>
      <trkpt lat="44.88311" lon="5.23744">
        <ele>1297.5</ele>
        <time>2024-07-02T13:22:09Z</time>
      </trkpt>
      <trkpt lat="44.88311" lon="5.23744">
        <ele>1297.5</ele>
        <time>2024-07-02T13:22:10Z</time>
      </trkpt>
      <trkpt lat="44.88311" lon="5.23743">
        <ele>1297.5</ele>
        <time>2024-07-02T13:22:11Z</time>
      </trkpt>
      <trkpt lat="44.88311" lon="5.23743">
        <ele>1297.5</ele>
        <time>2024-07-02T13:22:12Z</time>
      </trkpt>
      <trkpt lat="44.88312" lon="5.23744">
        <ele>1297.5</ele>
        <time>2024-07-02T13:22:13Z</time>
      </trkpt>
      <trkpt lat="44.88312" lon="5.23745">
        <ele>1297.5</ele>
        <time>2024-07-02T13:22:14Z</time>
      </trkpt>
      <trkpt lat="44.88313" lon="5.23745">
        <ele>1297.5</ele>
        <time>2024-07-02T13:22:15Z</time>
      </trkpt>
      <trkpt lat="44.88314" lon="5.23744">
        <ele>1297.5</ele>
        <time>2024-07-02T13:22:16Z</time>
      </trkpt>
      <trkpt lat="44.88313" lon="5.23743">
        <ele>1297.5</ele>
        <time>2024-07-02T13:22:17Z</time>
      </trkpt>
      <trkpt lat="44.88314" lon="5.23743">
        <ele>1297.5</ele>
        <time>2024-07-02T13:22:18Z</time>
      </trkpt>
      <trkpt lat="44.88315" lon="5.23743">
        <ele>1297.5</ele>
        <time>2024-07-02T13:22:19Z</time>
      </trkpt>
      <trkpt lat="44.88316" lon="5.23742">
        <ele>1297.5</ele>
        <time>2024-07-02T13:22:20Z</time>
      </trkpt>
      <trkpt lat="44.88317" lon="5.23742">
        <ele>1297.6</ele>
        <time>2024-07-02T13:22:21Z</time>
      </trkpt>
      <trkpt lat="44.88319" lon="5.23742">
        <ele>1297.6</ele>
        <time>2024-07-02T13:22:22Z</time>
      </trkpt>
      <trkpt lat="44.8832" lon="5.23743">
        <ele>1297.6</ele>
        <time>2024-07-02T13:22:23Z</time>
      </trkpt>
      <trkpt lat="44.88321" lon="5.23743">
        <ele>1297.6</ele>
        <time>2024-07-02T13:22:24Z</time>
      </trkpt>
      <trkpt lat="44.88322" lon="5.23744">
        <ele>1297.6</ele>
        <time>2024-07-02T13:22:25Z</time>
      </trkpt>
      <trkpt lat="44.88322" lon="5.23744">
        <ele>1297.6</ele>
        <time>2024-07-02T13:22:26Z</time>
      </trkpt>
      <trkpt lat="44.88322" lon="5.23744">
        <ele>1297.6</ele>
        <time>2024-07-02T13:22:27Z</time>
      </trkpt>
      <trkpt lat="44.88323" lon="5.23745">
        <ele>1297.6</ele>
        <time>2024-07-02T13:22:28Z</time>
      </trkpt>
      <trkpt lat="44.88324" lon="5.23746">
        <ele>1297.6</ele>
        <time>2024-07-02T13:22:29Z</time>
      </trkpt>
      <trkpt lat="44.88324" lon="5.23747">
        <ele>1297.6</ele>
        <time>2024-07-02T13:22:30Z</time>
      </trkpt>
      <trkpt lat="44.88325" lon="5.2375">
        <ele>1297.6</ele>
        <time>2024-07-02T13:22:31Z</time>
      </trkpt>
      <trkpt lat="44.88325" lon="5.23751">
        <ele>1297.6</ele>
        <time>2024-07-02T13:22:32Z</time>
      </trkpt>
      <trkpt lat="44.88325" lon="5.23752">
        <ele>1297.6</ele>
        <time>2024-07-02T13:22:33Z</time>
      </trkpt>
      <trkpt lat="44.88332" lon="5.23729">
        <ele>1297.7</ele>
        <time>2024-07-02T13:22:34Z</time>
      </trkpt>
      <trkpt lat="44.88333" lon="5.23729">
        <ele>1297.7</ele>
        <time>2024-07-02T13:22:35Z</time>
      </trkpt>
      <trkpt lat="44.88334" lon="5.23728">
        <ele>1297.7</ele>
        <time>2024-07-02T13:22:36Z</time>
      </trkpt>
      <trkpt lat="44.88336" lon="5.23727">
        <ele>1297.7</ele>
        <time>2024-07-02T13:22:37Z</time>
      </trkpt>
      <trkpt lat="44.88337" lon="5.23726">
        <ele>1297.8</ele>
        <time>2024-07-02T13:22:38Z</time>
      </trkpt>
      <trkpt lat="44.88338" lon="5.23725">
        <ele>1297.8</ele>
        <time>2024-07-02T13:22:39Z</time>
      </trkpt>
      <trkpt lat="44.88339" lon="5.23725">
        <ele>1297.8</ele>
        <time>2024-07-02T13:22:40Z</time>
      </trkpt>
      <trkpt lat="44.88341" lon="5.23724">
        <ele>1297.9</ele>
        <time>2024-07-02T13:22:41Z</time>
      </trkpt>
      <trkpt lat="44.88342" lon="5.23724">
        <ele>1297.9</ele>
        <time>2024-07-02T13:22:42Z</time>
      </trkpt>
      <trkpt lat="44.88342" lon="5.23723">
        <ele>1297.9</ele>
        <time>2024-07-02T13:22:43Z</time>
      </trkpt>
      <trkpt lat="44.88344" lon="5.23723">
        <ele>1298</ele>
        <time>2024-07-02T13:22:44Z</time>
      </trkpt>
      <trkpt lat="44.88344" lon="5.23722">
        <ele>1298</ele>
        <time>2024-07-02T13:22:45Z</time>
      </trkpt>
      <trkpt lat="44.88346" lon="5.23722">
        <ele>1298</ele>
        <time>2024-07-02T13:22:46Z</time>
      </trkpt>
      <trkpt lat="44.88348" lon="5.2372">
        <ele>1298.1</ele>
        <time>2024-07-02T13:22:47Z</time>
      </trkpt>
      <trkpt lat="44.88349" lon="5.2372">
        <ele>1298.1</ele>
        <time>2024-07-02T13:22:48Z</time>
      </trkpt>
      <trkpt lat="44.8835" lon="5.2372">
        <ele>1298.2</ele>
        <time>2024-07-02T13:22:49Z</time>
      </trkpt>
      <trkpt lat="44.8835" lon="5.23719">
        <ele>1298.2</ele>
        <time>2024-07-02T13:22:50Z</time>
      </trkpt>
      <trkpt lat="44.88351" lon="5.23719">
        <ele>1298.2</ele>
        <time>2024-07-02T13:22:51Z</time>
      </trkpt>
      <trkpt lat="44.88353" lon="5.23719">
        <ele>1298.3</ele>
        <time>2024-07-02T13:22:52Z</time>
      </trkpt>
      <trkpt lat="44.88354" lon="5.23719">
        <ele>1298.3</ele>
        <time>2024-07-02T13:22:53Z</time>
      </trkpt>
      <trkpt lat="44.88355" lon="5.23719">
        <ele>1298.4</ele>
        <time>2024-07-02T13:22:54Z</time>
      </trkpt>
      <trkpt lat="44.88356" lon="5.23719">
        <ele>1298.4</ele>
        <time>2024-07-02T13:22:55Z</time>
      </trkpt>
      <trkpt lat="44.88358" lon="5.23719">
        <ele>1298.5</ele>
        <time>2024-07-02T13:22:56Z</time>
      </trkpt>
      <trkpt lat="44.88359" lon="5.23718">
        <ele>1298.5</ele>
        <time>2024-07-02T13:22:57Z</time>
      </trkpt>
      <trkpt lat="44.88359" lon="5.23718">
        <ele>1298.5</ele>
        <time>2024-07-02T13:22:58Z</time>
      </trkpt>
      <trkpt lat="44.88361" lon="5.23718">
        <ele>1298.6</ele>
        <time>2024-07-02T13:22:59Z</time>
      </trkpt>
      <trkpt lat="44.88362" lon="5.23718">
        <ele>1298.6</ele>
        <time>2024-07-02T13:23:00Z</time>
      </trkpt>
      <trkpt lat="44.88363" lon="5.23718">
        <ele>1298.6</ele>
        <time>2024-07-02T13:23:01Z</time>
      </trkpt>
      <trkpt lat="44.88365" lon="5.23717">
        <ele>1298.7</ele>
        <time>2024-07-02T13:23:02Z</time>
      </trkpt>
      <trkpt lat="44.88366" lon="5.23717">
        <ele>1298.7</ele>
        <time>2024-07-02T13:23:03Z</time>
      </trkpt>
      <trkpt lat="44.88367" lon="5.23717">
        <ele>1298.7</ele>
        <time>2024-07-02T13:23:04Z</time>
      </trkpt>
      <trkpt lat="44.88368" lon="5.23717">
        <ele>1298.8</ele>
        <time>2024-07-02T13:23:05Z</time>
      </trkpt>
      <trkpt lat="44.88369" lon="5.23718">
        <ele>1298.8</ele>
        <time>2024-07-02T13:23:06Z</time>
      </trkpt>
      <trkpt lat="44.8837" lon="5.23717">
        <ele>1298.8</ele>
        <time>2024-07-02T13:23:07Z</time>
      </trkpt>
      <trkpt lat="44.88371" lon="5.23717">
        <ele>1298.8</ele>
        <time>2024-07-02T13:23:08Z</time>
      </trkpt>
      <trkpt lat="44.88372" lon="5.23718">
        <ele>1298.8</ele>
        <time>2024-07-02T13:23:09Z</time>
      </trkpt>
      <trkpt lat="44.88372" lon="5.23718">
        <ele>1298.8</ele>
        <time>2024-07-02T13:23:10Z</time>
      </trkpt>
      <trkpt lat="44.88373" lon="5.23718">
        <ele>1298.8</ele>
        <time>2024-07-02T13:23:11Z</time>
      </trkpt>
      <trkpt lat="44.88374" lon="5.23717">
        <ele>1298.8</ele>
        <time>2024-07-02T13:23:12Z</time>
      </trkpt>
      <trkpt lat="44.88375" lon="5.23717">
        <ele>1298.8</ele>
        <time>2024-07-02T13:23:13Z</time>
      </trkpt>
      <trkpt lat="44.88376" lon="5.23716">
        <ele>1298.8</ele>
        <time>2024-07-02T13:23:14Z</time>
      </trkpt>
      <trkpt lat="44.88377" lon="5.23716">
        <ele>1298.8</ele>
        <time>2024-07-02T13:23:15Z</time>
      </trkpt>
      <trkpt lat="44.88378" lon="5.23715">
        <ele>1298.8</ele>
        <time>2024-07-02T13:23:16Z</time>
      </trkpt>
      <trkpt lat="44.88379" lon="5.23715">
        <ele>1298.8</ele>
        <time>2024-07-02T13:23:17Z</time>
      </trkpt>
      <trkpt lat="44.8838" lon="5.23714">
        <ele>1298.8</ele>
        <time>2024-07-02T13:23:18Z</time>
      </trkpt>
      <trkpt lat="44.88381" lon="5.23714">
        <ele>1298.8</ele>
        <time>2024-07-02T13:23:19Z</time>
      </trkpt>
      <trkpt lat="44.88382" lon="5.23714">
        <ele>1298.8</ele>
        <time>2024-07-02T13:23:20Z</time>
      </trkpt>
      <trkpt lat="44.88383" lon="5.23713">
        <ele>1298.8</ele>
        <time>2024-07-02T13:23:21Z</time>
      </trkpt>
      <trkpt lat="44.88384" lon="5.23713">
        <ele>1298.8</ele>
        <time>2024-07-02T13:23:22Z</time>
      </trkpt>
      <trkpt lat="44.88385" lon="5.23713">
        <ele>1298.7</ele>
        <time>2024-07-02T13:23:23Z</time>
      </trkpt>
      <trkpt lat="44.88387" lon="5.23713">
        <ele>1298.7</ele>
        <time>2024-07-02T13:23:24Z</time>
      </trkpt>
      <trkpt lat="44.88388" lon="5.23713">
        <ele>1298.7</ele>
        <time>2024-07-02T13:23:25Z</time>
      </trkpt>
      <trkpt lat="44.88389" lon="5.23713">
        <ele>1298.7</ele>
        <time>2024-07-02T13:23:26Z</time>
      </trkpt>
      <trkpt lat="44.8839" lon="5.23713">
        <ele>1298.6</ele>
        <time>2024-07-02T13:23:27Z</time>
      </trkpt>
      <trkpt lat="44.88391" lon="5.23713">
        <ele>1298.6</ele>
        <time>2024-07-02T13:23:28Z</time>
      </trkpt>
      <trkpt lat="44.88393" lon="5.23713">
        <ele>1298.5</ele>
        <time>2024-07-02T13:23:29Z</time>
      </trkpt>
      <trkpt lat="44.88394" lon="5.23713">
        <ele>1298.5</ele>
        <time>2024-07-02T13:23:30Z</time>
      </trkpt>
      <trkpt lat="44.88395" lon="5.23713">
        <ele>1298.5</ele>
        <time>2024-07-02T13:23:31Z</time>
      </trkpt>
      <trkpt lat="44.88396" lon="5.23713">
        <ele>1298.4</ele>
        <time>2024-07-02T13:23:32Z</time>
      </trkpt>
      <trkpt lat="44.88397" lon="5.23713">
        <ele>1298.4</ele>
        <time>2024-07-02T13:23:33Z</time>
      </trkpt>
      <trkpt lat="44.88399" lon="5.23713">
        <ele>1298.3</ele>
        <time>2024-07-02T13:23:34Z</time>
      </trkpt>
      <trkpt lat="44.88399" lon="5.23713">
        <ele>1298.3</ele>
        <time>2024-07-02T13:23:35Z</time>
      </trkpt>
      <trkpt lat="44.884" lon="5.23714">
        <ele>1298.3</ele>
        <time>2024-07-02T13:23:36Z</time>
      </trkpt>
      <trkpt lat="44.88401" lon="5.23714">
        <ele>1298.2</ele>
        <time>2024-07-02T13:23:37Z</time>
      </trkpt>
      <trkpt lat="44.88403" lon="5.23714">
        <ele>1298.2</ele>
        <time>2024-07-02T13:23:38Z</time>
      </trkpt>
      <trkpt lat="44.88404" lon="5.23714">
        <ele>1298.2</ele>
        <time>2024-07-02T13:23:39Z</time>
      </trkpt>
      <trkpt lat="44.88406" lon="5.23714">
        <ele>1298.1</ele>
        <time>2024-07-02T13:23:40Z</time>
      </trkpt>
      <trkpt lat="44.88407" lon="5.23714">
        <ele>1298.1</ele>
        <time>2024-07-02T13:23:41Z</time>
      </trkpt>
      <trkpt lat="44.88407" lon="5.23714">
        <ele>1298</ele>
        <time>2024-07-02T13:23:42Z</time>
      </trkpt>
      <trkpt lat="44.88409" lon="5.23714">
        <ele>1298</ele>
        <time>2024-07-02T13:23:43Z</time>
      </trkpt>
      <trkpt lat="44.88411" lon="5.23714">
        <ele>1298</ele>
        <time>2024-07-02T13:23:44Z</time>
      </trkpt>
      <trkpt lat="44.88411" lon="5.23714">
        <ele>1297.9</ele>
        <time>2024-07-02T13:23:45Z</time>
      </trkpt>
      <trkpt lat="44.88412" lon="5.23714">
        <ele>1297.9</ele>
        <time>2024-07-02T13:23:46Z</time>
      </trkpt>
      <trkpt lat="44.88414" lon="5.23714">
        <ele>1297.9</ele>
        <time>2024-07-02T13:23:47Z</time>
      </trkpt>
      <trkpt lat="44.88415" lon="5.23714">
        <ele>1297.8</ele>
        <time>2024-07-02T13:23:48Z</time>
      </trkpt>
      <trkpt lat="44.88416" lon="5.23713">
        <ele>1297.8</ele>
        <time>2024-07-02T13:23:49Z</time>
      </trkpt>
      <trkpt lat="44.88417" lon="5.23713">
        <ele>1297.8</ele>
        <time>2024-07-02T13:23:50Z</time>
      </trkpt>
      <trkpt lat="44.88418" lon="5.23713">
        <ele>1297.8</ele>
        <time>2024-07-02T13:23:51Z</time>
      </trkpt>
      <trkpt lat="44.88419" lon="5.23713">
        <ele>1297.7</ele>
        <time>2024-07-02T13:23:52Z</time>
      </trkpt>
      <trkpt lat="44.8842" lon="5.23713">
        <ele>1297.7</ele>
        <time>2024-07-02T13:23:53Z</time>
      </trkpt>
      <trkpt lat="44.88422" lon="5.23712">
        <ele>1297.7</ele>
        <time>2024-07-02T13:23:54Z</time>
      </trkpt>
      <trkpt lat="44.88423" lon="5.23712">
        <ele>1297.7</ele>
        <time>2024-07-02T13:23:55Z</time>
      </trkpt>
      <trkpt lat="44.88424" lon="5.23712">
        <ele>1297.6</ele>
        <time>2024-07-02T13:23:56Z</time>
      </trkpt>
      <trkpt lat="44.88425" lon="5.23712">
        <ele>1297.6</ele>
        <time>2024-07-02T13:23:57Z</time>
      </trkpt>
      <trkpt lat="44.88426" lon="5.23712">
        <ele>1297.6</ele>
        <time>2024-07-02T13:23:58Z</time>
      </trkpt>
      <trkpt lat="44.88426" lon="5.23712">
        <ele>1297.6</ele>
        <time>2024-07-02T13:23:59Z</time>
      </trkpt>
      <trkpt lat="44.88428" lon="5.23713">
        <ele>1297.6</ele>
        <time>2024-07-02T13:24:00Z</time>
      </trkpt>
      <trkpt lat="44.88428" lon="5.23713">
        <ele>1297.5</ele>
        <time>2024-07-02T13:24:01Z</time>
      </trkpt>
      <trkpt lat="44.88429" lon="5.23713">
        <ele>1297.5</ele>
        <time>2024-07-02T13:24:02Z</time>
      </trkpt>
      <trkpt lat="44.8843" lon="5.23714">
        <ele>1297.5</ele>
        <time>2024-07-02T13:24:03Z</time>
      </trkpt>
      <trkpt lat="44.88432" lon="5.23714">
        <ele>1297.5</ele>
        <time>2024-07-02T13:24:04Z</time>
      </trkpt>
      <trkpt lat="44.88433" lon="5.23714">
        <ele>1297.4</ele>
        <time>2024-07-02T13:24:05Z</time>
      </trkpt>
      <trkpt lat="44.88434" lon="5.23714">
        <ele>1297.4</ele>
        <time>2024-07-02T13:24:06Z</time>
      </trkpt>
      <trkpt lat="44.88435" lon="5.23714">
        <ele>1297.4</ele>
        <time>2024-07-02T13:24:07Z</time>
      </trkpt>
      <trkpt lat="44.88436" lon="5.23715">
        <ele>1297.4</ele>
        <time>2024-07-02T13:24:08Z</time>
      </trkpt>
      <trkpt lat="44.88437" lon="5.23715">
        <ele>1297.4</ele>
        <time>2024-07-02T13:24:09Z</time>
      </trkpt>
      <trkpt lat="44.88438" lon="5.23716">
        <ele>1297.4</ele>
        <time>2024-07-02T13:24:10Z</time>
      </trkpt>
      <trkpt lat="44.88439" lon="5.23716">
        <ele>1297.4</ele>
        <time>2024-07-02T13:24:11Z</time>
      </trkpt>
      <trkpt lat="44.8844" lon="5.23716">
        <ele>1297.4</ele>
        <time>2024-07-02T13:24:12Z</time>
      </trkpt>
      <trkpt lat="44.88441" lon="5.23716">
        <ele>1297.4</ele>
        <time>2024-07-02T13:24:13Z</time>
      </trkpt>
      <trkpt lat="44.88443" lon="5.23716">
        <ele>1297.3</ele>
        <time>2024-07-02T13:24:14Z</time>
      </trkpt>
      <trkpt lat="44.88443" lon="5.23716">
        <ele>1297.3</ele>
        <time>2024-07-02T13:24:15Z</time>
      </trkpt>
      <trkpt lat="44.88444" lon="5.23716">
        <ele>1297.3</ele>
        <time>2024-07-02T13:24:16Z</time>
      </trkpt>
      <trkpt lat="44.88445" lon="5.23716">
        <ele>1297.3</ele>
        <time>2024-07-02T13:24:17Z</time>
      </trkpt>
      <trkpt lat="44.88447" lon="5.23716">
        <ele>1297.3</ele>
        <time>2024-07-02T13:24:18Z</time>
      </trkpt>
      <trkpt lat="44.88448" lon="5.23716">
        <ele>1297.3</ele>
        <time>2024-07-02T13:24:19Z</time>
      </trkpt>
      <trkpt lat="44.88449" lon="5.23717">
        <ele>1297.3</ele>
        <time>2024-07-02T13:24:20Z</time>
      </trkpt>
      <trkpt lat="44.8845" lon="5.23717">
        <ele>1297.3</ele>
        <time>2024-07-02T13:24:21Z</time>
      </trkpt>
      <trkpt lat="44.88451" lon="5.23717">
        <ele>1297.2</ele>
        <time>2024-07-02T13:24:22Z</time>
      </trkpt>
      <trkpt lat="44.88452" lon="5.23717">
        <ele>1297.2</ele>
        <time>2024-07-02T13:24:23Z</time>
      </trkpt>
      <trkpt lat="44.88453" lon="5.23717">
        <ele>1297.2</ele>
        <time>2024-07-02T13:24:24Z</time>
      </trkpt>
      <trkpt lat="44.88454" lon="5.23717">
        <ele>1297.2</ele>
        <time>2024-07-02T13:24:25Z</time>
      </trkpt>
      <trkpt lat="44.88455" lon="5.23717">
        <ele>1297.2</ele>
        <time>2024-07-02T13:24:26Z</time>
      </trkpt>
      <trkpt lat="44.88456" lon="5.23717">
        <ele>1297.2</ele>
        <time>2024-07-02T13:24:27Z</time>
      </trkpt>
      <trkpt lat="44.88457" lon="5.23717">
        <ele>1297.2</ele>
        <time>2024-07-02T13:24:28Z</time>
      </trkpt>
      <trkpt lat="44.88458" lon="5.23717">
        <ele>1297.2</ele>
        <time>2024-07-02T13:24:29Z</time>
      </trkpt>
      <trkpt lat="44.88459" lon="5.23716">
        <ele>1297.1</ele>
        <time>2024-07-02T13:24:30Z</time>
      </trkpt>
      <trkpt lat="44.8846" lon="5.23716">
        <ele>1297.1</ele>
        <time>2024-07-02T13:24:31Z</time>
      </trkpt>
      <trkpt lat="44.88461" lon="5.23716">
        <ele>1297.1</ele>
        <time>2024-07-02T13:24:32Z</time>
      </trkpt>
      <trkpt lat="44.88462" lon="5.23716">
        <ele>1297.1</ele>
        <time>2024-07-02T13:24:33Z</time>
      </trkpt>
      <trkpt lat="44.88463" lon="5.23715">
        <ele>1297.1</ele>
        <time>2024-07-02T13:24:34Z</time>
      </trkpt>
      <trkpt lat="44.88465" lon="5.23715">
        <ele>1297.1</ele>
        <time>2024-07-02T13:24:35Z</time>
      </trkpt>
      <trkpt lat="44.88465" lon="5.23714">
        <ele>1297</ele>
        <time>2024-07-02T13:24:36Z</time>
      </trkpt>
      <trkpt lat="44.88466" lon="5.23714">
        <ele>1297</ele>
        <time>2024-07-02T13:24:37Z</time>
      </trkpt>
      <trkpt lat="44.88467" lon="5.23714">
        <ele>1297</ele>
        <time>2024-07-02T13:24:38Z</time>
      </trkpt>
      <trkpt lat="44.88468" lon="5.23714">
        <ele>1297</ele>
        <time>2024-07-02T13:24:39Z</time>
      </trkpt>
      <trkpt lat="44.88469" lon="5.23713">
        <ele>1297</ele>
        <time>2024-07-02T13:24:40Z</time>
      </trkpt>
      <trkpt lat="44.8847" lon="5.23713">
        <ele>1297</ele>
        <time>2024-07-02T13:24:41Z</time>
      </trkpt>
      <trkpt lat="44.88471" lon="5.23713">
        <ele>1297</ele>
        <time>2024-07-02T13:24:42Z</time>
      </trkpt>
      <trkpt lat="44.88472" lon="5.23712">
        <ele>1296.9</ele>
        <time>2024-07-02T13:24:43Z</time>
      </trkpt>
      <trkpt lat="44.88473" lon="5.23712">
        <ele>1296.9</ele>
        <time>2024-07-02T13:24:44Z</time>
      </trkpt>
      <trkpt lat="44.88474" lon="5.23711">
        <ele>1296.9</ele>
        <time>2024-07-02T13:24:45Z</time>
      </trkpt>
      <trkpt lat="44.88475" lon="5.23711">
        <ele>1296.9</ele>
        <time>2024-07-02T13:24:46Z</time>
      </trkpt>
      <trkpt lat="44.88476" lon="5.2371">
        <ele>1296.9</ele>
        <time>2024-07-02T13:24:47Z</time>
      </trkpt>
      <trkpt lat="44.88476" lon="5.2371">
        <ele>1296.9</ele>
        <time>2024-07-02T13:24:48Z</time>
      </trkpt>
      <trkpt lat="44.88478" lon="5.2371">
        <ele>1296.8</ele>
        <time>2024-07-02T13:24:49Z</time>
      </trkpt>
      <trkpt lat="44.88478" lon="5.23709">
        <ele>1296.8</ele>
        <time>2024-07-02T13:24:50Z</time>
      </trkpt>
      <trkpt lat="44.88479" lon="5.23708">
        <ele>1296.8</ele>
        <time>2024-07-02T13:24:51Z</time>
      </trkpt>
      <trkpt lat="44.8848" lon="5.23707">
        <ele>1296.8</ele>
        <time>2024-07-02T13:24:52Z</time>
      </trkpt>
      <trkpt lat="44.88481" lon="5.23707">
        <ele>1296.8</ele>
        <time>2024-07-02T13:24:53Z</time>
      </trkpt>
      <trkpt lat="44.88482" lon="5.23706">
        <ele>1296.8</ele>
        <time>2024-07-02T13:24:54Z</time>
      </trkpt>
      <trkpt lat="44.88483" lon="5.23705">
        <ele>1296.7</ele>
        <time>2024-07-02T13:24:55Z</time>
      </trkpt>
      <trkpt lat="44.88484" lon="5.23704">
        <ele>1296.7</ele>
        <time>2024-07-02T13:24:56Z</time>
      </trkpt>
      <trkpt lat="44.88484" lon="5.23704">
        <ele>1296.7</ele>
        <time>2024-07-02T13:24:57Z</time>
      </trkpt>
      <trkpt lat="44.88486" lon="5.23703">
        <ele>1296.7</ele>
        <time>2024-07-02T13:24:58Z</time>
      </trkpt>
      <trkpt lat="44.88486" lon="5.23702">
        <ele>1296.7</ele>
        <time>2024-07-02T13:24:59Z</time>
      </trkpt>
      <trkpt lat="44.88487" lon="5.23702">
        <ele>1296.7</ele>
        <time>2024-07-02T13:25:00Z</time>
      </trkpt>
      <trkpt lat="44.88488" lon="5.23701">
        <ele>1296.6</ele>
        <time>2024-07-02T13:25:01Z</time>
      </trkpt>
      <trkpt lat="44.88489" lon="5.237">
        <ele>1296.6</ele>
        <time>2024-07-02T13:25:02Z</time>
      </trkpt>
      <trkpt lat="44.8849" lon="5.23699">
        <ele>1296.6</ele>
        <time>2024-07-02T13:25:03Z</time>
      </trkpt>
      <trkpt lat="44.88491" lon="5.23698">
        <ele>1296.6</ele>
        <time>2024-07-02T13:25:04Z</time>
      </trkpt>
      <trkpt lat="44.88492" lon="5.23697">
        <ele>1296.6</ele>
        <time>2024-07-02T13:25:05Z</time>
      </trkpt>
      <trkpt lat="44.88492" lon="5.23696">
        <ele>1296.6</ele>
        <time>2024-07-02T13:25:06Z</time>
      </trkpt>
      <trkpt lat="44.88493" lon="5.23696">
        <ele>1296.5</ele>
        <time>2024-07-02T13:25:07Z</time>
      </trkpt>
      <trkpt lat="44.88494" lon="5.23695">
        <ele>1296.5</ele>
        <time>2024-07-02T13:25:08Z</time>
      </trkpt>
      <trkpt lat="44.88495" lon="5.23694">
        <ele>1296.5</ele>
        <time>2024-07-02T13:25:09Z</time>
      </trkpt>
      <trkpt lat="44.88496" lon="5.23693">
        <ele>1296.5</ele>
        <time>2024-07-02T13:25:10Z</time>
      </trkpt>
      <trkpt lat="44.88497" lon="5.23692">
        <ele>1296.5</ele>
        <time>2024-07-02T13:25:11Z</time>
      </trkpt>
      <trkpt lat="44.88498" lon="5.23692">
        <ele>1296.5</ele>
        <time>2024-07-02T13:25:12Z</time>
      </trkpt>
      <trkpt lat="44.885" lon="5.23691">
        <ele>1296.5</ele>
        <time>2024-07-02T13:25:13Z</time>
      </trkpt>
      <trkpt lat="44.88501" lon="5.2369">
        <ele>1296.5</ele>
        <time>2024-07-02T13:25:14Z</time>
      </trkpt>
      <trkpt lat="44.88502" lon="5.2369">
        <ele>1296.4</ele>
        <time>2024-07-02T13:25:15Z</time>
      </trkpt>
      <trkpt lat="44.88504" lon="5.23689">
        <ele>1296.4</ele>
        <time>2024-07-02T13:25:16Z</time>
      </trkpt>
      <trkpt lat="44.88505" lon="5.23689">
        <ele>1296.4</ele>
        <time>2024-07-02T13:25:17Z</time>
      </trkpt>
      <trkpt lat="44.88505" lon="5.23689">
        <ele>1296.4</ele>
        <time>2024-07-02T13:25:18Z</time>
      </trkpt>
      <trkpt lat="44.88507" lon="5.23688">
        <ele>1296.4</ele>
        <time>2024-07-02T13:25:19Z</time>
      </trkpt>
      <trkpt lat="44.88508" lon="5.23688">
        <ele>1296.4</ele>
        <time>2024-07-02T13:25:20Z</time>
      </trkpt>
      <trkpt lat="44.88509" lon="5.23688">
        <ele>1296.4</ele>
        <time>2024-07-02T13:25:21Z</time>
      </trkpt>
      <trkpt lat="44.88511" lon="5.23687">
        <ele>1296.4</ele>
        <time>2024-07-02T13:25:22Z</time>
      </trkpt>
      <trkpt lat="44.88512" lon="5.23687">
        <ele>1296.4</ele>
        <time>2024-07-02T13:25:23Z</time>
      </trkpt>
      <trkpt lat="44.88513" lon="5.23687">
        <ele>1296.3</ele>
        <time>2024-07-02T13:25:24Z</time>
      </trkpt>
      <trkpt lat="44.88515" lon="5.23686">
        <ele>1296.3</ele>
        <time>2024-07-02T13:25:25Z</time>
      </trkpt>
      <trkpt lat="44.88515" lon="5.23686">
        <ele>1296.3</ele>
        <time>2024-07-02T13:25:26Z</time>
      </trkpt>
      <trkpt lat="44.88516" lon="5.23686">
        <ele>1296.3</ele>
        <time>2024-07-02T13:25:27Z</time>
      </trkpt>
      <trkpt lat="44.88517" lon="5.23686">
        <ele>1296.3</ele>
        <time>2024-07-02T13:25:28Z</time>
      </trkpt>
      <trkpt lat="44.88519" lon="5.23685">
        <ele>1296.3</ele>
        <time>2024-07-02T13:25:29Z</time>
      </trkpt>
      <trkpt lat="44.8852" lon="5.23685">
        <ele>1296.3</ele>
        <time>2024-07-02T13:25:30Z</time>
      </trkpt>
      <trkpt lat="44.88521" lon="5.23685">
        <ele>1296.2</ele>
        <time>2024-07-02T13:25:31Z</time>
      </trkpt>
      <trkpt lat="44.88522" lon="5.23684">
        <ele>1296.2</ele>
        <time>2024-07-02T13:25:32Z</time>
      </trkpt>
      <trkpt lat="44.88523" lon="5.23684">
        <ele>1296.2</ele>
        <time>2024-07-02T13:25:33Z</time>
      </trkpt>
      <trkpt lat="44.88524" lon="5.23683">
        <ele>1296.2</ele>
        <time>2024-07-02T13:25:34Z</time>
      </trkpt>
      <trkpt lat="44.88525" lon="5.23682">
        <ele>1296.2</ele>
        <time>2024-07-02T13:25:35Z</time>
      </trkpt>
      <trkpt lat="44.88526" lon="5.23681">
        <ele>1296.2</ele>
        <time>2024-07-02T13:25:36Z</time>
      </trkpt>
      <trkpt lat="44.88527" lon="5.2368">
        <ele>1296.1</ele>
        <time>2024-07-02T13:25:37Z</time>
      </trkpt>
      <trkpt lat="44.88528" lon="5.23679">
        <ele>1296.1</ele>
        <time>2024-07-02T13:25:38Z</time>
      </trkpt>
      <trkpt lat="44.88529" lon="5.23679">
        <ele>1296.1</ele>
        <time>2024-07-02T13:25:39Z</time>
      </trkpt>
      <trkpt lat="44.8853" lon="5.23679">
        <ele>1296.1</ele>
        <time>2024-07-02T13:25:40Z</time>
      </trkpt>
      <trkpt lat="44.88531" lon="5.23678">
        <ele>1296.1</ele>
        <time>2024-07-02T13:25:41Z</time>
      </trkpt>
      <trkpt lat="44.88532" lon="5.23677">
        <ele>1296.1</ele>
        <time>2024-07-02T13:25:42Z</time>
      </trkpt>
      <trkpt lat="44.88534" lon="5.23677">
        <ele>1296</ele>
        <time>2024-07-02T13:25:43Z</time>
      </trkpt>
      <trkpt lat="44.88535" lon="5.23676">
        <ele>1296</ele>
        <time>2024-07-02T13:25:44Z</time>
      </trkpt>
      <trkpt lat="44.88536" lon="5.23676">
        <ele>1296</ele>
        <time>2024-07-02T13:25:45Z</time>
      </trkpt>
      <trkpt lat="44.88536" lon="5.23675">
        <ele>1296</ele>
        <time>2024-07-02T13:25:46Z</time>
      </trkpt>
      <trkpt lat="44.88537" lon="5.23675">
        <ele>1296</ele>
        <time>2024-07-02T13:25:47Z</time>
      </trkpt>
      <trkpt lat="44.88538" lon="5.23674">
        <ele>1295.9</ele>
        <time>2024-07-02T13:25:48Z</time>
      </trkpt>
      <trkpt lat="44.8854" lon="5.23674">
        <ele>1295.9</ele>
        <time>2024-07-02T13:25:49Z</time>
      </trkpt>
      <trkpt lat="44.88541" lon="5.23673">
        <ele>1295.9</ele>
        <time>2024-07-02T13:25:50Z</time>
      </trkpt>
      <trkpt lat="44.88542" lon="5.23672">
        <ele>1295.9</ele>
        <time>2024-07-02T13:25:51Z</time>
      </trkpt>
      <trkpt lat="44.88543" lon="5.23672">
        <ele>1295.8</ele>
        <time>2024-07-02T13:25:52Z</time>
      </trkpt>
      <trkpt lat="44.88544" lon="5.23672">
        <ele>1295.8</ele>
        <time>2024-07-02T13:25:53Z</time>
      </trkpt>
      <trkpt lat="44.88545" lon="5.23671">
        <ele>1295.8</ele>
        <time>2024-07-02T13:25:54Z</time>
      </trkpt>
      <trkpt lat="44.88546" lon="5.23671">
        <ele>1295.8</ele>
        <time>2024-07-02T13:25:55Z</time>
      </trkpt>
      <trkpt lat="44.88547" lon="5.2367">
        <ele>1295.7</ele>
        <time>2024-07-02T13:25:56Z</time>
      </trkpt>
      <trkpt lat="44.88549" lon="5.2367">
        <ele>1295.7</ele>
        <time>2024-07-02T13:25:57Z</time>
      </trkpt>
      <trkpt lat="44.8855" lon="5.2367">
        <ele>1295.7</ele>
        <time>2024-07-02T13:25:58Z</time>
      </trkpt>
      <trkpt lat="44.88551" lon="5.2367">
        <ele>1295.7</ele>
        <time>2024-07-02T13:25:59Z</time>
      </trkpt>
      <trkpt lat="44.88552" lon="5.23669">
        <ele>1295.7</ele>
        <time>2024-07-02T13:26:00Z</time>
      </trkpt>
      <trkpt lat="44.88553" lon="5.23668">
        <ele>1295.6</ele>
        <time>2024-07-02T13:26:01Z</time>
      </trkpt>
      <trkpt lat="44.88554" lon="5.23668">
        <ele>1295.6</ele>
        <time>2024-07-02T13:26:02Z</time>
      </trkpt>
      <trkpt lat="44.88556" lon="5.23667">
        <ele>1295.6</ele>
        <time>2024-07-02T13:26:03Z</time>
      </trkpt>
      <trkpt lat="44.88557" lon="5.23666">
        <ele>1295.6</ele>
        <time>2024-07-02T13:26:04Z</time>
      </trkpt>
      <trkpt lat="44.88558" lon="5.23666">
        <ele>1295.6</ele>
        <time>2024-07-02T13:26:05Z</time>
      </trkpt>
      <trkpt lat="44.88558" lon="5.23665">
        <ele>1295.6</ele>
        <time>2024-07-02T13:26:06Z</time>
      </trkpt>
      <trkpt lat="44.88559" lon="5.23664">
        <ele>1295.5</ele>
        <time>2024-07-02T13:26:07Z</time>
      </trkpt>
      <trkpt lat="44.8856" lon="5.23663">
        <ele>1295.5</ele>
        <time>2024-07-02T13:26:08Z</time>
      </trkpt>
      <trkpt lat="44.88561" lon="5.23663">
        <ele>1295.5</ele>
        <time>2024-07-02T13:26:09Z</time>
      </trkpt>
      <trkpt lat="44.88562" lon="5.23661">
        <ele>1295.5</ele>
        <time>2024-07-02T13:26:10Z</time>
      </trkpt>
      <trkpt lat="44.88562" lon="5.2366">
        <ele>1295.5</ele>
        <time>2024-07-02T13:26:11Z</time>
      </trkpt>
      <trkpt lat="44.88563" lon="5.23659">
        <ele>1295.5</ele>
        <time>2024-07-02T13:26:12Z</time>
      </trkpt>
      <trkpt lat="44.88564" lon="5.23658">
        <ele>1295.5</ele>
        <time>2024-07-02T13:26:13Z</time>
      </trkpt>
      <trkpt lat="44.88565" lon="5.23658">
        <ele>1295.5</ele>
        <time>2024-07-02T13:26:14Z</time>
      </trkpt>
      <trkpt lat="44.88567" lon="5.23656">
        <ele>1295.5</ele>
        <time>2024-07-02T13:26:15Z</time>
      </trkpt>
      <trkpt lat="44.88568" lon="5.23656">
        <ele>1295.5</ele>
        <time>2024-07-02T13:26:16Z</time>
      </trkpt>
      <trkpt lat="44.88568" lon="5.23656">
        <ele>1295.5</ele>
        <time>2024-07-02T13:26:17Z</time>
      </trkpt>
      <trkpt lat="44.8857" lon="5.23654">
        <ele>1295.5</ele>
        <time>2024-07-02T13:26:18Z</time>
      </trkpt>
      <trkpt lat="44.88571" lon="5.23654">
        <ele>1295.4</ele>
        <time>2024-07-02T13:26:19Z</time>
      </trkpt>
      <trkpt lat="44.88572" lon="5.23653">
        <ele>1295.4</ele>
        <time>2024-07-02T13:26:20Z</time>
      </trkpt>
      <trkpt lat="44.88572" lon="5.23653">
        <ele>1295.4</ele>
        <time>2024-07-02T13:26:21Z</time>
      </trkpt>
      <trkpt lat="44.88573" lon="5.23652">
        <ele>1295.4</ele>
        <time>2024-07-02T13:26:22Z</time>
      </trkpt>
      <trkpt lat="44.88574" lon="5.23651">
        <ele>1295.4</ele>
        <time>2024-07-02T13:26:23Z</time>
      </trkpt>
      <trkpt lat="44.88576" lon="5.2365">
        <ele>1295.4</ele>
        <time>2024-07-02T13:26:24Z</time>
      </trkpt>
      <trkpt lat="44.88577" lon="5.2365">
        <ele>1295.4</ele>
        <time>2024-07-02T13:26:25Z</time>
      </trkpt>
      <trkpt lat="44.88578" lon="5.23649">
        <ele>1295.4</ele>
        <time>2024-07-02T13:26:26Z</time>
      </trkpt>
      <trkpt lat="44.88579" lon="5.23649">
        <ele>1295.4</ele>
        <time>2024-07-02T13:26:27Z</time>
      </trkpt>
      <trkpt lat="44.8858" lon="5.23648">
        <ele>1295.4</ele>
        <time>2024-07-02T13:26:28Z</time>
      </trkpt>
      <trkpt lat="44.88581" lon="5.23647">
        <ele>1295.4</ele>
        <time>2024-07-02T13:26:29Z</time>
      </trkpt>
      <trkpt lat="44.88582" lon="5.23646">
        <ele>1295.3</ele>
        <time>2024-07-02T13:26:30Z</time>
      </trkpt>
      <trkpt lat="44.88583" lon="5.23645">
        <ele>1295.3</ele>
        <time>2024-07-02T13:26:31Z</time>
      </trkpt>
      <trkpt lat="44.88584" lon="5.23644">
        <ele>1295.3</ele>
        <time>2024-07-02T13:26:32Z</time>
      </trkpt>
      <trkpt lat="44.88585" lon="5.23642">
        <ele>1295.3</ele>
        <time>2024-07-02T13:26:33Z</time>
      </trkpt>
      <trkpt lat="44.88586" lon="5.23641">
        <ele>1295.2</ele>
        <time>2024-07-02T13:26:34Z</time>
      </trkpt>
      <trkpt lat="44.88587" lon="5.23641">
        <ele>1295.2</ele>
        <time>2024-07-02T13:26:35Z</time>
      </trkpt>
      <trkpt lat="44.88587" lon="5.2364">
        <ele>1295.2</ele>
        <time>2024-07-02T13:26:36Z</time>
      </trkpt>
      <trkpt lat="44.88588" lon="5.23639">
        <ele>1295.2</ele>
        <time>2024-07-02T13:26:37Z</time>
      </trkpt>
      <trkpt lat="44.88589" lon="5.23638">
        <ele>1295.1</ele>
        <time>2024-07-02T13:26:38Z</time>
      </trkpt>
      <trkpt lat="44.8859" lon="5.23637">
        <ele>1295.1</ele>
        <time>2024-07-02T13:26:39Z</time>
      </trkpt>
      <trkpt lat="44.88591" lon="5.23636">
        <ele>1295.1</ele>
        <time>2024-07-02T13:26:40Z</time>
      </trkpt>
      <trkpt lat="44.88592" lon="5.23635">
        <ele>1295.1</ele>
        <time>2024-07-02T13:26:41Z</time>
      </trkpt>
      <trkpt lat="44.88593" lon="5.23634">
        <ele>1295</ele>
        <time>2024-07-02T13:26:42Z</time>
      </trkpt>
      <trkpt lat="44.88594" lon="5.23633">
        <ele>1295</ele>
        <time>2024-07-02T13:26:43Z</time>
      </trkpt>
      <trkpt lat="44.88595" lon="5.23632">
        <ele>1294.9</ele>
        <time>2024-07-02T13:26:44Z</time>
      </trkpt>
      <trkpt lat="44.88596" lon="5.2363">
        <ele>1294.9</ele>
        <time>2024-07-02T13:26:45Z</time>
      </trkpt>
      <trkpt lat="44.88597" lon="5.23629">
        <ele>1294.8</ele>
        <time>2024-07-02T13:26:46Z</time>
      </trkpt>
      <trkpt lat="44.88598" lon="5.23628">
        <ele>1294.8</ele>
        <time>2024-07-02T13:26:47Z</time>
      </trkpt>
      <trkpt lat="44.88598" lon="5.23627">
        <ele>1294.8</ele>
        <time>2024-07-02T13:26:48Z</time>
      </trkpt>
      <trkpt lat="44.88599" lon="5.23626">
        <ele>1294.7</ele>
        <time>2024-07-02T13:26:49Z</time>
      </trkpt>
      <trkpt lat="44.886" lon="5.23624">
        <ele>1294.7</ele>
        <time>2024-07-02T13:26:50Z</time>
      </trkpt>
      <trkpt lat="44.88601" lon="5.23624">
        <ele>1294.6</ele>
        <time>2024-07-02T13:26:51Z</time>
      </trkpt>
      <trkpt lat="44.88602" lon="5.23623">
        <ele>1294.6</ele>
        <time>2024-07-02T13:26:52Z</time>
      </trkpt>
      <trkpt lat="44.88604" lon="5.23621">
        <ele>1294.5</ele>
        <time>2024-07-02T13:26:53Z</time>
      </trkpt>
      <trkpt lat="44.88604" lon="5.2362">
        <ele>1294.5</ele>
        <time>2024-07-02T13:26:54Z</time>
      </trkpt>
      <trkpt lat="44.88605" lon="5.23619">
        <ele>1294.4</ele>
        <time>2024-07-02T13:26:55Z</time>
      </trkpt>
      <trkpt lat="44.88606" lon="5.23618">
        <ele>1294.4</ele>
        <time>2024-07-02T13:26:56Z</time>
      </trkpt>
      <trkpt lat="44.88607" lon="5.23617">
        <ele>1294.3</ele>
        <time>2024-07-02T13:26:57Z</time>
      </trkpt>
      <trkpt lat="44.88608" lon="5.23616">
        <ele>1294.3</ele>
        <time>2024-07-02T13:26:58Z</time>
      </trkpt>
      <trkpt lat="44.88608" lon="5.23615">
        <ele>1294.2</ele>
        <time>2024-07-02T13:26:59Z</time>
      </trkpt>
      <trkpt lat="44.88609" lon="5.23614">
        <ele>1294.2</ele>
        <time>2024-07-02T13:27:00Z</time>
      </trkpt>
      <trkpt lat="44.8861" lon="5.23613">
        <ele>1294.1</ele>
        <time>2024-07-02T13:27:01Z</time>
      </trkpt>
      <trkpt lat="44.88611" lon="5.2361">
        <ele>1294</ele>
        <time>2024-07-02T13:27:02Z</time>
      </trkpt>
      <trkpt lat="44.88612" lon="5.2361">
        <ele>1293.9</ele>
        <time>2024-07-02T13:27:03Z</time>
      </trkpt>
      <trkpt lat="44.88613" lon="5.23609">
        <ele>1293.9</ele>
        <time>2024-07-02T13:27:04Z</time>
      </trkpt>
      <trkpt lat="44.88614" lon="5.23607">
        <ele>1293.8</ele>
        <time>2024-07-02T13:27:05Z</time>
      </trkpt>
      <trkpt lat="44.88614" lon="5.23606">
        <ele>1293.8</ele>
        <time>2024-07-02T13:27:06Z</time>
      </trkpt>
      <trkpt lat="44.88615" lon="5.23606">
        <ele>1293.7</ele>
        <time>2024-07-02T13:27:07Z</time>
      </trkpt>
      <trkpt lat="44.88616" lon="5.23604">
        <ele>1293.6</ele>
        <time>2024-07-02T13:27:08Z</time>
      </trkpt>
      <trkpt lat="44.88617" lon="5.23604">
        <ele>1293.6</ele>
        <time>2024-07-02T13:27:09Z</time>
      </trkpt>
      <trkpt lat="44.88618" lon="5.23603">
        <ele>1293.5</ele>
        <time>2024-07-02T13:27:10Z</time>
      </trkpt>
      <trkpt lat="44.88619" lon="5.23602">
        <ele>1293.5</ele>
        <time>2024-07-02T13:27:11Z</time>
      </trkpt>
      <trkpt lat="44.8862" lon="5.23601">
        <ele>1293.4</ele>
        <time>2024-07-02T13:27:12Z</time>
      </trkpt>
      <trkpt lat="44.88621" lon="5.236">
        <ele>1293.3</ele>
        <time>2024-07-02T13:27:13Z</time>
      </trkpt>
      <trkpt lat="44.88622" lon="5.23598">
        <ele>1293.2</ele>
        <time>2024-07-02T13:27:14Z</time>
      </trkpt>
      <trkpt lat="44.88623" lon="5.23597">
        <ele>1293.1</ele>
        <time>2024-07-02T13:27:15Z</time>
      </trkpt>
      <trkpt lat="44.88624" lon="5.23597">
        <ele>1293.1</ele>
        <time>2024-07-02T13:27:16Z</time>
      </trkpt>
      <trkpt lat="44.88624" lon="5.23596">
        <ele>1293</ele>
        <time>2024-07-02T13:27:17Z</time>
      </trkpt>
      <trkpt lat="44.88625" lon="5.23595">
        <ele>1292.9</ele>
        <time>2024-07-02T13:27:18Z</time>
      </trkpt>
      <trkpt lat="44.88627" lon="5.23594">
        <ele>1292.8</ele>
        <time>2024-07-02T13:27:19Z</time>
      </trkpt>
      <trkpt lat="44.88628" lon="5.23594">
        <ele>1292.7</ele>
        <time>2024-07-02T13:27:20Z</time>
      </trkpt>
      <trkpt lat="44.88629" lon="5.23594">
        <ele>1292.7</ele>
        <time>2024-07-02T13:27:21Z</time>
      </trkpt>
      <trkpt lat="44.8863" lon="5.23594">
        <ele>1292.6</ele>
        <time>2024-07-02T13:27:22Z</time>
      </trkpt>
      <trkpt lat="44.88631" lon="5.23592">
        <ele>1292.5</ele>
        <time>2024-07-02T13:27:23Z</time>
      </trkpt>
      <trkpt lat="44.88632" lon="5.23591">
        <ele>1292.4</ele>
        <time>2024-07-02T13:27:24Z</time>
      </trkpt>
      <trkpt lat="44.88632" lon="5.2359">
        <ele>1292.4</ele>
        <time>2024-07-02T13:27:25Z</time>
      </trkpt>
      <trkpt lat="44.88633" lon="5.23589">
        <ele>1292.3</ele>
        <time>2024-07-02T13:27:26Z</time>
      </trkpt>
      <trkpt lat="44.88634" lon="5.23589">
        <ele>1292.2</ele>
        <time>2024-07-02T13:27:27Z</time>
      </trkpt>
      <trkpt lat="44.88635" lon="5.2359">
        <ele>1292.1</ele>
        <time>2024-07-02T13:27:28Z</time>
      </trkpt>
      <trkpt lat="44.88636" lon="5.23591">
        <ele>1292.1</ele>
        <time>2024-07-02T13:27:29Z</time>
      </trkpt>
      <trkpt lat="44.88637" lon="5.2359">
        <ele>1292</ele>
        <time>2024-07-02T13:27:30Z</time>
      </trkpt>
      <trkpt lat="44.88638" lon="5.23589">
        <ele>1291.9</ele>
        <time>2024-07-02T13:27:31Z</time>
      </trkpt>
      <trkpt lat="44.8864" lon="5.23587">
        <ele>1291.8</ele>
        <time>2024-07-02T13:27:32Z</time>
      </trkpt>
      <trkpt lat="44.8864" lon="5.23586">
        <ele>1291.7</ele>
        <time>2024-07-02T13:27:33Z</time>
      </trkpt>
      <trkpt lat="44.88641" lon="5.23585">
        <ele>1291.7</ele>
        <time>2024-07-02T13:27:34Z</time>
      </trkpt>
      <trkpt lat="44.88642" lon="5.23583">
        <ele>1291.6</ele>
        <time>2024-07-02T13:27:35Z</time>
      </trkpt>
      <trkpt lat="44.88643" lon="5.23582">
        <ele>1291.5</ele>
        <time>2024-07-02T13:27:36Z</time>
      </trkpt>
      <trkpt lat="44.88643" lon="5.23581">
        <ele>1291.5</ele>
        <time>2024-07-02T13:27:37Z</time>
      </trkpt>
      <trkpt lat="44.88644" lon="5.2358">
        <ele>1291.4</ele>
        <time>2024-07-02T13:27:38Z</time>
      </trkpt>
      <trkpt lat="44.88645" lon="5.23579">
        <ele>1291.3</ele>
        <time>2024-07-02T13:27:39Z</time>
      </trkpt>
      <trkpt lat="44.88646" lon="5.23578">
        <ele>1291.2</ele>
        <time>2024-07-02T13:27:40Z</time>
      </trkpt>
      <trkpt lat="44.88648" lon="5.23576">
        <ele>1291.1</ele>
        <time>2024-07-02T13:27:41Z</time>
      </trkpt>
      <trkpt lat="44.88648" lon="5.23575">
        <ele>1291.1</ele>
        <time>2024-07-02T13:27:42Z</time>
      </trkpt>
      <trkpt lat="44.88649" lon="5.23574">
        <ele>1291</ele>
        <time>2024-07-02T13:27:43Z</time>
      </trkpt>
      <trkpt lat="44.8865" lon="5.23572">
        <ele>1290.9</ele>
        <time>2024-07-02T13:27:44Z</time>
      </trkpt>
      <trkpt lat="44.88651" lon="5.23571">
        <ele>1290.9</ele>
        <time>2024-07-02T13:27:45Z</time>
      </trkpt>
      <trkpt lat="44.88651" lon="5.23571">
        <ele>1290.8</ele>
        <time>2024-07-02T13:27:46Z</time>
      </trkpt>
      <trkpt lat="44.88652" lon="5.2357">
        <ele>1290.8</ele>
        <time>2024-07-02T13:27:47Z</time>
      </trkpt>
      <trkpt lat="44.88653" lon="5.23569">
        <ele>1290.7</ele>
        <time>2024-07-02T13:27:48Z</time>
      </trkpt>
      <trkpt lat="44.88654" lon="5.23568">
        <ele>1290.6</ele>
        <time>2024-07-02T13:27:49Z</time>
      </trkpt>
      <trkpt lat="44.88655" lon="5.23568">
        <ele>1290.6</ele>
        <time>2024-07-02T13:27:50Z</time>
      </trkpt>
      <trkpt lat="44.88656" lon="5.23567">
        <ele>1290.5</ele>
        <time>2024-07-02T13:27:51Z</time>
      </trkpt>
      <trkpt lat="44.88657" lon="5.23566">
        <ele>1290.5</ele>
        <time>2024-07-02T13:27:52Z</time>
      </trkpt>
      <trkpt lat="44.88658" lon="5.23565">
        <ele>1290.4</ele>
        <time>2024-07-02T13:27:53Z</time>
      </trkpt>
      <trkpt lat="44.88659" lon="5.23564">
        <ele>1290.4</ele>
        <time>2024-07-02T13:27:54Z</time>
      </trkpt>
      <trkpt lat="44.8866" lon="5.23564">
        <ele>1290.3</ele>
        <time>2024-07-02T13:27:55Z</time>
      </trkpt>
      <trkpt lat="44.8866" lon="5.23563">
        <ele>1290.3</ele>
        <time>2024-07-02T13:27:56Z</time>
      </trkpt>
      <trkpt lat="44.88662" lon="5.23562">
        <ele>1290.2</ele>
        <time>2024-07-02T13:27:57Z</time>
      </trkpt>
      <trkpt lat="44.88662" lon="5.23562">
        <ele>1290.2</ele>
        <time>2024-07-02T13:27:58Z</time>
      </trkpt>
      <trkpt lat="44.88664" lon="5.23561">
        <ele>1290.1</ele>
        <time>2024-07-02T13:27:59Z</time>
      </trkpt>
      <trkpt lat="44.88665" lon="5.2356">
        <ele>1290.1</ele>
        <time>2024-07-02T13:28:00Z</time>
      </trkpt>
      <trkpt lat="44.88666" lon="5.2356">
        <ele>1290</ele>
        <time>2024-07-02T13:28:01Z</time>
      </trkpt>
      <trkpt lat="44.88667" lon="5.23561">
        <ele>1290</ele>
        <time>2024-07-02T13:28:02Z</time>
      </trkpt>
      <trkpt lat="44.88668" lon="5.23561">
        <ele>1290</ele>
        <time>2024-07-02T13:28:03Z</time>
      </trkpt>
      <trkpt lat="44.88669" lon="5.23561">
        <ele>1289.9</ele>
        <time>2024-07-02T13:28:04Z</time>
      </trkpt>
      <trkpt lat="44.8867" lon="5.2356">
        <ele>1289.9</ele>
        <time>2024-07-02T13:28:05Z</time>
      </trkpt>
      <trkpt lat="44.88671" lon="5.2356">
        <ele>1289.8</ele>
        <time>2024-07-02T13:28:06Z</time>
      </trkpt>
      <trkpt lat="44.88673" lon="5.2356">
        <ele>1289.8</ele>
        <time>2024-07-02T13:28:07Z</time>
      </trkpt>
      <trkpt lat="44.88675" lon="5.23559">
        <ele>1289.7</ele>
        <time>2024-07-02T13:28:08Z</time>
      </trkpt>
      <trkpt lat="44.88675" lon="5.23558">
        <ele>1289.7</ele>
        <time>2024-07-02T13:28:09Z</time>
      </trkpt>
      <trkpt lat="44.88676" lon="5.23558">
        <ele>1289.7</ele>
        <time>2024-07-02T13:28:10Z</time>
      </trkpt>
      <trkpt lat="44.88678" lon="5.23556">
        <ele>1289.6</ele>
        <time>2024-07-02T13:28:11Z</time>
      </trkpt>
      <trkpt lat="44.88679" lon="5.23555">
        <ele>1289.6</ele>
        <time>2024-07-02T13:28:12Z</time>
      </trkpt>
      <trkpt lat="44.88679" lon="5.23555">
        <ele>1289.6</ele>
        <time>2024-07-02T13:28:13Z</time>
      </trkpt>
      <trkpt lat="44.88681" lon="5.23554">
        <ele>1289.5</ele>
        <time>2024-07-02T13:28:14Z</time>
      </trkpt>
      <trkpt lat="44.88682" lon="5.23553">
        <ele>1289.5</ele>
        <time>2024-07-02T13:28:15Z</time>
      </trkpt>
      <trkpt lat="44.88683" lon="5.23553">
        <ele>1289.5</ele>
        <time>2024-07-02T13:28:16Z</time>
      </trkpt>
      <trkpt lat="44.88684" lon="5.23553">
        <ele>1289.5</ele>
        <time>2024-07-02T13:28:17Z</time>
      </trkpt>
      <trkpt lat="44.88685" lon="5.23552">
        <ele>1289.4</ele>
        <time>2024-07-02T13:28:18Z</time>
      </trkpt>
      <trkpt lat="44.88686" lon="5.23551">
        <ele>1289.4</ele>
        <time>2024-07-02T13:28:19Z</time>
      </trkpt>
      <trkpt lat="44.88688" lon="5.2355">
        <ele>1289.3</ele>
        <time>2024-07-02T13:28:20Z</time>
      </trkpt>
      <trkpt lat="44.88689" lon="5.23549">
        <ele>1289.3</ele>
        <time>2024-07-02T13:28:21Z</time>
      </trkpt>
      <trkpt lat="44.8869" lon="5.23549">
        <ele>1289.3</ele>
        <time>2024-07-02T13:28:22Z</time>
      </trkpt>
      <trkpt lat="44.88691" lon="5.23548">
        <ele>1289.3</ele>
        <time>2024-07-02T13:28:23Z</time>
      </trkpt>
      <trkpt lat="44.88692" lon="5.23548">
        <ele>1289.2</ele>
        <time>2024-07-02T13:28:24Z</time>
      </trkpt>
      <trkpt lat="44.88693" lon="5.23547">
        <ele>1289.2</ele>
        <time>2024-07-02T13:28:25Z</time>
      </trkpt>
      <trkpt lat="44.88694" lon="5.23546">
        <ele>1289.2</ele>
        <time>2024-07-02T13:28:26Z</time>
      </trkpt>
      <trkpt lat="44.88695" lon="5.23545">
        <ele>1289.2</ele>
        <time>2024-07-02T13:28:27Z</time>
      </trkpt>
      <trkpt lat="44.88696" lon="5.23545">
        <ele>1289.1</ele>
        <time>2024-07-02T13:28:28Z</time>
      </trkpt>
      <trkpt lat="44.88697" lon="5.23543">
        <ele>1289.1</ele>
        <time>2024-07-02T13:28:29Z</time>
      </trkpt>
      <trkpt lat="44.88698" lon="5.23542">
        <ele>1289.1</ele>
        <time>2024-07-02T13:28:30Z</time>
      </trkpt>
      <trkpt lat="44.88698" lon="5.23541">
        <ele>1289</ele>
        <time>2024-07-02T13:28:31Z</time>
      </trkpt>
      <trkpt lat="44.887" lon="5.2354">
        <ele>1289</ele>
        <time>2024-07-02T13:28:32Z</time>
      </trkpt>
      <trkpt lat="44.88701" lon="5.23539">
        <ele>1289</ele>
        <time>2024-07-02T13:28:33Z</time>
      </trkpt>
      <trkpt lat="44.88701" lon="5.23538">
        <ele>1288.9</ele>
        <time>2024-07-02T13:28:34Z</time>
      </trkpt>
      <trkpt lat="44.88703" lon="5.23538">
        <ele>1288.9</ele>
        <time>2024-07-02T13:28:35Z</time>
      </trkpt>
      <trkpt lat="44.88704" lon="5.23537">
        <ele>1288.9</ele>
        <time>2024-07-02T13:28:36Z</time>
      </trkpt>
      <trkpt lat="44.88705" lon="5.23536">
        <ele>1288.9</ele>
        <time>2024-07-02T13:28:37Z</time>
      </trkpt>
      <trkpt lat="44.88707" lon="5.23535">
        <ele>1288.8</ele>
        <time>2024-07-02T13:28:38Z</time>
      </trkpt>
      <trkpt lat="44.88707" lon="5.23535">
        <ele>1288.8</ele>
        <time>2024-07-02T13:28:39Z</time>
      </trkpt>
      <trkpt lat="44.88708" lon="5.23535">
        <ele>1288.7</ele>
        <time>2024-07-02T13:28:40Z</time>
      </trkpt>
      <trkpt lat="44.88709" lon="5.23534">
        <ele>1288.7</ele>
        <time>2024-07-02T13:28:41Z</time>
      </trkpt>
      <trkpt lat="44.8871" lon="5.23534">
        <ele>1288.7</ele>
        <time>2024-07-02T13:28:42Z</time>
      </trkpt>
      <trkpt lat="44.88711" lon="5.23533">
        <ele>1288.7</ele>
        <time>2024-07-02T13:28:43Z</time>
      </trkpt>
      <trkpt lat="44.88712" lon="5.23532">
        <ele>1288.6</ele>
        <time>2024-07-02T13:28:44Z</time>
      </trkpt>
      <trkpt lat="44.88713" lon="5.23531">
        <ele>1288.6</ele>
        <time>2024-07-02T13:28:45Z</time>
      </trkpt>
      <trkpt lat="44.88714" lon="5.2353">
        <ele>1288.5</ele>
        <time>2024-07-02T13:28:46Z</time>
      </trkpt>
      <trkpt lat="44.88715" lon="5.2353">
        <ele>1288.5</ele>
        <time>2024-07-02T13:28:47Z</time>
      </trkpt>
      <trkpt lat="44.88717" lon="5.23529">
        <ele>1288.5</ele>
        <time>2024-07-02T13:28:48Z</time>
      </trkpt>
      <trkpt lat="44.88717" lon="5.23528">
        <ele>1288.4</ele>
        <time>2024-07-02T13:28:49Z</time>
      </trkpt>
      <trkpt lat="44.88718" lon="5.23527">
        <ele>1288.4</ele>
        <time>2024-07-02T13:28:50Z</time>
      </trkpt>
      <trkpt lat="44.88719" lon="5.23527">
        <ele>1288.4</ele>
        <time>2024-07-02T13:28:51Z</time>
      </trkpt>
      <trkpt lat="44.8872" lon="5.23526">
        <ele>1288.3</ele>
        <time>2024-07-02T13:28:52Z</time>
      </trkpt>
      <trkpt lat="44.88722" lon="5.23525">
        <ele>1288.3</ele>
        <time>2024-07-02T13:28:53Z</time>
      </trkpt>
      <trkpt lat="44.88723" lon="5.23525">
        <ele>1288.2</ele>
        <time>2024-07-02T13:28:54Z</time>
      </trkpt>
      <trkpt lat="44.88724" lon="5.23524">
        <ele>1288.2</ele>
        <time>2024-07-02T13:28:55Z</time>
      </trkpt>
      <trkpt lat="44.88725" lon="5.23524">
        <ele>1288.2</ele>
        <time>2024-07-02T13:28:56Z</time>
      </trkpt>
      <trkpt lat="44.88726" lon="5.23523">
        <ele>1288.1</ele>
        <time>2024-07-02T13:28:57Z</time>
      </trkpt>
      <trkpt lat="44.88727" lon="5.23523">
        <ele>1288.1</ele>
        <time>2024-07-02T13:28:58Z</time>
      </trkpt>
      <trkpt lat="44.88728" lon="5.23522">
        <ele>1288</ele>
        <time>2024-07-02T13:28:59Z</time>
      </trkpt>
      <trkpt lat="44.88729" lon="5.23521">
        <ele>1288</ele>
        <time>2024-07-02T13:29:00Z</time>
      </trkpt>
      <trkpt lat="44.8873" lon="5.23521">
        <ele>1288</ele>
        <time>2024-07-02T13:29:01Z</time>
      </trkpt>
      <trkpt lat="44.88731" lon="5.2352">
        <ele>1287.9</ele>
        <time>2024-07-02T13:29:02Z</time>
      </trkpt>
      <trkpt lat="44.88733" lon="5.23519">
        <ele>1287.9</ele>
        <time>2024-07-02T13:29:03Z</time>
      </trkpt>
      <trkpt lat="44.88733" lon="5.23519">
        <ele>1287.8</ele>
        <time>2024-07-02T13:29:04Z</time>
      </trkpt>
      <trkpt lat="44.88734" lon="5.23518">
        <ele>1287.8</ele>
        <time>2024-07-02T13:29:05Z</time>
      </trkpt>
      <trkpt lat="44.88735" lon="5.23518">
        <ele>1287.8</ele>
        <time>2024-07-02T13:29:06Z</time>
      </trkpt>
      <trkpt lat="44.88736" lon="5.23517">
        <ele>1287.7</ele>
        <time>2024-07-02T13:29:07Z</time>
      </trkpt>
      <trkpt lat="44.88736" lon="5.2352">
        <ele>1287.7</ele>
        <time>2024-07-02T13:29:08Z</time>
      </trkpt>
      <trkpt lat="44.88736" lon="5.23522">
        <ele>1287.6</ele>
        <time>2024-07-02T13:29:09Z</time>
      </trkpt>
      <trkpt lat="44.88737" lon="5.23523">
        <ele>1287.6</ele>
        <time>2024-07-02T13:29:10Z</time>
      </trkpt>
      <trkpt lat="44.88738" lon="5.23523">
        <ele>1287.5</ele>
        <time>2024-07-02T13:29:11Z</time>
      </trkpt>
      <trkpt lat="44.88739" lon="5.23523">
        <ele>1287.5</ele>
        <time>2024-07-02T13:29:12Z</time>
      </trkpt>
      <trkpt lat="44.88741" lon="5.23522">
        <ele>1287.4</ele>
        <time>2024-07-02T13:29:13Z</time>
      </trkpt>
      <trkpt lat="44.88742" lon="5.23522">
        <ele>1287.4</ele>
        <time>2024-07-02T13:29:14Z</time>
      </trkpt>
      <trkpt lat="44.88743" lon="5.23522">
        <ele>1287.4</ele>
        <time>2024-07-02T13:29:15Z</time>
      </trkpt>
      <trkpt lat="44.88745" lon="5.23521">
        <ele>1287.3</ele>
        <time>2024-07-02T13:29:16Z</time>
      </trkpt>
      <trkpt lat="44.88746" lon="5.2352">
        <ele>1287.3</ele>
        <time>2024-07-02T13:29:17Z</time>
      </trkpt>
      <trkpt lat="44.88747" lon="5.23519">
        <ele>1287.2</ele>
        <time>2024-07-02T13:29:18Z</time>
      </trkpt>
      <trkpt lat="44.88748" lon="5.23519">
        <ele>1287.2</ele>
        <time>2024-07-02T13:29:19Z</time>
      </trkpt>
      <trkpt lat="44.88749" lon="5.23518">
        <ele>1287.2</ele>
        <time>2024-07-02T13:29:20Z</time>
      </trkpt>
      <trkpt lat="44.8875" lon="5.23517">
        <ele>1287.1</ele>
        <time>2024-07-02T13:29:21Z</time>
      </trkpt>
      <trkpt lat="44.88752" lon="5.23516">
        <ele>1287.1</ele>
        <time>2024-07-02T13:29:22Z</time>
      </trkpt>
      <trkpt lat="44.88753" lon="5.23515">
        <ele>1287</ele>
        <time>2024-07-02T13:29:23Z</time>
      </trkpt>
      <trkpt lat="44.88754" lon="5.23515">
        <ele>1287</ele>
        <time>2024-07-02T13:29:24Z</time>
      </trkpt>
      <trkpt lat="44.88755" lon="5.23514">
        <ele>1287</ele>
        <time>2024-07-02T13:29:25Z</time>
      </trkpt>
      <trkpt lat="44.88757" lon="5.23513">
        <ele>1286.9</ele>
        <time>2024-07-02T13:29:26Z</time>
      </trkpt>
      <trkpt lat="44.88758" lon="5.23513">
        <ele>1286.9</ele>
        <time>2024-07-02T13:29:27Z</time>
      </trkpt>
      <trkpt lat="44.88759" lon="5.23512">
        <ele>1286.9</ele>
        <time>2024-07-02T13:29:28Z</time>
      </trkpt>
      <trkpt lat="44.8876" lon="5.23511">
        <ele>1286.8</ele>
        <time>2024-07-02T13:29:29Z</time>
      </trkpt>
      <trkpt lat="44.88761" lon="5.2351">
        <ele>1286.8</ele>
        <time>2024-07-02T13:29:30Z</time>
      </trkpt>
      <trkpt lat="44.88762" lon="5.23509">
        <ele>1286.8</ele>
        <time>2024-07-02T13:29:31Z</time>
      </trkpt>
      <trkpt lat="44.88763" lon="5.23508">
        <ele>1286.7</ele>
        <time>2024-07-02T13:29:32Z</time>
      </trkpt>
      <trkpt lat="44.88765" lon="5.23506">
        <ele>1286.7</ele>
        <time>2024-07-02T13:29:33Z</time>
      </trkpt>
      <trkpt lat="44.88766" lon="5.23506">
        <ele>1286.7</ele>
        <time>2024-07-02T13:29:34Z</time>
      </trkpt>
      <trkpt lat="44.88767" lon="5.23504">
        <ele>1286.6</ele>
        <time>2024-07-02T13:29:35Z</time>
      </trkpt>
      <trkpt lat="44.88767" lon="5.23504">
        <ele>1286.6</ele>
        <time>2024-07-02T13:29:36Z</time>
      </trkpt>
      <trkpt lat="44.88768" lon="5.23502">
        <ele>1286.6</ele>
        <time>2024-07-02T13:29:37Z</time>
      </trkpt>
      <trkpt lat="44.88769" lon="5.23501">
        <ele>1286.5</ele>
        <time>2024-07-02T13:29:38Z</time>
      </trkpt>
      <trkpt lat="44.88771" lon="5.23499">
        <ele>1286.5</ele>
        <time>2024-07-02T13:29:39Z</time>
      </trkpt>
      <trkpt lat="44.88772" lon="5.23498">
        <ele>1286.5</ele>
        <time>2024-07-02T13:29:40Z</time>
      </trkpt>
      <trkpt lat="44.88772" lon="5.23497">
        <ele>1286.4</ele>
        <time>2024-07-02T13:29:41Z</time>
      </trkpt>
      <trkpt lat="44.88774" lon="5.23497">
        <ele>1286.4</ele>
        <time>2024-07-02T13:29:42Z</time>
      </trkpt>
      <trkpt lat="44.88775" lon="5.23495">
        <ele>1286.4</ele>
        <time>2024-07-02T13:29:43Z</time>
      </trkpt>
      <trkpt lat="44.88776" lon="5.23495">
        <ele>1286.3</ele>
        <time>2024-07-02T13:29:44Z</time>
      </trkpt>
      <trkpt lat="44.88777" lon="5.23494">
        <ele>1286.3</ele>
        <time>2024-07-02T13:29:45Z</time>
      </trkpt>
      <trkpt lat="44.88778" lon="5.23494">
        <ele>1286.3</ele>
        <time>2024-07-02T13:29:46Z</time>
      </trkpt>
      <trkpt lat="44.8878" lon="5.23492">
        <ele>1286.2</ele>
        <time>2024-07-02T13:29:47Z</time>
      </trkpt>
      <trkpt lat="44.88781" lon="5.23492">
        <ele>1286.2</ele>
        <time>2024-07-02T13:29:48Z</time>
      </trkpt>
      <trkpt lat="44.88781" lon="5.23491">
        <ele>1286.2</ele>
        <time>2024-07-02T13:29:49Z</time>
      </trkpt>
      <trkpt lat="44.88783" lon="5.2349">
        <ele>1286.2</ele>
        <time>2024-07-02T13:29:50Z</time>
      </trkpt>
      <trkpt lat="44.88784" lon="5.2349">
        <ele>1286.1</ele>
        <time>2024-07-02T13:29:51Z</time>
      </trkpt>
      <trkpt lat="44.88785" lon="5.23489">
        <ele>1286.1</ele>
        <time>2024-07-02T13:29:52Z</time>
      </trkpt>
      <trkpt lat="44.88787" lon="5.23488">
        <ele>1286.1</ele>
        <time>2024-07-02T13:29:53Z</time>
      </trkpt>
      <trkpt lat="44.88787" lon="5.23487">
        <ele>1286.1</ele>
        <time>2024-07-02T13:29:54Z</time>
      </trkpt>
      <trkpt lat="44.88788" lon="5.23487">
        <ele>1286</ele>
        <time>2024-07-02T13:29:55Z</time>
      </trkpt>
      <trkpt lat="44.8879" lon="5.23485">
        <ele>1286</ele>
        <time>2024-07-02T13:29:56Z</time>
      </trkpt>
      <trkpt lat="44.88791" lon="5.23484">
        <ele>1286</ele>
        <time>2024-07-02T13:29:57Z</time>
      </trkpt>
      <trkpt lat="44.88791" lon="5.23484">
        <ele>1285.9</ele>
        <time>2024-07-02T13:29:58Z</time>
      </trkpt>
      <trkpt lat="44.88792" lon="5.23483">
        <ele>1285.9</ele>
        <time>2024-07-02T13:29:59Z</time>
      </trkpt>
      <trkpt lat="44.88793" lon="5.23482">
        <ele>1285.9</ele>
        <time>2024-07-02T13:30:00Z</time>
      </trkpt>
      <trkpt lat="44.88794" lon="5.23481">
        <ele>1285.9</ele>
        <time>2024-07-02T13:30:01Z</time>
      </trkpt>
      <trkpt lat="44.88796" lon="5.2348">
        <ele>1285.8</ele>
        <time>2024-07-02T13:30:02Z</time>
      </trkpt>
      <trkpt lat="44.88797" lon="5.2348">
        <ele>1285.8</ele>
        <time>2024-07-02T13:30:03Z</time>
      </trkpt>
      <trkpt lat="44.88798" lon="5.23479">
        <ele>1285.8</ele>
        <time>2024-07-02T13:30:04Z</time>
      </trkpt>
      <trkpt lat="44.88799" lon="5.23478">
        <ele>1285.8</ele>
        <time>2024-07-02T13:30:05Z</time>
      </trkpt>
      <trkpt lat="44.888" lon="5.23478">
        <ele>1285.7</ele>
        <time>2024-07-02T13:30:06Z</time>
      </trkpt>
      <trkpt lat="44.88801" lon="5.23477">
        <ele>1285.7</ele>
        <time>2024-07-02T13:30:07Z</time>
      </trkpt>
      <trkpt lat="44.88803" lon="5.23476">
        <ele>1285.6</ele>
        <time>2024-07-02T13:30:08Z</time>
      </trkpt>
      <trkpt lat="44.88803" lon="5.23475">
        <ele>1285.6</ele>
        <time>2024-07-02T13:30:09Z</time>
      </trkpt>
      <trkpt lat="44.88804" lon="5.23475">
        <ele>1285.6</ele>
        <time>2024-07-02T13:30:10Z</time>
      </trkpt>
      <trkpt lat="44.88805" lon="5.23474">
        <ele>1285.6</ele>
        <time>2024-07-02T13:30:11Z</time>
      </trkpt>
      <trkpt lat="44.88807" lon="5.23474">
        <ele>1285.5</ele>
        <time>2024-07-02T13:30:12Z</time>
      </trkpt>
      <trkpt lat="44.88808" lon="5.23473">
        <ele>1285.5</ele>
        <time>2024-07-02T13:30:13Z</time>
      </trkpt>
      <trkpt lat="44.88809" lon="5.23473">
        <ele>1285.4</ele>
        <time>2024-07-02T13:30:14Z</time>
      </trkpt>
      <trkpt lat="44.8881" lon="5.23472">
        <ele>1285.4</ele>
        <time>2024-07-02T13:30:15Z</time>
      </trkpt>
      <trkpt lat="44.88811" lon="5.23472">
        <ele>1285.4</ele>
        <time>2024-07-02T13:30:16Z</time>
      </trkpt>
      <trkpt lat="44.88812" lon="5.23472">
        <ele>1285.3</ele>
        <time>2024-07-02T13:30:17Z</time>
      </trkpt>
      <trkpt lat="44.88813" lon="5.23471">
        <ele>1285.3</ele>
        <time>2024-07-02T13:30:18Z</time>
      </trkpt>
      <trkpt lat="44.88814" lon="5.23471">
        <ele>1285.3</ele>
        <time>2024-07-02T13:30:19Z</time>
      </trkpt>
      <trkpt lat="44.88816" lon="5.23471">
        <ele>1285.2</ele>
        <time>2024-07-02T13:30:20Z</time>
      </trkpt>
      <trkpt lat="44.88817" lon="5.2347">
        <ele>1285.2</ele>
        <time>2024-07-02T13:30:21Z</time>
      </trkpt>
      <trkpt lat="44.88818" lon="5.2347">
        <ele>1285.2</ele>
        <time>2024-07-02T13:30:22Z</time>
      </trkpt>
      <trkpt lat="44.88819" lon="5.2347">
        <ele>1285.1</ele>
        <time>2024-07-02T13:30:23Z</time>
      </trkpt>
      <trkpt lat="44.88821" lon="5.2347">
        <ele>1285.1</ele>
        <time>2024-07-02T13:30:24Z</time>
      </trkpt>
      <trkpt lat="44.88821" lon="5.2347">
        <ele>1285.1</ele>
        <time>2024-07-02T13:30:25Z</time>
      </trkpt>
      <trkpt lat="44.88822" lon="5.23469">
        <ele>1285</ele>
        <time>2024-07-02T13:30:26Z</time>
      </trkpt>
      <trkpt lat="44.88823" lon="5.23469">
        <ele>1285</ele>
        <time>2024-07-02T13:30:27Z</time>
      </trkpt>
      <trkpt lat="44.88825" lon="5.23468">
        <ele>1284.9</ele>
        <time>2024-07-02T13:30:28Z</time>
      </trkpt>
      <trkpt lat="44.88826" lon="5.23468">
        <ele>1284.9</ele>
        <time>2024-07-02T13:30:29Z</time>
      </trkpt>
      <trkpt lat="44.88827" lon="5.23467">
        <ele>1284.9</ele>
        <time>2024-07-02T13:30:30Z</time>
      </trkpt>
      <trkpt lat="44.88828" lon="5.23467">
        <ele>1284.8</ele>
        <time>2024-07-02T13:30:31Z</time>
      </trkpt>
      <trkpt lat="44.8883" lon="5.23467">
        <ele>1284.8</ele>
        <time>2024-07-02T13:30:32Z</time>
      </trkpt>
      <trkpt lat="44.88831" lon="5.23466">
        <ele>1284.8</ele>
        <time>2024-07-02T13:30:33Z</time>
      </trkpt>
      <trkpt lat="44.88832" lon="5.23466">
        <ele>1284.7</ele>
        <time>2024-07-02T13:30:34Z</time>
      </trkpt>
      <trkpt lat="44.88833" lon="5.23466">
        <ele>1284.7</ele>
        <time>2024-07-02T13:30:35Z</time>
      </trkpt>
      <trkpt lat="44.88834" lon="5.23466">
        <ele>1284.6</ele>
        <time>2024-07-02T13:30:36Z</time>
      </trkpt>
      <trkpt lat="44.88835" lon="5.23466">
        <ele>1284.6</ele>
        <time>2024-07-02T13:30:37Z</time>
      </trkpt>
      <trkpt lat="44.88836" lon="5.23465">
        <ele>1284.6</ele>
        <time>2024-07-02T13:30:38Z</time>
      </trkpt>
      <trkpt lat="44.88838" lon="5.23465">
        <ele>1284.5</ele>
        <time>2024-07-02T13:30:39Z</time>
      </trkpt>
      <trkpt lat="44.88839" lon="5.23464">
        <ele>1284.5</ele>
        <time>2024-07-02T13:30:40Z</time>
      </trkpt>
      <trkpt lat="44.8884" lon="5.23463">
        <ele>1284.5</ele>
        <time>2024-07-02T13:30:41Z</time>
      </trkpt>
      <trkpt lat="44.88841" lon="5.23463">
        <ele>1284.4</ele>
        <time>2024-07-02T13:30:42Z</time>
      </trkpt>
      <trkpt lat="44.88842" lon="5.23462">
        <ele>1284.4</ele>
        <time>2024-07-02T13:30:43Z</time>
      </trkpt>
      <trkpt lat="44.88843" lon="5.23461">
        <ele>1284.4</ele>
        <time>2024-07-02T13:30:44Z</time>
      </trkpt>
      <trkpt lat="44.88844" lon="5.2346">
        <ele>1284.4</ele>
        <time>2024-07-02T13:30:45Z</time>
      </trkpt>
      <trkpt lat="44.88845" lon="5.2346">
        <ele>1284.3</ele>
        <time>2024-07-02T13:30:46Z</time>
      </trkpt>
      <trkpt lat="44.88846" lon="5.23459">
        <ele>1284.3</ele>
        <time>2024-07-02T13:30:47Z</time>
      </trkpt>
      <trkpt lat="44.88847" lon="5.23459">
        <ele>1284.3</ele>
        <time>2024-07-02T13:30:48Z</time>
      </trkpt>
      <trkpt lat="44.88849" lon="5.23459">
        <ele>1284.3</ele>
        <time>2024-07-02T13:30:49Z</time>
      </trkpt>
      <trkpt lat="44.8885" lon="5.23459">
        <ele>1284.2</ele>
        <time>2024-07-02T13:30:50Z</time>
      </trkpt>
      <trkpt lat="44.88851" lon="5.23459">
        <ele>1284.2</ele>
        <time>2024-07-02T13:30:51Z</time>
      </trkpt>
      <trkpt lat="44.88853" lon="5.23459">
        <ele>1284.2</ele>
        <time>2024-07-02T13:30:52Z</time>
      </trkpt>
      <trkpt lat="44.88854" lon="5.23459">
        <ele>1284.2</ele>
        <time>2024-07-02T13:30:53Z</time>
      </trkpt>
      <trkpt lat="44.88855" lon="5.23459">
        <ele>1284.2</ele>
        <time>2024-07-02T13:30:54Z</time>
      </trkpt>
      <trkpt lat="44.88857" lon="5.23458">
        <ele>1284.1</ele>
        <time>2024-07-02T13:30:55Z</time>
      </trkpt>
      <trkpt lat="44.88858" lon="5.23458">
        <ele>1284.1</ele>
        <time>2024-07-02T13:30:56Z</time>
      </trkpt>
      <trkpt lat="44.88859" lon="5.23457">
        <ele>1284.1</ele>
        <time>2024-07-02T13:30:57Z</time>
      </trkpt>
      <trkpt lat="44.88859" lon="5.23457">
        <ele>1284.1</ele>
        <time>2024-07-02T13:30:58Z</time>
      </trkpt>
      <trkpt lat="44.88861" lon="5.23456">
        <ele>1284.1</ele>
        <time>2024-07-02T13:30:59Z</time>
      </trkpt>
      <trkpt lat="44.88862" lon="5.23456">
        <ele>1284.1</ele>
        <time>2024-07-02T13:31:00Z</time>
      </trkpt>
      <trkpt lat="44.88863" lon="5.23455">
        <ele>1284.1</ele>
        <time>2024-07-02T13:31:01Z</time>
      </trkpt>
      <trkpt lat="44.88864" lon="5.23455">
        <ele>1284.2</ele>
        <time>2024-07-02T13:31:02Z</time>
      </trkpt>
      <trkpt lat="44.88865" lon="5.23454">
        <ele>1284.2</ele>
        <time>2024-07-02T13:31:03Z</time>
      </trkpt>
      <trkpt lat="44.88866" lon="5.23454">
        <ele>1284.2</ele>
        <time>2024-07-02T13:31:04Z</time>
      </trkpt>
      <trkpt lat="44.88867" lon="5.23453">
        <ele>1284.2</ele>
        <time>2024-07-02T13:31:05Z</time>
      </trkpt>
      <trkpt lat="44.88868" lon="5.23453">
        <ele>1284.2</ele>
        <time>2024-07-02T13:31:06Z</time>
      </trkpt>
      <trkpt lat="44.8887" lon="5.23451">
        <ele>1284.3</ele>
        <time>2024-07-02T13:31:07Z</time>
      </trkpt>
      <trkpt lat="44.88871" lon="5.23451">
        <ele>1284.3</ele>
        <time>2024-07-02T13:31:08Z</time>
      </trkpt>
      <trkpt lat="44.88872" lon="5.2345">
        <ele>1284.3</ele>
        <time>2024-07-02T13:31:09Z</time>
      </trkpt>
      <trkpt lat="44.88873" lon="5.2345">
        <ele>1284.3</ele>
        <time>2024-07-02T13:31:10Z</time>
      </trkpt>
      <trkpt lat="44.88874" lon="5.23449">
        <ele>1284.3</ele>
        <time>2024-07-02T13:31:11Z</time>
      </trkpt>
      <trkpt lat="44.88875" lon="5.23449">
        <ele>1284.3</ele>
        <time>2024-07-02T13:31:12Z</time>
      </trkpt>
      <trkpt lat="44.88876" lon="5.23448">
        <ele>1284.3</ele>
        <time>2024-07-02T13:31:13Z</time>
      </trkpt>
      <trkpt lat="44.88876" lon="5.23448">
        <ele>1284.3</ele>
        <time>2024-07-02T13:31:14Z</time>
      </trkpt>
      <trkpt lat="44.88878" lon="5.23448">
        <ele>1284.4</ele>
        <time>2024-07-02T13:31:15Z</time>
      </trkpt>
      <trkpt lat="44.88879" lon="5.23447">
        <ele>1284.4</ele>
        <time>2024-07-02T13:31:16Z</time>
      </trkpt>
      <trkpt lat="44.88881" lon="5.23447">
        <ele>1284.4</ele>
        <time>2024-07-02T13:31:17Z</time>
      </trkpt>
      <trkpt lat="44.88881" lon="5.23446">
        <ele>1284.4</ele>
        <time>2024-07-02T13:31:18Z</time>
      </trkpt>
      <trkpt lat="44.88882" lon="5.23446">
        <ele>1284.4</ele>
        <time>2024-07-02T13:31:19Z</time>
      </trkpt>
      <trkpt lat="44.88884" lon="5.23446">
        <ele>1284.4</ele>
        <time>2024-07-02T13:31:20Z</time>
      </trkpt>
      <trkpt lat="44.88885" lon="5.23445">
        <ele>1284.4</ele>
        <time>2024-07-02T13:31:21Z</time>
      </trkpt>
      <trkpt lat="44.88886" lon="5.23445">
        <ele>1284.5</ele>
        <time>2024-07-02T13:31:22Z</time>
      </trkpt>
      <trkpt lat="44.88887" lon="5.23445">
        <ele>1284.5</ele>
        <time>2024-07-02T13:31:23Z</time>
      </trkpt>
      <trkpt lat="44.88889" lon="5.23445">
        <ele>1284.5</ele>
        <time>2024-07-02T13:31:24Z</time>
      </trkpt>
      <trkpt lat="44.8889" lon="5.23444">
        <ele>1284.5</ele>
        <time>2024-07-02T13:31:25Z</time>
      </trkpt>
      <trkpt lat="44.88891" lon="5.23444">
        <ele>1284.5</ele>
        <time>2024-07-02T13:31:26Z</time>
      </trkpt>
      <trkpt lat="44.88892" lon="5.23444">
        <ele>1284.5</ele>
        <time>2024-07-02T13:31:27Z</time>
      </trkpt>
      <trkpt lat="44.88893" lon="5.23444">
        <ele>1284.6</ele>
        <time>2024-07-02T13:31:28Z</time>
      </trkpt>
      <trkpt lat="44.88894" lon="5.23443">
        <ele>1284.6</ele>
        <time>2024-07-02T13:31:29Z</time>
      </trkpt>
      <trkpt lat="44.88895" lon="5.23443">
        <ele>1284.6</ele>
        <time>2024-07-02T13:31:30Z</time>
      </trkpt>
      <trkpt lat="44.88897" lon="5.23442">
        <ele>1284.6</ele>
        <time>2024-07-02T13:31:31Z</time>
      </trkpt>
      <trkpt lat="44.88898" lon="5.23442">
        <ele>1284.6</ele>
        <time>2024-07-02T13:31:32Z</time>
      </trkpt>
      <trkpt lat="44.88898" lon="5.23441">
        <ele>1284.6</ele>
        <time>2024-07-02T13:31:33Z</time>
      </trkpt>
      <trkpt lat="44.88901" lon="5.23441">
        <ele>1284.7</ele>
        <time>2024-07-02T13:31:34Z</time>
      </trkpt>
      <trkpt lat="44.88901" lon="5.2344">
        <ele>1284.7</ele>
        <time>2024-07-02T13:31:35Z</time>
      </trkpt>
      <trkpt lat="44.88902" lon="5.2344">
        <ele>1284.7</ele>
        <time>2024-07-02T13:31:36Z</time>
      </trkpt>
      <trkpt lat="44.88904" lon="5.23439">
        <ele>1284.7</ele>
        <time>2024-07-02T13:31:37Z</time>
      </trkpt>
      <trkpt lat="44.88905" lon="5.23439">
        <ele>1284.7</ele>
        <time>2024-07-02T13:31:38Z</time>
      </trkpt>
      <trkpt lat="44.88906" lon="5.23439">
        <ele>1284.8</ele>
        <time>2024-07-02T13:31:39Z</time>
      </trkpt>
      <trkpt lat="44.88907" lon="5.23438">
        <ele>1284.8</ele>
        <time>2024-07-02T13:31:40Z</time>
      </trkpt>
      <trkpt lat="44.88908" lon="5.23438">
        <ele>1284.8</ele>
        <time>2024-07-02T13:31:41Z</time>
      </trkpt>
      <trkpt lat="44.88909" lon="5.23437">
        <ele>1284.8</ele>
        <time>2024-07-02T13:31:42Z</time>
      </trkpt>
      <trkpt lat="44.8891" lon="5.23437">
        <ele>1284.8</ele>
        <time>2024-07-02T13:31:43Z</time>
      </trkpt>
      <trkpt lat="44.88911" lon="5.23436">
        <ele>1284.8</ele>
        <time>2024-07-02T13:31:44Z</time>
      </trkpt>
      <trkpt lat="44.88912" lon="5.23435">
        <ele>1284.9</ele>
        <time>2024-07-02T13:31:45Z</time>
      </trkpt>
      <trkpt lat="44.88913" lon="5.23435">
        <ele>1284.9</ele>
        <time>2024-07-02T13:31:46Z</time>
      </trkpt>
      <trkpt lat="44.88914" lon="5.23434">
        <ele>1284.9</ele>
        <time>2024-07-02T13:31:47Z</time>
      </trkpt>
      <trkpt lat="44.88915" lon="5.23434">
        <ele>1284.9</ele>
        <time>2024-07-02T13:31:48Z</time>
      </trkpt>
      <trkpt lat="44.88918" lon="5.23432">
        <ele>1284.9</ele>
        <time>2024-07-02T13:31:49Z</time>
      </trkpt>
      <trkpt lat="44.88918" lon="5.23432">
        <ele>1284.9</ele>
        <time>2024-07-02T13:31:50Z</time>
      </trkpt>
      <trkpt lat="44.88919" lon="5.23432">
        <ele>1284.9</ele>
        <time>2024-07-02T13:31:51Z</time>
      </trkpt>
      <trkpt lat="44.88921" lon="5.2343">
        <ele>1285</ele>
        <time>2024-07-02T13:31:52Z</time>
      </trkpt>
      <trkpt lat="44.88922" lon="5.2343">
        <ele>1285</ele>
        <time>2024-07-02T13:31:53Z</time>
      </trkpt>
      <trkpt lat="44.88923" lon="5.2343">
        <ele>1285</ele>
        <time>2024-07-02T13:31:54Z</time>
      </trkpt>
      <trkpt lat="44.88923" lon="5.23429">
        <ele>1285</ele>
        <time>2024-07-02T13:31:55Z</time>
      </trkpt>
      <trkpt lat="44.88924" lon="5.23429">
        <ele>1285</ele>
        <time>2024-07-02T13:31:56Z</time>
      </trkpt>
      <trkpt lat="44.88926" lon="5.23429">
        <ele>1285</ele>
        <time>2024-07-02T13:31:57Z</time>
      </trkpt>
      <trkpt lat="44.88927" lon="5.23428">
        <ele>1285</ele>
        <time>2024-07-02T13:31:58Z</time>
      </trkpt>
      <trkpt lat="44.88928" lon="5.23428">
        <ele>1285</ele>
        <time>2024-07-02T13:31:59Z</time>
      </trkpt>
      <trkpt lat="44.88929" lon="5.23428">
        <ele>1285</ele>
        <time>2024-07-02T13:32:00Z</time>
      </trkpt>
      <trkpt lat="44.8893" lon="5.23429">
        <ele>1285</ele>
        <time>2024-07-02T13:32:01Z</time>
      </trkpt>
      <trkpt lat="44.88931" lon="5.23429">
        <ele>1285</ele>
        <time>2024-07-02T13:32:02Z</time>
      </trkpt>
      <trkpt lat="44.88932" lon="5.23429">
        <ele>1285</ele>
        <time>2024-07-02T13:32:03Z</time>
      </trkpt>
      <trkpt lat="44.88935" lon="5.23429">
        <ele>1285.1</ele>
        <time>2024-07-02T13:32:04Z</time>
      </trkpt>
      <trkpt lat="44.88935" lon="5.23429">
        <ele>1285.1</ele>
        <time>2024-07-02T13:32:05Z</time>
      </trkpt>
      <trkpt lat="44.88936" lon="5.23429">
        <ele>1285.1</ele>
        <time>2024-07-02T13:32:06Z</time>
      </trkpt>
      <trkpt lat="44.88938" lon="5.2343">
        <ele>1285.1</ele>
        <time>2024-07-02T13:32:07Z</time>
      </trkpt>
      <trkpt lat="44.88939" lon="5.2343">
        <ele>1285.1</ele>
        <time>2024-07-02T13:32:08Z</time>
      </trkpt>
      <trkpt lat="44.8894" lon="5.2343">
        <ele>1285.1</ele>
        <time>2024-07-02T13:32:09Z</time>
      </trkpt>
      <trkpt lat="44.8894" lon="5.2343">
        <ele>1285.1</ele>
        <time>2024-07-02T13:32:10Z</time>
      </trkpt>
      <trkpt lat="44.88942" lon="5.2343">
        <ele>1285.1</ele>
        <time>2024-07-02T13:32:11Z</time>
      </trkpt>
      <trkpt lat="44.88943" lon="5.23431">
        <ele>1285.1</ele>
        <time>2024-07-02T13:32:12Z</time>
      </trkpt>
      <trkpt lat="44.88944" lon="5.23431">
        <ele>1285.2</ele>
        <time>2024-07-02T13:32:13Z</time>
      </trkpt>
      <trkpt lat="44.88946" lon="5.23431">
        <ele>1285.2</ele>
        <time>2024-07-02T13:32:14Z</time>
      </trkpt>
      <trkpt lat="44.88946" lon="5.23431">
        <ele>1285.2</ele>
        <time>2024-07-02T13:32:15Z</time>
      </trkpt>
      <trkpt lat="44.88948" lon="5.23432">
        <ele>1285.2</ele>
        <time>2024-07-02T13:32:16Z</time>
      </trkpt>
      <trkpt lat="44.88949" lon="5.23432">
        <ele>1285.2</ele>
        <time>2024-07-02T13:32:17Z</time>
      </trkpt>
      <trkpt lat="44.8895" lon="5.23432">
        <ele>1285.2</ele>
        <time>2024-07-02T13:32:18Z</time>
      </trkpt>
      <trkpt lat="44.88951" lon="5.23433">
        <ele>1285.3</ele>
        <time>2024-07-02T13:32:19Z</time>
      </trkpt>
      <trkpt lat="44.88952" lon="5.23433">
        <ele>1285.3</ele>
        <time>2024-07-02T13:32:20Z</time>
      </trkpt>
      <trkpt lat="44.88953" lon="5.23434">
        <ele>1285.3</ele>
        <time>2024-07-02T13:32:21Z</time>
      </trkpt>
      <trkpt lat="44.88954" lon="5.23434">
        <ele>1285.3</ele>
        <time>2024-07-02T13:32:22Z</time>
      </trkpt>
      <trkpt lat="44.88955" lon="5.23435">
        <ele>1285.4</ele>
        <time>2024-07-02T13:32:23Z</time>
      </trkpt>
      <trkpt lat="44.88956" lon="5.23435">
        <ele>1285.4</ele>
        <time>2024-07-02T13:32:24Z</time>
      </trkpt>
      <trkpt lat="44.88957" lon="5.23436">
        <ele>1285.4</ele>
        <time>2024-07-02T13:32:25Z</time>
      </trkpt>
      <trkpt lat="44.88958" lon="5.23436">
        <ele>1285.5</ele>
        <time>2024-07-02T13:32:26Z</time>
      </trkpt>
      <trkpt lat="44.8896" lon="5.23437">
        <ele>1285.5</ele>
        <time>2024-07-02T13:32:27Z</time>
      </trkpt>
      <trkpt lat="44.88961" lon="5.23437">
        <ele>1285.6</ele>
        <time>2024-07-02T13:32:28Z</time>
      </trkpt>
      <trkpt lat="44.88962" lon="5.23437">
        <ele>1285.6</ele>
        <time>2024-07-02T13:32:29Z</time>
      </trkpt>
      <trkpt lat="44.88964" lon="5.23438">
        <ele>1285.7</ele>
        <time>2024-07-02T13:32:30Z</time>
      </trkpt>
      <trkpt lat="44.88965" lon="5.23438">
        <ele>1285.7</ele>
        <time>2024-07-02T13:32:31Z</time>
      </trkpt>
      <trkpt lat="44.88966" lon="5.23438">
        <ele>1285.7</ele>
        <time>2024-07-02T13:32:32Z</time>
      </trkpt>
      <trkpt lat="44.88967" lon="5.23438">
        <ele>1285.8</ele>
        <time>2024-07-02T13:32:33Z</time>
      </trkpt>
      <trkpt lat="44.88968" lon="5.23439">
        <ele>1285.8</ele>
        <time>2024-07-02T13:32:34Z</time>
      </trkpt>
      <trkpt lat="44.88969" lon="5.23438">
        <ele>1285.9</ele>
        <time>2024-07-02T13:32:35Z</time>
      </trkpt>
      <trkpt lat="44.88971" lon="5.23438">
        <ele>1285.9</ele>
        <time>2024-07-02T13:32:36Z</time>
      </trkpt>
      <trkpt lat="44.88972" lon="5.23438">
        <ele>1286</ele>
        <time>2024-07-02T13:32:37Z</time>
      </trkpt>
      <trkpt lat="44.88973" lon="5.23438">
        <ele>1286</ele>
        <time>2024-07-02T13:32:38Z</time>
      </trkpt>
      <trkpt lat="44.88974" lon="5.23439">
        <ele>1286</ele>
        <time>2024-07-02T13:32:39Z</time>
      </trkpt>
      <trkpt lat="44.88975" lon="5.23439">
        <ele>1286.1</ele>
        <time>2024-07-02T13:32:40Z</time>
      </trkpt>
      <trkpt lat="44.88976" lon="5.23439">
        <ele>1286.1</ele>
        <time>2024-07-02T13:32:41Z</time>
      </trkpt>
      <trkpt lat="44.88978" lon="5.2344">
        <ele>1286.2</ele>
        <time>2024-07-02T13:32:42Z</time>
      </trkpt>
      <trkpt lat="44.88979" lon="5.2344">
        <ele>1286.2</ele>
        <time>2024-07-02T13:32:43Z</time>
      </trkpt>
      <trkpt lat="44.8898" lon="5.2344">
        <ele>1286.2</ele>
        <time>2024-07-02T13:32:44Z</time>
      </trkpt>
      <trkpt lat="44.88981" lon="5.23441">
        <ele>1286.3</ele>
        <time>2024-07-02T13:32:45Z</time>
      </trkpt>
      <trkpt lat="44.88982" lon="5.23441">
        <ele>1286.3</ele>
        <time>2024-07-02T13:32:46Z</time>
      </trkpt>
      <trkpt lat="44.88983" lon="5.23442">
        <ele>1286.4</ele>
        <time>2024-07-02T13:32:47Z</time>
      </trkpt>
      <trkpt lat="44.88985" lon="5.23443">
        <ele>1286.4</ele>
        <time>2024-07-02T13:32:48Z</time>
      </trkpt>
      <trkpt lat="44.88986" lon="5.23443">
        <ele>1286.5</ele>
        <time>2024-07-02T13:32:49Z</time>
      </trkpt>
      <trkpt lat="44.88987" lon="5.23444">
        <ele>1286.5</ele>
        <time>2024-07-02T13:32:50Z</time>
      </trkpt>
      <trkpt lat="44.88988" lon="5.23444">
        <ele>1286.5</ele>
        <time>2024-07-02T13:32:51Z</time>
      </trkpt>
      <trkpt lat="44.88989" lon="5.23445">
        <ele>1286.6</ele>
        <time>2024-07-02T13:32:52Z</time>
      </trkpt>
      <trkpt lat="44.8899" lon="5.23446">
        <ele>1286.6</ele>
        <time>2024-07-02T13:32:53Z</time>
      </trkpt>
      <trkpt lat="44.88991" lon="5.23446">
        <ele>1286.7</ele>
        <time>2024-07-02T13:32:54Z</time>
      </trkpt>
      <trkpt lat="44.88993" lon="5.23447">
        <ele>1286.7</ele>
        <time>2024-07-02T13:32:55Z</time>
      </trkpt>
      <trkpt lat="44.88994" lon="5.23448">
        <ele>1286.8</ele>
        <time>2024-07-02T13:32:56Z</time>
      </trkpt>
      <trkpt lat="44.88995" lon="5.23449">
        <ele>1286.8</ele>
        <time>2024-07-02T13:32:57Z</time>
      </trkpt>
      <trkpt lat="44.88996" lon="5.2345">
        <ele>1286.9</ele>
        <time>2024-07-02T13:32:58Z</time>
      </trkpt>
      <trkpt lat="44.88997" lon="5.23451">
        <ele>1286.9</ele>
        <time>2024-07-02T13:32:59Z</time>
      </trkpt>
      <trkpt lat="44.88999" lon="5.23452">
        <ele>1287</ele>
        <time>2024-07-02T13:33:00Z</time>
      </trkpt>
      <trkpt lat="44.88999" lon="5.23453">
        <ele>1287</ele>
        <time>2024-07-02T13:33:01Z</time>
      </trkpt>
      <trkpt lat="44.89" lon="5.23454">
        <ele>1287.1</ele>
        <time>2024-07-02T13:33:02Z</time>
      </trkpt>
      <trkpt lat="44.89001" lon="5.23455">
        <ele>1287.1</ele>
        <time>2024-07-02T13:33:03Z</time>
      </trkpt>
      <trkpt lat="44.89002" lon="5.23456">
        <ele>1287.2</ele>
        <time>2024-07-02T13:33:04Z</time>
      </trkpt>
      <trkpt lat="44.89003" lon="5.23457">
        <ele>1287.2</ele>
        <time>2024-07-02T13:33:05Z</time>
      </trkpt>
      <trkpt lat="44.89004" lon="5.23457">
        <ele>1287.3</ele>
        <time>2024-07-02T13:33:06Z</time>
      </trkpt>
      <trkpt lat="44.89005" lon="5.23458">
        <ele>1287.3</ele>
        <time>2024-07-02T13:33:07Z</time>
      </trkpt>
      <trkpt lat="44.89006" lon="5.23459">
        <ele>1287.4</ele>
        <time>2024-07-02T13:33:08Z</time>
      </trkpt>
      <trkpt lat="44.89007" lon="5.23459">
        <ele>1287.5</ele>
        <time>2024-07-02T13:33:09Z</time>
      </trkpt>
      <trkpt lat="44.89008" lon="5.2346">
        <ele>1287.5</ele>
        <time>2024-07-02T13:33:10Z</time>
      </trkpt>
      <trkpt lat="44.89009" lon="5.2346">
        <ele>1287.6</ele>
        <time>2024-07-02T13:33:11Z</time>
      </trkpt>
      <trkpt lat="44.8901" lon="5.2346">
        <ele>1287.6</ele>
        <time>2024-07-02T13:33:12Z</time>
      </trkpt>
      <trkpt lat="44.89011" lon="5.2346">
        <ele>1287.7</ele>
        <time>2024-07-02T13:33:13Z</time>
      </trkpt>
      <trkpt lat="44.89013" lon="5.2346">
        <ele>1287.7</ele>
        <time>2024-07-02T13:33:14Z</time>
      </trkpt>
      <trkpt lat="44.89014" lon="5.2346">
        <ele>1287.8</ele>
        <time>2024-07-02T13:33:15Z</time>
      </trkpt>
      <trkpt lat="44.89015" lon="5.2346">
        <ele>1287.9</ele>
        <time>2024-07-02T13:33:16Z</time>
      </trkpt>
      <trkpt lat="44.89016" lon="5.2346">
        <ele>1287.9</ele>
        <time>2024-07-02T13:33:17Z</time>
      </trkpt>
      <trkpt lat="44.89017" lon="5.23459">
        <ele>1288</ele>
        <time>2024-07-02T13:33:18Z</time>
      </trkpt>
      <trkpt lat="44.89018" lon="5.23458">
        <ele>1288.1</ele>
        <time>2024-07-02T13:33:19Z</time>
      </trkpt>
      <trkpt lat="44.89019" lon="5.23457">
        <ele>1288.1</ele>
        <time>2024-07-02T13:33:20Z</time>
      </trkpt>
      <trkpt lat="44.89019" lon="5.23457">
        <ele>1288.2</ele>
        <time>2024-07-02T13:33:21Z</time>
      </trkpt>
      <trkpt lat="44.8902" lon="5.23456">
        <ele>1288.2</ele>
        <time>2024-07-02T13:33:22Z</time>
      </trkpt>
      <trkpt lat="44.89021" lon="5.23457">
        <ele>1288.3</ele>
        <time>2024-07-02T13:33:23Z</time>
      </trkpt>
      <trkpt lat="44.89023" lon="5.23458">
        <ele>1288.4</ele>
        <time>2024-07-02T13:33:24Z</time>
      </trkpt>
      <trkpt lat="44.89024" lon="5.23458">
        <ele>1288.5</ele>
        <time>2024-07-02T13:33:25Z</time>
      </trkpt>
      <trkpt lat="44.89026" lon="5.23459">
        <ele>1288.6</ele>
        <time>2024-07-02T13:33:26Z</time>
      </trkpt>
      <trkpt lat="44.89027" lon="5.2346">
        <ele>1288.7</ele>
        <time>2024-07-02T13:33:27Z</time>
      </trkpt>
      <trkpt lat="44.89029" lon="5.23461">
        <ele>1288.8</ele>
        <time>2024-07-02T13:33:28Z</time>
      </trkpt>
      <trkpt lat="44.8903" lon="5.23461">
        <ele>1289</ele>
        <time>2024-07-02T13:33:29Z</time>
      </trkpt>
      <trkpt lat="44.89031" lon="5.23462">
        <ele>1289.1</ele>
        <time>2024-07-02T13:33:30Z</time>
      </trkpt>
      <trkpt lat="44.89032" lon="5.23462">
        <ele>1289.1</ele>
        <time>2024-07-02T13:33:31Z</time>
      </trkpt>
      <trkpt lat="44.89033" lon="5.23463">
        <ele>1289.2</ele>
        <time>2024-07-02T13:33:32Z</time>
      </trkpt>
      <trkpt lat="44.89034" lon="5.23464">
        <ele>1289.3</ele>
        <time>2024-07-02T13:33:33Z</time>
      </trkpt>
      <trkpt lat="44.89034" lon="5.23465">
        <ele>1289.3</ele>
        <time>2024-07-02T13:33:34Z</time>
      </trkpt>
      <trkpt lat="44.89035" lon="5.23467">
        <ele>1289.5</ele>
        <time>2024-07-02T13:33:35Z</time>
      </trkpt>
      <trkpt lat="44.89036" lon="5.23467">
        <ele>1289.5</ele>
        <time>2024-07-02T13:33:36Z</time>
      </trkpt>
      <trkpt lat="44.89037" lon="5.23468">
        <ele>1289.6</ele>
        <time>2024-07-02T13:33:37Z</time>
      </trkpt>
      <trkpt lat="44.89038" lon="5.23468">
        <ele>1289.7</ele>
        <time>2024-07-02T13:33:38Z</time>
      </trkpt>
      <trkpt lat="44.89039" lon="5.23469">
        <ele>1289.8</ele>
        <time>2024-07-02T13:33:39Z</time>
      </trkpt>
      <trkpt lat="44.8904" lon="5.2347">
        <ele>1289.9</ele>
        <time>2024-07-02T13:33:40Z</time>
      </trkpt>
      <trkpt lat="44.89041" lon="5.23471">
        <ele>1290</ele>
        <time>2024-07-02T13:33:41Z</time>
      </trkpt>
      <trkpt lat="44.89043" lon="5.23473">
        <ele>1290.1</ele>
        <time>2024-07-02T13:33:42Z</time>
      </trkpt>
      <trkpt lat="44.89043" lon="5.23473">
        <ele>1290.2</ele>
        <time>2024-07-02T13:33:43Z</time>
      </trkpt>
      <trkpt lat="44.89044" lon="5.23474">
        <ele>1290.2</ele>
        <time>2024-07-02T13:33:44Z</time>
      </trkpt>
      <trkpt lat="44.89046" lon="5.23474">
        <ele>1290.4</ele>
        <time>2024-07-02T13:33:45Z</time>
      </trkpt>
      <trkpt lat="44.89047" lon="5.23474">
        <ele>1290.5</ele>
        <time>2024-07-02T13:33:46Z</time>
      </trkpt>
      <trkpt lat="44.89048" lon="5.23474">
        <ele>1290.5</ele>
        <time>2024-07-02T13:33:47Z</time>
      </trkpt>
      <trkpt lat="44.8905" lon="5.23475">
        <ele>1290.7</ele>
        <time>2024-07-02T13:33:48Z</time>
      </trkpt>
      <trkpt lat="44.89051" lon="5.23475">
        <ele>1290.7</ele>
        <time>2024-07-02T13:33:49Z</time>
      </trkpt>
      <trkpt lat="44.89052" lon="5.23475">
        <ele>1290.8</ele>
        <time>2024-07-02T13:33:50Z</time>
      </trkpt>
      <trkpt lat="44.89052" lon="5.23475">
        <ele>1290.8</ele>
        <time>2024-07-02T13:33:51Z</time>
      </trkpt>
      <trkpt lat="44.89054" lon="5.23476">
        <ele>1290.9</ele>
        <time>2024-07-02T13:33:52Z</time>
      </trkpt>
      <trkpt lat="44.89055" lon="5.23476">
        <ele>1291</ele>
        <time>2024-07-02T13:33:53Z</time>
      </trkpt>
      <trkpt lat="44.89056" lon="5.23476">
        <ele>1291</ele>
        <time>2024-07-02T13:33:54Z</time>
      </trkpt>
      <trkpt lat="44.89058" lon="5.23477">
        <ele>1291.1</ele>
        <time>2024-07-02T13:33:55Z</time>
      </trkpt>
      <trkpt lat="44.89058" lon="5.23476">
        <ele>1291.1</ele>
        <time>2024-07-02T13:33:56Z</time>
      </trkpt>
      <trkpt lat="44.89059" lon="5.23475">
        <ele>1291.2</ele>
        <time>2024-07-02T13:33:57Z</time>
      </trkpt>
      <trkpt lat="44.8906" lon="5.23475">
        <ele>1291.2</ele>
        <time>2024-07-02T13:33:58Z</time>
      </trkpt>
      <trkpt lat="44.89061" lon="5.23474">
        <ele>1291.3</ele>
        <time>2024-07-02T13:33:59Z</time>
      </trkpt>
      <trkpt lat="44.89062" lon="5.23473">
        <ele>1291.3</ele>
        <time>2024-07-02T13:34:00Z</time>
      </trkpt>
      <trkpt lat="44.89063" lon="5.23472">
        <ele>1291.3</ele>
        <time>2024-07-02T13:34:01Z</time>
      </trkpt>
      <trkpt lat="44.89063" lon="5.23472">
        <ele>1291.4</ele>
        <time>2024-07-02T13:34:02Z</time>
      </trkpt>
      <trkpt lat="44.89065" lon="5.23471">
        <ele>1291.4</ele>
        <time>2024-07-02T13:34:03Z</time>
      </trkpt>
      <trkpt lat="44.89066" lon="5.23471">
        <ele>1291.4</ele>
        <time>2024-07-02T13:34:04Z</time>
      </trkpt>
      <trkpt lat="44.89067" lon="5.2347">
        <ele>1291.5</ele>
        <time>2024-07-02T13:34:05Z</time>
      </trkpt>
      <trkpt lat="44.89068" lon="5.2347">
        <ele>1291.5</ele>
        <time>2024-07-02T13:34:06Z</time>
      </trkpt>
      <trkpt lat="44.89068" lon="5.23469">
        <ele>1291.5</ele>
        <time>2024-07-02T13:34:07Z</time>
      </trkpt>
      <trkpt lat="44.8907" lon="5.23469">
        <ele>1291.5</ele>
        <time>2024-07-02T13:34:08Z</time>
      </trkpt>
      <trkpt lat="44.89071" lon="5.23469">
        <ele>1291.6</ele>
        <time>2024-07-02T13:34:09Z</time>
      </trkpt>
      <trkpt lat="44.89072" lon="5.23469">
        <ele>1291.6</ele>
        <time>2024-07-02T13:34:10Z</time>
      </trkpt>
      <trkpt lat="44.89073" lon="5.23468">
        <ele>1291.6</ele>
        <time>2024-07-02T13:34:11Z</time>
      </trkpt>
      <trkpt lat="44.89074" lon="5.23468">
        <ele>1291.6</ele>
        <time>2024-07-02T13:34:12Z</time>
      </trkpt>
      <trkpt lat="44.89075" lon="5.23467">
        <ele>1291.7</ele>
        <time>2024-07-02T13:34:13Z</time>
      </trkpt>
      <trkpt lat="44.89076" lon="5.23466">
        <ele>1291.7</ele>
        <time>2024-07-02T13:34:14Z</time>
      </trkpt>
      <trkpt lat="44.89077" lon="5.23465">
        <ele>1291.7</ele>
        <time>2024-07-02T13:34:15Z</time>
      </trkpt>
      <trkpt lat="44.89078" lon="5.23464">
        <ele>1291.7</ele>
        <time>2024-07-02T13:34:16Z</time>
      </trkpt>
      <trkpt lat="44.89078" lon="5.23463">
        <ele>1291.8</ele>
        <time>2024-07-02T13:34:17Z</time>
      </trkpt>
      <trkpt lat="44.8908" lon="5.23463">
        <ele>1291.8</ele>
        <time>2024-07-02T13:34:18Z</time>
      </trkpt>
      <trkpt lat="44.8908" lon="5.23462">
        <ele>1291.8</ele>
        <time>2024-07-02T13:34:19Z</time>
      </trkpt>
      <trkpt lat="44.89081" lon="5.23461">
        <ele>1291.8</ele>
        <time>2024-07-02T13:34:20Z</time>
      </trkpt>
      <trkpt lat="44.89082" lon="5.2346">
        <ele>1291.9</ele>
        <time>2024-07-02T13:34:21Z</time>
      </trkpt>
      <trkpt lat="44.89083" lon="5.23459">
        <ele>1291.9</ele>
        <time>2024-07-02T13:34:22Z</time>
      </trkpt>
      <trkpt lat="44.89085" lon="5.23457">
        <ele>1292</ele>
        <time>2024-07-02T13:34:23Z</time>
      </trkpt>
      <trkpt lat="44.89086" lon="5.23457">
        <ele>1292</ele>
        <time>2024-07-02T13:34:24Z</time>
      </trkpt>
      <trkpt lat="44.89086" lon="5.23456">
        <ele>1292</ele>
        <time>2024-07-02T13:34:25Z</time>
      </trkpt>
      <trkpt lat="44.89087" lon="5.23455">
        <ele>1292</ele>
        <time>2024-07-02T13:34:26Z</time>
      </trkpt>
      <trkpt lat="44.89088" lon="5.23455">
        <ele>1292.1</ele>
        <time>2024-07-02T13:34:27Z</time>
      </trkpt>
      <trkpt lat="44.89089" lon="5.23454">
        <ele>1292.1</ele>
        <time>2024-07-02T13:34:28Z</time>
      </trkpt>
      <trkpt lat="44.8909" lon="5.23453">
        <ele>1292.1</ele>
        <time>2024-07-02T13:34:29Z</time>
      </trkpt>
      <trkpt lat="44.89091" lon="5.23451">
        <ele>1292.2</ele>
        <time>2024-07-02T13:34:30Z</time>
      </trkpt>
      <trkpt lat="44.89092" lon="5.2345">
        <ele>1292.2</ele>
        <time>2024-07-02T13:34:31Z</time>
      </trkpt>
      <trkpt lat="44.89093" lon="5.2345">
        <ele>1292.3</ele>
        <time>2024-07-02T13:34:32Z</time>
      </trkpt>
      <trkpt lat="44.89094" lon="5.23449">
        <ele>1292.3</ele>
        <time>2024-07-02T13:34:33Z</time>
      </trkpt>
      <trkpt lat="44.89095" lon="5.23448">
        <ele>1292.4</ele>
        <time>2024-07-02T13:34:34Z</time>
      </trkpt>
      <trkpt lat="44.89096" lon="5.23446">
        <ele>1292.4</ele>
        <time>2024-07-02T13:34:35Z</time>
      </trkpt>
      <trkpt lat="44.89096" lon="5.23445">
        <ele>1292.5</ele>
        <time>2024-07-02T13:34:36Z</time>
      </trkpt>
      <trkpt lat="44.89097" lon="5.23444">
        <ele>1292.5</ele>
        <time>2024-07-02T13:34:37Z</time>
      </trkpt>
      <trkpt lat="44.89098" lon="5.23443">
        <ele>1292.6</ele>
        <time>2024-07-02T13:34:38Z</time>
      </trkpt>
      <trkpt lat="44.89099" lon="5.23442">
        <ele>1292.6</ele>
        <time>2024-07-02T13:34:39Z</time>
      </trkpt>
      <trkpt lat="44.89099" lon="5.23441">
        <ele>1292.6</ele>
        <time>2024-07-02T13:34:40Z</time>
      </trkpt>
      <trkpt lat="44.89101" lon="5.23441">
        <ele>1292.7</ele>
        <time>2024-07-02T13:34:41Z</time>
      </trkpt>
      <trkpt lat="44.89102" lon="5.2344">
        <ele>1292.8</ele>
        <time>2024-07-02T13:34:42Z</time>
      </trkpt>
      <trkpt lat="44.89103" lon="5.2344">
        <ele>1292.8</ele>
        <time>2024-07-02T13:34:43Z</time>
      </trkpt>
      <trkpt lat="44.89104" lon="5.23439">
        <ele>1292.9</ele>
        <time>2024-07-02T13:34:44Z</time>
      </trkpt>
      <trkpt lat="44.89105" lon="5.23439">
        <ele>1292.9</ele>
        <time>2024-07-02T13:34:45Z</time>
      </trkpt>
      <trkpt lat="44.89106" lon="5.23438">
        <ele>1293</ele>
        <time>2024-07-02T13:34:46Z</time>
      </trkpt>
      <trkpt lat="44.89107" lon="5.23438">
        <ele>1293</ele>
        <time>2024-07-02T13:34:47Z</time>
      </trkpt>
      <trkpt lat="44.89108" lon="5.23438">
        <ele>1293.1</ele>
        <time>2024-07-02T13:34:48Z</time>
      </trkpt>
      <trkpt lat="44.89109" lon="5.23438">
        <ele>1293.2</ele>
        <time>2024-07-02T13:34:49Z</time>
      </trkpt>
      <trkpt lat="44.89111" lon="5.23438">
        <ele>1293.2</ele>
        <time>2024-07-02T13:34:50Z</time>
      </trkpt>
      <trkpt lat="44.89111" lon="5.23438">
        <ele>1293.3</ele>
        <time>2024-07-02T13:34:51Z</time>
      </trkpt>
      <trkpt lat="44.89112" lon="5.23438">
        <ele>1293.3</ele>
        <time>2024-07-02T13:34:52Z</time>
      </trkpt>
      <trkpt lat="44.89114" lon="5.23438">
        <ele>1293.5</ele>
        <time>2024-07-02T13:34:53Z</time>
      </trkpt>
      <trkpt lat="44.89115" lon="5.23438">
        <ele>1293.5</ele>
        <time>2024-07-02T13:34:54Z</time>
      </trkpt>
      <trkpt lat="44.89116" lon="5.23439">
        <ele>1293.6</ele>
        <time>2024-07-02T13:34:55Z</time>
      </trkpt>
      <trkpt lat="44.89117" lon="5.23439">
        <ele>1293.6</ele>
        <time>2024-07-02T13:34:56Z</time>
      </trkpt>
      <trkpt lat="44.89118" lon="5.23438">
        <ele>1293.7</ele>
        <time>2024-07-02T13:34:57Z</time>
      </trkpt>
      <trkpt lat="44.89119" lon="5.23438">
        <ele>1293.7</ele>
        <time>2024-07-02T13:34:58Z</time>
      </trkpt>
      <trkpt lat="44.89121" lon="5.23439">
        <ele>1293.8</ele>
        <time>2024-07-02T13:34:59Z</time>
      </trkpt>
      <trkpt lat="44.89122" lon="5.23439">
        <ele>1293.9</ele>
        <time>2024-07-02T13:35:00Z</time>
      </trkpt>
      <trkpt lat="44.89123" lon="5.2344">
        <ele>1293.9</ele>
        <time>2024-07-02T13:35:01Z</time>
      </trkpt>
      <trkpt lat="44.89124" lon="5.2344">
        <ele>1294</ele>
        <time>2024-07-02T13:35:02Z</time>
      </trkpt>
      <trkpt lat="44.89125" lon="5.2344">
        <ele>1294.1</ele>
        <time>2024-07-02T13:35:03Z</time>
      </trkpt>
      <trkpt lat="44.89126" lon="5.23441">
        <ele>1294.1</ele>
        <time>2024-07-02T13:35:04Z</time>
      </trkpt>
      <trkpt lat="44.89127" lon="5.23442">
        <ele>1294.2</ele>
        <time>2024-07-02T13:35:05Z</time>
      </trkpt>
      <trkpt lat="44.89128" lon="5.23442">
        <ele>1294.3</ele>
        <time>2024-07-02T13:35:06Z</time>
      </trkpt>
      <trkpt lat="44.89129" lon="5.23442">
        <ele>1294.3</ele>
        <time>2024-07-02T13:35:07Z</time>
      </trkpt>
      <trkpt lat="44.8913" lon="5.23443">
        <ele>1294.4</ele>
        <time>2024-07-02T13:35:08Z</time>
      </trkpt>
      <trkpt lat="44.89131" lon="5.23444">
        <ele>1294.4</ele>
        <time>2024-07-02T13:35:09Z</time>
      </trkpt>
      <trkpt lat="44.89132" lon="5.23444">
        <ele>1294.5</ele>
        <time>2024-07-02T13:35:10Z</time>
      </trkpt>
      <trkpt lat="44.89133" lon="5.23444">
        <ele>1294.6</ele>
        <time>2024-07-02T13:35:11Z</time>
      </trkpt>
      <trkpt lat="44.89134" lon="5.23445">
        <ele>1294.6</ele>
        <time>2024-07-02T13:35:12Z</time>
      </trkpt>
      <trkpt lat="44.89135" lon="5.23445">
        <ele>1294.7</ele>
        <time>2024-07-02T13:35:13Z</time>
      </trkpt>
      <trkpt lat="44.89136" lon="5.23446">
        <ele>1294.8</ele>
        <time>2024-07-02T13:35:14Z</time>
      </trkpt>
      <trkpt lat="44.89137" lon="5.23446">
        <ele>1294.9</ele>
        <time>2024-07-02T13:35:15Z</time>
      </trkpt>
      <trkpt lat="44.89138" lon="5.23447">
        <ele>1294.9</ele>
        <time>2024-07-02T13:35:16Z</time>
      </trkpt>
      <trkpt lat="44.89139" lon="5.23447">
        <ele>1295</ele>
        <time>2024-07-02T13:35:17Z</time>
      </trkpt>
      <trkpt lat="44.8914" lon="5.23448">
        <ele>1295.1</ele>
        <time>2024-07-02T13:35:18Z</time>
      </trkpt>
      <trkpt lat="44.89142" lon="5.23448">
        <ele>1295.1</ele>
        <time>2024-07-02T13:35:19Z</time>
      </trkpt>
      <trkpt lat="44.89143" lon="5.23448">
        <ele>1295.2</ele>
        <time>2024-07-02T13:35:20Z</time>
      </trkpt>
      <trkpt lat="44.89144" lon="5.23449">
        <ele>1295.3</ele>
        <time>2024-07-02T13:35:21Z</time>
      </trkpt>
      <trkpt lat="44.89145" lon="5.23449">
        <ele>1295.3</ele>
        <time>2024-07-02T13:35:22Z</time>
      </trkpt>
      <trkpt lat="44.89147" lon="5.2345">
        <ele>1295.5</ele>
        <time>2024-07-02T13:35:23Z</time>
      </trkpt>
      <trkpt lat="44.89148" lon="5.23451">
        <ele>1295.5</ele>
        <time>2024-07-02T13:35:24Z</time>
      </trkpt>
      <trkpt lat="44.89149" lon="5.23451">
        <ele>1295.6</ele>
        <time>2024-07-02T13:35:25Z</time>
      </trkpt>
      <trkpt lat="44.89149" lon="5.23451">
        <ele>1295.6</ele>
        <time>2024-07-02T13:35:26Z</time>
      </trkpt>
      <trkpt lat="44.89151" lon="5.23451">
        <ele>1295.7</ele>
        <time>2024-07-02T13:35:27Z</time>
      </trkpt>
      <trkpt lat="44.89152" lon="5.23452">
        <ele>1295.8</ele>
        <time>2024-07-02T13:35:28Z</time>
      </trkpt>
      <trkpt lat="44.89153" lon="5.23452">
        <ele>1295.8</ele>
        <time>2024-07-02T13:35:29Z</time>
      </trkpt>
      <trkpt lat="44.89154" lon="5.23453">
        <ele>1296</ele>
        <time>2024-07-02T13:35:30Z</time>
      </trkpt>
      <trkpt lat="44.89155" lon="5.23453">
        <ele>1296</ele>
        <time>2024-07-02T13:35:31Z</time>
      </trkpt>
      <trkpt lat="44.89156" lon="5.23453">
        <ele>1296.1</ele>
        <time>2024-07-02T13:35:32Z</time>
      </trkpt>
      <trkpt lat="44.89157" lon="5.23453">
        <ele>1296.2</ele>
        <time>2024-07-02T13:35:33Z</time>
      </trkpt>
      <trkpt lat="44.89158" lon="5.23452">
        <ele>1296.3</ele>
        <time>2024-07-02T13:35:34Z</time>
      </trkpt>
      <trkpt lat="44.8916" lon="5.23452">
        <ele>1296.4</ele>
        <time>2024-07-02T13:35:35Z</time>
      </trkpt>
      <trkpt lat="44.89161" lon="5.23452">
        <ele>1296.4</ele>
        <time>2024-07-02T13:35:36Z</time>
      </trkpt>
      <trkpt lat="44.89162" lon="5.23452">
        <ele>1296.5</ele>
        <time>2024-07-02T13:35:37Z</time>
      </trkpt>
      <trkpt lat="44.89164" lon="5.23452">
        <ele>1296.7</ele>
        <time>2024-07-02T13:35:38Z</time>
      </trkpt>
      <trkpt lat="44.89165" lon="5.23452">
        <ele>1296.8</ele>
        <time>2024-07-02T13:35:39Z</time>
      </trkpt>
      <trkpt lat="44.89166" lon="5.23452">
        <ele>1296.8</ele>
        <time>2024-07-02T13:35:40Z</time>
      </trkpt>
      <trkpt lat="44.89167" lon="5.23451">
        <ele>1297</ele>
        <time>2024-07-02T13:35:41Z</time>
      </trkpt>
      <trkpt lat="44.89168" lon="5.23451">
        <ele>1297</ele>
        <time>2024-07-02T13:35:42Z</time>
      </trkpt>
      <trkpt lat="44.89169" lon="5.23451">
        <ele>1297.1</ele>
        <time>2024-07-02T13:35:43Z</time>
      </trkpt>
      <trkpt lat="44.8917" lon="5.23451">
        <ele>1297.1</ele>
        <time>2024-07-02T13:35:44Z</time>
      </trkpt>
      <trkpt lat="44.89171" lon="5.23451">
        <ele>1297.3</ele>
        <time>2024-07-02T13:35:45Z</time>
      </trkpt>
      <trkpt lat="44.89172" lon="5.2345">
        <ele>1297.3</ele>
        <time>2024-07-02T13:35:46Z</time>
      </trkpt>
      <trkpt lat="44.89173" lon="5.23449">
        <ele>1297.4</ele>
        <time>2024-07-02T13:35:47Z</time>
      </trkpt>
      <trkpt lat="44.89175" lon="5.23448">
        <ele>1297.6</ele>
        <time>2024-07-02T13:35:48Z</time>
      </trkpt>
      <trkpt lat="44.89175" lon="5.23447">
        <ele>1297.6</ele>
        <time>2024-07-02T13:35:49Z</time>
      </trkpt>
      <trkpt lat="44.89176" lon="5.23447">
        <ele>1297.7</ele>
        <time>2024-07-02T13:35:50Z</time>
      </trkpt>
      <trkpt lat="44.89177" lon="5.23447">
        <ele>1297.8</ele>
        <time>2024-07-02T13:35:51Z</time>
      </trkpt>
      <trkpt lat="44.89178" lon="5.23446">
        <ele>1297.9</ele>
        <time>2024-07-02T13:35:52Z</time>
      </trkpt>
      <trkpt lat="44.89179" lon="5.23446">
        <ele>1297.9</ele>
        <time>2024-07-02T13:35:53Z</time>
      </trkpt>
      <trkpt lat="44.8918" lon="5.23445">
        <ele>1298</ele>
        <time>2024-07-02T13:35:54Z</time>
      </trkpt>
      <trkpt lat="44.89182" lon="5.23445">
        <ele>1298.1</ele>
        <time>2024-07-02T13:35:55Z</time>
      </trkpt>
      <trkpt lat="44.89183" lon="5.23445">
        <ele>1298.2</ele>
        <time>2024-07-02T13:35:56Z</time>
      </trkpt>
      <trkpt lat="44.89184" lon="5.23445">
        <ele>1298.3</ele>
        <time>2024-07-02T13:35:57Z</time>
      </trkpt>
      <trkpt lat="44.89185" lon="5.23445">
        <ele>1298.4</ele>
        <time>2024-07-02T13:35:58Z</time>
      </trkpt>
      <trkpt lat="44.89186" lon="5.23445">
        <ele>1298.5</ele>
        <time>2024-07-02T13:35:59Z</time>
      </trkpt>
      <trkpt lat="44.89188" lon="5.23444">
        <ele>1298.6</ele>
        <time>2024-07-02T13:36:00Z</time>
      </trkpt>
      <trkpt lat="44.89188" lon="5.23444">
        <ele>1298.6</ele>
        <time>2024-07-02T13:36:01Z</time>
      </trkpt>
      <trkpt lat="44.89189" lon="5.23444">
        <ele>1298.7</ele>
        <time>2024-07-02T13:36:02Z</time>
      </trkpt>
      <trkpt lat="44.89191" lon="5.23444">
        <ele>1298.8</ele>
        <time>2024-07-02T13:36:03Z</time>
      </trkpt>
      <trkpt lat="44.89192" lon="5.23443">
        <ele>1298.9</ele>
        <time>2024-07-02T13:36:04Z</time>
      </trkpt>
      <trkpt lat="44.89193" lon="5.23442">
        <ele>1299</ele>
        <time>2024-07-02T13:36:05Z</time>
      </trkpt>
      <trkpt lat="44.89194" lon="5.23442">
        <ele>1299.1</ele>
        <time>2024-07-02T13:36:06Z</time>
      </trkpt>
      <trkpt lat="44.89195" lon="5.23441">
        <ele>1299.1</ele>
        <time>2024-07-02T13:36:07Z</time>
      </trkpt>
      <trkpt lat="44.89196" lon="5.23441">
        <ele>1299.2</ele>
        <time>2024-07-02T13:36:08Z</time>
      </trkpt>
      <trkpt lat="44.89197" lon="5.23441">
        <ele>1299.3</ele>
        <time>2024-07-02T13:36:09Z</time>
      </trkpt>
      <trkpt lat="44.89199" lon="5.2344">
        <ele>1299.4</ele>
        <time>2024-07-02T13:36:10Z</time>
      </trkpt>
      <trkpt lat="44.892" lon="5.2344">
        <ele>1299.5</ele>
        <time>2024-07-02T13:36:11Z</time>
      </trkpt>
      <trkpt lat="44.89201" lon="5.23439">
        <ele>1299.6</ele>
        <time>2024-07-02T13:36:12Z</time>
      </trkpt>
      <trkpt lat="44.89202" lon="5.23439">
        <ele>1299.6</ele>
        <time>2024-07-02T13:36:13Z</time>
      </trkpt>
      <trkpt lat="44.89203" lon="5.23439">
        <ele>1299.7</ele>
        <time>2024-07-02T13:36:14Z</time>
      </trkpt>
      <trkpt lat="44.89204" lon="5.23439">
        <ele>1299.8</ele>
        <time>2024-07-02T13:36:15Z</time>
      </trkpt>
      <trkpt lat="44.89205" lon="5.23439">
        <ele>1299.8</ele>
        <time>2024-07-02T13:36:16Z</time>
      </trkpt>
      <trkpt lat="44.89206" lon="5.23439">
        <ele>1299.9</ele>
        <time>2024-07-02T13:36:17Z</time>
      </trkpt>
      <trkpt lat="44.89208" lon="5.23439">
        <ele>1300</ele>
        <time>2024-07-02T13:36:18Z</time>
      </trkpt>
      <trkpt lat="44.89209" lon="5.23438">
        <ele>1300.1</ele>
        <time>2024-07-02T13:36:19Z</time>
      </trkpt>
      <trkpt lat="44.8921" lon="5.23438">
        <ele>1300.1</ele>
        <time>2024-07-02T13:36:20Z</time>
      </trkpt>
      <trkpt lat="44.8921" lon="5.23438">
        <ele>1300.2</ele>
        <time>2024-07-02T13:36:21Z</time>
      </trkpt>
      <trkpt lat="44.89212" lon="5.23438">
        <ele>1300.2</ele>
        <time>2024-07-02T13:36:22Z</time>
      </trkpt>
      <trkpt lat="44.89213" lon="5.23438">
        <ele>1300.3</ele>
        <time>2024-07-02T13:36:23Z</time>
      </trkpt>
      <trkpt lat="44.89214" lon="5.23437">
        <ele>1300.3</ele>
        <time>2024-07-02T13:36:24Z</time>
      </trkpt>
      <trkpt lat="44.89215" lon="5.23438">
        <ele>1300.4</ele>
        <time>2024-07-02T13:36:25Z</time>
      </trkpt>
      <trkpt lat="44.89216" lon="5.23438">
        <ele>1300.5</ele>
        <time>2024-07-02T13:36:26Z</time>
      </trkpt>
      <trkpt lat="44.89217" lon="5.23438">
        <ele>1300.5</ele>
        <time>2024-07-02T13:36:27Z</time>
      </trkpt>
      <trkpt lat="44.89218" lon="5.23439">
        <ele>1300.6</ele>
        <time>2024-07-02T13:36:28Z</time>
      </trkpt>
      <trkpt lat="44.89219" lon="5.23439">
        <ele>1300.7</ele>
        <time>2024-07-02T13:36:29Z</time>
      </trkpt>
      <trkpt lat="44.89221" lon="5.2344">
        <ele>1300.8</ele>
        <time>2024-07-02T13:36:30Z</time>
      </trkpt>
      <trkpt lat="44.89221" lon="5.2344">
        <ele>1300.8</ele>
        <time>2024-07-02T13:36:31Z</time>
      </trkpt>
      <trkpt lat="44.89222" lon="5.2344">
        <ele>1300.9</ele>
        <time>2024-07-02T13:36:32Z</time>
      </trkpt>
      <trkpt lat="44.89223" lon="5.2344">
        <ele>1300.9</ele>
        <time>2024-07-02T13:36:33Z</time>
      </trkpt>
      <trkpt lat="44.89224" lon="5.2344">
        <ele>1301</ele>
        <time>2024-07-02T13:36:34Z</time>
      </trkpt>
      <trkpt lat="44.89225" lon="5.2344">
        <ele>1301.1</ele>
        <time>2024-07-02T13:36:35Z</time>
      </trkpt>
      <trkpt lat="44.89226" lon="5.23441">
        <ele>1301.1</ele>
        <time>2024-07-02T13:36:36Z</time>
      </trkpt>
      <trkpt lat="44.89227" lon="5.23441">
        <ele>1301.2</ele>
        <time>2024-07-02T13:36:37Z</time>
      </trkpt>
      <trkpt lat="44.89228" lon="5.23442">
        <ele>1301.2</ele>
        <time>2024-07-02T13:36:38Z</time>
      </trkpt>
      <trkpt lat="44.89229" lon="5.23441">
        <ele>1301.3</ele>
        <time>2024-07-02T13:36:39Z</time>
      </trkpt>
      <trkpt lat="44.8923" lon="5.23442">
        <ele>1301.3</ele>
        <time>2024-07-02T13:36:40Z</time>
      </trkpt>
      <trkpt lat="44.89231" lon="5.23442">
        <ele>1301.4</ele>
        <time>2024-07-02T13:36:41Z</time>
      </trkpt>
      <trkpt lat="44.89233" lon="5.23442">
        <ele>1301.5</ele>
        <time>2024-07-02T13:36:42Z</time>
      </trkpt>
      <trkpt lat="44.89233" lon="5.23442">
        <ele>1301.5</ele>
        <time>2024-07-02T13:36:43Z</time>
      </trkpt>
      <trkpt lat="44.89234" lon="5.23442">
        <ele>1301.6</ele>
        <time>2024-07-02T13:36:44Z</time>
      </trkpt>
      <trkpt lat="44.89235" lon="5.23442">
        <ele>1301.6</ele>
        <time>2024-07-02T13:36:45Z</time>
      </trkpt>
      <trkpt lat="44.89236" lon="5.23442">
        <ele>1301.7</ele>
        <time>2024-07-02T13:36:46Z</time>
      </trkpt>
      <trkpt lat="44.89237" lon="5.23441">
        <ele>1301.7</ele>
        <time>2024-07-02T13:36:47Z</time>
      </trkpt>
      <trkpt lat="44.89238" lon="5.23441">
        <ele>1301.8</ele>
        <time>2024-07-02T13:36:48Z</time>
      </trkpt>
      <trkpt lat="44.89239" lon="5.23441">
        <ele>1301.8</ele>
        <time>2024-07-02T13:36:49Z</time>
      </trkpt>
      <trkpt lat="44.8924" lon="5.23441">
        <ele>1301.9</ele>
        <time>2024-07-02T13:36:50Z</time>
      </trkpt>
      <trkpt lat="44.89241" lon="5.23441">
        <ele>1301.9</ele>
        <time>2024-07-02T13:36:51Z</time>
      </trkpt>
      <trkpt lat="44.89242" lon="5.23441">
        <ele>1302</ele>
        <time>2024-07-02T13:36:52Z</time>
      </trkpt>
      <trkpt lat="44.89243" lon="5.2344">
        <ele>1302</ele>
        <time>2024-07-02T13:36:53Z</time>
      </trkpt>
      <trkpt lat="44.89244" lon="5.2344">
        <ele>1302.1</ele>
        <time>2024-07-02T13:36:54Z</time>
      </trkpt>
      <trkpt lat="44.89245" lon="5.23439">
        <ele>1302.2</ele>
        <time>2024-07-02T13:36:55Z</time>
      </trkpt>
      <trkpt lat="44.89247" lon="5.23439">
        <ele>1302.2</ele>
        <time>2024-07-02T13:36:56Z</time>
      </trkpt>
      <trkpt lat="44.89247" lon="5.23439">
        <ele>1302.3</ele>
        <time>2024-07-02T13:36:57Z</time>
      </trkpt>
      <trkpt lat="44.89248" lon="5.2344">
        <ele>1302.3</ele>
        <time>2024-07-02T13:36:58Z</time>
      </trkpt>
      <trkpt lat="44.8925" lon="5.2344">
        <ele>1302.4</ele>
        <time>2024-07-02T13:36:59Z</time>
      </trkpt>
      <trkpt lat="44.89251" lon="5.23441">
        <ele>1302.4</ele>
        <time>2024-07-02T13:37:00Z</time>
      </trkpt>
      <trkpt lat="44.89252" lon="5.23441">
        <ele>1302.5</ele>
        <time>2024-07-02T13:37:01Z</time>
      </trkpt>
      <trkpt lat="44.89253" lon="5.23441">
        <ele>1302.5</ele>
        <time>2024-07-02T13:37:02Z</time>
      </trkpt>
      <trkpt lat="44.89254" lon="5.23441">
        <ele>1302.6</ele>
        <time>2024-07-02T13:37:03Z</time>
      </trkpt>
      <trkpt lat="44.89255" lon="5.23442">
        <ele>1302.6</ele>
        <time>2024-07-02T13:37:04Z</time>
      </trkpt>
      <trkpt lat="44.89256" lon="5.23443">
        <ele>1302.7</ele>
        <time>2024-07-02T13:37:05Z</time>
      </trkpt>
      <trkpt lat="44.89257" lon="5.23443">
        <ele>1302.7</ele>
        <time>2024-07-02T13:37:06Z</time>
      </trkpt>
      <trkpt lat="44.89258" lon="5.23443">
        <ele>1302.7</ele>
        <time>2024-07-02T13:37:07Z</time>
      </trkpt>
      <trkpt lat="44.89259" lon="5.23444">
        <ele>1302.8</ele>
        <time>2024-07-02T13:37:08Z</time>
      </trkpt>
      <trkpt lat="44.8926" lon="5.23444">
        <ele>1302.8</ele>
        <time>2024-07-02T13:37:09Z</time>
      </trkpt>
      <trkpt lat="44.89261" lon="5.23444">
        <ele>1302.9</ele>
        <time>2024-07-02T13:37:10Z</time>
      </trkpt>
      <trkpt lat="44.89262" lon="5.23444">
        <ele>1302.9</ele>
        <time>2024-07-02T13:37:11Z</time>
      </trkpt>
      <trkpt lat="44.89264" lon="5.23444">
        <ele>1303</ele>
        <time>2024-07-02T13:37:12Z</time>
      </trkpt>
      <trkpt lat="44.89265" lon="5.23444">
        <ele>1303</ele>
        <time>2024-07-02T13:37:13Z</time>
      </trkpt>
      <trkpt lat="44.89266" lon="5.23444">
        <ele>1303.1</ele>
        <time>2024-07-02T13:37:14Z</time>
      </trkpt>
      <trkpt lat="44.89267" lon="5.23444">
        <ele>1303.1</ele>
        <time>2024-07-02T13:37:15Z</time>
      </trkpt>
      <trkpt lat="44.89268" lon="5.23444">
        <ele>1303.1</ele>
        <time>2024-07-02T13:37:16Z</time>
      </trkpt>
      <trkpt lat="44.89269" lon="5.23444">
        <ele>1303.2</ele>
        <time>2024-07-02T13:37:17Z</time>
      </trkpt>
      <trkpt lat="44.89271" lon="5.23444">
        <ele>1303.2</ele>
        <time>2024-07-02T13:37:18Z</time>
      </trkpt>
      <trkpt lat="44.89273" lon="5.23444">
        <ele>1303.3</ele>
        <time>2024-07-02T13:37:19Z</time>
      </trkpt>
      <trkpt lat="44.89273" lon="5.23443">
        <ele>1303.3</ele>
        <time>2024-07-02T13:37:20Z</time>
      </trkpt>
      <trkpt lat="44.89274" lon="5.23443">
        <ele>1303.3</ele>
        <time>2024-07-02T13:37:21Z</time>
      </trkpt>
      <trkpt lat="44.89275" lon="5.23442">
        <ele>1303.4</ele>
        <time>2024-07-02T13:37:22Z</time>
      </trkpt>
      <trkpt lat="44.89276" lon="5.23441">
        <ele>1303.4</ele>
        <time>2024-07-02T13:37:23Z</time>
      </trkpt>
      <trkpt lat="44.89277" lon="5.23441">
        <ele>1303.4</ele>
        <time>2024-07-02T13:37:24Z</time>
      </trkpt>
      <trkpt lat="44.89279" lon="5.23441">
        <ele>1303.5</ele>
        <time>2024-07-02T13:37:25Z</time>
      </trkpt>
      <trkpt lat="44.8928" lon="5.23441">
        <ele>1303.5</ele>
        <time>2024-07-02T13:37:26Z</time>
      </trkpt>
      <trkpt lat="44.89281" lon="5.23441">
        <ele>1303.5</ele>
        <time>2024-07-02T13:37:27Z</time>
      </trkpt>
      <trkpt lat="44.89282" lon="5.23441">
        <ele>1303.5</ele>
        <time>2024-07-02T13:37:28Z</time>
      </trkpt>
      <trkpt lat="44.89284" lon="5.23441">
        <ele>1303.6</ele>
        <time>2024-07-02T13:37:29Z</time>
      </trkpt>
      <trkpt lat="44.89285" lon="5.23441">
        <ele>1303.6</ele>
        <time>2024-07-02T13:37:30Z</time>
      </trkpt>
      <trkpt lat="44.89286" lon="5.23441">
        <ele>1303.6</ele>
        <time>2024-07-02T13:37:31Z</time>
      </trkpt>
      <trkpt lat="44.89287" lon="5.23441">
        <ele>1303.6</ele>
        <time>2024-07-02T13:37:32Z</time>
      </trkpt>
      <trkpt lat="44.89288" lon="5.23441">
        <ele>1303.7</ele>
        <time>2024-07-02T13:37:33Z</time>
      </trkpt>
      <trkpt lat="44.89289" lon="5.23441">
        <ele>1303.7</ele>
        <time>2024-07-02T13:37:34Z</time>
      </trkpt>
      <trkpt lat="44.8929" lon="5.23441">
        <ele>1303.7</ele>
        <time>2024-07-02T13:37:35Z</time>
      </trkpt>
      <trkpt lat="44.89291" lon="5.23441">
        <ele>1303.7</ele>
        <time>2024-07-02T13:37:36Z</time>
      </trkpt>
      <trkpt lat="44.89292" lon="5.23441">
        <ele>1303.7</ele>
        <time>2024-07-02T13:37:37Z</time>
      </trkpt>
      <trkpt lat="44.89293" lon="5.23442">
        <ele>1303.8</ele>
        <time>2024-07-02T13:37:38Z</time>
      </trkpt>
      <trkpt lat="44.89295" lon="5.23442">
        <ele>1303.8</ele>
        <time>2024-07-02T13:37:39Z</time>
      </trkpt>
      <trkpt lat="44.89296" lon="5.23442">
        <ele>1303.8</ele>
        <time>2024-07-02T13:37:40Z</time>
      </trkpt>
      <trkpt lat="44.89297" lon="5.23442">
        <ele>1303.8</ele>
        <time>2024-07-02T13:37:41Z</time>
      </trkpt>
      <trkpt lat="44.89298" lon="5.23443">
        <ele>1303.8</ele>
        <time>2024-07-02T13:37:42Z</time>
      </trkpt>
      <trkpt lat="44.89299" lon="5.23443">
        <ele>1303.8</ele>
        <time>2024-07-02T13:37:43Z</time>
      </trkpt>
      <trkpt lat="44.893" lon="5.23443">
        <ele>1303.8</ele>
        <time>2024-07-02T13:37:44Z</time>
      </trkpt>
      <trkpt lat="44.89302" lon="5.23442">
        <ele>1303.9</ele>
        <time>2024-07-02T13:37:45Z</time>
      </trkpt>
      <trkpt lat="44.89303" lon="5.23442">
        <ele>1303.9</ele>
        <time>2024-07-02T13:37:46Z</time>
      </trkpt>
      <trkpt lat="44.89304" lon="5.2344">
        <ele>1303.9</ele>
        <time>2024-07-02T13:37:47Z</time>
      </trkpt>
      <trkpt lat="44.89304" lon="5.23439">
        <ele>1303.9</ele>
        <time>2024-07-02T13:37:48Z</time>
      </trkpt>
      <trkpt lat="44.89304" lon="5.23438">
        <ele>1303.9</ele>
        <time>2024-07-02T13:37:49Z</time>
      </trkpt>
      <trkpt lat="44.89305" lon="5.23437">
        <ele>1303.9</ele>
        <time>2024-07-02T13:37:50Z</time>
      </trkpt>
      <trkpt lat="44.89307" lon="5.23435">
        <ele>1303.9</ele>
        <time>2024-07-02T13:37:51Z</time>
      </trkpt>
      <trkpt lat="44.89307" lon="5.23435">
        <ele>1304</ele>
        <time>2024-07-02T13:37:52Z</time>
      </trkpt>
      <trkpt lat="44.89308" lon="5.23435">
        <ele>1304</ele>
        <time>2024-07-02T13:37:53Z</time>
      </trkpt>
      <trkpt lat="44.8931" lon="5.23435">
        <ele>1304</ele>
        <time>2024-07-02T13:37:54Z</time>
      </trkpt>
      <trkpt lat="44.89311" lon="5.23436">
        <ele>1304</ele>
        <time>2024-07-02T13:37:55Z</time>
      </trkpt>
      <trkpt lat="44.89312" lon="5.23437">
        <ele>1304</ele>
        <time>2024-07-02T13:37:56Z</time>
      </trkpt>
      <trkpt lat="44.89314" lon="5.23437">
        <ele>1304</ele>
        <time>2024-07-02T13:37:57Z</time>
      </trkpt>
      <trkpt lat="44.89315" lon="5.23438">
        <ele>1304</ele>
        <time>2024-07-02T13:37:58Z</time>
      </trkpt>
      <trkpt lat="44.89316" lon="5.23438">
        <ele>1304</ele>
        <time>2024-07-02T13:37:59Z</time>
      </trkpt>
      <trkpt lat="44.89318" lon="5.23439">
        <ele>1304</ele>
        <time>2024-07-02T13:38:00Z</time>
      </trkpt>
      <trkpt lat="44.89319" lon="5.23439">
        <ele>1304.1</ele>
        <time>2024-07-02T13:38:01Z</time>
      </trkpt>
      <trkpt lat="44.89319" lon="5.2344">
        <ele>1304.1</ele>
        <time>2024-07-02T13:38:02Z</time>
      </trkpt>
      <trkpt lat="44.89321" lon="5.2344">
        <ele>1304.1</ele>
        <time>2024-07-02T13:38:03Z</time>
      </trkpt>
      <trkpt lat="44.89322" lon="5.2344">
        <ele>1304.1</ele>
        <time>2024-07-02T13:38:04Z</time>
      </trkpt>
      <trkpt lat="44.89323" lon="5.2344">
        <ele>1304.1</ele>
        <time>2024-07-02T13:38:05Z</time>
      </trkpt>
      <trkpt lat="44.89324" lon="5.2344">
        <ele>1304.1</ele>
        <time>2024-07-02T13:38:06Z</time>
      </trkpt>
      <trkpt lat="44.89326" lon="5.23441">
        <ele>1304.1</ele>
        <time>2024-07-02T13:38:07Z</time>
      </trkpt>
      <trkpt lat="44.89327" lon="5.2344">
        <ele>1304.1</ele>
        <time>2024-07-02T13:38:08Z</time>
      </trkpt>
      <trkpt lat="44.89329" lon="5.2344">
        <ele>1304.2</ele>
        <time>2024-07-02T13:38:09Z</time>
      </trkpt>
      <trkpt lat="44.8933" lon="5.2344">
        <ele>1304.2</ele>
        <time>2024-07-02T13:38:10Z</time>
      </trkpt>
      <trkpt lat="44.89331" lon="5.2344">
        <ele>1304.2</ele>
        <time>2024-07-02T13:38:11Z</time>
      </trkpt>
      <trkpt lat="44.89332" lon="5.23441">
        <ele>1304.2</ele>
        <time>2024-07-02T13:38:12Z</time>
      </trkpt>
      <trkpt lat="44.89333" lon="5.2344">
        <ele>1304.2</ele>
        <time>2024-07-02T13:38:13Z</time>
      </trkpt>
      <trkpt lat="44.89334" lon="5.2344">
        <ele>1304.2</ele>
        <time>2024-07-02T13:38:14Z</time>
      </trkpt>
      <trkpt lat="44.89336" lon="5.2344">
        <ele>1304.3</ele>
        <time>2024-07-02T13:38:15Z</time>
      </trkpt>
      <trkpt lat="44.89337" lon="5.2344">
        <ele>1304.3</ele>
        <time>2024-07-02T13:38:16Z</time>
      </trkpt>
      <trkpt lat="44.89338" lon="5.2344">
        <ele>1304.3</ele>
        <time>2024-07-02T13:38:17Z</time>
      </trkpt>
      <trkpt lat="44.8934" lon="5.23439">
        <ele>1304.3</ele>
        <time>2024-07-02T13:38:18Z</time>
      </trkpt>
      <trkpt lat="44.8934" lon="5.23439">
        <ele>1304.3</ele>
        <time>2024-07-02T13:38:19Z</time>
      </trkpt>
      <trkpt lat="44.89341" lon="5.23439">
        <ele>1304.3</ele>
        <time>2024-07-02T13:38:20Z</time>
      </trkpt>
      <trkpt lat="44.89343" lon="5.23439">
        <ele>1304.3</ele>
        <time>2024-07-02T13:38:21Z</time>
      </trkpt>
      <trkpt lat="44.89344" lon="5.23438">
        <ele>1304.4</ele>
        <time>2024-07-02T13:38:22Z</time>
      </trkpt>
      <trkpt lat="44.89345" lon="5.23438">
        <ele>1304.4</ele>
        <time>2024-07-02T13:38:23Z</time>
      </trkpt>
      <trkpt lat="44.89347" lon="5.23437">
        <ele>1304.4</ele>
        <time>2024-07-02T13:38:24Z</time>
      </trkpt>
      <trkpt lat="44.89347" lon="5.23437">
        <ele>1304.4</ele>
        <time>2024-07-02T13:38:25Z</time>
      </trkpt>
      <trkpt lat="44.89348" lon="5.23437">
        <ele>1304.4</ele>
        <time>2024-07-02T13:38:26Z</time>
      </trkpt>
      <trkpt lat="44.89349" lon="5.23437">
        <ele>1304.5</ele>
        <time>2024-07-02T13:38:27Z</time>
      </trkpt>
      <trkpt lat="44.89351" lon="5.23437">
        <ele>1304.5</ele>
        <time>2024-07-02T13:38:28Z</time>
      </trkpt>
      <trkpt lat="44.89352" lon="5.23437">
        <ele>1304.5</ele>
        <time>2024-07-02T13:38:29Z</time>
      </trkpt>
      <trkpt lat="44.89353" lon="5.23437">
        <ele>1304.5</ele>
        <time>2024-07-02T13:38:30Z</time>
      </trkpt>
      <trkpt lat="44.89354" lon="5.23437">
        <ele>1304.5</ele>
        <time>2024-07-02T13:38:31Z</time>
      </trkpt>
      <trkpt lat="44.89355" lon="5.23437">
        <ele>1304.6</ele>
        <time>2024-07-02T13:38:32Z</time>
      </trkpt>
      <trkpt lat="44.89356" lon="5.23437">
        <ele>1304.6</ele>
        <time>2024-07-02T13:38:33Z</time>
      </trkpt>
      <trkpt lat="44.89357" lon="5.23437">
        <ele>1304.6</ele>
        <time>2024-07-02T13:38:34Z</time>
      </trkpt>
      <trkpt lat="44.89359" lon="5.23437">
        <ele>1304.6</ele>
        <time>2024-07-02T13:38:35Z</time>
      </trkpt>
      <trkpt lat="44.8936" lon="5.23437">
        <ele>1304.6</ele>
        <time>2024-07-02T13:38:36Z</time>
      </trkpt>
      <trkpt lat="44.89361" lon="5.23437">
        <ele>1304.7</ele>
        <time>2024-07-02T13:38:37Z</time>
      </trkpt>
      <trkpt lat="44.89362" lon="5.23438">
        <ele>1304.7</ele>
        <time>2024-07-02T13:38:38Z</time>
      </trkpt>
      <trkpt lat="44.89364" lon="5.23438">
        <ele>1304.7</ele>
        <time>2024-07-02T13:38:39Z</time>
      </trkpt>
      <trkpt lat="44.89365" lon="5.23438">
        <ele>1304.7</ele>
        <time>2024-07-02T13:38:40Z</time>
      </trkpt>
      <trkpt lat="44.89366" lon="5.23438">
        <ele>1304.8</ele>
        <time>2024-07-02T13:38:41Z</time>
      </trkpt>
      <trkpt lat="44.89367" lon="5.23439">
        <ele>1304.8</ele>
        <time>2024-07-02T13:38:42Z</time>
      </trkpt>
      <trkpt lat="44.89368" lon="5.23439">
        <ele>1304.8</ele>
        <time>2024-07-02T13:38:43Z</time>
      </trkpt>
      <trkpt lat="44.89369" lon="5.23438">
        <ele>1304.8</ele>
        <time>2024-07-02T13:38:44Z</time>
      </trkpt>
      <trkpt lat="44.89371" lon="5.23438">
        <ele>1304.9</ele>
        <time>2024-07-02T13:38:45Z</time>
      </trkpt>
      <trkpt lat="44.89372" lon="5.23438">
        <ele>1304.9</ele>
        <time>2024-07-02T13:38:46Z</time>
      </trkpt>
      <trkpt lat="44.89373" lon="5.23438">
        <ele>1304.9</ele>
        <time>2024-07-02T13:38:47Z</time>
      </trkpt>
      <trkpt lat="44.89375" lon="5.23439">
        <ele>1304.9</ele>
        <time>2024-07-02T13:38:48Z</time>
      </trkpt>
      <trkpt lat="44.89376" lon="5.23439">
        <ele>1304.9</ele>
        <time>2024-07-02T13:38:49Z</time>
      </trkpt>
      <trkpt lat="44.89377" lon="5.2344">
        <ele>1305</ele>
        <time>2024-07-02T13:38:50Z</time>
      </trkpt>
      <trkpt lat="44.89378" lon="5.2344">
        <ele>1305</ele>
        <time>2024-07-02T13:38:51Z</time>
      </trkpt>
      <trkpt lat="44.89379" lon="5.2344">
        <ele>1305</ele>
        <time>2024-07-02T13:38:52Z</time>
      </trkpt>
      <trkpt lat="44.8938" lon="5.23441">
        <ele>1305</ele>
        <time>2024-07-02T13:38:53Z</time>
      </trkpt>
      <trkpt lat="44.89382" lon="5.23442">
        <ele>1305.1</ele>
        <time>2024-07-02T13:38:54Z</time>
      </trkpt>
      <trkpt lat="44.89383" lon="5.23442">
        <ele>1305.1</ele>
        <time>2024-07-02T13:38:55Z</time>
      </trkpt>
      <trkpt lat="44.89383" lon="5.23443">
        <ele>1305.1</ele>
        <time>2024-07-02T13:38:56Z</time>
      </trkpt>
      <trkpt lat="44.89384" lon="5.23442">
        <ele>1305.1</ele>
        <time>2024-07-02T13:38:57Z</time>
      </trkpt>
      <trkpt lat="44.89385" lon="5.23442">
        <ele>1305.1</ele>
        <time>2024-07-02T13:38:58Z</time>
      </trkpt>
      <trkpt lat="44.89386" lon="5.23443">
        <ele>1305.2</ele>
        <time>2024-07-02T13:38:59Z</time>
      </trkpt>
      <trkpt lat="44.89388" lon="5.23443">
        <ele>1305.2</ele>
        <time>2024-07-02T13:39:00Z</time>
      </trkpt>
      <trkpt lat="44.89389" lon="5.23443">
        <ele>1305.2</ele>
        <time>2024-07-02T13:39:01Z</time>
      </trkpt>
      <trkpt lat="44.8939" lon="5.23444">
        <ele>1305.2</ele>
        <time>2024-07-02T13:39:02Z</time>
      </trkpt>
      <trkpt lat="44.89392" lon="5.23444">
        <ele>1305.3</ele>
        <time>2024-07-02T13:39:03Z</time>
      </trkpt>
      <trkpt lat="44.89393" lon="5.23444">
        <ele>1305.3</ele>
        <time>2024-07-02T13:39:04Z</time>
      </trkpt>
      <trkpt lat="44.89394" lon="5.23444">
        <ele>1305.3</ele>
        <time>2024-07-02T13:39:05Z</time>
      </trkpt>
      <trkpt lat="44.89396" lon="5.23444">
        <ele>1305.4</ele>
        <time>2024-07-02T13:39:06Z</time>
      </trkpt>
      <trkpt lat="44.89397" lon="5.23444">
        <ele>1305.4</ele>
        <time>2024-07-02T13:39:07Z</time>
      </trkpt>
      <trkpt lat="44.89398" lon="5.23444">
        <ele>1305.4</ele>
        <time>2024-07-02T13:39:08Z</time>
      </trkpt>
      <trkpt lat="44.894" lon="5.23444">
        <ele>1305.4</ele>
        <time>2024-07-02T13:39:09Z</time>
      </trkpt>
      <trkpt lat="44.89401" lon="5.23444">
        <ele>1305.5</ele>
        <time>2024-07-02T13:39:10Z</time>
      </trkpt>
      <trkpt lat="44.89402" lon="5.23445">
        <ele>1305.5</ele>
        <time>2024-07-02T13:39:11Z</time>
      </trkpt>
      <trkpt lat="44.89403" lon="5.23445">
        <ele>1305.5</ele>
        <time>2024-07-02T13:39:12Z</time>
      </trkpt>
      <trkpt lat="44.89404" lon="5.23445">
        <ele>1305.5</ele>
        <time>2024-07-02T13:39:13Z</time>
      </trkpt>
      <trkpt lat="44.89405" lon="5.23444">
        <ele>1305.6</ele>
        <time>2024-07-02T13:39:14Z</time>
      </trkpt>
      <trkpt lat="44.89406" lon="5.23444">
        <ele>1305.6</ele>
        <time>2024-07-02T13:39:15Z</time>
      </trkpt>
      <trkpt lat="44.89408" lon="5.23444">
        <ele>1305.6</ele>
        <time>2024-07-02T13:39:16Z</time>
      </trkpt>
      <trkpt lat="44.89409" lon="5.23444">
        <ele>1305.7</ele>
        <time>2024-07-02T13:39:17Z</time>
      </trkpt>
      <trkpt lat="44.8941" lon="5.23445">
        <ele>1305.7</ele>
        <time>2024-07-02T13:39:18Z</time>
      </trkpt>
      <trkpt lat="44.89411" lon="5.23445">
        <ele>1305.7</ele>
        <time>2024-07-02T13:39:19Z</time>
      </trkpt>
      <trkpt lat="44.89412" lon="5.23445">
        <ele>1305.8</ele>
        <time>2024-07-02T13:39:20Z</time>
      </trkpt>
      <trkpt lat="44.89414" lon="5.23445">
        <ele>1305.8</ele>
        <time>2024-07-02T13:39:21Z</time>
      </trkpt>
      <trkpt lat="44.89415" lon="5.23446">
        <ele>1305.9</ele>
        <time>2024-07-02T13:39:22Z</time>
      </trkpt>
      <trkpt lat="44.89416" lon="5.23446">
        <ele>1305.9</ele>
        <time>2024-07-02T13:39:23Z</time>
      </trkpt>
      <trkpt lat="44.89417" lon="5.23446">
        <ele>1305.9</ele>
        <time>2024-07-02T13:39:24Z</time>
      </trkpt>
      <trkpt lat="44.89417" lon="5.23447">
        <ele>1305.9</ele>
        <time>2024-07-02T13:39:25Z</time>
      </trkpt>
      <trkpt lat="44.8942" lon="5.23446">
        <ele>1306</ele>
        <time>2024-07-02T13:39:26Z</time>
      </trkpt>
      <trkpt lat="44.8942" lon="5.23446">
        <ele>1306</ele>
        <time>2024-07-02T13:39:27Z</time>
      </trkpt>
      <trkpt lat="44.89421" lon="5.23445">
        <ele>1306</ele>
        <time>2024-07-02T13:39:28Z</time>
      </trkpt>
      <trkpt lat="44.89423" lon="5.23444">
        <ele>1306.1</ele>
        <time>2024-07-02T13:39:29Z</time>
      </trkpt>
      <trkpt lat="44.89424" lon="5.23444">
        <ele>1306.1</ele>
        <time>2024-07-02T13:39:30Z</time>
      </trkpt>
      <trkpt lat="44.89425" lon="5.23443">
        <ele>1306.2</ele>
        <time>2024-07-02T13:39:31Z</time>
      </trkpt>
      <trkpt lat="44.89425" lon="5.23442">
        <ele>1306.2</ele>
        <time>2024-07-02T13:39:32Z</time>
      </trkpt>
      <trkpt lat="44.89426" lon="5.23442">
        <ele>1306.2</ele>
        <time>2024-07-02T13:39:33Z</time>
      </trkpt>
      <trkpt lat="44.89428" lon="5.23441">
        <ele>1306.3</ele>
        <time>2024-07-02T13:39:34Z</time>
      </trkpt>
      <trkpt lat="44.89429" lon="5.23441">
        <ele>1306.3</ele>
        <time>2024-07-02T13:39:35Z</time>
      </trkpt>
      <trkpt lat="44.8943" lon="5.23441">
        <ele>1306.4</ele>
        <time>2024-07-02T13:39:36Z</time>
      </trkpt>
      <trkpt lat="44.89431" lon="5.23441">
        <ele>1306.4</ele>
        <time>2024-07-02T13:39:37Z</time>
      </trkpt>
      <trkpt lat="44.89432" lon="5.2344">
        <ele>1306.4</ele>
        <time>2024-07-02T13:39:38Z</time>
      </trkpt>
      <trkpt lat="44.89433" lon="5.2344">
        <ele>1306.5</ele>
        <time>2024-07-02T13:39:39Z</time>
      </trkpt>
      <trkpt lat="44.89435" lon="5.2344">
        <ele>1306.5</ele>
        <time>2024-07-02T13:39:40Z</time>
      </trkpt>
      <trkpt lat="44.89437" lon="5.2344">
        <ele>1306.6</ele>
        <time>2024-07-02T13:39:41Z</time>
      </trkpt>
      <trkpt lat="44.89438" lon="5.2344">
        <ele>1306.6</ele>
        <time>2024-07-02T13:39:42Z</time>
      </trkpt>
      <trkpt lat="44.89438" lon="5.2344">
        <ele>1306.6</ele>
        <time>2024-07-02T13:39:43Z</time>
      </trkpt>
      <trkpt lat="44.89441" lon="5.2344">
        <ele>1306.7</ele>
        <time>2024-07-02T13:39:44Z</time>
      </trkpt>
      <trkpt lat="44.89441" lon="5.2344">
        <ele>1306.7</ele>
        <time>2024-07-02T13:39:45Z</time>
      </trkpt>
      <trkpt lat="44.89442" lon="5.2344">
        <ele>1306.7</ele>
        <time>2024-07-02T13:39:46Z</time>
      </trkpt>
      <trkpt lat="44.89443" lon="5.23439">
        <ele>1306.8</ele>
        <time>2024-07-02T13:39:47Z</time>
      </trkpt>
      <trkpt lat="44.89444" lon="5.2344">
        <ele>1306.8</ele>
        <time>2024-07-02T13:39:48Z</time>
      </trkpt>
      <trkpt lat="44.89445" lon="5.2344">
        <ele>1306.8</ele>
        <time>2024-07-02T13:39:49Z</time>
      </trkpt>
      <trkpt lat="44.89446" lon="5.23439">
        <ele>1306.9</ele>
        <time>2024-07-02T13:39:50Z</time>
      </trkpt>
      <trkpt lat="44.89448" lon="5.23439">
        <ele>1306.9</ele>
        <time>2024-07-02T13:39:51Z</time>
      </trkpt>
      <trkpt lat="44.89449" lon="5.23439">
        <ele>1307</ele>
        <time>2024-07-02T13:39:52Z</time>
      </trkpt>
      <trkpt lat="44.8945" lon="5.23438">
        <ele>1307</ele>
        <time>2024-07-02T13:39:53Z</time>
      </trkpt>
      <trkpt lat="44.89451" lon="5.23438">
        <ele>1307</ele>
        <time>2024-07-02T13:39:54Z</time>
      </trkpt>
      <trkpt lat="44.89452" lon="5.23437">
        <ele>1307</ele>
        <time>2024-07-02T13:39:55Z</time>
      </trkpt>
      <trkpt lat="44.89454" lon="5.23437">
        <ele>1307.1</ele>
        <time>2024-07-02T13:39:56Z</time>
      </trkpt>
      <trkpt lat="44.89455" lon="5.23437">
        <ele>1307.1</ele>
        <time>2024-07-02T13:39:57Z</time>
      </trkpt>
      <trkpt lat="44.89456" lon="5.23436">
        <ele>1307.1</ele>
        <time>2024-07-02T13:39:58Z</time>
      </trkpt>
      <trkpt lat="44.89457" lon="5.23436">
        <ele>1307.2</ele>
        <time>2024-07-02T13:39:59Z</time>
      </trkpt>
      <trkpt lat="44.89458" lon="5.23436">
        <ele>1307.2</ele>
        <time>2024-07-02T13:40:00Z</time>
      </trkpt>
      <trkpt lat="44.8946" lon="5.23436">
        <ele>1307.2</ele>
        <time>2024-07-02T13:40:01Z</time>
      </trkpt>
      <trkpt lat="44.8946" lon="5.23436">
        <ele>1307.2</ele>
        <time>2024-07-02T13:40:02Z</time>
      </trkpt>
      <trkpt lat="44.89461" lon="5.23435">
        <ele>1307.2</ele>
        <time>2024-07-02T13:40:03Z</time>
      </trkpt>
      <trkpt lat="44.89464" lon="5.23436">
        <ele>1307.3</ele>
        <time>2024-07-02T13:40:04Z</time>
      </trkpt>
      <trkpt lat="44.89464" lon="5.23436">
        <ele>1307.3</ele>
        <time>2024-07-02T13:40:05Z</time>
      </trkpt>
      <trkpt lat="44.89465" lon="5.23436">
        <ele>1307.3</ele>
        <time>2024-07-02T13:40:06Z</time>
      </trkpt>
      <trkpt lat="44.89466" lon="5.23437">
        <ele>1307.3</ele>
        <time>2024-07-02T13:40:07Z</time>
      </trkpt>
      <trkpt lat="44.89467" lon="5.23437">
        <ele>1307.3</ele>
        <time>2024-07-02T13:40:08Z</time>
      </trkpt>
      <trkpt lat="44.89468" lon="5.23437">
        <ele>1307.4</ele>
        <time>2024-07-02T13:40:09Z</time>
      </trkpt>
      <trkpt lat="44.8947" lon="5.23437">
        <ele>1307.4</ele>
        <time>2024-07-02T13:40:10Z</time>
      </trkpt>
      <trkpt lat="44.89471" lon="5.23437">
        <ele>1307.4</ele>
        <time>2024-07-02T13:40:11Z</time>
      </trkpt>
      <trkpt lat="44.89472" lon="5.23437">
        <ele>1307.4</ele>
        <time>2024-07-02T13:40:12Z</time>
      </trkpt>
      <trkpt lat="44.89473" lon="5.23436">
        <ele>1307.4</ele>
        <time>2024-07-02T13:40:13Z</time>
      </trkpt>
      <trkpt lat="44.89474" lon="5.23435">
        <ele>1307.5</ele>
        <time>2024-07-02T13:40:14Z</time>
      </trkpt>
      <trkpt lat="44.89475" lon="5.23434">
        <ele>1307.5</ele>
        <time>2024-07-02T13:40:15Z</time>
      </trkpt>
      <trkpt lat="44.89477" lon="5.23433">
        <ele>1307.5</ele>
        <time>2024-07-02T13:40:16Z</time>
      </trkpt>
      <trkpt lat="44.89478" lon="5.23433">
        <ele>1307.5</ele>
        <time>2024-07-02T13:40:17Z</time>
      </trkpt>
      <trkpt lat="44.89479" lon="5.23432">
        <ele>1307.5</ele>
        <time>2024-07-02T13:40:18Z</time>
      </trkpt>
      <trkpt lat="44.8948" lon="5.23432">
        <ele>1307.5</ele>
        <time>2024-07-02T13:40:19Z</time>
      </trkpt>
      <trkpt lat="44.89481" lon="5.23432">
        <ele>1307.6</ele>
        <time>2024-07-02T13:40:20Z</time>
      </trkpt>
      <trkpt lat="44.89482" lon="5.23432">
        <ele>1307.6</ele>
        <time>2024-07-02T13:40:21Z</time>
      </trkpt>
      <trkpt lat="44.89484" lon="5.23432">
        <ele>1307.6</ele>
        <time>2024-07-02T13:40:22Z</time>
      </trkpt>
      <trkpt lat="44.89485" lon="5.23432">
        <ele>1307.6</ele>
        <time>2024-07-02T13:40:23Z</time>
      </trkpt>
      <trkpt lat="44.89486" lon="5.23432">
        <ele>1307.6</ele>
        <time>2024-07-02T13:40:24Z</time>
      </trkpt>
      <trkpt lat="44.89487" lon="5.23431">
        <ele>1307.6</ele>
        <time>2024-07-02T13:40:25Z</time>
      </trkpt>
      <trkpt lat="44.89489" lon="5.2343">
        <ele>1307.7</ele>
        <time>2024-07-02T13:40:26Z</time>
      </trkpt>
      <trkpt lat="44.8949" lon="5.2343">
        <ele>1307.7</ele>
        <time>2024-07-02T13:40:27Z</time>
      </trkpt>
      <trkpt lat="44.8949" lon="5.23429">
        <ele>1307.7</ele>
        <time>2024-07-02T13:40:28Z</time>
      </trkpt>
      <trkpt lat="44.89493" lon="5.23429">
        <ele>1307.7</ele>
        <time>2024-07-02T13:40:29Z</time>
      </trkpt>
      <trkpt lat="44.89494" lon="5.23428">
        <ele>1307.7</ele>
        <time>2024-07-02T13:40:30Z</time>
      </trkpt>
      <trkpt lat="44.89494" lon="5.23428">
        <ele>1307.7</ele>
        <time>2024-07-02T13:40:31Z</time>
      </trkpt>
      <trkpt lat="44.89495" lon="5.23428">
        <ele>1307.7</ele>
        <time>2024-07-02T13:40:32Z</time>
      </trkpt>
      <trkpt lat="44.89496" lon="5.23428">
        <ele>1307.8</ele>
        <time>2024-07-02T13:40:33Z</time>
      </trkpt>
      <trkpt lat="44.89498" lon="5.23428">
        <ele>1307.8</ele>
        <time>2024-07-02T13:40:34Z</time>
      </trkpt>
      <trkpt lat="44.89499" lon="5.23428">
        <ele>1307.8</ele>
        <time>2024-07-02T13:40:35Z</time>
      </trkpt>
      <trkpt lat="44.89501" lon="5.23428">
        <ele>1307.8</ele>
        <time>2024-07-02T13:40:36Z</time>
      </trkpt>
      <trkpt lat="44.89501" lon="5.23428">
        <ele>1307.8</ele>
        <time>2024-07-02T13:40:37Z</time>
      </trkpt>
      <trkpt lat="44.89503" lon="5.23427">
        <ele>1307.8</ele>
        <time>2024-07-02T13:40:38Z</time>
      </trkpt>
      <trkpt lat="44.89504" lon="5.23427">
        <ele>1307.8</ele>
        <time>2024-07-02T13:40:39Z</time>
      </trkpt>
      <trkpt lat="44.89505" lon="5.23427">
        <ele>1307.8</ele>
        <time>2024-07-02T13:40:40Z</time>
      </trkpt>
      <trkpt lat="44.89507" lon="5.23427">
        <ele>1307.8</ele>
        <time>2024-07-02T13:40:41Z</time>
      </trkpt>
      <trkpt lat="44.89508" lon="5.23426">
        <ele>1307.9</ele>
        <time>2024-07-02T13:40:42Z</time>
      </trkpt>
      <trkpt lat="44.89509" lon="5.23426">
        <ele>1307.9</ele>
        <time>2024-07-02T13:40:43Z</time>
      </trkpt>
      <trkpt lat="44.8951" lon="5.23426">
        <ele>1307.9</ele>
        <time>2024-07-02T13:40:44Z</time>
      </trkpt>
      <trkpt lat="44.89511" lon="5.23427">
        <ele>1307.9</ele>
        <time>2024-07-02T13:40:45Z</time>
      </trkpt>
      <trkpt lat="44.89512" lon="5.23427">
        <ele>1307.9</ele>
        <time>2024-07-02T13:40:46Z</time>
      </trkpt>
      <trkpt lat="44.89513" lon="5.23427">
        <ele>1307.9</ele>
        <time>2024-07-02T13:40:47Z</time>
      </trkpt>
      <trkpt lat="44.89514" lon="5.23427">
        <ele>1307.9</ele>
        <time>2024-07-02T13:40:48Z</time>
      </trkpt>
      <trkpt lat="44.89515" lon="5.23427">
        <ele>1307.9</ele>
        <time>2024-07-02T13:40:49Z</time>
      </trkpt>
      <trkpt lat="44.89517" lon="5.23427">
        <ele>1307.9</ele>
        <time>2024-07-02T13:40:50Z</time>
      </trkpt>
      <trkpt lat="44.89518" lon="5.23427">
        <ele>1308</ele>
        <time>2024-07-02T13:40:51Z</time>
      </trkpt>
      <trkpt lat="44.89519" lon="5.23427">
        <ele>1308</ele>
        <time>2024-07-02T13:40:52Z</time>
      </trkpt>
      <trkpt lat="44.8952" lon="5.23427">
        <ele>1308</ele>
        <time>2024-07-02T13:40:53Z</time>
      </trkpt>
      <trkpt lat="44.89521" lon="5.23427">
        <ele>1308</ele>
        <time>2024-07-02T13:40:54Z</time>
      </trkpt>
      <trkpt lat="44.89523" lon="5.23427">
        <ele>1308</ele>
        <time>2024-07-02T13:40:55Z</time>
      </trkpt>
      <trkpt lat="44.89524" lon="5.23427">
        <ele>1308.1</ele>
        <time>2024-07-02T13:40:56Z</time>
      </trkpt>
      <trkpt lat="44.89525" lon="5.23428">
        <ele>1308.1</ele>
        <time>2024-07-02T13:40:57Z</time>
      </trkpt>
      <trkpt lat="44.89526" lon="5.23428">
        <ele>1308.1</ele>
        <time>2024-07-02T13:40:58Z</time>
      </trkpt>
      <trkpt lat="44.89527" lon="5.23428">
        <ele>1308.1</ele>
        <time>2024-07-02T13:40:59Z</time>
      </trkpt>
      <trkpt lat="44.89528" lon="5.23429">
        <ele>1308.1</ele>
        <time>2024-07-02T13:41:00Z</time>
      </trkpt>
      <trkpt lat="44.8953" lon="5.23428">
        <ele>1308.1</ele>
        <time>2024-07-02T13:41:01Z</time>
      </trkpt>
      <trkpt lat="44.89531" lon="5.23429">
        <ele>1308.2</ele>
        <time>2024-07-02T13:41:02Z</time>
      </trkpt>
      <trkpt lat="44.89532" lon="5.23429">
        <ele>1308.2</ele>
        <time>2024-07-02T13:41:03Z</time>
      </trkpt>
      <trkpt lat="44.89533" lon="5.23428">
        <ele>1308.2</ele>
        <time>2024-07-02T13:41:04Z</time>
      </trkpt>
      <trkpt lat="44.89534" lon="5.23428">
        <ele>1308.2</ele>
        <time>2024-07-02T13:41:05Z</time>
      </trkpt>
      <trkpt lat="44.89536" lon="5.23427">
        <ele>1308.2</ele>
        <time>2024-07-02T13:41:06Z</time>
      </trkpt>
      <trkpt lat="44.89536" lon="5.23427">
        <ele>1308.2</ele>
        <time>2024-07-02T13:41:07Z</time>
      </trkpt>
      <trkpt lat="44.89538" lon="5.23426">
        <ele>1308.2</ele>
        <time>2024-07-02T13:41:08Z</time>
      </trkpt>
      <trkpt lat="44.89539" lon="5.23426">
        <ele>1308.3</ele>
        <time>2024-07-02T13:41:09Z</time>
      </trkpt>
      <trkpt lat="44.89541" lon="5.23425">
        <ele>1308.3</ele>
        <time>2024-07-02T13:41:10Z</time>
      </trkpt>
      <trkpt lat="44.89542" lon="5.23425">
        <ele>1308.3</ele>
        <time>2024-07-02T13:41:11Z</time>
      </trkpt>
      <trkpt lat="44.89543" lon="5.23425">
        <ele>1308.3</ele>
        <time>2024-07-02T13:41:12Z</time>
      </trkpt>
      <trkpt lat="44.89544" lon="5.23424">
        <ele>1308.3</ele>
        <time>2024-07-02T13:41:13Z</time>
      </trkpt>
      <trkpt lat="44.89545" lon="5.23424">
        <ele>1308.3</ele>
        <time>2024-07-02T13:41:14Z</time>
      </trkpt>
      <trkpt lat="44.89546" lon="5.23424">
        <ele>1308.3</ele>
        <time>2024-07-02T13:41:15Z</time>
      </trkpt>
      <trkpt lat="44.89548" lon="5.23424">
        <ele>1308.3</ele>
        <time>2024-07-02T13:41:16Z</time>
      </trkpt>
      <trkpt lat="44.89548" lon="5.23424">
        <ele>1308.3</ele>
        <time>2024-07-02T13:41:17Z</time>
      </trkpt>
      <trkpt lat="44.89549" lon="5.23424">
        <ele>1308.3</ele>
        <time>2024-07-02T13:41:18Z</time>
      </trkpt>
      <trkpt lat="44.89551" lon="5.23423">
        <ele>1308.3</ele>
        <time>2024-07-02T13:41:19Z</time>
      </trkpt>
      <trkpt lat="44.89552" lon="5.23423">
        <ele>1308.3</ele>
        <time>2024-07-02T13:41:20Z</time>
      </trkpt>
      <trkpt lat="44.89553" lon="5.23423">
        <ele>1308.3</ele>
        <time>2024-07-02T13:41:21Z</time>
      </trkpt>
      <trkpt lat="44.89554" lon="5.23423">
        <ele>1308.3</ele>
        <time>2024-07-02T13:41:22Z</time>
      </trkpt>
      <trkpt lat="44.89555" lon="5.23423">
        <ele>1308.3</ele>
        <time>2024-07-02T13:41:23Z</time>
      </trkpt>
      <trkpt lat="44.89556" lon="5.23423">
        <ele>1308.3</ele>
        <time>2024-07-02T13:41:24Z</time>
      </trkpt>
      <trkpt lat="44.89558" lon="5.23423">
        <ele>1308.3</ele>
        <time>2024-07-02T13:41:25Z</time>
      </trkpt>
      <trkpt lat="44.89559" lon="5.23422">
        <ele>1308.3</ele>
        <time>2024-07-02T13:41:26Z</time>
      </trkpt>
      <trkpt lat="44.8956" lon="5.23421">
        <ele>1308.3</ele>
        <time>2024-07-02T13:41:27Z</time>
      </trkpt>
      <trkpt lat="44.89561" lon="5.2342">
        <ele>1308.3</ele>
        <time>2024-07-02T13:41:28Z</time>
      </trkpt>
      <trkpt lat="44.89562" lon="5.23419">
        <ele>1308.3</ele>
        <time>2024-07-02T13:41:29Z</time>
      </trkpt>
      <trkpt lat="44.89563" lon="5.23418">
        <ele>1308.3</ele>
        <time>2024-07-02T13:41:30Z</time>
      </trkpt>
      <trkpt lat="44.89565" lon="5.23417">
        <ele>1308.2</ele>
        <time>2024-07-02T13:41:31Z</time>
      </trkpt>
      <trkpt lat="44.89566" lon="5.23417">
        <ele>1308.2</ele>
        <time>2024-07-02T13:41:32Z</time>
      </trkpt>
      <trkpt lat="44.89567" lon="5.23417">
        <ele>1308.2</ele>
        <time>2024-07-02T13:41:33Z</time>
      </trkpt>
      <trkpt lat="44.89568" lon="5.23417">
        <ele>1308.2</ele>
        <time>2024-07-02T13:41:34Z</time>
      </trkpt>
      <trkpt lat="44.89571" lon="5.23416">
        <ele>1308.2</ele>
        <time>2024-07-02T13:41:35Z</time>
      </trkpt>
      <trkpt lat="44.89571" lon="5.23416">
        <ele>1308.2</ele>
        <time>2024-07-02T13:41:36Z</time>
      </trkpt>
      <trkpt lat="44.89572" lon="5.23415">
        <ele>1308.2</ele>
        <time>2024-07-02T13:41:37Z</time>
      </trkpt>
      <trkpt lat="44.89573" lon="5.23415">
        <ele>1308.2</ele>
        <time>2024-07-02T13:41:38Z</time>
      </trkpt>
      <trkpt lat="44.89574" lon="5.23414">
        <ele>1308.2</ele>
        <time>2024-07-02T13:41:39Z</time>
      </trkpt>
      <trkpt lat="44.89575" lon="5.23413">
        <ele>1308.2</ele>
        <time>2024-07-02T13:41:40Z</time>
      </trkpt>
      <trkpt lat="44.89577" lon="5.23412">
        <ele>1308.1</ele>
        <time>2024-07-02T13:41:41Z</time>
      </trkpt>
      <trkpt lat="44.89578" lon="5.23411">
        <ele>1308.1</ele>
        <time>2024-07-02T13:41:42Z</time>
      </trkpt>
      <trkpt lat="44.89579" lon="5.23411">
        <ele>1308.1</ele>
        <time>2024-07-02T13:41:43Z</time>
      </trkpt>
      <trkpt lat="44.8958" lon="5.2341">
        <ele>1308.1</ele>
        <time>2024-07-02T13:41:44Z</time>
      </trkpt>
      <trkpt lat="44.89581" lon="5.2341">
        <ele>1308.1</ele>
        <time>2024-07-02T13:41:45Z</time>
      </trkpt>
      <trkpt lat="44.89582" lon="5.23409">
        <ele>1308.1</ele>
        <time>2024-07-02T13:41:46Z</time>
      </trkpt>
      <trkpt lat="44.89584" lon="5.23409">
        <ele>1308.1</ele>
        <time>2024-07-02T13:41:47Z</time>
      </trkpt>
      <trkpt lat="44.89585" lon="5.23409">
        <ele>1308</ele>
        <time>2024-07-02T13:41:48Z</time>
      </trkpt>
      <trkpt lat="44.89586" lon="5.23409">
        <ele>1308</ele>
        <time>2024-07-02T13:41:49Z</time>
      </trkpt>
      <trkpt lat="44.89587" lon="5.23409">
        <ele>1308</ele>
        <time>2024-07-02T13:41:50Z</time>
      </trkpt>
      <trkpt lat="44.89588" lon="5.23408">
        <ele>1308</ele>
        <time>2024-07-02T13:41:51Z</time>
      </trkpt>
      <trkpt lat="44.89589" lon="5.23407">
        <ele>1308</ele>
        <time>2024-07-02T13:41:52Z</time>
      </trkpt>
      <trkpt lat="44.8959" lon="5.23407">
        <ele>1308</ele>
        <time>2024-07-02T13:41:53Z</time>
      </trkpt>
      <trkpt lat="44.89591" lon="5.23406">
        <ele>1307.9</ele>
        <time>2024-07-02T13:41:54Z</time>
      </trkpt>
      <trkpt lat="44.89592" lon="5.23406">
        <ele>1307.9</ele>
        <time>2024-07-02T13:41:55Z</time>
      </trkpt>
      <trkpt lat="44.89593" lon="5.23405">
        <ele>1307.9</ele>
        <time>2024-07-02T13:41:56Z</time>
      </trkpt>
      <trkpt lat="44.89594" lon="5.23405">
        <ele>1307.9</ele>
        <time>2024-07-02T13:41:57Z</time>
      </trkpt>
      <trkpt lat="44.89595" lon="5.23404">
        <ele>1307.9</ele>
        <time>2024-07-02T13:41:58Z</time>
      </trkpt>
      <trkpt lat="44.89596" lon="5.23404">
        <ele>1307.9</ele>
        <time>2024-07-02T13:41:59Z</time>
      </trkpt>
      <trkpt lat="44.89598" lon="5.23404">
        <ele>1307.8</ele>
        <time>2024-07-02T13:42:00Z</time>
      </trkpt>
      <trkpt lat="44.89599" lon="5.23403">
        <ele>1307.8</ele>
        <time>2024-07-02T13:42:01Z</time>
      </trkpt>
      <trkpt lat="44.896" lon="5.23403">
        <ele>1307.8</ele>
        <time>2024-07-02T13:42:02Z</time>
      </trkpt>
      <trkpt lat="44.89601" lon="5.23402">
        <ele>1307.8</ele>
        <time>2024-07-02T13:42:03Z</time>
      </trkpt>
      <trkpt lat="44.89602" lon="5.23402">
        <ele>1307.7</ele>
        <time>2024-07-02T13:42:04Z</time>
      </trkpt>
      <trkpt lat="44.89603" lon="5.23402">
        <ele>1307.7</ele>
        <time>2024-07-02T13:42:05Z</time>
      </trkpt>
      <trkpt lat="44.89604" lon="5.23401">
        <ele>1307.7</ele>
        <time>2024-07-02T13:42:06Z</time>
      </trkpt>
      <trkpt lat="44.89606" lon="5.23402">
        <ele>1307.7</ele>
        <time>2024-07-02T13:42:07Z</time>
      </trkpt>
      <trkpt lat="44.89607" lon="5.23402">
        <ele>1307.7</ele>
        <time>2024-07-02T13:42:08Z</time>
      </trkpt>
      <trkpt lat="44.89608" lon="5.23402">
        <ele>1307.6</ele>
        <time>2024-07-02T13:42:09Z</time>
      </trkpt>
      <trkpt lat="44.8961" lon="5.23402">
        <ele>1307.6</ele>
        <time>2024-07-02T13:42:10Z</time>
      </trkpt>
      <trkpt lat="44.89611" lon="5.23402">
        <ele>1307.6</ele>
        <time>2024-07-02T13:42:11Z</time>
      </trkpt>
      <trkpt lat="44.89611" lon="5.23402">
        <ele>1307.6</ele>
        <time>2024-07-02T13:42:12Z</time>
      </trkpt>
      <trkpt lat="44.89613" lon="5.23402">
        <ele>1307.5</ele>
        <time>2024-07-02T13:42:13Z</time>
      </trkpt>
      <trkpt lat="44.89614" lon="5.23402">
        <ele>1307.5</ele>
        <time>2024-07-02T13:42:14Z</time>
      </trkpt>
      <trkpt lat="44.89616" lon="5.23403">
        <ele>1307.5</ele>
        <time>2024-07-02T13:42:15Z</time>
      </trkpt>
      <trkpt lat="44.89617" lon="5.23403">
        <ele>1307.4</ele>
        <time>2024-07-02T13:42:16Z</time>
      </trkpt>
      <trkpt lat="44.89618" lon="5.23403">
        <ele>1307.4</ele>
        <time>2024-07-02T13:42:17Z</time>
      </trkpt>
      <trkpt lat="44.8962" lon="5.23402">
        <ele>1307.4</ele>
        <time>2024-07-02T13:42:18Z</time>
      </trkpt>
      <trkpt lat="44.89621" lon="5.23402">
        <ele>1307.4</ele>
        <time>2024-07-02T13:42:19Z</time>
      </trkpt>
      <trkpt lat="44.89622" lon="5.23402">
        <ele>1307.4</ele>
        <time>2024-07-02T13:42:20Z</time>
      </trkpt>
      <trkpt lat="44.89624" lon="5.23402">
        <ele>1307.3</ele>
        <time>2024-07-02T13:42:21Z</time>
      </trkpt>
      <trkpt lat="44.89625" lon="5.23402">
        <ele>1307.3</ele>
        <time>2024-07-02T13:42:22Z</time>
      </trkpt>
      <trkpt lat="44.89625" lon="5.23402">
        <ele>1307.3</ele>
        <time>2024-07-02T13:42:23Z</time>
      </trkpt>
      <trkpt lat="44.89627" lon="5.23402">
        <ele>1307.2</ele>
        <time>2024-07-02T13:42:24Z</time>
      </trkpt>
      <trkpt lat="44.89628" lon="5.23402">
        <ele>1307.2</ele>
        <time>2024-07-02T13:42:25Z</time>
      </trkpt>
      <trkpt lat="44.89629" lon="5.23402">
        <ele>1307.2</ele>
        <time>2024-07-02T13:42:26Z</time>
      </trkpt>
      <trkpt lat="44.8963" lon="5.23402">
        <ele>1307.2</ele>
        <time>2024-07-02T13:42:27Z</time>
      </trkpt>
      <trkpt lat="44.89632" lon="5.23402">
        <ele>1307.2</ele>
        <time>2024-07-02T13:42:28Z</time>
      </trkpt>
      <trkpt lat="44.89634" lon="5.23402">
        <ele>1307.1</ele>
        <time>2024-07-02T13:42:29Z</time>
      </trkpt>
      <trkpt lat="44.89635" lon="5.23402">
        <ele>1307.1</ele>
        <time>2024-07-02T13:42:30Z</time>
      </trkpt>
      <trkpt lat="44.89636" lon="5.23402">
        <ele>1307.1</ele>
        <time>2024-07-02T13:42:31Z</time>
      </trkpt>
      <trkpt lat="44.89637" lon="5.23401">
        <ele>1307.1</ele>
        <time>2024-07-02T13:42:32Z</time>
      </trkpt>
      <trkpt lat="44.89639" lon="5.23401">
        <ele>1307.1</ele>
        <time>2024-07-02T13:42:33Z</time>
      </trkpt>
      <trkpt lat="44.8964" lon="5.23401">
        <ele>1307.1</ele>
        <time>2024-07-02T13:42:34Z</time>
      </trkpt>
      <trkpt lat="44.89641" lon="5.23401">
        <ele>1307</ele>
        <time>2024-07-02T13:42:35Z</time>
      </trkpt>
      <trkpt lat="44.89642" lon="5.23401">
        <ele>1307</ele>
        <time>2024-07-02T13:42:36Z</time>
      </trkpt>
      <trkpt lat="44.89643" lon="5.23401">
        <ele>1307</ele>
        <time>2024-07-02T13:42:37Z</time>
      </trkpt>
      <trkpt lat="44.89645" lon="5.23401">
        <ele>1307</ele>
        <time>2024-07-02T13:42:38Z</time>
      </trkpt>
      <trkpt lat="44.89646" lon="5.23401">
        <ele>1307</ele>
        <time>2024-07-02T13:42:39Z</time>
      </trkpt>
      <trkpt lat="44.89647" lon="5.23401">
        <ele>1307</ele>
        <time>2024-07-02T13:42:40Z</time>
      </trkpt>
      <trkpt lat="44.89648" lon="5.23401">
        <ele>1306.9</ele>
        <time>2024-07-02T13:42:41Z</time>
      </trkpt>
      <trkpt lat="44.89649" lon="5.234">
        <ele>1306.9</ele>
        <time>2024-07-02T13:42:42Z</time>
      </trkpt>
      <trkpt lat="44.89651" lon="5.234">
        <ele>1306.9</ele>
        <time>2024-07-02T13:42:43Z</time>
      </trkpt>
      <trkpt lat="44.89652" lon="5.234">
        <ele>1306.9</ele>
        <time>2024-07-02T13:42:44Z</time>
      </trkpt>
      <trkpt lat="44.89653" lon="5.234">
        <ele>1306.9</ele>
        <time>2024-07-02T13:42:45Z</time>
      </trkpt>
      <trkpt lat="44.89654" lon="5.23399">
        <ele>1306.9</ele>
        <time>2024-07-02T13:42:46Z</time>
      </trkpt>
      <trkpt lat="44.89655" lon="5.23399">
        <ele>1306.8</ele>
        <time>2024-07-02T13:42:47Z</time>
      </trkpt>
      <trkpt lat="44.89657" lon="5.23399">
        <ele>1306.8</ele>
        <time>2024-07-02T13:42:48Z</time>
      </trkpt>
      <trkpt lat="44.89658" lon="5.23399">
        <ele>1306.8</ele>
        <time>2024-07-02T13:42:49Z</time>
      </trkpt>
      <trkpt lat="44.89659" lon="5.23398">
        <ele>1306.8</ele>
        <time>2024-07-02T13:42:50Z</time>
      </trkpt>
      <trkpt lat="44.8966" lon="5.23398">
        <ele>1306.8</ele>
        <time>2024-07-02T13:42:51Z</time>
      </trkpt>
      <trkpt lat="44.89662" lon="5.23398">
        <ele>1306.7</ele>
        <time>2024-07-02T13:42:52Z</time>
      </trkpt>
      <trkpt lat="44.89663" lon="5.23398">
        <ele>1306.7</ele>
        <time>2024-07-02T13:42:53Z</time>
      </trkpt>
      <trkpt lat="44.89663" lon="5.23397">
        <ele>1306.7</ele>
        <time>2024-07-02T13:42:54Z</time>
      </trkpt>
      <trkpt lat="44.89665" lon="5.23397">
        <ele>1306.7</ele>
        <time>2024-07-02T13:42:55Z</time>
      </trkpt>
      <trkpt lat="44.89666" lon="5.23396">
        <ele>1306.7</ele>
        <time>2024-07-02T13:42:56Z</time>
      </trkpt>
      <trkpt lat="44.89667" lon="5.23396">
        <ele>1306.6</ele>
        <time>2024-07-02T13:42:57Z</time>
      </trkpt>
      <trkpt lat="44.89669" lon="5.23396">
        <ele>1306.6</ele>
        <time>2024-07-02T13:42:58Z</time>
      </trkpt>
      <trkpt lat="44.8967" lon="5.23395">
        <ele>1306.6</ele>
        <time>2024-07-02T13:42:59Z</time>
      </trkpt>
      <trkpt lat="44.89671" lon="5.23395">
        <ele>1306.6</ele>
        <time>2024-07-02T13:43:00Z</time>
      </trkpt>
      <trkpt lat="44.89673" lon="5.23395">
        <ele>1306.5</ele>
        <time>2024-07-02T13:43:01Z</time>
      </trkpt>
      <trkpt lat="44.89674" lon="5.23395">
        <ele>1306.5</ele>
        <time>2024-07-02T13:43:02Z</time>
      </trkpt>
      <trkpt lat="44.89675" lon="5.23394">
        <ele>1306.5</ele>
        <time>2024-07-02T13:43:03Z</time>
      </trkpt>
      <trkpt lat="44.89676" lon="5.23394">
        <ele>1306.5</ele>
        <time>2024-07-02T13:43:04Z</time>
      </trkpt>
      <trkpt lat="44.89677" lon="5.23394">
        <ele>1306.5</ele>
        <time>2024-07-02T13:43:05Z</time>
      </trkpt>
      <trkpt lat="44.89678" lon="5.23393">
        <ele>1306.5</ele>
        <time>2024-07-02T13:43:06Z</time>
      </trkpt>
      <trkpt lat="44.89679" lon="5.23393">
        <ele>1306.4</ele>
        <time>2024-07-02T13:43:07Z</time>
      </trkpt>
      <trkpt lat="44.8968" lon="5.23393">
        <ele>1306.4</ele>
        <time>2024-07-02T13:43:08Z</time>
      </trkpt>
      <trkpt lat="44.89681" lon="5.23392">
        <ele>1306.4</ele>
        <time>2024-07-02T13:43:09Z</time>
      </trkpt>
      <trkpt lat="44.89683" lon="5.23391">
        <ele>1306.4</ele>
        <time>2024-07-02T13:43:10Z</time>
      </trkpt>
      <trkpt lat="44.89683" lon="5.23391">
        <ele>1306.3</ele>
        <time>2024-07-02T13:43:11Z</time>
      </trkpt>
      <trkpt lat="44.89684" lon="5.2339">
        <ele>1306.3</ele>
        <time>2024-07-02T13:43:12Z</time>
      </trkpt>
      <trkpt lat="44.89687" lon="5.2339">
        <ele>1306.3</ele>
        <time>2024-07-02T13:43:13Z</time>
      </trkpt>
      <trkpt lat="44.89687" lon="5.2339">
        <ele>1306.3</ele>
        <time>2024-07-02T13:43:14Z</time>
      </trkpt>
      <trkpt lat="44.89688" lon="5.23389">
        <ele>1306.2</ele>
        <time>2024-07-02T13:43:15Z</time>
      </trkpt>
      <trkpt lat="44.8969" lon="5.23389">
        <ele>1306.2</ele>
        <time>2024-07-02T13:43:16Z</time>
      </trkpt>
      <trkpt lat="44.89691" lon="5.23389">
        <ele>1306.2</ele>
        <time>2024-07-02T13:43:17Z</time>
      </trkpt>
      <trkpt lat="44.89692" lon="5.23389">
        <ele>1306.1</ele>
        <time>2024-07-02T13:43:18Z</time>
      </trkpt>
      <trkpt lat="44.89693" lon="5.23389">
        <ele>1306.1</ele>
        <time>2024-07-02T13:43:19Z</time>
      </trkpt>
      <trkpt lat="44.89694" lon="5.23388">
        <ele>1306.1</ele>
        <time>2024-07-02T13:43:20Z</time>
      </trkpt>
      <trkpt lat="44.89695" lon="5.23388">
        <ele>1306.1</ele>
        <time>2024-07-02T13:43:21Z</time>
      </trkpt>
      <trkpt lat="44.89696" lon="5.23388">
        <ele>1306</ele>
        <time>2024-07-02T13:43:22Z</time>
      </trkpt>
      <trkpt lat="44.89698" lon="5.23388">
        <ele>1306</ele>
        <time>2024-07-02T13:43:23Z</time>
      </trkpt>
      <trkpt lat="44.89699" lon="5.23388">
        <ele>1306</ele>
        <time>2024-07-02T13:43:24Z</time>
      </trkpt>
      <trkpt lat="44.897" lon="5.23387">
        <ele>1305.9</ele>
        <time>2024-07-02T13:43:25Z</time>
      </trkpt>
      <trkpt lat="44.89701" lon="5.23387">
        <ele>1305.9</ele>
        <time>2024-07-02T13:43:26Z</time>
      </trkpt>
      <trkpt lat="44.89702" lon="5.23386">
        <ele>1305.9</ele>
        <time>2024-07-02T13:43:27Z</time>
      </trkpt>
      <trkpt lat="44.89704" lon="5.23385">
        <ele>1305.8</ele>
        <time>2024-07-02T13:43:28Z</time>
      </trkpt>
      <trkpt lat="44.89705" lon="5.23385">
        <ele>1305.8</ele>
        <time>2024-07-02T13:43:29Z</time>
      </trkpt>
      <trkpt lat="44.89705" lon="5.23384">
        <ele>1305.8</ele>
        <time>2024-07-02T13:43:30Z</time>
      </trkpt>
      <trkpt lat="44.89707" lon="5.23384">
        <ele>1305.7</ele>
        <time>2024-07-02T13:43:31Z</time>
      </trkpt>
      <trkpt lat="44.89708" lon="5.23383">
        <ele>1305.7</ele>
        <time>2024-07-02T13:43:32Z</time>
      </trkpt>
      <trkpt lat="44.89709" lon="5.23383">
        <ele>1305.7</ele>
        <time>2024-07-02T13:43:33Z</time>
      </trkpt>
      <trkpt lat="44.8971" lon="5.23383">
        <ele>1305.7</ele>
        <time>2024-07-02T13:43:34Z</time>
      </trkpt>
      <trkpt lat="44.89711" lon="5.23383">
        <ele>1305.6</ele>
        <time>2024-07-02T13:43:35Z</time>
      </trkpt>
      <trkpt lat="44.89712" lon="5.23384">
        <ele>1305.6</ele>
        <time>2024-07-02T13:43:36Z</time>
      </trkpt>
      <trkpt lat="44.89713" lon="5.23384">
        <ele>1305.6</ele>
        <time>2024-07-02T13:43:37Z</time>
      </trkpt>
      <trkpt lat="44.89715" lon="5.23384">
        <ele>1305.6</ele>
        <time>2024-07-02T13:43:38Z</time>
      </trkpt>
      <trkpt lat="44.89716" lon="5.23384">
        <ele>1305.5</ele>
        <time>2024-07-02T13:43:39Z</time>
      </trkpt>
      <trkpt lat="44.89717" lon="5.23384">
        <ele>1305.5</ele>
        <time>2024-07-02T13:43:40Z</time>
      </trkpt>
      <trkpt lat="44.89718" lon="5.23384">
        <ele>1305.5</ele>
        <time>2024-07-02T13:43:41Z</time>
      </trkpt>
      <trkpt lat="44.89719" lon="5.23384">
        <ele>1305.5</ele>
        <time>2024-07-02T13:43:42Z</time>
      </trkpt>
      <trkpt lat="44.89721" lon="5.23383">
        <ele>1305.4</ele>
        <time>2024-07-02T13:43:43Z</time>
      </trkpt>
      <trkpt lat="44.89722" lon="5.23383">
        <ele>1305.4</ele>
        <time>2024-07-02T13:43:44Z</time>
      </trkpt>
      <trkpt lat="44.89723" lon="5.23383">
        <ele>1305.4</ele>
        <time>2024-07-02T13:43:45Z</time>
      </trkpt>
      <trkpt lat="44.89725" lon="5.23383">
        <ele>1305.4</ele>
        <time>2024-07-02T13:43:46Z</time>
      </trkpt>
      <trkpt lat="44.89726" lon="5.23383">
        <ele>1305.4</ele>
        <time>2024-07-02T13:43:47Z</time>
      </trkpt>
      <trkpt lat="44.89727" lon="5.23383">
        <ele>1305.4</ele>
        <time>2024-07-02T13:43:48Z</time>
      </trkpt>
      <trkpt lat="44.89728" lon="5.23383">
        <ele>1305.3</ele>
        <time>2024-07-02T13:43:49Z</time>
      </trkpt>
      <trkpt lat="44.8973" lon="5.23384">
        <ele>1305.3</ele>
        <time>2024-07-02T13:43:50Z</time>
      </trkpt>
      <trkpt lat="44.8973" lon="5.23385">
        <ele>1305.4</ele>
        <time>2024-07-02T13:43:51Z</time>
      </trkpt>
      <trkpt lat="44.89731" lon="5.23386">
        <ele>1305.4</ele>
        <time>2024-07-02T13:43:52Z</time>
      </trkpt>
      <trkpt lat="44.89733" lon="5.23387">
        <ele>1305.4</ele>
        <time>2024-07-02T13:43:53Z</time>
      </trkpt>
      <trkpt lat="44.89734" lon="5.23388">
        <ele>1305.5</ele>
        <time>2024-07-02T13:43:54Z</time>
      </trkpt>
      <trkpt lat="44.89734" lon="5.23389">
        <ele>1305.5</ele>
        <time>2024-07-02T13:43:55Z</time>
      </trkpt>
      <trkpt lat="44.89733" lon="5.23391">
        <ele>1305.5</ele>
        <time>2024-07-02T13:43:56Z</time>
      </trkpt>
      <trkpt lat="44.89733" lon="5.23392">
        <ele>1305.5</ele>
        <time>2024-07-02T13:43:57Z</time>
      </trkpt>
      <trkpt lat="44.89732" lon="5.23393">
        <ele>1305.6</ele>
        <time>2024-07-02T13:43:58Z</time>
      </trkpt>
      <trkpt lat="44.89732" lon="5.23393">
        <ele>1305.6</ele>
        <time>2024-07-02T13:43:59Z</time>
      </trkpt>
      <trkpt lat="44.89732" lon="5.23393">
        <ele>1305.6</ele>
        <time>2024-07-02T13:44:00Z</time>
      </trkpt>
      <trkpt lat="44.89733" lon="5.23392">
        <ele>1305.6</ele>
        <time>2024-07-02T13:44:01Z</time>
      </trkpt>
      <trkpt lat="44.89733" lon="5.23392">
        <ele>1305.6</ele>
        <time>2024-07-02T13:44:02Z</time>
      </trkpt>
      <trkpt lat="44.89734" lon="5.23392">
        <ele>1305.6</ele>
        <time>2024-07-02T13:44:03Z</time>
      </trkpt>
      <trkpt lat="44.89734" lon="5.23392">
        <ele>1305.6</ele>
        <time>2024-07-02T13:44:04Z</time>
      </trkpt>
      <trkpt lat="44.89734" lon="5.23391">
        <ele>1305.7</ele>
        <time>2024-07-02T13:44:05Z</time>
      </trkpt>
      <trkpt lat="44.89734" lon="5.23391">
        <ele>1305.7</ele>
        <time>2024-07-02T13:44:06Z</time>
      </trkpt>
      <trkpt lat="44.89734" lon="5.23391">
        <ele>1305.7</ele>
        <time>2024-07-02T13:44:07Z</time>
      </trkpt>
      <trkpt lat="44.89734" lon="5.23391">
        <ele>1305.7</ele>
        <time>2024-07-02T13:44:08Z</time>
      </trkpt>
      <trkpt lat="44.89735" lon="5.23391">
        <ele>1305.7</ele>
        <time>2024-07-02T13:44:09Z</time>
      </trkpt>
      <trkpt lat="44.89735" lon="5.23391">
        <ele>1305.7</ele>
        <time>2024-07-02T13:44:10Z</time>
      </trkpt>
      <trkpt lat="44.89735" lon="5.23391">
        <ele>1305.7</ele>
        <time>2024-07-02T13:44:11Z</time>
      </trkpt>
      <trkpt lat="44.89735" lon="5.23391">
        <ele>1305.7</ele>
        <time>2024-07-02T13:44:12Z</time>
      </trkpt>
      <trkpt lat="44.89735" lon="5.23391">
        <ele>1305.7</ele>
        <time>2024-07-02T13:44:13Z</time>
      </trkpt>
      <trkpt lat="44.89735" lon="5.23391">
        <ele>1305.7</ele>
        <time>2024-07-02T13:44:14Z</time>
      </trkpt>
      <trkpt lat="44.89735" lon="5.23391">
        <ele>1305.7</ele>
        <time>2024-07-02T13:44:15Z</time>
      </trkpt>
      <trkpt lat="44.89735" lon="5.23391">
        <ele>1305.7</ele>
        <time>2024-07-02T13:44:16Z</time>
      </trkpt>
      <trkpt lat="44.89735" lon="5.23391">
        <ele>1305.7</ele>
        <time>2024-07-02T13:44:17Z</time>
      </trkpt>
      <trkpt lat="44.89735" lon="5.23391">
        <ele>1305.7</ele>
        <time>2024-07-02T13:44:18Z</time>
      </trkpt>
      <trkpt lat="44.89735" lon="5.23391">
        <ele>1305.7</ele>
        <time>2024-07-02T13:44:19Z</time>
      </trkpt>
      <trkpt lat="44.89735" lon="5.23391">
        <ele>1305.7</ele>
        <time>2024-07-02T13:44:20Z</time>
      </trkpt>
      <trkpt lat="44.89735" lon="5.23391">
        <ele>1305.7</ele>
        <time>2024-07-02T13:44:21Z</time>
      </trkpt>
      <trkpt lat="44.89735" lon="5.23391">
        <ele>1305.7</ele>
        <time>2024-07-02T13:44:22Z</time>
      </trkpt>
      <trkpt lat="44.89735" lon="5.23391">
        <ele>1305.7</ele>
        <time>2024-07-02T13:44:23Z</time>
      </trkpt>
      <trkpt lat="44.89735" lon="5.23391">
        <ele>1305.7</ele>
        <time>2024-07-02T13:44:24Z</time>
      </trkpt>
      <trkpt lat="44.89735" lon="5.23391">
        <ele>1305.7</ele>
        <time>2024-07-02T13:44:25Z</time>
      </trkpt>
      <trkpt lat="44.89735" lon="5.23391">
        <ele>1305.7</ele>
        <time>2024-07-02T13:44:26Z</time>
      </trkpt>
      <trkpt lat="44.89735" lon="5.23391">
        <ele>1305.7</ele>
        <time>2024-07-02T13:44:27Z</time>
      </trkpt>
      <trkpt lat="44.89735" lon="5.23391">
        <ele>1305.7</ele>
        <time>2024-07-02T13:44:28Z</time>
      </trkpt>
      <trkpt lat="44.89735" lon="5.23391">
        <ele>1305.7</ele>
        <time>2024-07-02T13:44:29Z</time>
      </trkpt>
      <trkpt lat="44.89735" lon="5.23391">
        <ele>1305.7</ele>
        <time>2024-07-02T13:44:30Z</time>
      </trkpt>
      <trkpt lat="44.89735" lon="5.23391">
        <ele>1305.7</ele>
        <time>2024-07-02T13:44:31Z</time>
      </trkpt>
      <trkpt lat="44.89735" lon="5.23391">
        <ele>1305.7</ele>
        <time>2024-07-02T13:44:32Z</time>
      </trkpt>
      <trkpt lat="44.89736" lon="5.23391">
        <ele>1305.7</ele>
        <time>2024-07-02T13:44:33Z</time>
      </trkpt>
      <trkpt lat="44.89737" lon="5.2339">
        <ele>1305.8</ele>
        <time>2024-07-02T13:44:34Z</time>
      </trkpt>
      <trkpt lat="44.89737" lon="5.2339">
        <ele>1305.8</ele>
        <time>2024-07-02T13:44:35Z</time>
      </trkpt>
      <trkpt lat="44.89738" lon="5.2339">
        <ele>1305.8</ele>
        <time>2024-07-02T13:44:36Z</time>
      </trkpt>
      <trkpt lat="44.8974" lon="5.23389">
        <ele>1305.9</ele>
        <time>2024-07-02T13:44:37Z</time>
      </trkpt>
      <trkpt lat="44.89742" lon="5.23388">
        <ele>1305.9</ele>
        <time>2024-07-02T13:44:38Z</time>
      </trkpt>
      <trkpt lat="44.89743" lon="5.23388">
        <ele>1306</ele>
        <time>2024-07-02T13:44:39Z</time>
      </trkpt>
      <trkpt lat="44.89744" lon="5.23388">
        <ele>1306</ele>
        <time>2024-07-02T13:44:40Z</time>
      </trkpt>
      <trkpt lat="44.89746" lon="5.23388">
        <ele>1306</ele>
        <time>2024-07-02T13:44:41Z</time>
      </trkpt>
      <trkpt lat="44.89747" lon="5.23388">
        <ele>1306.1</ele>
        <time>2024-07-02T13:44:42Z</time>
      </trkpt>
      <trkpt lat="44.89748" lon="5.23388">
        <ele>1306.1</ele>
        <time>2024-07-02T13:44:43Z</time>
      </trkpt>
      <trkpt lat="44.89748" lon="5.23388">
        <ele>1306.1</ele>
        <time>2024-07-02T13:44:44Z</time>
      </trkpt>
      <trkpt lat="44.89749" lon="5.23388">
        <ele>1306.2</ele>
        <time>2024-07-02T13:44:45Z</time>
      </trkpt>
      <trkpt lat="44.8975" lon="5.23388">
        <ele>1306.2</ele>
        <time>2024-07-02T13:44:46Z</time>
      </trkpt>
      <trkpt lat="44.89752" lon="5.23387">
        <ele>1306.3</ele>
        <time>2024-07-02T13:44:47Z</time>
      </trkpt>
      <trkpt lat="44.89753" lon="5.23387">
        <ele>1306.3</ele>
        <time>2024-07-02T13:44:48Z</time>
      </trkpt>
      <trkpt lat="44.89754" lon="5.23387">
        <ele>1306.4</ele>
        <time>2024-07-02T13:44:49Z</time>
      </trkpt>
      <trkpt lat="44.89755" lon="5.23387">
        <ele>1306.4</ele>
        <time>2024-07-02T13:44:50Z</time>
      </trkpt>
      <trkpt lat="44.89756" lon="5.23387">
        <ele>1306.4</ele>
        <time>2024-07-02T13:44:51Z</time>
      </trkpt>
      <trkpt lat="44.89757" lon="5.23387">
        <ele>1306.5</ele>
        <time>2024-07-02T13:44:52Z</time>
      </trkpt>
      <trkpt lat="44.89759" lon="5.23387">
        <ele>1306.6</ele>
        <time>2024-07-02T13:44:53Z</time>
      </trkpt>
      <trkpt lat="44.8976" lon="5.23386">
        <ele>1306.6</ele>
        <time>2024-07-02T13:44:54Z</time>
      </trkpt>
      <trkpt lat="44.89761" lon="5.23386">
        <ele>1306.7</ele>
        <time>2024-07-02T13:44:55Z</time>
      </trkpt>
      <trkpt lat="44.89762" lon="5.23386">
        <ele>1306.7</ele>
        <time>2024-07-02T13:44:56Z</time>
      </trkpt>
      <trkpt lat="44.89763" lon="5.23386">
        <ele>1306.8</ele>
        <time>2024-07-02T13:44:57Z</time>
      </trkpt>
      <trkpt lat="44.89766" lon="5.23385">
        <ele>1306.9</ele>
        <time>2024-07-02T13:44:58Z</time>
      </trkpt>
      <trkpt lat="44.89766" lon="5.23385">
        <ele>1306.9</ele>
        <time>2024-07-02T13:44:59Z</time>
      </trkpt>
      <trkpt lat="44.89767" lon="5.23384">
        <ele>1306.9</ele>
        <time>2024-07-02T13:45:00Z</time>
      </trkpt>
      <trkpt lat="44.89769" lon="5.23384">
        <ele>1307</ele>
        <time>2024-07-02T13:45:01Z</time>
      </trkpt>
      <trkpt lat="44.8977" lon="5.23383">
        <ele>1307.1</ele>
        <time>2024-07-02T13:45:02Z</time>
      </trkpt>
      <trkpt lat="44.8977" lon="5.23383">
        <ele>1307.1</ele>
        <time>2024-07-02T13:45:03Z</time>
      </trkpt>
      <trkpt lat="44.89771" lon="5.23383">
        <ele>1307.2</ele>
        <time>2024-07-02T13:45:04Z</time>
      </trkpt>
      <trkpt lat="44.89772" lon="5.23382">
        <ele>1307.2</ele>
        <time>2024-07-02T13:45:05Z</time>
      </trkpt>
      <trkpt lat="44.89773" lon="5.23381">
        <ele>1307.3</ele>
        <time>2024-07-02T13:45:06Z</time>
      </trkpt>
      <trkpt lat="44.89774" lon="5.2338">
        <ele>1307.3</ele>
        <time>2024-07-02T13:45:07Z</time>
      </trkpt>
      <trkpt lat="44.89776" lon="5.2338">
        <ele>1307.4</ele>
        <time>2024-07-02T13:45:08Z</time>
      </trkpt>
      <trkpt lat="44.89776" lon="5.2338">
        <ele>1307.5</ele>
        <time>2024-07-02T13:45:09Z</time>
      </trkpt>
      <trkpt lat="44.89777" lon="5.2338">
        <ele>1307.5</ele>
        <time>2024-07-02T13:45:10Z</time>
      </trkpt>
      <trkpt lat="44.89778" lon="5.23381">
        <ele>1307.6</ele>
        <time>2024-07-02T13:45:11Z</time>
      </trkpt>
      <trkpt lat="44.89779" lon="5.23382">
        <ele>1307.6</ele>
        <time>2024-07-02T13:45:12Z</time>
      </trkpt>
      <trkpt lat="44.89779" lon="5.23383">
        <ele>1307.7</ele>
        <time>2024-07-02T13:45:13Z</time>
      </trkpt>
      <trkpt lat="44.8978" lon="5.23384">
        <ele>1307.7</ele>
        <time>2024-07-02T13:45:14Z</time>
      </trkpt>
      <trkpt lat="44.8978" lon="5.23386">
        <ele>1307.8</ele>
        <time>2024-07-02T13:45:15Z</time>
      </trkpt>
      <trkpt lat="44.89781" lon="5.23387">
        <ele>1307.8</ele>
        <time>2024-07-02T13:45:16Z</time>
      </trkpt>
      <trkpt lat="44.89782" lon="5.23388">
        <ele>1307.9</ele>
        <time>2024-07-02T13:45:17Z</time>
      </trkpt>
      <trkpt lat="44.89782" lon="5.2339">
        <ele>1307.9</ele>
        <time>2024-07-02T13:45:18Z</time>
      </trkpt>
      <trkpt lat="44.89783" lon="5.23391">
        <ele>1308</ele>
        <time>2024-07-02T13:45:19Z</time>
      </trkpt>
      <trkpt lat="44.89784" lon="5.23391">
        <ele>1308</ele>
        <time>2024-07-02T13:45:20Z</time>
      </trkpt>
      <trkpt lat="44.89785" lon="5.23391">
        <ele>1308.1</ele>
        <time>2024-07-02T13:45:21Z</time>
      </trkpt>
      <trkpt lat="44.89786" lon="5.23391">
        <ele>1308.1</ele>
        <time>2024-07-02T13:45:22Z</time>
      </trkpt>
      <trkpt lat="44.89786" lon="5.23392">
        <ele>1308.2</ele>
        <time>2024-07-02T13:45:23Z</time>
      </trkpt>
      <trkpt lat="44.89787" lon="5.23392">
        <ele>1308.2</ele>
        <time>2024-07-02T13:45:24Z</time>
      </trkpt>
      <trkpt lat="44.89788" lon="5.23392">
        <ele>1308.2</ele>
        <time>2024-07-02T13:45:25Z</time>
      </trkpt>
      <trkpt lat="44.89788" lon="5.23392">
        <ele>1308.2</ele>
        <time>2024-07-02T13:45:26Z</time>
      </trkpt>
      <trkpt lat="44.89788" lon="5.23391">
        <ele>1308.3</ele>
        <time>2024-07-02T13:45:27Z</time>
      </trkpt>
      <trkpt lat="44.89788" lon="5.23391">
        <ele>1308.3</ele>
        <time>2024-07-02T13:45:28Z</time>
      </trkpt>
      <trkpt lat="44.89788" lon="5.23391">
        <ele>1308.3</ele>
        <time>2024-07-02T13:45:29Z</time>
      </trkpt>
      <trkpt lat="44.89788" lon="5.23391">
        <ele>1308.3</ele>
        <time>2024-07-02T13:45:30Z</time>
      </trkpt>
      <trkpt lat="44.89788" lon="5.23391">
        <ele>1308.3</ele>
        <time>2024-07-02T13:45:31Z</time>
      </trkpt>
      <trkpt lat="44.89788" lon="5.23391">
        <ele>1308.3</ele>
        <time>2024-07-02T13:45:32Z</time>
      </trkpt>
      <trkpt lat="44.89788" lon="5.23391">
        <ele>1308.3</ele>
        <time>2024-07-02T13:45:33Z</time>
      </trkpt>
      <trkpt lat="44.89788" lon="5.23391">
        <ele>1308.3</ele>
        <time>2024-07-02T13:45:34Z</time>
      </trkpt>
      <trkpt lat="44.89788" lon="5.23391">
        <ele>1308.3</ele>
        <time>2024-07-02T13:45:35Z</time>
      </trkpt>
      <trkpt lat="44.89788" lon="5.23392">
        <ele>1308.3</ele>
        <time>2024-07-02T13:45:36Z</time>
      </trkpt>
      <trkpt lat="44.89788" lon="5.23392">
        <ele>1308.3</ele>
        <time>2024-07-02T13:45:37Z</time>
      </trkpt>
      <trkpt lat="44.89788" lon="5.23391">
        <ele>1308.4</ele>
        <time>2024-07-02T13:45:38Z</time>
      </trkpt>
      <trkpt lat="44.89788" lon="5.2339">
        <ele>1308.4</ele>
        <time>2024-07-02T13:45:39Z</time>
      </trkpt>
      <trkpt lat="44.89788" lon="5.23389">
        <ele>1308.4</ele>
        <time>2024-07-02T13:45:40Z</time>
      </trkpt>
      <trkpt lat="44.89789" lon="5.23388">
        <ele>1308.5</ele>
        <time>2024-07-02T13:45:41Z</time>
      </trkpt>
      <trkpt lat="44.89791" lon="5.23388">
        <ele>1308.6</ele>
        <time>2024-07-02T13:45:42Z</time>
      </trkpt>
      <trkpt lat="44.89791" lon="5.23389">
        <ele>1308.6</ele>
        <time>2024-07-02T13:45:43Z</time>
      </trkpt>
      <trkpt lat="44.8979" lon="5.23389">
        <ele>1308.7</ele>
        <time>2024-07-02T13:45:44Z</time>
      </trkpt>
      <trkpt lat="44.8979" lon="5.23389">
        <ele>1308.7</ele>
        <time>2024-07-02T13:45:45Z</time>
      </trkpt>
      <trkpt lat="44.8979" lon="5.23389">
        <ele>1308.7</ele>
        <time>2024-07-02T13:45:46Z</time>
      </trkpt>
      <trkpt lat="44.8979" lon="5.23389">
        <ele>1308.7</ele>
        <time>2024-07-02T13:45:47Z</time>
      </trkpt>
      <trkpt lat="44.8979" lon="5.23388">
        <ele>1308.7</ele>
        <time>2024-07-02T13:45:48Z</time>
      </trkpt>
      <trkpt lat="44.8979" lon="5.23388">
        <ele>1308.7</ele>
        <time>2024-07-02T13:45:49Z</time>
      </trkpt>
      <trkpt lat="44.8979" lon="5.23388">
        <ele>1308.8</ele>
        <time>2024-07-02T13:45:50Z</time>
      </trkpt>
      <trkpt lat="44.8979" lon="5.23388">
        <ele>1308.8</ele>
        <time>2024-07-02T13:45:51Z</time>
      </trkpt>
      <trkpt lat="44.8979" lon="5.23388">
        <ele>1308.8</ele>
        <time>2024-07-02T13:45:52Z</time>
      </trkpt>
      <trkpt lat="44.89791" lon="5.23386">
        <ele>1308.9</ele>
        <time>2024-07-02T13:45:53Z</time>
      </trkpt>
      <trkpt lat="44.89791" lon="5.23386">
        <ele>1308.9</ele>
        <time>2024-07-02T13:45:54Z</time>
      </trkpt>
      <trkpt lat="44.8979" lon="5.23385">
        <ele>1308.9</ele>
        <time>2024-07-02T13:45:55Z</time>
      </trkpt>
      <trkpt lat="44.8979" lon="5.23385">
        <ele>1308.9</ele>
        <time>2024-07-02T13:45:56Z</time>
      </trkpt>
      <trkpt lat="44.89791" lon="5.23384">
        <ele>1309</ele>
        <time>2024-07-02T13:45:57Z</time>
      </trkpt>
      <trkpt lat="44.89791" lon="5.23382">
        <ele>1309</ele>
        <time>2024-07-02T13:45:58Z</time>
      </trkpt>
      <trkpt lat="44.89792" lon="5.23381">
        <ele>1309.1</ele>
        <time>2024-07-02T13:45:59Z</time>
      </trkpt>
      <trkpt lat="44.89792" lon="5.23379">
        <ele>1309.2</ele>
        <time>2024-07-02T13:46:00Z</time>
      </trkpt>
      <trkpt lat="44.89793" lon="5.23379">
        <ele>1309.2</ele>
        <time>2024-07-02T13:46:01Z</time>
      </trkpt>
      <trkpt lat="44.89794" lon="5.2338">
        <ele>1309.3</ele>
        <time>2024-07-02T13:46:02Z</time>
      </trkpt>
      <trkpt lat="44.89793" lon="5.2338">
        <ele>1309.3</ele>
        <time>2024-07-02T13:46:03Z</time>
      </trkpt>
      <trkpt lat="44.89793" lon="5.2338">
        <ele>1309.3</ele>
        <time>2024-07-02T13:46:04Z</time>
      </trkpt>
      <trkpt lat="44.89792" lon="5.2338">
        <ele>1309.3</ele>
        <time>2024-07-02T13:46:05Z</time>
      </trkpt>
      <trkpt lat="44.89792" lon="5.23379">
        <ele>1309.3</ele>
        <time>2024-07-02T13:46:06Z</time>
      </trkpt>
      <trkpt lat="44.89792" lon="5.23379">
        <ele>1309.3</ele>
        <time>2024-07-02T13:46:07Z</time>
      </trkpt>
      <trkpt lat="44.89792" lon="5.23379">
        <ele>1309.4</ele>
        <time>2024-07-02T13:46:08Z</time>
      </trkpt>
      <trkpt lat="44.89792" lon="5.23379">
        <ele>1309.4</ele>
        <time>2024-07-02T13:46:09Z</time>
      </trkpt>
      <trkpt lat="44.89792" lon="5.23379">
        <ele>1309.4</ele>
        <time>2024-07-02T13:46:10Z</time>
      </trkpt>
      <trkpt lat="44.89792" lon="5.23378">
        <ele>1309.4</ele>
        <time>2024-07-02T13:46:11Z</time>
      </trkpt>
      <trkpt lat="44.89793" lon="5.23377">
        <ele>1309.5</ele>
        <time>2024-07-02T13:46:12Z</time>
      </trkpt>
      <trkpt lat="44.89793" lon="5.23375">
        <ele>1309.5</ele>
        <time>2024-07-02T13:46:13Z</time>
      </trkpt>
      <trkpt lat="44.89794" lon="5.23375">
        <ele>1309.5</ele>
        <time>2024-07-02T13:46:14Z</time>
      </trkpt>
      <trkpt lat="44.89794" lon="5.23375">
        <ele>1309.6</ele>
        <time>2024-07-02T13:46:15Z</time>
      </trkpt>
      <trkpt lat="44.89794" lon="5.23375">
        <ele>1309.6</ele>
        <time>2024-07-02T13:46:16Z</time>
      </trkpt>
      <trkpt lat="44.89795" lon="5.23375">
        <ele>1309.6</ele>
        <time>2024-07-02T13:46:17Z</time>
      </trkpt>
      <trkpt lat="44.89795" lon="5.23375">
        <ele>1309.6</ele>
        <time>2024-07-02T13:46:18Z</time>
      </trkpt>
      <trkpt lat="44.89796" lon="5.23375">
        <ele>1309.7</ele>
        <time>2024-07-02T13:46:19Z</time>
      </trkpt>
      <trkpt lat="44.89796" lon="5.23375">
        <ele>1309.7</ele>
        <time>2024-07-02T13:46:20Z</time>
      </trkpt>
      <trkpt lat="44.89796" lon="5.23375">
        <ele>1309.7</ele>
        <time>2024-07-02T13:46:21Z</time>
      </trkpt>
      <trkpt lat="44.89797" lon="5.23374">
        <ele>1309.8</ele>
        <time>2024-07-02T13:46:22Z</time>
      </trkpt>
      <trkpt lat="44.89798" lon="5.23372">
        <ele>1309.8</ele>
        <time>2024-07-02T13:46:23Z</time>
      </trkpt>
      <trkpt lat="44.89799" lon="5.23371">
        <ele>1309.9</ele>
        <time>2024-07-02T13:46:24Z</time>
      </trkpt>
      <trkpt lat="44.898" lon="5.23371">
        <ele>1309.9</ele>
        <time>2024-07-02T13:46:25Z</time>
      </trkpt>
      <trkpt lat="44.89801" lon="5.2337">
        <ele>1310</ele>
        <time>2024-07-02T13:46:26Z</time>
      </trkpt>
      <trkpt lat="44.89801" lon="5.2337">
        <ele>1310</ele>
        <time>2024-07-02T13:46:27Z</time>
      </trkpt>
      <trkpt lat="44.89802" lon="5.23369">
        <ele>1310.1</ele>
        <time>2024-07-02T13:46:28Z</time>
      </trkpt>
      <trkpt lat="44.89803" lon="5.23368">
        <ele>1310.2</ele>
        <time>2024-07-02T13:46:29Z</time>
      </trkpt>
      <trkpt lat="44.89804" lon="5.23368">
        <ele>1310.2</ele>
        <time>2024-07-02T13:46:30Z</time>
      </trkpt>
      <trkpt lat="44.89805" lon="5.23367">
        <ele>1310.3</ele>
        <time>2024-07-02T13:46:31Z</time>
      </trkpt>
      <trkpt lat="44.89806" lon="5.23365">
        <ele>1310.3</ele>
        <time>2024-07-02T13:46:32Z</time>
      </trkpt>
      <trkpt lat="44.89806" lon="5.23364">
        <ele>1310.4</ele>
        <time>2024-07-02T13:46:33Z</time>
      </trkpt>
      <trkpt lat="44.89807" lon="5.23362">
        <ele>1310.5</ele>
        <time>2024-07-02T13:46:34Z</time>
      </trkpt>
      <trkpt lat="44.89808" lon="5.23361">
        <ele>1310.5</ele>
        <time>2024-07-02T13:46:35Z</time>
      </trkpt>
      <trkpt lat="44.89808" lon="5.2336">
        <ele>1310.6</ele>
        <time>2024-07-02T13:46:36Z</time>
      </trkpt>
      <trkpt lat="44.89809" lon="5.23358">
        <ele>1310.7</ele>
        <time>2024-07-02T13:46:37Z</time>
      </trkpt>
      <trkpt lat="44.89809" lon="5.23357">
        <ele>1310.7</ele>
        <time>2024-07-02T13:46:38Z</time>
      </trkpt>
      <trkpt lat="44.8981" lon="5.23356">
        <ele>1310.8</ele>
        <time>2024-07-02T13:46:39Z</time>
      </trkpt>
      <trkpt lat="44.8981" lon="5.23354">
        <ele>1310.9</ele>
        <time>2024-07-02T13:46:40Z</time>
      </trkpt>
      <trkpt lat="44.89811" lon="5.23353">
        <ele>1310.9</ele>
        <time>2024-07-02T13:46:41Z</time>
      </trkpt>
      <trkpt lat="44.89811" lon="5.23352">
        <ele>1311</ele>
        <time>2024-07-02T13:46:42Z</time>
      </trkpt>
      <trkpt lat="44.89812" lon="5.23351">
        <ele>1311</ele>
        <time>2024-07-02T13:46:43Z</time>
      </trkpt>
      <trkpt lat="44.89813" lon="5.23349">
        <ele>1311.1</ele>
        <time>2024-07-02T13:46:44Z</time>
      </trkpt>
      <trkpt lat="44.89814" lon="5.23348">
        <ele>1311.2</ele>
        <time>2024-07-02T13:46:45Z</time>
      </trkpt>
      <trkpt lat="44.89814" lon="5.23347">
        <ele>1311.3</ele>
        <time>2024-07-02T13:46:46Z</time>
      </trkpt>
      <trkpt lat="44.89815" lon="5.23346">
        <ele>1311.3</ele>
        <time>2024-07-02T13:46:47Z</time>
      </trkpt>
      <trkpt lat="44.89815" lon="5.23344">
        <ele>1311.4</ele>
        <time>2024-07-02T13:46:48Z</time>
      </trkpt>
      <trkpt lat="44.89816" lon="5.23343">
        <ele>1311.5</ele>
        <time>2024-07-02T13:46:49Z</time>
      </trkpt>
      <trkpt lat="44.89817" lon="5.23342">
        <ele>1311.6</ele>
        <time>2024-07-02T13:46:50Z</time>
      </trkpt>
      <trkpt lat="44.89817" lon="5.2334">
        <ele>1311.7</ele>
        <time>2024-07-02T13:46:51Z</time>
      </trkpt>
      <trkpt lat="44.89818" lon="5.23338">
        <ele>1311.8</ele>
        <time>2024-07-02T13:46:52Z</time>
      </trkpt>
      <trkpt lat="44.89818" lon="5.23337">
        <ele>1311.8</ele>
        <time>2024-07-02T13:46:53Z</time>
      </trkpt>
      <trkpt lat="44.89818" lon="5.23335">
        <ele>1311.9</ele>
        <time>2024-07-02T13:46:54Z</time>
      </trkpt>
      <trkpt lat="44.89819" lon="5.23334">
        <ele>1312</ele>
        <time>2024-07-02T13:46:55Z</time>
      </trkpt>
      <trkpt lat="44.89819" lon="5.23332">
        <ele>1312.1</ele>
        <time>2024-07-02T13:46:56Z</time>
      </trkpt>
      <trkpt lat="44.8982" lon="5.23331">
        <ele>1312.2</ele>
        <time>2024-07-02T13:46:57Z</time>
      </trkpt>
      <trkpt lat="44.8982" lon="5.23329">
        <ele>1312.3</ele>
        <time>2024-07-02T13:46:58Z</time>
      </trkpt>
      <trkpt lat="44.89821" lon="5.23328">
        <ele>1312.3</ele>
        <time>2024-07-02T13:46:59Z</time>
      </trkpt>
      <trkpt lat="44.89821" lon="5.23326">
        <ele>1312.4</ele>
        <time>2024-07-02T13:47:00Z</time>
      </trkpt>
      <trkpt lat="44.89821" lon="5.23325">
        <ele>1312.5</ele>
        <time>2024-07-02T13:47:01Z</time>
      </trkpt>
      <trkpt lat="44.89822" lon="5.23324">
        <ele>1312.6</ele>
        <time>2024-07-02T13:47:02Z</time>
      </trkpt>
      <trkpt lat="44.89823" lon="5.23322">
        <ele>1312.7</ele>
        <time>2024-07-02T13:47:03Z</time>
      </trkpt>
      <trkpt lat="44.89823" lon="5.23321">
        <ele>1312.8</ele>
        <time>2024-07-02T13:47:04Z</time>
      </trkpt>
      <trkpt lat="44.89824" lon="5.23319">
        <ele>1312.8</ele>
        <time>2024-07-02T13:47:05Z</time>
      </trkpt>
      <trkpt lat="44.89824" lon="5.23318">
        <ele>1312.9</ele>
        <time>2024-07-02T13:47:06Z</time>
      </trkpt>
      <trkpt lat="44.89826" lon="5.23316">
        <ele>1313.1</ele>
        <time>2024-07-02T13:47:07Z</time>
      </trkpt>
      <trkpt lat="44.89826" lon="5.23315">
        <ele>1313.1</ele>
        <time>2024-07-02T13:47:08Z</time>
      </trkpt>
      <trkpt lat="44.89826" lon="5.23314">
        <ele>1313.2</ele>
        <time>2024-07-02T13:47:09Z</time>
      </trkpt>
      <trkpt lat="44.89827" lon="5.23313">
        <ele>1313.3</ele>
        <time>2024-07-02T13:47:10Z</time>
      </trkpt>
      <trkpt lat="44.89827" lon="5.23311">
        <ele>1313.4</ele>
        <time>2024-07-02T13:47:11Z</time>
      </trkpt>
      <trkpt lat="44.89828" lon="5.2331">
        <ele>1313.4</ele>
        <time>2024-07-02T13:47:12Z</time>
      </trkpt>
      <trkpt lat="44.89829" lon="5.23309">
        <ele>1313.5</ele>
        <time>2024-07-02T13:47:13Z</time>
      </trkpt>
      <trkpt lat="44.89829" lon="5.23308">
        <ele>1313.6</ele>
        <time>2024-07-02T13:47:14Z</time>
      </trkpt>
      <trkpt lat="44.8983" lon="5.23307">
        <ele>1313.7</ele>
        <time>2024-07-02T13:47:15Z</time>
      </trkpt>
      <trkpt lat="44.8983" lon="5.23306">
        <ele>1313.7</ele>
        <time>2024-07-02T13:47:16Z</time>
      </trkpt>
      <trkpt lat="44.8983" lon="5.23305">
        <ele>1313.8</ele>
        <time>2024-07-02T13:47:17Z</time>
      </trkpt>
      <trkpt lat="44.8983" lon="5.23304">
        <ele>1313.9</ele>
        <time>2024-07-02T13:47:18Z</time>
      </trkpt>
      <trkpt lat="44.89831" lon="5.23302">
        <ele>1314</ele>
        <time>2024-07-02T13:47:19Z</time>
      </trkpt>
      <trkpt lat="44.89831" lon="5.23301">
        <ele>1314</ele>
        <time>2024-07-02T13:47:20Z</time>
      </trkpt>
      <trkpt lat="44.89832" lon="5.233">
        <ele>1314.1</ele>
        <time>2024-07-02T13:47:21Z</time>
      </trkpt>
      <trkpt lat="44.89832" lon="5.23298">
        <ele>1314.2</ele>
        <time>2024-07-02T13:47:22Z</time>
      </trkpt>
      <trkpt lat="44.89832" lon="5.23297">
        <ele>1314.3</ele>
        <time>2024-07-02T13:47:23Z</time>
      </trkpt>
      <trkpt lat="44.89832" lon="5.23295">
        <ele>1314.4</ele>
        <time>2024-07-02T13:47:24Z</time>
      </trkpt>
      <trkpt lat="44.89832" lon="5.23294">
        <ele>1314.5</ele>
        <time>2024-07-02T13:47:25Z</time>
      </trkpt>
      <trkpt lat="44.89832" lon="5.23292">
        <ele>1314.5</ele>
        <time>2024-07-02T13:47:26Z</time>
      </trkpt>
      <trkpt lat="44.89832" lon="5.23291">
        <ele>1314.6</ele>
        <time>2024-07-02T13:47:27Z</time>
      </trkpt>
      <trkpt lat="44.89832" lon="5.23289">
        <ele>1314.7</ele>
        <time>2024-07-02T13:47:28Z</time>
      </trkpt>
      <trkpt lat="44.89833" lon="5.23288">
        <ele>1314.8</ele>
        <time>2024-07-02T13:47:29Z</time>
      </trkpt>
      <trkpt lat="44.89833" lon="5.23287">
        <ele>1314.9</ele>
        <time>2024-07-02T13:47:30Z</time>
      </trkpt>
      <trkpt lat="44.89834" lon="5.23285">
        <ele>1315</ele>
        <time>2024-07-02T13:47:31Z</time>
      </trkpt>
      <trkpt lat="44.89835" lon="5.23284">
        <ele>1315.1</ele>
        <time>2024-07-02T13:47:32Z</time>
      </trkpt>
      <trkpt lat="44.89835" lon="5.23283">
        <ele>1315.1</ele>
        <time>2024-07-02T13:47:33Z</time>
      </trkpt>
      <trkpt lat="44.89836" lon="5.23281">
        <ele>1315.2</ele>
        <time>2024-07-02T13:47:34Z</time>
      </trkpt>
      <trkpt lat="44.89836" lon="5.2328">
        <ele>1315.3</ele>
        <time>2024-07-02T13:47:35Z</time>
      </trkpt>
      <trkpt lat="44.89837" lon="5.23278">
        <ele>1315.4</ele>
        <time>2024-07-02T13:47:36Z</time>
      </trkpt>
      <trkpt lat="44.89837" lon="5.23277">
        <ele>1315.5</ele>
        <time>2024-07-02T13:47:37Z</time>
      </trkpt>
      <trkpt lat="44.89838" lon="5.23275">
        <ele>1315.6</ele>
        <time>2024-07-02T13:47:38Z</time>
      </trkpt>
      <trkpt lat="44.89838" lon="5.23274">
        <ele>1315.7</ele>
        <time>2024-07-02T13:47:39Z</time>
      </trkpt>
      <trkpt lat="44.89839" lon="5.23273">
        <ele>1315.8</ele>
        <time>2024-07-02T13:47:40Z</time>
      </trkpt>
      <trkpt lat="44.89839" lon="5.23271">
        <ele>1315.9</ele>
        <time>2024-07-02T13:47:41Z</time>
      </trkpt>
      <trkpt lat="44.8984" lon="5.2327">
        <ele>1315.9</ele>
        <time>2024-07-02T13:47:42Z</time>
      </trkpt>
      <trkpt lat="44.8984" lon="5.23269">
        <ele>1316</ele>
        <time>2024-07-02T13:47:43Z</time>
      </trkpt>
      <trkpt lat="44.8984" lon="5.23267">
        <ele>1316.1</ele>
        <time>2024-07-02T13:47:44Z</time>
      </trkpt>
      <trkpt lat="44.89841" lon="5.23266">
        <ele>1316.2</ele>
        <time>2024-07-02T13:47:45Z</time>
      </trkpt>
      <trkpt lat="44.89841" lon="5.23264">
        <ele>1316.3</ele>
        <time>2024-07-02T13:47:46Z</time>
      </trkpt>
      <trkpt lat="44.89841" lon="5.23263">
        <ele>1316.4</ele>
        <time>2024-07-02T13:47:47Z</time>
      </trkpt>
      <trkpt lat="44.8984" lon="5.23264">
        <ele>1316.5</ele>
        <time>2024-07-02T13:47:48Z</time>
      </trkpt>
      <trkpt lat="44.89839" lon="5.23265">
        <ele>1316.6</ele>
        <time>2024-07-02T13:47:49Z</time>
      </trkpt>
      <trkpt lat="44.89839" lon="5.23266">
        <ele>1316.6</ele>
        <time>2024-07-02T13:47:50Z</time>
      </trkpt>
      <trkpt lat="44.89839" lon="5.23267">
        <ele>1316.7</ele>
        <time>2024-07-02T13:47:51Z</time>
      </trkpt>
      <trkpt lat="44.89838" lon="5.23266">
        <ele>1316.7</ele>
        <time>2024-07-02T13:47:52Z</time>
      </trkpt>
      <trkpt lat="44.89838" lon="5.23265">
        <ele>1316.8</ele>
        <time>2024-07-02T13:47:53Z</time>
      </trkpt>
      <trkpt lat="44.89838" lon="5.23263">
        <ele>1316.9</ele>
        <time>2024-07-02T13:47:54Z</time>
      </trkpt>
      <trkpt lat="44.89839" lon="5.23261">
        <ele>1317.1</ele>
        <time>2024-07-02T13:47:55Z</time>
      </trkpt>
      <trkpt lat="44.8984" lon="5.2326">
        <ele>1317.2</ele>
        <time>2024-07-02T13:47:56Z</time>
      </trkpt>
      <trkpt lat="44.89841" lon="5.23259">
        <ele>1317.2</ele>
        <time>2024-07-02T13:47:57Z</time>
      </trkpt>
      <trkpt lat="44.8984" lon="5.23259">
        <ele>1317.3</ele>
        <time>2024-07-02T13:47:58Z</time>
      </trkpt>
      <trkpt lat="44.8984" lon="5.2326">
        <ele>1317.3</ele>
        <time>2024-07-02T13:47:59Z</time>
      </trkpt>
      <trkpt lat="44.89841" lon="5.2326">
        <ele>1317.4</ele>
        <time>2024-07-02T13:48:00Z</time>
      </trkpt>
      <trkpt lat="44.89841" lon="5.23261">
        <ele>1317.4</ele>
        <time>2024-07-02T13:48:01Z</time>
      </trkpt>
      <trkpt lat="44.89841" lon="5.23261">
        <ele>1317.4</ele>
        <time>2024-07-02T13:48:02Z</time>
      </trkpt>
      <trkpt lat="44.89841" lon="5.23261">
        <ele>1317.4</ele>
        <time>2024-07-02T13:48:03Z</time>
      </trkpt>
      <trkpt lat="44.89841" lon="5.23261">
        <ele>1317.4</ele>
        <time>2024-07-02T13:48:04Z</time>
      </trkpt>
      <trkpt lat="44.89841" lon="5.23261">
        <ele>1317.4</ele>
        <time>2024-07-02T13:48:05Z</time>
      </trkpt>
      <trkpt lat="44.89841" lon="5.23261">
        <ele>1317.4</ele>
        <time>2024-07-02T13:48:06Z</time>
      </trkpt>
      <trkpt lat="44.89842" lon="5.23261">
        <ele>1317.4</ele>
        <time>2024-07-02T13:48:07Z</time>
      </trkpt>
      <trkpt lat="44.89842" lon="5.23261">
        <ele>1317.4</ele>
        <time>2024-07-02T13:48:08Z</time>
      </trkpt>
      <trkpt lat="44.89842" lon="5.23261">
        <ele>1317.5</ele>
        <time>2024-07-02T13:48:09Z</time>
      </trkpt>
      <trkpt lat="44.89842" lon="5.23261">
        <ele>1317.5</ele>
        <time>2024-07-02T13:48:10Z</time>
      </trkpt>
      <trkpt lat="44.89842" lon="5.23261">
        <ele>1317.5</ele>
        <time>2024-07-02T13:48:11Z</time>
      </trkpt>
      <trkpt lat="44.89842" lon="5.23261">
        <ele>1317.5</ele>
        <time>2024-07-02T13:48:12Z</time>
      </trkpt>
      <trkpt lat="44.89841" lon="5.23261">
        <ele>1317.5</ele>
        <time>2024-07-02T13:48:13Z</time>
      </trkpt>
      <trkpt lat="44.89841" lon="5.23261">
        <ele>1317.5</ele>
        <time>2024-07-02T13:48:14Z</time>
      </trkpt>
      <trkpt lat="44.89841" lon="5.23262">
        <ele>1317.5</ele>
        <time>2024-07-02T13:48:15Z</time>
      </trkpt>
      <trkpt lat="44.89841" lon="5.23262">
        <ele>1317.5</ele>
        <time>2024-07-02T13:48:16Z</time>
      </trkpt>
      <trkpt lat="44.89841" lon="5.23261">
        <ele>1317.5</ele>
        <time>2024-07-02T13:48:17Z</time>
      </trkpt>
      <trkpt lat="44.89841" lon="5.23261">
        <ele>1317.5</ele>
        <time>2024-07-02T13:48:18Z</time>
      </trkpt>
      <trkpt lat="44.89842" lon="5.23261">
        <ele>1317.5</ele>
        <time>2024-07-02T13:48:19Z</time>
      </trkpt>
      <trkpt lat="44.89842" lon="5.23261">
        <ele>1317.5</ele>
        <time>2024-07-02T13:48:20Z</time>
      </trkpt>
      <trkpt lat="44.89842" lon="5.23261">
        <ele>1317.5</ele>
        <time>2024-07-02T13:48:21Z</time>
      </trkpt>
      <trkpt lat="44.89842" lon="5.23261">
        <ele>1317.5</ele>
        <time>2024-07-02T13:48:22Z</time>
      </trkpt>
      <trkpt lat="44.89842" lon="5.23261">
        <ele>1317.5</ele>
        <time>2024-07-02T13:48:23Z</time>
      </trkpt>
      <trkpt lat="44.89842" lon="5.23261">
        <ele>1317.5</ele>
        <time>2024-07-02T13:48:24Z</time>
      </trkpt>
      <trkpt lat="44.89842" lon="5.23261">
        <ele>1317.5</ele>
        <time>2024-07-02T13:48:25Z</time>
      </trkpt>
      <trkpt lat="44.89842" lon="5.23261">
        <ele>1317.5</ele>
        <time>2024-07-02T13:48:26Z</time>
      </trkpt>
      <trkpt lat="44.89842" lon="5.23261">
        <ele>1317.5</ele>
        <time>2024-07-02T13:48:27Z</time>
      </trkpt>
      <trkpt lat="44.89842" lon="5.23261">
        <ele>1317.5</ele>
        <time>2024-07-02T13:48:28Z</time>
      </trkpt>
      <trkpt lat="44.89842" lon="5.23261">
        <ele>1317.5</ele>
        <time>2024-07-02T13:48:29Z</time>
      </trkpt>
      <trkpt lat="44.89842" lon="5.2326">
        <ele>1317.6</ele>
        <time>2024-07-02T13:48:30Z</time>
      </trkpt>
      <trkpt lat="44.89842" lon="5.23259">
        <ele>1317.6</ele>
        <time>2024-07-02T13:48:31Z</time>
      </trkpt>
      <trkpt lat="44.89842" lon="5.2326">
        <ele>1317.7</ele>
        <time>2024-07-02T13:48:32Z</time>
      </trkpt>
      <trkpt lat="44.89842" lon="5.23259">
        <ele>1317.7</ele>
        <time>2024-07-02T13:48:33Z</time>
      </trkpt>
      <trkpt lat="44.89843" lon="5.23258">
        <ele>1317.8</ele>
        <time>2024-07-02T13:48:34Z</time>
      </trkpt>
      <trkpt lat="44.89844" lon="5.23257">
        <ele>1317.9</ele>
        <time>2024-07-02T13:48:35Z</time>
      </trkpt>
      <trkpt lat="44.89845" lon="5.23256">
        <ele>1318</ele>
        <time>2024-07-02T13:48:36Z</time>
      </trkpt>
      <trkpt lat="44.89845" lon="5.23255">
        <ele>1318</ele>
        <time>2024-07-02T13:48:37Z</time>
      </trkpt>
      <trkpt lat="44.89844" lon="5.23254">
        <ele>1318.1</ele>
        <time>2024-07-02T13:48:38Z</time>
      </trkpt>
      <trkpt lat="44.89843" lon="5.23253">
        <ele>1318.2</ele>
        <time>2024-07-02T13:48:39Z</time>
      </trkpt>
      <trkpt lat="44.89843" lon="5.23252">
        <ele>1318.3</ele>
        <time>2024-07-02T13:48:40Z</time>
      </trkpt>
      <trkpt lat="44.89844" lon="5.23251">
        <ele>1318.4</ele>
        <time>2024-07-02T13:48:41Z</time>
      </trkpt>
      <trkpt lat="44.89845" lon="5.23251">
        <ele>1318.5</ele>
        <time>2024-07-02T13:48:42Z</time>
      </trkpt>
      <trkpt lat="44.89846" lon="5.23249">
        <ele>1318.6</ele>
        <time>2024-07-02T13:48:43Z</time>
      </trkpt>
      <trkpt lat="44.89847" lon="5.23248">
        <ele>1318.7</ele>
        <time>2024-07-02T13:48:44Z</time>
      </trkpt>
      <trkpt lat="44.89847" lon="5.23247">
        <ele>1318.7</ele>
        <time>2024-07-02T13:48:45Z</time>
      </trkpt>
      <trkpt lat="44.89848" lon="5.23245">
        <ele>1318.9</ele>
        <time>2024-07-02T13:48:46Z</time>
      </trkpt>
      <trkpt lat="44.89848" lon="5.23243">
        <ele>1318.9</ele>
        <time>2024-07-02T13:48:47Z</time>
      </trkpt>
      <trkpt lat="44.89849" lon="5.2324">
        <ele>1319.1</ele>
        <time>2024-07-02T13:48:48Z</time>
      </trkpt>
      <trkpt lat="44.89849" lon="5.23239">
        <ele>1319.2</ele>
        <time>2024-07-02T13:48:49Z</time>
      </trkpt>
      <trkpt lat="44.8985" lon="5.23238">
        <ele>1319.3</ele>
        <time>2024-07-02T13:48:50Z</time>
      </trkpt>
      <trkpt lat="44.8985" lon="5.23237">
        <ele>1319.3</ele>
        <time>2024-07-02T13:48:51Z</time>
      </trkpt>
      <trkpt lat="44.8985" lon="5.23235">
        <ele>1319.4</ele>
        <time>2024-07-02T13:48:52Z</time>
      </trkpt>
      <trkpt lat="44.8985" lon="5.23234">
        <ele>1319.5</ele>
        <time>2024-07-02T13:48:53Z</time>
      </trkpt>
      <trkpt lat="44.8985" lon="5.23232">
        <ele>1319.6</ele>
        <time>2024-07-02T13:48:54Z</time>
      </trkpt>
      <trkpt lat="44.8985" lon="5.23231">
        <ele>1319.7</ele>
        <time>2024-07-02T13:48:55Z</time>
      </trkpt>
      <trkpt lat="44.89851" lon="5.2323">
        <ele>1319.7</ele>
        <time>2024-07-02T13:48:56Z</time>
      </trkpt>
      <trkpt lat="44.89852" lon="5.23229">
        <ele>1319.8</ele>
        <time>2024-07-02T13:48:57Z</time>
      </trkpt>
      <trkpt lat="44.89852" lon="5.23228">
        <ele>1319.9</ele>
        <time>2024-07-02T13:48:58Z</time>
      </trkpt>
      <trkpt lat="44.89853" lon="5.23226">
        <ele>1320</ele>
        <time>2024-07-02T13:48:59Z</time>
      </trkpt>
      <trkpt lat="44.89853" lon="5.23225">
        <ele>1320</ele>
        <time>2024-07-02T13:49:00Z</time>
      </trkpt>
      <trkpt lat="44.89854" lon="5.23224">
        <ele>1320.1</ele>
        <time>2024-07-02T13:49:01Z</time>
      </trkpt>
      <trkpt lat="44.89854" lon="5.23223">
        <ele>1320.2</ele>
        <time>2024-07-02T13:49:02Z</time>
      </trkpt>
      <trkpt lat="44.89854" lon="5.23221">
        <ele>1320.3</ele>
        <time>2024-07-02T13:49:03Z</time>
      </trkpt>
      <trkpt lat="44.89855" lon="5.2322">
        <ele>1320.4</ele>
        <time>2024-07-02T13:49:04Z</time>
      </trkpt>
      <trkpt lat="44.89855" lon="5.23219">
        <ele>1320.4</ele>
        <time>2024-07-02T13:49:05Z</time>
      </trkpt>
      <trkpt lat="44.89855" lon="5.23217">
        <ele>1320.5</ele>
        <time>2024-07-02T13:49:06Z</time>
      </trkpt>
      <trkpt lat="44.89856" lon="5.23216">
        <ele>1320.6</ele>
        <time>2024-07-02T13:49:07Z</time>
      </trkpt>
      <trkpt lat="44.89856" lon="5.23215">
        <ele>1320.7</ele>
        <time>2024-07-02T13:49:08Z</time>
      </trkpt>
      <trkpt lat="44.89857" lon="5.23213">
        <ele>1320.8</ele>
        <time>2024-07-02T13:49:09Z</time>
      </trkpt>
      <trkpt lat="44.89857" lon="5.23212">
        <ele>1320.9</ele>
        <time>2024-07-02T13:49:10Z</time>
      </trkpt>
      <trkpt lat="44.89858" lon="5.2321">
        <ele>1320.9</ele>
        <time>2024-07-02T13:49:11Z</time>
      </trkpt>
      <trkpt lat="44.89858" lon="5.23209">
        <ele>1321</ele>
        <time>2024-07-02T13:49:12Z</time>
      </trkpt>
      <trkpt lat="44.89859" lon="5.23208">
        <ele>1321.1</ele>
        <time>2024-07-02T13:49:13Z</time>
      </trkpt>
      <trkpt lat="44.89859" lon="5.23207">
        <ele>1321.2</ele>
        <time>2024-07-02T13:49:14Z</time>
      </trkpt>
      <trkpt lat="44.8986" lon="5.23205">
        <ele>1321.3</ele>
        <time>2024-07-02T13:49:15Z</time>
      </trkpt>
      <trkpt lat="44.8986" lon="5.23204">
        <ele>1321.4</ele>
        <time>2024-07-02T13:49:16Z</time>
      </trkpt>
      <trkpt lat="44.8986" lon="5.23202">
        <ele>1321.5</ele>
        <time>2024-07-02T13:49:17Z</time>
      </trkpt>
      <trkpt lat="44.89861" lon="5.23201">
        <ele>1321.6</ele>
        <time>2024-07-02T13:49:18Z</time>
      </trkpt>
      <trkpt lat="44.89861" lon="5.23199">
        <ele>1321.6</ele>
        <time>2024-07-02T13:49:19Z</time>
      </trkpt>
      <trkpt lat="44.89861" lon="5.23198">
        <ele>1321.7</ele>
        <time>2024-07-02T13:49:20Z</time>
      </trkpt>
      <trkpt lat="44.89862" lon="5.23196">
        <ele>1321.8</ele>
        <time>2024-07-02T13:49:21Z</time>
      </trkpt>
      <trkpt lat="44.89862" lon="5.23195">
        <ele>1321.9</ele>
        <time>2024-07-02T13:49:22Z</time>
      </trkpt>
      <trkpt lat="44.89863" lon="5.23194">
        <ele>1322</ele>
        <time>2024-07-02T13:49:23Z</time>
      </trkpt>
      <trkpt lat="44.89863" lon="5.23192">
        <ele>1322</ele>
        <time>2024-07-02T13:49:24Z</time>
      </trkpt>
      <trkpt lat="44.89864" lon="5.23191">
        <ele>1322.2</ele>
        <time>2024-07-02T13:49:25Z</time>
      </trkpt>
      <trkpt lat="44.89865" lon="5.2319">
        <ele>1322.2</ele>
        <time>2024-07-02T13:49:26Z</time>
      </trkpt>
      <trkpt lat="44.89866" lon="5.23188">
        <ele>1322.3</ele>
        <time>2024-07-02T13:49:27Z</time>
      </trkpt>
      <trkpt lat="44.89866" lon="5.23187">
        <ele>1322.4</ele>
        <time>2024-07-02T13:49:28Z</time>
      </trkpt>
      <trkpt lat="44.89866" lon="5.23186">
        <ele>1322.5</ele>
        <time>2024-07-02T13:49:29Z</time>
      </trkpt>
      <trkpt lat="44.89867" lon="5.23184">
        <ele>1322.6</ele>
        <time>2024-07-02T13:49:30Z</time>
      </trkpt>
      <trkpt lat="44.89867" lon="5.23183">
        <ele>1322.7</ele>
        <time>2024-07-02T13:49:31Z</time>
      </trkpt>
      <trkpt lat="44.89867" lon="5.23181">
        <ele>1322.7</ele>
        <time>2024-07-02T13:49:32Z</time>
      </trkpt>
      <trkpt lat="44.89868" lon="5.23179">
        <ele>1322.9</ele>
        <time>2024-07-02T13:49:33Z</time>
      </trkpt>
      <trkpt lat="44.89868" lon="5.23177">
        <ele>1323</ele>
        <time>2024-07-02T13:49:34Z</time>
      </trkpt>
      <trkpt lat="44.89868" lon="5.23176">
        <ele>1323</ele>
        <time>2024-07-02T13:49:35Z</time>
      </trkpt>
      <trkpt lat="44.89868" lon="5.23175">
        <ele>1323.1</ele>
        <time>2024-07-02T13:49:36Z</time>
      </trkpt>
      <trkpt lat="44.89868" lon="5.23173">
        <ele>1323.2</ele>
        <time>2024-07-02T13:49:37Z</time>
      </trkpt>
      <trkpt lat="44.89869" lon="5.23172">
        <ele>1323.3</ele>
        <time>2024-07-02T13:49:38Z</time>
      </trkpt>
      <trkpt lat="44.89869" lon="5.2317">
        <ele>1323.4</ele>
        <time>2024-07-02T13:49:39Z</time>
      </trkpt>
      <trkpt lat="44.89869" lon="5.23169">
        <ele>1323.5</ele>
        <time>2024-07-02T13:49:40Z</time>
      </trkpt>
      <trkpt lat="44.89869" lon="5.23167">
        <ele>1323.5</ele>
        <time>2024-07-02T13:49:41Z</time>
      </trkpt>
      <trkpt lat="44.89869" lon="5.23166">
        <ele>1323.6</ele>
        <time>2024-07-02T13:49:42Z</time>
      </trkpt>
      <trkpt lat="44.8987" lon="5.23164">
        <ele>1323.7</ele>
        <time>2024-07-02T13:49:43Z</time>
      </trkpt>
      <trkpt lat="44.8987" lon="5.23163">
        <ele>1323.8</ele>
        <time>2024-07-02T13:49:44Z</time>
      </trkpt>
      <trkpt lat="44.8987" lon="5.23161">
        <ele>1323.9</ele>
        <time>2024-07-02T13:49:45Z</time>
      </trkpt>
      <trkpt lat="44.8987" lon="5.2316">
        <ele>1324</ele>
        <time>2024-07-02T13:49:46Z</time>
      </trkpt>
      <trkpt lat="44.8987" lon="5.23158">
        <ele>1324.1</ele>
        <time>2024-07-02T13:49:47Z</time>
      </trkpt>
      <trkpt lat="44.8987" lon="5.23157">
        <ele>1324.1</ele>
        <time>2024-07-02T13:49:48Z</time>
      </trkpt>
      <trkpt lat="44.8987" lon="5.23154">
        <ele>1324.3</ele>
        <time>2024-07-02T13:49:49Z</time>
      </trkpt>
      <trkpt lat="44.8987" lon="5.23153">
        <ele>1324.3</ele>
        <time>2024-07-02T13:49:50Z</time>
      </trkpt>
      <trkpt lat="44.8987" lon="5.23151">
        <ele>1324.4</ele>
        <time>2024-07-02T13:49:51Z</time>
      </trkpt>
      <trkpt lat="44.89871" lon="5.2315">
        <ele>1324.5</ele>
        <time>2024-07-02T13:49:52Z</time>
      </trkpt>
      <trkpt lat="44.89871" lon="5.23149">
        <ele>1324.6</ele>
        <time>2024-07-02T13:49:53Z</time>
      </trkpt>
      <trkpt lat="44.89871" lon="5.23148">
        <ele>1324.6</ele>
        <time>2024-07-02T13:49:54Z</time>
      </trkpt>
      <trkpt lat="44.89871" lon="5.23147">
        <ele>1324.7</ele>
        <time>2024-07-02T13:49:55Z</time>
      </trkpt>
      <trkpt lat="44.89871" lon="5.23145">
        <ele>1324.8</ele>
        <time>2024-07-02T13:49:56Z</time>
      </trkpt>
      <trkpt lat="44.8987" lon="5.23146">
        <ele>1324.8</ele>
        <time>2024-07-02T13:49:57Z</time>
      </trkpt>
      <trkpt lat="44.8987" lon="5.23146">
        <ele>1324.9</ele>
        <time>2024-07-02T13:49:58Z</time>
      </trkpt>
      <trkpt lat="44.89869" lon="5.23145">
        <ele>1324.9</ele>
        <time>2024-07-02T13:49:59Z</time>
      </trkpt>
      <trkpt lat="44.8987" lon="5.23144">
        <ele>1325</ele>
        <time>2024-07-02T13:50:00Z</time>
      </trkpt>
      <trkpt lat="44.89869" lon="5.23144">
        <ele>1325</ele>
        <time>2024-07-02T13:50:01Z</time>
      </trkpt>
      <trkpt lat="44.8987" lon="5.23143">
        <ele>1325.1</ele>
        <time>2024-07-02T13:50:02Z</time>
      </trkpt>
      <trkpt lat="44.89871" lon="5.23142">
        <ele>1325.2</ele>
        <time>2024-07-02T13:50:03Z</time>
      </trkpt>
      <trkpt lat="44.89872" lon="5.23141">
        <ele>1325.3</ele>
        <time>2024-07-02T13:50:04Z</time>
      </trkpt>
      <trkpt lat="44.89872" lon="5.23137">
        <ele>1325.6</ele>
        <time>2024-07-02T13:50:05Z</time>
      </trkpt>
      <trkpt lat="44.89873" lon="5.23136">
        <ele>1325.6</ele>
        <time>2024-07-02T13:50:06Z</time>
      </trkpt>
      <trkpt lat="44.89874" lon="5.23134">
        <ele>1325.7</ele>
        <time>2024-07-02T13:50:07Z</time>
      </trkpt>
      <trkpt lat="44.89874" lon="5.23133">
        <ele>1325.8</ele>
        <time>2024-07-02T13:50:08Z</time>
      </trkpt>
      <trkpt lat="44.89876" lon="5.23131">
        <ele>1326</ele>
        <time>2024-07-02T13:50:09Z</time>
      </trkpt>
      <trkpt lat="44.89876" lon="5.2313">
        <ele>1326</ele>
        <time>2024-07-02T13:50:10Z</time>
      </trkpt>
      <trkpt lat="44.89876" lon="5.23128">
        <ele>1326.1</ele>
        <time>2024-07-02T13:50:11Z</time>
      </trkpt>
      <trkpt lat="44.89876" lon="5.23127">
        <ele>1326.2</ele>
        <time>2024-07-02T13:50:12Z</time>
      </trkpt>
      <trkpt lat="44.89876" lon="5.23125">
        <ele>1326.3</ele>
        <time>2024-07-02T13:50:13Z</time>
      </trkpt>
      <trkpt lat="44.89877" lon="5.23124">
        <ele>1326.3</ele>
        <time>2024-07-02T13:50:14Z</time>
      </trkpt>
      <trkpt lat="44.89877" lon="5.23122">
        <ele>1326.4</ele>
        <time>2024-07-02T13:50:15Z</time>
      </trkpt>
      <trkpt lat="44.89877" lon="5.23121">
        <ele>1326.5</ele>
        <time>2024-07-02T13:50:16Z</time>
      </trkpt>
      <trkpt lat="44.89877" lon="5.2312">
        <ele>1326.6</ele>
        <time>2024-07-02T13:50:17Z</time>
      </trkpt>
      <trkpt lat="44.89878" lon="5.23118">
        <ele>1326.6</ele>
        <time>2024-07-02T13:50:18Z</time>
      </trkpt>
      <trkpt lat="44.89878" lon="5.23117">
        <ele>1326.7</ele>
        <time>2024-07-02T13:50:19Z</time>
      </trkpt>
      <trkpt lat="44.89878" lon="5.23115">
        <ele>1326.8</ele>
        <time>2024-07-02T13:50:20Z</time>
      </trkpt>
      <trkpt lat="44.89879" lon="5.23114">
        <ele>1326.9</ele>
        <time>2024-07-02T13:50:21Z</time>
      </trkpt>
      <trkpt lat="44.89879" lon="5.23113">
        <ele>1326.9</ele>
        <time>2024-07-02T13:50:22Z</time>
      </trkpt>
      <trkpt lat="44.89879" lon="5.23112">
        <ele>1327</ele>
        <time>2024-07-02T13:50:23Z</time>
      </trkpt>
      <trkpt lat="44.8988" lon="5.2311">
        <ele>1327.1</ele>
        <time>2024-07-02T13:50:24Z</time>
      </trkpt>
      <trkpt lat="44.8988" lon="5.23109">
        <ele>1327.2</ele>
        <time>2024-07-02T13:50:25Z</time>
      </trkpt>
      <trkpt lat="44.89881" lon="5.23107">
        <ele>1327.3</ele>
        <time>2024-07-02T13:50:26Z</time>
      </trkpt>
      <trkpt lat="44.89882" lon="5.23105">
        <ele>1327.4</ele>
        <time>2024-07-02T13:50:27Z</time>
      </trkpt>
      <trkpt lat="44.89882" lon="5.23104">
        <ele>1327.5</ele>
        <time>2024-07-02T13:50:28Z</time>
      </trkpt>
      <trkpt lat="44.89882" lon="5.23102">
        <ele>1327.6</ele>
        <time>2024-07-02T13:50:29Z</time>
      </trkpt>
      <trkpt lat="44.89883" lon="5.23101">
        <ele>1327.6</ele>
        <time>2024-07-02T13:50:30Z</time>
      </trkpt>
      <trkpt lat="44.89883" lon="5.231">
        <ele>1327.7</ele>
        <time>2024-07-02T13:50:31Z</time>
      </trkpt>
      <trkpt lat="44.89883" lon="5.23098">
        <ele>1327.8</ele>
        <time>2024-07-02T13:50:32Z</time>
      </trkpt>
      <trkpt lat="44.89883" lon="5.23095">
        <ele>1328</ele>
        <time>2024-07-02T13:50:33Z</time>
      </trkpt>
      <trkpt lat="44.89884" lon="5.23093">
        <ele>1328</ele>
        <time>2024-07-02T13:50:34Z</time>
      </trkpt>
      <trkpt lat="44.89884" lon="5.23092">
        <ele>1328.1</ele>
        <time>2024-07-02T13:50:35Z</time>
      </trkpt>
      <trkpt lat="44.89884" lon="5.2309">
        <ele>1328.2</ele>
        <time>2024-07-02T13:50:36Z</time>
      </trkpt>
      <trkpt lat="44.89884" lon="5.23089">
        <ele>1328.3</ele>
        <time>2024-07-02T13:50:37Z</time>
      </trkpt>
      <trkpt lat="44.89884" lon="5.23087">
        <ele>1328.3</ele>
        <time>2024-07-02T13:50:38Z</time>
      </trkpt>
      <trkpt lat="44.89885" lon="5.23086">
        <ele>1328.4</ele>
        <time>2024-07-02T13:50:39Z</time>
      </trkpt>
      <trkpt lat="44.89885" lon="5.23084">
        <ele>1328.5</ele>
        <time>2024-07-02T13:50:40Z</time>
      </trkpt>
      <trkpt lat="44.89886" lon="5.23083">
        <ele>1328.5</ele>
        <time>2024-07-02T13:50:41Z</time>
      </trkpt>
      <trkpt lat="44.89886" lon="5.23082">
        <ele>1328.6</ele>
        <time>2024-07-02T13:50:42Z</time>
      </trkpt>
      <trkpt lat="44.89887" lon="5.23081">
        <ele>1328.7</ele>
        <time>2024-07-02T13:50:43Z</time>
      </trkpt>
      <trkpt lat="44.89887" lon="5.23079">
        <ele>1328.7</ele>
        <time>2024-07-02T13:50:44Z</time>
      </trkpt>
      <trkpt lat="44.89888" lon="5.23078">
        <ele>1328.8</ele>
        <time>2024-07-02T13:50:45Z</time>
      </trkpt>
      <trkpt lat="44.89888" lon="5.23077">
        <ele>1328.9</ele>
        <time>2024-07-02T13:50:46Z</time>
      </trkpt>
      <trkpt lat="44.89889" lon="5.23075">
        <ele>1328.9</ele>
        <time>2024-07-02T13:50:47Z</time>
      </trkpt>
      <trkpt lat="44.89889" lon="5.23074">
        <ele>1329</ele>
        <time>2024-07-02T13:50:48Z</time>
      </trkpt>
      <trkpt lat="44.8989" lon="5.23072">
        <ele>1329.1</ele>
        <time>2024-07-02T13:50:49Z</time>
      </trkpt>
      <trkpt lat="44.8989" lon="5.23071">
        <ele>1329.2</ele>
        <time>2024-07-02T13:50:50Z</time>
      </trkpt>
      <trkpt lat="44.8989" lon="5.23069">
        <ele>1329.2</ele>
        <time>2024-07-02T13:50:51Z</time>
      </trkpt>
      <trkpt lat="44.89891" lon="5.23068">
        <ele>1329.3</ele>
        <time>2024-07-02T13:50:52Z</time>
      </trkpt>
      <trkpt lat="44.89892" lon="5.23066">
        <ele>1329.4</ele>
        <time>2024-07-02T13:50:53Z</time>
      </trkpt>
      <trkpt lat="44.89892" lon="5.23065">
        <ele>1329.4</ele>
        <time>2024-07-02T13:50:54Z</time>
      </trkpt>
      <trkpt lat="44.89893" lon="5.23063">
        <ele>1329.5</ele>
        <time>2024-07-02T13:50:55Z</time>
      </trkpt>
      <trkpt lat="44.89893" lon="5.23062">
        <ele>1329.5</ele>
        <time>2024-07-02T13:50:56Z</time>
      </trkpt>
      <trkpt lat="44.89894" lon="5.2306">
        <ele>1329.5</ele>
        <time>2024-07-02T13:50:57Z</time>
      </trkpt>
      <trkpt lat="44.89894" lon="5.23059">
        <ele>1329.6</ele>
        <time>2024-07-02T13:50:58Z</time>
      </trkpt>
      <trkpt lat="44.89894" lon="5.23058">
        <ele>1329.6</ele>
        <time>2024-07-02T13:50:59Z</time>
      </trkpt>
      <trkpt lat="44.89894" lon="5.23056">
        <ele>1329.7</ele>
        <time>2024-07-02T13:51:00Z</time>
      </trkpt>
      <trkpt lat="44.89895" lon="5.23055">
        <ele>1329.7</ele>
        <time>2024-07-02T13:51:01Z</time>
      </trkpt>
      <trkpt lat="44.89896" lon="5.23055">
        <ele>1329.8</ele>
        <time>2024-07-02T13:51:02Z</time>
      </trkpt>
      <trkpt lat="44.89897" lon="5.23056">
        <ele>1329.8</ele>
        <time>2024-07-02T13:51:03Z</time>
      </trkpt>
      <trkpt lat="44.89899" lon="5.23057">
        <ele>1329.9</ele>
        <time>2024-07-02T13:51:04Z</time>
      </trkpt>
      <trkpt lat="44.89901" lon="5.23057">
        <ele>1329.9</ele>
        <time>2024-07-02T13:51:05Z</time>
      </trkpt>
      <trkpt lat="44.89902" lon="5.23057">
        <ele>1330</ele>
        <time>2024-07-02T13:51:06Z</time>
      </trkpt>
      <trkpt lat="44.89903" lon="5.23057">
        <ele>1330</ele>
        <time>2024-07-02T13:51:07Z</time>
      </trkpt>
      <trkpt lat="44.89905" lon="5.23057">
        <ele>1330.1</ele>
        <time>2024-07-02T13:51:08Z</time>
      </trkpt>
      <trkpt lat="44.89906" lon="5.23057">
        <ele>1330.1</ele>
        <time>2024-07-02T13:51:09Z</time>
      </trkpt>
      <trkpt lat="44.89907" lon="5.23057">
        <ele>1330.2</ele>
        <time>2024-07-02T13:51:10Z</time>
      </trkpt>
      <trkpt lat="44.89908" lon="5.23057">
        <ele>1330.2</ele>
        <time>2024-07-02T13:51:11Z</time>
      </trkpt>
      <trkpt lat="44.89909" lon="5.23057">
        <ele>1330.3</ele>
        <time>2024-07-02T13:51:12Z</time>
      </trkpt>
      <trkpt lat="44.89911" lon="5.23058">
        <ele>1330.4</ele>
        <time>2024-07-02T13:51:13Z</time>
      </trkpt>
      <trkpt lat="44.89912" lon="5.23059">
        <ele>1330.4</ele>
        <time>2024-07-02T13:51:14Z</time>
      </trkpt>
      <trkpt lat="44.89913" lon="5.23059">
        <ele>1330.4</ele>
        <time>2024-07-02T13:51:15Z</time>
      </trkpt>
      <trkpt lat="44.89914" lon="5.2306">
        <ele>1330.5</ele>
        <time>2024-07-02T13:51:16Z</time>
      </trkpt>
      <trkpt lat="44.89915" lon="5.2306">
        <ele>1330.5</ele>
        <time>2024-07-02T13:51:17Z</time>
      </trkpt>
      <trkpt lat="44.89916" lon="5.23061">
        <ele>1330.5</ele>
        <time>2024-07-02T13:51:18Z</time>
      </trkpt>
      <trkpt lat="44.89917" lon="5.23061">
        <ele>1330.6</ele>
        <time>2024-07-02T13:51:19Z</time>
      </trkpt>
      <trkpt lat="44.89917" lon="5.2306">
        <ele>1330.6</ele>
        <time>2024-07-02T13:51:20Z</time>
      </trkpt>
      <trkpt lat="44.89916" lon="5.23061">
        <ele>1330.7</ele>
        <time>2024-07-02T13:51:21Z</time>
      </trkpt>
      <trkpt lat="44.89916" lon="5.23062">
        <ele>1330.7</ele>
        <time>2024-07-02T13:51:22Z</time>
      </trkpt>
      <trkpt lat="44.89916" lon="5.23063">
        <ele>1330.7</ele>
        <time>2024-07-02T13:51:23Z</time>
      </trkpt>
      <trkpt lat="44.89917" lon="5.23063">
        <ele>1330.7</ele>
        <time>2024-07-02T13:51:24Z</time>
      </trkpt>
      <trkpt lat="44.89918" lon="5.23063">
        <ele>1330.8</ele>
        <time>2024-07-02T13:51:25Z</time>
      </trkpt>
      <trkpt lat="44.89919" lon="5.23063">
        <ele>1330.8</ele>
        <time>2024-07-02T13:51:26Z</time>
      </trkpt>
      <trkpt lat="44.8992" lon="5.23064">
        <ele>1330.9</ele>
        <time>2024-07-02T13:51:27Z</time>
      </trkpt>
      <trkpt lat="44.89922" lon="5.23064">
        <ele>1330.9</ele>
        <time>2024-07-02T13:51:28Z</time>
      </trkpt>
      <trkpt lat="44.89923" lon="5.23065">
        <ele>1331</ele>
        <time>2024-07-02T13:51:30Z</time>
      </trkpt>
      <trkpt lat="44.89924" lon="5.23066">
        <ele>1331</ele>
        <time>2024-07-02T13:51:31Z</time>
      </trkpt>
      <trkpt lat="44.89925" lon="5.23067">
        <ele>1331.1</ele>
        <time>2024-07-02T13:51:32Z</time>
      </trkpt>
      <trkpt lat="44.89927" lon="5.23068">
        <ele>1331.1</ele>
        <time>2024-07-02T13:51:33Z</time>
      </trkpt>
      <trkpt lat="44.89929" lon="5.23068">
        <ele>1331.2</ele>
        <time>2024-07-02T13:51:35Z</time>
      </trkpt>
      <trkpt lat="44.8993" lon="5.23067">
        <ele>1331.2</ele>
        <time>2024-07-02T13:51:36Z</time>
      </trkpt>
      <trkpt lat="44.89931" lon="5.23066">
        <ele>1331.3</ele>
        <time>2024-07-02T13:51:37Z</time>
      </trkpt>
      <trkpt lat="44.89932" lon="5.23066">
        <ele>1331.3</ele>
        <time>2024-07-02T13:51:38Z</time>
      </trkpt>
      <trkpt lat="44.89934" lon="5.23065">
        <ele>1331.4</ele>
        <time>2024-07-02T13:51:39Z</time>
      </trkpt>
      <trkpt lat="44.89935" lon="5.23063">
        <ele>1331.4</ele>
        <time>2024-07-02T13:51:40Z</time>
      </trkpt>
      <trkpt lat="44.89936" lon="5.23062">
        <ele>1331.5</ele>
        <time>2024-07-02T13:51:55Z</time>
      </trkpt>
      <trkpt lat="44.89937" lon="5.2306">
        <ele>1331.5</ele>
        <time>2024-07-02T13:51:56Z</time>
      </trkpt>
      <trkpt lat="44.89917" lon="5.23043">
        <ele>1332.3</ele>
        <time>2024-07-02T13:51:57Z</time>
      </trkpt>
      <trkpt lat="44.89916" lon="5.23043">
        <ele>1332.3</ele>
        <time>2024-07-02T13:51:58Z</time>
      </trkpt>
      <trkpt lat="44.89911" lon="5.23028">
        <ele>1332.6</ele>
        <time>2024-07-02T13:51:59Z</time>
      </trkpt>
      <trkpt lat="44.89911" lon="5.23002">
        <ele>1332.9</ele>
        <time>2024-07-02T13:52:00Z</time>
      </trkpt>
      <trkpt lat="44.89915" lon="5.22974">
        <ele>1333.1</ele>
        <time>2024-07-02T13:52:01Z</time>
      </trkpt>
      <trkpt lat="44.89917" lon="5.22966">
        <ele>1333.2</ele>
        <time>2024-07-02T13:52:02Z</time>
      </trkpt>
      <trkpt lat="44.89919" lon="5.2296">
        <ele>1333.3</ele>
        <time>2024-07-02T13:52:03Z</time>
      </trkpt>
      <trkpt lat="44.89919" lon="5.22957">
        <ele>1333.3</ele>
        <time>2024-07-02T13:52:04Z</time>
      </trkpt>
      <trkpt lat="44.8992" lon="5.22953">
        <ele>1333.3</ele>
        <time>2024-07-02T13:52:05Z</time>
      </trkpt>
      <trkpt lat="44.8992" lon="5.22952">
        <ele>1333.3</ele>
        <time>2024-07-02T13:52:06Z</time>
      </trkpt>
      <trkpt lat="44.89922" lon="5.2295">
        <ele>1333.3</ele>
        <time>2024-07-02T13:52:07Z</time>
      </trkpt>
      <trkpt lat="44.89922" lon="5.22949">
        <ele>1333.3</ele>
        <time>2024-07-02T13:52:08Z</time>
      </trkpt>
      <trkpt lat="44.89923" lon="5.22948">
        <ele>1333.3</ele>
        <time>2024-07-02T13:52:09Z</time>
      </trkpt>
      <trkpt lat="44.89923" lon="5.22947">
        <ele>1333.3</ele>
        <time>2024-07-02T13:52:10Z</time>
      </trkpt>
      <trkpt lat="44.89923" lon="5.22946">
        <ele>1333.3</ele>
        <time>2024-07-02T13:52:11Z</time>
      </trkpt>
      <trkpt lat="44.89924" lon="5.22944">
        <ele>1333.4</ele>
        <time>2024-07-02T13:52:12Z</time>
      </trkpt>
      <trkpt lat="44.89925" lon="5.22943">
        <ele>1333.4</ele>
        <time>2024-07-02T13:52:13Z</time>
      </trkpt>
      <trkpt lat="44.89925" lon="5.22942">
        <ele>1333.4</ele>
        <time>2024-07-02T13:52:14Z</time>
      </trkpt>
      <trkpt lat="44.89926" lon="5.2294">
        <ele>1333.4</ele>
        <time>2024-07-02T13:52:15Z</time>
      </trkpt>
      <trkpt lat="44.89927" lon="5.22938">
        <ele>1333.4</ele>
        <time>2024-07-02T13:52:16Z</time>
      </trkpt>
      <trkpt lat="44.89927" lon="5.22937">
        <ele>1333.4</ele>
        <time>2024-07-02T13:52:17Z</time>
      </trkpt>
      <trkpt lat="44.89927" lon="5.22937">
        <ele>1333.4</ele>
        <time>2024-07-02T13:52:18Z</time>
      </trkpt>
      <trkpt lat="44.89928" lon="5.22936">
        <ele>1333.4</ele>
        <time>2024-07-02T13:52:19Z</time>
      </trkpt>
      <trkpt lat="44.89928" lon="5.22935">
        <ele>1333.4</ele>
        <time>2024-07-02T13:52:21Z</time>
      </trkpt>
      <trkpt lat="44.89928" lon="5.22934">
        <ele>1333.4</ele>
        <time>2024-07-02T13:52:22Z</time>
      </trkpt>
      <trkpt lat="44.89929" lon="5.22933">
        <ele>1333.4</ele>
        <time>2024-07-02T13:52:23Z</time>
      </trkpt>
      <trkpt lat="44.8993" lon="5.22931">
        <ele>1333.4</ele>
        <time>2024-07-02T13:52:24Z</time>
      </trkpt>
      <trkpt lat="44.89931" lon="5.22931">
        <ele>1333.4</ele>
        <time>2024-07-02T13:52:25Z</time>
      </trkpt>
      <trkpt lat="44.89931" lon="5.2293">
        <ele>1333.4</ele>
        <time>2024-07-02T13:52:26Z</time>
      </trkpt>
      <trkpt lat="44.89932" lon="5.22927">
        <ele>1333.4</ele>
        <time>2024-07-02T13:52:27Z</time>
      </trkpt>
      <trkpt lat="44.89933" lon="5.22926">
        <ele>1333.4</ele>
        <time>2024-07-02T13:52:28Z</time>
      </trkpt>
      <trkpt lat="44.89933" lon="5.22925">
        <ele>1333.4</ele>
        <time>2024-07-02T13:52:29Z</time>
      </trkpt>
    </trkseg>
  </trk>
</gpx>